﻿<?xml version="1.0" encoding="UTF-8"?>
<gpx xmlns="http://www.topografix.com/GPX/1/1" creator="HOLUX ezTour Plus" version="1.1">
<metadata>
<link href="http://www.holux.com"><text>HOLUX Technology, Inc.</text></link>
<time>2012-08-01T18:46:13Z</time></metadata>
<trk>
<name><![CDATA[raw1]]></name>
<trkseg>
<trkpt lat="64.137916565" lon="-21.934911728">
<ele>89.312500</ele>
<time>2012-07-18T09:41:00Z</time>
<speed>0.120000</speed>
<extensions>
<speed>0.1</speed>
<temp>0.00</temp>
<bpm>0</bpm>
<rpm>0.00</rpm>
</extensions>
</trkpt>
<trkpt lat="64.138015747" lon="-21.934747696">
<ele>89.232422</ele>
<time>2012-07-18T09:41:05Z</time>
<speed>0.540000</speed>
<extensions>
<speed>0.5</speed>
<temp>0.00</temp>
<bpm>0</bpm>
<rpm>0.00</rpm>
</extensions>
</trkpt>
<trkpt lat="64.138046265" lon="-21.934743881">
<ele>89.207031</ele>
<time>2012-07-18T09:41:10Z</time>
<speed>0.360000</speed>
<extensions>
<speed>0.4</speed>
<temp>0.00</temp>
<bpm>0</bpm>
<rpm>0.00</rpm>
</extensions>
</trkpt>
<trkpt lat="64.138053894" lon="-21.934755325">
<ele>89.214844</ele>
<time>2012-07-18T09:41:15Z</time>
<speed>0.760000</speed>
<extensions>
<speed>0.8</speed>
<temp>0.00</temp>
<bpm>0</bpm>
<rpm>0.00</rpm>
</extensions>
</trkpt>
<trkpt lat="64.138084412" lon="-21.934680939">
<ele>89.244141</ele>
<time>2012-07-18T09:41:20Z</time>
<speed>0.740000</speed>
<extensions>
<speed>0.7</speed>
<temp>0.00</temp>
<bpm>0</bpm>
<rpm>0.00</rpm>
</extensions>
</trkpt>
<trkpt lat="64.137992859" lon="-21.934795380">
<ele>89.267578</ele>
<time>2012-07-18T09:41:25Z</time>
<speed>0.250000</speed>
<extensions>
<speed>0.2</speed>
<temp>0.00</temp>
<bpm>0</bpm>
<rpm>0.00</rpm>
</extensions>
</trkpt>
<trkpt lat="64.137924194" lon="-21.934862137">
<ele>89.306641</ele>
<time>2012-07-18T09:41:30Z</time>
<speed>0.060000</speed>
<extensions>
<speed>0.1</speed>
<temp>0.00</temp>
<bpm>0</bpm>
<rpm>0.00</rpm>
</extensions>
</trkpt>
<trkpt lat="64.137878418" lon="-21.934921265">
<ele>89.275391</ele>
<time>2012-07-18T09:41:35Z</time>
<speed>0.060000</speed>
<extensions>
<speed>0.1</speed>
<temp>0.00</temp>
<bpm>0</bpm>
<rpm>0.00</rpm>
</extensions>
</trkpt>
<trkpt lat="64.137863159" lon="-21.934938431">
<ele>88.900391</ele>
<time>2012-07-18T09:41:40Z</time>
<speed>0.170000</speed>
<extensions>
<speed>0.2</speed>
<temp>0.00</temp>
<bpm>0</bpm>
<rpm>0.00</rpm>
</extensions>
</trkpt>
<trkpt lat="64.137855530" lon="-21.934940338">
<ele>88.937500</ele>
<time>2012-07-18T09:41:45Z</time>
<speed>0.020000</speed>
<extensions>
<speed>0.0</speed>
<temp>0.00</temp>
<bpm>0</bpm>
<rpm>0.00</rpm>
</extensions>
</trkpt>
<trkpt lat="64.137855530" lon="-21.934951782">
<ele>89.087891</ele>
<time>2012-07-18T09:41:50Z</time>
<speed>0.240000</speed>
<extensions>
<speed>0.2</speed>
<temp>0.00</temp>
<bpm>0</bpm>
<rpm>0.00</rpm>
</extensions>
</trkpt>
<trkpt lat="64.137847900" lon="-21.934967041">
<ele>89.164063</ele>
<time>2012-07-18T09:41:55Z</time>
<speed>0.090000</speed>
<extensions>
<speed>0.1</speed>
<temp>0.00</temp>
<bpm>0</bpm>
<rpm>0.00</rpm>
</extensions>
</trkpt>
<trkpt lat="64.137840271" lon="-21.934965134">
<ele>89.140625</ele>
<time>2012-07-18T09:42:00Z</time>
<speed>0.090000</speed>
<extensions>
<speed>0.1</speed>
<temp>0.00</temp>
<bpm>0</bpm>
<rpm>0.00</rpm>
</extensions>
</trkpt>
<trkpt lat="64.137832642" lon="-21.934967041">
<ele>89.027344</ele>
<time>2012-07-18T09:42:05Z</time>
<speed>0.070000</speed>
<extensions>
<speed>0.1</speed>
<temp>0.00</temp>
<bpm>0</bpm>
<rpm>0.00</rpm>
</extensions>
</trkpt>
<trkpt lat="64.137825012" lon="-21.934965134">
<ele>88.906250</ele>
<time>2012-07-18T09:42:10Z</time>
<speed>0.470000</speed>
<extensions>
<speed>0.5</speed>
<temp>0.00</temp>
<bpm>0</bpm>
<rpm>0.00</rpm>
</extensions>
</trkpt>
<trkpt lat="64.137802124" lon="-21.934804916">
<ele>83.546875</ele>
<time>2012-07-18T09:42:15Z</time>
<speed>0.760000</speed>
<extensions>
<speed>0.8</speed>
<temp>0.00</temp>
<bpm>0</bpm>
<rpm>0.00</rpm>
</extensions>
</trkpt>
<trkpt lat="64.137748718" lon="-21.934831619">
<ele>82.750000</ele>
<time>2012-07-18T09:42:20Z</time>
<speed>0.390000</speed>
<extensions>
<speed>0.4</speed>
<temp>0.00</temp>
<bpm>0</bpm>
<rpm>0.00</rpm>
</extensions>
</trkpt>
<trkpt lat="64.137710571" lon="-21.934902191">
<ele>81.544922</ele>
<time>2012-07-18T09:42:25Z</time>
<speed>0.050000</speed>
<extensions>
<speed>0.1</speed>
<temp>0.00</temp>
<bpm>0</bpm>
<rpm>0.00</rpm>
</extensions>
</trkpt>
<trkpt lat="64.137641907" lon="-21.934988022">
<ele>78.507813</ele>
<time>2012-07-18T09:42:30Z</time>
<speed>1.220000</speed>
<extensions>
<speed>1.2</speed>
<temp>0.00</temp>
<bpm>0</bpm>
<rpm>0.00</rpm>
</extensions>
</trkpt>
<trkpt lat="64.137626648" lon="-21.935113907">
<ele>75.308594</ele>
<time>2012-07-18T09:42:35Z</time>
<speed>1.590000</speed>
<extensions>
<speed>1.6</speed>
<temp>0.00</temp>
<bpm>0</bpm>
<rpm>0.00</rpm>
</extensions>
</trkpt>
<trkpt lat="64.137680054" lon="-21.935235977">
<ele>69.443359</ele>
<time>2012-07-18T09:42:40Z</time>
<speed>2.510000</speed>
<extensions>
<speed>2.5</speed>
<temp>0.00</temp>
<bpm>0</bpm>
<rpm>0.00</rpm>
</extensions>
</trkpt>
<trkpt lat="64.137603760" lon="-21.935253143">
<ele>65.128906</ele>
<time>2012-07-18T09:42:45Z</time>
<speed>1.540000</speed>
<extensions>
<speed>1.5</speed>
<temp>0.00</temp>
<bpm>0</bpm>
<rpm>0.00</rpm>
</extensions>
</trkpt>
<trkpt lat="64.137580872" lon="-21.935077667">
<ele>65.173828</ele>
<time>2012-07-18T09:42:50Z</time>
<speed>2.200000</speed>
<extensions>
<speed>2.2</speed>
<temp>0.00</temp>
<bpm>0</bpm>
<rpm>0.00</rpm>
</extensions>
</trkpt>
<trkpt lat="64.137512207" lon="-21.935092926">
<ele>58.985352</ele>
<time>2012-07-18T09:42:55Z</time>
<speed>0.390000</speed>
<extensions>
<speed>0.4</speed>
<temp>0.00</temp>
<bpm>0</bpm>
<rpm>0.00</rpm>
</extensions>
</trkpt>
<trkpt lat="64.137496948" lon="-21.935121536">
<ele>58.016602</ele>
<time>2012-07-18T09:43:00Z</time>
<speed>0.160000</speed>
<extensions>
<speed>0.2</speed>
<temp>0.00</temp>
<bpm>0</bpm>
<rpm>0.00</rpm>
</extensions>
</trkpt>
<trkpt lat="64.137504578" lon="-21.935117722">
<ele>58.127930</ele>
<time>2012-07-18T09:43:05Z</time>
<speed>0.040000</speed>
<extensions>
<speed>0.0</speed>
<temp>0.00</temp>
<bpm>0</bpm>
<rpm>0.00</rpm>
</extensions>
</trkpt>
<trkpt lat="64.137481689" lon="-21.935129166">
<ele>57.577148</ele>
<time>2012-07-18T09:43:10Z</time>
<speed>0.420000</speed>
<extensions>
<speed>0.4</speed>
<temp>0.00</temp>
<bpm>0</bpm>
<rpm>0.00</rpm>
</extensions>
</trkpt>
<trkpt lat="64.137458801" lon="-21.935178757">
<ele>56.135742</ele>
<time>2012-07-18T09:43:15Z</time>
<speed>0.600000</speed>
<extensions>
<speed>0.6</speed>
<temp>0.00</temp>
<bpm>0</bpm>
<rpm>0.00</rpm>
</extensions>
</trkpt>
<trkpt lat="64.137428284" lon="-21.935245514">
<ele>55.593750</ele>
<time>2012-07-18T09:43:20Z</time>
<speed>0.240000</speed>
<extensions>
<speed>0.2</speed>
<temp>0.00</temp>
<bpm>0</bpm>
<rpm>0.00</rpm>
</extensions>
</trkpt>
<trkpt lat="64.137443542" lon="-21.935161591">
<ele>52.480469</ele>
<time>2012-07-18T09:43:25Z</time>
<speed>0.170000</speed>
<extensions>
<speed>0.2</speed>
<temp>0.00</temp>
<bpm>0</bpm>
<rpm>0.00</rpm>
</extensions>
</trkpt>
<trkpt lat="64.137458801" lon="-21.935146332">
<ele>52.367188</ele>
<time>2012-07-18T09:43:30Z</time>
<speed>0.030000</speed>
<extensions>
<speed>0.0</speed>
<temp>0.00</temp>
<bpm>0</bpm>
<rpm>0.00</rpm>
</extensions>
</trkpt>
<trkpt lat="64.137466431" lon="-21.935136795">
<ele>52.102539</ele>
<time>2012-07-18T09:43:35Z</time>
<speed>0.080000</speed>
<extensions>
<speed>0.1</speed>
<temp>0.00</temp>
<bpm>0</bpm>
<rpm>0.00</rpm>
</extensions>
</trkpt>
<trkpt lat="64.137687683" lon="-21.934768677">
<ele>25.134766</ele>
<time>2012-07-18T09:43:40Z</time>
<speed>0.130000</speed>
<extensions>
<speed>0.1</speed>
<temp>0.00</temp>
<bpm>0</bpm>
<rpm>0.00</rpm>
</extensions>
</trkpt>
<trkpt lat="64.137687683" lon="-21.934768677">
<ele>25.336426</ele>
<time>2012-07-18T09:43:45Z</time>
<extensions>
<speed>0.0</speed>
<temp>0.00</temp>
<bpm>0</bpm>
<rpm>0.00</rpm>
</extensions>
</trkpt>
<trkpt lat="64.137687683" lon="-21.934766769">
<ele>25.332520</ele>
<time>2012-07-18T09:43:50Z</time>
<speed>0.440000</speed>
<extensions>
<speed>0.4</speed>
<temp>0.00</temp>
<bpm>0</bpm>
<rpm>0.00</rpm>
</extensions>
</trkpt>
<trkpt lat="64.137702942" lon="-21.934751511">
<ele>26.027832</ele>
<time>2012-07-18T09:43:55Z</time>
<speed>0.330000</speed>
<extensions>
<speed>0.3</speed>
<temp>0.00</temp>
<bpm>0</bpm>
<rpm>0.00</rpm>
</extensions>
</trkpt>
<trkpt lat="64.137695313" lon="-21.934717178">
<ele>27.440430</ele>
<time>2012-07-18T09:44:00Z</time>
<speed>0.380000</speed>
<extensions>
<speed>0.4</speed>
<temp>0.00</temp>
<bpm>0</bpm>
<rpm>0.00</rpm>
</extensions>
</trkpt>
<trkpt lat="64.137687683" lon="-21.934703827">
<ele>28.941895</ele>
<time>2012-07-18T09:44:05Z</time>
<speed>0.150000</speed>
<extensions>
<speed>0.2</speed>
<temp>0.00</temp>
<bpm>0</bpm>
<rpm>0.00</rpm>
</extensions>
</trkpt>
<trkpt lat="64.137687683" lon="-21.934694290">
<ele>29.397949</ele>
<time>2012-07-18T09:44:10Z</time>
<speed>0.260000</speed>
<extensions>
<speed>0.3</speed>
<temp>0.00</temp>
<bpm>0</bpm>
<rpm>0.00</rpm>
</extensions>
</trkpt>
<trkpt lat="64.137680054" lon="-21.934694290">
<ele>29.880371</ele>
<time>2012-07-18T09:44:15Z</time>
<speed>0.120000</speed>
<extensions>
<speed>0.1</speed>
<temp>0.00</temp>
<bpm>0</bpm>
<rpm>0.00</rpm>
</extensions>
</trkpt>
<trkpt lat="64.137680054" lon="-21.934690475">
<ele>30.471191</ele>
<time>2012-07-18T09:44:20Z</time>
<speed>0.240000</speed>
<extensions>
<speed>0.2</speed>
<temp>0.00</temp>
<bpm>0</bpm>
<rpm>0.00</rpm>
</extensions>
</trkpt>
<trkpt lat="64.137695313" lon="-21.934675217">
<ele>30.457520</ele>
<time>2012-07-18T09:44:25Z</time>
<speed>0.490000</speed>
<extensions>
<speed>0.5</speed>
<temp>0.00</temp>
<bpm>0</bpm>
<rpm>0.00</rpm>
</extensions>
</trkpt>
<trkpt lat="64.137718201" lon="-21.934635162">
<ele>30.741699</ele>
<time>2012-07-18T09:44:30Z</time>
<speed>0.510000</speed>
<extensions>
<speed>0.5</speed>
<temp>0.00</temp>
<bpm>0</bpm>
<rpm>0.00</rpm>
</extensions>
</trkpt>
<trkpt lat="64.137725830" lon="-21.934610367">
<ele>31.394531</ele>
<time>2012-07-18T09:44:35Z</time>
<speed>0.420000</speed>
<extensions>
<speed>0.4</speed>
<temp>0.00</temp>
<bpm>0</bpm>
<rpm>0.00</rpm>
</extensions>
</trkpt>
<trkpt lat="64.137702942" lon="-21.934581757">
<ele>30.083496</ele>
<time>2012-07-18T09:44:40Z</time>
<speed>0.270000</speed>
<extensions>
<speed>0.3</speed>
<temp>0.00</temp>
<bpm>0</bpm>
<rpm>0.00</rpm>
</extensions>
</trkpt>
<trkpt lat="64.137710571" lon="-21.934572220">
<ele>30.312988</ele>
<time>2012-07-18T09:44:45Z</time>
<speed>0.210000</speed>
<extensions>
<speed>0.2</speed>
<temp>0.00</temp>
<bpm>0</bpm>
<rpm>0.00</rpm>
</extensions>
</trkpt>
<trkpt lat="64.137718201" lon="-21.934568405">
<ele>30.702637</ele>
<time>2012-07-18T09:44:50Z</time>
<speed>0.100000</speed>
<extensions>
<speed>0.1</speed>
<temp>0.00</temp>
<bpm>0</bpm>
<rpm>0.00</rpm>
</extensions>
</trkpt>
<trkpt lat="64.137718201" lon="-21.934564590">
<ele>31.038574</ele>
<time>2012-07-18T09:44:55Z</time>
<speed>0.050000</speed>
<extensions>
<speed>0.1</speed>
<temp>0.00</temp>
<bpm>0</bpm>
<rpm>0.00</rpm>
</extensions>
</trkpt>
<trkpt lat="64.137718201" lon="-21.934566498">
<ele>31.315430</ele>
<time>2012-07-18T09:45:00Z</time>
<speed>0.020000</speed>
<extensions>
<speed>0.0</speed>
<temp>0.00</temp>
<bpm>0</bpm>
<rpm>0.00</rpm>
</extensions>
</trkpt>
<trkpt lat="64.137710571" lon="-21.934572220">
<ele>31.524414</ele>
<time>2012-07-18T09:45:05Z</time>
<speed>0.070000</speed>
<extensions>
<speed>0.1</speed>
<temp>0.00</temp>
<bpm>0</bpm>
<rpm>0.00</rpm>
</extensions>
</trkpt>
<trkpt lat="64.137710571" lon="-21.934576035">
<ele>31.679199</ele>
<time>2012-07-18T09:45:10Z</time>
<speed>0.080000</speed>
<extensions>
<speed>0.1</speed>
<temp>0.00</temp>
<bpm>0</bpm>
<rpm>0.00</rpm>
</extensions>
</trkpt>
<trkpt lat="64.137710571" lon="-21.934577942">
<ele>31.876953</ele>
<time>2012-07-18T09:45:15Z</time>
<speed>0.070000</speed>
<extensions>
<speed>0.1</speed>
<temp>0.00</temp>
<bpm>0</bpm>
<rpm>0.00</rpm>
</extensions>
</trkpt>
<trkpt lat="64.137710571" lon="-21.934568405">
<ele>32.100586</ele>
<time>2012-07-18T09:45:20Z</time>
<speed>0.160000</speed>
<extensions>
<speed>0.2</speed>
<temp>0.00</temp>
<bpm>0</bpm>
<rpm>0.00</rpm>
</extensions>
</trkpt>
<trkpt lat="64.137718201" lon="-21.934558868">
<ele>32.231445</ele>
<time>2012-07-18T09:45:25Z</time>
<speed>0.210000</speed>
<extensions>
<speed>0.2</speed>
<temp>0.00</temp>
<bpm>0</bpm>
<rpm>0.00</rpm>
</extensions>
</trkpt>
<trkpt lat="64.137725830" lon="-21.934539795">
<ele>32.309570</ele>
<time>2012-07-18T09:45:30Z</time>
<speed>0.200000</speed>
<extensions>
<speed>0.2</speed>
<temp>0.00</temp>
<bpm>0</bpm>
<rpm>0.00</rpm>
</extensions>
</trkpt>
<trkpt lat="64.137725830" lon="-21.934530258">
<ele>32.357422</ele>
<time>2012-07-18T09:45:35Z</time>
<speed>0.020000</speed>
<extensions>
<speed>0.0</speed>
<temp>0.00</temp>
<bpm>0</bpm>
<rpm>0.00</rpm>
</extensions>
</trkpt>
<trkpt lat="64.137725830" lon="-21.934535980">
<ele>32.361328</ele>
<time>2012-07-18T09:45:40Z</time>
<extensions>
<speed>0.0</speed>
<temp>0.00</temp>
<bpm>0</bpm>
<rpm>0.00</rpm>
</extensions>
</trkpt>
<trkpt lat="64.137725830" lon="-21.934541702">
<ele>32.348633</ele>
<time>2012-07-18T09:45:45Z</time>
<speed>0.310000</speed>
<extensions>
<speed>0.3</speed>
<temp>0.00</temp>
<bpm>0</bpm>
<rpm>0.00</rpm>
</extensions>
</trkpt>
<trkpt lat="64.137695313" lon="-21.934551239">
<ele>30.540039</ele>
<time>2012-07-18T09:45:50Z</time>
<speed>0.230000</speed>
<extensions>
<speed>0.2</speed>
<temp>0.00</temp>
<bpm>0</bpm>
<rpm>0.00</rpm>
</extensions>
</trkpt>
<trkpt lat="64.137687683" lon="-21.934556961">
<ele>30.443848</ele>
<time>2012-07-18T09:45:55Z</time>
<speed>0.150000</speed>
<extensions>
<speed>0.2</speed>
<temp>0.00</temp>
<bpm>0</bpm>
<rpm>0.00</rpm>
</extensions>
</trkpt>
<trkpt lat="64.137680054" lon="-21.934562683">
<ele>30.337402</ele>
<time>2012-07-18T09:46:00Z</time>
<speed>0.170000</speed>
<extensions>
<speed>0.2</speed>
<temp>0.00</temp>
<bpm>0</bpm>
<rpm>0.00</rpm>
</extensions>
</trkpt>
<trkpt lat="64.137672424" lon="-21.934577942">
<ele>30.215332</ele>
<time>2012-07-18T09:46:05Z</time>
<speed>0.290000</speed>
<extensions>
<speed>0.3</speed>
<temp>0.00</temp>
<bpm>0</bpm>
<rpm>0.00</rpm>
</extensions>
</trkpt>
<trkpt lat="64.137641907" lon="-21.934648514">
<ele>29.068359</ele>
<time>2012-07-18T09:46:10Z</time>
<speed>0.400000</speed>
<extensions>
<speed>0.4</speed>
<temp>0.00</temp>
<bpm>0</bpm>
<rpm>0.00</rpm>
</extensions>
</trkpt>
<trkpt lat="64.137596130" lon="-21.934711456">
<ele>28.479492</ele>
<time>2012-07-18T09:46:15Z</time>
<speed>0.440000</speed>
<extensions>
<speed>0.4</speed>
<temp>0.00</temp>
<bpm>0</bpm>
<rpm>0.00</rpm>
</extensions>
</trkpt>
<trkpt lat="64.137557983" lon="-21.934789658">
<ele>27.049316</ele>
<time>2012-07-18T09:46:20Z</time>
<speed>0.620000</speed>
<extensions>
<speed>0.6</speed>
<temp>0.00</temp>
<bpm>0</bpm>
<rpm>0.00</rpm>
</extensions>
</trkpt>
<trkpt lat="64.137527466" lon="-21.934837341">
<ele>25.762695</ele>
<time>2012-07-18T09:46:25Z</time>
<speed>0.480000</speed>
<extensions>
<speed>0.5</speed>
<temp>0.00</temp>
<bpm>0</bpm>
<rpm>0.00</rpm>
</extensions>
</trkpt>
<trkpt lat="64.137519836" lon="-21.934879303">
<ele>25.415527</ele>
<time>2012-07-18T09:46:30Z</time>
<speed>0.420000</speed>
<extensions>
<speed>0.4</speed>
<temp>0.00</temp>
<bpm>0</bpm>
<rpm>0.00</rpm>
</extensions>
</trkpt>
<trkpt lat="64.137512207" lon="-21.934886932">
<ele>24.523438</ele>
<time>2012-07-18T09:46:35Z</time>
<speed>0.380000</speed>
<extensions>
<speed>0.4</speed>
<temp>0.00</temp>
<bpm>0</bpm>
<rpm>0.00</rpm>
</extensions>
</trkpt>
<trkpt lat="64.137504578" lon="-21.934844971">
<ele>23.197266</ele>
<time>2012-07-18T09:46:40Z</time>
<speed>0.320000</speed>
<extensions>
<speed>0.3</speed>
<temp>0.00</temp>
<bpm>0</bpm>
<rpm>0.00</rpm>
</extensions>
</trkpt>
<trkpt lat="64.137496948" lon="-21.934823990">
<ele>22.350098</ele>
<time>2012-07-18T09:46:45Z</time>
<speed>0.270000</speed>
<extensions>
<speed>0.3</speed>
<temp>0.00</temp>
<bpm>0</bpm>
<rpm>0.00</rpm>
</extensions>
</trkpt>
<trkpt lat="64.137519836" lon="-21.934789658">
<ele>22.581543</ele>
<time>2012-07-18T09:46:50Z</time>
<speed>0.070000</speed>
<extensions>
<speed>0.1</speed>
<temp>0.00</temp>
<bpm>0</bpm>
<rpm>0.00</rpm>
</extensions>
</trkpt>
<trkpt lat="64.137519836" lon="-21.934789658">
<ele>22.204590</ele>
<time>2012-07-18T09:46:55Z</time>
<speed>0.040000</speed>
<extensions>
<speed>0.0</speed>
<temp>0.00</temp>
<bpm>0</bpm>
<rpm>0.00</rpm>
</extensions>
</trkpt>
<trkpt lat="64.137519836" lon="-21.934782028">
<ele>21.808105</ele>
<time>2012-07-18T09:47:00Z</time>
<speed>0.140000</speed>
<extensions>
<speed>0.1</speed>
<temp>0.00</temp>
<bpm>0</bpm>
<rpm>0.00</rpm>
</extensions>
</trkpt>
<trkpt lat="64.137527466" lon="-21.934770584">
<ele>21.381348</ele>
<time>2012-07-18T09:47:05Z</time>
<speed>0.200000</speed>
<extensions>
<speed>0.2</speed>
<temp>0.00</temp>
<bpm>0</bpm>
<rpm>0.00</rpm>
</extensions>
</trkpt>
<trkpt lat="64.137542725" lon="-21.934759140">
<ele>20.875000</ele>
<time>2012-07-18T09:47:10Z</time>
<speed>0.320000</speed>
<extensions>
<speed>0.3</speed>
<temp>0.00</temp>
<bpm>0</bpm>
<rpm>0.00</rpm>
</extensions>
</trkpt>
<trkpt lat="64.137580872" lon="-21.934761047">
<ele>20.209473</ele>
<time>2012-07-18T09:47:15Z</time>
<speed>0.300000</speed>
<extensions>
<speed>0.3</speed>
<temp>0.00</temp>
<bpm>0</bpm>
<rpm>0.00</rpm>
</extensions>
</trkpt>
<trkpt lat="64.137611389" lon="-21.934715271">
<ele>19.256836</ele>
<time>2012-07-18T09:47:20Z</time>
<speed>0.240000</speed>
<extensions>
<speed>0.2</speed>
<temp>0.00</temp>
<bpm>0</bpm>
<rpm>0.00</rpm>
</extensions>
</trkpt>
<trkpt lat="64.137626648" lon="-21.934715271">
<ele>18.941406</ele>
<time>2012-07-18T09:47:25Z</time>
<speed>0.190000</speed>
<extensions>
<speed>0.2</speed>
<temp>0.00</temp>
<bpm>0</bpm>
<rpm>0.00</rpm>
</extensions>
</trkpt>
<trkpt lat="64.137634277" lon="-21.934707642">
<ele>18.351074</ele>
<time>2012-07-18T09:47:30Z</time>
<speed>0.240000</speed>
<extensions>
<speed>0.2</speed>
<temp>0.00</temp>
<bpm>0</bpm>
<rpm>0.00</rpm>
</extensions>
</trkpt>
<trkpt lat="64.137641907" lon="-21.934696198">
<ele>17.724609</ele>
<time>2012-07-18T09:47:35Z</time>
<speed>0.210000</speed>
<extensions>
<speed>0.2</speed>
<temp>0.00</temp>
<bpm>0</bpm>
<rpm>0.00</rpm>
</extensions>
</trkpt>
<trkpt lat="64.137641907" lon="-21.934682846">
<ele>17.056641</ele>
<time>2012-07-18T09:47:40Z</time>
<speed>0.040000</speed>
<extensions>
<speed>0.0</speed>
<temp>0.00</temp>
<bpm>0</bpm>
<rpm>0.00</rpm>
</extensions>
</trkpt>
<trkpt lat="64.137641907" lon="-21.934679031">
<ele>16.367676</ele>
<time>2012-07-18T09:47:45Z</time>
<speed>0.070000</speed>
<extensions>
<speed>0.1</speed>
<temp>0.00</temp>
<bpm>0</bpm>
<rpm>0.00</rpm>
</extensions>
</trkpt>
<trkpt lat="64.137641907" lon="-21.934671402">
<ele>15.686523</ele>
<time>2012-07-18T09:47:50Z</time>
<speed>0.050000</speed>
<extensions>
<speed>0.1</speed>
<temp>0.00</temp>
<bpm>0</bpm>
<rpm>0.00</rpm>
</extensions>
</trkpt>
<trkpt lat="64.137641907" lon="-21.934663773">
<ele>14.942627</ele>
<time>2012-07-18T09:47:55Z</time>
<speed>0.080000</speed>
<extensions>
<speed>0.1</speed>
<temp>0.00</temp>
<bpm>0</bpm>
<rpm>0.00</rpm>
</extensions>
</trkpt>
<trkpt lat="64.137641907" lon="-21.934654236">
<ele>14.196777</ele>
<time>2012-07-18T09:48:00Z</time>
<speed>0.140000</speed>
<extensions>
<speed>0.1</speed>
<temp>0.00</temp>
<bpm>0</bpm>
<rpm>0.00</rpm>
</extensions>
</trkpt>
<trkpt lat="64.137641907" lon="-21.934644699">
<ele>13.437500</ele>
<time>2012-07-18T09:48:05Z</time>
<speed>0.040000</speed>
<extensions>
<speed>0.0</speed>
<temp>0.00</temp>
<bpm>0</bpm>
<rpm>0.00</rpm>
</extensions>
</trkpt>
<trkpt lat="64.137641907" lon="-21.934642792">
<ele>12.687256</ele>
<time>2012-07-18T09:48:10Z</time>
<speed>0.130000</speed>
<extensions>
<speed>0.1</speed>
<temp>0.00</temp>
<bpm>0</bpm>
<rpm>0.00</rpm>
</extensions>
</trkpt>
<trkpt lat="64.137634277" lon="-21.934648514">
<ele>11.928711</ele>
<time>2012-07-18T09:48:15Z</time>
<speed>0.220000</speed>
<extensions>
<speed>0.2</speed>
<temp>0.00</temp>
<bpm>0</bpm>
<rpm>0.00</rpm>
</extensions>
</trkpt>
<trkpt lat="64.137626648" lon="-21.934648514">
<ele>11.038330</ele>
<time>2012-07-18T09:48:20Z</time>
<speed>0.290000</speed>
<extensions>
<speed>0.3</speed>
<temp>0.00</temp>
<bpm>0</bpm>
<rpm>0.00</rpm>
</extensions>
</trkpt>
<trkpt lat="64.137634277" lon="-21.934629440">
<ele>10.082764</ele>
<time>2012-07-18T09:48:25Z</time>
<speed>0.020000</speed>
<extensions>
<speed>0.0</speed>
<temp>0.00</temp>
<bpm>0</bpm>
<rpm>0.00</rpm>
</extensions>
</trkpt>
<trkpt lat="64.137626648" lon="-21.934627533">
<ele>9.333496</ele>
<time>2012-07-18T09:48:30Z</time>
<speed>0.030000</speed>
<extensions>
<speed>0.0</speed>
<temp>0.00</temp>
<bpm>0</bpm>
<rpm>0.00</rpm>
</extensions>
</trkpt>
<trkpt lat="64.137634277" lon="-21.934621811">
<ele>8.629639</ele>
<time>2012-07-18T09:48:35Z</time>
<speed>0.100000</speed>
<extensions>
<speed>0.1</speed>
<temp>0.00</temp>
<bpm>0</bpm>
<rpm>0.00</rpm>
</extensions>
</trkpt>
<trkpt lat="64.137634277" lon="-21.934616089">
<ele>8.010498</ele>
<time>2012-07-18T09:48:40Z</time>
<speed>0.160000</speed>
<extensions>
<speed>0.2</speed>
<temp>0.00</temp>
<bpm>0</bpm>
<rpm>0.00</rpm>
</extensions>
</trkpt>
<trkpt lat="64.137649536" lon="-21.934612274">
<ele>7.653198</ele>
<time>2012-07-18T09:48:45Z</time>
<speed>0.320000</speed>
<extensions>
<speed>0.3</speed>
<temp>0.00</temp>
<bpm>0</bpm>
<rpm>0.00</rpm>
</extensions>
</trkpt>
<trkpt lat="64.137657166" lon="-21.934642792">
<ele>8.132080</ele>
<time>2012-07-18T09:48:50Z</time>
<speed>0.160000</speed>
<extensions>
<speed>0.2</speed>
<temp>0.00</temp>
<bpm>0</bpm>
<rpm>0.00</rpm>
</extensions>
</trkpt>
<trkpt lat="64.137657166" lon="-21.934633255">
<ele>7.666504</ele>
<time>2012-07-18T09:48:55Z</time>
<speed>0.080000</speed>
<extensions>
<speed>0.1</speed>
<temp>0.00</temp>
<bpm>0</bpm>
<rpm>0.00</rpm>
</extensions>
</trkpt>
<trkpt lat="64.137657166" lon="-21.934633255">
<ele>7.285034</ele>
<time>2012-07-18T09:49:00Z</time>
<speed>0.010000</speed>
<extensions>
<speed>0.0</speed>
<temp>0.00</temp>
<bpm>0</bpm>
<rpm>0.00</rpm>
</extensions>
</trkpt>
<trkpt lat="64.137657166" lon="-21.934633255">
<ele>7.027344</ele>
<time>2012-07-18T09:49:05Z</time>
<speed>0.020000</speed>
<extensions>
<speed>0.0</speed>
<temp>0.00</temp>
<bpm>0</bpm>
<rpm>0.00</rpm>
</extensions>
</trkpt>
<trkpt lat="64.137657166" lon="-21.934629440">
<ele>6.825317</ele>
<time>2012-07-18T09:49:10Z</time>
<extensions>
<speed>0.0</speed>
<temp>0.00</temp>
<bpm>0</bpm>
<rpm>0.00</rpm>
</extensions>
</trkpt>
<trkpt lat="64.137657166" lon="-21.934631348">
<ele>6.675049</ele>
<time>2012-07-18T09:49:15Z</time>
<speed>0.020000</speed>
<extensions>
<speed>0.0</speed>
<temp>0.00</temp>
<bpm>0</bpm>
<rpm>0.00</rpm>
</extensions>
</trkpt>
<trkpt lat="64.137657166" lon="-21.934629440">
<ele>6.558594</ele>
<time>2012-07-18T09:49:20Z</time>
<speed>0.030000</speed>
<extensions>
<speed>0.0</speed>
<temp>0.00</temp>
<bpm>0</bpm>
<rpm>0.00</rpm>
</extensions>
</trkpt>
<trkpt lat="64.137649536" lon="-21.934629440">
<ele>6.495728</ele>
<time>2012-07-18T09:49:25Z</time>
<speed>0.030000</speed>
<extensions>
<speed>0.0</speed>
<temp>0.00</temp>
<bpm>0</bpm>
<rpm>0.00</rpm>
</extensions>
</trkpt>
<trkpt lat="64.137657166" lon="-21.934625626">
<ele>6.465454</ele>
<time>2012-07-18T09:49:30Z</time>
<speed>0.090000</speed>
<extensions>
<speed>0.1</speed>
<temp>0.00</temp>
<bpm>0</bpm>
<rpm>0.00</rpm>
</extensions>
</trkpt>
<trkpt lat="64.137657166" lon="-21.934621811">
<ele>6.484863</ele>
<time>2012-07-18T09:49:35Z</time>
<speed>0.010000</speed>
<extensions>
<speed>0.0</speed>
<temp>0.00</temp>
<bpm>0</bpm>
<rpm>0.00</rpm>
</extensions>
</trkpt>
<trkpt lat="64.137657166" lon="-21.934623718">
<ele>6.529663</ele>
<time>2012-07-18T09:49:40Z</time>
<speed>0.030000</speed>
<extensions>
<speed>0.0</speed>
<temp>0.00</temp>
<bpm>0</bpm>
<rpm>0.00</rpm>
</extensions>
</trkpt>
<trkpt lat="64.137657166" lon="-21.934625626">
<ele>6.683838</ele>
<time>2012-07-18T09:49:45Z</time>
<speed>0.020000</speed>
<extensions>
<speed>0.0</speed>
<temp>0.00</temp>
<bpm>0</bpm>
<rpm>0.00</rpm>
</extensions>
</trkpt>
<trkpt lat="64.137657166" lon="-21.934623718">
<ele>6.842529</ele>
<time>2012-07-18T09:49:50Z</time>
<speed>0.010000</speed>
<extensions>
<speed>0.0</speed>
<temp>0.00</temp>
<bpm>0</bpm>
<rpm>0.00</rpm>
</extensions>
</trkpt>
<trkpt lat="64.137657166" lon="-21.934623718">
<ele>6.989502</ele>
<time>2012-07-18T09:49:55Z</time>
<speed>0.070000</speed>
<extensions>
<speed>0.1</speed>
<temp>0.00</temp>
<bpm>0</bpm>
<rpm>0.00</rpm>
</extensions>
</trkpt>
<trkpt lat="64.137657166" lon="-21.934627533">
<ele>7.104370</ele>
<time>2012-07-18T09:50:00Z</time>
<speed>0.070000</speed>
<extensions>
<speed>0.1</speed>
<temp>0.00</temp>
<bpm>0</bpm>
<rpm>0.00</rpm>
</extensions>
</trkpt>
<trkpt lat="64.137664795" lon="-21.934625626">
<ele>7.181030</ele>
<time>2012-07-18T09:50:05Z</time>
<speed>0.110000</speed>
<extensions>
<speed>0.1</speed>
<temp>0.00</temp>
<bpm>0</bpm>
<rpm>0.00</rpm>
</extensions>
</trkpt>
<trkpt lat="64.137664795" lon="-21.934623718">
<ele>7.269897</ele>
<time>2012-07-18T09:50:10Z</time>
<speed>0.170000</speed>
<extensions>
<speed>0.2</speed>
<temp>0.00</temp>
<bpm>0</bpm>
<rpm>0.00</rpm>
</extensions>
</trkpt>
<trkpt lat="64.137672424" lon="-21.934631348">
<ele>7.303467</ele>
<time>2012-07-18T09:50:15Z</time>
<speed>0.310000</speed>
<extensions>
<speed>0.3</speed>
<temp>0.00</temp>
<bpm>0</bpm>
<rpm>0.00</rpm>
</extensions>
</trkpt>
<trkpt lat="64.137680054" lon="-21.934638977">
<ele>7.073364</ele>
<time>2012-07-18T09:50:20Z</time>
<speed>0.260000</speed>
<extensions>
<speed>0.3</speed>
<temp>0.00</temp>
<bpm>0</bpm>
<rpm>0.00</rpm>
</extensions>
</trkpt>
<trkpt lat="64.137680054" lon="-21.934633255">
<ele>7.645874</ele>
<time>2012-07-18T09:50:25Z</time>
<speed>0.090000</speed>
<extensions>
<speed>0.1</speed>
<temp>0.00</temp>
<bpm>0</bpm>
<rpm>0.00</rpm>
</extensions>
</trkpt>
<trkpt lat="64.137680054" lon="-21.934627533">
<ele>7.700806</ele>
<time>2012-07-18T09:50:30Z</time>
<speed>0.070000</speed>
<extensions>
<speed>0.1</speed>
<temp>0.00</temp>
<bpm>0</bpm>
<rpm>0.00</rpm>
</extensions>
</trkpt>
<trkpt lat="64.137680054" lon="-21.934623718">
<ele>7.757324</ele>
<time>2012-07-18T09:50:35Z</time>
<speed>0.020000</speed>
<extensions>
<speed>0.0</speed>
<temp>0.00</temp>
<bpm>0</bpm>
<rpm>0.00</rpm>
</extensions>
</trkpt>
<trkpt lat="64.137680054" lon="-21.934627533">
<ele>7.850952</ele>
<time>2012-07-18T09:50:40Z</time>
<speed>0.200000</speed>
<extensions>
<speed>0.2</speed>
<temp>0.00</temp>
<bpm>0</bpm>
<rpm>0.00</rpm>
</extensions>
</trkpt>
<trkpt lat="64.137672424" lon="-21.934635162">
<ele>7.993286</ele>
<time>2012-07-18T09:50:45Z</time>
<speed>0.130000</speed>
<extensions>
<speed>0.1</speed>
<temp>0.00</temp>
<bpm>0</bpm>
<rpm>0.00</rpm>
</extensions>
</trkpt>
<trkpt lat="64.137664795" lon="-21.934637070">
<ele>8.138428</ele>
<time>2012-07-18T09:50:50Z</time>
<speed>0.060000</speed>
<extensions>
<speed>0.1</speed>
<temp>0.00</temp>
<bpm>0</bpm>
<rpm>0.00</rpm>
</extensions>
</trkpt>
<trkpt lat="64.137664795" lon="-21.934637070">
<ele>8.298096</ele>
<time>2012-07-18T09:50:55Z</time>
<speed>0.040000</speed>
<extensions>
<speed>0.0</speed>
<temp>0.00</temp>
<bpm>0</bpm>
<rpm>0.00</rpm>
</extensions>
</trkpt>
<trkpt lat="64.137672424" lon="-21.934637070">
<ele>8.464355</ele>
<time>2012-07-18T09:51:00Z</time>
<speed>0.010000</speed>
<extensions>
<speed>0.0</speed>
<temp>0.00</temp>
<bpm>0</bpm>
<rpm>0.00</rpm>
</extensions>
</trkpt>
<trkpt lat="64.137664795" lon="-21.934635162">
<ele>8.655273</ele>
<time>2012-07-18T09:51:05Z</time>
<speed>0.240000</speed>
<extensions>
<speed>0.2</speed>
<temp>0.00</temp>
<bpm>0</bpm>
<rpm>0.00</rpm>
</extensions>
</trkpt>
<trkpt lat="64.137664795" lon="-21.934621811">
<ele>9.245850</ele>
<time>2012-07-18T09:51:10Z</time>
<speed>0.280000</speed>
<extensions>
<speed>0.3</speed>
<temp>0.00</temp>
<bpm>0</bpm>
<rpm>0.00</rpm>
</extensions>
</trkpt>
<trkpt lat="64.137672424" lon="-21.934619904">
<ele>9.772461</ele>
<time>2012-07-18T09:51:15Z</time>
<speed>0.290000</speed>
<extensions>
<speed>0.3</speed>
<temp>0.00</temp>
<bpm>0</bpm>
<rpm>0.00</rpm>
</extensions>
</trkpt>
<trkpt lat="64.137695313" lon="-21.934606552">
<ele>11.326904</ele>
<time>2012-07-18T09:51:20Z</time>
<speed>0.210000</speed>
<extensions>
<speed>0.2</speed>
<temp>0.00</temp>
<bpm>0</bpm>
<rpm>0.00</rpm>
</extensions>
</trkpt>
<trkpt lat="64.137687683" lon="-21.934612274">
<ele>11.536621</ele>
<time>2012-07-18T09:51:25Z</time>
<speed>0.210000</speed>
<extensions>
<speed>0.2</speed>
<temp>0.00</temp>
<bpm>0</bpm>
<rpm>0.00</rpm>
</extensions>
</trkpt>
<trkpt lat="64.137672424" lon="-21.934616089">
<ele>11.782715</ele>
<time>2012-07-18T09:51:30Z</time>
<speed>0.260000</speed>
<extensions>
<speed>0.3</speed>
<temp>0.00</temp>
<bpm>0</bpm>
<rpm>0.00</rpm>
</extensions>
</trkpt>
<trkpt lat="64.137664795" lon="-21.934619904">
<ele>12.041992</ele>
<time>2012-07-18T09:51:35Z</time>
<speed>0.170000</speed>
<extensions>
<speed>0.2</speed>
<temp>0.00</temp>
<bpm>0</bpm>
<rpm>0.00</rpm>
</extensions>
</trkpt>
<trkpt lat="64.137664795" lon="-21.934627533">
<ele>12.312988</ele>
<time>2012-07-18T09:51:40Z</time>
<speed>0.140000</speed>
<extensions>
<speed>0.1</speed>
<temp>0.00</temp>
<bpm>0</bpm>
<rpm>0.00</rpm>
</extensions>
</trkpt>
<trkpt lat="64.137664795" lon="-21.934638977">
<ele>12.539795</ele>
<time>2012-07-18T09:51:45Z</time>
<speed>0.100000</speed>
<extensions>
<speed>0.1</speed>
<temp>0.00</temp>
<bpm>0</bpm>
<rpm>0.00</rpm>
</extensions>
</trkpt>
<trkpt lat="64.137664795" lon="-21.934644699">
<ele>12.770996</ele>
<time>2012-07-18T09:51:50Z</time>
<speed>0.050000</speed>
<extensions>
<speed>0.1</speed>
<temp>0.00</temp>
<bpm>0</bpm>
<rpm>0.00</rpm>
</extensions>
</trkpt>
<trkpt lat="64.137672424" lon="-21.934644699">
<ele>13.018799</ele>
<time>2012-07-18T09:51:55Z</time>
<speed>0.110000</speed>
<extensions>
<speed>0.1</speed>
<temp>0.00</temp>
<bpm>0</bpm>
<rpm>0.00</rpm>
</extensions>
</trkpt>
<trkpt lat="64.137672424" lon="-21.934637070">
<ele>13.277100</ele>
<time>2012-07-18T09:52:00Z</time>
<speed>0.120000</speed>
<extensions>
<speed>0.1</speed>
<temp>0.00</temp>
<bpm>0</bpm>
<rpm>0.00</rpm>
</extensions>
</trkpt>
<trkpt lat="64.137680054" lon="-21.934621811">
<ele>13.580078</ele>
<time>2012-07-18T09:52:05Z</time>
<speed>0.190000</speed>
<extensions>
<speed>0.2</speed>
<temp>0.00</temp>
<bpm>0</bpm>
<rpm>0.00</rpm>
</extensions>
</trkpt>
<trkpt lat="64.137687683" lon="-21.934614182">
<ele>13.906250</ele>
<time>2012-07-18T09:52:10Z</time>
<speed>0.060000</speed>
<extensions>
<speed>0.1</speed>
<temp>0.00</temp>
<bpm>0</bpm>
<rpm>0.00</rpm>
</extensions>
</trkpt>
<trkpt lat="64.137687683" lon="-21.934616089">
<ele>14.264404</ele>
<time>2012-07-18T09:52:15Z</time>
<speed>0.110000</speed>
<extensions>
<speed>0.1</speed>
<temp>0.00</temp>
<bpm>0</bpm>
<rpm>0.00</rpm>
</extensions>
</trkpt>
<trkpt lat="64.137687683" lon="-21.934616089">
<ele>14.624268</ele>
<time>2012-07-18T09:52:20Z</time>
<speed>0.100000</speed>
<extensions>
<speed>0.1</speed>
<temp>0.00</temp>
<bpm>0</bpm>
<rpm>0.00</rpm>
</extensions>
</trkpt>
<trkpt lat="64.137695313" lon="-21.934614182">
<ele>15.005371</ele>
<time>2012-07-18T09:52:25Z</time>
<speed>0.020000</speed>
<extensions>
<speed>0.0</speed>
<temp>0.00</temp>
<bpm>0</bpm>
<rpm>0.00</rpm>
</extensions>
</trkpt>
<trkpt lat="64.137695313" lon="-21.934616089">
<ele>15.372803</ele>
<time>2012-07-18T09:52:30Z</time>
<speed>0.010000</speed>
<extensions>
<speed>0.0</speed>
<temp>0.00</temp>
<bpm>0</bpm>
<rpm>0.00</rpm>
</extensions>
</trkpt>
<trkpt lat="64.137695313" lon="-21.934614182">
<ele>15.773438</ele>
<time>2012-07-18T09:52:35Z</time>
<speed>0.150000</speed>
<extensions>
<speed>0.2</speed>
<temp>0.00</temp>
<bpm>0</bpm>
<rpm>0.00</rpm>
</extensions>
</trkpt>
<trkpt lat="64.137702942" lon="-21.934606552">
<ele>16.184570</ele>
<time>2012-07-18T09:52:40Z</time>
<speed>0.210000</speed>
<extensions>
<speed>0.2</speed>
<temp>0.00</temp>
<bpm>0</bpm>
<rpm>0.00</rpm>
</extensions>
</trkpt>
<trkpt lat="64.137710571" lon="-21.934600830">
<ele>16.589355</ele>
<time>2012-07-18T09:52:45Z</time>
<speed>0.130000</speed>
<extensions>
<speed>0.1</speed>
<temp>0.00</temp>
<bpm>0</bpm>
<rpm>0.00</rpm>
</extensions>
</trkpt>
<trkpt lat="64.137718201" lon="-21.934591293">
<ele>16.990234</ele>
<time>2012-07-18T09:52:50Z</time>
<speed>0.090000</speed>
<extensions>
<speed>0.1</speed>
<temp>0.00</temp>
<bpm>0</bpm>
<rpm>0.00</rpm>
</extensions>
</trkpt>
<trkpt lat="64.137718201" lon="-21.934591293">
<ele>17.358398</ele>
<time>2012-07-18T09:52:55Z</time>
<speed>0.060000</speed>
<extensions>
<speed>0.1</speed>
<temp>0.00</temp>
<bpm>0</bpm>
<rpm>0.00</rpm>
</extensions>
</trkpt>
<trkpt lat="64.137718201" lon="-21.934597015">
<ele>17.702637</ele>
<time>2012-07-18T09:53:00Z</time>
<speed>0.050000</speed>
<extensions>
<speed>0.1</speed>
<temp>0.00</temp>
<bpm>0</bpm>
<rpm>0.00</rpm>
</extensions>
</trkpt>
<trkpt lat="64.137710571" lon="-21.934598923">
<ele>18.002930</ele>
<time>2012-07-18T09:53:05Z</time>
<speed>0.190000</speed>
<extensions>
<speed>0.2</speed>
<temp>0.00</temp>
<bpm>0</bpm>
<rpm>0.00</rpm>
</extensions>
</trkpt>
<trkpt lat="64.137710571" lon="-21.934598923">
<ele>18.304688</ele>
<time>2012-07-18T09:53:10Z</time>
<speed>0.030000</speed>
<extensions>
<speed>0.0</speed>
<temp>0.00</temp>
<bpm>0</bpm>
<rpm>0.00</rpm>
</extensions>
</trkpt>
<trkpt lat="64.137702942" lon="-21.934600830">
<ele>18.562012</ele>
<time>2012-07-18T09:53:15Z</time>
<speed>0.060000</speed>
<extensions>
<speed>0.1</speed>
<temp>0.00</temp>
<bpm>0</bpm>
<rpm>0.00</rpm>
</extensions>
</trkpt>
<trkpt lat="64.137702942" lon="-21.934606552">
<ele>18.772461</ele>
<time>2012-07-18T09:53:20Z</time>
<speed>0.130000</speed>
<extensions>
<speed>0.1</speed>
<temp>0.00</temp>
<bpm>0</bpm>
<rpm>0.00</rpm>
</extensions>
</trkpt>
<trkpt lat="64.137695313" lon="-21.934616089">
<ele>19.000000</ele>
<time>2012-07-18T09:53:25Z</time>
<speed>0.200000</speed>
<extensions>
<speed>0.2</speed>
<temp>0.00</temp>
<bpm>0</bpm>
<rpm>0.00</rpm>
</extensions>
</trkpt>
<trkpt lat="64.137664795" lon="-21.934652328">
<ele>19.101563</ele>
<time>2012-07-18T09:53:30Z</time>
<speed>0.390000</speed>
<extensions>
<speed>0.4</speed>
<temp>0.00</temp>
<bpm>0</bpm>
<rpm>0.00</rpm>
</extensions>
</trkpt>
<trkpt lat="64.137649536" lon="-21.934694290">
<ele>19.091797</ele>
<time>2012-07-18T09:53:35Z</time>
<speed>0.310000</speed>
<extensions>
<speed>0.3</speed>
<temp>0.00</temp>
<bpm>0</bpm>
<rpm>0.00</rpm>
</extensions>
</trkpt>
<trkpt lat="64.137649536" lon="-21.934736252">
<ele>19.260254</ele>
<time>2012-07-18T09:53:40Z</time>
<speed>0.310000</speed>
<extensions>
<speed>0.3</speed>
<temp>0.00</temp>
<bpm>0</bpm>
<rpm>0.00</rpm>
</extensions>
</trkpt>
<trkpt lat="64.137649536" lon="-21.934719086">
<ele>19.490234</ele>
<time>2012-07-18T09:53:45Z</time>
<speed>0.150000</speed>
<extensions>
<speed>0.2</speed>
<temp>0.00</temp>
<bpm>0</bpm>
<rpm>0.00</rpm>
</extensions>
</trkpt>
<trkpt lat="64.137649536" lon="-21.934722900">
<ele>19.683105</ele>
<time>2012-07-18T09:53:50Z</time>
<speed>0.030000</speed>
<extensions>
<speed>0.0</speed>
<temp>0.00</temp>
<bpm>0</bpm>
<rpm>0.00</rpm>
</extensions>
</trkpt>
<trkpt lat="64.137641907" lon="-21.934722900">
<ele>19.869629</ele>
<time>2012-07-18T09:53:55Z</time>
<speed>0.070000</speed>
<extensions>
<speed>0.1</speed>
<temp>0.00</temp>
<bpm>0</bpm>
<rpm>0.00</rpm>
</extensions>
</trkpt>
<trkpt lat="64.137641907" lon="-21.934726715">
<ele>20.053711</ele>
<time>2012-07-18T09:54:00Z</time>
<speed>0.020000</speed>
<extensions>
<speed>0.0</speed>
<temp>0.00</temp>
<bpm>0</bpm>
<rpm>0.00</rpm>
</extensions>
</trkpt>
<trkpt lat="64.137649536" lon="-21.934730530">
<ele>20.217773</ele>
<time>2012-07-18T09:54:05Z</time>
<speed>0.180000</speed>
<extensions>
<speed>0.2</speed>
<temp>0.00</temp>
<bpm>0</bpm>
<rpm>0.00</rpm>
</extensions>
</trkpt>
<trkpt lat="64.137657166" lon="-21.934736252">
<ele>20.378418</ele>
<time>2012-07-18T09:54:10Z</time>
<speed>0.290000</speed>
<extensions>
<speed>0.3</speed>
<temp>0.00</temp>
<bpm>0</bpm>
<rpm>0.00</rpm>
</extensions>
</trkpt>
<trkpt lat="64.137680054" lon="-21.934738159">
<ele>20.499023</ele>
<time>2012-07-18T09:54:15Z</time>
<speed>0.290000</speed>
<extensions>
<speed>0.3</speed>
<temp>0.00</temp>
<bpm>0</bpm>
<rpm>0.00</rpm>
</extensions>
</trkpt>
<trkpt lat="64.137702942" lon="-21.934734344">
<ele>21.289551</ele>
<time>2012-07-18T09:54:20Z</time>
<speed>0.270000</speed>
<extensions>
<speed>0.3</speed>
<temp>0.00</temp>
<bpm>0</bpm>
<rpm>0.00</rpm>
</extensions>
</trkpt>
<trkpt lat="64.137695313" lon="-21.934740067">
<ele>21.621582</ele>
<time>2012-07-18T09:54:25Z</time>
<speed>0.200000</speed>
<extensions>
<speed>0.2</speed>
<temp>0.00</temp>
<bpm>0</bpm>
<rpm>0.00</rpm>
</extensions>
</trkpt>
<trkpt lat="64.137710571" lon="-21.934728622">
<ele>21.789063</ele>
<time>2012-07-18T09:54:30Z</time>
<speed>0.250000</speed>
<extensions>
<speed>0.2</speed>
<temp>0.00</temp>
<bpm>0</bpm>
<rpm>0.00</rpm>
</extensions>
</trkpt>
<trkpt lat="64.137718201" lon="-21.934719086">
<ele>21.946777</ele>
<time>2012-07-18T09:54:35Z</time>
<speed>0.200000</speed>
<extensions>
<speed>0.2</speed>
<temp>0.00</temp>
<bpm>0</bpm>
<rpm>0.00</rpm>
</extensions>
</trkpt>
<trkpt lat="64.137725830" lon="-21.934711456">
<ele>22.101563</ele>
<time>2012-07-18T09:54:40Z</time>
<speed>0.250000</speed>
<extensions>
<speed>0.2</speed>
<temp>0.00</temp>
<bpm>0</bpm>
<rpm>0.00</rpm>
</extensions>
</trkpt>
<trkpt lat="64.137748718" lon="-21.934648514">
<ele>22.637207</ele>
<time>2012-07-18T09:54:45Z</time>
<speed>0.390000</speed>
<extensions>
<speed>0.4</speed>
<temp>0.00</temp>
<bpm>0</bpm>
<rpm>0.00</rpm>
</extensions>
</trkpt>
<trkpt lat="64.137771606" lon="-21.934608459">
<ele>23.356445</ele>
<time>2012-07-18T09:54:50Z</time>
<speed>0.370000</speed>
<extensions>
<speed>0.4</speed>
<temp>0.00</temp>
<bpm>0</bpm>
<rpm>0.00</rpm>
</extensions>
</trkpt>
<trkpt lat="64.137763977" lon="-21.934547424">
<ele>23.250977</ele>
<time>2012-07-18T09:54:55Z</time>
<speed>0.290000</speed>
<extensions>
<speed>0.3</speed>
<temp>0.00</temp>
<bpm>0</bpm>
<rpm>0.00</rpm>
</extensions>
</trkpt>
<trkpt lat="64.137786865" lon="-21.934566498">
<ele>23.168457</ele>
<time>2012-07-18T09:55:00Z</time>
<speed>0.220000</speed>
<extensions>
<speed>0.2</speed>
<temp>0.00</temp>
<bpm>0</bpm>
<rpm>0.00</rpm>
</extensions>
</trkpt>
<trkpt lat="64.137794495" lon="-21.934581757">
<ele>23.051270</ele>
<time>2012-07-18T09:55:05Z</time>
<speed>0.090000</speed>
<extensions>
<speed>0.1</speed>
<temp>0.00</temp>
<bpm>0</bpm>
<rpm>0.00</rpm>
</extensions>
</trkpt>
<trkpt lat="64.137794495" lon="-21.934576035">
<ele>23.074219</ele>
<time>2012-07-18T09:55:10Z</time>
<speed>0.050000</speed>
<extensions>
<speed>0.1</speed>
<temp>0.00</temp>
<bpm>0</bpm>
<rpm>0.00</rpm>
</extensions>
</trkpt>
<trkpt lat="64.137786865" lon="-21.934583664">
<ele>23.030273</ele>
<time>2012-07-18T09:55:15Z</time>
<speed>0.210000</speed>
<extensions>
<speed>0.2</speed>
<temp>0.00</temp>
<bpm>0</bpm>
<rpm>0.00</rpm>
</extensions>
</trkpt>
<trkpt lat="64.137596130" lon="-21.934581757">
<ele>20.178711</ele>
<time>2012-07-18T09:55:20Z</time>
<speed>0.470000</speed>
<extensions>
<speed>0.5</speed>
<temp>0.00</temp>
<bpm>0</bpm>
<rpm>0.00</rpm>
</extensions>
</trkpt>
<trkpt lat="64.137596130" lon="-21.934549332">
<ele>17.233398</ele>
<time>2012-07-18T09:55:25Z</time>
<speed>0.310000</speed>
<extensions>
<speed>0.3</speed>
<temp>0.00</temp>
<bpm>0</bpm>
<rpm>0.00</rpm>
</extensions>
</trkpt>
<trkpt lat="64.137596130" lon="-21.934583664">
<ele>15.985840</ele>
<time>2012-07-18T09:55:30Z</time>
<speed>0.090000</speed>
<extensions>
<speed>0.1</speed>
<temp>0.00</temp>
<bpm>0</bpm>
<rpm>0.00</rpm>
</extensions>
</trkpt>
<trkpt lat="64.137596130" lon="-21.934583664">
<ele>15.698730</ele>
<time>2012-07-18T09:55:35Z</time>
<speed>0.020000</speed>
<extensions>
<speed>0.0</speed>
<temp>0.00</temp>
<bpm>0</bpm>
<rpm>0.00</rpm>
</extensions>
</trkpt>
<trkpt lat="64.137596130" lon="-21.934585571">
<ele>15.394043</ele>
<time>2012-07-18T09:55:40Z</time>
<speed>0.090000</speed>
<extensions>
<speed>0.1</speed>
<temp>0.00</temp>
<bpm>0</bpm>
<rpm>0.00</rpm>
</extensions>
</trkpt>
<trkpt lat="64.137596130" lon="-21.934591293">
<ele>15.066650</ele>
<time>2012-07-18T09:55:45Z</time>
<speed>0.060000</speed>
<extensions>
<speed>0.1</speed>
<temp>0.00</temp>
<bpm>0</bpm>
<rpm>0.00</rpm>
</extensions>
</trkpt>
<trkpt lat="64.137603760" lon="-21.934589386">
<ele>14.733398</ele>
<time>2012-07-18T09:55:50Z</time>
<speed>0.070000</speed>
<extensions>
<speed>0.1</speed>
<temp>0.00</temp>
<bpm>0</bpm>
<rpm>0.00</rpm>
</extensions>
</trkpt>
<trkpt lat="64.137603760" lon="-21.934589386">
<ele>14.406494</ele>
<time>2012-07-18T09:55:55Z</time>
<speed>0.030000</speed>
<extensions>
<speed>0.0</speed>
<temp>0.00</temp>
<bpm>0</bpm>
<rpm>0.00</rpm>
</extensions>
</trkpt>
<trkpt lat="64.137603760" lon="-21.934591293">
<ele>14.083008</ele>
<time>2012-07-18T09:56:00Z</time>
<speed>0.060000</speed>
<extensions>
<speed>0.1</speed>
<temp>0.00</temp>
<bpm>0</bpm>
<rpm>0.00</rpm>
</extensions>
</trkpt>
<trkpt lat="64.137603760" lon="-21.934598923">
<ele>13.754639</ele>
<time>2012-07-18T09:56:05Z</time>
<speed>0.020000</speed>
<extensions>
<speed>0.0</speed>
<temp>0.00</temp>
<bpm>0</bpm>
<rpm>0.00</rpm>
</extensions>
</trkpt>
<trkpt lat="64.137603760" lon="-21.934610367">
<ele>13.354248</ele>
<time>2012-07-18T09:56:10Z</time>
<speed>0.140000</speed>
<extensions>
<speed>0.1</speed>
<temp>0.00</temp>
<bpm>0</bpm>
<rpm>0.00</rpm>
</extensions>
</trkpt>
<trkpt lat="64.137603760" lon="-21.934621811">
<ele>12.995117</ele>
<time>2012-07-18T09:56:15Z</time>
<speed>0.190000</speed>
<extensions>
<speed>0.2</speed>
<temp>0.00</temp>
<bpm>0</bpm>
<rpm>0.00</rpm>
</extensions>
</trkpt>
<trkpt lat="64.137596130" lon="-21.934621811">
<ele>12.630859</ele>
<time>2012-07-18T09:56:20Z</time>
<extensions>
<speed>0.0</speed>
<temp>0.00</temp>
<bpm>0</bpm>
<rpm>0.00</rpm>
</extensions>
</trkpt>
<trkpt lat="64.137596130" lon="-21.934621811">
<ele>12.261963</ele>
<time>2012-07-18T09:56:25Z</time>
<speed>0.050000</speed>
<extensions>
<speed>0.1</speed>
<temp>0.00</temp>
<bpm>0</bpm>
<rpm>0.00</rpm>
</extensions>
</trkpt>
<trkpt lat="64.137603760" lon="-21.934619904">
<ele>11.897705</ele>
<time>2012-07-18T09:56:30Z</time>
<speed>0.060000</speed>
<extensions>
<speed>0.1</speed>
<temp>0.00</temp>
<bpm>0</bpm>
<rpm>0.00</rpm>
</extensions>
</trkpt>
<trkpt lat="64.137603760" lon="-21.934616089">
<ele>11.538086</ele>
<time>2012-07-18T09:56:35Z</time>
<speed>0.030000</speed>
<extensions>
<speed>0.0</speed>
<temp>0.00</temp>
<bpm>0</bpm>
<rpm>0.00</rpm>
</extensions>
</trkpt>
<trkpt lat="64.137611389" lon="-21.934617996">
<ele>11.149414</ele>
<time>2012-07-18T09:56:40Z</time>
<speed>0.070000</speed>
<extensions>
<speed>0.1</speed>
<temp>0.00</temp>
<bpm>0</bpm>
<rpm>0.00</rpm>
</extensions>
</trkpt>
<trkpt lat="64.137619019" lon="-21.934627533">
<ele>10.838623</ele>
<time>2012-07-18T09:56:45Z</time>
<speed>0.140000</speed>
<extensions>
<speed>0.1</speed>
<temp>0.00</temp>
<bpm>0</bpm>
<rpm>0.00</rpm>
</extensions>
</trkpt>
<trkpt lat="64.137619019" lon="-21.934646606">
<ele>10.417236</ele>
<time>2012-07-18T09:56:50Z</time>
<speed>0.260000</speed>
<extensions>
<speed>0.3</speed>
<temp>0.00</temp>
<bpm>0</bpm>
<rpm>0.00</rpm>
</extensions>
</trkpt>
<trkpt lat="64.137626648" lon="-21.934669495">
<ele>9.972168</ele>
<time>2012-07-18T09:56:55Z</time>
<speed>0.260000</speed>
<extensions>
<speed>0.3</speed>
<temp>0.00</temp>
<bpm>0</bpm>
<rpm>0.00</rpm>
</extensions>
</trkpt>
<trkpt lat="64.137657166" lon="-21.934656143">
<ele>9.271484</ele>
<time>2012-07-18T09:57:00Z</time>
<speed>0.310000</speed>
<extensions>
<speed>0.3</speed>
<temp>0.00</temp>
<bpm>0</bpm>
<rpm>0.00</rpm>
</extensions>
</trkpt>
<trkpt lat="64.137687683" lon="-21.934635162">
<ele>8.499268</ele>
<time>2012-07-18T09:57:05Z</time>
<speed>0.200000</speed>
<extensions>
<speed>0.2</speed>
<temp>0.00</temp>
<bpm>0</bpm>
<rpm>0.00</rpm>
</extensions>
</trkpt>
<trkpt lat="64.137710571" lon="-21.934648514">
<ele>7.951416</ele>
<time>2012-07-18T09:57:10Z</time>
<speed>0.230000</speed>
<extensions>
<speed>0.2</speed>
<temp>0.00</temp>
<bpm>0</bpm>
<rpm>0.00</rpm>
</extensions>
</trkpt>
<trkpt lat="64.137710571" lon="-21.934650421">
<ele>6.826904</ele>
<time>2012-07-18T09:57:15Z</time>
<speed>0.190000</speed>
<extensions>
<speed>0.2</speed>
<temp>0.00</temp>
<bpm>0</bpm>
<rpm>0.00</rpm>
</extensions>
</trkpt>
<trkpt lat="64.137718201" lon="-21.934640884">
<ele>6.179565</ele>
<time>2012-07-18T09:57:20Z</time>
<speed>0.260000</speed>
<extensions>
<speed>0.3</speed>
<temp>0.00</temp>
<bpm>0</bpm>
<rpm>0.00</rpm>
</extensions>
</trkpt>
<trkpt lat="64.137748718" lon="-21.934530258">
<ele>5.575928</ele>
<time>2012-07-18T09:57:25Z</time>
<speed>0.370000</speed>
<extensions>
<speed>0.4</speed>
<temp>0.00</temp>
<bpm>0</bpm>
<rpm>0.00</rpm>
</extensions>
</trkpt>
<trkpt lat="64.137771606" lon="-21.934480667">
<ele>4.777710</ele>
<time>2012-07-18T09:57:30Z</time>
<speed>0.290000</speed>
<extensions>
<speed>0.3</speed>
<temp>0.00</temp>
<bpm>0</bpm>
<rpm>0.00</rpm>
</extensions>
</trkpt>
<trkpt lat="64.137771606" lon="-21.934474945">
<ele>3.932495</ele>
<time>2012-07-18T09:57:35Z</time>
<speed>0.110000</speed>
<extensions>
<speed>0.1</speed>
<temp>0.00</temp>
<bpm>0</bpm>
<rpm>0.00</rpm>
</extensions>
</trkpt>
<trkpt lat="64.137771606" lon="-21.934465408">
<ele>3.306946</ele>
<time>2012-07-18T09:57:40Z</time>
<speed>0.140000</speed>
<extensions>
<speed>0.1</speed>
<temp>0.00</temp>
<bpm>0</bpm>
<rpm>0.00</rpm>
</extensions>
</trkpt>
<trkpt lat="64.137763977" lon="-21.934457779">
<ele>2.728027</ele>
<time>2012-07-18T09:57:45Z</time>
<speed>0.240000</speed>
<extensions>
<speed>0.2</speed>
<temp>0.00</temp>
<bpm>0</bpm>
<rpm>0.00</rpm>
</extensions>
</trkpt>
<trkpt lat="64.137748718" lon="-21.934455872">
<ele>2.168457</ele>
<time>2012-07-18T09:57:50Z</time>
<speed>0.280000</speed>
<extensions>
<speed>0.3</speed>
<temp>0.00</temp>
<bpm>0</bpm>
<rpm>0.00</rpm>
</extensions>
</trkpt>
<trkpt lat="64.137725830" lon="-21.934497833">
<ele>1.204132</ele>
<time>2012-07-18T09:57:55Z</time>
<speed>0.340000</speed>
<extensions>
<speed>0.3</speed>
<temp>0.00</temp>
<bpm>0</bpm>
<rpm>0.00</rpm>
</extensions>
</trkpt>
<trkpt lat="64.137687683" lon="-21.934560776">
<ele>0.819092</ele>
<time>2012-07-18T09:58:00Z</time>
<speed>0.390000</speed>
<extensions>
<speed>0.4</speed>
<temp>0.00</temp>
<bpm>0</bpm>
<rpm>0.00</rpm>
</extensions>
</trkpt>
<trkpt lat="64.137664795" lon="-21.934560776">
<ele>0.551147</ele>
<time>2012-07-18T09:58:05Z</time>
<speed>0.470000</speed>
<extensions>
<speed>0.5</speed>
<temp>0.00</temp>
<bpm>0</bpm>
<rpm>0.00</rpm>
</extensions>
</trkpt>
<trkpt lat="64.137626648" lon="-21.934600830">
<ele>-0.045894</ele>
<time>2012-07-18T09:58:10Z</time>
<speed>0.510000</speed>
<extensions>
<speed>0.5</speed>
<temp>0.00</temp>
<bpm>0</bpm>
<rpm>0.00</rpm>
</extensions>
</trkpt>
<trkpt lat="64.137596130" lon="-21.934623718">
<ele>-1.113312</ele>
<time>2012-07-18T09:58:15Z</time>
<speed>0.460000</speed>
<extensions>
<speed>0.5</speed>
<temp>0.00</temp>
<bpm>0</bpm>
<rpm>0.00</rpm>
</extensions>
</trkpt>
<trkpt lat="64.137596130" lon="-21.934602737">
<ele>-1.815521</ele>
<time>2012-07-18T09:58:20Z</time>
<speed>0.340000</speed>
<extensions>
<speed>0.3</speed>
<temp>0.00</temp>
<bpm>0</bpm>
<rpm>0.00</rpm>
</extensions>
</trkpt>
<trkpt lat="64.137573242" lon="-21.934602737">
<ele>-2.730896</ele>
<time>2012-07-18T09:58:25Z</time>
<speed>0.370000</speed>
<extensions>
<speed>0.4</speed>
<temp>0.00</temp>
<bpm>0</bpm>
<rpm>0.00</rpm>
</extensions>
</trkpt>
<trkpt lat="64.137580872" lon="-21.934612274">
<ele>-3.020569</ele>
<time>2012-07-18T09:58:30Z</time>
<speed>0.290000</speed>
<extensions>
<speed>0.3</speed>
<temp>0.00</temp>
<bpm>0</bpm>
<rpm>0.00</rpm>
</extensions>
</trkpt>
<trkpt lat="64.137565613" lon="-21.934659958">
<ele>-3.488708</ele>
<time>2012-07-18T09:58:35Z</time>
<speed>0.370000</speed>
<extensions>
<speed>0.4</speed>
<temp>0.00</temp>
<bpm>0</bpm>
<rpm>0.00</rpm>
</extensions>
</trkpt>
<trkpt lat="64.137550354" lon="-21.934631348">
<ele>-3.659424</ele>
<time>2012-07-18T09:58:40Z</time>
<speed>0.360000</speed>
<extensions>
<speed>0.4</speed>
<temp>0.00</temp>
<bpm>0</bpm>
<rpm>0.00</rpm>
</extensions>
</trkpt>
<trkpt lat="64.137535095" lon="-21.934648514">
<ele>-4.313965</ele>
<time>2012-07-18T09:58:45Z</time>
<speed>0.360000</speed>
<extensions>
<speed>0.4</speed>
<temp>0.00</temp>
<bpm>0</bpm>
<rpm>0.00</rpm>
</extensions>
</trkpt>
<trkpt lat="64.137542725" lon="-21.934637070">
<ele>-4.578247</ele>
<time>2012-07-18T09:58:50Z</time>
<speed>0.200000</speed>
<extensions>
<speed>0.2</speed>
<temp>0.00</temp>
<bpm>0</bpm>
<rpm>0.00</rpm>
</extensions>
</trkpt>
<trkpt lat="64.137535095" lon="-21.934648514">
<ele>-5.220093</ele>
<time>2012-07-18T09:58:55Z</time>
<speed>0.110000</speed>
<extensions>
<speed>0.1</speed>
<temp>0.00</temp>
<bpm>0</bpm>
<rpm>0.00</rpm>
</extensions>
</trkpt>
<trkpt lat="64.137535095" lon="-21.934648514">
<ele>-5.862183</ele>
<time>2012-07-18T09:59:00Z</time>
<speed>0.090000</speed>
<extensions>
<speed>0.1</speed>
<temp>0.00</temp>
<bpm>0</bpm>
<rpm>0.00</rpm>
</extensions>
</trkpt>
<trkpt lat="64.137527466" lon="-21.934644699">
<ele>-6.523071</ele>
<time>2012-07-18T09:59:05Z</time>
<speed>0.190000</speed>
<extensions>
<speed>0.2</speed>
<temp>0.00</temp>
<bpm>0</bpm>
<rpm>0.00</rpm>
</extensions>
</trkpt>
<trkpt lat="64.137519836" lon="-21.934646606">
<ele>-7.183716</ele>
<time>2012-07-18T09:59:10Z</time>
<speed>0.170000</speed>
<extensions>
<speed>0.2</speed>
<temp>0.00</temp>
<bpm>0</bpm>
<rpm>0.00</rpm>
</extensions>
</trkpt>
<trkpt lat="64.137512207" lon="-21.934654236">
<ele>-7.831421</ele>
<time>2012-07-18T09:59:15Z</time>
<speed>0.240000</speed>
<extensions>
<speed>0.2</speed>
<temp>0.00</temp>
<bpm>0</bpm>
<rpm>0.00</rpm>
</extensions>
</trkpt>
<trkpt lat="64.137496948" lon="-21.934656143">
<ele>-8.358643</ele>
<time>2012-07-18T09:59:20Z</time>
<speed>0.320000</speed>
<extensions>
<speed>0.3</speed>
<temp>0.00</temp>
<bpm>0</bpm>
<rpm>0.00</rpm>
</extensions>
</trkpt>
<trkpt lat="64.137527466" lon="-21.934616089">
<ele>-7.852051</ele>
<time>2012-07-18T09:59:25Z</time>
<speed>0.290000</speed>
<extensions>
<speed>0.3</speed>
<temp>0.00</temp>
<bpm>0</bpm>
<rpm>0.00</rpm>
</extensions>
</trkpt>
<trkpt lat="64.137527466" lon="-21.934614182">
<ele>-7.936890</ele>
<time>2012-07-18T09:59:30Z</time>
<speed>0.050000</speed>
<extensions>
<speed>0.1</speed>
<temp>0.00</temp>
<bpm>0</bpm>
<rpm>0.00</rpm>
</extensions>
</trkpt>
<trkpt lat="64.137527466" lon="-21.934612274">
<ele>-8.534668</ele>
<time>2012-07-18T09:59:35Z</time>
<speed>0.010000</speed>
<extensions>
<speed>0.0</speed>
<temp>0.00</temp>
<bpm>0</bpm>
<rpm>0.00</rpm>
</extensions>
</trkpt>
<trkpt lat="64.137535095" lon="-21.934612274">
<ele>-9.119873</ele>
<time>2012-07-18T09:59:40Z</time>
<speed>0.070000</speed>
<extensions>
<speed>0.1</speed>
<temp>0.00</temp>
<bpm>0</bpm>
<rpm>0.00</rpm>
</extensions>
</trkpt>
<trkpt lat="64.137535095" lon="-21.934612274">
<ele>-9.691650</ele>
<time>2012-07-18T09:59:45Z</time>
<speed>0.030000</speed>
<extensions>
<speed>0.0</speed>
<temp>0.00</temp>
<bpm>0</bpm>
<rpm>0.00</rpm>
</extensions>
</trkpt>
<trkpt lat="64.137535095" lon="-21.934608459">
<ele>-10.229492</ele>
<time>2012-07-18T09:59:50Z</time>
<speed>0.040000</speed>
<extensions>
<speed>0.0</speed>
<temp>0.00</temp>
<bpm>0</bpm>
<rpm>0.00</rpm>
</extensions>
</trkpt>
<trkpt lat="64.137535095" lon="-21.934606552">
<ele>-10.739502</ele>
<time>2012-07-18T09:59:55Z</time>
<speed>0.100000</speed>
<extensions>
<speed>0.1</speed>
<temp>0.00</temp>
<bpm>0</bpm>
<rpm>0.00</rpm>
</extensions>
</trkpt>
<trkpt lat="64.137542725" lon="-21.934608459">
<ele>-11.233398</ele>
<time>2012-07-18T10:00:00Z</time>
<speed>0.060000</speed>
<extensions>
<speed>0.1</speed>
<temp>0.00</temp>
<bpm>0</bpm>
<rpm>0.00</rpm>
</extensions>
</trkpt>
<trkpt lat="64.137542725" lon="-21.934612274">
<ele>-11.698486</ele>
<time>2012-07-18T10:00:05Z</time>
<speed>0.070000</speed>
<extensions>
<speed>0.1</speed>
<temp>0.00</temp>
<bpm>0</bpm>
<rpm>0.00</rpm>
</extensions>
</trkpt>
<trkpt lat="64.137542725" lon="-21.934602737">
<ele>-12.084229</ele>
<time>2012-07-18T10:00:10Z</time>
<speed>0.390000</speed>
<extensions>
<speed>0.4</speed>
<temp>0.00</temp>
<bpm>0</bpm>
<rpm>0.00</rpm>
</extensions>
</trkpt>
<trkpt lat="64.137512207" lon="-21.934576035">
<ele>-12.805420</ele>
<time>2012-07-18T10:00:15Z</time>
<speed>0.670000</speed>
<extensions>
<speed>0.7</speed>
<temp>0.00</temp>
<bpm>0</bpm>
<rpm>0.00</rpm>
</extensions>
</trkpt>
<trkpt lat="64.137489319" lon="-21.934587479">
<ele>-15.846191</ele>
<time>2012-07-18T10:00:20Z</time>
<speed>0.050000</speed>
<extensions>
<speed>0.1</speed>
<temp>0.00</temp>
<bpm>0</bpm>
<rpm>0.00</rpm>
</extensions>
</trkpt>
<trkpt lat="64.137519836" lon="-21.934602737">
<ele>-12.833496</ele>
<time>2012-07-18T10:00:25Z</time>
<speed>0.260000</speed>
<extensions>
<speed>0.3</speed>
<temp>0.00</temp>
<bpm>0</bpm>
<rpm>0.00</rpm>
</extensions>
</trkpt>
<trkpt lat="64.137550354" lon="-21.934631348">
<ele>-12.726563</ele>
<time>2012-07-18T10:00:30Z</time>
<speed>1.230000</speed>
<extensions>
<speed>1.2</speed>
<temp>0.00</temp>
<bpm>0</bpm>
<rpm>0.00</rpm>
</extensions>
</trkpt>
<trkpt lat="64.137611389" lon="-21.934778214">
<ele>-13.829102</ele>
<time>2012-07-18T10:00:35Z</time>
<speed>2.890000</speed>
<extensions>
<speed>2.9</speed>
<temp>0.00</temp>
<bpm>0</bpm>
<rpm>0.00</rpm>
</extensions>
</trkpt>
<trkpt lat="64.137718201" lon="-21.935001373">
<ele>-13.840820</ele>
<time>2012-07-18T10:00:40Z</time>
<speed>3.260000</speed>
<extensions>
<speed>3.3</speed>
<temp>0.00</temp>
<bpm>0</bpm>
<rpm>0.00</rpm>
</extensions>
</trkpt>
<trkpt lat="64.137863159" lon="-21.935115814">
<ele>-10.851807</ele>
<time>2012-07-18T10:00:45Z</time>
<speed>2.850000</speed>
<extensions>
<speed>2.9</speed>
<temp>0.00</temp>
<bpm>0</bpm>
<rpm>0.00</rpm>
</extensions>
</trkpt>
<trkpt lat="64.138008118" lon="-21.935283661">
<ele>-7.020020</ele>
<time>2012-07-18T10:00:50Z</time>
<speed>3.640000</speed>
<extensions>
<speed>3.6</speed>
<temp>0.00</temp>
<bpm>0</bpm>
<rpm>0.00</rpm>
</extensions>
</trkpt>
<trkpt lat="64.138092041" lon="-21.935649872">
<ele>-4.618408</ele>
<time>2012-07-18T10:00:55Z</time>
<speed>4.140000</speed>
<extensions>
<speed>4.1</speed>
<temp>0.00</temp>
<bpm>0</bpm>
<rpm>0.00</rpm>
</extensions>
</trkpt>
<trkpt lat="64.138175964" lon="-21.936054230">
<ele>-4.259155</ele>
<time>2012-07-18T10:01:00Z</time>
<speed>4.530000</speed>
<extensions>
<speed>4.5</speed>
<temp>0.00</temp>
<bpm>0</bpm>
<rpm>0.00</rpm>
</extensions>
</trkpt>
<trkpt lat="64.138259888" lon="-21.936487198">
<ele>-4.784790</ele>
<time>2012-07-18T10:01:05Z</time>
<speed>4.480000</speed>
<extensions>
<speed>4.5</speed>
<temp>0.00</temp>
<bpm>0</bpm>
<rpm>0.00</rpm>
</extensions>
</trkpt>
<trkpt lat="64.138420105" lon="-21.936622620">
<ele>-6.508301</ele>
<time>2012-07-18T10:01:10Z</time>
<speed>3.920000</speed>
<extensions>
<speed>3.9</speed>
<temp>0.00</temp>
<bpm>0</bpm>
<rpm>0.00</rpm>
</extensions>
</trkpt>
<trkpt lat="64.138534546" lon="-21.936487198">
<ele>-5.182251</ele>
<time>2012-07-18T10:01:15Z</time>
<speed>2.050000</speed>
<extensions>
<speed>2.1</speed>
<temp>0.00</temp>
<bpm>0</bpm>
<rpm>0.00</rpm>
</extensions>
</trkpt>
<trkpt lat="64.138610840" lon="-21.936435699">
<ele>-4.925415</ele>
<time>2012-07-18T10:01:20Z</time>
<speed>1.780000</speed>
<extensions>
<speed>1.8</speed>
<temp>0.00</temp>
<bpm>0</bpm>
<rpm>0.00</rpm>
</extensions>
</trkpt>
<trkpt lat="64.138656616" lon="-21.936431885">
<ele>-4.240967</ele>
<time>2012-07-18T10:01:25Z</time>
<speed>0.050000</speed>
<extensions>
<speed>0.1</speed>
<temp>0.00</temp>
<bpm>0</bpm>
<rpm>0.00</rpm>
</extensions>
</trkpt>
<trkpt lat="64.138648987" lon="-21.936439514">
<ele>-4.411865</ele>
<time>2012-07-18T10:01:30Z</time>
<speed>0.250000</speed>
<extensions>
<speed>0.2</speed>
<temp>0.00</temp>
<bpm>0</bpm>
<rpm>0.00</rpm>
</extensions>
</trkpt>
<trkpt lat="64.138664246" lon="-21.936452866">
<ele>-3.701599</ele>
<time>2012-07-18T10:01:35Z</time>
<speed>0.760000</speed>
<extensions>
<speed>0.8</speed>
<temp>0.00</temp>
<bpm>0</bpm>
<rpm>0.00</rpm>
</extensions>
</trkpt>
<trkpt lat="64.138702393" lon="-21.936548233">
<ele>-2.273743</ele>
<time>2012-07-18T10:01:40Z</time>
<speed>0.310000</speed>
<extensions>
<speed>0.3</speed>
<temp>0.00</temp>
<bpm>0</bpm>
<rpm>0.00</rpm>
</extensions>
</trkpt>
<trkpt lat="64.138725281" lon="-21.936651230">
<ele>-0.391022</ele>
<time>2012-07-18T10:01:45Z</time>
<speed>1.830000</speed>
<extensions>
<speed>1.8</speed>
<temp>0.00</temp>
<bpm>0</bpm>
<rpm>0.00</rpm>
</extensions>
</trkpt>
<trkpt lat="64.138778687" lon="-21.936792374">
<ele>0.256241</ele>
<time>2012-07-18T10:01:50Z</time>
<speed>0.010000</speed>
<extensions>
<speed>0.0</speed>
<temp>0.00</temp>
<bpm>0</bpm>
<rpm>0.00</rpm>
</extensions>
</trkpt>
<trkpt lat="64.138786316" lon="-21.936790466">
<ele>0.776855</ele>
<time>2012-07-18T10:01:55Z</time>
<extensions>
<speed>0.0</speed>
<temp>0.00</temp>
<bpm>0</bpm>
<rpm>0.00</rpm>
</extensions>
</trkpt>
<trkpt lat="64.138786316" lon="-21.936790466">
<ele>0.780930</ele>
<time>2012-07-18T10:02:00Z</time>
<speed>0.030000</speed>
<extensions>
<speed>0.0</speed>
<temp>0.00</temp>
<bpm>0</bpm>
<rpm>0.00</rpm>
</extensions>
</trkpt>
<trkpt lat="64.138786316" lon="-21.936790466">
<ele>0.770416</ele>
<time>2012-07-18T10:02:05Z</time>
<extensions>
<speed>0.0</speed>
<temp>0.00</temp>
<bpm>0</bpm>
<rpm>0.00</rpm>
</extensions>
</trkpt>
<trkpt lat="64.138786316" lon="-21.936790466">
<ele>0.780289</ele>
<time>2012-07-18T10:02:10Z</time>
<extensions>
<speed>0.0</speed>
<temp>0.00</temp>
<bpm>0</bpm>
<rpm>0.00</rpm>
</extensions>
</trkpt>
<trkpt lat="64.138786316" lon="-21.936790466">
<ele>0.786499</ele>
<time>2012-07-18T10:02:15Z</time>
<extensions>
<speed>0.0</speed>
<temp>0.00</temp>
<bpm>0</bpm>
<rpm>0.00</rpm>
</extensions>
</trkpt>
<trkpt lat="64.138786316" lon="-21.936790466">
<ele>0.787476</ele>
<time>2012-07-18T10:02:20Z</time>
<speed>0.010000</speed>
<extensions>
<speed>0.0</speed>
<temp>0.00</temp>
<bpm>0</bpm>
<rpm>0.00</rpm>
</extensions>
</trkpt>
<trkpt lat="64.138786316" lon="-21.936790466">
<ele>0.794220</ele>
<time>2012-07-18T10:02:25Z</time>
<speed>0.010000</speed>
<extensions>
<speed>0.0</speed>
<temp>0.00</temp>
<bpm>0</bpm>
<rpm>0.00</rpm>
</extensions>
</trkpt>
<trkpt lat="64.138786316" lon="-21.936790466">
<ele>0.792465</ele>
<time>2012-07-18T10:02:30Z</time>
<extensions>
<speed>0.0</speed>
<temp>0.00</temp>
<bpm>0</bpm>
<rpm>0.00</rpm>
</extensions>
</trkpt>
<trkpt lat="64.138786316" lon="-21.936796188">
<ele>0.779877</ele>
<time>2012-07-18T10:02:35Z</time>
<speed>0.140000</speed>
<extensions>
<speed>0.1</speed>
<temp>0.00</temp>
<bpm>0</bpm>
<rpm>0.00</rpm>
</extensions>
</trkpt>
<trkpt lat="64.138786316" lon="-21.936800003">
<ele>0.554321</ele>
<time>2012-07-18T10:02:40Z</time>
<extensions>
<speed>0.0</speed>
<temp>0.00</temp>
<bpm>0</bpm>
<rpm>0.00</rpm>
</extensions>
</trkpt>
<trkpt lat="64.138786316" lon="-21.936801910">
<ele>0.569229</ele>
<time>2012-07-18T10:02:45Z</time>
<speed>0.320000</speed>
<extensions>
<speed>0.3</speed>
<temp>0.00</temp>
<bpm>0</bpm>
<rpm>0.00</rpm>
</extensions>
</trkpt>
<trkpt lat="64.138801575" lon="-21.936876297">
<ele>1.427216</ele>
<time>2012-07-18T10:02:50Z</time>
<speed>2.000000</speed>
<extensions>
<speed>2.0</speed>
<temp>0.00</temp>
<bpm>0</bpm>
<rpm>0.00</rpm>
</extensions>
</trkpt>
<trkpt lat="64.138862610" lon="-21.937164307">
<ele>3.576233</ele>
<time>2012-07-18T10:02:55Z</time>
<speed>3.320000</speed>
<extensions>
<speed>3.3</speed>
<temp>0.00</temp>
<bpm>0</bpm>
<rpm>0.00</rpm>
</extensions>
</trkpt>
<trkpt lat="64.138900757" lon="-21.937469482">
<ele>4.859863</ele>
<time>2012-07-18T10:03:00Z</time>
<speed>2.790000</speed>
<extensions>
<speed>2.8</speed>
<temp>0.00</temp>
<bpm>0</bpm>
<rpm>0.00</rpm>
</extensions>
</trkpt>
<trkpt lat="64.138938904" lon="-21.937725067">
<ele>5.287231</ele>
<time>2012-07-18T10:03:05Z</time>
<speed>2.450000</speed>
<extensions>
<speed>2.4</speed>
<temp>0.00</temp>
<bpm>0</bpm>
<rpm>0.00</rpm>
</extensions>
</trkpt>
<trkpt lat="64.138977051" lon="-21.937946320">
<ele>6.349487</ele>
<time>2012-07-18T10:03:10Z</time>
<speed>2.190000</speed>
<extensions>
<speed>2.2</speed>
<temp>0.00</temp>
<bpm>0</bpm>
<rpm>0.00</rpm>
</extensions>
</trkpt>
<trkpt lat="64.139015198" lon="-21.938201904">
<ele>7.520142</ele>
<time>2012-07-18T10:03:15Z</time>
<speed>2.560000</speed>
<extensions>
<speed>2.6</speed>
<temp>0.00</temp>
<bpm>0</bpm>
<rpm>0.00</rpm>
</extensions>
</trkpt>
<trkpt lat="64.139045715" lon="-21.938455582">
<ele>8.665771</ele>
<time>2012-07-18T10:03:20Z</time>
<speed>2.300000</speed>
<extensions>
<speed>2.3</speed>
<temp>0.00</temp>
<bpm>0</bpm>
<rpm>0.00</rpm>
</extensions>
</trkpt>
<trkpt lat="64.139083862" lon="-21.938703537">
<ele>9.745361</ele>
<time>2012-07-18T10:03:25Z</time>
<speed>2.560000</speed>
<extensions>
<speed>2.6</speed>
<temp>0.00</temp>
<bpm>0</bpm>
<rpm>0.00</rpm>
</extensions>
</trkpt>
<trkpt lat="64.139106750" lon="-21.938974380">
<ele>9.798584</ele>
<time>2012-07-18T10:03:30Z</time>
<speed>2.800000</speed>
<extensions>
<speed>2.8</speed>
<temp>0.00</temp>
<bpm>0</bpm>
<rpm>0.00</rpm>
</extensions>
</trkpt>
<trkpt lat="64.139137268" lon="-21.939336777">
<ele>9.979980</ele>
<time>2012-07-18T10:03:35Z</time>
<speed>3.550000</speed>
<extensions>
<speed>3.5</speed>
<temp>0.00</temp>
<bpm>0</bpm>
<rpm>0.00</rpm>
</extensions>
</trkpt>
<trkpt lat="64.139175415" lon="-21.939737320">
<ele>10.124756</ele>
<time>2012-07-18T10:03:40Z</time>
<speed>3.520000</speed>
<extensions>
<speed>3.5</speed>
<temp>0.00</temp>
<bpm>0</bpm>
<rpm>0.00</rpm>
</extensions>
</trkpt>
<trkpt lat="64.139274597" lon="-21.940000534">
<ele>9.958252</ele>
<time>2012-07-18T10:03:45Z</time>
<speed>4.030000</speed>
<extensions>
<speed>4.0</speed>
<temp>0.00</temp>
<bpm>0</bpm>
<rpm>0.00</rpm>
</extensions>
</trkpt>
<trkpt lat="64.139434814" lon="-21.940303802">
<ele>9.128418</ele>
<time>2012-07-18T10:03:50Z</time>
<speed>5.180000</speed>
<extensions>
<speed>5.2</speed>
<temp>0.00</temp>
<bpm>0</bpm>
<rpm>0.00</rpm>
</extensions>
</trkpt>
<trkpt lat="64.139602661" lon="-21.940700531">
<ele>7.275024</ele>
<time>2012-07-18T10:03:55Z</time>
<speed>6.020000</speed>
<extensions>
<speed>6.0</speed>
<temp>0.00</temp>
<bpm>0</bpm>
<rpm>0.00</rpm>
</extensions>
</trkpt>
<trkpt lat="64.139839172" lon="-21.941106796">
<ele>5.435547</ele>
<time>2012-07-18T10:04:00Z</time>
<speed>7.120000</speed>
<extensions>
<speed>7.1</speed>
<temp>0.00</temp>
<bpm>0</bpm>
<rpm>0.00</rpm>
</extensions>
</trkpt>
<trkpt lat="64.140129089" lon="-21.941497803">
<ele>4.154419</ele>
<time>2012-07-18T10:04:05Z</time>
<speed>7.360000</speed>
<extensions>
<speed>7.4</speed>
<temp>0.00</temp>
<bpm>0</bpm>
<rpm>0.00</rpm>
</extensions>
</trkpt>
<trkpt lat="64.140441895" lon="-21.941761017">
<ele>3.611938</ele>
<time>2012-07-18T10:04:10Z</time>
<speed>7.000000</speed>
<extensions>
<speed>7.0</speed>
<temp>0.00</temp>
<bpm>0</bpm>
<rpm>0.00</rpm>
</extensions>
</trkpt>
<trkpt lat="64.140724182" lon="-21.941848755">
<ele>4.023926</ele>
<time>2012-07-18T10:04:15Z</time>
<speed>5.810000</speed>
<extensions>
<speed>5.8</speed>
<temp>0.00</temp>
<bpm>0</bpm>
<rpm>0.00</rpm>
</extensions>
</trkpt>
<trkpt lat="64.140960693" lon="-21.941722870">
<ele>4.057373</ele>
<time>2012-07-18T10:04:20Z</time>
<speed>5.330000</speed>
<extensions>
<speed>5.3</speed>
<temp>0.00</temp>
<bpm>0</bpm>
<rpm>0.00</rpm>
</extensions>
</trkpt>
<trkpt lat="64.141189575" lon="-21.941547394">
<ele>4.505371</ele>
<time>2012-07-18T10:04:25Z</time>
<speed>4.950000</speed>
<extensions>
<speed>4.9</speed>
<temp>0.00</temp>
<bpm>0</bpm>
<rpm>0.00</rpm>
</extensions>
</trkpt>
<trkpt lat="64.141395569" lon="-21.941318512">
<ele>4.774780</ele>
<time>2012-07-18T10:04:30Z</time>
<speed>5.000000</speed>
<extensions>
<speed>5.0</speed>
<temp>0.00</temp>
<bpm>0</bpm>
<rpm>0.00</rpm>
</extensions>
</trkpt>
<trkpt lat="64.141601563" lon="-21.941131592">
<ele>5.262207</ele>
<time>2012-07-18T10:04:35Z</time>
<speed>4.770000</speed>
<extensions>
<speed>4.8</speed>
<temp>0.00</temp>
<bpm>0</bpm>
<rpm>0.00</rpm>
</extensions>
</trkpt>
<trkpt lat="64.141792297" lon="-21.940940857">
<ele>6.134033</ele>
<time>2012-07-18T10:04:40Z</time>
<speed>4.470000</speed>
<extensions>
<speed>4.5</speed>
<temp>0.00</temp>
<bpm>0</bpm>
<rpm>0.00</rpm>
</extensions>
</trkpt>
<trkpt lat="64.141960144" lon="-21.940826416">
<ele>7.193481</ele>
<time>2012-07-18T10:04:45Z</time>
<speed>3.490000</speed>
<extensions>
<speed>3.5</speed>
<temp>0.00</temp>
<bpm>0</bpm>
<rpm>0.00</rpm>
</extensions>
</trkpt>
<trkpt lat="64.142051697" lon="-21.940782547">
<ele>7.140381</ele>
<time>2012-07-18T10:04:50Z</time>
<speed>0.780000</speed>
<extensions>
<speed>0.8</speed>
<temp>0.00</temp>
<bpm>0</bpm>
<rpm>0.00</rpm>
</extensions>
</trkpt>
<trkpt lat="64.142051697" lon="-21.940769196">
<ele>6.957642</ele>
<time>2012-07-18T10:04:55Z</time>
<extensions>
<speed>0.0</speed>
<temp>0.00</temp>
<bpm>0</bpm>
<rpm>0.00</rpm>
</extensions>
</trkpt>
<trkpt lat="64.142051697" lon="-21.940769196">
<ele>6.933716</ele>
<time>2012-07-18T10:05:00Z</time>
<extensions>
<speed>0.0</speed>
<temp>0.00</temp>
<bpm>0</bpm>
<rpm>0.00</rpm>
</extensions>
</trkpt>
<trkpt lat="64.142051697" lon="-21.940767288">
<ele>6.935303</ele>
<time>2012-07-18T10:05:05Z</time>
<extensions>
<speed>0.0</speed>
<temp>0.00</temp>
<bpm>0</bpm>
<rpm>0.00</rpm>
</extensions>
</trkpt>
<trkpt lat="64.142051697" lon="-21.940767288">
<ele>6.940430</ele>
<time>2012-07-18T10:05:10Z</time>
<speed>0.020000</speed>
<extensions>
<speed>0.0</speed>
<temp>0.00</temp>
<bpm>0</bpm>
<rpm>0.00</rpm>
</extensions>
</trkpt>
<trkpt lat="64.142059326" lon="-21.940767288">
<ele>6.666016</ele>
<time>2012-07-18T10:05:15Z</time>
<speed>0.040000</speed>
<extensions>
<speed>0.0</speed>
<temp>0.00</temp>
<bpm>0</bpm>
<rpm>0.00</rpm>
</extensions>
</trkpt>
<trkpt lat="64.142059326" lon="-21.940765381">
<ele>6.582642</ele>
<time>2012-07-18T10:05:20Z</time>
<speed>0.010000</speed>
<extensions>
<speed>0.0</speed>
<temp>0.00</temp>
<bpm>0</bpm>
<rpm>0.00</rpm>
</extensions>
</trkpt>
<trkpt lat="64.142082214" lon="-21.940765381">
<ele>6.488525</ele>
<time>2012-07-18T10:05:25Z</time>
<speed>1.450000</speed>
<extensions>
<speed>1.4</speed>
<temp>0.00</temp>
<bpm>0</bpm>
<rpm>0.00</rpm>
</extensions>
</trkpt>
<trkpt lat="64.142173767" lon="-21.940757751">
<ele>7.037598</ele>
<time>2012-07-18T10:05:30Z</time>
<speed>2.450000</speed>
<extensions>
<speed>2.4</speed>
<temp>0.00</temp>
<bpm>0</bpm>
<rpm>0.00</rpm>
</extensions>
</trkpt>
<trkpt lat="64.142318726" lon="-21.940736771">
<ele>7.160034</ele>
<time>2012-07-18T10:05:35Z</time>
<speed>3.620000</speed>
<extensions>
<speed>3.6</speed>
<temp>0.00</temp>
<bpm>0</bpm>
<rpm>0.00</rpm>
</extensions>
</trkpt>
<trkpt lat="64.142478943" lon="-21.940675735">
<ele>6.807007</ele>
<time>2012-07-18T10:05:40Z</time>
<speed>3.190000</speed>
<extensions>
<speed>3.2</speed>
<temp>0.00</temp>
<bpm>0</bpm>
<rpm>0.00</rpm>
</extensions>
</trkpt>
<trkpt lat="64.142608643" lon="-21.940563202">
<ele>4.757568</ele>
<time>2012-07-18T10:05:45Z</time>
<speed>3.050000</speed>
<extensions>
<speed>3.0</speed>
<temp>0.00</temp>
<bpm>0</bpm>
<rpm>0.00</rpm>
</extensions>
</trkpt>
<trkpt lat="64.142745972" lon="-21.940505981">
<ele>3.758484</ele>
<time>2012-07-18T10:05:50Z</time>
<speed>1.930000</speed>
<extensions>
<speed>1.9</speed>
<temp>0.00</temp>
<bpm>0</bpm>
<rpm>0.00</rpm>
</extensions>
</trkpt>
<trkpt lat="64.142829895" lon="-21.940469742">
<ele>4.111694</ele>
<time>2012-07-18T10:05:55Z</time>
<speed>1.970000</speed>
<extensions>
<speed>2.0</speed>
<temp>0.00</temp>
<bpm>0</bpm>
<rpm>0.00</rpm>
</extensions>
</trkpt>
<trkpt lat="64.142929077" lon="-21.940452576">
<ele>4.343628</ele>
<time>2012-07-18T10:06:00Z</time>
<speed>1.550000</speed>
<extensions>
<speed>1.5</speed>
<temp>0.00</temp>
<bpm>0</bpm>
<rpm>0.00</rpm>
</extensions>
</trkpt>
<trkpt lat="64.143020630" lon="-21.940408707">
<ele>4.421021</ele>
<time>2012-07-18T10:06:05Z</time>
<speed>2.550000</speed>
<extensions>
<speed>2.6</speed>
<temp>0.00</temp>
<bpm>0</bpm>
<rpm>0.00</rpm>
</extensions>
</trkpt>
<trkpt lat="64.143157959" lon="-21.940359116">
<ele>4.767212</ele>
<time>2012-07-18T10:06:10Z</time>
<speed>2.920000</speed>
<extensions>
<speed>2.9</speed>
<temp>0.00</temp>
<bpm>0</bpm>
<rpm>0.00</rpm>
</extensions>
</trkpt>
<trkpt lat="64.143295288" lon="-21.940301895">
<ele>4.955933</ele>
<time>2012-07-18T10:06:15Z</time>
<speed>3.220000</speed>
<extensions>
<speed>3.2</speed>
<temp>0.00</temp>
<bpm>0</bpm>
<rpm>0.00</rpm>
</extensions>
</trkpt>
<trkpt lat="64.143447876" lon="-21.940238953">
<ele>5.758179</ele>
<time>2012-07-18T10:06:20Z</time>
<speed>3.370000</speed>
<extensions>
<speed>3.4</speed>
<temp>0.00</temp>
<bpm>0</bpm>
<rpm>0.00</rpm>
</extensions>
</trkpt>
<trkpt lat="64.143608093" lon="-21.940156937">
<ele>6.491943</ele>
<time>2012-07-18T10:06:25Z</time>
<speed>3.770000</speed>
<extensions>
<speed>3.8</speed>
<temp>0.00</temp>
<bpm>0</bpm>
<rpm>0.00</rpm>
</extensions>
</trkpt>
<trkpt lat="64.143783569" lon="-21.940086365">
<ele>6.784424</ele>
<time>2012-07-18T10:06:30Z</time>
<speed>3.520000</speed>
<extensions>
<speed>3.5</speed>
<temp>0.00</temp>
<bpm>0</bpm>
<rpm>0.00</rpm>
</extensions>
</trkpt>
<trkpt lat="64.143936157" lon="-21.940008163">
<ele>7.630005</ele>
<time>2012-07-18T10:06:35Z</time>
<speed>3.110000</speed>
<extensions>
<speed>3.1</speed>
<temp>0.00</temp>
<bpm>0</bpm>
<rpm>0.00</rpm>
</extensions>
</trkpt>
<trkpt lat="64.144073486" lon="-21.939939499">
<ele>8.031494</ele>
<time>2012-07-18T10:06:40Z</time>
<speed>3.320000</speed>
<extensions>
<speed>3.3</speed>
<temp>0.00</temp>
<bpm>0</bpm>
<rpm>0.00</rpm>
</extensions>
</trkpt>
<trkpt lat="64.144226074" lon="-21.939884186">
<ele>8.159912</ele>
<time>2012-07-18T10:06:45Z</time>
<speed>3.600000</speed>
<extensions>
<speed>3.6</speed>
<temp>0.00</temp>
<bpm>0</bpm>
<rpm>0.00</rpm>
</extensions>
</trkpt>
<trkpt lat="64.144393921" lon="-21.939809799">
<ele>8.875977</ele>
<time>2012-07-18T10:06:50Z</time>
<speed>3.670000</speed>
<extensions>
<speed>3.7</speed>
<temp>0.00</temp>
<bpm>0</bpm>
<rpm>0.00</rpm>
</extensions>
</trkpt>
<trkpt lat="64.144561768" lon="-21.939737320">
<ele>10.189697</ele>
<time>2012-07-18T10:06:55Z</time>
<speed>4.210000</speed>
<extensions>
<speed>4.2</speed>
<temp>0.00</temp>
<bpm>0</bpm>
<rpm>0.00</rpm>
</extensions>
</trkpt>
<trkpt lat="64.144729614" lon="-21.939670563">
<ele>11.399170</ele>
<time>2012-07-18T10:07:00Z</time>
<speed>3.520000</speed>
<extensions>
<speed>3.5</speed>
<temp>0.00</temp>
<bpm>0</bpm>
<rpm>0.00</rpm>
</extensions>
</trkpt>
<trkpt lat="64.144874573" lon="-21.939603806">
<ele>11.652344</ele>
<time>2012-07-18T10:07:05Z</time>
<speed>3.190000</speed>
<extensions>
<speed>3.2</speed>
<temp>0.00</temp>
<bpm>0</bpm>
<rpm>0.00</rpm>
</extensions>
</trkpt>
<trkpt lat="64.144996643" lon="-21.939552307">
<ele>11.634766</ele>
<time>2012-07-18T10:07:10Z</time>
<speed>2.960000</speed>
<extensions>
<speed>3.0</speed>
<temp>0.00</temp>
<bpm>0</bpm>
<rpm>0.00</rpm>
</extensions>
</trkpt>
<trkpt lat="64.145133972" lon="-21.939487457">
<ele>12.019775</ele>
<time>2012-07-18T10:07:15Z</time>
<speed>2.950000</speed>
<extensions>
<speed>2.9</speed>
<temp>0.00</temp>
<bpm>0</bpm>
<rpm>0.00</rpm>
</extensions>
</trkpt>
<trkpt lat="64.145278931" lon="-21.939447403">
<ele>12.288574</ele>
<time>2012-07-18T10:07:20Z</time>
<speed>2.850000</speed>
<extensions>
<speed>2.9</speed>
<temp>0.00</temp>
<bpm>0</bpm>
<rpm>0.00</rpm>
</extensions>
</trkpt>
<trkpt lat="64.145393372" lon="-21.939470291">
<ele>11.790283</ele>
<time>2012-07-18T10:07:25Z</time>
<speed>2.810000</speed>
<extensions>
<speed>2.8</speed>
<temp>0.00</temp>
<bpm>0</bpm>
<rpm>0.00</rpm>
</extensions>
</trkpt>
<trkpt lat="64.145469666" lon="-21.939422607">
<ele>12.867676</ele>
<time>2012-07-18T10:07:30Z</time>
<speed>0.130000</speed>
<extensions>
<speed>0.1</speed>
<temp>0.00</temp>
<bpm>0</bpm>
<rpm>0.00</rpm>
</extensions>
</trkpt>
<trkpt lat="64.145462036" lon="-21.939432144">
<ele>13.045410</ele>
<time>2012-07-18T10:07:35Z</time>
<extensions>
<speed>0.0</speed>
<temp>0.00</temp>
<bpm>0</bpm>
<rpm>0.00</rpm>
</extensions>
</trkpt>
<trkpt lat="64.145462036" lon="-21.939432144">
<ele>13.068604</ele>
<time>2012-07-18T10:07:40Z</time>
<speed>0.020000</speed>
<extensions>
<speed>0.0</speed>
<temp>0.00</temp>
<bpm>0</bpm>
<rpm>0.00</rpm>
</extensions>
</trkpt>
<trkpt lat="64.145462036" lon="-21.939432144">
<ele>13.134277</ele>
<time>2012-07-18T10:07:45Z</time>
<extensions>
<speed>0.0</speed>
<temp>0.00</temp>
<bpm>0</bpm>
<rpm>0.00</rpm>
</extensions>
</trkpt>
<trkpt lat="64.145462036" lon="-21.939432144">
<ele>13.165771</ele>
<time>2012-07-18T10:07:50Z</time>
<speed>0.010000</speed>
<extensions>
<speed>0.0</speed>
<temp>0.00</temp>
<bpm>0</bpm>
<rpm>0.00</rpm>
</extensions>
</trkpt>
<trkpt lat="64.145462036" lon="-21.939432144">
<ele>13.156494</ele>
<time>2012-07-18T10:07:55Z</time>
<extensions>
<speed>0.0</speed>
<temp>0.00</temp>
<bpm>0</bpm>
<rpm>0.00</rpm>
</extensions>
</trkpt>
<trkpt lat="64.145462036" lon="-21.939432144">
<ele>13.170166</ele>
<time>2012-07-18T10:08:00Z</time>
<speed>0.010000</speed>
<extensions>
<speed>0.0</speed>
<temp>0.00</temp>
<bpm>0</bpm>
<rpm>0.00</rpm>
</extensions>
</trkpt>
<trkpt lat="64.145462036" lon="-21.939432144">
<ele>13.161621</ele>
<time>2012-07-18T10:08:05Z</time>
<speed>0.010000</speed>
<extensions>
<speed>0.0</speed>
<temp>0.00</temp>
<bpm>0</bpm>
<rpm>0.00</rpm>
</extensions>
</trkpt>
<trkpt lat="64.145462036" lon="-21.939432144">
<ele>13.159912</ele>
<time>2012-07-18T10:08:10Z</time>
<speed>0.010000</speed>
<extensions>
<speed>0.0</speed>
<temp>0.00</temp>
<bpm>0</bpm>
<rpm>0.00</rpm>
</extensions>
</trkpt>
<trkpt lat="64.145462036" lon="-21.939432144">
<ele>13.149902</ele>
<time>2012-07-18T10:08:15Z</time>
<speed>0.010000</speed>
<extensions>
<speed>0.0</speed>
<temp>0.00</temp>
<bpm>0</bpm>
<rpm>0.00</rpm>
</extensions>
</trkpt>
<trkpt lat="64.145462036" lon="-21.939432144">
<ele>13.124756</ele>
<time>2012-07-18T10:08:20Z</time>
<speed>0.060000</speed>
<extensions>
<speed>0.1</speed>
<temp>0.00</temp>
<bpm>0</bpm>
<rpm>0.00</rpm>
</extensions>
</trkpt>
<trkpt lat="64.145462036" lon="-21.939432144">
<ele>13.104248</ele>
<time>2012-07-18T10:08:25Z</time>
<speed>0.030000</speed>
<extensions>
<speed>0.0</speed>
<temp>0.00</temp>
<bpm>0</bpm>
<rpm>0.00</rpm>
</extensions>
</trkpt>
<trkpt lat="64.145462036" lon="-21.939432144">
<ele>13.085205</ele>
<time>2012-07-18T10:08:30Z</time>
<speed>0.130000</speed>
<extensions>
<speed>0.1</speed>
<temp>0.00</temp>
<bpm>0</bpm>
<rpm>0.00</rpm>
</extensions>
</trkpt>
<trkpt lat="64.145469666" lon="-21.939430237">
<ele>12.938477</ele>
<time>2012-07-18T10:08:35Z</time>
<extensions>
<speed>0.0</speed>
<temp>0.00</temp>
<bpm>0</bpm>
<rpm>0.00</rpm>
</extensions>
</trkpt>
<trkpt lat="64.145469666" lon="-21.939430237">
<ele>12.937500</ele>
<time>2012-07-18T10:08:40Z</time>
<speed>0.010000</speed>
<extensions>
<speed>0.0</speed>
<temp>0.00</temp>
<bpm>0</bpm>
<rpm>0.00</rpm>
</extensions>
</trkpt>
<trkpt lat="64.145469666" lon="-21.939430237">
<ele>12.931641</ele>
<time>2012-07-18T10:08:45Z</time>
<extensions>
<speed>0.0</speed>
<temp>0.00</temp>
<bpm>0</bpm>
<rpm>0.00</rpm>
</extensions>
</trkpt>
<trkpt lat="64.145469666" lon="-21.939430237">
<ele>12.931885</ele>
<time>2012-07-18T10:08:50Z</time>
<extensions>
<speed>0.0</speed>
<temp>0.00</temp>
<bpm>0</bpm>
<rpm>0.00</rpm>
</extensions>
</trkpt>
<trkpt lat="64.145477295" lon="-21.939428329">
<ele>12.991455</ele>
<time>2012-07-18T10:08:55Z</time>
<speed>0.840000</speed>
<extensions>
<speed>0.8</speed>
<temp>0.00</temp>
<bpm>0</bpm>
<rpm>0.00</rpm>
</extensions>
</trkpt>
<trkpt lat="64.145515442" lon="-21.939405441">
<ele>13.117920</ele>
<time>2012-07-18T10:09:00Z</time>
<speed>0.930000</speed>
<extensions>
<speed>0.9</speed>
<temp>0.00</temp>
<bpm>0</bpm>
<rpm>0.00</rpm>
</extensions>
</trkpt>
<trkpt lat="64.145576477" lon="-21.939271927">
<ele>10.959961</ele>
<time>2012-07-18T10:09:05Z</time>
<speed>2.360000</speed>
<extensions>
<speed>2.4</speed>
<temp>0.00</temp>
<bpm>0</bpm>
<rpm>0.00</rpm>
</extensions>
</trkpt>
<trkpt lat="64.145668030" lon="-21.939125061">
<ele>9.169922</ele>
<time>2012-07-18T10:09:10Z</time>
<speed>2.480000</speed>
<extensions>
<speed>2.5</speed>
<temp>0.00</temp>
<bpm>0</bpm>
<rpm>0.00</rpm>
</extensions>
</trkpt>
<trkpt lat="64.145759583" lon="-21.938938141">
<ele>8.386719</ele>
<time>2012-07-18T10:09:15Z</time>
<speed>2.870000</speed>
<extensions>
<speed>2.9</speed>
<temp>0.00</temp>
<bpm>0</bpm>
<rpm>0.00</rpm>
</extensions>
</trkpt>
<trkpt lat="64.145851135" lon="-21.938783646">
<ele>9.286377</ele>
<time>2012-07-18T10:09:20Z</time>
<speed>2.060000</speed>
<extensions>
<speed>2.1</speed>
<temp>0.00</temp>
<bpm>0</bpm>
<rpm>0.00</rpm>
</extensions>
</trkpt>
<trkpt lat="64.145942688" lon="-21.938663483">
<ele>9.497314</ele>
<time>2012-07-18T10:09:25Z</time>
<speed>1.970000</speed>
<extensions>
<speed>2.0</speed>
<temp>0.00</temp>
<bpm>0</bpm>
<rpm>0.00</rpm>
</extensions>
</trkpt>
<trkpt lat="64.146041870" lon="-21.938484192">
<ele>8.737305</ele>
<time>2012-07-18T10:09:30Z</time>
<speed>2.590000</speed>
<extensions>
<speed>2.6</speed>
<temp>0.00</temp>
<bpm>0</bpm>
<rpm>0.00</rpm>
</extensions>
</trkpt>
<trkpt lat="64.146148682" lon="-21.938318253">
<ele>9.311035</ele>
<time>2012-07-18T10:09:35Z</time>
<speed>2.750000</speed>
<extensions>
<speed>2.7</speed>
<temp>0.00</temp>
<bpm>0</bpm>
<rpm>0.00</rpm>
</extensions>
</trkpt>
<trkpt lat="64.146255493" lon="-21.938165665">
<ele>8.411133</ele>
<time>2012-07-18T10:09:40Z</time>
<speed>2.650000</speed>
<extensions>
<speed>2.6</speed>
<temp>0.00</temp>
<bpm>0</bpm>
<rpm>0.00</rpm>
</extensions>
</trkpt>
<trkpt lat="64.146331787" lon="-21.938053131">
<ele>7.140015</ele>
<time>2012-07-18T10:09:45Z</time>
<speed>2.320000</speed>
<extensions>
<speed>2.3</speed>
<temp>0.00</temp>
<bpm>0</bpm>
<rpm>0.00</rpm>
</extensions>
</trkpt>
<trkpt lat="64.146423340" lon="-21.937885284">
<ele>5.988647</ele>
<time>2012-07-18T10:09:50Z</time>
<speed>2.820000</speed>
<extensions>
<speed>2.8</speed>
<temp>0.00</temp>
<bpm>0</bpm>
<rpm>0.00</rpm>
</extensions>
</trkpt>
<trkpt lat="64.146537781" lon="-21.937683105">
<ele>5.383545</ele>
<time>2012-07-18T10:09:55Z</time>
<speed>3.110000</speed>
<extensions>
<speed>3.1</speed>
<temp>0.00</temp>
<bpm>0</bpm>
<rpm>0.00</rpm>
</extensions>
</trkpt>
<trkpt lat="64.146659851" lon="-21.937486649">
<ele>5.402588</ele>
<time>2012-07-18T10:10:00Z</time>
<speed>3.050000</speed>
<extensions>
<speed>3.0</speed>
<temp>0.00</temp>
<bpm>0</bpm>
<rpm>0.00</rpm>
</extensions>
</trkpt>
<trkpt lat="64.146743774" lon="-21.937303543">
<ele>2.180359</ele>
<time>2012-07-18T10:10:05Z</time>
<speed>2.360000</speed>
<extensions>
<speed>2.4</speed>
<temp>0.00</temp>
<bpm>0</bpm>
<rpm>0.00</rpm>
</extensions>
</trkpt>
<trkpt lat="64.146835327" lon="-21.937185287">
<ele>1.874481</ele>
<time>2012-07-18T10:10:10Z</time>
<speed>2.360000</speed>
<extensions>
<speed>2.4</speed>
<temp>0.00</temp>
<bpm>0</bpm>
<rpm>0.00</rpm>
</extensions>
</trkpt>
<trkpt lat="64.146934509" lon="-21.937030792">
<ele>1.450714</ele>
<time>2012-07-18T10:10:15Z</time>
<speed>2.530000</speed>
<extensions>
<speed>2.5</speed>
<temp>0.00</temp>
<bpm>0</bpm>
<rpm>0.00</rpm>
</extensions>
</trkpt>
<trkpt lat="64.147041321" lon="-21.936836243">
<ele>2.874695</ele>
<time>2012-07-18T10:10:20Z</time>
<speed>3.190000</speed>
<extensions>
<speed>3.2</speed>
<temp>0.00</temp>
<bpm>0</bpm>
<rpm>0.00</rpm>
</extensions>
</trkpt>
<trkpt lat="64.147148132" lon="-21.936672211">
<ele>3.284729</ele>
<time>2012-07-18T10:10:25Z</time>
<speed>2.630000</speed>
<extensions>
<speed>2.6</speed>
<temp>0.00</temp>
<bpm>0</bpm>
<rpm>0.00</rpm>
</extensions>
</trkpt>
<trkpt lat="64.147224426" lon="-21.936510086">
<ele>4.377441</ele>
<time>2012-07-18T10:10:30Z</time>
<speed>2.130000</speed>
<extensions>
<speed>2.1</speed>
<temp>0.00</temp>
<bpm>0</bpm>
<rpm>0.00</rpm>
</extensions>
</trkpt>
<trkpt lat="64.147300720" lon="-21.936456680">
<ele>4.491577</ele>
<time>2012-07-18T10:10:35Z</time>
<speed>1.710000</speed>
<extensions>
<speed>1.7</speed>
<temp>0.00</temp>
<bpm>0</bpm>
<rpm>0.00</rpm>
</extensions>
</trkpt>
<trkpt lat="64.147354126" lon="-21.936353683">
<ele>5.022095</ele>
<time>2012-07-18T10:10:40Z</time>
<speed>1.950000</speed>
<extensions>
<speed>1.9</speed>
<temp>0.00</temp>
<bpm>0</bpm>
<rpm>0.00</rpm>
</extensions>
</trkpt>
<trkpt lat="64.147430420" lon="-21.936218262">
<ele>5.021240</ele>
<time>2012-07-18T10:10:45Z</time>
<speed>1.650000</speed>
<extensions>
<speed>1.7</speed>
<temp>0.00</temp>
<bpm>0</bpm>
<rpm>0.00</rpm>
</extensions>
</trkpt>
<trkpt lat="64.147499084" lon="-21.936067581">
<ele>4.748657</ele>
<time>2012-07-18T10:10:50Z</time>
<speed>2.100000</speed>
<extensions>
<speed>2.1</speed>
<temp>0.00</temp>
<bpm>0</bpm>
<rpm>0.00</rpm>
</extensions>
</trkpt>
<trkpt lat="64.147590637" lon="-21.936004639">
<ele>4.585449</ele>
<time>2012-07-18T10:10:55Z</time>
<speed>1.800000</speed>
<extensions>
<speed>1.8</speed>
<temp>0.00</temp>
<bpm>0</bpm>
<rpm>0.00</rpm>
</extensions>
</trkpt>
<trkpt lat="64.147659302" lon="-21.935941696">
<ele>5.332031</ele>
<time>2012-07-18T10:11:00Z</time>
<speed>1.390000</speed>
<extensions>
<speed>1.4</speed>
<temp>0.00</temp>
<bpm>0</bpm>
<rpm>0.00</rpm>
</extensions>
</trkpt>
<trkpt lat="64.147727966" lon="-21.935901642">
<ele>5.907959</ele>
<time>2012-07-18T10:11:05Z</time>
<speed>1.230000</speed>
<extensions>
<speed>1.2</speed>
<temp>0.00</temp>
<bpm>0</bpm>
<rpm>0.00</rpm>
</extensions>
</trkpt>
<trkpt lat="64.147720337" lon="-21.935813904">
<ele>6.473022</ele>
<time>2012-07-18T10:11:10Z</time>
<speed>0.220000</speed>
<extensions>
<speed>0.2</speed>
<temp>0.00</temp>
<bpm>0</bpm>
<rpm>0.00</rpm>
</extensions>
</trkpt>
<trkpt lat="64.147720337" lon="-21.935800552">
<ele>6.570435</ele>
<time>2012-07-18T10:11:15Z</time>
<extensions>
<speed>0.0</speed>
<temp>0.00</temp>
<bpm>0</bpm>
<rpm>0.00</rpm>
</extensions>
</trkpt>
<trkpt lat="64.147720337" lon="-21.935800552">
<ele>6.578979</ele>
<time>2012-07-18T10:11:20Z</time>
<extensions>
<speed>0.0</speed>
<temp>0.00</temp>
<bpm>0</bpm>
<rpm>0.00</rpm>
</extensions>
</trkpt>
<trkpt lat="64.147720337" lon="-21.935800552">
<ele>6.589478</ele>
<time>2012-07-18T10:11:25Z</time>
<extensions>
<speed>0.0</speed>
<temp>0.00</temp>
<bpm>0</bpm>
<rpm>0.00</rpm>
</extensions>
</trkpt>
<trkpt lat="64.147720337" lon="-21.935789108">
<ele>6.598267</ele>
<time>2012-07-18T10:11:30Z</time>
<speed>1.000000</speed>
<extensions>
<speed>1.0</speed>
<temp>0.00</temp>
<bpm>0</bpm>
<rpm>0.00</rpm>
</extensions>
</trkpt>
<trkpt lat="64.147773743" lon="-21.935766220">
<ele>6.765259</ele>
<time>2012-07-18T10:11:35Z</time>
<speed>1.060000</speed>
<extensions>
<speed>1.1</speed>
<temp>0.00</temp>
<bpm>0</bpm>
<rpm>0.00</rpm>
</extensions>
</trkpt>
<trkpt lat="64.147811890" lon="-21.935815811">
<ele>5.348145</ele>
<time>2012-07-18T10:11:40Z</time>
<speed>0.130000</speed>
<extensions>
<speed>0.1</speed>
<temp>0.00</temp>
<bpm>0</bpm>
<rpm>0.00</rpm>
</extensions>
</trkpt>
<trkpt lat="64.147811890" lon="-21.935831070">
<ele>5.148071</ele>
<time>2012-07-18T10:11:45Z</time>
<speed>0.010000</speed>
<extensions>
<speed>0.0</speed>
<temp>0.00</temp>
<bpm>0</bpm>
<rpm>0.00</rpm>
</extensions>
</trkpt>
<trkpt lat="64.147811890" lon="-21.935831070">
<ele>5.143188</ele>
<time>2012-07-18T10:11:50Z</time>
<extensions>
<speed>0.0</speed>
<temp>0.00</temp>
<bpm>0</bpm>
<rpm>0.00</rpm>
</extensions>
</trkpt>
<trkpt lat="64.147811890" lon="-21.935832977">
<ele>5.152832</ele>
<time>2012-07-18T10:11:55Z</time>
<extensions>
<speed>0.0</speed>
<temp>0.00</temp>
<bpm>0</bpm>
<rpm>0.00</rpm>
</extensions>
</trkpt>
<trkpt lat="64.147811890" lon="-21.935832977">
<ele>5.145996</ele>
<time>2012-07-18T10:12:00Z</time>
<extensions>
<speed>0.0</speed>
<temp>0.00</temp>
<bpm>0</bpm>
<rpm>0.00</rpm>
</extensions>
</trkpt>
<trkpt lat="64.147811890" lon="-21.935832977">
<ele>5.140869</ele>
<time>2012-07-18T10:12:05Z</time>
<speed>0.010000</speed>
<extensions>
<speed>0.0</speed>
<temp>0.00</temp>
<bpm>0</bpm>
<rpm>0.00</rpm>
</extensions>
</trkpt>
<trkpt lat="64.147811890" lon="-21.935834885">
<ele>5.137085</ele>
<time>2012-07-18T10:12:10Z</time>
<extensions>
<speed>0.0</speed>
<temp>0.00</temp>
<bpm>0</bpm>
<rpm>0.00</rpm>
</extensions>
</trkpt>
<trkpt lat="64.147811890" lon="-21.935834885">
<ele>5.131470</ele>
<time>2012-07-18T10:12:15Z</time>
<speed>0.640000</speed>
<extensions>
<speed>0.6</speed>
<temp>0.00</temp>
<bpm>0</bpm>
<rpm>0.00</rpm>
</extensions>
</trkpt>
<trkpt lat="64.147811890" lon="-21.935892105">
<ele>5.277100</ele>
<time>2012-07-18T10:12:20Z</time>
<speed>0.020000</speed>
<extensions>
<speed>0.0</speed>
<temp>0.00</temp>
<bpm>0</bpm>
<rpm>0.00</rpm>
</extensions>
</trkpt>
<trkpt lat="64.147811890" lon="-21.935890198">
<ele>5.247559</ele>
<time>2012-07-18T10:12:25Z</time>
<speed>0.010000</speed>
<extensions>
<speed>0.0</speed>
<temp>0.00</temp>
<bpm>0</bpm>
<rpm>0.00</rpm>
</extensions>
</trkpt>
<trkpt lat="64.147811890" lon="-21.935899734">
<ele>5.179565</ele>
<time>2012-07-18T10:12:30Z</time>
<speed>0.340000</speed>
<extensions>
<speed>0.3</speed>
<temp>0.00</temp>
<bpm>0</bpm>
<rpm>0.00</rpm>
</extensions>
</trkpt>
<trkpt lat="64.147789001" lon="-21.935924530">
<ele>4.839844</ele>
<time>2012-07-18T10:12:35Z</time>
<speed>0.870000</speed>
<extensions>
<speed>0.9</speed>
<temp>0.00</temp>
<bpm>0</bpm>
<rpm>0.00</rpm>
</extensions>
</trkpt>
<trkpt lat="64.147727966" lon="-21.935953140">
<ele>4.601074</ele>
<time>2012-07-18T10:12:40Z</time>
<speed>1.770000</speed>
<extensions>
<speed>1.8</speed>
<temp>0.00</temp>
<bpm>0</bpm>
<rpm>0.00</rpm>
</extensions>
</trkpt>
<trkpt lat="64.147689819" lon="-21.936010361">
<ele>4.258667</ele>
<time>2012-07-18T10:12:45Z</time>
<extensions>
<speed>0.0</speed>
<temp>0.00</temp>
<bpm>0</bpm>
<rpm>0.00</rpm>
</extensions>
</trkpt>
<trkpt lat="64.147689819" lon="-21.936016083">
<ele>3.977600</ele>
<time>2012-07-18T10:12:50Z</time>
<speed>0.010000</speed>
<extensions>
<speed>0.0</speed>
<temp>0.00</temp>
<bpm>0</bpm>
<rpm>0.00</rpm>
</extensions>
</trkpt>
<trkpt lat="64.147682190" lon="-21.935972214">
<ele>3.808228</ele>
<time>2012-07-18T10:12:55Z</time>
<speed>1.380000</speed>
<extensions>
<speed>1.4</speed>
<temp>0.00</temp>
<bpm>0</bpm>
<rpm>0.00</rpm>
</extensions>
</trkpt>
<trkpt lat="64.147750854" lon="-21.935886383">
<ele>3.970093</ele>
<time>2012-07-18T10:13:00Z</time>
<speed>1.820000</speed>
<extensions>
<speed>1.8</speed>
<temp>0.00</temp>
<bpm>0</bpm>
<rpm>0.00</rpm>
</extensions>
</trkpt>
<trkpt lat="64.147827148" lon="-21.935853958">
<ele>3.900452</ele>
<time>2012-07-18T10:13:05Z</time>
<speed>2.540000</speed>
<extensions>
<speed>2.5</speed>
<temp>0.00</temp>
<bpm>0</bpm>
<rpm>0.00</rpm>
</extensions>
</trkpt>
<trkpt lat="64.147888184" lon="-21.936069489">
<ele>1.910034</ele>
<time>2012-07-18T10:13:10Z</time>
<speed>2.670000</speed>
<extensions>
<speed>2.7</speed>
<temp>0.00</temp>
<bpm>0</bpm>
<rpm>0.00</rpm>
</extensions>
</trkpt>
<trkpt lat="64.147949219" lon="-21.936279297">
<ele>1.092865</ele>
<time>2012-07-18T10:13:15Z</time>
<speed>2.500000</speed>
<extensions>
<speed>2.5</speed>
<temp>0.00</temp>
<bpm>0</bpm>
<rpm>0.00</rpm>
</extensions>
</trkpt>
<trkpt lat="64.147956848" lon="-21.936521530">
<ele>2.782227</ele>
<time>2012-07-18T10:13:20Z</time>
<speed>1.340000</speed>
<extensions>
<speed>1.3</speed>
<temp>0.00</temp>
<bpm>0</bpm>
<rpm>0.00</rpm>
</extensions>
</trkpt>
<trkpt lat="64.147949219" lon="-21.936660767">
<ele>3.802307</ele>
<time>2012-07-18T10:13:25Z</time>
<speed>1.440000</speed>
<extensions>
<speed>1.4</speed>
<temp>0.00</temp>
<bpm>0</bpm>
<rpm>0.00</rpm>
</extensions>
</trkpt>
<trkpt lat="64.147994995" lon="-21.936613083">
<ele>5.402832</ele>
<time>2012-07-18T10:13:30Z</time>
<speed>1.800000</speed>
<extensions>
<speed>1.8</speed>
<temp>0.00</temp>
<bpm>0</bpm>
<rpm>0.00</rpm>
</extensions>
</trkpt>
<trkpt lat="64.148056030" lon="-21.936750412">
<ele>5.586792</ele>
<time>2012-07-18T10:13:35Z</time>
<speed>1.280000</speed>
<extensions>
<speed>1.3</speed>
<temp>0.00</temp>
<bpm>0</bpm>
<rpm>0.00</rpm>
</extensions>
</trkpt>
<trkpt lat="64.148048401" lon="-21.936725616">
<ele>4.876709</ele>
<time>2012-07-18T10:13:40Z</time>
<speed>0.100000</speed>
<extensions>
<speed>0.1</speed>
<temp>0.00</temp>
<bpm>0</bpm>
<rpm>0.00</rpm>
</extensions>
</trkpt>
<trkpt lat="64.148056030" lon="-21.936729431">
<ele>5.121460</ele>
<time>2012-07-18T10:13:45Z</time>
<extensions>
<speed>0.0</speed>
<temp>0.00</temp>
<bpm>0</bpm>
<rpm>0.00</rpm>
</extensions>
</trkpt>
<trkpt lat="64.148056030" lon="-21.936731339">
<ele>5.063965</ele>
<time>2012-07-18T10:13:50Z</time>
<speed>0.020000</speed>
<extensions>
<speed>0.0</speed>
<temp>0.00</temp>
<bpm>0</bpm>
<rpm>0.00</rpm>
</extensions>
</trkpt>
<trkpt lat="64.148078918" lon="-21.936782837">
<ele>4.592163</ele>
<time>2012-07-18T10:13:55Z</time>
<speed>1.260000</speed>
<extensions>
<speed>1.3</speed>
<temp>0.00</temp>
<bpm>0</bpm>
<rpm>0.00</rpm>
</extensions>
</trkpt>
<trkpt lat="64.148117065" lon="-21.936977386">
<ele>2.629272</ele>
<time>2012-07-18T10:14:00Z</time>
<speed>2.150000</speed>
<extensions>
<speed>2.1</speed>
<temp>0.00</temp>
<bpm>0</bpm>
<rpm>0.00</rpm>
</extensions>
</trkpt>
<trkpt lat="64.148178101" lon="-21.937223434">
<ele>1.101990</ele>
<time>2012-07-18T10:14:05Z</time>
<speed>2.740000</speed>
<extensions>
<speed>2.7</speed>
<temp>0.00</temp>
<bpm>0</bpm>
<rpm>0.00</rpm>
</extensions>
</trkpt>
<trkpt lat="64.148246765" lon="-21.937534332">
<ele>5.066650</ele>
<time>2012-07-18T10:14:10Z</time>
<speed>2.940000</speed>
<extensions>
<speed>2.9</speed>
<temp>0.00</temp>
<bpm>0</bpm>
<rpm>0.00</rpm>
</extensions>
</trkpt>
<trkpt lat="64.148269653" lon="-21.937801361">
<ele>4.263306</ele>
<time>2012-07-18T10:14:15Z</time>
<speed>2.310000</speed>
<extensions>
<speed>2.3</speed>
<temp>0.00</temp>
<bpm>0</bpm>
<rpm>0.00</rpm>
</extensions>
</trkpt>
<trkpt lat="64.148246765" lon="-21.938007355">
<ele>4.446411</ele>
<time>2012-07-18T10:14:20Z</time>
<speed>1.920000</speed>
<extensions>
<speed>1.9</speed>
<temp>0.00</temp>
<bpm>0</bpm>
<rpm>0.00</rpm>
</extensions>
</trkpt>
<trkpt lat="64.148223877" lon="-21.938053131">
<ele>3.670471</ele>
<time>2012-07-18T10:14:25Z</time>
<speed>0.820000</speed>
<extensions>
<speed>0.8</speed>
<temp>0.00</temp>
<bpm>0</bpm>
<rpm>0.00</rpm>
</extensions>
</trkpt>
<trkpt lat="64.148216248" lon="-21.938177109">
<ele>3.349854</ele>
<time>2012-07-18T10:14:30Z</time>
<speed>1.850000</speed>
<extensions>
<speed>1.8</speed>
<temp>0.00</temp>
<bpm>0</bpm>
<rpm>0.00</rpm>
</extensions>
</trkpt>
<trkpt lat="64.148262024" lon="-21.938274384">
<ele>3.235779</ele>
<time>2012-07-18T10:14:35Z</time>
<speed>1.860000</speed>
<extensions>
<speed>1.9</speed>
<temp>0.00</temp>
<bpm>0</bpm>
<rpm>0.00</rpm>
</extensions>
</trkpt>
<trkpt lat="64.148292542" lon="-21.938383102">
<ele>3.305969</ele>
<time>2012-07-18T10:14:40Z</time>
<speed>0.450000</speed>
<extensions>
<speed>0.5</speed>
<temp>0.00</temp>
<bpm>0</bpm>
<rpm>0.00</rpm>
</extensions>
</trkpt>
<trkpt lat="64.148300171" lon="-21.938386917">
<ele>3.578125</ele>
<time>2012-07-18T10:14:45Z</time>
<speed>0.080000</speed>
<extensions>
<speed>0.1</speed>
<temp>0.00</temp>
<bpm>0</bpm>
<rpm>0.00</rpm>
</extensions>
</trkpt>
<trkpt lat="64.148315430" lon="-21.938392639">
<ele>3.722839</ele>
<time>2012-07-18T10:14:50Z</time>
<speed>0.020000</speed>
<extensions>
<speed>0.0</speed>
<temp>0.00</temp>
<bpm>0</bpm>
<rpm>0.00</rpm>
</extensions>
</trkpt>
<trkpt lat="64.148315430" lon="-21.938390732">
<ele>4.025513</ele>
<time>2012-07-18T10:14:55Z</time>
<speed>0.040000</speed>
<extensions>
<speed>0.0</speed>
<temp>0.00</temp>
<bpm>0</bpm>
<rpm>0.00</rpm>
</extensions>
</trkpt>
<trkpt lat="64.148315430" lon="-21.938388824">
<ele>4.372559</ele>
<time>2012-07-18T10:15:00Z</time>
<speed>0.130000</speed>
<extensions>
<speed>0.1</speed>
<temp>0.00</temp>
<bpm>0</bpm>
<rpm>0.00</rpm>
</extensions>
</trkpt>
<trkpt lat="64.148323059" lon="-21.938388824">
<ele>4.805908</ele>
<time>2012-07-18T10:15:05Z</time>
<speed>0.080000</speed>
<extensions>
<speed>0.1</speed>
<temp>0.00</temp>
<bpm>0</bpm>
<rpm>0.00</rpm>
</extensions>
</trkpt>
<trkpt lat="64.148323059" lon="-21.938386917">
<ele>5.298950</ele>
<time>2012-07-18T10:15:10Z</time>
<speed>0.060000</speed>
<extensions>
<speed>0.1</speed>
<temp>0.00</temp>
<bpm>0</bpm>
<rpm>0.00</rpm>
</extensions>
</trkpt>
<trkpt lat="64.148323059" lon="-21.938383102">
<ele>5.843628</ele>
<time>2012-07-18T10:15:15Z</time>
<speed>0.070000</speed>
<extensions>
<speed>0.1</speed>
<temp>0.00</temp>
<bpm>0</bpm>
<rpm>0.00</rpm>
</extensions>
</trkpt>
<trkpt lat="64.148330688" lon="-21.938377380">
<ele>6.554565</ele>
<time>2012-07-18T10:15:20Z</time>
<speed>0.060000</speed>
<extensions>
<speed>0.1</speed>
<temp>0.00</temp>
<bpm>0</bpm>
<rpm>0.00</rpm>
</extensions>
</trkpt>
<trkpt lat="64.148323059" lon="-21.938375473">
<ele>7.498413</ele>
<time>2012-07-18T10:15:25Z</time>
<speed>0.100000</speed>
<extensions>
<speed>0.1</speed>
<temp>0.00</temp>
<bpm>0</bpm>
<rpm>0.00</rpm>
</extensions>
</trkpt>
<trkpt lat="64.148323059" lon="-21.938350677">
<ele>9.466797</ele>
<time>2012-07-18T10:15:30Z</time>
<speed>0.570000</speed>
<extensions>
<speed>0.6</speed>
<temp>0.00</temp>
<bpm>0</bpm>
<rpm>0.00</rpm>
</extensions>
</trkpt>
<trkpt lat="64.148361206" lon="-21.938209534">
<ele>16.299316</ele>
<time>2012-07-18T10:15:35Z</time>
<speed>0.360000</speed>
<extensions>
<speed>0.4</speed>
<temp>0.00</temp>
<bpm>0</bpm>
<rpm>0.00</rpm>
</extensions>
</trkpt>
<trkpt lat="64.148292542" lon="-21.937917709">
<ele>16.498047</ele>
<time>2012-07-18T10:15:40Z</time>
<speed>1.980000</speed>
<extensions>
<speed>2.0</speed>
<temp>0.00</temp>
<bpm>0</bpm>
<rpm>0.00</rpm>
</extensions>
</trkpt>
<trkpt lat="64.148178101" lon="-21.937917709">
<ele>14.910889</ele>
<time>2012-07-18T10:15:45Z</time>
<speed>1.790000</speed>
<extensions>
<speed>1.8</speed>
<temp>0.00</temp>
<bpm>0</bpm>
<rpm>0.00</rpm>
</extensions>
</trkpt>
<trkpt lat="64.148101807" lon="-21.937957764">
<ele>13.207520</ele>
<time>2012-07-18T10:15:50Z</time>
<speed>0.790000</speed>
<extensions>
<speed>0.8</speed>
<temp>0.00</temp>
<bpm>0</bpm>
<rpm>0.00</rpm>
</extensions>
</trkpt>
<trkpt lat="64.148071289" lon="-21.938009262">
<ele>12.850586</ele>
<time>2012-07-18T10:15:55Z</time>
<speed>0.040000</speed>
<extensions>
<speed>0.0</speed>
<temp>0.00</temp>
<bpm>0</bpm>
<rpm>0.00</rpm>
</extensions>
</trkpt>
<trkpt lat="64.148086548" lon="-21.938028336">
<ele>13.011230</ele>
<time>2012-07-18T10:16:00Z</time>
<speed>0.010000</speed>
<extensions>
<speed>0.0</speed>
<temp>0.00</temp>
<bpm>0</bpm>
<rpm>0.00</rpm>
</extensions>
</trkpt>
<trkpt lat="64.148086548" lon="-21.938028336">
<ele>12.969971</ele>
<time>2012-07-18T10:16:05Z</time>
<extensions>
<speed>0.0</speed>
<temp>0.00</temp>
<bpm>0</bpm>
<rpm>0.00</rpm>
</extensions>
</trkpt>
<trkpt lat="64.148086548" lon="-21.938028336">
<ele>12.931396</ele>
<time>2012-07-18T10:16:10Z</time>
<speed>0.020000</speed>
<extensions>
<speed>0.0</speed>
<temp>0.00</temp>
<bpm>0</bpm>
<rpm>0.00</rpm>
</extensions>
</trkpt>
<trkpt lat="64.148086548" lon="-21.938028336">
<ele>12.894043</ele>
<time>2012-07-18T10:16:15Z</time>
<speed>0.300000</speed>
<extensions>
<speed>0.3</speed>
<temp>0.00</temp>
<bpm>0</bpm>
<rpm>0.00</rpm>
</extensions>
</trkpt>
<trkpt lat="64.148071289" lon="-21.938077927">
<ele>11.134521</ele>
<time>2012-07-18T10:16:20Z</time>
<speed>0.040000</speed>
<extensions>
<speed>0.0</speed>
<temp>0.00</temp>
<bpm>0</bpm>
<rpm>0.00</rpm>
</extensions>
</trkpt>
<trkpt lat="64.148071289" lon="-21.938079834">
<ele>11.050049</ele>
<time>2012-07-18T10:16:25Z</time>
<speed>0.010000</speed>
<extensions>
<speed>0.0</speed>
<temp>0.00</temp>
<bpm>0</bpm>
<rpm>0.00</rpm>
</extensions>
</trkpt>
<trkpt lat="64.148071289" lon="-21.938079834">
<ele>11.020508</ele>
<time>2012-07-18T10:16:30Z</time>
<extensions>
<speed>0.0</speed>
<temp>0.00</temp>
<bpm>0</bpm>
<rpm>0.00</rpm>
</extensions>
</trkpt>
<trkpt lat="64.148071289" lon="-21.938081741">
<ele>10.992920</ele>
<time>2012-07-18T10:16:35Z</time>
<extensions>
<speed>0.0</speed>
<temp>0.00</temp>
<bpm>0</bpm>
<rpm>0.00</rpm>
</extensions>
</trkpt>
<trkpt lat="64.148071289" lon="-21.938081741">
<ele>10.966064</ele>
<time>2012-07-18T10:16:40Z</time>
<speed>0.010000</speed>
<extensions>
<speed>0.0</speed>
<temp>0.00</temp>
<bpm>0</bpm>
<rpm>0.00</rpm>
</extensions>
</trkpt>
<trkpt lat="64.148071289" lon="-21.938081741">
<ele>10.933838</ele>
<time>2012-07-18T10:16:45Z</time>
<extensions>
<speed>0.0</speed>
<temp>0.00</temp>
<bpm>0</bpm>
<rpm>0.00</rpm>
</extensions>
</trkpt>
<trkpt lat="64.148071289" lon="-21.938083649">
<ele>10.890137</ele>
<time>2012-07-18T10:16:50Z</time>
<speed>0.010000</speed>
<extensions>
<speed>0.0</speed>
<temp>0.00</temp>
<bpm>0</bpm>
<rpm>0.00</rpm>
</extensions>
</trkpt>
<trkpt lat="64.148071289" lon="-21.938083649">
<ele>10.870605</ele>
<time>2012-07-18T10:16:55Z</time>
<extensions>
<speed>0.0</speed>
<temp>0.00</temp>
<bpm>0</bpm>
<rpm>0.00</rpm>
</extensions>
</trkpt>
<trkpt lat="64.148071289" lon="-21.938083649">
<ele>10.855957</ele>
<time>2012-07-18T10:17:00Z</time>
<speed>0.090000</speed>
<extensions>
<speed>0.1</speed>
<temp>0.00</temp>
<bpm>0</bpm>
<rpm>0.00</rpm>
</extensions>
</trkpt>
<trkpt lat="64.148048401" lon="-21.938251495">
<ele>9.339355</ele>
<time>2012-07-18T10:17:05Z</time>
<speed>1.590000</speed>
<extensions>
<speed>1.6</speed>
<temp>0.00</temp>
<bpm>0</bpm>
<rpm>0.00</rpm>
</extensions>
</trkpt>
<trkpt lat="64.147987366" lon="-21.938320160">
<ele>10.158447</ele>
<time>2012-07-18T10:17:10Z</time>
<speed>1.490000</speed>
<extensions>
<speed>1.5</speed>
<temp>0.00</temp>
<bpm>0</bpm>
<rpm>0.00</rpm>
</extensions>
</trkpt>
<trkpt lat="64.147895813" lon="-21.938354492">
<ele>11.125977</ele>
<time>2012-07-18T10:17:15Z</time>
<speed>2.720000</speed>
<extensions>
<speed>2.7</speed>
<temp>0.00</temp>
<bpm>0</bpm>
<rpm>0.00</rpm>
</extensions>
</trkpt>
<trkpt lat="64.147766113" lon="-21.938430786">
<ele>11.330322</ele>
<time>2012-07-18T10:17:20Z</time>
<speed>2.130000</speed>
<extensions>
<speed>2.1</speed>
<temp>0.00</temp>
<bpm>0</bpm>
<rpm>0.00</rpm>
</extensions>
</trkpt>
<trkpt lat="64.147682190" lon="-21.938537598">
<ele>9.823242</ele>
<time>2012-07-18T10:17:25Z</time>
<speed>0.960000</speed>
<extensions>
<speed>1.0</speed>
<temp>0.00</temp>
<bpm>0</bpm>
<rpm>0.00</rpm>
</extensions>
</trkpt>
<trkpt lat="64.147674561" lon="-21.938581467">
<ele>8.401855</ele>
<time>2012-07-18T10:17:30Z</time>
<speed>0.250000</speed>
<extensions>
<speed>0.2</speed>
<temp>0.00</temp>
<bpm>0</bpm>
<rpm>0.00</rpm>
</extensions>
</trkpt>
<trkpt lat="64.147666931" lon="-21.938634872">
<ele>8.589844</ele>
<time>2012-07-18T10:17:35Z</time>
<speed>0.020000</speed>
<extensions>
<speed>0.0</speed>
<temp>0.00</temp>
<bpm>0</bpm>
<rpm>0.00</rpm>
</extensions>
</trkpt>
<trkpt lat="64.147659302" lon="-21.938653946">
<ele>8.796143</ele>
<time>2012-07-18T10:17:40Z</time>
<speed>0.050000</speed>
<extensions>
<speed>0.1</speed>
<temp>0.00</temp>
<bpm>0</bpm>
<rpm>0.00</rpm>
</extensions>
</trkpt>
<trkpt lat="64.147651672" lon="-21.938663483">
<ele>8.843262</ele>
<time>2012-07-18T10:17:45Z</time>
<speed>0.010000</speed>
<extensions>
<speed>0.0</speed>
<temp>0.00</temp>
<bpm>0</bpm>
<rpm>0.00</rpm>
</extensions>
</trkpt>
<trkpt lat="64.147651672" lon="-21.938665390">
<ele>8.742188</ele>
<time>2012-07-18T10:17:50Z</time>
<speed>0.800000</speed>
<extensions>
<speed>0.8</speed>
<temp>0.00</temp>
<bpm>0</bpm>
<rpm>0.00</rpm>
</extensions>
</trkpt>
<trkpt lat="64.147590637" lon="-21.938632965">
<ele>9.286621</ele>
<time>2012-07-18T10:17:55Z</time>
<speed>1.370000</speed>
<extensions>
<speed>1.4</speed>
<temp>0.00</temp>
<bpm>0</bpm>
<rpm>0.00</rpm>
</extensions>
</trkpt>
<trkpt lat="64.147575378" lon="-21.938627243">
<ele>10.662354</ele>
<time>2012-07-18T10:18:00Z</time>
<speed>0.160000</speed>
<extensions>
<speed>0.2</speed>
<temp>0.00</temp>
<bpm>0</bpm>
<rpm>0.00</rpm>
</extensions>
</trkpt>
<trkpt lat="64.147537231" lon="-21.938604355">
<ele>12.264648</ele>
<time>2012-07-18T10:18:05Z</time>
<speed>1.720000</speed>
<extensions>
<speed>1.7</speed>
<temp>0.00</temp>
<bpm>0</bpm>
<rpm>0.00</rpm>
</extensions>
</trkpt>
<trkpt lat="64.147499084" lon="-21.938352585">
<ele>14.780029</ele>
<time>2012-07-18T10:18:10Z</time>
<speed>2.790000</speed>
<extensions>
<speed>2.8</speed>
<temp>0.00</temp>
<bpm>0</bpm>
<rpm>0.00</rpm>
</extensions>
</trkpt>
<trkpt lat="64.147453308" lon="-21.938062668">
<ele>14.371582</ele>
<time>2012-07-18T10:18:15Z</time>
<speed>2.520000</speed>
<extensions>
<speed>2.5</speed>
<temp>0.00</temp>
<bpm>0</bpm>
<rpm>0.00</rpm>
</extensions>
</trkpt>
<trkpt lat="64.147407532" lon="-21.937837601">
<ele>14.881104</ele>
<time>2012-07-18T10:18:20Z</time>
<speed>1.460000</speed>
<extensions>
<speed>1.5</speed>
<temp>0.00</temp>
<bpm>0</bpm>
<rpm>0.00</rpm>
</extensions>
</trkpt>
<trkpt lat="64.147430420" lon="-21.937486649">
<ele>14.838867</ele>
<time>2012-07-18T10:18:25Z</time>
<speed>2.630000</speed>
<extensions>
<speed>2.6</speed>
<temp>0.00</temp>
<bpm>0</bpm>
<rpm>0.00</rpm>
</extensions>
</trkpt>
<trkpt lat="64.147377014" lon="-21.937234879">
<ele>16.624512</ele>
<time>2012-07-18T10:18:30Z</time>
<speed>2.260000</speed>
<extensions>
<speed>2.3</speed>
<temp>0.00</temp>
<bpm>0</bpm>
<rpm>0.00</rpm>
</extensions>
</trkpt>
<trkpt lat="64.147369385" lon="-21.936994553">
<ele>16.233398</ele>
<time>2012-07-18T10:18:35Z</time>
<speed>1.700000</speed>
<extensions>
<speed>1.7</speed>
<temp>0.00</temp>
<bpm>0</bpm>
<rpm>0.00</rpm>
</extensions>
</trkpt>
<trkpt lat="64.147315979" lon="-21.936903000">
<ele>19.334473</ele>
<time>2012-07-18T10:18:40Z</time>
<speed>1.580000</speed>
<extensions>
<speed>1.6</speed>
<temp>0.00</temp>
<bpm>0</bpm>
<rpm>0.00</rpm>
</extensions>
</trkpt>
<trkpt lat="64.147270203" lon="-21.936813354">
<ele>22.026855</ele>
<time>2012-07-18T10:18:45Z</time>
<speed>1.470000</speed>
<extensions>
<speed>1.5</speed>
<temp>0.00</temp>
<bpm>0</bpm>
<rpm>0.00</rpm>
</extensions>
</trkpt>
<trkpt lat="64.147232056" lon="-21.936752319">
<ele>19.472168</ele>
<time>2012-07-18T10:18:50Z</time>
<speed>0.940000</speed>
<extensions>
<speed>0.9</speed>
<temp>0.00</temp>
<bpm>0</bpm>
<rpm>0.00</rpm>
</extensions>
</trkpt>
<trkpt lat="64.147201538" lon="-21.936719894">
<ele>18.144531</ele>
<time>2012-07-18T10:18:55Z</time>
<speed>0.140000</speed>
<extensions>
<speed>0.1</speed>
<temp>0.00</temp>
<bpm>0</bpm>
<rpm>0.00</rpm>
</extensions>
</trkpt>
<trkpt lat="64.147201538" lon="-21.936723709">
<ele>17.988770</ele>
<time>2012-07-18T10:19:00Z</time>
<speed>0.340000</speed>
<extensions>
<speed>0.3</speed>
<temp>0.00</temp>
<bpm>0</bpm>
<rpm>0.00</rpm>
</extensions>
</trkpt>
<trkpt lat="64.147163391" lon="-21.936830521">
<ele>16.545410</ele>
<time>2012-07-18T10:19:05Z</time>
<speed>0.010000</speed>
<extensions>
<speed>0.0</speed>
<temp>0.00</temp>
<bpm>0</bpm>
<rpm>0.00</rpm>
</extensions>
</trkpt>
<trkpt lat="64.147163391" lon="-21.936834335">
<ele>16.567871</ele>
<time>2012-07-18T10:19:10Z</time>
<speed>0.010000</speed>
<extensions>
<speed>0.0</speed>
<temp>0.00</temp>
<bpm>0</bpm>
<rpm>0.00</rpm>
</extensions>
</trkpt>
<trkpt lat="64.147163391" lon="-21.936836243">
<ele>16.557129</ele>
<time>2012-07-18T10:19:15Z</time>
<extensions>
<speed>0.0</speed>
<temp>0.00</temp>
<bpm>0</bpm>
<rpm>0.00</rpm>
</extensions>
</trkpt>
<trkpt lat="64.147163391" lon="-21.936836243">
<ele>16.558105</ele>
<time>2012-07-18T10:19:20Z</time>
<speed>0.010000</speed>
<extensions>
<speed>0.0</speed>
<temp>0.00</temp>
<bpm>0</bpm>
<rpm>0.00</rpm>
</extensions>
</trkpt>
<trkpt lat="64.147163391" lon="-21.936838150">
<ele>16.560059</ele>
<time>2012-07-18T10:19:25Z</time>
<extensions>
<speed>0.0</speed>
<temp>0.00</temp>
<bpm>0</bpm>
<rpm>0.00</rpm>
</extensions>
</trkpt>
<trkpt lat="64.147163391" lon="-21.936838150">
<ele>16.527832</ele>
<time>2012-07-18T10:19:30Z</time>
<speed>0.190000</speed>
<extensions>
<speed>0.2</speed>
<temp>0.00</temp>
<bpm>0</bpm>
<rpm>0.00</rpm>
</extensions>
</trkpt>
<trkpt lat="64.147125244" lon="-21.936729431">
<ele>14.524902</ele>
<time>2012-07-18T10:19:35Z</time>
<speed>1.590000</speed>
<extensions>
<speed>1.6</speed>
<temp>0.00</temp>
<bpm>0</bpm>
<rpm>0.00</rpm>
</extensions>
</trkpt>
<trkpt lat="64.147079468" lon="-21.936536789">
<ele>13.250000</ele>
<time>2012-07-18T10:19:40Z</time>
<speed>1.950000</speed>
<extensions>
<speed>1.9</speed>
<temp>0.00</temp>
<bpm>0</bpm>
<rpm>0.00</rpm>
</extensions>
</trkpt>
<trkpt lat="64.147056580" lon="-21.936376572">
<ele>12.895508</ele>
<time>2012-07-18T10:19:45Z</time>
<speed>0.890000</speed>
<extensions>
<speed>0.9</speed>
<temp>0.00</temp>
<bpm>0</bpm>
<rpm>0.00</rpm>
</extensions>
</trkpt>
<trkpt lat="64.147056580" lon="-21.936265945">
<ele>13.468018</ele>
<time>2012-07-18T10:19:50Z</time>
<speed>0.930000</speed>
<extensions>
<speed>0.9</speed>
<temp>0.00</temp>
<bpm>0</bpm>
<rpm>0.00</rpm>
</extensions>
</trkpt>
<trkpt lat="64.147041321" lon="-21.936126709">
<ele>13.350098</ele>
<time>2012-07-18T10:19:55Z</time>
<speed>1.360000</speed>
<extensions>
<speed>1.4</speed>
<temp>0.00</temp>
<bpm>0</bpm>
<rpm>0.00</rpm>
</extensions>
</trkpt>
<trkpt lat="64.147018433" lon="-21.935974121">
<ele>13.648193</ele>
<time>2012-07-18T10:20:00Z</time>
<speed>1.470000</speed>
<extensions>
<speed>1.5</speed>
<temp>0.00</temp>
<bpm>0</bpm>
<rpm>0.00</rpm>
</extensions>
</trkpt>
<trkpt lat="64.146995544" lon="-21.935823441">
<ele>13.472656</ele>
<time>2012-07-18T10:20:05Z</time>
<speed>1.660000</speed>
<extensions>
<speed>1.7</speed>
<temp>0.00</temp>
<bpm>0</bpm>
<rpm>0.00</rpm>
</extensions>
</trkpt>
<trkpt lat="64.146972656" lon="-21.935661316">
<ele>14.128418</ele>
<time>2012-07-18T10:20:10Z</time>
<speed>1.590000</speed>
<extensions>
<speed>1.6</speed>
<temp>0.00</temp>
<bpm>0</bpm>
<rpm>0.00</rpm>
</extensions>
</trkpt>
<trkpt lat="64.146957397" lon="-21.935487747">
<ele>14.149902</ele>
<time>2012-07-18T10:20:15Z</time>
<speed>1.680000</speed>
<extensions>
<speed>1.7</speed>
<temp>0.00</temp>
<bpm>0</bpm>
<rpm>0.00</rpm>
</extensions>
</trkpt>
<trkpt lat="64.146919250" lon="-21.935317993">
<ele>14.978271</ele>
<time>2012-07-18T10:20:20Z</time>
<speed>1.630000</speed>
<extensions>
<speed>1.6</speed>
<temp>0.00</temp>
<bpm>0</bpm>
<rpm>0.00</rpm>
</extensions>
</trkpt>
<trkpt lat="64.146896362" lon="-21.935127258">
<ele>16.076660</ele>
<time>2012-07-18T10:20:25Z</time>
<speed>1.630000</speed>
<extensions>
<speed>1.6</speed>
<temp>0.00</temp>
<bpm>0</bpm>
<rpm>0.00</rpm>
</extensions>
</trkpt>
<trkpt lat="64.146881104" lon="-21.934982300">
<ele>17.440430</ele>
<time>2012-07-18T10:20:30Z</time>
<speed>1.140000</speed>
<extensions>
<speed>1.1</speed>
<temp>0.00</temp>
<bpm>0</bpm>
<rpm>0.00</rpm>
</extensions>
</trkpt>
<trkpt lat="64.146842957" lon="-21.934881210">
<ele>19.049805</ele>
<time>2012-07-18T10:20:35Z</time>
<speed>1.300000</speed>
<extensions>
<speed>1.3</speed>
<temp>0.00</temp>
<bpm>0</bpm>
<rpm>0.00</rpm>
</extensions>
</trkpt>
<trkpt lat="64.146827698" lon="-21.934724808">
<ele>20.810059</ele>
<time>2012-07-18T10:20:40Z</time>
<speed>1.530000</speed>
<extensions>
<speed>1.5</speed>
<temp>0.00</temp>
<bpm>0</bpm>
<rpm>0.00</rpm>
</extensions>
</trkpt>
<trkpt lat="64.146797180" lon="-21.934562683">
<ele>23.650391</ele>
<time>2012-07-18T10:20:45Z</time>
<speed>1.320000</speed>
<extensions>
<speed>1.3</speed>
<temp>0.00</temp>
<bpm>0</bpm>
<rpm>0.00</rpm>
</extensions>
</trkpt>
<trkpt lat="64.146743774" lon="-21.934507370">
<ele>26.120605</ele>
<time>2012-07-18T10:20:50Z</time>
<speed>0.570000</speed>
<extensions>
<speed>0.6</speed>
<temp>0.00</temp>
<bpm>0</bpm>
<rpm>0.00</rpm>
</extensions>
</trkpt>
<trkpt lat="64.146804810" lon="-21.934314728">
<ele>31.994629</ele>
<time>2012-07-18T10:20:55Z</time>
<speed>1.440000</speed>
<extensions>
<speed>1.4</speed>
<temp>0.00</temp>
<bpm>0</bpm>
<rpm>0.00</rpm>
</extensions>
</trkpt>
<trkpt lat="64.146797180" lon="-21.934122086">
<ele>35.296875</ele>
<time>2012-07-18T10:21:00Z</time>
<speed>1.660000</speed>
<extensions>
<speed>1.7</speed>
<temp>0.00</temp>
<bpm>0</bpm>
<rpm>0.00</rpm>
</extensions>
</trkpt>
<trkpt lat="64.146774292" lon="-21.933969498">
<ele>36.595703</ele>
<time>2012-07-18T10:21:05Z</time>
<speed>1.590000</speed>
<extensions>
<speed>1.6</speed>
<temp>0.00</temp>
<bpm>0</bpm>
<rpm>0.00</rpm>
</extensions>
</trkpt>
<trkpt lat="64.146766663" lon="-21.933841705">
<ele>36.936523</ele>
<time>2012-07-18T10:21:10Z</time>
<speed>1.230000</speed>
<extensions>
<speed>1.2</speed>
<temp>0.00</temp>
<bpm>0</bpm>
<rpm>0.00</rpm>
</extensions>
</trkpt>
<trkpt lat="64.146675110" lon="-21.933748245">
<ele>34.505859</ele>
<time>2012-07-18T10:21:15Z</time>
<speed>1.050000</speed>
<extensions>
<speed>1.0</speed>
<temp>0.00</temp>
<bpm>0</bpm>
<rpm>0.00</rpm>
</extensions>
</trkpt>
<trkpt lat="64.146629333" lon="-21.933727264">
<ele>34.031250</ele>
<time>2012-07-18T10:21:20Z</time>
<speed>0.180000</speed>
<extensions>
<speed>0.2</speed>
<temp>0.00</temp>
<bpm>0</bpm>
<rpm>0.00</rpm>
</extensions>
</trkpt>
<trkpt lat="64.146629333" lon="-21.933717728">
<ele>34.386719</ele>
<time>2012-07-18T10:21:25Z</time>
<speed>0.050000</speed>
<extensions>
<speed>0.1</speed>
<temp>0.00</temp>
<bpm>0</bpm>
<rpm>0.00</rpm>
</extensions>
</trkpt>
<trkpt lat="64.146629333" lon="-21.933723450">
<ele>34.651367</ele>
<time>2012-07-18T10:21:30Z</time>
<speed>0.030000</speed>
<extensions>
<speed>0.0</speed>
<temp>0.00</temp>
<bpm>0</bpm>
<rpm>0.00</rpm>
</extensions>
</trkpt>
<trkpt lat="64.146629333" lon="-21.933725357">
<ele>34.844727</ele>
<time>2012-07-18T10:21:35Z</time>
<speed>0.030000</speed>
<extensions>
<speed>0.0</speed>
<temp>0.00</temp>
<bpm>0</bpm>
<rpm>0.00</rpm>
</extensions>
</trkpt>
<trkpt lat="64.146629333" lon="-21.933727264">
<ele>34.859375</ele>
<time>2012-07-18T10:21:40Z</time>
<speed>0.030000</speed>
<extensions>
<speed>0.0</speed>
<temp>0.00</temp>
<bpm>0</bpm>
<rpm>0.00</rpm>
</extensions>
</trkpt>
<trkpt lat="64.146629333" lon="-21.933727264">
<ele>34.833008</ele>
<time>2012-07-18T10:21:45Z</time>
<extensions>
<speed>0.0</speed>
<temp>0.00</temp>
<bpm>0</bpm>
<rpm>0.00</rpm>
</extensions>
</trkpt>
<trkpt lat="64.146629333" lon="-21.933727264">
<ele>34.811523</ele>
<time>2012-07-18T10:21:50Z</time>
<speed>0.010000</speed>
<extensions>
<speed>0.0</speed>
<temp>0.00</temp>
<bpm>0</bpm>
<rpm>0.00</rpm>
</extensions>
</trkpt>
<trkpt lat="64.146629333" lon="-21.933727264">
<ele>34.769531</ele>
<time>2012-07-18T10:21:55Z</time>
<speed>0.020000</speed>
<extensions>
<speed>0.0</speed>
<temp>0.00</temp>
<bpm>0</bpm>
<rpm>0.00</rpm>
</extensions>
</trkpt>
<trkpt lat="64.146629333" lon="-21.933727264">
<ele>34.733398</ele>
<time>2012-07-18T10:22:00Z</time>
<extensions>
<speed>0.0</speed>
<temp>0.00</temp>
<bpm>0</bpm>
<rpm>0.00</rpm>
</extensions>
</trkpt>
<trkpt lat="64.146629333" lon="-21.933727264">
<ele>34.691406</ele>
<time>2012-07-18T10:22:05Z</time>
<speed>0.030000</speed>
<extensions>
<speed>0.0</speed>
<temp>0.00</temp>
<bpm>0</bpm>
<rpm>0.00</rpm>
</extensions>
</trkpt>
<trkpt lat="64.146636963" lon="-21.933687210">
<ele>34.746094</ele>
<time>2012-07-18T10:22:10Z</time>
<speed>1.200000</speed>
<extensions>
<speed>1.2</speed>
<temp>0.00</temp>
<bpm>0</bpm>
<rpm>0.00</rpm>
</extensions>
</trkpt>
<trkpt lat="64.146690369" lon="-21.933679581">
<ele>33.348633</ele>
<time>2012-07-18T10:22:15Z</time>
<speed>0.130000</speed>
<extensions>
<speed>0.1</speed>
<temp>0.00</temp>
<bpm>0</bpm>
<rpm>0.00</rpm>
</extensions>
</trkpt>
<trkpt lat="64.146690369" lon="-21.933681488">
<ele>33.218750</ele>
<time>2012-07-18T10:22:20Z</time>
<extensions>
<speed>0.0</speed>
<temp>0.00</temp>
<bpm>0</bpm>
<rpm>0.00</rpm>
</extensions>
</trkpt>
<trkpt lat="64.146690369" lon="-21.933683395">
<ele>33.297852</ele>
<time>2012-07-18T10:22:25Z</time>
<speed>0.080000</speed>
<extensions>
<speed>0.1</speed>
<temp>0.00</temp>
<bpm>0</bpm>
<rpm>0.00</rpm>
</extensions>
</trkpt>
<trkpt lat="64.146690369" lon="-21.933681488">
<ele>32.806641</ele>
<time>2012-07-18T10:22:30Z</time>
<speed>0.480000</speed>
<extensions>
<speed>0.5</speed>
<temp>0.00</temp>
<bpm>0</bpm>
<rpm>0.00</rpm>
</extensions>
</trkpt>
<trkpt lat="64.146736145" lon="-21.933759689">
<ele>29.797852</ele>
<time>2012-07-18T10:22:35Z</time>
<speed>2.400000</speed>
<extensions>
<speed>2.4</speed>
<temp>0.00</temp>
<bpm>0</bpm>
<rpm>0.00</rpm>
</extensions>
</trkpt>
<trkpt lat="64.146774292" lon="-21.933979034">
<ele>27.653320</ele>
<time>2012-07-18T10:22:40Z</time>
<speed>1.880000</speed>
<extensions>
<speed>1.9</speed>
<temp>0.00</temp>
<bpm>0</bpm>
<rpm>0.00</rpm>
</extensions>
</trkpt>
<trkpt lat="64.146781921" lon="-21.934083939">
<ele>27.484375</ele>
<time>2012-07-18T10:22:45Z</time>
<speed>0.170000</speed>
<extensions>
<speed>0.2</speed>
<temp>0.00</temp>
<bpm>0</bpm>
<rpm>0.00</rpm>
</extensions>
</trkpt>
<trkpt lat="64.146774292" lon="-21.934093475">
<ele>27.770020</ele>
<time>2012-07-18T10:22:50Z</time>
<speed>0.050000</speed>
<extensions>
<speed>0.1</speed>
<temp>0.00</temp>
<bpm>0</bpm>
<rpm>0.00</rpm>
</extensions>
</trkpt>
<trkpt lat="64.146774292" lon="-21.934091568">
<ele>28.206055</ele>
<time>2012-07-18T10:22:55Z</time>
<speed>0.060000</speed>
<extensions>
<speed>0.1</speed>
<temp>0.00</temp>
<bpm>0</bpm>
<rpm>0.00</rpm>
</extensions>
</trkpt>
<trkpt lat="64.146774292" lon="-21.934095383">
<ele>28.406250</ele>
<time>2012-07-18T10:23:00Z</time>
<speed>0.070000</speed>
<extensions>
<speed>0.1</speed>
<temp>0.00</temp>
<bpm>0</bpm>
<rpm>0.00</rpm>
</extensions>
</trkpt>
<trkpt lat="64.146774292" lon="-21.934095383">
<ele>28.426270</ele>
<time>2012-07-18T10:23:05Z</time>
<speed>0.190000</speed>
<extensions>
<speed>0.2</speed>
<temp>0.00</temp>
<bpm>0</bpm>
<rpm>0.00</rpm>
</extensions>
</trkpt>
<trkpt lat="64.146766663" lon="-21.934104919">
<ele>28.407715</ele>
<time>2012-07-18T10:23:10Z</time>
<speed>0.040000</speed>
<extensions>
<speed>0.0</speed>
<temp>0.00</temp>
<bpm>0</bpm>
<rpm>0.00</rpm>
</extensions>
</trkpt>
<trkpt lat="64.146759033" lon="-21.934101105">
<ele>28.417969</ele>
<time>2012-07-18T10:23:15Z</time>
<speed>0.050000</speed>
<extensions>
<speed>0.1</speed>
<temp>0.00</temp>
<bpm>0</bpm>
<rpm>0.00</rpm>
</extensions>
</trkpt>
<trkpt lat="64.146759033" lon="-21.934097290">
<ele>28.445313</ele>
<time>2012-07-18T10:23:20Z</time>
<speed>0.130000</speed>
<extensions>
<speed>0.1</speed>
<temp>0.00</temp>
<bpm>0</bpm>
<rpm>0.00</rpm>
</extensions>
</trkpt>
<trkpt lat="64.146751404" lon="-21.934103012">
<ele>28.480957</ele>
<time>2012-07-18T10:23:25Z</time>
<speed>0.050000</speed>
<extensions>
<speed>0.1</speed>
<temp>0.00</temp>
<bpm>0</bpm>
<rpm>0.00</rpm>
</extensions>
</trkpt>
<trkpt lat="64.146751404" lon="-21.934101105">
<ele>28.544922</ele>
<time>2012-07-18T10:23:30Z</time>
<speed>0.040000</speed>
<extensions>
<speed>0.0</speed>
<temp>0.00</temp>
<bpm>0</bpm>
<rpm>0.00</rpm>
</extensions>
</trkpt>
<trkpt lat="64.146751404" lon="-21.934101105">
<ele>28.614746</ele>
<time>2012-07-18T10:23:35Z</time>
<speed>0.010000</speed>
<extensions>
<speed>0.0</speed>
<temp>0.00</temp>
<bpm>0</bpm>
<rpm>0.00</rpm>
</extensions>
</trkpt>
<trkpt lat="64.146751404" lon="-21.934101105">
<ele>28.699219</ele>
<time>2012-07-18T10:23:40Z</time>
<speed>0.030000</speed>
<extensions>
<speed>0.0</speed>
<temp>0.00</temp>
<bpm>0</bpm>
<rpm>0.00</rpm>
</extensions>
</trkpt>
<trkpt lat="64.146751404" lon="-21.934101105">
<ele>28.749023</ele>
<time>2012-07-18T10:23:45Z</time>
<extensions>
<speed>0.0</speed>
<temp>0.00</temp>
<bpm>0</bpm>
<rpm>0.00</rpm>
</extensions>
</trkpt>
<trkpt lat="64.146751404" lon="-21.934106827">
<ele>28.742676</ele>
<time>2012-07-18T10:23:50Z</time>
<speed>0.130000</speed>
<extensions>
<speed>0.1</speed>
<temp>0.00</temp>
<bpm>0</bpm>
<rpm>0.00</rpm>
</extensions>
</trkpt>
<trkpt lat="64.146759033" lon="-21.934099197">
<ele>28.638672</ele>
<time>2012-07-18T10:23:55Z</time>
<speed>0.100000</speed>
<extensions>
<speed>0.1</speed>
<temp>0.00</temp>
<bpm>0</bpm>
<rpm>0.00</rpm>
</extensions>
</trkpt>
<trkpt lat="64.146751404" lon="-21.934095383">
<ele>28.573242</ele>
<time>2012-07-18T10:24:00Z</time>
<speed>0.180000</speed>
<extensions>
<speed>0.2</speed>
<temp>0.00</temp>
<bpm>0</bpm>
<rpm>0.00</rpm>
</extensions>
</trkpt>
<trkpt lat="64.146728516" lon="-21.934110641">
<ele>28.604492</ele>
<time>2012-07-18T10:24:05Z</time>
<speed>0.470000</speed>
<extensions>
<speed>0.5</speed>
<temp>0.00</temp>
<bpm>0</bpm>
<rpm>0.00</rpm>
</extensions>
</trkpt>
<trkpt lat="64.146705627" lon="-21.934160233">
<ele>28.647949</ele>
<time>2012-07-18T10:24:10Z</time>
<speed>0.460000</speed>
<extensions>
<speed>0.5</speed>
<temp>0.00</temp>
<bpm>0</bpm>
<rpm>0.00</rpm>
</extensions>
</trkpt>
<trkpt lat="64.146690369" lon="-21.934190750">
<ele>28.756348</ele>
<time>2012-07-18T10:24:15Z</time>
<speed>0.460000</speed>
<extensions>
<speed>0.5</speed>
<temp>0.00</temp>
<bpm>0</bpm>
<rpm>0.00</rpm>
</extensions>
</trkpt>
<trkpt lat="64.146682739" lon="-21.934267044">
<ele>29.234375</ele>
<time>2012-07-18T10:24:20Z</time>
<speed>0.460000</speed>
<extensions>
<speed>0.5</speed>
<temp>0.00</temp>
<bpm>0</bpm>
<rpm>0.00</rpm>
</extensions>
</trkpt>
<trkpt lat="64.146675110" lon="-21.934270859">
<ele>29.373535</ele>
<time>2012-07-18T10:24:25Z</time>
<speed>0.450000</speed>
<extensions>
<speed>0.5</speed>
<temp>0.00</temp>
<bpm>0</bpm>
<rpm>0.00</rpm>
</extensions>
</trkpt>
<trkpt lat="64.146675110" lon="-21.934268951">
<ele>29.431641</ele>
<time>2012-07-18T10:24:30Z</time>
<speed>0.370000</speed>
<extensions>
<speed>0.4</speed>
<temp>0.00</temp>
<bpm>0</bpm>
<rpm>0.00</rpm>
</extensions>
</trkpt>
<trkpt lat="64.146675110" lon="-21.934278488">
<ele>29.611328</ele>
<time>2012-07-18T10:24:35Z</time>
<speed>0.320000</speed>
<extensions>
<speed>0.3</speed>
<temp>0.00</temp>
<bpm>0</bpm>
<rpm>0.00</rpm>
</extensions>
</trkpt>
<trkpt lat="64.146659851" lon="-21.934247971">
<ele>29.935547</ele>
<time>2012-07-18T10:24:40Z</time>
<speed>0.300000</speed>
<extensions>
<speed>0.3</speed>
<temp>0.00</temp>
<bpm>0</bpm>
<rpm>0.00</rpm>
</extensions>
</trkpt>
<trkpt lat="64.146652222" lon="-21.934263229">
<ele>30.122070</ele>
<time>2012-07-18T10:24:45Z</time>
<speed>0.290000</speed>
<extensions>
<speed>0.3</speed>
<temp>0.00</temp>
<bpm>0</bpm>
<rpm>0.00</rpm>
</extensions>
</trkpt>
<trkpt lat="64.146644592" lon="-21.934272766">
<ele>30.196289</ele>
<time>2012-07-18T10:24:50Z</time>
<speed>0.210000</speed>
<extensions>
<speed>0.2</speed>
<temp>0.00</temp>
<bpm>0</bpm>
<rpm>0.00</rpm>
</extensions>
</trkpt>
<trkpt lat="64.146636963" lon="-21.934278488">
<ele>30.273438</ele>
<time>2012-07-18T10:24:55Z</time>
<speed>0.060000</speed>
<extensions>
<speed>0.1</speed>
<temp>0.00</temp>
<bpm>0</bpm>
<rpm>0.00</rpm>
</extensions>
</trkpt>
<trkpt lat="64.146629333" lon="-21.934282303">
<ele>30.359863</ele>
<time>2012-07-18T10:25:00Z</time>
<speed>0.080000</speed>
<extensions>
<speed>0.1</speed>
<temp>0.00</temp>
<bpm>0</bpm>
<rpm>0.00</rpm>
</extensions>
</trkpt>
<trkpt lat="64.146629333" lon="-21.934282303">
<ele>30.447266</ele>
<time>2012-07-18T10:25:05Z</time>
<speed>0.060000</speed>
<extensions>
<speed>0.1</speed>
<temp>0.00</temp>
<bpm>0</bpm>
<rpm>0.00</rpm>
</extensions>
</trkpt>
<trkpt lat="64.146621704" lon="-21.934286118">
<ele>30.541504</ele>
<time>2012-07-18T10:25:10Z</time>
<speed>0.120000</speed>
<extensions>
<speed>0.1</speed>
<temp>0.00</temp>
<bpm>0</bpm>
<rpm>0.00</rpm>
</extensions>
</trkpt>
<trkpt lat="64.146621704" lon="-21.934289932">
<ele>30.638184</ele>
<time>2012-07-18T10:25:15Z</time>
<speed>0.060000</speed>
<extensions>
<speed>0.1</speed>
<temp>0.00</temp>
<bpm>0</bpm>
<rpm>0.00</rpm>
</extensions>
</trkpt>
<trkpt lat="64.146621704" lon="-21.934289932">
<ele>30.736816</ele>
<time>2012-07-18T10:25:20Z</time>
<speed>0.060000</speed>
<extensions>
<speed>0.1</speed>
<temp>0.00</temp>
<bpm>0</bpm>
<rpm>0.00</rpm>
</extensions>
</trkpt>
<trkpt lat="64.146614075" lon="-21.934286118">
<ele>30.837891</ele>
<time>2012-07-18T10:25:25Z</time>
<speed>0.060000</speed>
<extensions>
<speed>0.1</speed>
<temp>0.00</temp>
<bpm>0</bpm>
<rpm>0.00</rpm>
</extensions>
</trkpt>
<trkpt lat="64.146614075" lon="-21.934276581">
<ele>30.943359</ele>
<time>2012-07-18T10:25:30Z</time>
<speed>0.140000</speed>
<extensions>
<speed>0.1</speed>
<temp>0.00</temp>
<bpm>0</bpm>
<rpm>0.00</rpm>
</extensions>
</trkpt>
<trkpt lat="64.146614075" lon="-21.934259415">
<ele>31.048828</ele>
<time>2012-07-18T10:25:35Z</time>
<speed>0.200000</speed>
<extensions>
<speed>0.2</speed>
<temp>0.00</temp>
<bpm>0</bpm>
<rpm>0.00</rpm>
</extensions>
</trkpt>
<trkpt lat="64.146614075" lon="-21.934242249">
<ele>31.159180</ele>
<time>2012-07-18T10:25:40Z</time>
<speed>0.140000</speed>
<extensions>
<speed>0.1</speed>
<temp>0.00</temp>
<bpm>0</bpm>
<rpm>0.00</rpm>
</extensions>
</trkpt>
<trkpt lat="64.146614075" lon="-21.934226990">
<ele>31.272949</ele>
<time>2012-07-18T10:25:45Z</time>
<speed>0.100000</speed>
<extensions>
<speed>0.1</speed>
<temp>0.00</temp>
<bpm>0</bpm>
<rpm>0.00</rpm>
</extensions>
</trkpt>
<trkpt lat="64.146614075" lon="-21.934217453">
<ele>31.395508</ele>
<time>2012-07-18T10:25:50Z</time>
<speed>0.100000</speed>
<extensions>
<speed>0.1</speed>
<temp>0.00</temp>
<bpm>0</bpm>
<rpm>0.00</rpm>
</extensions>
</trkpt>
<trkpt lat="64.146621704" lon="-21.934207916">
<ele>31.513672</ele>
<time>2012-07-18T10:25:55Z</time>
<speed>0.210000</speed>
<extensions>
<speed>0.2</speed>
<temp>0.00</temp>
<bpm>0</bpm>
<rpm>0.00</rpm>
</extensions>
</trkpt>
<trkpt lat="64.146629333" lon="-21.934200287">
<ele>31.628906</ele>
<time>2012-07-18T10:26:00Z</time>
<speed>0.160000</speed>
<extensions>
<speed>0.2</speed>
<temp>0.00</temp>
<bpm>0</bpm>
<rpm>0.00</rpm>
</extensions>
</trkpt>
<trkpt lat="64.146629333" lon="-21.934202194">
<ele>31.753906</ele>
<time>2012-07-18T10:26:05Z</time>
<speed>0.100000</speed>
<extensions>
<speed>0.1</speed>
<temp>0.00</temp>
<bpm>0</bpm>
<rpm>0.00</rpm>
</extensions>
</trkpt>
<trkpt lat="64.146636963" lon="-21.934206009">
<ele>31.874023</ele>
<time>2012-07-18T10:26:10Z</time>
<speed>0.080000</speed>
<extensions>
<speed>0.1</speed>
<temp>0.00</temp>
<bpm>0</bpm>
<rpm>0.00</rpm>
</extensions>
</trkpt>
<trkpt lat="64.146720886" lon="-21.934215546">
<ele>33.032227</ele>
<time>2012-07-18T10:26:15Z</time>
<speed>0.560000</speed>
<extensions>
<speed>0.6</speed>
<temp>0.00</temp>
<bpm>0</bpm>
<rpm>0.00</rpm>
</extensions>
</trkpt>
<trkpt lat="64.146690369" lon="-21.934211731">
<ele>29.287598</ele>
<time>2012-07-18T10:26:20Z</time>
<speed>0.560000</speed>
<extensions>
<speed>0.6</speed>
<temp>0.00</temp>
<bpm>0</bpm>
<rpm>0.00</rpm>
</extensions>
</trkpt>
<trkpt lat="64.146667480" lon="-21.934215546">
<ele>30.560547</ele>
<time>2012-07-18T10:26:25Z</time>
<speed>0.100000</speed>
<extensions>
<speed>0.1</speed>
<temp>0.00</temp>
<bpm>0</bpm>
<rpm>0.00</rpm>
</extensions>
</trkpt>
<trkpt lat="64.146636963" lon="-21.934095383">
<ele>30.717773</ele>
<time>2012-07-18T10:26:30Z</time>
<speed>1.760000</speed>
<extensions>
<speed>1.8</speed>
<temp>0.00</temp>
<bpm>0</bpm>
<rpm>0.00</rpm>
</extensions>
</trkpt>
<trkpt lat="64.146583557" lon="-21.933879852">
<ele>34.730469</ele>
<time>2012-07-18T10:26:35Z</time>
<speed>1.670000</speed>
<extensions>
<speed>1.7</speed>
<temp>0.00</temp>
<bpm>0</bpm>
<rpm>0.00</rpm>
</extensions>
</trkpt>
<trkpt lat="64.146568298" lon="-21.933658600">
<ele>35.774414</ele>
<time>2012-07-18T10:26:40Z</time>
<speed>1.780000</speed>
<extensions>
<speed>1.8</speed>
<temp>0.00</temp>
<bpm>0</bpm>
<rpm>0.00</rpm>
</extensions>
</trkpt>
<trkpt lat="64.146530151" lon="-21.933572769">
<ele>35.637695</ele>
<time>2012-07-18T10:26:45Z</time>
<speed>1.020000</speed>
<extensions>
<speed>1.0</speed>
<temp>0.00</temp>
<bpm>0</bpm>
<rpm>0.00</rpm>
</extensions>
</trkpt>
<trkpt lat="64.146499634" lon="-21.933498383">
<ele>35.624023</ele>
<time>2012-07-18T10:26:50Z</time>
<speed>0.750000</speed>
<extensions>
<speed>0.8</speed>
<temp>0.00</temp>
<bpm>0</bpm>
<rpm>0.00</rpm>
</extensions>
</trkpt>
<trkpt lat="64.146484375" lon="-21.933401108">
<ele>35.815430</ele>
<time>2012-07-18T10:26:55Z</time>
<speed>1.040000</speed>
<extensions>
<speed>1.0</speed>
<temp>0.00</temp>
<bpm>0</bpm>
<rpm>0.00</rpm>
</extensions>
</trkpt>
<trkpt lat="64.146430969" lon="-21.933340073">
<ele>36.454102</ele>
<time>2012-07-18T10:27:00Z</time>
<speed>1.680000</speed>
<extensions>
<speed>1.7</speed>
<temp>0.00</temp>
<bpm>0</bpm>
<rpm>0.00</rpm>
</extensions>
</trkpt>
<trkpt lat="64.146392822" lon="-21.933195114">
<ele>37.096680</ele>
<time>2012-07-18T10:27:05Z</time>
<speed>1.530000</speed>
<extensions>
<speed>1.5</speed>
<temp>0.00</temp>
<bpm>0</bpm>
<rpm>0.00</rpm>
</extensions>
</trkpt>
<trkpt lat="64.146347046" lon="-21.933078766">
<ele>37.467773</ele>
<time>2012-07-18T10:27:10Z</time>
<speed>1.740000</speed>
<extensions>
<speed>1.7</speed>
<temp>0.00</temp>
<bpm>0</bpm>
<rpm>0.00</rpm>
</extensions>
</trkpt>
<trkpt lat="64.146308899" lon="-21.932945251">
<ele>38.413086</ele>
<time>2012-07-18T10:27:15Z</time>
<speed>2.100000</speed>
<extensions>
<speed>2.1</speed>
<temp>0.00</temp>
<bpm>0</bpm>
<rpm>0.00</rpm>
</extensions>
</trkpt>
<trkpt lat="64.146270752" lon="-21.932806015">
<ele>40.134766</ele>
<time>2012-07-18T10:27:20Z</time>
<speed>1.370000</speed>
<extensions>
<speed>1.4</speed>
<temp>0.00</temp>
<bpm>0</bpm>
<rpm>0.00</rpm>
</extensions>
</trkpt>
<trkpt lat="64.146263123" lon="-21.932689667">
<ele>42.649414</ele>
<time>2012-07-18T10:27:25Z</time>
<speed>1.040000</speed>
<extensions>
<speed>1.0</speed>
<temp>0.00</temp>
<bpm>0</bpm>
<rpm>0.00</rpm>
</extensions>
</trkpt>
<trkpt lat="64.146270752" lon="-21.932470322">
<ele>43.744141</ele>
<time>2012-07-18T10:27:30Z</time>
<speed>1.230000</speed>
<extensions>
<speed>1.2</speed>
<temp>0.00</temp>
<bpm>0</bpm>
<rpm>0.00</rpm>
</extensions>
</trkpt>
<trkpt lat="64.146224976" lon="-21.932357788">
<ele>44.536133</ele>
<time>2012-07-18T10:27:35Z</time>
<speed>0.090000</speed>
<extensions>
<speed>0.1</speed>
<temp>0.00</temp>
<bpm>0</bpm>
<rpm>0.00</rpm>
</extensions>
</trkpt>
<trkpt lat="64.146232605" lon="-21.932342529">
<ele>45.030273</ele>
<time>2012-07-18T10:27:40Z</time>
<speed>0.070000</speed>
<extensions>
<speed>0.1</speed>
<temp>0.00</temp>
<bpm>0</bpm>
<rpm>0.00</rpm>
</extensions>
</trkpt>
<trkpt lat="64.146224976" lon="-21.932336807">
<ele>45.059570</ele>
<time>2012-07-18T10:27:45Z</time>
<speed>0.360000</speed>
<extensions>
<speed>0.4</speed>
<temp>0.00</temp>
<bpm>0</bpm>
<rpm>0.00</rpm>
</extensions>
</trkpt>
<trkpt lat="64.146232605" lon="-21.932331085">
<ele>44.664063</ele>
<time>2012-07-18T10:27:50Z</time>
<speed>0.260000</speed>
<extensions>
<speed>0.3</speed>
<temp>0.00</temp>
<bpm>0</bpm>
<rpm>0.00</rpm>
</extensions>
</trkpt>
<trkpt lat="64.146224976" lon="-21.932329178">
<ele>44.756836</ele>
<time>2012-07-18T10:27:55Z</time>
<speed>0.040000</speed>
<extensions>
<speed>0.0</speed>
<temp>0.00</temp>
<bpm>0</bpm>
<rpm>0.00</rpm>
</extensions>
</trkpt>
<trkpt lat="64.146232605" lon="-21.932332993">
<ele>44.682617</ele>
<time>2012-07-18T10:28:00Z</time>
<speed>0.780000</speed>
<extensions>
<speed>0.8</speed>
<temp>0.00</temp>
<bpm>0</bpm>
<rpm>0.00</rpm>
</extensions>
</trkpt>
<trkpt lat="64.146255493" lon="-21.932464600">
<ele>43.635742</ele>
<time>2012-07-18T10:28:05Z</time>
<speed>1.800000</speed>
<extensions>
<speed>1.8</speed>
<temp>0.00</temp>
<bpm>0</bpm>
<rpm>0.00</rpm>
</extensions>
</trkpt>
<trkpt lat="64.146286011" lon="-21.932636261">
<ele>43.294922</ele>
<time>2012-07-18T10:28:10Z</time>
<speed>2.230000</speed>
<extensions>
<speed>2.2</speed>
<temp>0.00</temp>
<bpm>0</bpm>
<rpm>0.00</rpm>
</extensions>
</trkpt>
<trkpt lat="64.146354675" lon="-21.932777405">
<ele>42.392578</ele>
<time>2012-07-18T10:28:15Z</time>
<speed>1.220000</speed>
<extensions>
<speed>1.2</speed>
<temp>0.00</temp>
<bpm>0</bpm>
<rpm>0.00</rpm>
</extensions>
</trkpt>
<trkpt lat="64.146400452" lon="-21.932823181">
<ele>41.208984</ele>
<time>2012-07-18T10:28:20Z</time>
<speed>0.190000</speed>
<extensions>
<speed>0.2</speed>
<temp>0.00</temp>
<bpm>0</bpm>
<rpm>0.00</rpm>
</extensions>
</trkpt>
<trkpt lat="64.146385193" lon="-21.932826996">
<ele>43.183594</ele>
<time>2012-07-18T10:28:25Z</time>
<speed>1.080000</speed>
<extensions>
<speed>1.1</speed>
<temp>0.00</temp>
<bpm>0</bpm>
<rpm>0.00</rpm>
</extensions>
</trkpt>
<trkpt lat="64.146331787" lon="-21.932649612">
<ele>45.581055</ele>
<time>2012-07-18T10:28:30Z</time>
<speed>1.770000</speed>
<extensions>
<speed>1.8</speed>
<temp>0.00</temp>
<bpm>0</bpm>
<rpm>0.00</rpm>
</extensions>
</trkpt>
<trkpt lat="64.146240234" lon="-21.932409286">
<ele>44.846680</ele>
<time>2012-07-18T10:28:35Z</time>
<speed>2.500000</speed>
<extensions>
<speed>2.5</speed>
<temp>0.00</temp>
<bpm>0</bpm>
<rpm>0.00</rpm>
</extensions>
</trkpt>
<trkpt lat="64.146171570" lon="-21.932174683">
<ele>46.519531</ele>
<time>2012-07-18T10:28:40Z</time>
<speed>2.380000</speed>
<extensions>
<speed>2.4</speed>
<temp>0.00</temp>
<bpm>0</bpm>
<rpm>0.00</rpm>
</extensions>
</trkpt>
<trkpt lat="64.146156311" lon="-21.931957245">
<ele>46.670898</ele>
<time>2012-07-18T10:28:45Z</time>
<speed>2.090000</speed>
<extensions>
<speed>2.1</speed>
<temp>0.00</temp>
<bpm>0</bpm>
<rpm>0.00</rpm>
</extensions>
</trkpt>
<trkpt lat="64.146141052" lon="-21.931718826">
<ele>46.871094</ele>
<time>2012-07-18T10:28:50Z</time>
<speed>2.260000</speed>
<extensions>
<speed>2.3</speed>
<temp>0.00</temp>
<bpm>0</bpm>
<rpm>0.00</rpm>
</extensions>
</trkpt>
<trkpt lat="64.146141052" lon="-21.931545258">
<ele>43.617188</ele>
<time>2012-07-18T10:28:55Z</time>
<speed>1.380000</speed>
<extensions>
<speed>1.4</speed>
<temp>0.00</temp>
<bpm>0</bpm>
<rpm>0.00</rpm>
</extensions>
</trkpt>
<trkpt lat="64.146133423" lon="-21.931486130">
<ele>41.334961</ele>
<time>2012-07-18T10:29:00Z</time>
<speed>0.310000</speed>
<extensions>
<speed>0.3</speed>
<temp>0.00</temp>
<bpm>0</bpm>
<rpm>0.00</rpm>
</extensions>
</trkpt>
<trkpt lat="64.146133423" lon="-21.931505203">
<ele>40.255859</ele>
<time>2012-07-18T10:29:05Z</time>
<speed>0.030000</speed>
<extensions>
<speed>0.0</speed>
<temp>0.00</temp>
<bpm>0</bpm>
<rpm>0.00</rpm>
</extensions>
</trkpt>
<trkpt lat="64.146125793" lon="-21.931482315">
<ele>39.919922</ele>
<time>2012-07-18T10:29:10Z</time>
<speed>0.320000</speed>
<extensions>
<speed>0.3</speed>
<temp>0.00</temp>
<bpm>0</bpm>
<rpm>0.00</rpm>
</extensions>
</trkpt>
<trkpt lat="64.146141052" lon="-21.931468964">
<ele>40.077148</ele>
<time>2012-07-18T10:29:15Z</time>
<speed>0.490000</speed>
<extensions>
<speed>0.5</speed>
<temp>0.00</temp>
<bpm>0</bpm>
<rpm>0.00</rpm>
</extensions>
</trkpt>
<trkpt lat="64.146133423" lon="-21.931428909">
<ele>39.763672</ele>
<time>2012-07-18T10:29:20Z</time>
<extensions>
<speed>0.0</speed>
<temp>0.00</temp>
<bpm>0</bpm>
<rpm>0.00</rpm>
</extensions>
</trkpt>
<trkpt lat="64.146133423" lon="-21.931425095">
<ele>39.811523</ele>
<time>2012-07-18T10:29:25Z</time>
<speed>0.460000</speed>
<extensions>
<speed>0.5</speed>
<temp>0.00</temp>
<bpm>0</bpm>
<rpm>0.00</rpm>
</extensions>
</trkpt>
<trkpt lat="64.146110535" lon="-21.931417465">
<ele>38.398438</ele>
<time>2012-07-18T10:29:30Z</time>
<speed>0.800000</speed>
<extensions>
<speed>0.8</speed>
<temp>0.00</temp>
<bpm>0</bpm>
<rpm>0.00</rpm>
</extensions>
</trkpt>
<trkpt lat="64.146110535" lon="-21.931371689">
<ele>36.247070</ele>
<time>2012-07-18T10:29:35Z</time>
<speed>0.800000</speed>
<extensions>
<speed>0.8</speed>
<temp>0.00</temp>
<bpm>0</bpm>
<rpm>0.00</rpm>
</extensions>
</trkpt>
<trkpt lat="64.146156311" lon="-21.931272507">
<ele>33.047852</ele>
<time>2012-07-18T10:29:40Z</time>
<speed>0.210000</speed>
<extensions>
<speed>0.2</speed>
<temp>0.00</temp>
<bpm>0</bpm>
<rpm>0.00</rpm>
</extensions>
</trkpt>
<trkpt lat="64.146163940" lon="-21.931266785">
<ele>32.997070</ele>
<time>2012-07-18T10:29:45Z</time>
<speed>0.070000</speed>
<extensions>
<speed>0.1</speed>
<temp>0.00</temp>
<bpm>0</bpm>
<rpm>0.00</rpm>
</extensions>
</trkpt>
<trkpt lat="64.146163940" lon="-21.931270599">
<ele>33.039063</ele>
<time>2012-07-18T10:29:50Z</time>
<speed>0.010000</speed>
<extensions>
<speed>0.0</speed>
<temp>0.00</temp>
<bpm>0</bpm>
<rpm>0.00</rpm>
</extensions>
</trkpt>
<trkpt lat="64.146163940" lon="-21.931268692">
<ele>33.124023</ele>
<time>2012-07-18T10:29:55Z</time>
<speed>0.010000</speed>
<extensions>
<speed>0.0</speed>
<temp>0.00</temp>
<bpm>0</bpm>
<rpm>0.00</rpm>
</extensions>
</trkpt>
<trkpt lat="64.146171570" lon="-21.931268692">
<ele>33.143555</ele>
<time>2012-07-18T10:30:00Z</time>
<speed>0.010000</speed>
<extensions>
<speed>0.0</speed>
<temp>0.00</temp>
<bpm>0</bpm>
<rpm>0.00</rpm>
</extensions>
</trkpt>
<trkpt lat="64.146171570" lon="-21.931268692">
<ele>33.159180</ele>
<time>2012-07-18T10:30:05Z</time>
<extensions>
<speed>0.0</speed>
<temp>0.00</temp>
<bpm>0</bpm>
<rpm>0.00</rpm>
</extensions>
</trkpt>
<trkpt lat="64.146171570" lon="-21.931268692">
<ele>33.151367</ele>
<time>2012-07-18T10:30:10Z</time>
<speed>0.010000</speed>
<extensions>
<speed>0.0</speed>
<temp>0.00</temp>
<bpm>0</bpm>
<rpm>0.00</rpm>
</extensions>
</trkpt>
<trkpt lat="64.146171570" lon="-21.931268692">
<ele>33.144531</ele>
<time>2012-07-18T10:30:15Z</time>
<extensions>
<speed>0.0</speed>
<temp>0.00</temp>
<bpm>0</bpm>
<rpm>0.00</rpm>
</extensions>
</trkpt>
<trkpt lat="64.146171570" lon="-21.931268692">
<ele>33.140625</ele>
<time>2012-07-18T10:30:20Z</time>
<speed>0.010000</speed>
<extensions>
<speed>0.0</speed>
<temp>0.00</temp>
<bpm>0</bpm>
<rpm>0.00</rpm>
</extensions>
</trkpt>
<trkpt lat="64.146171570" lon="-21.931266785">
<ele>33.143555</ele>
<time>2012-07-18T10:30:25Z</time>
<extensions>
<speed>0.0</speed>
<temp>0.00</temp>
<bpm>0</bpm>
<rpm>0.00</rpm>
</extensions>
</trkpt>
<trkpt lat="64.146171570" lon="-21.931266785">
<ele>33.145508</ele>
<time>2012-07-18T10:30:30Z</time>
<extensions>
<speed>0.0</speed>
<temp>0.00</temp>
<bpm>0</bpm>
<rpm>0.00</rpm>
</extensions>
</trkpt>
<trkpt lat="64.146171570" lon="-21.931266785">
<ele>33.125000</ele>
<time>2012-07-18T10:30:35Z</time>
<extensions>
<speed>0.0</speed>
<temp>0.00</temp>
<bpm>0</bpm>
<rpm>0.00</rpm>
</extensions>
</trkpt>
<trkpt lat="64.146171570" lon="-21.931266785">
<ele>33.120117</ele>
<time>2012-07-18T10:30:40Z</time>
<extensions>
<speed>0.0</speed>
<temp>0.00</temp>
<bpm>0</bpm>
<rpm>0.00</rpm>
</extensions>
</trkpt>
<trkpt lat="64.146171570" lon="-21.931268692">
<ele>33.109375</ele>
<time>2012-07-18T10:30:45Z</time>
<speed>0.010000</speed>
<extensions>
<speed>0.0</speed>
<temp>0.00</temp>
<bpm>0</bpm>
<rpm>0.00</rpm>
</extensions>
</trkpt>
<trkpt lat="64.146171570" lon="-21.931266785">
<ele>33.105469</ele>
<time>2012-07-18T10:30:50Z</time>
<speed>0.020000</speed>
<extensions>
<speed>0.0</speed>
<temp>0.00</temp>
<bpm>0</bpm>
<rpm>0.00</rpm>
</extensions>
</trkpt>
<trkpt lat="64.146171570" lon="-21.931266785">
<ele>33.099609</ele>
<time>2012-07-18T10:30:55Z</time>
<extensions>
<speed>0.0</speed>
<temp>0.00</temp>
<bpm>0</bpm>
<rpm>0.00</rpm>
</extensions>
</trkpt>
<trkpt lat="64.146171570" lon="-21.931266785">
<ele>33.104492</ele>
<time>2012-07-18T10:31:00Z</time>
<extensions>
<speed>0.0</speed>
<temp>0.00</temp>
<bpm>0</bpm>
<rpm>0.00</rpm>
</extensions>
</trkpt>
<trkpt lat="64.146171570" lon="-21.931266785">
<ele>33.120117</ele>
<time>2012-07-18T10:31:05Z</time>
<extensions>
<speed>0.0</speed>
<temp>0.00</temp>
<bpm>0</bpm>
<rpm>0.00</rpm>
</extensions>
</trkpt>
<trkpt lat="64.146171570" lon="-21.931264877">
<ele>33.135742</ele>
<time>2012-07-18T10:31:10Z</time>
<speed>0.020000</speed>
<extensions>
<speed>0.0</speed>
<temp>0.00</temp>
<bpm>0</bpm>
<rpm>0.00</rpm>
</extensions>
</trkpt>
<trkpt lat="64.146171570" lon="-21.931264877">
<ele>33.149414</ele>
<time>2012-07-18T10:31:15Z</time>
<speed>0.010000</speed>
<extensions>
<speed>0.0</speed>
<temp>0.00</temp>
<bpm>0</bpm>
<rpm>0.00</rpm>
</extensions>
</trkpt>
<trkpt lat="64.146171570" lon="-21.931264877">
<ele>33.153320</ele>
<time>2012-07-18T10:31:20Z</time>
<speed>0.010000</speed>
<extensions>
<speed>0.0</speed>
<temp>0.00</temp>
<bpm>0</bpm>
<rpm>0.00</rpm>
</extensions>
</trkpt>
<trkpt lat="64.146171570" lon="-21.931262970">
<ele>33.156250</ele>
<time>2012-07-18T10:31:25Z</time>
<speed>0.010000</speed>
<extensions>
<speed>0.0</speed>
<temp>0.00</temp>
<bpm>0</bpm>
<rpm>0.00</rpm>
</extensions>
</trkpt>
<trkpt lat="64.146171570" lon="-21.931262970">
<ele>33.165039</ele>
<time>2012-07-18T10:31:30Z</time>
<speed>0.010000</speed>
<extensions>
<speed>0.0</speed>
<temp>0.00</temp>
<bpm>0</bpm>
<rpm>0.00</rpm>
</extensions>
</trkpt>
<trkpt lat="64.146171570" lon="-21.931261063">
<ele>33.166016</ele>
<time>2012-07-18T10:31:35Z</time>
<speed>0.040000</speed>
<extensions>
<speed>0.0</speed>
<temp>0.00</temp>
<bpm>0</bpm>
<rpm>0.00</rpm>
</extensions>
</trkpt>
<trkpt lat="64.146171570" lon="-21.931259155">
<ele>33.171875</ele>
<time>2012-07-18T10:31:40Z</time>
<speed>0.030000</speed>
<extensions>
<speed>0.0</speed>
<temp>0.00</temp>
<bpm>0</bpm>
<rpm>0.00</rpm>
</extensions>
</trkpt>
<trkpt lat="64.146171570" lon="-21.931259155">
<ele>33.183594</ele>
<time>2012-07-18T10:31:45Z</time>
<speed>0.010000</speed>
<extensions>
<speed>0.0</speed>
<temp>0.00</temp>
<bpm>0</bpm>
<rpm>0.00</rpm>
</extensions>
</trkpt>
<trkpt lat="64.146171570" lon="-21.931259155">
<ele>33.180664</ele>
<time>2012-07-18T10:31:50Z</time>
<extensions>
<speed>0.0</speed>
<temp>0.00</temp>
<bpm>0</bpm>
<rpm>0.00</rpm>
</extensions>
</trkpt>
<trkpt lat="64.146171570" lon="-21.931257248">
<ele>33.172852</ele>
<time>2012-07-18T10:31:55Z</time>
<speed>0.030000</speed>
<extensions>
<speed>0.0</speed>
<temp>0.00</temp>
<bpm>0</bpm>
<rpm>0.00</rpm>
</extensions>
</trkpt>
<trkpt lat="64.146171570" lon="-21.931255341">
<ele>33.166992</ele>
<time>2012-07-18T10:32:00Z</time>
<speed>0.010000</speed>
<extensions>
<speed>0.0</speed>
<temp>0.00</temp>
<bpm>0</bpm>
<rpm>0.00</rpm>
</extensions>
</trkpt>
<trkpt lat="64.146171570" lon="-21.931255341">
<ele>33.161133</ele>
<time>2012-07-18T10:32:05Z</time>
<extensions>
<speed>0.0</speed>
<temp>0.00</temp>
<bpm>0</bpm>
<rpm>0.00</rpm>
</extensions>
</trkpt>
<trkpt lat="64.146171570" lon="-21.931253433">
<ele>33.159180</ele>
<time>2012-07-18T10:32:10Z</time>
<speed>0.010000</speed>
<extensions>
<speed>0.0</speed>
<temp>0.00</temp>
<bpm>0</bpm>
<rpm>0.00</rpm>
</extensions>
</trkpt>
<trkpt lat="64.146171570" lon="-21.931251526">
<ele>33.154297</ele>
<time>2012-07-18T10:32:15Z</time>
<speed>0.020000</speed>
<extensions>
<speed>0.0</speed>
<temp>0.00</temp>
<bpm>0</bpm>
<rpm>0.00</rpm>
</extensions>
</trkpt>
<trkpt lat="64.146171570" lon="-21.931251526">
<ele>33.152344</ele>
<time>2012-07-18T10:32:20Z</time>
<extensions>
<speed>0.0</speed>
<temp>0.00</temp>
<bpm>0</bpm>
<rpm>0.00</rpm>
</extensions>
</trkpt>
<trkpt lat="64.146171570" lon="-21.931249619">
<ele>33.145508</ele>
<time>2012-07-18T10:32:25Z</time>
<speed>0.060000</speed>
<extensions>
<speed>0.1</speed>
<temp>0.00</temp>
<bpm>0</bpm>
<rpm>0.00</rpm>
</extensions>
</trkpt>
<trkpt lat="64.146171570" lon="-21.931247711">
<ele>33.140625</ele>
<time>2012-07-18T10:32:30Z</time>
<speed>0.020000</speed>
<extensions>
<speed>0.0</speed>
<temp>0.00</temp>
<bpm>0</bpm>
<rpm>0.00</rpm>
</extensions>
</trkpt>
<trkpt lat="64.146171570" lon="-21.931245804">
<ele>33.132813</ele>
<time>2012-07-18T10:32:35Z</time>
<speed>0.020000</speed>
<extensions>
<speed>0.0</speed>
<temp>0.00</temp>
<bpm>0</bpm>
<rpm>0.00</rpm>
</extensions>
</trkpt>
<trkpt lat="64.146171570" lon="-21.931243896">
<ele>33.117188</ele>
<time>2012-07-18T10:32:40Z</time>
<speed>0.030000</speed>
<extensions>
<speed>0.0</speed>
<temp>0.00</temp>
<bpm>0</bpm>
<rpm>0.00</rpm>
</extensions>
</trkpt>
<trkpt lat="64.146171570" lon="-21.931241989">
<ele>33.087891</ele>
<time>2012-07-18T10:32:45Z</time>
<speed>0.040000</speed>
<extensions>
<speed>0.0</speed>
<temp>0.00</temp>
<bpm>0</bpm>
<rpm>0.00</rpm>
</extensions>
</trkpt>
<trkpt lat="64.146171570" lon="-21.931240082">
<ele>33.063477</ele>
<time>2012-07-18T10:32:50Z</time>
<speed>0.020000</speed>
<extensions>
<speed>0.0</speed>
<temp>0.00</temp>
<bpm>0</bpm>
<rpm>0.00</rpm>
</extensions>
</trkpt>
<trkpt lat="64.146163940" lon="-21.931238174">
<ele>33.032227</ele>
<time>2012-07-18T10:32:55Z</time>
<speed>0.030000</speed>
<extensions>
<speed>0.0</speed>
<temp>0.00</temp>
<bpm>0</bpm>
<rpm>0.00</rpm>
</extensions>
</trkpt>
<trkpt lat="64.146163940" lon="-21.931236267">
<ele>33.002930</ele>
<time>2012-07-18T10:33:00Z</time>
<speed>0.010000</speed>
<extensions>
<speed>0.0</speed>
<temp>0.00</temp>
<bpm>0</bpm>
<rpm>0.00</rpm>
</extensions>
</trkpt>
<trkpt lat="64.146163940" lon="-21.931236267">
<ele>32.963867</ele>
<time>2012-07-18T10:33:05Z</time>
<speed>0.030000</speed>
<extensions>
<speed>0.0</speed>
<temp>0.00</temp>
<bpm>0</bpm>
<rpm>0.00</rpm>
</extensions>
</trkpt>
<trkpt lat="64.146163940" lon="-21.931234360">
<ele>32.923828</ele>
<time>2012-07-18T10:33:10Z</time>
<speed>0.010000</speed>
<extensions>
<speed>0.0</speed>
<temp>0.00</temp>
<bpm>0</bpm>
<rpm>0.00</rpm>
</extensions>
</trkpt>
<trkpt lat="64.146163940" lon="-21.931234360">
<ele>32.887695</ele>
<time>2012-07-18T10:33:15Z</time>
<extensions>
<speed>0.0</speed>
<temp>0.00</temp>
<bpm>0</bpm>
<rpm>0.00</rpm>
</extensions>
</trkpt>
<trkpt lat="64.146171570" lon="-21.931234360">
<ele>32.857422</ele>
<time>2012-07-18T10:33:20Z</time>
<speed>0.010000</speed>
<extensions>
<speed>0.0</speed>
<temp>0.00</temp>
<bpm>0</bpm>
<rpm>0.00</rpm>
</extensions>
</trkpt>
<trkpt lat="64.146171570" lon="-21.931234360">
<ele>32.828125</ele>
<time>2012-07-18T10:33:25Z</time>
<speed>0.010000</speed>
<extensions>
<speed>0.0</speed>
<temp>0.00</temp>
<bpm>0</bpm>
<rpm>0.00</rpm>
</extensions>
</trkpt>
<trkpt lat="64.146171570" lon="-21.931234360">
<ele>32.790039</ele>
<time>2012-07-18T10:33:30Z</time>
<extensions>
<speed>0.0</speed>
<temp>0.00</temp>
<bpm>0</bpm>
<rpm>0.00</rpm>
</extensions>
</trkpt>
<trkpt lat="64.146171570" lon="-21.931234360">
<ele>32.765625</ele>
<time>2012-07-18T10:33:35Z</time>
<speed>0.010000</speed>
<extensions>
<speed>0.0</speed>
<temp>0.00</temp>
<bpm>0</bpm>
<rpm>0.00</rpm>
</extensions>
</trkpt>
<trkpt lat="64.146171570" lon="-21.931234360">
<ele>32.748047</ele>
<time>2012-07-18T10:33:40Z</time>
<speed>0.010000</speed>
<extensions>
<speed>0.0</speed>
<temp>0.00</temp>
<bpm>0</bpm>
<rpm>0.00</rpm>
</extensions>
</trkpt>
<trkpt lat="64.146171570" lon="-21.931236267">
<ele>32.758789</ele>
<time>2012-07-18T10:33:45Z</time>
<speed>0.030000</speed>
<extensions>
<speed>0.0</speed>
<temp>0.00</temp>
<bpm>0</bpm>
<rpm>0.00</rpm>
</extensions>
</trkpt>
<trkpt lat="64.146171570" lon="-21.931238174">
<ele>32.779297</ele>
<time>2012-07-18T10:33:50Z</time>
<speed>0.010000</speed>
<extensions>
<speed>0.0</speed>
<temp>0.00</temp>
<bpm>0</bpm>
<rpm>0.00</rpm>
</extensions>
</trkpt>
<trkpt lat="64.146171570" lon="-21.931240082">
<ele>32.795898</ele>
<time>2012-07-18T10:33:55Z</time>
<speed>0.020000</speed>
<extensions>
<speed>0.0</speed>
<temp>0.00</temp>
<bpm>0</bpm>
<rpm>0.00</rpm>
</extensions>
</trkpt>
<trkpt lat="64.146171570" lon="-21.931240082">
<ele>32.802734</ele>
<time>2012-07-18T10:34:00Z</time>
<speed>0.010000</speed>
<extensions>
<speed>0.0</speed>
<temp>0.00</temp>
<bpm>0</bpm>
<rpm>0.00</rpm>
</extensions>
</trkpt>
<trkpt lat="64.146171570" lon="-21.931240082">
<ele>32.803711</ele>
<time>2012-07-18T10:34:05Z</time>
<speed>0.010000</speed>
<extensions>
<speed>0.0</speed>
<temp>0.00</temp>
<bpm>0</bpm>
<rpm>0.00</rpm>
</extensions>
</trkpt>
<trkpt lat="64.146171570" lon="-21.931240082">
<ele>32.793945</ele>
<time>2012-07-18T10:34:10Z</time>
<speed>0.010000</speed>
<extensions>
<speed>0.0</speed>
<temp>0.00</temp>
<bpm>0</bpm>
<rpm>0.00</rpm>
</extensions>
</trkpt>
<trkpt lat="64.146171570" lon="-21.931240082">
<ele>32.810547</ele>
<time>2012-07-18T10:34:15Z</time>
<speed>0.010000</speed>
<extensions>
<speed>0.0</speed>
<temp>0.00</temp>
<bpm>0</bpm>
<rpm>0.00</rpm>
</extensions>
</trkpt>
<trkpt lat="64.146171570" lon="-21.931240082">
<ele>32.821289</ele>
<time>2012-07-18T10:34:20Z</time>
<extensions>
<speed>0.0</speed>
<temp>0.00</temp>
<bpm>0</bpm>
<rpm>0.00</rpm>
</extensions>
</trkpt>
<trkpt lat="64.146171570" lon="-21.931240082">
<ele>32.824219</ele>
<time>2012-07-18T10:34:25Z</time>
<extensions>
<speed>0.0</speed>
<temp>0.00</temp>
<bpm>0</bpm>
<rpm>0.00</rpm>
</extensions>
</trkpt>
<trkpt lat="64.146171570" lon="-21.931240082">
<ele>32.817383</ele>
<time>2012-07-18T10:34:30Z</time>
<speed>0.010000</speed>
<extensions>
<speed>0.0</speed>
<temp>0.00</temp>
<bpm>0</bpm>
<rpm>0.00</rpm>
</extensions>
</trkpt>
<trkpt lat="64.146171570" lon="-21.931240082">
<ele>32.819336</ele>
<time>2012-07-18T10:34:35Z</time>
<extensions>
<speed>0.0</speed>
<temp>0.00</temp>
<bpm>0</bpm>
<rpm>0.00</rpm>
</extensions>
</trkpt>
<trkpt lat="64.146171570" lon="-21.931240082">
<ele>32.806641</ele>
<time>2012-07-18T10:34:40Z</time>
<speed>0.030000</speed>
<extensions>
<speed>0.0</speed>
<temp>0.00</temp>
<bpm>0</bpm>
<rpm>0.00</rpm>
</extensions>
</trkpt>
<trkpt lat="64.146171570" lon="-21.931241989">
<ele>32.790039</ele>
<time>2012-07-18T10:34:45Z</time>
<extensions>
<speed>0.0</speed>
<temp>0.00</temp>
<bpm>0</bpm>
<rpm>0.00</rpm>
</extensions>
</trkpt>
<trkpt lat="64.146171570" lon="-21.931241989">
<ele>32.759766</ele>
<time>2012-07-18T10:34:50Z</time>
<speed>0.010000</speed>
<extensions>
<speed>0.0</speed>
<temp>0.00</temp>
<bpm>0</bpm>
<rpm>0.00</rpm>
</extensions>
</trkpt>
<trkpt lat="64.146171570" lon="-21.931241989">
<ele>32.738281</ele>
<time>2012-07-18T10:34:55Z</time>
<speed>0.020000</speed>
<extensions>
<speed>0.0</speed>
<temp>0.00</temp>
<bpm>0</bpm>
<rpm>0.00</rpm>
</extensions>
</trkpt>
<trkpt lat="64.146171570" lon="-21.931241989">
<ele>32.709961</ele>
<time>2012-07-18T10:35:00Z</time>
<extensions>
<speed>0.0</speed>
<temp>0.00</temp>
<bpm>0</bpm>
<rpm>0.00</rpm>
</extensions>
</trkpt>
<trkpt lat="64.146171570" lon="-21.931241989">
<ele>32.682617</ele>
<time>2012-07-18T10:35:05Z</time>
<extensions>
<speed>0.0</speed>
<temp>0.00</temp>
<bpm>0</bpm>
<rpm>0.00</rpm>
</extensions>
</trkpt>
<trkpt lat="64.146171570" lon="-21.931241989">
<ele>32.655273</ele>
<time>2012-07-18T10:35:10Z</time>
<speed>0.010000</speed>
<extensions>
<speed>0.0</speed>
<temp>0.00</temp>
<bpm>0</bpm>
<rpm>0.00</rpm>
</extensions>
</trkpt>
<trkpt lat="64.146171570" lon="-21.931241989">
<ele>32.635742</ele>
<time>2012-07-18T10:35:15Z</time>
<speed>0.020000</speed>
<extensions>
<speed>0.0</speed>
<temp>0.00</temp>
<bpm>0</bpm>
<rpm>0.00</rpm>
</extensions>
</trkpt>
<trkpt lat="64.146171570" lon="-21.931241989">
<ele>32.615234</ele>
<time>2012-07-18T10:35:20Z</time>
<speed>0.020000</speed>
<extensions>
<speed>0.0</speed>
<temp>0.00</temp>
<bpm>0</bpm>
<rpm>0.00</rpm>
</extensions>
</trkpt>
<trkpt lat="64.146171570" lon="-21.931240082">
<ele>32.592773</ele>
<time>2012-07-18T10:35:25Z</time>
<speed>0.020000</speed>
<extensions>
<speed>0.0</speed>
<temp>0.00</temp>
<bpm>0</bpm>
<rpm>0.00</rpm>
</extensions>
</trkpt>
<trkpt lat="64.146171570" lon="-21.931240082">
<ele>32.583984</ele>
<time>2012-07-18T10:35:30Z</time>
<extensions>
<speed>0.0</speed>
<temp>0.00</temp>
<bpm>0</bpm>
<rpm>0.00</rpm>
</extensions>
</trkpt>
<trkpt lat="64.146171570" lon="-21.931240082">
<ele>32.570313</ele>
<time>2012-07-18T10:35:35Z</time>
<speed>0.020000</speed>
<extensions>
<speed>0.0</speed>
<temp>0.00</temp>
<bpm>0</bpm>
<rpm>0.00</rpm>
</extensions>
</trkpt>
<trkpt lat="64.146171570" lon="-21.931240082">
<ele>32.550781</ele>
<time>2012-07-18T10:35:40Z</time>
<speed>0.020000</speed>
<extensions>
<speed>0.0</speed>
<temp>0.00</temp>
<bpm>0</bpm>
<rpm>0.00</rpm>
</extensions>
</trkpt>
<trkpt lat="64.146171570" lon="-21.931240082">
<ele>32.541016</ele>
<time>2012-07-18T10:35:45Z</time>
<speed>0.040000</speed>
<extensions>
<speed>0.0</speed>
<temp>0.00</temp>
<bpm>0</bpm>
<rpm>0.00</rpm>
</extensions>
</trkpt>
<trkpt lat="64.146171570" lon="-21.931238174">
<ele>32.532227</ele>
<time>2012-07-18T10:35:50Z</time>
<extensions>
<speed>0.0</speed>
<temp>0.00</temp>
<bpm>0</bpm>
<rpm>0.00</rpm>
</extensions>
</trkpt>
<trkpt lat="64.146171570" lon="-21.931238174">
<ele>32.528320</ele>
<time>2012-07-18T10:35:55Z</time>
<speed>0.010000</speed>
<extensions>
<speed>0.0</speed>
<temp>0.00</temp>
<bpm>0</bpm>
<rpm>0.00</rpm>
</extensions>
</trkpt>
<trkpt lat="64.146171570" lon="-21.931238174">
<ele>32.517578</ele>
<time>2012-07-18T10:36:00Z</time>
<speed>0.090000</speed>
<extensions>
<speed>0.1</speed>
<temp>0.00</temp>
<bpm>0</bpm>
<rpm>0.00</rpm>
</extensions>
</trkpt>
<trkpt lat="64.146171570" lon="-21.931238174">
<ele>32.537109</ele>
<time>2012-07-18T10:36:05Z</time>
<speed>0.050000</speed>
<extensions>
<speed>0.1</speed>
<temp>0.00</temp>
<bpm>0</bpm>
<rpm>0.00</rpm>
</extensions>
</trkpt>
<trkpt lat="64.146171570" lon="-21.931238174">
<ele>32.555664</ele>
<time>2012-07-18T10:36:10Z</time>
<speed>0.200000</speed>
<extensions>
<speed>0.2</speed>
<temp>0.00</temp>
<bpm>0</bpm>
<rpm>0.00</rpm>
</extensions>
</trkpt>
<trkpt lat="64.146171570" lon="-21.931238174">
<ele>32.561523</ele>
<time>2012-07-18T10:36:15Z</time>
<speed>0.230000</speed>
<extensions>
<speed>0.2</speed>
<temp>0.00</temp>
<bpm>0</bpm>
<rpm>0.00</rpm>
</extensions>
</trkpt>
<trkpt lat="64.146171570" lon="-21.931232452">
<ele>32.397461</ele>
<time>2012-07-18T10:36:20Z</time>
<speed>0.270000</speed>
<extensions>
<speed>0.3</speed>
<temp>0.00</temp>
<bpm>0</bpm>
<rpm>0.00</rpm>
</extensions>
</trkpt>
<trkpt lat="64.146171570" lon="-21.931230545">
<ele>32.271484</ele>
<time>2012-07-18T10:36:25Z</time>
<speed>0.210000</speed>
<extensions>
<speed>0.2</speed>
<temp>0.00</temp>
<bpm>0</bpm>
<rpm>0.00</rpm>
</extensions>
</trkpt>
<trkpt lat="64.146171570" lon="-21.931234360">
<ele>32.371094</ele>
<time>2012-07-18T10:36:30Z</time>
<speed>0.020000</speed>
<extensions>
<speed>0.0</speed>
<temp>0.00</temp>
<bpm>0</bpm>
<rpm>0.00</rpm>
</extensions>
</trkpt>
<trkpt lat="64.146171570" lon="-21.931232452">
<ele>32.368164</ele>
<time>2012-07-18T10:36:35Z</time>
<speed>0.010000</speed>
<extensions>
<speed>0.0</speed>
<temp>0.00</temp>
<bpm>0</bpm>
<rpm>0.00</rpm>
</extensions>
</trkpt>
<trkpt lat="64.146171570" lon="-21.931230545">
<ele>32.186523</ele>
<time>2012-07-18T10:36:40Z</time>
<speed>0.400000</speed>
<extensions>
<speed>0.4</speed>
<temp>0.00</temp>
<bpm>0</bpm>
<rpm>0.00</rpm>
</extensions>
</trkpt>
<trkpt lat="64.146148682" lon="-21.931249619">
<ele>32.065430</ele>
<time>2012-07-18T10:36:45Z</time>
<speed>0.370000</speed>
<extensions>
<speed>0.4</speed>
<temp>0.00</temp>
<bpm>0</bpm>
<rpm>0.00</rpm>
</extensions>
</trkpt>
<trkpt lat="64.146148682" lon="-21.931274414">
<ele>32.387695</ele>
<time>2012-07-18T10:36:50Z</time>
<speed>0.240000</speed>
<extensions>
<speed>0.2</speed>
<temp>0.00</temp>
<bpm>0</bpm>
<rpm>0.00</rpm>
</extensions>
</trkpt>
<trkpt lat="64.146163940" lon="-21.931320190">
<ele>33.610352</ele>
<time>2012-07-18T10:36:55Z</time>
<speed>1.200000</speed>
<extensions>
<speed>1.2</speed>
<temp>0.00</temp>
<bpm>0</bpm>
<rpm>0.00</rpm>
</extensions>
</trkpt>
<trkpt lat="64.146179199" lon="-21.931568146">
<ele>34.573242</ele>
<time>2012-07-18T10:37:00Z</time>
<speed>3.200000</speed>
<extensions>
<speed>3.2</speed>
<temp>0.00</temp>
<bpm>0</bpm>
<rpm>0.00</rpm>
</extensions>
</trkpt>
<trkpt lat="64.146247864" lon="-21.931858063">
<ele>34.028320</ele>
<time>2012-07-18T10:37:05Z</time>
<speed>2.780000</speed>
<extensions>
<speed>2.8</speed>
<temp>0.00</temp>
<bpm>0</bpm>
<rpm>0.00</rpm>
</extensions>
</trkpt>
<trkpt lat="64.146308899" lon="-21.932252884">
<ele>35.494141</ele>
<time>2012-07-18T10:37:10Z</time>
<speed>3.510000</speed>
<extensions>
<speed>3.5</speed>
<temp>0.00</temp>
<bpm>0</bpm>
<rpm>0.00</rpm>
</extensions>
</trkpt>
<trkpt lat="64.146369934" lon="-21.932603836">
<ele>34.755859</ele>
<time>2012-07-18T10:37:15Z</time>
<speed>3.780000</speed>
<extensions>
<speed>3.8</speed>
<temp>0.00</temp>
<bpm>0</bpm>
<rpm>0.00</rpm>
</extensions>
</trkpt>
<trkpt lat="64.146438599" lon="-21.932933807">
<ele>36.515625</ele>
<time>2012-07-18T10:37:20Z</time>
<speed>3.510000</speed>
<extensions>
<speed>3.5</speed>
<temp>0.00</temp>
<bpm>0</bpm>
<rpm>0.00</rpm>
</extensions>
</trkpt>
<trkpt lat="64.146507263" lon="-21.933273315">
<ele>35.279297</ele>
<time>2012-07-18T10:37:25Z</time>
<speed>2.740000</speed>
<extensions>
<speed>2.7</speed>
<temp>0.00</temp>
<bpm>0</bpm>
<rpm>0.00</rpm>
</extensions>
</trkpt>
<trkpt lat="64.146553040" lon="-21.933515549">
<ele>36.038086</ele>
<time>2012-07-18T10:37:30Z</time>
<speed>2.420000</speed>
<extensions>
<speed>2.4</speed>
<temp>0.00</temp>
<bpm>0</bpm>
<rpm>0.00</rpm>
</extensions>
</trkpt>
<trkpt lat="64.146667480" lon="-21.933660507">
<ele>31.566406</ele>
<time>2012-07-18T10:37:35Z</time>
<speed>2.310000</speed>
<extensions>
<speed>2.3</speed>
<temp>0.00</temp>
<bpm>0</bpm>
<rpm>0.00</rpm>
</extensions>
</trkpt>
<trkpt lat="64.146759033" lon="-21.934137344">
<ele>34.368164</ele>
<time>2012-07-18T10:37:40Z</time>
<speed>3.900000</speed>
<extensions>
<speed>3.9</speed>
<temp>0.00</temp>
<bpm>0</bpm>
<rpm>0.00</rpm>
</extensions>
</trkpt>
<trkpt lat="64.146804810" lon="-21.934474945">
<ele>37.190430</ele>
<time>2012-07-18T10:37:45Z</time>
<speed>1.650000</speed>
<extensions>
<speed>1.7</speed>
<temp>0.00</temp>
<bpm>0</bpm>
<rpm>0.00</rpm>
</extensions>
</trkpt>
<trkpt lat="64.146835327" lon="-21.934740067">
<ele>37.902344</ele>
<time>2012-07-18T10:37:50Z</time>
<speed>3.200000</speed>
<extensions>
<speed>3.2</speed>
<temp>0.00</temp>
<bpm>0</bpm>
<rpm>0.00</rpm>
</extensions>
</trkpt>
<trkpt lat="64.146942139" lon="-21.935026169">
<ele>38.580078</ele>
<time>2012-07-18T10:37:55Z</time>
<speed>4.190000</speed>
<extensions>
<speed>4.2</speed>
<temp>0.00</temp>
<bpm>0</bpm>
<rpm>0.00</rpm>
</extensions>
</trkpt>
<trkpt lat="64.147071838" lon="-21.935453415">
<ele>37.484375</ele>
<time>2012-07-18T10:38:00Z</time>
<speed>5.470000</speed>
<extensions>
<speed>5.5</speed>
<temp>0.00</temp>
<bpm>0</bpm>
<rpm>0.00</rpm>
</extensions>
</trkpt>
<trkpt lat="64.147155762" lon="-21.935829163">
<ele>34.161133</ele>
<time>2012-07-18T10:38:05Z</time>
<speed>3.270000</speed>
<extensions>
<speed>3.3</speed>
<temp>0.00</temp>
<bpm>0</bpm>
<rpm>0.00</rpm>
</extensions>
</trkpt>
<trkpt lat="64.147224426" lon="-21.935997009">
<ele>25.675293</ele>
<time>2012-07-18T10:38:10Z</time>
<speed>1.050000</speed>
<extensions>
<speed>1.0</speed>
<temp>0.00</temp>
<bpm>0</bpm>
<rpm>0.00</rpm>
</extensions>
</trkpt>
<trkpt lat="64.147285461" lon="-21.936031342">
<ele>23.370605</ele>
<time>2012-07-18T10:38:15Z</time>
<speed>1.640000</speed>
<extensions>
<speed>1.6</speed>
<temp>0.00</temp>
<bpm>0</bpm>
<rpm>0.00</rpm>
</extensions>
</trkpt>
<trkpt lat="64.147346497" lon="-21.936239243">
<ele>24.226563</ele>
<time>2012-07-18T10:38:20Z</time>
<speed>2.310000</speed>
<extensions>
<speed>2.3</speed>
<temp>0.00</temp>
<bpm>0</bpm>
<rpm>0.00</rpm>
</extensions>
</trkpt>
<trkpt lat="64.147384644" lon="-21.936491013">
<ele>20.965332</ele>
<time>2012-07-18T10:38:25Z</time>
<speed>2.760000</speed>
<extensions>
<speed>2.8</speed>
<temp>0.00</temp>
<bpm>0</bpm>
<rpm>0.00</rpm>
</extensions>
</trkpt>
<trkpt lat="64.147392273" lon="-21.936841965">
<ele>18.237793</ele>
<time>2012-07-18T10:38:30Z</time>
<speed>2.930000</speed>
<extensions>
<speed>2.9</speed>
<temp>0.00</temp>
<bpm>0</bpm>
<rpm>0.00</rpm>
</extensions>
</trkpt>
<trkpt lat="64.147430420" lon="-21.937147141">
<ele>18.562012</ele>
<time>2012-07-18T10:38:35Z</time>
<speed>2.730000</speed>
<extensions>
<speed>2.7</speed>
<temp>0.00</temp>
<bpm>0</bpm>
<rpm>0.00</rpm>
</extensions>
</trkpt>
<trkpt lat="64.147476196" lon="-21.937377930">
<ele>18.680664</ele>
<time>2012-07-18T10:38:40Z</time>
<speed>2.210000</speed>
<extensions>
<speed>2.2</speed>
<temp>0.00</temp>
<bpm>0</bpm>
<rpm>0.00</rpm>
</extensions>
</trkpt>
<trkpt lat="64.147529602" lon="-21.937679291">
<ele>21.197754</ele>
<time>2012-07-18T10:38:45Z</time>
<speed>3.170000</speed>
<extensions>
<speed>3.2</speed>
<temp>0.00</temp>
<bpm>0</bpm>
<rpm>0.00</rpm>
</extensions>
</trkpt>
<trkpt lat="64.147583008" lon="-21.937955856">
<ele>21.587891</ele>
<time>2012-07-18T10:38:50Z</time>
<speed>2.750000</speed>
<extensions>
<speed>2.7</speed>
<temp>0.00</temp>
<bpm>0</bpm>
<rpm>0.00</rpm>
</extensions>
</trkpt>
<trkpt lat="64.147628784" lon="-21.938247681">
<ele>22.046875</ele>
<time>2012-07-18T10:38:55Z</time>
<speed>1.210000</speed>
<extensions>
<speed>1.2</speed>
<temp>0.00</temp>
<bpm>0</bpm>
<rpm>0.00</rpm>
</extensions>
</trkpt>
<trkpt lat="64.147636414" lon="-21.938297272">
<ele>21.603027</ele>
<time>2012-07-18T10:39:00Z</time>
<speed>0.030000</speed>
<extensions>
<speed>0.0</speed>
<temp>0.00</temp>
<bpm>0</bpm>
<rpm>0.00</rpm>
</extensions>
</trkpt>
<trkpt lat="64.147636414" lon="-21.938301086">
<ele>21.824707</ele>
<time>2012-07-18T10:39:05Z</time>
<speed>0.360000</speed>
<extensions>
<speed>0.4</speed>
<temp>0.00</temp>
<bpm>0</bpm>
<rpm>0.00</rpm>
</extensions>
</trkpt>
<trkpt lat="64.147628784" lon="-21.938312531">
<ele>22.020996</ele>
<time>2012-07-18T10:39:10Z</time>
<speed>0.030000</speed>
<extensions>
<speed>0.0</speed>
<temp>0.00</temp>
<bpm>0</bpm>
<rpm>0.00</rpm>
</extensions>
</trkpt>
<trkpt lat="64.147628784" lon="-21.938316345">
<ele>22.165039</ele>
<time>2012-07-18T10:39:15Z</time>
<speed>0.040000</speed>
<extensions>
<speed>0.0</speed>
<temp>0.00</temp>
<bpm>0</bpm>
<rpm>0.00</rpm>
</extensions>
</trkpt>
<trkpt lat="64.147628784" lon="-21.938316345">
<ele>22.363281</ele>
<time>2012-07-18T10:39:20Z</time>
<speed>0.010000</speed>
<extensions>
<speed>0.0</speed>
<temp>0.00</temp>
<bpm>0</bpm>
<rpm>0.00</rpm>
</extensions>
</trkpt>
<trkpt lat="64.147628784" lon="-21.938320160">
<ele>22.518066</ele>
<time>2012-07-18T10:39:25Z</time>
<speed>0.580000</speed>
<extensions>
<speed>0.6</speed>
<temp>0.00</temp>
<bpm>0</bpm>
<rpm>0.00</rpm>
</extensions>
</trkpt>
<trkpt lat="64.147644043" lon="-21.938467026">
<ele>22.826172</ele>
<time>2012-07-18T10:39:30Z</time>
<speed>2.290000</speed>
<extensions>
<speed>2.3</speed>
<temp>0.00</temp>
<bpm>0</bpm>
<rpm>0.00</rpm>
</extensions>
</trkpt>
<trkpt lat="64.147705078" lon="-21.938720703">
<ele>22.939941</ele>
<time>2012-07-18T10:39:35Z</time>
<speed>2.940000</speed>
<extensions>
<speed>2.9</speed>
<temp>0.00</temp>
<bpm>0</bpm>
<rpm>0.00</rpm>
</extensions>
</trkpt>
<trkpt lat="64.147750854" lon="-21.939006805">
<ele>24.212891</ele>
<time>2012-07-18T10:39:40Z</time>
<speed>2.970000</speed>
<extensions>
<speed>3.0</speed>
<temp>0.00</temp>
<bpm>0</bpm>
<rpm>0.00</rpm>
</extensions>
</trkpt>
<trkpt lat="64.147781372" lon="-21.939331055">
<ele>25.544922</ele>
<time>2012-07-18T10:39:45Z</time>
<speed>3.280000</speed>
<extensions>
<speed>3.3</speed>
<temp>0.00</temp>
<bpm>0</bpm>
<rpm>0.00</rpm>
</extensions>
</trkpt>
<trkpt lat="64.147804260" lon="-21.939638138">
<ele>27.014160</ele>
<time>2012-07-18T10:39:50Z</time>
<speed>3.330000</speed>
<extensions>
<speed>3.3</speed>
<temp>0.00</temp>
<bpm>0</bpm>
<rpm>0.00</rpm>
</extensions>
</trkpt>
<trkpt lat="64.147834778" lon="-21.940023422">
<ele>30.204102</ele>
<time>2012-07-18T10:39:55Z</time>
<speed>3.410000</speed>
<extensions>
<speed>3.4</speed>
<temp>0.00</temp>
<bpm>0</bpm>
<rpm>0.00</rpm>
</extensions>
</trkpt>
<trkpt lat="64.147834778" lon="-21.940286636">
<ele>32.466797</ele>
<time>2012-07-18T10:40:00Z</time>
<speed>1.540000</speed>
<extensions>
<speed>1.5</speed>
<temp>0.00</temp>
<bpm>0</bpm>
<rpm>0.00</rpm>
</extensions>
</trkpt>
<trkpt lat="64.147888184" lon="-21.940546036">
<ele>34.417969</ele>
<time>2012-07-18T10:40:05Z</time>
<speed>2.620000</speed>
<extensions>
<speed>2.6</speed>
<temp>0.00</temp>
<bpm>0</bpm>
<rpm>0.00</rpm>
</extensions>
</trkpt>
<trkpt lat="64.147941589" lon="-21.940830231">
<ele>34.997070</ele>
<time>2012-07-18T10:40:10Z</time>
<speed>1.300000</speed>
<extensions>
<speed>1.3</speed>
<temp>0.00</temp>
<bpm>0</bpm>
<rpm>0.00</rpm>
</extensions>
</trkpt>
<trkpt lat="64.147941589" lon="-21.940925598">
<ele>33.985352</ele>
<time>2012-07-18T10:40:15Z</time>
<speed>1.240000</speed>
<extensions>
<speed>1.2</speed>
<temp>0.00</temp>
<bpm>0</bpm>
<rpm>0.00</rpm>
</extensions>
</trkpt>
<trkpt lat="64.148033142" lon="-21.940956116">
<ele>31.368164</ele>
<time>2012-07-18T10:40:20Z</time>
<speed>2.310000</speed>
<extensions>
<speed>2.3</speed>
<temp>0.00</temp>
<bpm>0</bpm>
<rpm>0.00</rpm>
</extensions>
</trkpt>
<trkpt lat="64.148132324" lon="-21.940841675">
<ele>30.486816</ele>
<time>2012-07-18T10:40:25Z</time>
<speed>2.340000</speed>
<extensions>
<speed>2.3</speed>
<temp>0.00</temp>
<bpm>0</bpm>
<rpm>0.00</rpm>
</extensions>
</trkpt>
<trkpt lat="64.148231506" lon="-21.940738678">
<ele>28.505859</ele>
<time>2012-07-18T10:40:30Z</time>
<speed>1.080000</speed>
<extensions>
<speed>1.1</speed>
<temp>0.00</temp>
<bpm>0</bpm>
<rpm>0.00</rpm>
</extensions>
</trkpt>
<trkpt lat="64.148292542" lon="-21.940893173">
<ele>30.043945</ele>
<time>2012-07-18T10:40:35Z</time>
<speed>2.150000</speed>
<extensions>
<speed>2.1</speed>
<temp>0.00</temp>
<bpm>0</bpm>
<rpm>0.00</rpm>
</extensions>
</trkpt>
<trkpt lat="64.148330688" lon="-21.941205978">
<ele>34.705078</ele>
<time>2012-07-18T10:40:40Z</time>
<speed>2.600000</speed>
<extensions>
<speed>2.6</speed>
<temp>0.00</temp>
<bpm>0</bpm>
<rpm>0.00</rpm>
</extensions>
</trkpt>
<trkpt lat="64.148399353" lon="-21.941333771">
<ele>31.615723</ele>
<time>2012-07-18T10:40:45Z</time>
<speed>1.140000</speed>
<extensions>
<speed>1.1</speed>
<temp>0.00</temp>
<bpm>0</bpm>
<rpm>0.00</rpm>
</extensions>
</trkpt>
<trkpt lat="64.148506165" lon="-21.941358566">
<ele>23.832031</ele>
<time>2012-07-18T10:40:50Z</time>
<speed>1.410000</speed>
<extensions>
<speed>1.4</speed>
<temp>0.00</temp>
<bpm>0</bpm>
<rpm>0.00</rpm>
</extensions>
</trkpt>
<trkpt lat="64.148590088" lon="-21.941415787">
<ele>20.969727</ele>
<time>2012-07-18T10:40:55Z</time>
<speed>1.440000</speed>
<extensions>
<speed>1.4</speed>
<temp>0.00</temp>
<bpm>0</bpm>
<rpm>0.00</rpm>
</extensions>
</trkpt>
<trkpt lat="64.148674011" lon="-21.941514969">
<ele>19.740723</ele>
<time>2012-07-18T10:41:00Z</time>
<speed>1.690000</speed>
<extensions>
<speed>1.7</speed>
<temp>0.00</temp>
<bpm>0</bpm>
<rpm>0.00</rpm>
</extensions>
</trkpt>
<trkpt lat="64.148750305" lon="-21.941633224">
<ele>19.040527</ele>
<time>2012-07-18T10:41:05Z</time>
<speed>2.190000</speed>
<extensions>
<speed>2.2</speed>
<temp>0.00</temp>
<bpm>0</bpm>
<rpm>0.00</rpm>
</extensions>
</trkpt>
<trkpt lat="64.148834229" lon="-21.941690445">
<ele>17.473145</ele>
<time>2012-07-18T10:41:10Z</time>
<speed>1.260000</speed>
<extensions>
<speed>1.3</speed>
<temp>0.00</temp>
<bpm>0</bpm>
<rpm>0.00</rpm>
</extensions>
</trkpt>
<trkpt lat="64.148918152" lon="-21.941715240">
<ele>16.685547</ele>
<time>2012-07-18T10:41:15Z</time>
<speed>1.910000</speed>
<extensions>
<speed>1.9</speed>
<temp>0.00</temp>
<bpm>0</bpm>
<rpm>0.00</rpm>
</extensions>
</trkpt>
<trkpt lat="64.149024963" lon="-21.941589355">
<ele>16.336914</ele>
<time>2012-07-18T10:41:20Z</time>
<speed>2.430000</speed>
<extensions>
<speed>2.4</speed>
<temp>0.00</temp>
<bpm>0</bpm>
<rpm>0.00</rpm>
</extensions>
</trkpt>
<trkpt lat="64.149108887" lon="-21.941427231">
<ele>18.650391</ele>
<time>2012-07-18T10:41:25Z</time>
<speed>2.190000</speed>
<extensions>
<speed>2.2</speed>
<temp>0.00</temp>
<bpm>0</bpm>
<rpm>0.00</rpm>
</extensions>
</trkpt>
<trkpt lat="64.149177551" lon="-21.941377640">
<ele>16.647461</ele>
<time>2012-07-18T10:41:30Z</time>
<speed>2.380000</speed>
<extensions>
<speed>2.4</speed>
<temp>0.00</temp>
<bpm>0</bpm>
<rpm>0.00</rpm>
</extensions>
</trkpt>
<trkpt lat="64.149269104" lon="-21.941587448">
<ele>16.475098</ele>
<time>2012-07-18T10:41:35Z</time>
<speed>3.420000</speed>
<extensions>
<speed>3.4</speed>
<temp>0.00</temp>
<bpm>0</bpm>
<rpm>0.00</rpm>
</extensions>
</trkpt>
<trkpt lat="64.149391174" lon="-21.941831589">
<ele>13.760254</ele>
<time>2012-07-18T10:41:40Z</time>
<speed>3.240000</speed>
<extensions>
<speed>3.2</speed>
<temp>0.00</temp>
<bpm>0</bpm>
<rpm>0.00</rpm>
</extensions>
</trkpt>
<trkpt lat="64.149475098" lon="-21.941797256">
<ele>12.084717</ele>
<time>2012-07-18T10:41:45Z</time>
<speed>2.240000</speed>
<extensions>
<speed>2.2</speed>
<temp>0.00</temp>
<bpm>0</bpm>
<rpm>0.00</rpm>
</extensions>
</trkpt>
<trkpt lat="64.149597168" lon="-21.941816330">
<ele>20.060059</ele>
<time>2012-07-18T10:41:50Z</time>
<speed>3.570000</speed>
<extensions>
<speed>3.6</speed>
<temp>0.00</temp>
<bpm>0</bpm>
<rpm>0.00</rpm>
</extensions>
</trkpt>
<trkpt lat="64.149742126" lon="-21.942047119">
<ele>26.586426</ele>
<time>2012-07-18T10:41:55Z</time>
<speed>4.750000</speed>
<extensions>
<speed>4.8</speed>
<temp>0.00</temp>
<bpm>0</bpm>
<rpm>0.00</rpm>
</extensions>
</trkpt>
<trkpt lat="64.149887085" lon="-21.942337036">
<ele>30.821777</ele>
<time>2012-07-18T10:42:00Z</time>
<speed>2.030000</speed>
<extensions>
<speed>2.0</speed>
<temp>0.00</temp>
<bpm>0</bpm>
<rpm>0.00</rpm>
</extensions>
</trkpt>
<trkpt lat="64.150032043" lon="-21.942459106">
<ele>42.506836</ele>
<time>2012-07-18T10:42:05Z</time>
<speed>0.240000</speed>
<extensions>
<speed>0.2</speed>
<temp>0.00</temp>
<bpm>0</bpm>
<rpm>0.00</rpm>
</extensions>
</trkpt>
<trkpt lat="64.150032043" lon="-21.942485809">
<ele>43.193359</ele>
<time>2012-07-18T10:42:10Z</time>
<speed>0.020000</speed>
<extensions>
<speed>0.0</speed>
<temp>0.00</temp>
<bpm>0</bpm>
<rpm>0.00</rpm>
</extensions>
</trkpt>
<trkpt lat="64.150032043" lon="-21.942487717">
<ele>43.583984</ele>
<time>2012-07-18T10:42:15Z</time>
<speed>0.030000</speed>
<extensions>
<speed>0.0</speed>
<temp>0.00</temp>
<bpm>0</bpm>
<rpm>0.00</rpm>
</extensions>
</trkpt>
<trkpt lat="64.150032043" lon="-21.942485809">
<ele>43.695313</ele>
<time>2012-07-18T10:42:20Z</time>
<speed>0.020000</speed>
<extensions>
<speed>0.0</speed>
<temp>0.00</temp>
<bpm>0</bpm>
<rpm>0.00</rpm>
</extensions>
</trkpt>
<trkpt lat="64.150032043" lon="-21.942485809">
<ele>43.668945</ele>
<time>2012-07-18T10:42:25Z</time>
<speed>0.040000</speed>
<extensions>
<speed>0.0</speed>
<temp>0.00</temp>
<bpm>0</bpm>
<rpm>0.00</rpm>
</extensions>
</trkpt>
<trkpt lat="64.150024414" lon="-21.942485809">
<ele>43.607422</ele>
<time>2012-07-18T10:42:30Z</time>
<speed>0.040000</speed>
<extensions>
<speed>0.0</speed>
<temp>0.00</temp>
<bpm>0</bpm>
<rpm>0.00</rpm>
</extensions>
</trkpt>
<trkpt lat="64.150032043" lon="-21.942485809">
<ele>43.428711</ele>
<time>2012-07-18T10:42:35Z</time>
<speed>0.010000</speed>
<extensions>
<speed>0.0</speed>
<temp>0.00</temp>
<bpm>0</bpm>
<rpm>0.00</rpm>
</extensions>
</trkpt>
<trkpt lat="64.150024414" lon="-21.942487717">
<ele>43.346680</ele>
<time>2012-07-18T10:42:40Z</time>
<speed>0.010000</speed>
<extensions>
<speed>0.0</speed>
<temp>0.00</temp>
<bpm>0</bpm>
<rpm>0.00</rpm>
</extensions>
</trkpt>
<trkpt lat="64.150024414" lon="-21.942489624">
<ele>43.296875</ele>
<time>2012-07-18T10:42:45Z</time>
<speed>0.030000</speed>
<extensions>
<speed>0.0</speed>
<temp>0.00</temp>
<bpm>0</bpm>
<rpm>0.00</rpm>
</extensions>
</trkpt>
<trkpt lat="64.150032043" lon="-21.942489624">
<ele>43.051758</ele>
<time>2012-07-18T10:42:50Z</time>
<speed>0.020000</speed>
<extensions>
<speed>0.0</speed>
<temp>0.00</temp>
<bpm>0</bpm>
<rpm>0.00</rpm>
</extensions>
</trkpt>
<trkpt lat="64.150032043" lon="-21.942489624">
<ele>42.994141</ele>
<time>2012-07-18T10:42:55Z</time>
<extensions>
<speed>0.0</speed>
<temp>0.00</temp>
<bpm>0</bpm>
<rpm>0.00</rpm>
</extensions>
</trkpt>
<trkpt lat="64.150032043" lon="-21.942491531">
<ele>42.960938</ele>
<time>2012-07-18T10:43:00Z</time>
<speed>1.380000</speed>
<extensions>
<speed>1.4</speed>
<temp>0.00</temp>
<bpm>0</bpm>
<rpm>0.00</rpm>
</extensions>
</trkpt>
<trkpt lat="64.150123596" lon="-21.942468643">
<ele>39.057617</ele>
<time>2012-07-18T10:43:05Z</time>
<speed>3.780000</speed>
<extensions>
<speed>3.8</speed>
<temp>0.00</temp>
<bpm>0</bpm>
<rpm>0.00</rpm>
</extensions>
</trkpt>
<trkpt lat="64.150299072" lon="-21.942657471">
<ele>33.284180</ele>
<time>2012-07-18T10:43:10Z</time>
<speed>4.570000</speed>
<extensions>
<speed>4.6</speed>
<temp>0.00</temp>
<bpm>0</bpm>
<rpm>0.00</rpm>
</extensions>
</trkpt>
<trkpt lat="64.150398254" lon="-21.943016052">
<ele>33.060547</ele>
<time>2012-07-18T10:43:15Z</time>
<speed>2.930000</speed>
<extensions>
<speed>2.9</speed>
<temp>0.00</temp>
<bpm>0</bpm>
<rpm>0.00</rpm>
</extensions>
</trkpt>
<trkpt lat="64.150543213" lon="-21.943281174">
<ele>34.274414</ele>
<time>2012-07-18T10:43:20Z</time>
<speed>4.300000</speed>
<extensions>
<speed>4.3</speed>
<temp>0.00</temp>
<bpm>0</bpm>
<rpm>0.00</rpm>
</extensions>
</trkpt>
<trkpt lat="64.150672913" lon="-21.943563461">
<ele>34.016602</ele>
<time>2012-07-18T10:43:25Z</time>
<speed>3.920000</speed>
<extensions>
<speed>3.9</speed>
<temp>0.00</temp>
<bpm>0</bpm>
<rpm>0.00</rpm>
</extensions>
</trkpt>
<trkpt lat="64.150764465" lon="-21.944005966">
<ele>31.991211</ele>
<time>2012-07-18T10:43:30Z</time>
<speed>4.240000</speed>
<extensions>
<speed>4.2</speed>
<temp>0.00</temp>
<bpm>0</bpm>
<rpm>0.00</rpm>
</extensions>
</trkpt>
<trkpt lat="64.150840759" lon="-21.944463730">
<ele>30.945801</ele>
<time>2012-07-18T10:43:35Z</time>
<speed>4.040000</speed>
<extensions>
<speed>4.0</speed>
<temp>0.00</temp>
<bpm>0</bpm>
<rpm>0.00</rpm>
</extensions>
</trkpt>
<trkpt lat="64.150863647" lon="-21.944925308">
<ele>32.500977</ele>
<time>2012-07-18T10:43:40Z</time>
<speed>3.940000</speed>
<extensions>
<speed>3.9</speed>
<temp>0.00</temp>
<bpm>0</bpm>
<rpm>0.00</rpm>
</extensions>
</trkpt>
<trkpt lat="64.150878906" lon="-21.945379257">
<ele>28.593750</ele>
<time>2012-07-18T10:43:45Z</time>
<speed>3.550000</speed>
<extensions>
<speed>3.5</speed>
<temp>0.00</temp>
<bpm>0</bpm>
<rpm>0.00</rpm>
</extensions>
</trkpt>
<trkpt lat="64.150886536" lon="-21.945810318">
<ele>25.184570</ele>
<time>2012-07-18T10:43:50Z</time>
<speed>4.020000</speed>
<extensions>
<speed>4.0</speed>
<temp>0.00</temp>
<bpm>0</bpm>
<rpm>0.00</rpm>
</extensions>
</trkpt>
<trkpt lat="64.150939941" lon="-21.946264267">
<ele>24.099609</ele>
<time>2012-07-18T10:43:55Z</time>
<speed>4.350000</speed>
<extensions>
<speed>4.3</speed>
<temp>0.00</temp>
<bpm>0</bpm>
<rpm>0.00</rpm>
</extensions>
</trkpt>
<trkpt lat="64.151008606" lon="-21.946729660">
<ele>24.204102</ele>
<time>2012-07-18T10:44:00Z</time>
<speed>4.870000</speed>
<extensions>
<speed>4.9</speed>
<temp>0.00</temp>
<bpm>0</bpm>
<rpm>0.00</rpm>
</extensions>
</trkpt>
<trkpt lat="64.151092529" lon="-21.947185516">
<ele>24.901855</ele>
<time>2012-07-18T10:44:05Z</time>
<speed>4.960000</speed>
<extensions>
<speed>5.0</speed>
<temp>0.00</temp>
<bpm>0</bpm>
<rpm>0.00</rpm>
</extensions>
</trkpt>
<trkpt lat="64.151176453" lon="-21.947635651">
<ele>26.301758</ele>
<time>2012-07-18T10:44:10Z</time>
<speed>5.110000</speed>
<extensions>
<speed>5.1</speed>
<temp>0.00</temp>
<bpm>0</bpm>
<rpm>0.00</rpm>
</extensions>
</trkpt>
<trkpt lat="64.151298523" lon="-21.948059082">
<ele>27.105469</ele>
<time>2012-07-18T10:44:15Z</time>
<speed>4.870000</speed>
<extensions>
<speed>4.9</speed>
<temp>0.00</temp>
<bpm>0</bpm>
<rpm>0.00</rpm>
</extensions>
</trkpt>
<trkpt lat="64.151466370" lon="-21.948457718">
<ele>22.055176</ele>
<time>2012-07-18T10:44:20Z</time>
<speed>4.930000</speed>
<extensions>
<speed>4.9</speed>
<temp>0.00</temp>
<bpm>0</bpm>
<rpm>0.00</rpm>
</extensions>
</trkpt>
<trkpt lat="64.151618958" lon="-21.948812485">
<ele>20.969238</ele>
<time>2012-07-18T10:44:25Z</time>
<speed>5.200000</speed>
<extensions>
<speed>5.2</speed>
<temp>0.00</temp>
<bpm>0</bpm>
<rpm>0.00</rpm>
</extensions>
</trkpt>
<trkpt lat="64.151771545" lon="-21.949209213">
<ele>20.981934</ele>
<time>2012-07-18T10:44:30Z</time>
<speed>5.270000</speed>
<extensions>
<speed>5.3</speed>
<temp>0.00</temp>
<bpm>0</bpm>
<rpm>0.00</rpm>
</extensions>
</trkpt>
<trkpt lat="64.151931763" lon="-21.949626923">
<ele>21.368652</ele>
<time>2012-07-18T10:44:35Z</time>
<speed>5.250000</speed>
<extensions>
<speed>5.2</speed>
<temp>0.00</temp>
<bpm>0</bpm>
<rpm>0.00</rpm>
</extensions>
</trkpt>
<trkpt lat="64.152069092" lon="-21.950092316">
<ele>22.315430</ele>
<time>2012-07-18T10:44:40Z</time>
<speed>5.460000</speed>
<extensions>
<speed>5.5</speed>
<temp>0.00</temp>
<bpm>0</bpm>
<rpm>0.00</rpm>
</extensions>
</trkpt>
<trkpt lat="64.152191162" lon="-21.950498581">
<ele>23.680176</ele>
<time>2012-07-18T10:44:45Z</time>
<speed>4.450000</speed>
<extensions>
<speed>4.5</speed>
<temp>0.00</temp>
<bpm>0</bpm>
<rpm>0.00</rpm>
</extensions>
</trkpt>
<trkpt lat="64.152290344" lon="-21.950866699">
<ele>24.464844</ele>
<time>2012-07-18T10:44:50Z</time>
<speed>4.090000</speed>
<extensions>
<speed>4.1</speed>
<temp>0.00</temp>
<bpm>0</bpm>
<rpm>0.00</rpm>
</extensions>
</trkpt>
<trkpt lat="64.152381897" lon="-21.951223373">
<ele>24.723633</ele>
<time>2012-07-18T10:44:55Z</time>
<speed>4.010000</speed>
<extensions>
<speed>4.0</speed>
<temp>0.00</temp>
<bpm>0</bpm>
<rpm>0.00</rpm>
</extensions>
</trkpt>
<trkpt lat="64.152473450" lon="-21.951622009">
<ele>24.768555</ele>
<time>2012-07-18T10:45:00Z</time>
<speed>4.560000</speed>
<extensions>
<speed>4.6</speed>
<temp>0.00</temp>
<bpm>0</bpm>
<rpm>0.00</rpm>
</extensions>
</trkpt>
<trkpt lat="64.152618408" lon="-21.952001572">
<ele>24.374512</ele>
<time>2012-07-18T10:45:05Z</time>
<speed>5.510000</speed>
<extensions>
<speed>5.5</speed>
<temp>0.00</temp>
<bpm>0</bpm>
<rpm>0.00</rpm>
</extensions>
</trkpt>
<trkpt lat="64.152755737" lon="-21.952238083">
<ele>22.381348</ele>
<time>2012-07-18T10:45:10Z</time>
<speed>0.690000</speed>
<extensions>
<speed>0.7</speed>
<temp>0.00</temp>
<bpm>0</bpm>
<rpm>0.00</rpm>
</extensions>
</trkpt>
<trkpt lat="64.152809143" lon="-21.952274323">
<ele>18.464844</ele>
<time>2012-07-18T10:45:15Z</time>
<speed>2.970000</speed>
<extensions>
<speed>3.0</speed>
<temp>0.00</temp>
<bpm>0</bpm>
<rpm>0.00</rpm>
</extensions>
</trkpt>
<trkpt lat="64.152976990" lon="-21.952219009">
<ele>16.331543</ele>
<time>2012-07-18T10:45:20Z</time>
<speed>3.990000</speed>
<extensions>
<speed>4.0</speed>
<temp>0.00</temp>
<bpm>0</bpm>
<rpm>0.00</rpm>
</extensions>
</trkpt>
<trkpt lat="64.153137207" lon="-21.952413559">
<ele>15.646240</ele>
<time>2012-07-18T10:45:25Z</time>
<speed>4.220000</speed>
<extensions>
<speed>4.2</speed>
<temp>0.00</temp>
<bpm>0</bpm>
<rpm>0.00</rpm>
</extensions>
</trkpt>
<trkpt lat="64.153320313" lon="-21.952531815">
<ele>14.242432</ele>
<time>2012-07-18T10:45:30Z</time>
<speed>4.490000</speed>
<extensions>
<speed>4.5</speed>
<temp>0.00</temp>
<bpm>0</bpm>
<rpm>0.00</rpm>
</extensions>
</trkpt>
<trkpt lat="64.153533936" lon="-21.952470779">
<ele>13.177734</ele>
<time>2012-07-18T10:45:35Z</time>
<speed>5.100000</speed>
<extensions>
<speed>5.1</speed>
<temp>0.00</temp>
<bpm>0</bpm>
<rpm>0.00</rpm>
</extensions>
</trkpt>
<trkpt lat="64.153717041" lon="-21.952224731">
<ele>11.972412</ele>
<time>2012-07-18T10:45:40Z</time>
<speed>4.810000</speed>
<extensions>
<speed>4.8</speed>
<temp>0.00</temp>
<bpm>0</bpm>
<rpm>0.00</rpm>
</extensions>
</trkpt>
<trkpt lat="64.153854370" lon="-21.951852798">
<ele>12.184082</ele>
<time>2012-07-18T10:45:45Z</time>
<speed>4.640000</speed>
<extensions>
<speed>4.6</speed>
<temp>0.00</temp>
<bpm>0</bpm>
<rpm>0.00</rpm>
</extensions>
</trkpt>
<trkpt lat="64.153961182" lon="-21.951519012">
<ele>12.019043</ele>
<time>2012-07-18T10:45:50Z</time>
<speed>3.750000</speed>
<extensions>
<speed>3.8</speed>
<temp>0.00</temp>
<bpm>0</bpm>
<rpm>0.00</rpm>
</extensions>
</trkpt>
<trkpt lat="64.154113770" lon="-21.951534271">
<ele>11.545898</ele>
<time>2012-07-18T10:45:55Z</time>
<speed>3.270000</speed>
<extensions>
<speed>3.3</speed>
<temp>0.00</temp>
<bpm>0</bpm>
<rpm>0.00</rpm>
</extensions>
</trkpt>
<trkpt lat="64.154190063" lon="-21.951871872">
<ele>12.085938</ele>
<time>2012-07-18T10:46:00Z</time>
<speed>3.120000</speed>
<extensions>
<speed>3.1</speed>
<temp>0.00</temp>
<bpm>0</bpm>
<rpm>0.00</rpm>
</extensions>
</trkpt>
<trkpt lat="64.154151917" lon="-21.952106476">
<ele>12.070557</ele>
<time>2012-07-18T10:46:05Z</time>
<speed>0.530000</speed>
<extensions>
<speed>0.5</speed>
<temp>0.00</temp>
<bpm>0</bpm>
<rpm>0.00</rpm>
</extensions>
</trkpt>
<trkpt lat="64.154167175" lon="-21.952136993">
<ele>10.641357</ele>
<time>2012-07-18T10:46:10Z</time>
<speed>1.190000</speed>
<extensions>
<speed>1.2</speed>
<temp>0.00</temp>
<bpm>0</bpm>
<rpm>0.00</rpm>
</extensions>
</trkpt>
<trkpt lat="64.154129028" lon="-21.952266693">
<ele>8.436768</ele>
<time>2012-07-18T10:46:15Z</time>
<speed>2.130000</speed>
<extensions>
<speed>2.1</speed>
<temp>0.00</temp>
<bpm>0</bpm>
<rpm>0.00</rpm>
</extensions>
</trkpt>
<trkpt lat="64.154106140" lon="-21.952440262">
<ele>6.091553</ele>
<time>2012-07-18T10:46:20Z</time>
<speed>1.800000</speed>
<extensions>
<speed>1.8</speed>
<temp>0.00</temp>
<bpm>0</bpm>
<rpm>0.00</rpm>
</extensions>
</trkpt>
<trkpt lat="64.154098511" lon="-21.952623367">
<ele>3.349060</ele>
<time>2012-07-18T10:46:25Z</time>
<speed>1.260000</speed>
<extensions>
<speed>1.3</speed>
<temp>0.00</temp>
<bpm>0</bpm>
<rpm>0.00</rpm>
</extensions>
</trkpt>
<trkpt lat="64.154151917" lon="-21.952713013">
<ele>1.777740</ele>
<time>2012-07-18T10:46:30Z</time>
<speed>1.070000</speed>
<extensions>
<speed>1.1</speed>
<temp>0.00</temp>
<bpm>0</bpm>
<rpm>0.00</rpm>
</extensions>
</trkpt>
<trkpt lat="64.154159546" lon="-21.952703476">
<ele>1.169952</ele>
<time>2012-07-18T10:46:35Z</time>
<speed>0.360000</speed>
<extensions>
<speed>0.4</speed>
<temp>0.00</temp>
<bpm>0</bpm>
<rpm>0.00</rpm>
</extensions>
</trkpt>
<trkpt lat="64.154190063" lon="-21.952716827">
<ele>-0.000499</ele>
<time>2012-07-18T10:46:40Z</time>
<speed>0.840000</speed>
<extensions>
<speed>0.8</speed>
<temp>0.00</temp>
<bpm>0</bpm>
<rpm>0.00</rpm>
</extensions>
</trkpt>
<trkpt lat="64.154174805" lon="-21.952743530">
<ele>0.170021</ele>
<time>2012-07-18T10:46:45Z</time>
<speed>0.030000</speed>
<extensions>
<speed>0.0</speed>
<temp>0.00</temp>
<bpm>0</bpm>
<rpm>0.00</rpm>
</extensions>
</trkpt>
<trkpt lat="64.154167175" lon="-21.952758789">
<ele>0.098995</ele>
<time>2012-07-18T10:46:50Z</time>
<speed>0.950000</speed>
<extensions>
<speed>1.0</speed>
<temp>0.00</temp>
<bpm>0</bpm>
<rpm>0.00</rpm>
</extensions>
</trkpt>
<trkpt lat="64.154167175" lon="-21.952779770">
<ele>-0.120834</ele>
<time>2012-07-18T10:46:55Z</time>
<speed>0.020000</speed>
<extensions>
<speed>0.0</speed>
<temp>0.00</temp>
<bpm>0</bpm>
<rpm>0.00</rpm>
</extensions>
</trkpt>
<trkpt lat="64.154167175" lon="-21.952779770">
<ele>-0.267929</ele>
<time>2012-07-18T10:47:00Z</time>
<speed>0.050000</speed>
<extensions>
<speed>0.1</speed>
<temp>0.00</temp>
<bpm>0</bpm>
<rpm>0.00</rpm>
</extensions>
</trkpt>
<trkpt lat="64.154167175" lon="-21.952779770">
<ele>-0.394714</ele>
<time>2012-07-18T10:47:05Z</time>
<speed>0.020000</speed>
<extensions>
<speed>0.0</speed>
<temp>0.00</temp>
<bpm>0</bpm>
<rpm>0.00</rpm>
</extensions>
</trkpt>
<trkpt lat="64.154167175" lon="-21.952779770">
<ele>-0.324783</ele>
<time>2012-07-18T10:47:10Z</time>
<speed>0.020000</speed>
<extensions>
<speed>0.0</speed>
<temp>0.00</temp>
<bpm>0</bpm>
<rpm>0.00</rpm>
</extensions>
</trkpt>
<trkpt lat="64.154167175" lon="-21.952779770">
<ele>-0.329948</ele>
<time>2012-07-18T10:47:15Z</time>
<extensions>
<speed>0.0</speed>
<temp>0.00</temp>
<bpm>0</bpm>
<rpm>0.00</rpm>
</extensions>
</trkpt>
<trkpt lat="64.154167175" lon="-21.952779770">
<ele>-0.333344</ele>
<time>2012-07-18T10:47:20Z</time>
<speed>0.010000</speed>
<extensions>
<speed>0.0</speed>
<temp>0.00</temp>
<bpm>0</bpm>
<rpm>0.00</rpm>
</extensions>
</trkpt>
<trkpt lat="64.154167175" lon="-21.952779770">
<ele>-0.338715</ele>
<time>2012-07-18T10:47:25Z</time>
<extensions>
<speed>0.0</speed>
<temp>0.00</temp>
<bpm>0</bpm>
<rpm>0.00</rpm>
</extensions>
</trkpt>
<trkpt lat="64.154167175" lon="-21.952779770">
<ele>-0.331467</ele>
<time>2012-07-18T10:47:30Z</time>
<extensions>
<speed>0.0</speed>
<temp>0.00</temp>
<bpm>0</bpm>
<rpm>0.00</rpm>
</extensions>
</trkpt>
<trkpt lat="64.154167175" lon="-21.952779770">
<ele>-0.328506</ele>
<time>2012-07-18T10:47:35Z</time>
<extensions>
<speed>0.0</speed>
<temp>0.00</temp>
<bpm>0</bpm>
<rpm>0.00</rpm>
</extensions>
</trkpt>
<trkpt lat="64.154167175" lon="-21.952779770">
<ele>-0.325493</ele>
<time>2012-07-18T10:47:40Z</time>
<speed>0.010000</speed>
<extensions>
<speed>0.0</speed>
<temp>0.00</temp>
<bpm>0</bpm>
<rpm>0.00</rpm>
</extensions>
</trkpt>
<trkpt lat="64.154167175" lon="-21.952781677">
<ele>-0.307205</ele>
<time>2012-07-18T10:47:45Z</time>
<speed>0.010000</speed>
<extensions>
<speed>0.0</speed>
<temp>0.00</temp>
<bpm>0</bpm>
<rpm>0.00</rpm>
</extensions>
</trkpt>
<trkpt lat="64.154167175" lon="-21.952781677">
<ele>-0.287247</ele>
<time>2012-07-18T10:47:50Z</time>
<extensions>
<speed>0.0</speed>
<temp>0.00</temp>
<bpm>0</bpm>
<rpm>0.00</rpm>
</extensions>
</trkpt>
<trkpt lat="64.154167175" lon="-21.952781677">
<ele>-0.264854</ele>
<time>2012-07-18T10:47:55Z</time>
<speed>0.010000</speed>
<extensions>
<speed>0.0</speed>
<temp>0.00</temp>
<bpm>0</bpm>
<rpm>0.00</rpm>
</extensions>
</trkpt>
<trkpt lat="64.154167175" lon="-21.952783585">
<ele>-0.242069</ele>
<time>2012-07-18T10:48:00Z</time>
<speed>0.010000</speed>
<extensions>
<speed>0.0</speed>
<temp>0.00</temp>
<bpm>0</bpm>
<rpm>0.00</rpm>
</extensions>
</trkpt>
<trkpt lat="64.154167175" lon="-21.952783585">
<ele>-0.212227</ele>
<time>2012-07-18T10:48:05Z</time>
<speed>0.010000</speed>
<extensions>
<speed>0.0</speed>
<temp>0.00</temp>
<bpm>0</bpm>
<rpm>0.00</rpm>
</extensions>
</trkpt>
<trkpt lat="64.154167175" lon="-21.952785492">
<ele>-0.191826</ele>
<time>2012-07-18T10:48:10Z</time>
<speed>0.010000</speed>
<extensions>
<speed>0.0</speed>
<temp>0.00</temp>
<bpm>0</bpm>
<rpm>0.00</rpm>
</extensions>
</trkpt>
<trkpt lat="64.154167175" lon="-21.952785492">
<ele>-0.173496</ele>
<time>2012-07-18T10:48:15Z</time>
<speed>0.010000</speed>
<extensions>
<speed>0.0</speed>
<temp>0.00</temp>
<bpm>0</bpm>
<rpm>0.00</rpm>
</extensions>
</trkpt>
<trkpt lat="64.154167175" lon="-21.952785492">
<ele>-0.153500</ele>
<time>2012-07-18T10:48:20Z</time>
<extensions>
<speed>0.0</speed>
<temp>0.00</temp>
<bpm>0</bpm>
<rpm>0.00</rpm>
</extensions>
</trkpt>
<trkpt lat="64.154167175" lon="-21.952787399">
<ele>-0.135288</ele>
<time>2012-07-18T10:48:25Z</time>
<extensions>
<speed>0.0</speed>
<temp>0.00</temp>
<bpm>0</bpm>
<rpm>0.00</rpm>
</extensions>
</trkpt>
<trkpt lat="64.154167175" lon="-21.952787399">
<ele>-0.124456</ele>
<time>2012-07-18T10:48:30Z</time>
<extensions>
<speed>0.0</speed>
<temp>0.00</temp>
<bpm>0</bpm>
<rpm>0.00</rpm>
</extensions>
</trkpt>
<trkpt lat="64.154167175" lon="-21.952787399">
<ele>-0.116611</ele>
<time>2012-07-18T10:48:35Z</time>
<speed>0.010000</speed>
<extensions>
<speed>0.0</speed>
<temp>0.00</temp>
<bpm>0</bpm>
<rpm>0.00</rpm>
</extensions>
</trkpt>
<trkpt lat="64.154167175" lon="-21.952787399">
<ele>-0.109720</ele>
<time>2012-07-18T10:48:40Z</time>
<speed>0.010000</speed>
<extensions>
<speed>0.0</speed>
<temp>0.00</temp>
<bpm>0</bpm>
<rpm>0.00</rpm>
</extensions>
</trkpt>
<trkpt lat="64.154159546" lon="-21.952787399">
<ele>-0.105009</ele>
<time>2012-07-18T10:48:45Z</time>
<extensions>
<speed>0.0</speed>
<temp>0.00</temp>
<bpm>0</bpm>
<rpm>0.00</rpm>
</extensions>
</trkpt>
<trkpt lat="64.154159546" lon="-21.952789307">
<ele>-0.103140</ele>
<time>2012-07-18T10:48:50Z</time>
<extensions>
<speed>0.0</speed>
<temp>0.00</temp>
<bpm>0</bpm>
<rpm>0.00</rpm>
</extensions>
</trkpt>
<trkpt lat="64.154159546" lon="-21.952789307">
<ele>-0.096336</ele>
<time>2012-07-18T10:48:55Z</time>
<extensions>
<speed>0.0</speed>
<temp>0.00</temp>
<bpm>0</bpm>
<rpm>0.00</rpm>
</extensions>
</trkpt>
<trkpt lat="64.154159546" lon="-21.952789307">
<ele>-0.092232</ele>
<time>2012-07-18T10:49:00Z</time>
<extensions>
<speed>0.0</speed>
<temp>0.00</temp>
<bpm>0</bpm>
<rpm>0.00</rpm>
</extensions>
</trkpt>
<trkpt lat="64.154159546" lon="-21.952789307">
<ele>-0.084606</ele>
<time>2012-07-18T10:49:05Z</time>
<speed>0.010000</speed>
<extensions>
<speed>0.0</speed>
<temp>0.00</temp>
<bpm>0</bpm>
<rpm>0.00</rpm>
</extensions>
</trkpt>
<trkpt lat="64.154159546" lon="-21.952789307">
<ele>-0.074934</ele>
<time>2012-07-18T10:49:10Z</time>
<extensions>
<speed>0.0</speed>
<temp>0.00</temp>
<bpm>0</bpm>
<rpm>0.00</rpm>
</extensions>
</trkpt>
<trkpt lat="64.154159546" lon="-21.952789307">
<ele>-0.069555</ele>
<time>2012-07-18T10:49:15Z</time>
<extensions>
<speed>0.0</speed>
<temp>0.00</temp>
<bpm>0</bpm>
<rpm>0.00</rpm>
</extensions>
</trkpt>
<trkpt lat="64.154159546" lon="-21.952789307">
<ele>-0.066656</ele>
<time>2012-07-18T10:49:20Z</time>
<extensions>
<speed>0.0</speed>
<temp>0.00</temp>
<bpm>0</bpm>
<rpm>0.00</rpm>
</extensions>
</trkpt>
<trkpt lat="64.154159546" lon="-21.952791214">
<ele>-0.060022</ele>
<time>2012-07-18T10:49:25Z</time>
<speed>0.020000</speed>
<extensions>
<speed>0.0</speed>
<temp>0.00</temp>
<bpm>0</bpm>
<rpm>0.00</rpm>
</extensions>
</trkpt>
<trkpt lat="64.154159546" lon="-21.952791214">
<ele>-0.048233</ele>
<time>2012-07-18T10:49:30Z</time>
<extensions>
<speed>0.0</speed>
<temp>0.00</temp>
<bpm>0</bpm>
<rpm>0.00</rpm>
</extensions>
</trkpt>
<trkpt lat="64.154159546" lon="-21.952791214">
<ele>-0.044863</ele>
<time>2012-07-18T10:49:35Z</time>
<speed>0.030000</speed>
<extensions>
<speed>0.0</speed>
<temp>0.00</temp>
<bpm>0</bpm>
<rpm>0.00</rpm>
</extensions>
</trkpt>
<trkpt lat="64.154159546" lon="-21.952791214">
<ele>-0.039105</ele>
<time>2012-07-18T10:49:40Z</time>
<extensions>
<speed>0.0</speed>
<temp>0.00</temp>
<bpm>0</bpm>
<rpm>0.00</rpm>
</extensions>
</trkpt>
<trkpt lat="64.154159546" lon="-21.952791214">
<ele>-0.035101</ele>
<time>2012-07-18T10:49:45Z</time>
<extensions>
<speed>0.0</speed>
<temp>0.00</temp>
<bpm>0</bpm>
<rpm>0.00</rpm>
</extensions>
</trkpt>
<trkpt lat="64.154159546" lon="-21.952791214">
<ele>-0.035518</ele>
<time>2012-07-18T10:49:50Z</time>
<extensions>
<speed>0.0</speed>
<temp>0.00</temp>
<bpm>0</bpm>
<rpm>0.00</rpm>
</extensions>
</trkpt>
<trkpt lat="64.154159546" lon="-21.952791214">
<ele>-0.031363</ele>
<time>2012-07-18T10:49:55Z</time>
<extensions>
<speed>0.0</speed>
<temp>0.00</temp>
<bpm>0</bpm>
<rpm>0.00</rpm>
</extensions>
</trkpt>
<trkpt lat="64.154159546" lon="-21.952791214">
<ele>-0.030404</ele>
<time>2012-07-18T10:50:00Z</time>
<speed>0.010000</speed>
<extensions>
<speed>0.0</speed>
<temp>0.00</temp>
<bpm>0</bpm>
<rpm>0.00</rpm>
</extensions>
</trkpt>
<trkpt lat="64.154159546" lon="-21.952789307">
<ele>-0.031486</ele>
<time>2012-07-18T10:50:05Z</time>
<extensions>
<speed>0.0</speed>
<temp>0.00</temp>
<bpm>0</bpm>
<rpm>0.00</rpm>
</extensions>
</trkpt>
<trkpt lat="64.154159546" lon="-21.952789307">
<ele>-0.034057</ele>
<time>2012-07-18T10:50:10Z</time>
<speed>0.010000</speed>
<extensions>
<speed>0.0</speed>
<temp>0.00</temp>
<bpm>0</bpm>
<rpm>0.00</rpm>
</extensions>
</trkpt>
<trkpt lat="64.154159546" lon="-21.952789307">
<ele>-0.025607</ele>
<time>2012-07-18T10:50:15Z</time>
<speed>0.010000</speed>
<extensions>
<speed>0.0</speed>
<temp>0.00</temp>
<bpm>0</bpm>
<rpm>0.00</rpm>
</extensions>
</trkpt>
<trkpt lat="64.154159546" lon="-21.952789307">
<ele>-0.022815</ele>
<time>2012-07-18T10:50:20Z</time>
<extensions>
<speed>0.0</speed>
<temp>0.00</temp>
<bpm>0</bpm>
<rpm>0.00</rpm>
</extensions>
</trkpt>
<trkpt lat="64.154159546" lon="-21.952789307">
<ele>-0.016358</ele>
<time>2012-07-18T10:50:25Z</time>
<extensions>
<speed>0.0</speed>
<temp>0.00</temp>
<bpm>0</bpm>
<rpm>0.00</rpm>
</extensions>
</trkpt>
<trkpt lat="64.154159546" lon="-21.952789307">
<ele>-0.001942</ele>
<time>2012-07-18T10:50:30Z</time>
<speed>0.010000</speed>
<extensions>
<speed>0.0</speed>
<temp>0.00</temp>
<bpm>0</bpm>
<rpm>0.00</rpm>
</extensions>
</trkpt>
<trkpt lat="64.154159546" lon="-21.952789307">
<ele>0.002116</ele>
<time>2012-07-18T10:50:35Z</time>
<extensions>
<speed>0.0</speed>
<temp>0.00</temp>
<bpm>0</bpm>
<rpm>0.00</rpm>
</extensions>
</trkpt>
<trkpt lat="64.154159546" lon="-21.952789307">
<ele>0.015083</ele>
<time>2012-07-18T10:50:40Z</time>
<extensions>
<speed>0.0</speed>
<temp>0.00</temp>
<bpm>0</bpm>
<rpm>0.00</rpm>
</extensions>
</trkpt>
<trkpt lat="64.154159546" lon="-21.952789307">
<ele>0.032911</ele>
<time>2012-07-18T10:50:45Z</time>
<extensions>
<speed>0.0</speed>
<temp>0.00</temp>
<bpm>0</bpm>
<rpm>0.00</rpm>
</extensions>
</trkpt>
<trkpt lat="64.154159546" lon="-21.952789307">
<ele>0.051797</ele>
<time>2012-07-18T10:50:50Z</time>
<extensions>
<speed>0.0</speed>
<temp>0.00</temp>
<bpm>0</bpm>
<rpm>0.00</rpm>
</extensions>
</trkpt>
<trkpt lat="64.154159546" lon="-21.952789307">
<ele>0.068813</ele>
<time>2012-07-18T10:50:55Z</time>
<extensions>
<speed>0.0</speed>
<temp>0.00</temp>
<bpm>0</bpm>
<rpm>0.00</rpm>
</extensions>
</trkpt>
<trkpt lat="64.154159546" lon="-21.952789307">
<ele>0.091209</ele>
<time>2012-07-18T10:51:00Z</time>
<extensions>
<speed>0.0</speed>
<temp>0.00</temp>
<bpm>0</bpm>
<rpm>0.00</rpm>
</extensions>
</trkpt>
<trkpt lat="64.154159546" lon="-21.952789307">
<ele>0.110168</ele>
<time>2012-07-18T10:51:05Z</time>
<speed>0.010000</speed>
<extensions>
<speed>0.0</speed>
<temp>0.00</temp>
<bpm>0</bpm>
<rpm>0.00</rpm>
</extensions>
</trkpt>
<trkpt lat="64.154159546" lon="-21.952789307">
<ele>0.122213</ele>
<time>2012-07-18T10:51:10Z</time>
<extensions>
<speed>0.0</speed>
<temp>0.00</temp>
<bpm>0</bpm>
<rpm>0.00</rpm>
</extensions>
</trkpt>
<trkpt lat="64.154159546" lon="-21.952789307">
<ele>0.136917</ele>
<time>2012-07-18T10:51:15Z</time>
<extensions>
<speed>0.0</speed>
<temp>0.00</temp>
<bpm>0</bpm>
<rpm>0.00</rpm>
</extensions>
</trkpt>
<trkpt lat="64.154159546" lon="-21.952789307">
<ele>0.145397</ele>
<time>2012-07-18T10:51:20Z</time>
<speed>0.010000</speed>
<extensions>
<speed>0.0</speed>
<temp>0.00</temp>
<bpm>0</bpm>
<rpm>0.00</rpm>
</extensions>
</trkpt>
<trkpt lat="64.154159546" lon="-21.952791214">
<ele>0.153847</ele>
<time>2012-07-18T10:51:25Z</time>
<speed>0.020000</speed>
<extensions>
<speed>0.0</speed>
<temp>0.00</temp>
<bpm>0</bpm>
<rpm>0.00</rpm>
</extensions>
</trkpt>
<trkpt lat="64.154159546" lon="-21.952791214">
<ele>0.156097</ele>
<time>2012-07-18T10:51:30Z</time>
<extensions>
<speed>0.0</speed>
<temp>0.00</temp>
<bpm>0</bpm>
<rpm>0.00</rpm>
</extensions>
</trkpt>
<trkpt lat="64.154159546" lon="-21.952789307">
<ele>0.161011</ele>
<time>2012-07-18T10:51:35Z</time>
<extensions>
<speed>0.0</speed>
<temp>0.00</temp>
<bpm>0</bpm>
<rpm>0.00</rpm>
</extensions>
</trkpt>
<trkpt lat="64.154159546" lon="-21.952789307">
<ele>0.172466</ele>
<time>2012-07-18T10:51:40Z</time>
<speed>0.010000</speed>
<extensions>
<speed>0.0</speed>
<temp>0.00</temp>
<bpm>0</bpm>
<rpm>0.00</rpm>
</extensions>
</trkpt>
<trkpt lat="64.154159546" lon="-21.952789307">
<ele>0.175735</ele>
<time>2012-07-18T10:51:45Z</time>
<speed>0.010000</speed>
<extensions>
<speed>0.0</speed>
<temp>0.00</temp>
<bpm>0</bpm>
<rpm>0.00</rpm>
</extensions>
</trkpt>
<trkpt lat="64.154159546" lon="-21.952789307">
<ele>0.192226</ele>
<time>2012-07-18T10:51:50Z</time>
<extensions>
<speed>0.0</speed>
<temp>0.00</temp>
<bpm>0</bpm>
<rpm>0.00</rpm>
</extensions>
</trkpt>
<trkpt lat="64.154159546" lon="-21.952791214">
<ele>0.215248</ele>
<time>2012-07-18T10:51:55Z</time>
<extensions>
<speed>0.0</speed>
<temp>0.00</temp>
<bpm>0</bpm>
<rpm>0.00</rpm>
</extensions>
</trkpt>
<trkpt lat="64.154159546" lon="-21.952791214">
<ele>0.233383</ele>
<time>2012-07-18T10:52:00Z</time>
<extensions>
<speed>0.0</speed>
<temp>0.00</temp>
<bpm>0</bpm>
<rpm>0.00</rpm>
</extensions>
</trkpt>
<trkpt lat="64.154159546" lon="-21.952791214">
<ele>0.259682</ele>
<time>2012-07-18T10:52:05Z</time>
<speed>0.020000</speed>
<extensions>
<speed>0.0</speed>
<temp>0.00</temp>
<bpm>0</bpm>
<rpm>0.00</rpm>
</extensions>
</trkpt>
<trkpt lat="64.154159546" lon="-21.952791214">
<ele>0.293457</ele>
<time>2012-07-18T10:52:10Z</time>
<speed>0.010000</speed>
<extensions>
<speed>0.0</speed>
<temp>0.00</temp>
<bpm>0</bpm>
<rpm>0.00</rpm>
</extensions>
</trkpt>
<trkpt lat="64.154159546" lon="-21.952791214">
<ele>0.317612</ele>
<time>2012-07-18T10:52:15Z</time>
<extensions>
<speed>0.0</speed>
<temp>0.00</temp>
<bpm>0</bpm>
<rpm>0.00</rpm>
</extensions>
</trkpt>
<trkpt lat="64.154159546" lon="-21.952791214">
<ele>0.344475</ele>
<time>2012-07-18T10:52:20Z</time>
<speed>0.010000</speed>
<extensions>
<speed>0.0</speed>
<temp>0.00</temp>
<bpm>0</bpm>
<rpm>0.00</rpm>
</extensions>
</trkpt>
<trkpt lat="64.154159546" lon="-21.952793121">
<ele>0.383270</ele>
<time>2012-07-18T10:52:25Z</time>
<extensions>
<speed>0.0</speed>
<temp>0.00</temp>
<bpm>0</bpm>
<rpm>0.00</rpm>
</extensions>
</trkpt>
<trkpt lat="64.154159546" lon="-21.952793121">
<ele>0.411179</ele>
<time>2012-07-18T10:52:30Z</time>
<extensions>
<speed>0.0</speed>
<temp>0.00</temp>
<bpm>0</bpm>
<rpm>0.00</rpm>
</extensions>
</trkpt>
<trkpt lat="64.154159546" lon="-21.952793121">
<ele>0.430168</ele>
<time>2012-07-18T10:52:35Z</time>
<extensions>
<speed>0.0</speed>
<temp>0.00</temp>
<bpm>0</bpm>
<rpm>0.00</rpm>
</extensions>
</trkpt>
<trkpt lat="64.154159546" lon="-21.952795029">
<ele>0.449806</ele>
<time>2012-07-18T10:52:40Z</time>
<speed>0.010000</speed>
<extensions>
<speed>0.0</speed>
<temp>0.00</temp>
<bpm>0</bpm>
<rpm>0.00</rpm>
</extensions>
</trkpt>
<trkpt lat="64.154159546" lon="-21.952795029">
<ele>0.472015</ele>
<time>2012-07-18T10:52:45Z</time>
<extensions>
<speed>0.0</speed>
<temp>0.00</temp>
<bpm>0</bpm>
<rpm>0.00</rpm>
</extensions>
</trkpt>
<trkpt lat="64.154159546" lon="-21.952795029">
<ele>0.488060</ele>
<time>2012-07-18T10:52:50Z</time>
<speed>0.010000</speed>
<extensions>
<speed>0.0</speed>
<temp>0.00</temp>
<bpm>0</bpm>
<rpm>0.00</rpm>
</extensions>
</trkpt>
<trkpt lat="64.154159546" lon="-21.952796936">
<ele>0.502640</ele>
<time>2012-07-18T10:52:55Z</time>
<speed>0.010000</speed>
<extensions>
<speed>0.0</speed>
<temp>0.00</temp>
<bpm>0</bpm>
<rpm>0.00</rpm>
</extensions>
</trkpt>
<trkpt lat="64.154159546" lon="-21.952796936">
<ele>0.500061</ele>
<time>2012-07-18T10:53:00Z</time>
<speed>0.010000</speed>
<extensions>
<speed>0.0</speed>
<temp>0.00</temp>
<bpm>0</bpm>
<rpm>0.00</rpm>
</extensions>
</trkpt>
<trkpt lat="64.154159546" lon="-21.952796936">
<ele>0.507599</ele>
<time>2012-07-18T10:53:05Z</time>
<extensions>
<speed>0.0</speed>
<temp>0.00</temp>
<bpm>0</bpm>
<rpm>0.00</rpm>
</extensions>
</trkpt>
<trkpt lat="64.154159546" lon="-21.952796936">
<ele>0.490707</ele>
<time>2012-07-18T10:53:10Z</time>
<speed>0.010000</speed>
<extensions>
<speed>0.0</speed>
<temp>0.00</temp>
<bpm>0</bpm>
<rpm>0.00</rpm>
</extensions>
</trkpt>
<trkpt lat="64.154159546" lon="-21.952798843">
<ele>0.481667</ele>
<time>2012-07-18T10:53:15Z</time>
<speed>0.050000</speed>
<extensions>
<speed>0.1</speed>
<temp>0.00</temp>
<bpm>0</bpm>
<rpm>0.00</rpm>
</extensions>
</trkpt>
<trkpt lat="64.154159546" lon="-21.952802658">
<ele>0.517410</ele>
<time>2012-07-18T10:53:20Z</time>
<speed>0.020000</speed>
<extensions>
<speed>0.0</speed>
<temp>0.00</temp>
<bpm>0</bpm>
<rpm>0.00</rpm>
</extensions>
</trkpt>
<trkpt lat="64.154159546" lon="-21.952804565">
<ele>0.527328</ele>
<time>2012-07-18T10:53:25Z</time>
<speed>0.020000</speed>
<extensions>
<speed>0.0</speed>
<temp>0.00</temp>
<bpm>0</bpm>
<rpm>0.00</rpm>
</extensions>
</trkpt>
<trkpt lat="64.154159546" lon="-21.952804565">
<ele>0.526505</ele>
<time>2012-07-18T10:53:30Z</time>
<speed>0.010000</speed>
<extensions>
<speed>0.0</speed>
<temp>0.00</temp>
<bpm>0</bpm>
<rpm>0.00</rpm>
</extensions>
</trkpt>
<trkpt lat="64.154159546" lon="-21.952804565">
<ele>0.530014</ele>
<time>2012-07-18T10:53:35Z</time>
<speed>0.010000</speed>
<extensions>
<speed>0.0</speed>
<temp>0.00</temp>
<bpm>0</bpm>
<rpm>0.00</rpm>
</extensions>
</trkpt>
<trkpt lat="64.154159546" lon="-21.952806473">
<ele>0.539612</ele>
<time>2012-07-18T10:53:40Z</time>
<extensions>
<speed>0.0</speed>
<temp>0.00</temp>
<bpm>0</bpm>
<rpm>0.00</rpm>
</extensions>
</trkpt>
<trkpt lat="64.154159546" lon="-21.952806473">
<ele>0.534180</ele>
<time>2012-07-18T10:53:45Z</time>
<speed>0.010000</speed>
<extensions>
<speed>0.0</speed>
<temp>0.00</temp>
<bpm>0</bpm>
<rpm>0.00</rpm>
</extensions>
</trkpt>
<trkpt lat="64.154159546" lon="-21.952806473">
<ele>0.524506</ele>
<time>2012-07-18T10:53:50Z</time>
<speed>0.010000</speed>
<extensions>
<speed>0.0</speed>
<temp>0.00</temp>
<bpm>0</bpm>
<rpm>0.00</rpm>
</extensions>
</trkpt>
<trkpt lat="64.154159546" lon="-21.952806473">
<ele>0.510559</ele>
<time>2012-07-18T10:53:55Z</time>
<speed>0.010000</speed>
<extensions>
<speed>0.0</speed>
<temp>0.00</temp>
<bpm>0</bpm>
<rpm>0.00</rpm>
</extensions>
</trkpt>
<trkpt lat="64.154159546" lon="-21.952806473">
<ele>0.491508</ele>
<time>2012-07-18T10:54:00Z</time>
<speed>0.010000</speed>
<extensions>
<speed>0.0</speed>
<temp>0.00</temp>
<bpm>0</bpm>
<rpm>0.00</rpm>
</extensions>
</trkpt>
<trkpt lat="64.154159546" lon="-21.952806473">
<ele>0.481438</ele>
<time>2012-07-18T10:54:05Z</time>
<speed>0.010000</speed>
<extensions>
<speed>0.0</speed>
<temp>0.00</temp>
<bpm>0</bpm>
<rpm>0.00</rpm>
</extensions>
</trkpt>
<trkpt lat="64.154159546" lon="-21.952806473">
<ele>0.454887</ele>
<time>2012-07-18T10:54:10Z</time>
<speed>0.010000</speed>
<extensions>
<speed>0.0</speed>
<temp>0.00</temp>
<bpm>0</bpm>
<rpm>0.00</rpm>
</extensions>
</trkpt>
<trkpt lat="64.154159546" lon="-21.952806473">
<ele>0.435623</ele>
<time>2012-07-18T10:54:15Z</time>
<speed>0.010000</speed>
<extensions>
<speed>0.0</speed>
<temp>0.00</temp>
<bpm>0</bpm>
<rpm>0.00</rpm>
</extensions>
</trkpt>
<trkpt lat="64.154159546" lon="-21.952806473">
<ele>0.407639</ele>
<time>2012-07-18T10:54:20Z</time>
<extensions>
<speed>0.0</speed>
<temp>0.00</temp>
<bpm>0</bpm>
<rpm>0.00</rpm>
</extensions>
</trkpt>
<trkpt lat="64.154159546" lon="-21.952806473">
<ele>0.391510</ele>
<time>2012-07-18T10:54:25Z</time>
<speed>0.010000</speed>
<extensions>
<speed>0.0</speed>
<temp>0.00</temp>
<bpm>0</bpm>
<rpm>0.00</rpm>
</extensions>
</trkpt>
<trkpt lat="64.154159546" lon="-21.952806473">
<ele>0.385124</ele>
<time>2012-07-18T10:54:30Z</time>
<extensions>
<speed>0.0</speed>
<temp>0.00</temp>
<bpm>0</bpm>
<rpm>0.00</rpm>
</extensions>
</trkpt>
<trkpt lat="64.154159546" lon="-21.952806473">
<ele>0.384216</ele>
<time>2012-07-18T10:54:35Z</time>
<speed>0.020000</speed>
<extensions>
<speed>0.0</speed>
<temp>0.00</temp>
<bpm>0</bpm>
<rpm>0.00</rpm>
</extensions>
</trkpt>
<trkpt lat="64.154159546" lon="-21.952806473">
<ele>0.367958</ele>
<time>2012-07-18T10:54:40Z</time>
<extensions>
<speed>0.0</speed>
<temp>0.00</temp>
<bpm>0</bpm>
<rpm>0.00</rpm>
</extensions>
</trkpt>
<trkpt lat="64.154159546" lon="-21.952806473">
<ele>0.335953</ele>
<time>2012-07-18T10:54:45Z</time>
<extensions>
<speed>0.0</speed>
<temp>0.00</temp>
<bpm>0</bpm>
<rpm>0.00</rpm>
</extensions>
</trkpt>
<trkpt lat="64.154159546" lon="-21.952806473">
<ele>0.328911</ele>
<time>2012-07-18T10:54:50Z</time>
<extensions>
<speed>0.0</speed>
<temp>0.00</temp>
<bpm>0</bpm>
<rpm>0.00</rpm>
</extensions>
</trkpt>
<trkpt lat="64.154159546" lon="-21.952806473">
<ele>0.313248</ele>
<time>2012-07-18T10:54:55Z</time>
<extensions>
<speed>0.0</speed>
<temp>0.00</temp>
<bpm>0</bpm>
<rpm>0.00</rpm>
</extensions>
</trkpt>
<trkpt lat="64.154159546" lon="-21.952806473">
<ele>0.284424</ele>
<time>2012-07-18T10:55:00Z</time>
<speed>0.010000</speed>
<extensions>
<speed>0.0</speed>
<temp>0.00</temp>
<bpm>0</bpm>
<rpm>0.00</rpm>
</extensions>
</trkpt>
<trkpt lat="64.154159546" lon="-21.952806473">
<ele>0.277390</ele>
<time>2012-07-18T10:55:05Z</time>
<speed>0.010000</speed>
<extensions>
<speed>0.0</speed>
<temp>0.00</temp>
<bpm>0</bpm>
<rpm>0.00</rpm>
</extensions>
</trkpt>
<trkpt lat="64.154159546" lon="-21.952806473">
<ele>0.266739</ele>
<time>2012-07-18T10:55:10Z</time>
<extensions>
<speed>0.0</speed>
<temp>0.00</temp>
<bpm>0</bpm>
<rpm>0.00</rpm>
</extensions>
</trkpt>
<trkpt lat="64.154159546" lon="-21.952804565">
<ele>0.245255</ele>
<time>2012-07-18T10:55:15Z</time>
<speed>0.010000</speed>
<extensions>
<speed>0.0</speed>
<temp>0.00</temp>
<bpm>0</bpm>
<rpm>0.00</rpm>
</extensions>
</trkpt>
<trkpt lat="64.154159546" lon="-21.952804565">
<ele>0.232872</ele>
<time>2012-07-18T10:55:20Z</time>
<speed>0.010000</speed>
<extensions>
<speed>0.0</speed>
<temp>0.00</temp>
<bpm>0</bpm>
<rpm>0.00</rpm>
</extensions>
</trkpt>
<trkpt lat="64.154159546" lon="-21.952804565">
<ele>0.220749</ele>
<time>2012-07-18T10:55:25Z</time>
<speed>0.010000</speed>
<extensions>
<speed>0.0</speed>
<temp>0.00</temp>
<bpm>0</bpm>
<rpm>0.00</rpm>
</extensions>
</trkpt>
<trkpt lat="64.154159546" lon="-21.952804565">
<ele>0.206696</ele>
<time>2012-07-18T10:55:30Z</time>
<extensions>
<speed>0.0</speed>
<temp>0.00</temp>
<bpm>0</bpm>
<rpm>0.00</rpm>
</extensions>
</trkpt>
<trkpt lat="64.154159546" lon="-21.952804565">
<ele>0.203648</ele>
<time>2012-07-18T10:55:35Z</time>
<extensions>
<speed>0.0</speed>
<temp>0.00</temp>
<bpm>0</bpm>
<rpm>0.00</rpm>
</extensions>
</trkpt>
<trkpt lat="64.154159546" lon="-21.952804565">
<ele>0.204388</ele>
<time>2012-07-18T10:55:40Z</time>
<speed>0.010000</speed>
<extensions>
<speed>0.0</speed>
<temp>0.00</temp>
<bpm>0</bpm>
<rpm>0.00</rpm>
</extensions>
</trkpt>
<trkpt lat="64.154159546" lon="-21.952804565">
<ele>0.218147</ele>
<time>2012-07-18T10:55:45Z</time>
<extensions>
<speed>0.0</speed>
<temp>0.00</temp>
<bpm>0</bpm>
<rpm>0.00</rpm>
</extensions>
</trkpt>
<trkpt lat="64.154159546" lon="-21.952806473">
<ele>0.249832</ele>
<time>2012-07-18T10:55:50Z</time>
<extensions>
<speed>0.0</speed>
<temp>0.00</temp>
<bpm>0</bpm>
<rpm>0.00</rpm>
</extensions>
</trkpt>
<trkpt lat="64.154159546" lon="-21.952806473">
<ele>0.275421</ele>
<time>2012-07-18T10:55:55Z</time>
<extensions>
<speed>0.0</speed>
<temp>0.00</temp>
<bpm>0</bpm>
<rpm>0.00</rpm>
</extensions>
</trkpt>
<trkpt lat="64.154159546" lon="-21.952806473">
<ele>0.299133</ele>
<time>2012-07-18T10:56:00Z</time>
<extensions>
<speed>0.0</speed>
<temp>0.00</temp>
<bpm>0</bpm>
<rpm>0.00</rpm>
</extensions>
</trkpt>
<trkpt lat="64.154159546" lon="-21.952806473">
<ele>0.307159</ele>
<time>2012-07-18T10:56:05Z</time>
<extensions>
<speed>0.0</speed>
<temp>0.00</temp>
<bpm>0</bpm>
<rpm>0.00</rpm>
</extensions>
</trkpt>
<trkpt lat="64.154159546" lon="-21.952808380">
<ele>0.335686</ele>
<time>2012-07-18T10:56:10Z</time>
<speed>0.020000</speed>
<extensions>
<speed>0.0</speed>
<temp>0.00</temp>
<bpm>0</bpm>
<rpm>0.00</rpm>
</extensions>
</trkpt>
<trkpt lat="64.154159546" lon="-21.952808380">
<ele>0.346184</ele>
<time>2012-07-18T10:56:15Z</time>
<speed>0.010000</speed>
<extensions>
<speed>0.0</speed>
<temp>0.00</temp>
<bpm>0</bpm>
<rpm>0.00</rpm>
</extensions>
</trkpt>
<trkpt lat="64.154159546" lon="-21.952808380">
<ele>0.365387</ele>
<time>2012-07-18T10:56:20Z</time>
<extensions>
<speed>0.0</speed>
<temp>0.00</temp>
<bpm>0</bpm>
<rpm>0.00</rpm>
</extensions>
</trkpt>
<trkpt lat="64.154159546" lon="-21.952808380">
<ele>0.379288</ele>
<time>2012-07-18T10:56:25Z</time>
<extensions>
<speed>0.0</speed>
<temp>0.00</temp>
<bpm>0</bpm>
<rpm>0.00</rpm>
</extensions>
</trkpt>
<trkpt lat="64.154159546" lon="-21.952810287">
<ele>0.390457</ele>
<time>2012-07-18T10:56:30Z</time>
<speed>0.010000</speed>
<extensions>
<speed>0.0</speed>
<temp>0.00</temp>
<bpm>0</bpm>
<rpm>0.00</rpm>
</extensions>
</trkpt>
<trkpt lat="64.154159546" lon="-21.952810287">
<ele>0.390480</ele>
<time>2012-07-18T10:56:35Z</time>
<extensions>
<speed>0.0</speed>
<temp>0.00</temp>
<bpm>0</bpm>
<rpm>0.00</rpm>
</extensions>
</trkpt>
<trkpt lat="64.154159546" lon="-21.952810287">
<ele>0.392838</ele>
<time>2012-07-18T10:56:40Z</time>
<extensions>
<speed>0.0</speed>
<temp>0.00</temp>
<bpm>0</bpm>
<rpm>0.00</rpm>
</extensions>
</trkpt>
<trkpt lat="64.154159546" lon="-21.952810287">
<ele>0.386711</ele>
<time>2012-07-18T10:56:45Z</time>
<speed>0.010000</speed>
<extensions>
<speed>0.0</speed>
<temp>0.00</temp>
<bpm>0</bpm>
<rpm>0.00</rpm>
</extensions>
</trkpt>
<trkpt lat="64.154159546" lon="-21.952812195">
<ele>0.360390</ele>
<time>2012-07-18T10:56:50Z</time>
<speed>0.010000</speed>
<extensions>
<speed>0.0</speed>
<temp>0.00</temp>
<bpm>0</bpm>
<rpm>0.00</rpm>
</extensions>
</trkpt>
<trkpt lat="64.154159546" lon="-21.952814102">
<ele>0.330521</ele>
<time>2012-07-18T10:56:55Z</time>
<speed>0.020000</speed>
<extensions>
<speed>0.0</speed>
<temp>0.00</temp>
<bpm>0</bpm>
<rpm>0.00</rpm>
</extensions>
</trkpt>
<trkpt lat="64.154159546" lon="-21.952814102">
<ele>0.330833</ele>
<time>2012-07-18T10:57:00Z</time>
<speed>0.010000</speed>
<extensions>
<speed>0.0</speed>
<temp>0.00</temp>
<bpm>0</bpm>
<rpm>0.00</rpm>
</extensions>
</trkpt>
<trkpt lat="64.154159546" lon="-21.952816010">
<ele>0.367233</ele>
<time>2012-07-18T10:57:05Z</time>
<speed>0.040000</speed>
<extensions>
<speed>0.0</speed>
<temp>0.00</temp>
<bpm>0</bpm>
<rpm>0.00</rpm>
</extensions>
</trkpt>
<trkpt lat="64.154159546" lon="-21.952819824">
<ele>0.446228</ele>
<time>2012-07-18T10:57:10Z</time>
<speed>0.030000</speed>
<extensions>
<speed>0.0</speed>
<temp>0.00</temp>
<bpm>0</bpm>
<rpm>0.00</rpm>
</extensions>
</trkpt>
<trkpt lat="64.154151917" lon="-21.952821732">
<ele>0.535843</ele>
<time>2012-07-18T10:57:15Z</time>
<speed>0.060000</speed>
<extensions>
<speed>0.1</speed>
<temp>0.00</temp>
<bpm>0</bpm>
<rpm>0.00</rpm>
</extensions>
</trkpt>
<trkpt lat="64.154151917" lon="-21.952821732">
<ele>0.599472</ele>
<time>2012-07-18T10:57:20Z</time>
<speed>0.010000</speed>
<extensions>
<speed>0.0</speed>
<temp>0.00</temp>
<bpm>0</bpm>
<rpm>0.00</rpm>
</extensions>
</trkpt>
<trkpt lat="64.154151917" lon="-21.952821732">
<ele>0.603363</ele>
<time>2012-07-18T10:57:25Z</time>
<speed>0.030000</speed>
<extensions>
<speed>0.0</speed>
<temp>0.00</temp>
<bpm>0</bpm>
<rpm>0.00</rpm>
</extensions>
</trkpt>
<trkpt lat="64.154151917" lon="-21.952821732">
<ele>0.603241</ele>
<time>2012-07-18T10:57:30Z</time>
<speed>0.010000</speed>
<extensions>
<speed>0.0</speed>
<temp>0.00</temp>
<bpm>0</bpm>
<rpm>0.00</rpm>
</extensions>
</trkpt>
<trkpt lat="64.154151917" lon="-21.952821732">
<ele>0.580719</ele>
<time>2012-07-18T10:57:35Z</time>
<extensions>
<speed>0.0</speed>
<temp>0.00</temp>
<bpm>0</bpm>
<rpm>0.00</rpm>
</extensions>
</trkpt>
<trkpt lat="64.154151917" lon="-21.952821732">
<ele>0.564438</ele>
<time>2012-07-18T10:57:40Z</time>
<speed>0.010000</speed>
<extensions>
<speed>0.0</speed>
<temp>0.00</temp>
<bpm>0</bpm>
<rpm>0.00</rpm>
</extensions>
</trkpt>
<trkpt lat="64.154151917" lon="-21.952821732">
<ele>0.546051</ele>
<time>2012-07-18T10:57:45Z</time>
<speed>0.010000</speed>
<extensions>
<speed>0.0</speed>
<temp>0.00</temp>
<bpm>0</bpm>
<rpm>0.00</rpm>
</extensions>
</trkpt>
<trkpt lat="64.154151917" lon="-21.952823639">
<ele>0.522186</ele>
<time>2012-07-18T10:57:50Z</time>
<speed>0.010000</speed>
<extensions>
<speed>0.0</speed>
<temp>0.00</temp>
<bpm>0</bpm>
<rpm>0.00</rpm>
</extensions>
</trkpt>
<trkpt lat="64.154151917" lon="-21.952823639">
<ele>0.480629</ele>
<time>2012-07-18T10:57:55Z</time>
<speed>0.010000</speed>
<extensions>
<speed>0.0</speed>
<temp>0.00</temp>
<bpm>0</bpm>
<rpm>0.00</rpm>
</extensions>
</trkpt>
<trkpt lat="64.154151917" lon="-21.952823639">
<ele>0.461113</ele>
<time>2012-07-18T10:58:00Z</time>
<speed>0.020000</speed>
<extensions>
<speed>0.0</speed>
<temp>0.00</temp>
<bpm>0</bpm>
<rpm>0.00</rpm>
</extensions>
</trkpt>
<trkpt lat="64.154151917" lon="-21.952823639">
<ele>0.450897</ele>
<time>2012-07-18T10:58:05Z</time>
<speed>0.010000</speed>
<extensions>
<speed>0.0</speed>
<temp>0.00</temp>
<bpm>0</bpm>
<rpm>0.00</rpm>
</extensions>
</trkpt>
<trkpt lat="64.154151917" lon="-21.952823639">
<ele>0.445335</ele>
<time>2012-07-18T10:58:10Z</time>
<extensions>
<speed>0.0</speed>
<temp>0.00</temp>
<bpm>0</bpm>
<rpm>0.00</rpm>
</extensions>
</trkpt>
<trkpt lat="64.154151917" lon="-21.952823639">
<ele>0.436859</ele>
<time>2012-07-18T10:58:15Z</time>
<extensions>
<speed>0.0</speed>
<temp>0.00</temp>
<bpm>0</bpm>
<rpm>0.00</rpm>
</extensions>
</trkpt>
<trkpt lat="64.154151917" lon="-21.952825546">
<ele>0.438690</ele>
<time>2012-07-18T10:58:20Z</time>
<speed>0.010000</speed>
<extensions>
<speed>0.0</speed>
<temp>0.00</temp>
<bpm>0</bpm>
<rpm>0.00</rpm>
</extensions>
</trkpt>
<trkpt lat="64.154151917" lon="-21.952825546">
<ele>0.430405</ele>
<time>2012-07-18T10:58:25Z</time>
<extensions>
<speed>0.0</speed>
<temp>0.00</temp>
<bpm>0</bpm>
<rpm>0.00</rpm>
</extensions>
</trkpt>
<trkpt lat="64.154151917" lon="-21.952825546">
<ele>0.426392</ele>
<time>2012-07-18T10:58:30Z</time>
<extensions>
<speed>0.0</speed>
<temp>0.00</temp>
<bpm>0</bpm>
<rpm>0.00</rpm>
</extensions>
</trkpt>
<trkpt lat="64.154151917" lon="-21.952825546">
<ele>0.433670</ele>
<time>2012-07-18T10:58:35Z</time>
<extensions>
<speed>0.0</speed>
<temp>0.00</temp>
<bpm>0</bpm>
<rpm>0.00</rpm>
</extensions>
</trkpt>
<trkpt lat="64.154151917" lon="-21.952825546">
<ele>0.440849</ele>
<time>2012-07-18T10:58:40Z</time>
<extensions>
<speed>0.0</speed>
<temp>0.00</temp>
<bpm>0</bpm>
<rpm>0.00</rpm>
</extensions>
</trkpt>
<trkpt lat="64.154151917" lon="-21.952825546">
<ele>0.447311</ele>
<time>2012-07-18T10:58:45Z</time>
<extensions>
<speed>0.0</speed>
<temp>0.00</temp>
<bpm>0</bpm>
<rpm>0.00</rpm>
</extensions>
</trkpt>
<trkpt lat="64.154151917" lon="-21.952825546">
<ele>0.453888</ele>
<time>2012-07-18T10:58:50Z</time>
<extensions>
<speed>0.0</speed>
<temp>0.00</temp>
<bpm>0</bpm>
<rpm>0.00</rpm>
</extensions>
</trkpt>
<trkpt lat="64.154151917" lon="-21.952825546">
<ele>0.458397</ele>
<time>2012-07-18T10:58:55Z</time>
<extensions>
<speed>0.0</speed>
<temp>0.00</temp>
<bpm>0</bpm>
<rpm>0.00</rpm>
</extensions>
</trkpt>
<trkpt lat="64.154151917" lon="-21.952825546">
<ele>0.453560</ele>
<time>2012-07-18T10:59:00Z</time>
<extensions>
<speed>0.0</speed>
<temp>0.00</temp>
<bpm>0</bpm>
<rpm>0.00</rpm>
</extensions>
</trkpt>
<trkpt lat="64.154151917" lon="-21.952825546">
<ele>0.458359</ele>
<time>2012-07-18T10:59:05Z</time>
<speed>0.010000</speed>
<extensions>
<speed>0.0</speed>
<temp>0.00</temp>
<bpm>0</bpm>
<rpm>0.00</rpm>
</extensions>
</trkpt>
<trkpt lat="64.154151917" lon="-21.952827454">
<ele>0.468636</ele>
<time>2012-07-18T10:59:10Z</time>
<speed>0.020000</speed>
<extensions>
<speed>0.0</speed>
<temp>0.00</temp>
<bpm>0</bpm>
<rpm>0.00</rpm>
</extensions>
</trkpt>
<trkpt lat="64.154151917" lon="-21.952827454">
<ele>0.473663</ele>
<time>2012-07-18T10:59:15Z</time>
<extensions>
<speed>0.0</speed>
<temp>0.00</temp>
<bpm>0</bpm>
<rpm>0.00</rpm>
</extensions>
</trkpt>
<trkpt lat="64.154151917" lon="-21.952827454">
<ele>0.483398</ele>
<time>2012-07-18T10:59:20Z</time>
<extensions>
<speed>0.0</speed>
<temp>0.00</temp>
<bpm>0</bpm>
<rpm>0.00</rpm>
</extensions>
</trkpt>
<trkpt lat="64.154151917" lon="-21.952827454">
<ele>0.499107</ele>
<time>2012-07-18T10:59:25Z</time>
<speed>0.010000</speed>
<extensions>
<speed>0.0</speed>
<temp>0.00</temp>
<bpm>0</bpm>
<rpm>0.00</rpm>
</extensions>
</trkpt>
<trkpt lat="64.154151917" lon="-21.952827454">
<ele>0.503433</ele>
<time>2012-07-18T10:59:30Z</time>
<extensions>
<speed>0.0</speed>
<temp>0.00</temp>
<bpm>0</bpm>
<rpm>0.00</rpm>
</extensions>
</trkpt>
<trkpt lat="64.154151917" lon="-21.952827454">
<ele>0.507385</ele>
<time>2012-07-18T10:59:35Z</time>
<extensions>
<speed>0.0</speed>
<temp>0.00</temp>
<bpm>0</bpm>
<rpm>0.00</rpm>
</extensions>
</trkpt>
<trkpt lat="64.154151917" lon="-21.952827454">
<ele>0.510559</ele>
<time>2012-07-18T10:59:40Z</time>
<extensions>
<speed>0.0</speed>
<temp>0.00</temp>
<bpm>0</bpm>
<rpm>0.00</rpm>
</extensions>
</trkpt>
<trkpt lat="64.154151917" lon="-21.952827454">
<ele>0.504578</ele>
<time>2012-07-18T10:59:45Z</time>
<extensions>
<speed>0.0</speed>
<temp>0.00</temp>
<bpm>0</bpm>
<rpm>0.00</rpm>
</extensions>
</trkpt>
<trkpt lat="64.154151917" lon="-21.952827454">
<ele>0.502350</ele>
<time>2012-07-18T10:59:50Z</time>
<extensions>
<speed>0.0</speed>
<temp>0.00</temp>
<bpm>0</bpm>
<rpm>0.00</rpm>
</extensions>
</trkpt>
<trkpt lat="64.154151917" lon="-21.952829361">
<ele>0.454163</ele>
<time>2012-07-18T10:59:55Z</time>
<speed>0.070000</speed>
<extensions>
<speed>0.1</speed>
<temp>0.00</temp>
<bpm>0</bpm>
<rpm>0.00</rpm>
</extensions>
</trkpt>
<trkpt lat="64.154144287" lon="-21.952821732">
<ele>0.477501</ele>
<time>2012-07-18T11:00:00Z</time>
<speed>0.170000</speed>
<extensions>
<speed>0.2</speed>
<temp>0.00</temp>
<bpm>0</bpm>
<rpm>0.00</rpm>
</extensions>
</trkpt>
<trkpt lat="64.154144287" lon="-21.952814102">
<ele>-0.464752</ele>
<time>2012-07-18T11:00:05Z</time>
<speed>0.210000</speed>
<extensions>
<speed>0.2</speed>
<temp>0.00</temp>
<bpm>0</bpm>
<rpm>0.00</rpm>
</extensions>
</trkpt>
<trkpt lat="64.154144287" lon="-21.952814102">
<ele>-0.562546</ele>
<time>2012-07-18T11:00:10Z</time>
<speed>0.050000</speed>
<extensions>
<speed>0.1</speed>
<temp>0.00</temp>
<bpm>0</bpm>
<rpm>0.00</rpm>
</extensions>
</trkpt>
<trkpt lat="64.154144287" lon="-21.952798843">
<ele>-0.628845</ele>
<time>2012-07-18T11:00:15Z</time>
<speed>0.170000</speed>
<extensions>
<speed>0.2</speed>
<temp>0.00</temp>
<bpm>0</bpm>
<rpm>0.00</rpm>
</extensions>
</trkpt>
<trkpt lat="64.154151917" lon="-21.952789307">
<ele>-0.783524</ele>
<time>2012-07-18T11:00:20Z</time>
<speed>0.010000</speed>
<extensions>
<speed>0.0</speed>
<temp>0.00</temp>
<bpm>0</bpm>
<rpm>0.00</rpm>
</extensions>
</trkpt>
<trkpt lat="64.154151917" lon="-21.952783585">
<ele>-0.839905</ele>
<time>2012-07-18T11:00:25Z</time>
<speed>0.120000</speed>
<extensions>
<speed>0.1</speed>
<temp>0.00</temp>
<bpm>0</bpm>
<rpm>0.00</rpm>
</extensions>
</trkpt>
<trkpt lat="64.154144287" lon="-21.952785492">
<ele>-0.976181</ele>
<time>2012-07-18T11:00:30Z</time>
<speed>0.190000</speed>
<extensions>
<speed>0.2</speed>
<temp>0.00</temp>
<bpm>0</bpm>
<rpm>0.00</rpm>
</extensions>
</trkpt>
<trkpt lat="64.154136658" lon="-21.952789307">
<ele>-0.986359</ele>
<time>2012-07-18T11:00:35Z</time>
<speed>0.140000</speed>
<extensions>
<speed>0.1</speed>
<temp>0.00</temp>
<bpm>0</bpm>
<rpm>0.00</rpm>
</extensions>
</trkpt>
<trkpt lat="64.154129028" lon="-21.952796936">
<ele>-1.003296</ele>
<time>2012-07-18T11:00:40Z</time>
<speed>0.210000</speed>
<extensions>
<speed>0.2</speed>
<temp>0.00</temp>
<bpm>0</bpm>
<rpm>0.00</rpm>
</extensions>
</trkpt>
<trkpt lat="64.154129028" lon="-21.952819824">
<ele>-1.071136</ele>
<time>2012-07-18T11:00:45Z</time>
<speed>0.270000</speed>
<extensions>
<speed>0.3</speed>
<temp>0.00</temp>
<bpm>0</bpm>
<rpm>0.00</rpm>
</extensions>
</trkpt>
<trkpt lat="64.154121399" lon="-21.952844620">
<ele>-1.123108</ele>
<time>2012-07-18T11:00:50Z</time>
<speed>0.200000</speed>
<extensions>
<speed>0.2</speed>
<temp>0.00</temp>
<bpm>0</bpm>
<rpm>0.00</rpm>
</extensions>
</trkpt>
<trkpt lat="64.154113770" lon="-21.952861786">
<ele>-1.183289</ele>
<time>2012-07-18T11:00:55Z</time>
<speed>0.180000</speed>
<extensions>
<speed>0.2</speed>
<temp>0.00</temp>
<bpm>0</bpm>
<rpm>0.00</rpm>
</extensions>
</trkpt>
<trkpt lat="64.154113770" lon="-21.952875137">
<ele>-1.245728</ele>
<time>2012-07-18T11:01:00Z</time>
<speed>0.200000</speed>
<extensions>
<speed>0.2</speed>
<temp>0.00</temp>
<bpm>0</bpm>
<rpm>0.00</rpm>
</extensions>
</trkpt>
<trkpt lat="64.154098511" lon="-21.952882767">
<ele>-1.298950</ele>
<time>2012-07-18T11:01:05Z</time>
<speed>0.210000</speed>
<extensions>
<speed>0.2</speed>
<temp>0.00</temp>
<bpm>0</bpm>
<rpm>0.00</rpm>
</extensions>
</trkpt>
<trkpt lat="64.154090881" lon="-21.952886581">
<ele>-1.319763</ele>
<time>2012-07-18T11:01:10Z</time>
<speed>0.310000</speed>
<extensions>
<speed>0.3</speed>
<temp>0.00</temp>
<bpm>0</bpm>
<rpm>0.00</rpm>
</extensions>
</trkpt>
<trkpt lat="64.154060364" lon="-21.952905655">
<ele>-1.228943</ele>
<time>2012-07-18T11:01:15Z</time>
<speed>0.300000</speed>
<extensions>
<speed>0.3</speed>
<temp>0.00</temp>
<bpm>0</bpm>
<rpm>0.00</rpm>
</extensions>
</trkpt>
<trkpt lat="64.154029846" lon="-21.952949524">
<ele>-1.031311</ele>
<time>2012-07-18T11:01:20Z</time>
<speed>0.340000</speed>
<extensions>
<speed>0.3</speed>
<temp>0.00</temp>
<bpm>0</bpm>
<rpm>0.00</rpm>
</extensions>
</trkpt>
<trkpt lat="64.154006958" lon="-21.952962875">
<ele>-0.824600</ele>
<time>2012-07-18T11:01:25Z</time>
<speed>0.310000</speed>
<extensions>
<speed>0.3</speed>
<temp>0.00</temp>
<bpm>0</bpm>
<rpm>0.00</rpm>
</extensions>
</trkpt>
<trkpt lat="64.153999329" lon="-21.952939987">
<ele>-0.610123</ele>
<time>2012-07-18T11:01:30Z</time>
<speed>0.190000</speed>
<extensions>
<speed>0.2</speed>
<temp>0.00</temp>
<bpm>0</bpm>
<rpm>0.00</rpm>
</extensions>
</trkpt>
<trkpt lat="64.153991699" lon="-21.952938080">
<ele>-0.607391</ele>
<time>2012-07-18T11:01:35Z</time>
<speed>0.250000</speed>
<extensions>
<speed>0.2</speed>
<temp>0.00</temp>
<bpm>0</bpm>
<rpm>0.00</rpm>
</extensions>
</trkpt>
<trkpt lat="64.153984070" lon="-21.952934265">
<ele>-0.593704</ele>
<time>2012-07-18T11:01:40Z</time>
<speed>0.060000</speed>
<extensions>
<speed>0.1</speed>
<temp>0.00</temp>
<bpm>0</bpm>
<rpm>0.00</rpm>
</extensions>
</trkpt>
<trkpt lat="64.153984070" lon="-21.952932358">
<ele>-0.597473</ele>
<time>2012-07-18T11:01:45Z</time>
<speed>0.030000</speed>
<extensions>
<speed>0.0</speed>
<temp>0.00</temp>
<bpm>0</bpm>
<rpm>0.00</rpm>
</extensions>
</trkpt>
<trkpt lat="64.153984070" lon="-21.952930450">
<ele>-0.619659</ele>
<time>2012-07-18T11:01:50Z</time>
<speed>0.090000</speed>
<extensions>
<speed>0.1</speed>
<temp>0.00</temp>
<bpm>0</bpm>
<rpm>0.00</rpm>
</extensions>
</trkpt>
<trkpt lat="64.153991699" lon="-21.952926636">
<ele>-0.672882</ele>
<time>2012-07-18T11:01:55Z</time>
<speed>0.210000</speed>
<extensions>
<speed>0.2</speed>
<temp>0.00</temp>
<bpm>0</bpm>
<rpm>0.00</rpm>
</extensions>
</trkpt>
<trkpt lat="64.154014587" lon="-21.952892303">
<ele>-1.149811</ele>
<time>2012-07-18T11:02:00Z</time>
<speed>0.300000</speed>
<extensions>
<speed>0.3</speed>
<temp>0.00</temp>
<bpm>0</bpm>
<rpm>0.00</rpm>
</extensions>
</trkpt>
<trkpt lat="64.154029846" lon="-21.952844620">
<ele>-1.446411</ele>
<time>2012-07-18T11:02:05Z</time>
<speed>0.280000</speed>
<extensions>
<speed>0.3</speed>
<temp>0.00</temp>
<bpm>0</bpm>
<rpm>0.00</rpm>
</extensions>
</trkpt>
<trkpt lat="64.154060364" lon="-21.952833176">
<ele>-1.107147</ele>
<time>2012-07-18T11:02:10Z</time>
<speed>0.060000</speed>
<extensions>
<speed>0.1</speed>
<temp>0.00</temp>
<bpm>0</bpm>
<rpm>0.00</rpm>
</extensions>
</trkpt>
<trkpt lat="64.154067993" lon="-21.952844620">
<ele>-0.825409</ele>
<time>2012-07-18T11:02:15Z</time>
<extensions>
<speed>0.0</speed>
<temp>0.00</temp>
<bpm>0</bpm>
<rpm>0.00</rpm>
</extensions>
</trkpt>
<trkpt lat="64.154067993" lon="-21.952844620">
<ele>-0.817352</ele>
<time>2012-07-18T11:02:20Z</time>
<speed>0.010000</speed>
<extensions>
<speed>0.0</speed>
<temp>0.00</temp>
<bpm>0</bpm>
<rpm>0.00</rpm>
</extensions>
</trkpt>
<trkpt lat="64.154067993" lon="-21.952844620">
<ele>-0.839539</ele>
<time>2012-07-18T11:02:25Z</time>
<speed>0.010000</speed>
<extensions>
<speed>0.0</speed>
<temp>0.00</temp>
<bpm>0</bpm>
<rpm>0.00</rpm>
</extensions>
</trkpt>
<trkpt lat="64.154075623" lon="-21.952850342">
<ele>-0.833862</ele>
<time>2012-07-18T11:02:30Z</time>
<speed>0.230000</speed>
<extensions>
<speed>0.2</speed>
<temp>0.00</temp>
<bpm>0</bpm>
<rpm>0.00</rpm>
</extensions>
</trkpt>
<trkpt lat="64.154083252" lon="-21.952854156">
<ele>-0.839371</ele>
<time>2012-07-18T11:02:35Z</time>
<speed>0.110000</speed>
<extensions>
<speed>0.1</speed>
<temp>0.00</temp>
<bpm>0</bpm>
<rpm>0.00</rpm>
</extensions>
</trkpt>
<trkpt lat="64.154083252" lon="-21.952854156">
<ele>-0.882782</ele>
<time>2012-07-18T11:02:40Z</time>
<speed>0.010000</speed>
<extensions>
<speed>0.0</speed>
<temp>0.00</temp>
<bpm>0</bpm>
<rpm>0.00</rpm>
</extensions>
</trkpt>
<trkpt lat="64.154083252" lon="-21.952854156">
<ele>-0.934219</ele>
<time>2012-07-18T11:02:45Z</time>
<speed>0.020000</speed>
<extensions>
<speed>0.0</speed>
<temp>0.00</temp>
<bpm>0</bpm>
<rpm>0.00</rpm>
</extensions>
</trkpt>
<trkpt lat="64.154083252" lon="-21.952856064">
<ele>-0.951660</ele>
<time>2012-07-18T11:02:50Z</time>
<speed>0.010000</speed>
<extensions>
<speed>0.0</speed>
<temp>0.00</temp>
<bpm>0</bpm>
<rpm>0.00</rpm>
</extensions>
</trkpt>
<trkpt lat="64.154083252" lon="-21.952856064">
<ele>-0.940857</ele>
<time>2012-07-18T11:02:55Z</time>
<speed>0.010000</speed>
<extensions>
<speed>0.0</speed>
<temp>0.00</temp>
<bpm>0</bpm>
<rpm>0.00</rpm>
</extensions>
</trkpt>
<trkpt lat="64.154083252" lon="-21.952856064">
<ele>-0.931168</ele>
<time>2012-07-18T11:03:00Z</time>
<extensions>
<speed>0.0</speed>
<temp>0.00</temp>
<bpm>0</bpm>
<rpm>0.00</rpm>
</extensions>
</trkpt>
<trkpt lat="64.154083252" lon="-21.952856064">
<ele>-0.935364</ele>
<time>2012-07-18T11:03:05Z</time>
<speed>0.010000</speed>
<extensions>
<speed>0.0</speed>
<temp>0.00</temp>
<bpm>0</bpm>
<rpm>0.00</rpm>
</extensions>
</trkpt>
<trkpt lat="64.154083252" lon="-21.952856064">
<ele>-0.939682</ele>
<time>2012-07-18T11:03:10Z</time>
<speed>0.040000</speed>
<extensions>
<speed>0.0</speed>
<temp>0.00</temp>
<bpm>0</bpm>
<rpm>0.00</rpm>
</extensions>
</trkpt>
<trkpt lat="64.154083252" lon="-21.952856064">
<ele>-0.935471</ele>
<time>2012-07-18T11:03:15Z</time>
<extensions>
<speed>0.0</speed>
<temp>0.00</temp>
<bpm>0</bpm>
<rpm>0.00</rpm>
</extensions>
</trkpt>
<trkpt lat="64.154083252" lon="-21.952856064">
<ele>-0.937332</ele>
<time>2012-07-18T11:03:20Z</time>
<speed>0.020000</speed>
<extensions>
<speed>0.0</speed>
<temp>0.00</temp>
<bpm>0</bpm>
<rpm>0.00</rpm>
</extensions>
</trkpt>
<trkpt lat="64.154083252" lon="-21.952856064">
<ele>-0.934265</ele>
<time>2012-07-18T11:03:25Z</time>
<extensions>
<speed>0.0</speed>
<temp>0.00</temp>
<bpm>0</bpm>
<rpm>0.00</rpm>
</extensions>
</trkpt>
<trkpt lat="64.154083252" lon="-21.952856064">
<ele>-0.934540</ele>
<time>2012-07-18T11:03:30Z</time>
<speed>0.020000</speed>
<extensions>
<speed>0.0</speed>
<temp>0.00</temp>
<bpm>0</bpm>
<rpm>0.00</rpm>
</extensions>
</trkpt>
<trkpt lat="64.154083252" lon="-21.952856064">
<ele>-0.940643</ele>
<time>2012-07-18T11:03:35Z</time>
<extensions>
<speed>0.0</speed>
<temp>0.00</temp>
<bpm>0</bpm>
<rpm>0.00</rpm>
</extensions>
</trkpt>
<trkpt lat="64.154083252" lon="-21.952857971">
<ele>-0.944763</ele>
<time>2012-07-18T11:03:40Z</time>
<extensions>
<speed>0.0</speed>
<temp>0.00</temp>
<bpm>0</bpm>
<rpm>0.00</rpm>
</extensions>
</trkpt>
<trkpt lat="64.154083252" lon="-21.952857971">
<ele>-0.943344</ele>
<time>2012-07-18T11:03:45Z</time>
<speed>0.010000</speed>
<extensions>
<speed>0.0</speed>
<temp>0.00</temp>
<bpm>0</bpm>
<rpm>0.00</rpm>
</extensions>
</trkpt>
<trkpt lat="64.154083252" lon="-21.952857971">
<ele>-0.941193</ele>
<time>2012-07-18T11:03:50Z</time>
<extensions>
<speed>0.0</speed>
<temp>0.00</temp>
<bpm>0</bpm>
<rpm>0.00</rpm>
</extensions>
</trkpt>
<trkpt lat="64.154083252" lon="-21.952859879">
<ele>-0.923569</ele>
<time>2012-07-18T11:03:55Z</time>
<speed>0.030000</speed>
<extensions>
<speed>0.0</speed>
<temp>0.00</temp>
<bpm>0</bpm>
<rpm>0.00</rpm>
</extensions>
</trkpt>
<trkpt lat="64.154090881" lon="-21.952863693">
<ele>-0.853622</ele>
<time>2012-07-18T11:04:00Z</time>
<speed>0.050000</speed>
<extensions>
<speed>0.1</speed>
<temp>0.00</temp>
<bpm>0</bpm>
<rpm>0.00</rpm>
</extensions>
</trkpt>
<trkpt lat="64.154090881" lon="-21.952867508">
<ele>-0.781357</ele>
<time>2012-07-18T11:04:05Z</time>
<speed>0.010000</speed>
<extensions>
<speed>0.0</speed>
<temp>0.00</temp>
<bpm>0</bpm>
<rpm>0.00</rpm>
</extensions>
</trkpt>
<trkpt lat="64.154090881" lon="-21.952869415">
<ele>-0.774277</ele>
<time>2012-07-18T11:04:10Z</time>
<speed>0.010000</speed>
<extensions>
<speed>0.0</speed>
<temp>0.00</temp>
<bpm>0</bpm>
<rpm>0.00</rpm>
</extensions>
</trkpt>
<trkpt lat="64.154090881" lon="-21.952869415">
<ele>-0.770447</ele>
<time>2012-07-18T11:04:15Z</time>
<speed>0.030000</speed>
<extensions>
<speed>0.0</speed>
<temp>0.00</temp>
<bpm>0</bpm>
<rpm>0.00</rpm>
</extensions>
</trkpt>
<trkpt lat="64.154090881" lon="-21.952869415">
<ele>-0.760132</ele>
<time>2012-07-18T11:04:20Z</time>
<speed>0.020000</speed>
<extensions>
<speed>0.0</speed>
<temp>0.00</temp>
<bpm>0</bpm>
<rpm>0.00</rpm>
</extensions>
</trkpt>
<trkpt lat="64.154090881" lon="-21.952871323">
<ele>-0.741425</ele>
<time>2012-07-18T11:04:25Z</time>
<speed>0.020000</speed>
<extensions>
<speed>0.0</speed>
<temp>0.00</temp>
<bpm>0</bpm>
<rpm>0.00</rpm>
</extensions>
</trkpt>
<trkpt lat="64.154090881" lon="-21.952871323">
<ele>-0.725342</ele>
<time>2012-07-18T11:04:30Z</time>
<speed>0.010000</speed>
<extensions>
<speed>0.0</speed>
<temp>0.00</temp>
<bpm>0</bpm>
<rpm>0.00</rpm>
</extensions>
</trkpt>
<trkpt lat="64.154090881" lon="-21.952871323">
<ele>-0.710358</ele>
<time>2012-07-18T11:04:35Z</time>
<speed>0.020000</speed>
<extensions>
<speed>0.0</speed>
<temp>0.00</temp>
<bpm>0</bpm>
<rpm>0.00</rpm>
</extensions>
</trkpt>
<trkpt lat="64.154090881" lon="-21.952873230">
<ele>-0.696518</ele>
<time>2012-07-18T11:04:40Z</time>
<speed>0.030000</speed>
<extensions>
<speed>0.0</speed>
<temp>0.00</temp>
<bpm>0</bpm>
<rpm>0.00</rpm>
</extensions>
</trkpt>
<trkpt lat="64.154090881" lon="-21.952873230">
<ele>-0.686630</ele>
<time>2012-07-18T11:04:45Z</time>
<speed>0.010000</speed>
<extensions>
<speed>0.0</speed>
<temp>0.00</temp>
<bpm>0</bpm>
<rpm>0.00</rpm>
</extensions>
</trkpt>
<trkpt lat="64.154090881" lon="-21.952873230">
<ele>-0.692490</ele>
<time>2012-07-18T11:04:50Z</time>
<extensions>
<speed>0.0</speed>
<temp>0.00</temp>
<bpm>0</bpm>
<rpm>0.00</rpm>
</extensions>
</trkpt>
<trkpt lat="64.154090881" lon="-21.952873230">
<ele>-0.690201</ele>
<time>2012-07-18T11:04:55Z</time>
<speed>0.010000</speed>
<extensions>
<speed>0.0</speed>
<temp>0.00</temp>
<bpm>0</bpm>
<rpm>0.00</rpm>
</extensions>
</trkpt>
<trkpt lat="64.154090881" lon="-21.952873230">
<ele>-0.678589</ele>
<time>2012-07-18T11:05:00Z</time>
<extensions>
<speed>0.0</speed>
<temp>0.00</temp>
<bpm>0</bpm>
<rpm>0.00</rpm>
</extensions>
</trkpt>
<trkpt lat="64.154090881" lon="-21.952875137">
<ele>-0.653061</ele>
<time>2012-07-18T11:05:05Z</time>
<speed>0.020000</speed>
<extensions>
<speed>0.0</speed>
<temp>0.00</temp>
<bpm>0</bpm>
<rpm>0.00</rpm>
</extensions>
</trkpt>
<trkpt lat="64.154090881" lon="-21.952877045">
<ele>-0.603973</ele>
<time>2012-07-18T11:05:10Z</time>
<speed>0.020000</speed>
<extensions>
<speed>0.0</speed>
<temp>0.00</temp>
<bpm>0</bpm>
<rpm>0.00</rpm>
</extensions>
</trkpt>
<trkpt lat="64.154090881" lon="-21.952878952">
<ele>-0.528610</ele>
<time>2012-07-18T11:05:15Z</time>
<speed>0.030000</speed>
<extensions>
<speed>0.0</speed>
<temp>0.00</temp>
<bpm>0</bpm>
<rpm>0.00</rpm>
</extensions>
</trkpt>
<trkpt lat="64.154083252" lon="-21.952882767">
<ele>-0.444359</ele>
<time>2012-07-18T11:05:20Z</time>
<speed>0.020000</speed>
<extensions>
<speed>0.0</speed>
<temp>0.00</temp>
<bpm>0</bpm>
<rpm>0.00</rpm>
</extensions>
</trkpt>
<trkpt lat="64.154083252" lon="-21.952884674">
<ele>-0.332191</ele>
<time>2012-07-18T11:05:25Z</time>
<speed>0.040000</speed>
<extensions>
<speed>0.0</speed>
<temp>0.00</temp>
<bpm>0</bpm>
<rpm>0.00</rpm>
</extensions>
</trkpt>
<trkpt lat="64.154083252" lon="-21.952886581">
<ele>-0.216125</ele>
<time>2012-07-18T11:05:30Z</time>
<speed>0.010000</speed>
<extensions>
<speed>0.0</speed>
<temp>0.00</temp>
<bpm>0</bpm>
<rpm>0.00</rpm>
</extensions>
</trkpt>
<trkpt lat="64.154083252" lon="-21.952888489">
<ele>-0.102819</ele>
<time>2012-07-18T11:05:35Z</time>
<speed>0.020000</speed>
<extensions>
<speed>0.0</speed>
<temp>0.00</temp>
<bpm>0</bpm>
<rpm>0.00</rpm>
</extensions>
</trkpt>
<trkpt lat="64.154083252" lon="-21.952890396">
<ele>0.010356</ele>
<time>2012-07-18T11:05:40Z</time>
<speed>0.080000</speed>
<extensions>
<speed>0.1</speed>
<temp>0.00</temp>
<bpm>0</bpm>
<rpm>0.00</rpm>
</extensions>
</trkpt>
<trkpt lat="64.154090881" lon="-21.952894211">
<ele>0.124947</ele>
<time>2012-07-18T11:05:45Z</time>
<speed>0.090000</speed>
<extensions>
<speed>0.1</speed>
<temp>0.00</temp>
<bpm>0</bpm>
<rpm>0.00</rpm>
</extensions>
</trkpt>
<trkpt lat="64.154098511" lon="-21.952898026">
<ele>0.257256</ele>
<time>2012-07-18T11:05:50Z</time>
<speed>0.100000</speed>
<extensions>
<speed>0.1</speed>
<temp>0.00</temp>
<bpm>0</bpm>
<rpm>0.00</rpm>
</extensions>
</trkpt>
<trkpt lat="64.154098511" lon="-21.952903748">
<ele>0.419907</ele>
<time>2012-07-18T11:05:55Z</time>
<speed>0.080000</speed>
<extensions>
<speed>0.1</speed>
<temp>0.00</temp>
<bpm>0</bpm>
<rpm>0.00</rpm>
</extensions>
</trkpt>
<trkpt lat="64.154098511" lon="-21.952911377">
<ele>0.606552</ele>
<time>2012-07-18T11:06:00Z</time>
<speed>0.100000</speed>
<extensions>
<speed>0.1</speed>
<temp>0.00</temp>
<bpm>0</bpm>
<rpm>0.00</rpm>
</extensions>
</trkpt>
<trkpt lat="64.154106140" lon="-21.952919006">
<ele>0.826065</ele>
<time>2012-07-18T11:06:05Z</time>
<speed>0.150000</speed>
<extensions>
<speed>0.2</speed>
<temp>0.00</temp>
<bpm>0</bpm>
<rpm>0.00</rpm>
</extensions>
</trkpt>
<trkpt lat="64.154106140" lon="-21.952930450">
<ele>1.087433</ele>
<time>2012-07-18T11:06:10Z</time>
<speed>0.090000</speed>
<extensions>
<speed>0.1</speed>
<temp>0.00</temp>
<bpm>0</bpm>
<rpm>0.00</rpm>
</extensions>
</trkpt>
<trkpt lat="64.154113770" lon="-21.952936172">
<ele>1.323883</ele>
<time>2012-07-18T11:06:15Z</time>
<speed>0.070000</speed>
<extensions>
<speed>0.1</speed>
<temp>0.00</temp>
<bpm>0</bpm>
<rpm>0.00</rpm>
</extensions>
</trkpt>
<trkpt lat="64.154113770" lon="-21.952943802">
<ele>1.525970</ele>
<time>2012-07-18T11:06:20Z</time>
<speed>0.060000</speed>
<extensions>
<speed>0.1</speed>
<temp>0.00</temp>
<bpm>0</bpm>
<rpm>0.00</rpm>
</extensions>
</trkpt>
<trkpt lat="64.154113770" lon="-21.952947617">
<ele>1.685822</ele>
<time>2012-07-18T11:06:25Z</time>
<speed>0.020000</speed>
<extensions>
<speed>0.0</speed>
<temp>0.00</temp>
<bpm>0</bpm>
<rpm>0.00</rpm>
</extensions>
</trkpt>
<trkpt lat="64.154113770" lon="-21.952949524">
<ele>1.810883</ele>
<time>2012-07-18T11:06:30Z</time>
<speed>0.020000</speed>
<extensions>
<speed>0.0</speed>
<temp>0.00</temp>
<bpm>0</bpm>
<rpm>0.00</rpm>
</extensions>
</trkpt>
<trkpt lat="64.154113770" lon="-21.952951431">
<ele>1.912140</ele>
<time>2012-07-18T11:06:35Z</time>
<speed>0.030000</speed>
<extensions>
<speed>0.0</speed>
<temp>0.00</temp>
<bpm>0</bpm>
<rpm>0.00</rpm>
</extensions>
</trkpt>
<trkpt lat="64.154113770" lon="-21.952953339">
<ele>1.992981</ele>
<time>2012-07-18T11:06:40Z</time>
<speed>0.020000</speed>
<extensions>
<speed>0.0</speed>
<temp>0.00</temp>
<bpm>0</bpm>
<rpm>0.00</rpm>
</extensions>
</trkpt>
<trkpt lat="64.154106140" lon="-21.952951431">
<ele>2.017944</ele>
<time>2012-07-18T11:06:45Z</time>
<speed>0.050000</speed>
<extensions>
<speed>0.1</speed>
<temp>0.00</temp>
<bpm>0</bpm>
<rpm>0.00</rpm>
</extensions>
</trkpt>
<trkpt lat="64.154106140" lon="-21.952949524">
<ele>1.996765</ele>
<time>2012-07-18T11:06:50Z</time>
<extensions>
<speed>0.0</speed>
<temp>0.00</temp>
<bpm>0</bpm>
<rpm>0.00</rpm>
</extensions>
</trkpt>
<trkpt lat="64.154106140" lon="-21.952949524">
<ele>2.004150</ele>
<time>2012-07-18T11:06:55Z</time>
<speed>0.010000</speed>
<extensions>
<speed>0.0</speed>
<temp>0.00</temp>
<bpm>0</bpm>
<rpm>0.00</rpm>
</extensions>
</trkpt>
<trkpt lat="64.154106140" lon="-21.952949524">
<ele>2.000977</ele>
<time>2012-07-18T11:07:00Z</time>
<speed>0.020000</speed>
<extensions>
<speed>0.0</speed>
<temp>0.00</temp>
<bpm>0</bpm>
<rpm>0.00</rpm>
</extensions>
</trkpt>
<trkpt lat="64.154106140" lon="-21.952949524">
<ele>1.999237</ele>
<time>2012-07-18T11:07:05Z</time>
<extensions>
<speed>0.0</speed>
<temp>0.00</temp>
<bpm>0</bpm>
<rpm>0.00</rpm>
</extensions>
</trkpt>
<trkpt lat="64.154106140" lon="-21.952949524">
<ele>2.002869</ele>
<time>2012-07-18T11:07:10Z</time>
<speed>0.010000</speed>
<extensions>
<speed>0.0</speed>
<temp>0.00</temp>
<bpm>0</bpm>
<rpm>0.00</rpm>
</extensions>
</trkpt>
<trkpt lat="64.154106140" lon="-21.952949524">
<ele>2.007080</ele>
<time>2012-07-18T11:07:15Z</time>
<speed>0.020000</speed>
<extensions>
<speed>0.0</speed>
<temp>0.00</temp>
<bpm>0</bpm>
<rpm>0.00</rpm>
</extensions>
</trkpt>
<trkpt lat="64.154106140" lon="-21.952949524">
<ele>2.011353</ele>
<time>2012-07-18T11:07:20Z</time>
<extensions>
<speed>0.0</speed>
<temp>0.00</temp>
<bpm>0</bpm>
<rpm>0.00</rpm>
</extensions>
</trkpt>
<trkpt lat="64.154106140" lon="-21.952949524">
<ele>2.017395</ele>
<time>2012-07-18T11:07:25Z</time>
<speed>0.010000</speed>
<extensions>
<speed>0.0</speed>
<temp>0.00</temp>
<bpm>0</bpm>
<rpm>0.00</rpm>
</extensions>
</trkpt>
<trkpt lat="64.154106140" lon="-21.952949524">
<ele>2.020203</ele>
<time>2012-07-18T11:07:30Z</time>
<speed>0.030000</speed>
<extensions>
<speed>0.0</speed>
<temp>0.00</temp>
<bpm>0</bpm>
<rpm>0.00</rpm>
</extensions>
</trkpt>
<trkpt lat="64.154106140" lon="-21.952949524">
<ele>2.019836</ele>
<time>2012-07-18T11:07:35Z</time>
<speed>0.010000</speed>
<extensions>
<speed>0.0</speed>
<temp>0.00</temp>
<bpm>0</bpm>
<rpm>0.00</rpm>
</extensions>
</trkpt>
<trkpt lat="64.154106140" lon="-21.952949524">
<ele>2.010864</ele>
<time>2012-07-18T11:07:40Z</time>
<speed>0.010000</speed>
<extensions>
<speed>0.0</speed>
<temp>0.00</temp>
<bpm>0</bpm>
<rpm>0.00</rpm>
</extensions>
</trkpt>
<trkpt lat="64.154106140" lon="-21.952949524">
<ele>2.000671</ele>
<time>2012-07-18T11:07:45Z</time>
<extensions>
<speed>0.0</speed>
<temp>0.00</temp>
<bpm>0</bpm>
<rpm>0.00</rpm>
</extensions>
</trkpt>
<trkpt lat="64.154106140" lon="-21.952947617">
<ele>1.985016</ele>
<time>2012-07-18T11:07:50Z</time>
<speed>0.010000</speed>
<extensions>
<speed>0.0</speed>
<temp>0.00</temp>
<bpm>0</bpm>
<rpm>0.00</rpm>
</extensions>
</trkpt>
<trkpt lat="64.154106140" lon="-21.952949524">
<ele>1.975616</ele>
<time>2012-07-18T11:07:55Z</time>
<extensions>
<speed>0.0</speed>
<temp>0.00</temp>
<bpm>0</bpm>
<rpm>0.00</rpm>
</extensions>
</trkpt>
<trkpt lat="64.154106140" lon="-21.952947617">
<ele>1.968964</ele>
<time>2012-07-18T11:08:00Z</time>
<speed>0.010000</speed>
<extensions>
<speed>0.0</speed>
<temp>0.00</temp>
<bpm>0</bpm>
<rpm>0.00</rpm>
</extensions>
</trkpt>
<trkpt lat="64.154098511" lon="-21.952949524">
<ele>1.966675</ele>
<time>2012-07-18T11:08:05Z</time>
<extensions>
<speed>0.0</speed>
<temp>0.00</temp>
<bpm>0</bpm>
<rpm>0.00</rpm>
</extensions>
</trkpt>
<trkpt lat="64.154098511" lon="-21.952947617">
<ele>1.958893</ele>
<time>2012-07-18T11:08:10Z</time>
<extensions>
<speed>0.0</speed>
<temp>0.00</temp>
<bpm>0</bpm>
<rpm>0.00</rpm>
</extensions>
</trkpt>
<trkpt lat="64.154098511" lon="-21.952947617">
<ele>1.949463</ele>
<time>2012-07-18T11:08:15Z</time>
<extensions>
<speed>0.0</speed>
<temp>0.00</temp>
<bpm>0</bpm>
<rpm>0.00</rpm>
</extensions>
</trkpt>
<trkpt lat="64.154098511" lon="-21.952949524">
<ele>1.945038</ele>
<time>2012-07-18T11:08:20Z</time>
<speed>0.010000</speed>
<extensions>
<speed>0.0</speed>
<temp>0.00</temp>
<bpm>0</bpm>
<rpm>0.00</rpm>
</extensions>
</trkpt>
<trkpt lat="64.154098511" lon="-21.952949524">
<ele>1.944244</ele>
<time>2012-07-18T11:08:25Z</time>
<speed>0.020000</speed>
<extensions>
<speed>0.0</speed>
<temp>0.00</temp>
<bpm>0</bpm>
<rpm>0.00</rpm>
</extensions>
</trkpt>
<trkpt lat="64.154098511" lon="-21.952949524">
<ele>1.938873</ele>
<time>2012-07-18T11:08:30Z</time>
<extensions>
<speed>0.0</speed>
<temp>0.00</temp>
<bpm>0</bpm>
<rpm>0.00</rpm>
</extensions>
</trkpt>
<trkpt lat="64.154098511" lon="-21.952949524">
<ele>1.933472</ele>
<time>2012-07-18T11:08:35Z</time>
<extensions>
<speed>0.0</speed>
<temp>0.00</temp>
<bpm>0</bpm>
<rpm>0.00</rpm>
</extensions>
</trkpt>
<trkpt lat="64.154098511" lon="-21.952949524">
<ele>1.929291</ele>
<time>2012-07-18T11:08:40Z</time>
<extensions>
<speed>0.0</speed>
<temp>0.00</temp>
<bpm>0</bpm>
<rpm>0.00</rpm>
</extensions>
</trkpt>
<trkpt lat="64.154098511" lon="-21.952947617">
<ele>1.924652</ele>
<time>2012-07-18T11:08:45Z</time>
<extensions>
<speed>0.0</speed>
<temp>0.00</temp>
<bpm>0</bpm>
<rpm>0.00</rpm>
</extensions>
</trkpt>
<trkpt lat="64.154098511" lon="-21.952947617">
<ele>1.928894</ele>
<time>2012-07-18T11:08:50Z</time>
<extensions>
<speed>0.0</speed>
<temp>0.00</temp>
<bpm>0</bpm>
<rpm>0.00</rpm>
</extensions>
</trkpt>
<trkpt lat="64.154098511" lon="-21.952947617">
<ele>1.925415</ele>
<time>2012-07-18T11:08:55Z</time>
<speed>0.010000</speed>
<extensions>
<speed>0.0</speed>
<temp>0.00</temp>
<bpm>0</bpm>
<rpm>0.00</rpm>
</extensions>
</trkpt>
<trkpt lat="64.154098511" lon="-21.952947617">
<ele>1.926331</ele>
<time>2012-07-18T11:09:00Z</time>
<speed>0.010000</speed>
<extensions>
<speed>0.0</speed>
<temp>0.00</temp>
<bpm>0</bpm>
<rpm>0.00</rpm>
</extensions>
</trkpt>
<trkpt lat="64.154098511" lon="-21.952947617">
<ele>1.932373</ele>
<time>2012-07-18T11:09:05Z</time>
<speed>0.010000</speed>
<extensions>
<speed>0.0</speed>
<temp>0.00</temp>
<bpm>0</bpm>
<rpm>0.00</rpm>
</extensions>
</trkpt>
<trkpt lat="64.154098511" lon="-21.952947617">
<ele>1.935486</ele>
<time>2012-07-18T11:09:10Z</time>
<extensions>
<speed>0.0</speed>
<temp>0.00</temp>
<bpm>0</bpm>
<rpm>0.00</rpm>
</extensions>
</trkpt>
<trkpt lat="64.154098511" lon="-21.952947617">
<ele>1.932098</ele>
<time>2012-07-18T11:09:15Z</time>
<speed>0.010000</speed>
<extensions>
<speed>0.0</speed>
<temp>0.00</temp>
<bpm>0</bpm>
<rpm>0.00</rpm>
</extensions>
</trkpt>
<trkpt lat="64.154098511" lon="-21.952947617">
<ele>1.934052</ele>
<time>2012-07-18T11:09:20Z</time>
<speed>0.010000</speed>
<extensions>
<speed>0.0</speed>
<temp>0.00</temp>
<bpm>0</bpm>
<rpm>0.00</rpm>
</extensions>
</trkpt>
<trkpt lat="64.154098511" lon="-21.952947617">
<ele>1.933899</ele>
<time>2012-07-18T11:09:25Z</time>
<extensions>
<speed>0.0</speed>
<temp>0.00</temp>
<bpm>0</bpm>
<rpm>0.00</rpm>
</extensions>
</trkpt>
<trkpt lat="64.154098511" lon="-21.952947617">
<ele>1.942017</ele>
<time>2012-07-18T11:09:30Z</time>
<speed>0.010000</speed>
<extensions>
<speed>0.0</speed>
<temp>0.00</temp>
<bpm>0</bpm>
<rpm>0.00</rpm>
</extensions>
</trkpt>
<trkpt lat="64.154098511" lon="-21.952947617">
<ele>1.945770</ele>
<time>2012-07-18T11:09:35Z</time>
<extensions>
<speed>0.0</speed>
<temp>0.00</temp>
<bpm>0</bpm>
<rpm>0.00</rpm>
</extensions>
</trkpt>
<trkpt lat="64.154098511" lon="-21.952947617">
<ele>1.949463</ele>
<time>2012-07-18T11:09:40Z</time>
<extensions>
<speed>0.0</speed>
<temp>0.00</temp>
<bpm>0</bpm>
<rpm>0.00</rpm>
</extensions>
</trkpt>
<trkpt lat="64.154098511" lon="-21.952947617">
<ele>1.948364</ele>
<time>2012-07-18T11:09:45Z</time>
<speed>0.040000</speed>
<extensions>
<speed>0.0</speed>
<temp>0.00</temp>
<bpm>0</bpm>
<rpm>0.00</rpm>
</extensions>
</trkpt>
<trkpt lat="64.154098511" lon="-21.952947617">
<ele>1.940857</ele>
<time>2012-07-18T11:09:50Z</time>
<extensions>
<speed>0.0</speed>
<temp>0.00</temp>
<bpm>0</bpm>
<rpm>0.00</rpm>
</extensions>
</trkpt>
<trkpt lat="64.154098511" lon="-21.952947617">
<ele>1.940216</ele>
<time>2012-07-18T11:09:55Z</time>
<extensions>
<speed>0.0</speed>
<temp>0.00</temp>
<bpm>0</bpm>
<rpm>0.00</rpm>
</extensions>
</trkpt>
<trkpt lat="64.154098511" lon="-21.952947617">
<ele>1.939819</ele>
<time>2012-07-18T11:10:00Z</time>
<speed>0.010000</speed>
<extensions>
<speed>0.0</speed>
<temp>0.00</temp>
<bpm>0</bpm>
<rpm>0.00</rpm>
</extensions>
</trkpt>
<trkpt lat="64.154098511" lon="-21.952947617">
<ele>1.945587</ele>
<time>2012-07-18T11:10:05Z</time>
<speed>0.010000</speed>
<extensions>
<speed>0.0</speed>
<temp>0.00</temp>
<bpm>0</bpm>
<rpm>0.00</rpm>
</extensions>
</trkpt>
<trkpt lat="64.154098511" lon="-21.952947617">
<ele>1.943329</ele>
<time>2012-07-18T11:10:10Z</time>
<speed>0.010000</speed>
<extensions>
<speed>0.0</speed>
<temp>0.00</temp>
<bpm>0</bpm>
<rpm>0.00</rpm>
</extensions>
</trkpt>
<trkpt lat="64.154098511" lon="-21.952945709">
<ele>1.935120</ele>
<time>2012-07-18T11:10:15Z</time>
<speed>0.010000</speed>
<extensions>
<speed>0.0</speed>
<temp>0.00</temp>
<bpm>0</bpm>
<rpm>0.00</rpm>
</extensions>
</trkpt>
<trkpt lat="64.154098511" lon="-21.952945709">
<ele>1.928650</ele>
<time>2012-07-18T11:10:20Z</time>
<speed>0.010000</speed>
<extensions>
<speed>0.0</speed>
<temp>0.00</temp>
<bpm>0</bpm>
<rpm>0.00</rpm>
</extensions>
</trkpt>
<trkpt lat="64.154098511" lon="-21.952945709">
<ele>1.921143</ele>
<time>2012-07-18T11:10:25Z</time>
<speed>0.010000</speed>
<extensions>
<speed>0.0</speed>
<temp>0.00</temp>
<bpm>0</bpm>
<rpm>0.00</rpm>
</extensions>
</trkpt>
<trkpt lat="64.154098511" lon="-21.952945709">
<ele>1.904358</ele>
<time>2012-07-18T11:10:30Z</time>
<extensions>
<speed>0.0</speed>
<temp>0.00</temp>
<bpm>0</bpm>
<rpm>0.00</rpm>
</extensions>
</trkpt>
<trkpt lat="64.154098511" lon="-21.952945709">
<ele>1.875458</ele>
<time>2012-07-18T11:10:35Z</time>
<extensions>
<speed>0.0</speed>
<temp>0.00</temp>
<bpm>0</bpm>
<rpm>0.00</rpm>
</extensions>
</trkpt>
<trkpt lat="64.154098511" lon="-21.952945709">
<ele>1.809021</ele>
<time>2012-07-18T11:10:40Z</time>
<speed>0.020000</speed>
<extensions>
<speed>0.0</speed>
<temp>0.00</temp>
<bpm>0</bpm>
<rpm>0.00</rpm>
</extensions>
</trkpt>
<trkpt lat="64.154098511" lon="-21.952943802">
<ele>1.598083</ele>
<time>2012-07-18T11:10:45Z</time>
<speed>0.020000</speed>
<extensions>
<speed>0.0</speed>
<temp>0.00</temp>
<bpm>0</bpm>
<rpm>0.00</rpm>
</extensions>
</trkpt>
<trkpt lat="64.154098511" lon="-21.952943802">
<ele>1.502380</ele>
<time>2012-07-18T11:10:50Z</time>
<extensions>
<speed>0.0</speed>
<temp>0.00</temp>
<bpm>0</bpm>
<rpm>0.00</rpm>
</extensions>
</trkpt>
<trkpt lat="64.154098511" lon="-21.952941895">
<ele>1.457001</ele>
<time>2012-07-18T11:10:55Z</time>
<speed>0.010000</speed>
<extensions>
<speed>0.0</speed>
<temp>0.00</temp>
<bpm>0</bpm>
<rpm>0.00</rpm>
</extensions>
</trkpt>
<trkpt lat="64.154098511" lon="-21.952941895">
<ele>1.397247</ele>
<time>2012-07-18T11:11:00Z</time>
<extensions>
<speed>0.0</speed>
<temp>0.00</temp>
<bpm>0</bpm>
<rpm>0.00</rpm>
</extensions>
</trkpt>
<trkpt lat="64.154098511" lon="-21.952941895">
<ele>1.339996</ele>
<time>2012-07-18T11:11:05Z</time>
<extensions>
<speed>0.0</speed>
<temp>0.00</temp>
<bpm>0</bpm>
<rpm>0.00</rpm>
</extensions>
</trkpt>
<trkpt lat="64.154098511" lon="-21.952941895">
<ele>1.266724</ele>
<time>2012-07-18T11:11:10Z</time>
<extensions>
<speed>0.0</speed>
<temp>0.00</temp>
<bpm>0</bpm>
<rpm>0.00</rpm>
</extensions>
</trkpt>
<trkpt lat="64.154098511" lon="-21.952941895">
<ele>1.212463</ele>
<time>2012-07-18T11:11:15Z</time>
<speed>0.010000</speed>
<extensions>
<speed>0.0</speed>
<temp>0.00</temp>
<bpm>0</bpm>
<rpm>0.00</rpm>
</extensions>
</trkpt>
<trkpt lat="64.154098511" lon="-21.952939987">
<ele>1.157898</ele>
<time>2012-07-18T11:11:20Z</time>
<extensions>
<speed>0.0</speed>
<temp>0.00</temp>
<bpm>0</bpm>
<rpm>0.00</rpm>
</extensions>
</trkpt>
<trkpt lat="64.154098511" lon="-21.952939987">
<ele>1.109802</ele>
<time>2012-07-18T11:11:25Z</time>
<speed>0.010000</speed>
<extensions>
<speed>0.0</speed>
<temp>0.00</temp>
<bpm>0</bpm>
<rpm>0.00</rpm>
</extensions>
</trkpt>
<trkpt lat="64.154098511" lon="-21.952939987">
<ele>1.079193</ele>
<time>2012-07-18T11:11:30Z</time>
<speed>0.020000</speed>
<extensions>
<speed>0.0</speed>
<temp>0.00</temp>
<bpm>0</bpm>
<rpm>0.00</rpm>
</extensions>
</trkpt>
<trkpt lat="64.154098511" lon="-21.952939987">
<ele>1.061646</ele>
<time>2012-07-18T11:11:35Z</time>
<speed>0.010000</speed>
<extensions>
<speed>0.0</speed>
<temp>0.00</temp>
<bpm>0</bpm>
<rpm>0.00</rpm>
</extensions>
</trkpt>
<trkpt lat="64.154098511" lon="-21.952941895">
<ele>1.076385</ele>
<time>2012-07-18T11:11:40Z</time>
<speed>0.030000</speed>
<extensions>
<speed>0.0</speed>
<temp>0.00</temp>
<bpm>0</bpm>
<rpm>0.00</rpm>
</extensions>
</trkpt>
<trkpt lat="64.154098511" lon="-21.952941895">
<ele>1.068237</ele>
<time>2012-07-18T11:11:45Z</time>
<extensions>
<speed>0.0</speed>
<temp>0.00</temp>
<bpm>0</bpm>
<rpm>0.00</rpm>
</extensions>
</trkpt>
<trkpt lat="64.154098511" lon="-21.952941895">
<ele>1.060059</ele>
<time>2012-07-18T11:11:50Z</time>
<extensions>
<speed>0.0</speed>
<temp>0.00</temp>
<bpm>0</bpm>
<rpm>0.00</rpm>
</extensions>
</trkpt>
<trkpt lat="64.154098511" lon="-21.952941895">
<ele>1.054718</ele>
<time>2012-07-18T11:11:55Z</time>
<speed>0.030000</speed>
<extensions>
<speed>0.0</speed>
<temp>0.00</temp>
<bpm>0</bpm>
<rpm>0.00</rpm>
</extensions>
</trkpt>
<trkpt lat="64.154098511" lon="-21.952943802">
<ele>1.067200</ele>
<time>2012-07-18T11:12:00Z</time>
<speed>0.020000</speed>
<extensions>
<speed>0.0</speed>
<temp>0.00</temp>
<bpm>0</bpm>
<rpm>0.00</rpm>
</extensions>
</trkpt>
<trkpt lat="64.154098511" lon="-21.952945709">
<ele>1.060181</ele>
<time>2012-07-18T11:12:05Z</time>
<speed>0.010000</speed>
<extensions>
<speed>0.0</speed>
<temp>0.00</temp>
<bpm>0</bpm>
<rpm>0.00</rpm>
</extensions>
</trkpt>
<trkpt lat="64.154098511" lon="-21.952945709">
<ele>1.028168</ele>
<time>2012-07-18T11:12:10Z</time>
<speed>0.020000</speed>
<extensions>
<speed>0.0</speed>
<temp>0.00</temp>
<bpm>0</bpm>
<rpm>0.00</rpm>
</extensions>
</trkpt>
<trkpt lat="64.154098511" lon="-21.952945709">
<ele>0.992447</ele>
<time>2012-07-18T11:12:15Z</time>
<speed>0.020000</speed>
<extensions>
<speed>0.0</speed>
<temp>0.00</temp>
<bpm>0</bpm>
<rpm>0.00</rpm>
</extensions>
</trkpt>
<trkpt lat="64.154098511" lon="-21.952947617">
<ele>0.992325</ele>
<time>2012-07-18T11:12:20Z</time>
<speed>0.030000</speed>
<extensions>
<speed>0.0</speed>
<temp>0.00</temp>
<bpm>0</bpm>
<rpm>0.00</rpm>
</extensions>
</trkpt>
<trkpt lat="64.154098511" lon="-21.952947617">
<ele>0.993332</ele>
<time>2012-07-18T11:12:25Z</time>
<speed>0.020000</speed>
<extensions>
<speed>0.0</speed>
<temp>0.00</temp>
<bpm>0</bpm>
<rpm>0.00</rpm>
</extensions>
</trkpt>
<trkpt lat="64.154098511" lon="-21.952947617">
<ele>1.004486</ele>
<time>2012-07-18T11:12:30Z</time>
<extensions>
<speed>0.0</speed>
<temp>0.00</temp>
<bpm>0</bpm>
<rpm>0.00</rpm>
</extensions>
</trkpt>
<trkpt lat="64.154098511" lon="-21.952947617">
<ele>1.021606</ele>
<time>2012-07-18T11:12:35Z</time>
<speed>0.010000</speed>
<extensions>
<speed>0.0</speed>
<temp>0.00</temp>
<bpm>0</bpm>
<rpm>0.00</rpm>
</extensions>
</trkpt>
<trkpt lat="64.154098511" lon="-21.952949524">
<ele>1.037476</ele>
<time>2012-07-18T11:12:40Z</time>
<speed>0.030000</speed>
<extensions>
<speed>0.0</speed>
<temp>0.00</temp>
<bpm>0</bpm>
<rpm>0.00</rpm>
</extensions>
</trkpt>
<trkpt lat="64.154098511" lon="-21.952949524">
<ele>1.063507</ele>
<time>2012-07-18T11:12:45Z</time>
<speed>0.010000</speed>
<extensions>
<speed>0.0</speed>
<temp>0.00</temp>
<bpm>0</bpm>
<rpm>0.00</rpm>
</extensions>
</trkpt>
<trkpt lat="64.154098511" lon="-21.952949524">
<ele>1.081543</ele>
<time>2012-07-18T11:12:50Z</time>
<speed>0.010000</speed>
<extensions>
<speed>0.0</speed>
<temp>0.00</temp>
<bpm>0</bpm>
<rpm>0.00</rpm>
</extensions>
</trkpt>
<trkpt lat="64.154098511" lon="-21.952949524">
<ele>1.071594</ele>
<time>2012-07-18T11:12:55Z</time>
<speed>0.020000</speed>
<extensions>
<speed>0.0</speed>
<temp>0.00</temp>
<bpm>0</bpm>
<rpm>0.00</rpm>
</extensions>
</trkpt>
<trkpt lat="64.154098511" lon="-21.952949524">
<ele>1.078339</ele>
<time>2012-07-18T11:13:00Z</time>
<extensions>
<speed>0.0</speed>
<temp>0.00</temp>
<bpm>0</bpm>
<rpm>0.00</rpm>
</extensions>
</trkpt>
<trkpt lat="64.154098511" lon="-21.952955246">
<ele>1.103424</ele>
<time>2012-07-18T11:13:05Z</time>
<speed>0.120000</speed>
<extensions>
<speed>0.1</speed>
<temp>0.00</temp>
<bpm>0</bpm>
<rpm>0.00</rpm>
</extensions>
</trkpt>
<trkpt lat="64.154098511" lon="-21.952968597">
<ele>1.141022</ele>
<time>2012-07-18T11:13:10Z</time>
<speed>0.180000</speed>
<extensions>
<speed>0.2</speed>
<temp>0.00</temp>
<bpm>0</bpm>
<rpm>0.00</rpm>
</extensions>
</trkpt>
<trkpt lat="64.154090881" lon="-21.952987671">
<ele>1.193359</ele>
<time>2012-07-18T11:13:15Z</time>
<speed>0.160000</speed>
<extensions>
<speed>0.2</speed>
<temp>0.00</temp>
<bpm>0</bpm>
<rpm>0.00</rpm>
</extensions>
</trkpt>
<trkpt lat="64.154090881" lon="-21.953006744">
<ele>1.187683</ele>
<time>2012-07-18T11:13:20Z</time>
<speed>0.200000</speed>
<extensions>
<speed>0.2</speed>
<temp>0.00</temp>
<bpm>0</bpm>
<rpm>0.00</rpm>
</extensions>
</trkpt>
<trkpt lat="64.154090881" lon="-21.953025818">
<ele>1.085938</ele>
<time>2012-07-18T11:13:25Z</time>
<speed>0.170000</speed>
<extensions>
<speed>0.2</speed>
<temp>0.00</temp>
<bpm>0</bpm>
<rpm>0.00</rpm>
</extensions>
</trkpt>
<trkpt lat="64.154083252" lon="-21.953037262">
<ele>0.919800</ele>
<time>2012-07-18T11:13:30Z</time>
<speed>0.100000</speed>
<extensions>
<speed>0.1</speed>
<temp>0.00</temp>
<bpm>0</bpm>
<rpm>0.00</rpm>
</extensions>
</trkpt>
<trkpt lat="64.154083252" lon="-21.953041077">
<ele>0.721329</ele>
<time>2012-07-18T11:13:35Z</time>
<speed>0.150000</speed>
<extensions>
<speed>0.2</speed>
<temp>0.00</temp>
<bpm>0</bpm>
<rpm>0.00</rpm>
</extensions>
</trkpt>
<trkpt lat="64.154075623" lon="-21.953037262">
<ele>0.519409</ele>
<time>2012-07-18T11:13:40Z</time>
<speed>0.160000</speed>
<extensions>
<speed>0.2</speed>
<temp>0.00</temp>
<bpm>0</bpm>
<rpm>0.00</rpm>
</extensions>
</trkpt>
<trkpt lat="64.154067993" lon="-21.953035355">
<ele>0.399017</ele>
<time>2012-07-18T11:13:45Z</time>
<speed>0.200000</speed>
<extensions>
<speed>0.2</speed>
<temp>0.00</temp>
<bpm>0</bpm>
<rpm>0.00</rpm>
</extensions>
</trkpt>
<trkpt lat="64.154060364" lon="-21.953029633">
<ele>0.429306</ele>
<time>2012-07-18T11:13:50Z</time>
<speed>0.180000</speed>
<extensions>
<speed>0.2</speed>
<temp>0.00</temp>
<bpm>0</bpm>
<rpm>0.00</rpm>
</extensions>
</trkpt>
<trkpt lat="64.154052734" lon="-21.953027725">
<ele>0.616348</ele>
<time>2012-07-18T11:13:55Z</time>
<speed>0.150000</speed>
<extensions>
<speed>0.2</speed>
<temp>0.00</temp>
<bpm>0</bpm>
<rpm>0.00</rpm>
</extensions>
</trkpt>
<trkpt lat="64.154045105" lon="-21.953020096">
<ele>1.042236</ele>
<time>2012-07-18T11:14:00Z</time>
<speed>0.130000</speed>
<extensions>
<speed>0.1</speed>
<temp>0.00</temp>
<bpm>0</bpm>
<rpm>0.00</rpm>
</extensions>
</trkpt>
<trkpt lat="64.154037476" lon="-21.953014374">
<ele>1.654327</ele>
<time>2012-07-18T11:14:05Z</time>
<speed>0.140000</speed>
<extensions>
<speed>0.1</speed>
<temp>0.00</temp>
<bpm>0</bpm>
<rpm>0.00</rpm>
</extensions>
</trkpt>
<trkpt lat="64.154029846" lon="-21.953010559">
<ele>2.436218</ele>
<time>2012-07-18T11:14:10Z</time>
<speed>0.060000</speed>
<extensions>
<speed>0.1</speed>
<temp>0.00</temp>
<bpm>0</bpm>
<rpm>0.00</rpm>
</extensions>
</trkpt>
<trkpt lat="64.154029846" lon="-21.953012466">
<ele>3.388977</ele>
<time>2012-07-18T11:14:15Z</time>
<speed>0.070000</speed>
<extensions>
<speed>0.1</speed>
<temp>0.00</temp>
<bpm>0</bpm>
<rpm>0.00</rpm>
</extensions>
</trkpt>
<trkpt lat="64.154037476" lon="-21.953022003">
<ele>4.487305</ele>
<time>2012-07-18T11:14:20Z</time>
<speed>0.250000</speed>
<extensions>
<speed>0.2</speed>
<temp>0.00</temp>
<bpm>0</bpm>
<rpm>0.00</rpm>
</extensions>
</trkpt>
<trkpt lat="64.154045105" lon="-21.953025818">
<ele>5.732666</ele>
<time>2012-07-18T11:14:25Z</time>
<speed>0.270000</speed>
<extensions>
<speed>0.3</speed>
<temp>0.00</temp>
<bpm>0</bpm>
<rpm>0.00</rpm>
</extensions>
</trkpt>
<trkpt lat="64.154060364" lon="-21.953025818">
<ele>7.104858</ele>
<time>2012-07-18T11:14:30Z</time>
<speed>0.220000</speed>
<extensions>
<speed>0.2</speed>
<temp>0.00</temp>
<bpm>0</bpm>
<rpm>0.00</rpm>
</extensions>
</trkpt>
<trkpt lat="64.154067993" lon="-21.953027725">
<ele>8.652100</ele>
<time>2012-07-18T11:14:35Z</time>
<speed>0.120000</speed>
<extensions>
<speed>0.1</speed>
<temp>0.00</temp>
<bpm>0</bpm>
<rpm>0.00</rpm>
</extensions>
</trkpt>
<trkpt lat="64.154067993" lon="-21.953031540">
<ele>10.287354</ele>
<time>2012-07-18T11:14:40Z</time>
<speed>0.120000</speed>
<extensions>
<speed>0.1</speed>
<temp>0.00</temp>
<bpm>0</bpm>
<rpm>0.00</rpm>
</extensions>
</trkpt>
<trkpt lat="64.154060364" lon="-21.953035355">
<ele>12.006104</ele>
<time>2012-07-18T11:14:45Z</time>
<speed>0.050000</speed>
<extensions>
<speed>0.1</speed>
<temp>0.00</temp>
<bpm>0</bpm>
<rpm>0.00</rpm>
</extensions>
</trkpt>
<trkpt lat="64.154060364" lon="-21.953037262">
<ele>13.825195</ele>
<time>2012-07-18T11:14:50Z</time>
<speed>0.080000</speed>
<extensions>
<speed>0.1</speed>
<temp>0.00</temp>
<bpm>0</bpm>
<rpm>0.00</rpm>
</extensions>
</trkpt>
<trkpt lat="64.154060364" lon="-21.953042984">
<ele>15.858154</ele>
<time>2012-07-18T11:14:55Z</time>
<speed>0.170000</speed>
<extensions>
<speed>0.2</speed>
<temp>0.00</temp>
<bpm>0</bpm>
<rpm>0.00</rpm>
</extensions>
</trkpt>
<trkpt lat="64.154052734" lon="-21.953050613">
<ele>17.908203</ele>
<time>2012-07-18T11:15:00Z</time>
<speed>0.160000</speed>
<extensions>
<speed>0.2</speed>
<temp>0.00</temp>
<bpm>0</bpm>
<rpm>0.00</rpm>
</extensions>
</trkpt>
<trkpt lat="64.154045105" lon="-21.953050613">
<ele>19.889648</ele>
<time>2012-07-18T11:15:05Z</time>
<speed>0.110000</speed>
<extensions>
<speed>0.1</speed>
<temp>0.00</temp>
<bpm>0</bpm>
<rpm>0.00</rpm>
</extensions>
</trkpt>
<trkpt lat="64.154045105" lon="-21.953054428">
<ele>21.170898</ele>
<time>2012-07-18T11:15:10Z</time>
<speed>0.070000</speed>
<extensions>
<speed>0.1</speed>
<temp>0.00</temp>
<bpm>0</bpm>
<rpm>0.00</rpm>
</extensions>
</trkpt>
<trkpt lat="64.154052734" lon="-21.953054428">
<ele>22.394043</ele>
<time>2012-07-18T11:15:15Z</time>
<speed>0.090000</speed>
<extensions>
<speed>0.1</speed>
<temp>0.00</temp>
<bpm>0</bpm>
<rpm>0.00</rpm>
</extensions>
</trkpt>
<trkpt lat="64.154052734" lon="-21.953052521">
<ele>23.634766</ele>
<time>2012-07-18T11:15:20Z</time>
<speed>0.110000</speed>
<extensions>
<speed>0.1</speed>
<temp>0.00</temp>
<bpm>0</bpm>
<rpm>0.00</rpm>
</extensions>
</trkpt>
<trkpt lat="64.154045105" lon="-21.953037262">
<ele>24.977539</ele>
<time>2012-07-18T11:15:25Z</time>
<speed>0.150000</speed>
<extensions>
<speed>0.2</speed>
<temp>0.00</temp>
<bpm>0</bpm>
<rpm>0.00</rpm>
</extensions>
</trkpt>
<trkpt lat="64.154045105" lon="-21.953025818">
<ele>26.372070</ele>
<time>2012-07-18T11:15:30Z</time>
<speed>0.150000</speed>
<extensions>
<speed>0.2</speed>
<temp>0.00</temp>
<bpm>0</bpm>
<rpm>0.00</rpm>
</extensions>
</trkpt>
<trkpt lat="64.154037476" lon="-21.953004837">
<ele>27.759766</ele>
<time>2012-07-18T11:15:35Z</time>
<speed>0.320000</speed>
<extensions>
<speed>0.3</speed>
<temp>0.00</temp>
<bpm>0</bpm>
<rpm>0.00</rpm>
</extensions>
</trkpt>
<trkpt lat="64.154037476" lon="-21.952913284">
<ele>28.938965</ele>
<time>2012-07-18T11:15:40Z</time>
<speed>0.340000</speed>
<extensions>
<speed>0.3</speed>
<temp>0.00</temp>
<bpm>0</bpm>
<rpm>0.00</rpm>
</extensions>
</trkpt>
<trkpt lat="64.154037476" lon="-21.952825546">
<ele>29.789063</ele>
<time>2012-07-18T11:15:45Z</time>
<speed>0.330000</speed>
<extensions>
<speed>0.3</speed>
<temp>0.00</temp>
<bpm>0</bpm>
<rpm>0.00</rpm>
</extensions>
</trkpt>
<trkpt lat="64.154029846" lon="-21.952798843">
<ele>30.539063</ele>
<time>2012-07-18T11:15:50Z</time>
<speed>0.220000</speed>
<extensions>
<speed>0.2</speed>
<temp>0.00</temp>
<bpm>0</bpm>
<rpm>0.00</rpm>
</extensions>
</trkpt>
<trkpt lat="64.154029846" lon="-21.952785492">
<ele>31.719238</ele>
<time>2012-07-18T11:15:55Z</time>
<speed>0.110000</speed>
<extensions>
<speed>0.1</speed>
<temp>0.00</temp>
<bpm>0</bpm>
<rpm>0.00</rpm>
</extensions>
</trkpt>
<trkpt lat="64.154029846" lon="-21.952779770">
<ele>32.928711</ele>
<time>2012-07-18T11:16:00Z</time>
<speed>0.090000</speed>
<extensions>
<speed>0.1</speed>
<temp>0.00</temp>
<bpm>0</bpm>
<rpm>0.00</rpm>
</extensions>
</trkpt>
<trkpt lat="64.154022217" lon="-21.952789307">
<ele>34.098633</ele>
<time>2012-07-18T11:16:05Z</time>
<speed>0.170000</speed>
<extensions>
<speed>0.2</speed>
<temp>0.00</temp>
<bpm>0</bpm>
<rpm>0.00</rpm>
</extensions>
</trkpt>
<trkpt lat="64.154014587" lon="-21.952823639">
<ele>34.680664</ele>
<time>2012-07-18T11:16:10Z</time>
<speed>0.330000</speed>
<extensions>
<speed>0.3</speed>
<temp>0.00</temp>
<bpm>0</bpm>
<rpm>0.00</rpm>
</extensions>
</trkpt>
<trkpt lat="64.154014587" lon="-21.952859879">
<ele>33.600586</ele>
<time>2012-07-18T11:16:15Z</time>
<speed>0.340000</speed>
<extensions>
<speed>0.3</speed>
<temp>0.00</temp>
<bpm>0</bpm>
<rpm>0.00</rpm>
</extensions>
</trkpt>
<trkpt lat="64.154022217" lon="-21.952878952">
<ele>33.902344</ele>
<time>2012-07-18T11:16:20Z</time>
<speed>0.250000</speed>
<extensions>
<speed>0.2</speed>
<temp>0.00</temp>
<bpm>0</bpm>
<rpm>0.00</rpm>
</extensions>
</trkpt>
<trkpt lat="64.154022217" lon="-21.952934265">
<ele>34.080078</ele>
<time>2012-07-18T11:16:25Z</time>
<speed>0.250000</speed>
<extensions>
<speed>0.2</speed>
<temp>0.00</temp>
<bpm>0</bpm>
<rpm>0.00</rpm>
</extensions>
</trkpt>
<trkpt lat="64.154022217" lon="-21.952934265">
<ele>35.071289</ele>
<time>2012-07-18T11:16:30Z</time>
<speed>0.160000</speed>
<extensions>
<speed>0.2</speed>
<temp>0.00</temp>
<bpm>0</bpm>
<rpm>0.00</rpm>
</extensions>
</trkpt>
<trkpt lat="64.154014587" lon="-21.952945709">
<ele>35.947266</ele>
<time>2012-07-18T11:16:35Z</time>
<speed>0.150000</speed>
<extensions>
<speed>0.2</speed>
<temp>0.00</temp>
<bpm>0</bpm>
<rpm>0.00</rpm>
</extensions>
</trkpt>
<trkpt lat="64.154014587" lon="-21.952959061">
<ele>36.801758</ele>
<time>2012-07-18T11:16:40Z</time>
<speed>0.130000</speed>
<extensions>
<speed>0.1</speed>
<temp>0.00</temp>
<bpm>0</bpm>
<rpm>0.00</rpm>
</extensions>
</trkpt>
<trkpt lat="64.154006958" lon="-21.952970505">
<ele>37.651367</ele>
<time>2012-07-18T11:16:45Z</time>
<speed>0.140000</speed>
<extensions>
<speed>0.1</speed>
<temp>0.00</temp>
<bpm>0</bpm>
<rpm>0.00</rpm>
</extensions>
</trkpt>
<trkpt lat="64.154006958" lon="-21.952980042">
<ele>38.412109</ele>
<time>2012-07-18T11:16:50Z</time>
<speed>0.040000</speed>
<extensions>
<speed>0.0</speed>
<temp>0.00</temp>
<bpm>0</bpm>
<rpm>0.00</rpm>
</extensions>
</trkpt>
<trkpt lat="64.154006958" lon="-21.952972412">
<ele>39.099609</ele>
<time>2012-07-18T11:16:55Z</time>
<speed>0.170000</speed>
<extensions>
<speed>0.2</speed>
<temp>0.00</temp>
<bpm>0</bpm>
<rpm>0.00</rpm>
</extensions>
</trkpt>
<trkpt lat="64.154006958" lon="-21.952951431">
<ele>39.738281</ele>
<time>2012-07-18T11:17:00Z</time>
<speed>0.260000</speed>
<extensions>
<speed>0.3</speed>
<temp>0.00</temp>
<bpm>0</bpm>
<rpm>0.00</rpm>
</extensions>
</trkpt>
<trkpt lat="64.154006958" lon="-21.952930450">
<ele>40.347656</ele>
<time>2012-07-18T11:17:05Z</time>
<speed>0.150000</speed>
<extensions>
<speed>0.2</speed>
<temp>0.00</temp>
<bpm>0</bpm>
<rpm>0.00</rpm>
</extensions>
</trkpt>
<trkpt lat="64.154006958" lon="-21.952915192">
<ele>40.944336</ele>
<time>2012-07-18T11:17:10Z</time>
<speed>0.100000</speed>
<extensions>
<speed>0.1</speed>
<temp>0.00</temp>
<bpm>0</bpm>
<rpm>0.00</rpm>
</extensions>
</trkpt>
<trkpt lat="64.154006958" lon="-21.952913284">
<ele>41.521484</ele>
<time>2012-07-18T11:17:15Z</time>
<speed>0.120000</speed>
<extensions>
<speed>0.1</speed>
<temp>0.00</temp>
<bpm>0</bpm>
<rpm>0.00</rpm>
</extensions>
</trkpt>
<trkpt lat="64.154006958" lon="-21.952922821">
<ele>42.024414</ele>
<time>2012-07-18T11:17:20Z</time>
<speed>0.150000</speed>
<extensions>
<speed>0.2</speed>
<temp>0.00</temp>
<bpm>0</bpm>
<rpm>0.00</rpm>
</extensions>
</trkpt>
<trkpt lat="64.154006958" lon="-21.952939987">
<ele>42.420898</ele>
<time>2012-07-18T11:17:25Z</time>
<speed>0.210000</speed>
<extensions>
<speed>0.2</speed>
<temp>0.00</temp>
<bpm>0</bpm>
<rpm>0.00</rpm>
</extensions>
</trkpt>
<trkpt lat="64.153999329" lon="-21.953008652">
<ele>43.164063</ele>
<time>2012-07-18T11:17:30Z</time>
<speed>0.370000</speed>
<extensions>
<speed>0.4</speed>
<temp>0.00</temp>
<bpm>0</bpm>
<rpm>0.00</rpm>
</extensions>
</trkpt>
<trkpt lat="64.153984070" lon="-21.953090668">
<ele>44.701172</ele>
<time>2012-07-18T11:17:35Z</time>
<speed>0.390000</speed>
<extensions>
<speed>0.4</speed>
<temp>0.00</temp>
<bpm>0</bpm>
<rpm>0.00</rpm>
</extensions>
</trkpt>
<trkpt lat="64.153976440" lon="-21.953159332">
<ele>46.160156</ele>
<time>2012-07-18T11:17:40Z</time>
<speed>0.350000</speed>
<extensions>
<speed>0.3</speed>
<temp>0.00</temp>
<bpm>0</bpm>
<rpm>0.00</rpm>
</extensions>
</trkpt>
<trkpt lat="64.153976440" lon="-21.953241348">
<ele>47.300781</ele>
<time>2012-07-18T11:17:45Z</time>
<speed>0.360000</speed>
<extensions>
<speed>0.4</speed>
<temp>0.00</temp>
<bpm>0</bpm>
<rpm>0.00</rpm>
</extensions>
</trkpt>
<trkpt lat="64.153976440" lon="-21.953281403">
<ele>48.556641</ele>
<time>2012-07-18T11:17:50Z</time>
<speed>0.290000</speed>
<extensions>
<speed>0.3</speed>
<temp>0.00</temp>
<bpm>0</bpm>
<rpm>0.00</rpm>
</extensions>
</trkpt>
<trkpt lat="64.153976440" lon="-21.953302383">
<ele>49.273438</ele>
<time>2012-07-18T11:17:55Z</time>
<speed>0.210000</speed>
<extensions>
<speed>0.2</speed>
<temp>0.00</temp>
<bpm>0</bpm>
<rpm>0.00</rpm>
</extensions>
</trkpt>
<trkpt lat="64.153976440" lon="-21.953323364">
<ele>49.802734</ele>
<time>2012-07-18T11:18:00Z</time>
<speed>0.160000</speed>
<extensions>
<speed>0.2</speed>
<temp>0.00</temp>
<bpm>0</bpm>
<rpm>0.00</rpm>
</extensions>
</trkpt>
<trkpt lat="64.153984070" lon="-21.953332901">
<ele>50.261719</ele>
<time>2012-07-18T11:18:05Z</time>
<speed>0.040000</speed>
<extensions>
<speed>0.0</speed>
<temp>0.00</temp>
<bpm>0</bpm>
<rpm>0.00</rpm>
</extensions>
</trkpt>
<trkpt lat="64.153984070" lon="-21.953336716">
<ele>50.698242</ele>
<time>2012-07-18T11:18:10Z</time>
<speed>0.060000</speed>
<extensions>
<speed>0.1</speed>
<temp>0.00</temp>
<bpm>0</bpm>
<rpm>0.00</rpm>
</extensions>
</trkpt>
<trkpt lat="64.153976440" lon="-21.953342438">
<ele>51.092773</ele>
<time>2012-07-18T11:18:15Z</time>
<speed>0.030000</speed>
<extensions>
<speed>0.0</speed>
<temp>0.00</temp>
<bpm>0</bpm>
<rpm>0.00</rpm>
</extensions>
</trkpt>
<trkpt lat="64.153976440" lon="-21.953346252">
<ele>51.391602</ele>
<time>2012-07-18T11:18:20Z</time>
<speed>0.090000</speed>
<extensions>
<speed>0.1</speed>
<temp>0.00</temp>
<bpm>0</bpm>
<rpm>0.00</rpm>
</extensions>
</trkpt>
<trkpt lat="64.153976440" lon="-21.953353882">
<ele>51.562500</ele>
<time>2012-07-18T11:18:25Z</time>
<speed>0.100000</speed>
<extensions>
<speed>0.1</speed>
<temp>0.00</temp>
<bpm>0</bpm>
<rpm>0.00</rpm>
</extensions>
</trkpt>
<trkpt lat="64.153976440" lon="-21.953363419">
<ele>51.630859</ele>
<time>2012-07-18T11:18:30Z</time>
<speed>0.130000</speed>
<extensions>
<speed>0.1</speed>
<temp>0.00</temp>
<bpm>0</bpm>
<rpm>0.00</rpm>
</extensions>
</trkpt>
<trkpt lat="64.153968811" lon="-21.953367233">
<ele>51.676758</ele>
<time>2012-07-18T11:18:35Z</time>
<speed>0.010000</speed>
<extensions>
<speed>0.0</speed>
<temp>0.00</temp>
<bpm>0</bpm>
<rpm>0.00</rpm>
</extensions>
</trkpt>
<trkpt lat="64.153968811" lon="-21.953367233">
<ele>51.716797</ele>
<time>2012-07-18T11:18:40Z</time>
<speed>0.020000</speed>
<extensions>
<speed>0.0</speed>
<temp>0.00</temp>
<bpm>0</bpm>
<rpm>0.00</rpm>
</extensions>
</trkpt>
<trkpt lat="64.153968811" lon="-21.953369141">
<ele>51.758789</ele>
<time>2012-07-18T11:18:45Z</time>
<extensions>
<speed>0.0</speed>
<temp>0.00</temp>
<bpm>0</bpm>
<rpm>0.00</rpm>
</extensions>
</trkpt>
<trkpt lat="64.153968811" lon="-21.953369141">
<ele>51.781250</ele>
<time>2012-07-18T11:18:50Z</time>
<extensions>
<speed>0.0</speed>
<temp>0.00</temp>
<bpm>0</bpm>
<rpm>0.00</rpm>
</extensions>
</trkpt>
<trkpt lat="64.153968811" lon="-21.953369141">
<ele>51.814453</ele>
<time>2012-07-18T11:18:55Z</time>
<speed>0.010000</speed>
<extensions>
<speed>0.0</speed>
<temp>0.00</temp>
<bpm>0</bpm>
<rpm>0.00</rpm>
</extensions>
</trkpt>
<trkpt lat="64.153976440" lon="-21.953369141">
<ele>51.825195</ele>
<time>2012-07-18T11:19:00Z</time>
<extensions>
<speed>0.0</speed>
<temp>0.00</temp>
<bpm>0</bpm>
<rpm>0.00</rpm>
</extensions>
</trkpt>
<trkpt lat="64.153976440" lon="-21.953369141">
<ele>51.852539</ele>
<time>2012-07-18T11:19:05Z</time>
<extensions>
<speed>0.0</speed>
<temp>0.00</temp>
<bpm>0</bpm>
<rpm>0.00</rpm>
</extensions>
</trkpt>
<trkpt lat="64.153976440" lon="-21.953369141">
<ele>51.884766</ele>
<time>2012-07-18T11:19:10Z</time>
<speed>0.010000</speed>
<extensions>
<speed>0.0</speed>
<temp>0.00</temp>
<bpm>0</bpm>
<rpm>0.00</rpm>
</extensions>
</trkpt>
<trkpt lat="64.153976440" lon="-21.953371048">
<ele>51.895508</ele>
<time>2012-07-18T11:19:15Z</time>
<speed>0.010000</speed>
<extensions>
<speed>0.0</speed>
<temp>0.00</temp>
<bpm>0</bpm>
<rpm>0.00</rpm>
</extensions>
</trkpt>
<trkpt lat="64.153976440" lon="-21.953371048">
<ele>51.906250</ele>
<time>2012-07-18T11:19:20Z</time>
<speed>0.020000</speed>
<extensions>
<speed>0.0</speed>
<temp>0.00</temp>
<bpm>0</bpm>
<rpm>0.00</rpm>
</extensions>
</trkpt>
<trkpt lat="64.153976440" lon="-21.953371048">
<ele>51.910156</ele>
<time>2012-07-18T11:19:25Z</time>
<speed>0.010000</speed>
<extensions>
<speed>0.0</speed>
<temp>0.00</temp>
<bpm>0</bpm>
<rpm>0.00</rpm>
</extensions>
</trkpt>
<trkpt lat="64.153976440" lon="-21.953371048">
<ele>51.925781</ele>
<time>2012-07-18T11:19:30Z</time>
<speed>0.010000</speed>
<extensions>
<speed>0.0</speed>
<temp>0.00</temp>
<bpm>0</bpm>
<rpm>0.00</rpm>
</extensions>
</trkpt>
<trkpt lat="64.153976440" lon="-21.953372955">
<ele>51.947266</ele>
<time>2012-07-18T11:19:35Z</time>
<extensions>
<speed>0.0</speed>
<temp>0.00</temp>
<bpm>0</bpm>
<rpm>0.00</rpm>
</extensions>
</trkpt>
<trkpt lat="64.153976440" lon="-21.953372955">
<ele>51.963867</ele>
<time>2012-07-18T11:19:40Z</time>
<speed>0.030000</speed>
<extensions>
<speed>0.0</speed>
<temp>0.00</temp>
<bpm>0</bpm>
<rpm>0.00</rpm>
</extensions>
</trkpt>
<trkpt lat="64.153976440" lon="-21.953374863">
<ele>51.978516</ele>
<time>2012-07-18T11:19:45Z</time>
<speed>0.050000</speed>
<extensions>
<speed>0.1</speed>
<temp>0.00</temp>
<bpm>0</bpm>
<rpm>0.00</rpm>
</extensions>
</trkpt>
<trkpt lat="64.153976440" lon="-21.953376770">
<ele>51.987305</ele>
<time>2012-07-18T11:19:50Z</time>
<speed>0.060000</speed>
<extensions>
<speed>0.1</speed>
<temp>0.00</temp>
<bpm>0</bpm>
<rpm>0.00</rpm>
</extensions>
</trkpt>
<trkpt lat="64.153976440" lon="-21.953376770">
<ele>51.991211</ele>
<time>2012-07-18T11:19:55Z</time>
<extensions>
<speed>0.0</speed>
<temp>0.00</temp>
<bpm>0</bpm>
<rpm>0.00</rpm>
</extensions>
</trkpt>
<trkpt lat="64.153976440" lon="-21.953378677">
<ele>52.004883</ele>
<time>2012-07-18T11:20:00Z</time>
<speed>0.030000</speed>
<extensions>
<speed>0.0</speed>
<temp>0.00</temp>
<bpm>0</bpm>
<rpm>0.00</rpm>
</extensions>
</trkpt>
<trkpt lat="64.153976440" lon="-21.953378677">
<ele>52.001953</ele>
<time>2012-07-18T11:20:05Z</time>
<speed>0.010000</speed>
<extensions>
<speed>0.0</speed>
<temp>0.00</temp>
<bpm>0</bpm>
<rpm>0.00</rpm>
</extensions>
</trkpt>
<trkpt lat="64.153976440" lon="-21.953378677">
<ele>51.994141</ele>
<time>2012-07-18T11:20:10Z</time>
<speed>0.010000</speed>
<extensions>
<speed>0.0</speed>
<temp>0.00</temp>
<bpm>0</bpm>
<rpm>0.00</rpm>
</extensions>
</trkpt>
<trkpt lat="64.153976440" lon="-21.953380585">
<ele>51.994141</ele>
<time>2012-07-18T11:20:15Z</time>
<speed>0.020000</speed>
<extensions>
<speed>0.0</speed>
<temp>0.00</temp>
<bpm>0</bpm>
<rpm>0.00</rpm>
</extensions>
</trkpt>
<trkpt lat="64.153976440" lon="-21.953382492">
<ele>51.978516</ele>
<time>2012-07-18T11:20:20Z</time>
<speed>0.030000</speed>
<extensions>
<speed>0.0</speed>
<temp>0.00</temp>
<bpm>0</bpm>
<rpm>0.00</rpm>
</extensions>
</trkpt>
<trkpt lat="64.153976440" lon="-21.953382492">
<ele>51.955078</ele>
<time>2012-07-18T11:20:25Z</time>
<speed>0.050000</speed>
<extensions>
<speed>0.1</speed>
<temp>0.00</temp>
<bpm>0</bpm>
<rpm>0.00</rpm>
</extensions>
</trkpt>
<trkpt lat="64.153976440" lon="-21.953384399">
<ele>51.942383</ele>
<time>2012-07-18T11:20:30Z</time>
<speed>0.010000</speed>
<extensions>
<speed>0.0</speed>
<temp>0.00</temp>
<bpm>0</bpm>
<rpm>0.00</rpm>
</extensions>
</trkpt>
<trkpt lat="64.153976440" lon="-21.953384399">
<ele>51.918945</ele>
<time>2012-07-18T11:20:35Z</time>
<speed>0.010000</speed>
<extensions>
<speed>0.0</speed>
<temp>0.00</temp>
<bpm>0</bpm>
<rpm>0.00</rpm>
</extensions>
</trkpt>
<trkpt lat="64.153976440" lon="-21.953382492">
<ele>51.830078</ele>
<time>2012-07-18T11:20:40Z</time>
<speed>0.040000</speed>
<extensions>
<speed>0.0</speed>
<temp>0.00</temp>
<bpm>0</bpm>
<rpm>0.00</rpm>
</extensions>
</trkpt>
<trkpt lat="64.153976440" lon="-21.953384399">
<ele>51.799805</ele>
<time>2012-07-18T11:20:45Z</time>
<speed>0.040000</speed>
<extensions>
<speed>0.0</speed>
<temp>0.00</temp>
<bpm>0</bpm>
<rpm>0.00</rpm>
</extensions>
</trkpt>
<trkpt lat="64.153976440" lon="-21.953384399">
<ele>51.715820</ele>
<time>2012-07-18T11:20:50Z</time>
<speed>0.040000</speed>
<extensions>
<speed>0.0</speed>
<temp>0.00</temp>
<bpm>0</bpm>
<rpm>0.00</rpm>
</extensions>
</trkpt>
<trkpt lat="64.153976440" lon="-21.953384399">
<ele>51.666016</ele>
<time>2012-07-18T11:20:55Z</time>
<speed>0.020000</speed>
<extensions>
<speed>0.0</speed>
<temp>0.00</temp>
<bpm>0</bpm>
<rpm>0.00</rpm>
</extensions>
</trkpt>
<trkpt lat="64.153976440" lon="-21.953384399">
<ele>51.603516</ele>
<time>2012-07-18T11:21:00Z</time>
<speed>0.020000</speed>
<extensions>
<speed>0.0</speed>
<temp>0.00</temp>
<bpm>0</bpm>
<rpm>0.00</rpm>
</extensions>
</trkpt>
<trkpt lat="64.153976440" lon="-21.953384399">
<ele>51.549805</ele>
<time>2012-07-18T11:21:05Z</time>
<speed>0.020000</speed>
<extensions>
<speed>0.0</speed>
<temp>0.00</temp>
<bpm>0</bpm>
<rpm>0.00</rpm>
</extensions>
</trkpt>
<trkpt lat="64.153976440" lon="-21.953384399">
<ele>51.502930</ele>
<time>2012-07-18T11:21:10Z</time>
<speed>0.010000</speed>
<extensions>
<speed>0.0</speed>
<temp>0.00</temp>
<bpm>0</bpm>
<rpm>0.00</rpm>
</extensions>
</trkpt>
<trkpt lat="64.153976440" lon="-21.953384399">
<ele>51.420898</ele>
<time>2012-07-18T11:21:15Z</time>
<extensions>
<speed>0.0</speed>
<temp>0.00</temp>
<bpm>0</bpm>
<rpm>0.00</rpm>
</extensions>
</trkpt>
<trkpt lat="64.153976440" lon="-21.953384399">
<ele>51.400391</ele>
<time>2012-07-18T11:21:20Z</time>
<speed>0.010000</speed>
<extensions>
<speed>0.0</speed>
<temp>0.00</temp>
<bpm>0</bpm>
<rpm>0.00</rpm>
</extensions>
</trkpt>
<trkpt lat="64.153976440" lon="-21.953384399">
<ele>51.373047</ele>
<time>2012-07-18T11:21:25Z</time>
<speed>0.010000</speed>
<extensions>
<speed>0.0</speed>
<temp>0.00</temp>
<bpm>0</bpm>
<rpm>0.00</rpm>
</extensions>
</trkpt>
<trkpt lat="64.153976440" lon="-21.953384399">
<ele>51.370117</ele>
<time>2012-07-18T11:21:30Z</time>
<extensions>
<speed>0.0</speed>
<temp>0.00</temp>
<bpm>0</bpm>
<rpm>0.00</rpm>
</extensions>
</trkpt>
<trkpt lat="64.153976440" lon="-21.953384399">
<ele>51.349609</ele>
<time>2012-07-18T11:21:35Z</time>
<speed>0.010000</speed>
<extensions>
<speed>0.0</speed>
<temp>0.00</temp>
<bpm>0</bpm>
<rpm>0.00</rpm>
</extensions>
</trkpt>
<trkpt lat="64.153976440" lon="-21.953384399">
<ele>51.337891</ele>
<time>2012-07-18T11:21:40Z</time>
<speed>0.020000</speed>
<extensions>
<speed>0.0</speed>
<temp>0.00</temp>
<bpm>0</bpm>
<rpm>0.00</rpm>
</extensions>
</trkpt>
<trkpt lat="64.153976440" lon="-21.953384399">
<ele>51.331055</ele>
<time>2012-07-18T11:21:45Z</time>
<speed>0.020000</speed>
<extensions>
<speed>0.0</speed>
<temp>0.00</temp>
<bpm>0</bpm>
<rpm>0.00</rpm>
</extensions>
</trkpt>
<trkpt lat="64.153976440" lon="-21.953386307">
<ele>51.338867</ele>
<time>2012-07-18T11:21:50Z</time>
<extensions>
<speed>0.0</speed>
<temp>0.00</temp>
<bpm>0</bpm>
<rpm>0.00</rpm>
</extensions>
</trkpt>
<trkpt lat="64.153976440" lon="-21.953386307">
<ele>51.327148</ele>
<time>2012-07-18T11:21:55Z</time>
<extensions>
<speed>0.0</speed>
<temp>0.00</temp>
<bpm>0</bpm>
<rpm>0.00</rpm>
</extensions>
</trkpt>
<trkpt lat="64.153976440" lon="-21.953386307">
<ele>51.295898</ele>
<time>2012-07-18T11:22:00Z</time>
<speed>0.030000</speed>
<extensions>
<speed>0.0</speed>
<temp>0.00</temp>
<bpm>0</bpm>
<rpm>0.00</rpm>
</extensions>
</trkpt>
<trkpt lat="64.153976440" lon="-21.953386307">
<ele>51.259766</ele>
<time>2012-07-18T11:22:05Z</time>
<extensions>
<speed>0.0</speed>
<temp>0.00</temp>
<bpm>0</bpm>
<rpm>0.00</rpm>
</extensions>
</trkpt>
<trkpt lat="64.153976440" lon="-21.953384399">
<ele>51.228516</ele>
<time>2012-07-18T11:22:10Z</time>
<extensions>
<speed>0.0</speed>
<temp>0.00</temp>
<bpm>0</bpm>
<rpm>0.00</rpm>
</extensions>
</trkpt>
<trkpt lat="64.153976440" lon="-21.953384399">
<ele>51.181641</ele>
<time>2012-07-18T11:22:15Z</time>
<speed>0.020000</speed>
<extensions>
<speed>0.0</speed>
<temp>0.00</temp>
<bpm>0</bpm>
<rpm>0.00</rpm>
</extensions>
</trkpt>
<trkpt lat="64.153976440" lon="-21.953384399">
<ele>51.127930</ele>
<time>2012-07-18T11:22:20Z</time>
<extensions>
<speed>0.0</speed>
<temp>0.00</temp>
<bpm>0</bpm>
<rpm>0.00</rpm>
</extensions>
</trkpt>
<trkpt lat="64.153976440" lon="-21.953384399">
<ele>51.080078</ele>
<time>2012-07-18T11:22:25Z</time>
<speed>0.020000</speed>
<extensions>
<speed>0.0</speed>
<temp>0.00</temp>
<bpm>0</bpm>
<rpm>0.00</rpm>
</extensions>
</trkpt>
<trkpt lat="64.153976440" lon="-21.953384399">
<ele>51.048828</ele>
<time>2012-07-18T11:22:30Z</time>
<speed>0.010000</speed>
<extensions>
<speed>0.0</speed>
<temp>0.00</temp>
<bpm>0</bpm>
<rpm>0.00</rpm>
</extensions>
</trkpt>
<trkpt lat="64.153976440" lon="-21.953384399">
<ele>51.008789</ele>
<time>2012-07-18T11:22:35Z</time>
<speed>0.010000</speed>
<extensions>
<speed>0.0</speed>
<temp>0.00</temp>
<bpm>0</bpm>
<rpm>0.00</rpm>
</extensions>
</trkpt>
<trkpt lat="64.153976440" lon="-21.953386307">
<ele>50.871094</ele>
<time>2012-07-18T11:22:40Z</time>
<speed>0.080000</speed>
<extensions>
<speed>0.1</speed>
<temp>0.00</temp>
<bpm>0</bpm>
<rpm>0.00</rpm>
</extensions>
</trkpt>
<trkpt lat="64.153968811" lon="-21.953393936">
<ele>50.599609</ele>
<time>2012-07-18T11:22:45Z</time>
<speed>0.150000</speed>
<extensions>
<speed>0.2</speed>
<temp>0.00</temp>
<bpm>0</bpm>
<rpm>0.00</rpm>
</extensions>
</trkpt>
<trkpt lat="64.153968811" lon="-21.953409195">
<ele>50.124023</ele>
<time>2012-07-18T11:22:50Z</time>
<speed>0.220000</speed>
<extensions>
<speed>0.2</speed>
<temp>0.00</temp>
<bpm>0</bpm>
<rpm>0.00</rpm>
</extensions>
</trkpt>
<trkpt lat="64.153961182" lon="-21.953428268">
<ele>49.439453</ele>
<time>2012-07-18T11:22:55Z</time>
<speed>0.110000</speed>
<extensions>
<speed>0.1</speed>
<temp>0.00</temp>
<bpm>0</bpm>
<rpm>0.00</rpm>
</extensions>
</trkpt>
<trkpt lat="64.153968811" lon="-21.953433990">
<ele>48.654297</ele>
<time>2012-07-18T11:23:00Z</time>
<speed>0.140000</speed>
<extensions>
<speed>0.1</speed>
<temp>0.00</temp>
<bpm>0</bpm>
<rpm>0.00</rpm>
</extensions>
</trkpt>
<trkpt lat="64.153976440" lon="-21.953439713">
<ele>47.762695</ele>
<time>2012-07-18T11:23:05Z</time>
<speed>0.210000</speed>
<extensions>
<speed>0.2</speed>
<temp>0.00</temp>
<bpm>0</bpm>
<rpm>0.00</rpm>
</extensions>
</trkpt>
<trkpt lat="64.153984070" lon="-21.953447342">
<ele>46.861328</ele>
<time>2012-07-18T11:23:10Z</time>
<speed>0.210000</speed>
<extensions>
<speed>0.2</speed>
<temp>0.00</temp>
<bpm>0</bpm>
<rpm>0.00</rpm>
</extensions>
</trkpt>
<trkpt lat="64.153991699" lon="-21.953454971">
<ele>45.973633</ele>
<time>2012-07-18T11:23:15Z</time>
<speed>0.180000</speed>
<extensions>
<speed>0.2</speed>
<temp>0.00</temp>
<bpm>0</bpm>
<rpm>0.00</rpm>
</extensions>
</trkpt>
<trkpt lat="64.153999329" lon="-21.953458786">
<ele>45.098633</ele>
<time>2012-07-18T11:23:20Z</time>
<speed>0.150000</speed>
<extensions>
<speed>0.2</speed>
<temp>0.00</temp>
<bpm>0</bpm>
<rpm>0.00</rpm>
</extensions>
</trkpt>
<trkpt lat="64.153999329" lon="-21.953456879">
<ele>44.235352</ele>
<time>2012-07-18T11:23:25Z</time>
<speed>0.110000</speed>
<extensions>
<speed>0.1</speed>
<temp>0.00</temp>
<bpm>0</bpm>
<rpm>0.00</rpm>
</extensions>
</trkpt>
<trkpt lat="64.154006958" lon="-21.953449249">
<ele>43.386719</ele>
<time>2012-07-18T11:23:30Z</time>
<speed>0.110000</speed>
<extensions>
<speed>0.1</speed>
<temp>0.00</temp>
<bpm>0</bpm>
<rpm>0.00</rpm>
</extensions>
</trkpt>
<trkpt lat="64.154006958" lon="-21.953435898">
<ele>42.548828</ele>
<time>2012-07-18T11:23:35Z</time>
<speed>0.140000</speed>
<extensions>
<speed>0.1</speed>
<temp>0.00</temp>
<bpm>0</bpm>
<rpm>0.00</rpm>
</extensions>
</trkpt>
<trkpt lat="64.154006958" lon="-21.953418732">
<ele>41.805664</ele>
<time>2012-07-18T11:23:40Z</time>
<speed>0.180000</speed>
<extensions>
<speed>0.2</speed>
<temp>0.00</temp>
<bpm>0</bpm>
<rpm>0.00</rpm>
</extensions>
</trkpt>
<trkpt lat="64.154006958" lon="-21.953399658">
<ele>41.231445</ele>
<time>2012-07-18T11:23:45Z</time>
<speed>0.210000</speed>
<extensions>
<speed>0.2</speed>
<temp>0.00</temp>
<bpm>0</bpm>
<rpm>0.00</rpm>
</extensions>
</trkpt>
<trkpt lat="64.153999329" lon="-21.953378677">
<ele>40.728516</ele>
<time>2012-07-18T11:23:50Z</time>
<speed>0.250000</speed>
<extensions>
<speed>0.2</speed>
<temp>0.00</temp>
<bpm>0</bpm>
<rpm>0.00</rpm>
</extensions>
</trkpt>
<trkpt lat="64.153991699" lon="-21.953357697">
<ele>40.268555</ele>
<time>2012-07-18T11:23:55Z</time>
<speed>0.280000</speed>
<extensions>
<speed>0.3</speed>
<temp>0.00</temp>
<bpm>0</bpm>
<rpm>0.00</rpm>
</extensions>
</trkpt>
<trkpt lat="64.153976440" lon="-21.953323364">
<ele>39.366211</ele>
<time>2012-07-18T11:24:00Z</time>
<speed>0.320000</speed>
<extensions>
<speed>0.3</speed>
<temp>0.00</temp>
<bpm>0</bpm>
<rpm>0.00</rpm>
</extensions>
</trkpt>
<trkpt lat="64.153976440" lon="-21.953292847">
<ele>37.932617</ele>
<time>2012-07-18T11:24:05Z</time>
<speed>0.260000</speed>
<extensions>
<speed>0.3</speed>
<temp>0.00</temp>
<bpm>0</bpm>
<rpm>0.00</rpm>
</extensions>
</trkpt>
<trkpt lat="64.153976440" lon="-21.953277588">
<ele>37.237305</ele>
<time>2012-07-18T11:24:10Z</time>
<speed>0.140000</speed>
<extensions>
<speed>0.1</speed>
<temp>0.00</temp>
<bpm>0</bpm>
<rpm>0.00</rpm>
</extensions>
</trkpt>
<trkpt lat="64.153976440" lon="-21.953271866">
<ele>36.723633</ele>
<time>2012-07-18T11:24:15Z</time>
<speed>0.170000</speed>
<extensions>
<speed>0.2</speed>
<temp>0.00</temp>
<bpm>0</bpm>
<rpm>0.00</rpm>
</extensions>
</trkpt>
<trkpt lat="64.153984070" lon="-21.953264236">
<ele>36.243164</ele>
<time>2012-07-18T11:24:20Z</time>
<speed>0.110000</speed>
<extensions>
<speed>0.1</speed>
<temp>0.00</temp>
<bpm>0</bpm>
<rpm>0.00</rpm>
</extensions>
</trkpt>
<trkpt lat="64.153976440" lon="-21.953254700">
<ele>35.764648</ele>
<time>2012-07-18T11:24:25Z</time>
<speed>0.090000</speed>
<extensions>
<speed>0.1</speed>
<temp>0.00</temp>
<bpm>0</bpm>
<rpm>0.00</rpm>
</extensions>
</trkpt>
<trkpt lat="64.153976440" lon="-21.953247070">
<ele>35.284180</ele>
<time>2012-07-18T11:24:30Z</time>
<speed>0.090000</speed>
<extensions>
<speed>0.1</speed>
<temp>0.00</temp>
<bpm>0</bpm>
<rpm>0.00</rpm>
</extensions>
</trkpt>
<trkpt lat="64.153976440" lon="-21.953237534">
<ele>34.801758</ele>
<time>2012-07-18T11:24:35Z</time>
<speed>0.090000</speed>
<extensions>
<speed>0.1</speed>
<temp>0.00</temp>
<bpm>0</bpm>
<rpm>0.00</rpm>
</extensions>
</trkpt>
<trkpt lat="64.153968811" lon="-21.953231812">
<ele>34.323242</ele>
<time>2012-07-18T11:24:40Z</time>
<speed>0.050000</speed>
<extensions>
<speed>0.1</speed>
<temp>0.00</temp>
<bpm>0</bpm>
<rpm>0.00</rpm>
</extensions>
</trkpt>
<trkpt lat="64.153968811" lon="-21.953229904">
<ele>33.837891</ele>
<time>2012-07-18T11:24:45Z</time>
<speed>0.070000</speed>
<extensions>
<speed>0.1</speed>
<temp>0.00</temp>
<bpm>0</bpm>
<rpm>0.00</rpm>
</extensions>
</trkpt>
<trkpt lat="64.153968811" lon="-21.953227997">
<ele>33.354492</ele>
<time>2012-07-18T11:24:50Z</time>
<speed>0.090000</speed>
<extensions>
<speed>0.1</speed>
<temp>0.00</temp>
<bpm>0</bpm>
<rpm>0.00</rpm>
</extensions>
</trkpt>
<trkpt lat="64.153961182" lon="-21.953227997">
<ele>32.866211</ele>
<time>2012-07-18T11:24:55Z</time>
<speed>0.070000</speed>
<extensions>
<speed>0.1</speed>
<temp>0.00</temp>
<bpm>0</bpm>
<rpm>0.00</rpm>
</extensions>
</trkpt>
<trkpt lat="64.153961182" lon="-21.953229904">
<ele>32.394531</ele>
<time>2012-07-18T11:25:00Z</time>
<speed>0.080000</speed>
<extensions>
<speed>0.1</speed>
<temp>0.00</temp>
<bpm>0</bpm>
<rpm>0.00</rpm>
</extensions>
</trkpt>
<trkpt lat="64.153953552" lon="-21.953231812">
<ele>31.930176</ele>
<time>2012-07-18T11:25:05Z</time>
<speed>0.110000</speed>
<extensions>
<speed>0.1</speed>
<temp>0.00</temp>
<bpm>0</bpm>
<rpm>0.00</rpm>
</extensions>
</trkpt>
<trkpt lat="64.153953552" lon="-21.953239441">
<ele>31.468262</ele>
<time>2012-07-18T11:25:10Z</time>
<speed>0.110000</speed>
<extensions>
<speed>0.1</speed>
<temp>0.00</temp>
<bpm>0</bpm>
<rpm>0.00</rpm>
</extensions>
</trkpt>
<trkpt lat="64.153945923" lon="-21.953245163">
<ele>31.014160</ele>
<time>2012-07-18T11:25:15Z</time>
<speed>0.070000</speed>
<extensions>
<speed>0.1</speed>
<temp>0.00</temp>
<bpm>0</bpm>
<rpm>0.00</rpm>
</extensions>
</trkpt>
<trkpt lat="64.153945923" lon="-21.953245163">
<ele>30.564453</ele>
<time>2012-07-18T11:25:20Z</time>
<speed>0.030000</speed>
<extensions>
<speed>0.0</speed>
<temp>0.00</temp>
<bpm>0</bpm>
<rpm>0.00</rpm>
</extensions>
</trkpt>
<trkpt lat="64.153945923" lon="-21.953245163">
<ele>30.124023</ele>
<time>2012-07-18T11:25:25Z</time>
<speed>0.070000</speed>
<extensions>
<speed>0.1</speed>
<temp>0.00</temp>
<bpm>0</bpm>
<rpm>0.00</rpm>
</extensions>
</trkpt>
<trkpt lat="64.153938293" lon="-21.953247070">
<ele>29.700195</ele>
<time>2012-07-18T11:25:30Z</time>
<speed>0.050000</speed>
<extensions>
<speed>0.1</speed>
<temp>0.00</temp>
<bpm>0</bpm>
<rpm>0.00</rpm>
</extensions>
</trkpt>
<trkpt lat="64.153938293" lon="-21.953248978">
<ele>29.280273</ele>
<time>2012-07-18T11:25:35Z</time>
<speed>0.080000</speed>
<extensions>
<speed>0.1</speed>
<temp>0.00</temp>
<bpm>0</bpm>
<rpm>0.00</rpm>
</extensions>
</trkpt>
<trkpt lat="64.153938293" lon="-21.953250885">
<ele>28.871094</ele>
<time>2012-07-18T11:25:40Z</time>
<speed>0.030000</speed>
<extensions>
<speed>0.0</speed>
<temp>0.00</temp>
<bpm>0</bpm>
<rpm>0.00</rpm>
</extensions>
</trkpt>
<trkpt lat="64.153930664" lon="-21.953254700">
<ele>28.473633</ele>
<time>2012-07-18T11:25:45Z</time>
<speed>0.110000</speed>
<extensions>
<speed>0.1</speed>
<temp>0.00</temp>
<bpm>0</bpm>
<rpm>0.00</rpm>
</extensions>
</trkpt>
<trkpt lat="64.153930664" lon="-21.953258514">
<ele>28.087402</ele>
<time>2012-07-18T11:25:50Z</time>
<speed>0.070000</speed>
<extensions>
<speed>0.1</speed>
<temp>0.00</temp>
<bpm>0</bpm>
<rpm>0.00</rpm>
</extensions>
</trkpt>
<trkpt lat="64.153930664" lon="-21.953258514">
<ele>27.698242</ele>
<time>2012-07-18T11:25:55Z</time>
<speed>0.010000</speed>
<extensions>
<speed>0.0</speed>
<temp>0.00</temp>
<bpm>0</bpm>
<rpm>0.00</rpm>
</extensions>
</trkpt>
<trkpt lat="64.153923035" lon="-21.953256607">
<ele>27.326172</ele>
<time>2012-07-18T11:26:00Z</time>
<speed>0.060000</speed>
<extensions>
<speed>0.1</speed>
<temp>0.00</temp>
<bpm>0</bpm>
<rpm>0.00</rpm>
</extensions>
</trkpt>
<trkpt lat="64.153923035" lon="-21.953258514">
<ele>26.964844</ele>
<time>2012-07-18T11:26:05Z</time>
<speed>0.080000</speed>
<extensions>
<speed>0.1</speed>
<temp>0.00</temp>
<bpm>0</bpm>
<rpm>0.00</rpm>
</extensions>
</trkpt>
<trkpt lat="64.153923035" lon="-21.953260422">
<ele>26.607422</ele>
<time>2012-07-18T11:26:10Z</time>
<speed>0.040000</speed>
<extensions>
<speed>0.0</speed>
<temp>0.00</temp>
<bpm>0</bpm>
<rpm>0.00</rpm>
</extensions>
</trkpt>
<trkpt lat="64.153923035" lon="-21.953262329">
<ele>26.261719</ele>
<time>2012-07-18T11:26:15Z</time>
<speed>0.020000</speed>
<extensions>
<speed>0.0</speed>
<temp>0.00</temp>
<bpm>0</bpm>
<rpm>0.00</rpm>
</extensions>
</trkpt>
<trkpt lat="64.153923035" lon="-21.953266144">
<ele>25.930664</ele>
<time>2012-07-18T11:26:20Z</time>
<speed>0.020000</speed>
<extensions>
<speed>0.0</speed>
<temp>0.00</temp>
<bpm>0</bpm>
<rpm>0.00</rpm>
</extensions>
</trkpt>
<trkpt lat="64.153923035" lon="-21.953264236">
<ele>25.605469</ele>
<time>2012-07-18T11:26:25Z</time>
<speed>0.030000</speed>
<extensions>
<speed>0.0</speed>
<temp>0.00</temp>
<bpm>0</bpm>
<rpm>0.00</rpm>
</extensions>
</trkpt>
<trkpt lat="64.153923035" lon="-21.953258514">
<ele>25.281738</ele>
<time>2012-07-18T11:26:30Z</time>
<speed>0.050000</speed>
<extensions>
<speed>0.1</speed>
<temp>0.00</temp>
<bpm>0</bpm>
<rpm>0.00</rpm>
</extensions>
</trkpt>
<trkpt lat="64.153923035" lon="-21.953250885">
<ele>24.955566</ele>
<time>2012-07-18T11:26:35Z</time>
<speed>0.070000</speed>
<extensions>
<speed>0.1</speed>
<temp>0.00</temp>
<bpm>0</bpm>
<rpm>0.00</rpm>
</extensions>
</trkpt>
<trkpt lat="64.153923035" lon="-21.953252792">
<ele>24.685547</ele>
<time>2012-07-18T11:26:40Z</time>
<speed>0.010000</speed>
<extensions>
<speed>0.0</speed>
<temp>0.00</temp>
<bpm>0</bpm>
<rpm>0.00</rpm>
</extensions>
</trkpt>
<trkpt lat="64.153923035" lon="-21.953252792">
<ele>24.458984</ele>
<time>2012-07-18T11:26:45Z</time>
<speed>0.020000</speed>
<extensions>
<speed>0.0</speed>
<temp>0.00</temp>
<bpm>0</bpm>
<rpm>0.00</rpm>
</extensions>
</trkpt>
<trkpt lat="64.153923035" lon="-21.953254700">
<ele>24.299316</ele>
<time>2012-07-18T11:26:50Z</time>
<speed>0.030000</speed>
<extensions>
<speed>0.0</speed>
<temp>0.00</temp>
<bpm>0</bpm>
<rpm>0.00</rpm>
</extensions>
</trkpt>
<trkpt lat="64.153923035" lon="-21.953254700">
<ele>24.182617</ele>
<time>2012-07-18T11:26:55Z</time>
<speed>0.020000</speed>
<extensions>
<speed>0.0</speed>
<temp>0.00</temp>
<bpm>0</bpm>
<rpm>0.00</rpm>
</extensions>
</trkpt>
<trkpt lat="64.153923035" lon="-21.953254700">
<ele>24.058594</ele>
<time>2012-07-18T11:27:00Z</time>
<speed>0.020000</speed>
<extensions>
<speed>0.0</speed>
<temp>0.00</temp>
<bpm>0</bpm>
<rpm>0.00</rpm>
</extensions>
</trkpt>
<trkpt lat="64.153923035" lon="-21.953254700">
<ele>23.952637</ele>
<time>2012-07-18T11:27:05Z</time>
<speed>0.060000</speed>
<extensions>
<speed>0.1</speed>
<temp>0.00</temp>
<bpm>0</bpm>
<rpm>0.00</rpm>
</extensions>
</trkpt>
<trkpt lat="64.153930664" lon="-21.953256607">
<ele>23.859863</ele>
<time>2012-07-18T11:27:10Z</time>
<speed>0.210000</speed>
<extensions>
<speed>0.2</speed>
<temp>0.00</temp>
<bpm>0</bpm>
<rpm>0.00</rpm>
</extensions>
</trkpt>
<trkpt lat="64.153945923" lon="-21.953258514">
<ele>23.740234</ele>
<time>2012-07-18T11:27:15Z</time>
<speed>0.340000</speed>
<extensions>
<speed>0.3</speed>
<temp>0.00</temp>
<bpm>0</bpm>
<rpm>0.00</rpm>
</extensions>
</trkpt>
<trkpt lat="64.154006958" lon="-21.953229904">
<ele>22.966797</ele>
<time>2012-07-18T11:27:20Z</time>
<speed>0.420000</speed>
<extensions>
<speed>0.4</speed>
<temp>0.00</temp>
<bpm>0</bpm>
<rpm>0.00</rpm>
</extensions>
</trkpt>
<trkpt lat="64.153991699" lon="-21.953260422">
<ele>22.901367</ele>
<time>2012-07-18T11:27:25Z</time>
<speed>0.020000</speed>
<extensions>
<speed>0.0</speed>
<temp>0.00</temp>
<bpm>0</bpm>
<rpm>0.00</rpm>
</extensions>
</trkpt>
<trkpt lat="64.153991699" lon="-21.953247070">
<ele>22.631348</ele>
<time>2012-07-18T11:27:30Z</time>
<speed>0.040000</speed>
<extensions>
<speed>0.0</speed>
<temp>0.00</temp>
<bpm>0</bpm>
<rpm>0.00</rpm>
</extensions>
</trkpt>
<trkpt lat="64.153991699" lon="-21.953247070">
<ele>22.410156</ele>
<time>2012-07-18T11:27:35Z</time>
<speed>0.100000</speed>
<extensions>
<speed>0.1</speed>
<temp>0.00</temp>
<bpm>0</bpm>
<rpm>0.00</rpm>
</extensions>
</trkpt>
<trkpt lat="64.153991699" lon="-21.953248978">
<ele>22.194824</ele>
<time>2012-07-18T11:27:40Z</time>
<speed>0.090000</speed>
<extensions>
<speed>0.1</speed>
<temp>0.00</temp>
<bpm>0</bpm>
<rpm>0.00</rpm>
</extensions>
</trkpt>
<trkpt lat="64.153984070" lon="-21.953247070">
<ele>21.928711</ele>
<time>2012-07-18T11:27:45Z</time>
<speed>0.040000</speed>
<extensions>
<speed>0.0</speed>
<temp>0.00</temp>
<bpm>0</bpm>
<rpm>0.00</rpm>
</extensions>
</trkpt>
<trkpt lat="64.153984070" lon="-21.953254700">
<ele>21.598145</ele>
<time>2012-07-18T11:27:50Z</time>
<speed>0.120000</speed>
<extensions>
<speed>0.1</speed>
<temp>0.00</temp>
<bpm>0</bpm>
<rpm>0.00</rpm>
</extensions>
</trkpt>
<trkpt lat="64.153984070" lon="-21.953260422">
<ele>21.232910</ele>
<time>2012-07-18T11:27:55Z</time>
<speed>0.030000</speed>
<extensions>
<speed>0.0</speed>
<temp>0.00</temp>
<bpm>0</bpm>
<rpm>0.00</rpm>
</extensions>
</trkpt>
<trkpt lat="64.153984070" lon="-21.953262329">
<ele>20.819824</ele>
<time>2012-07-18T11:28:00Z</time>
<speed>0.120000</speed>
<extensions>
<speed>0.1</speed>
<temp>0.00</temp>
<bpm>0</bpm>
<rpm>0.00</rpm>
</extensions>
</trkpt>
<trkpt lat="64.153976440" lon="-21.953260422">
<ele>20.338379</ele>
<time>2012-07-18T11:28:05Z</time>
<speed>0.010000</speed>
<extensions>
<speed>0.0</speed>
<temp>0.00</temp>
<bpm>0</bpm>
<rpm>0.00</rpm>
</extensions>
</trkpt>
<trkpt lat="64.153976440" lon="-21.953258514">
<ele>19.816406</ele>
<time>2012-07-18T11:28:10Z</time>
<speed>0.060000</speed>
<extensions>
<speed>0.1</speed>
<temp>0.00</temp>
<bpm>0</bpm>
<rpm>0.00</rpm>
</extensions>
</trkpt>
<trkpt lat="64.153984070" lon="-21.953245163">
<ele>19.252930</ele>
<time>2012-07-18T11:28:15Z</time>
<speed>0.250000</speed>
<extensions>
<speed>0.2</speed>
<temp>0.00</temp>
<bpm>0</bpm>
<rpm>0.00</rpm>
</extensions>
</trkpt>
<trkpt lat="64.153991699" lon="-21.953231812">
<ele>18.658691</ele>
<time>2012-07-18T11:28:20Z</time>
<speed>0.240000</speed>
<extensions>
<speed>0.2</speed>
<temp>0.00</temp>
<bpm>0</bpm>
<rpm>0.00</rpm>
</extensions>
</trkpt>
<trkpt lat="64.153999329" lon="-21.953222275">
<ele>18.089355</ele>
<time>2012-07-18T11:28:25Z</time>
<speed>0.130000</speed>
<extensions>
<speed>0.1</speed>
<temp>0.00</temp>
<bpm>0</bpm>
<rpm>0.00</rpm>
</extensions>
</trkpt>
<trkpt lat="64.154006958" lon="-21.953214645">
<ele>17.547363</ele>
<time>2012-07-18T11:28:30Z</time>
<speed>0.130000</speed>
<extensions>
<speed>0.1</speed>
<temp>0.00</temp>
<bpm>0</bpm>
<rpm>0.00</rpm>
</extensions>
</trkpt>
<trkpt lat="64.154006958" lon="-21.953205109">
<ele>17.014648</ele>
<time>2012-07-18T11:28:35Z</time>
<speed>0.110000</speed>
<extensions>
<speed>0.1</speed>
<temp>0.00</temp>
<bpm>0</bpm>
<rpm>0.00</rpm>
</extensions>
</trkpt>
<trkpt lat="64.154006958" lon="-21.953197479">
<ele>16.514648</ele>
<time>2012-07-18T11:28:40Z</time>
<speed>0.040000</speed>
<extensions>
<speed>0.0</speed>
<temp>0.00</temp>
<bpm>0</bpm>
<rpm>0.00</rpm>
</extensions>
</trkpt>
<trkpt lat="64.154006958" lon="-21.953199387">
<ele>16.035645</ele>
<time>2012-07-18T11:28:45Z</time>
<speed>0.080000</speed>
<extensions>
<speed>0.1</speed>
<temp>0.00</temp>
<bpm>0</bpm>
<rpm>0.00</rpm>
</extensions>
</trkpt>
<trkpt lat="64.153999329" lon="-21.953201294">
<ele>15.572510</ele>
<time>2012-07-18T11:28:50Z</time>
<speed>0.040000</speed>
<extensions>
<speed>0.0</speed>
<temp>0.00</temp>
<bpm>0</bpm>
<rpm>0.00</rpm>
</extensions>
</trkpt>
<trkpt lat="64.153999329" lon="-21.953203201">
<ele>15.106689</ele>
<time>2012-07-18T11:28:55Z</time>
<speed>0.040000</speed>
<extensions>
<speed>0.0</speed>
<temp>0.00</temp>
<bpm>0</bpm>
<rpm>0.00</rpm>
</extensions>
</trkpt>
<trkpt lat="64.153999329" lon="-21.953197479">
<ele>14.662842</ele>
<time>2012-07-18T11:29:00Z</time>
<speed>0.050000</speed>
<extensions>
<speed>0.1</speed>
<temp>0.00</temp>
<bpm>0</bpm>
<rpm>0.00</rpm>
</extensions>
</trkpt>
<trkpt lat="64.153999329" lon="-21.953195572">
<ele>14.245361</ele>
<time>2012-07-18T11:29:05Z</time>
<speed>0.030000</speed>
<extensions>
<speed>0.0</speed>
<temp>0.00</temp>
<bpm>0</bpm>
<rpm>0.00</rpm>
</extensions>
</trkpt>
<trkpt lat="64.153999329" lon="-21.953193665">
<ele>13.853760</ele>
<time>2012-07-18T11:29:10Z</time>
<speed>0.090000</speed>
<extensions>
<speed>0.1</speed>
<temp>0.00</temp>
<bpm>0</bpm>
<rpm>0.00</rpm>
</extensions>
</trkpt>
<trkpt lat="64.153991699" lon="-21.953191757">
<ele>13.488037</ele>
<time>2012-07-18T11:29:15Z</time>
<speed>0.210000</speed>
<extensions>
<speed>0.2</speed>
<temp>0.00</temp>
<bpm>0</bpm>
<rpm>0.00</rpm>
</extensions>
</trkpt>
<trkpt lat="64.153984070" lon="-21.953189850">
<ele>13.119629</ele>
<time>2012-07-18T11:29:20Z</time>
<speed>0.130000</speed>
<extensions>
<speed>0.1</speed>
<temp>0.00</temp>
<bpm>0</bpm>
<rpm>0.00</rpm>
</extensions>
</trkpt>
<trkpt lat="64.153976440" lon="-21.953182220">
<ele>12.399414</ele>
<time>2012-07-18T11:29:25Z</time>
<speed>0.570000</speed>
<extensions>
<speed>0.6</speed>
<temp>0.00</temp>
<bpm>0</bpm>
<rpm>0.00</rpm>
</extensions>
</trkpt>
<trkpt lat="64.153999329" lon="-21.953170776">
<ele>13.361572</ele>
<time>2012-07-18T11:29:30Z</time>
<speed>0.110000</speed>
<extensions>
<speed>0.1</speed>
<temp>0.00</temp>
<bpm>0</bpm>
<rpm>0.00</rpm>
</extensions>
</trkpt>
<trkpt lat="64.153999329" lon="-21.953180313">
<ele>13.073242</ele>
<time>2012-07-18T11:29:35Z</time>
<speed>0.100000</speed>
<extensions>
<speed>0.1</speed>
<temp>0.00</temp>
<bpm>0</bpm>
<rpm>0.00</rpm>
</extensions>
</trkpt>
<trkpt lat="64.153999329" lon="-21.953184128">
<ele>12.821289</ele>
<time>2012-07-18T11:29:40Z</time>
<speed>0.040000</speed>
<extensions>
<speed>0.0</speed>
<temp>0.00</temp>
<bpm>0</bpm>
<rpm>0.00</rpm>
</extensions>
</trkpt>
<trkpt lat="64.153999329" lon="-21.953182220">
<ele>12.770752</ele>
<time>2012-07-18T11:29:45Z</time>
<speed>0.010000</speed>
<extensions>
<speed>0.0</speed>
<temp>0.00</temp>
<bpm>0</bpm>
<rpm>0.00</rpm>
</extensions>
</trkpt>
<trkpt lat="64.153999329" lon="-21.953182220">
<ele>12.788574</ele>
<time>2012-07-18T11:29:50Z</time>
<speed>0.040000</speed>
<extensions>
<speed>0.0</speed>
<temp>0.00</temp>
<bpm>0</bpm>
<rpm>0.00</rpm>
</extensions>
</trkpt>
<trkpt lat="64.153984070" lon="-21.953130722">
<ele>12.571533</ele>
<time>2012-07-18T11:29:55Z</time>
<speed>1.540000</speed>
<extensions>
<speed>1.5</speed>
<temp>0.00</temp>
<bpm>0</bpm>
<rpm>0.00</rpm>
</extensions>
</trkpt>
<trkpt lat="64.153907776" lon="-21.952903748">
<ele>10.624756</ele>
<time>2012-07-18T11:30:00Z</time>
<speed>2.190000</speed>
<extensions>
<speed>2.2</speed>
<temp>0.00</temp>
<bpm>0</bpm>
<rpm>0.00</rpm>
</extensions>
</trkpt>
<trkpt lat="64.153808594" lon="-21.952722549">
<ele>10.574219</ele>
<time>2012-07-18T11:30:05Z</time>
<speed>2.460000</speed>
<extensions>
<speed>2.5</speed>
<temp>0.00</temp>
<bpm>0</bpm>
<rpm>0.00</rpm>
</extensions>
</trkpt>
<trkpt lat="64.153762817" lon="-21.952711105">
<ele>9.238525</ele>
<time>2012-07-18T11:30:10Z</time>
<speed>0.010000</speed>
<extensions>
<speed>0.0</speed>
<temp>0.00</temp>
<bpm>0</bpm>
<rpm>0.00</rpm>
</extensions>
</trkpt>
<trkpt lat="64.153739929" lon="-21.952695847">
<ele>8.326660</ele>
<time>2012-07-18T11:30:15Z</time>
<speed>1.160000</speed>
<extensions>
<speed>1.2</speed>
<temp>0.00</temp>
<bpm>0</bpm>
<rpm>0.00</rpm>
</extensions>
</trkpt>
<trkpt lat="64.153663635" lon="-21.952707291">
<ele>8.000244</ele>
<time>2012-07-18T11:30:20Z</time>
<speed>2.720000</speed>
<extensions>
<speed>2.7</speed>
<temp>0.00</temp>
<bpm>0</bpm>
<rpm>0.00</rpm>
</extensions>
</trkpt>
<trkpt lat="64.153541565" lon="-21.952877045">
<ele>7.405396</ele>
<time>2012-07-18T11:30:25Z</time>
<speed>2.940000</speed>
<extensions>
<speed>2.9</speed>
<temp>0.00</temp>
<bpm>0</bpm>
<rpm>0.00</rpm>
</extensions>
</trkpt>
<trkpt lat="64.153411865" lon="-21.952968597">
<ele>6.448486</ele>
<time>2012-07-18T11:30:30Z</time>
<speed>3.000000</speed>
<extensions>
<speed>3.0</speed>
<temp>0.00</temp>
<bpm>0</bpm>
<rpm>0.00</rpm>
</extensions>
</trkpt>
<trkpt lat="64.153266907" lon="-21.952968597">
<ele>6.867554</ele>
<time>2012-07-18T11:30:35Z</time>
<speed>2.950000</speed>
<extensions>
<speed>2.9</speed>
<temp>0.00</temp>
<bpm>0</bpm>
<rpm>0.00</rpm>
</extensions>
</trkpt>
<trkpt lat="64.153137207" lon="-21.953001022">
<ele>6.467407</ele>
<time>2012-07-18T11:30:40Z</time>
<speed>3.090000</speed>
<extensions>
<speed>3.1</speed>
<temp>0.00</temp>
<bpm>0</bpm>
<rpm>0.00</rpm>
</extensions>
</trkpt>
<trkpt lat="64.153015137" lon="-21.953187943">
<ele>6.143433</ele>
<time>2012-07-18T11:30:45Z</time>
<speed>3.540000</speed>
<extensions>
<speed>3.5</speed>
<temp>0.00</temp>
<bpm>0</bpm>
<rpm>0.00</rpm>
</extensions>
</trkpt>
<trkpt lat="64.152847290" lon="-21.953212738">
<ele>5.074463</ele>
<time>2012-07-18T11:30:50Z</time>
<speed>3.700000</speed>
<extensions>
<speed>3.7</speed>
<temp>0.00</temp>
<bpm>0</bpm>
<rpm>0.00</rpm>
</extensions>
</trkpt>
<trkpt lat="64.152709961" lon="-21.952959061">
<ele>4.833496</ele>
<time>2012-07-18T11:30:55Z</time>
<speed>3.970000</speed>
<extensions>
<speed>4.0</speed>
<temp>0.00</temp>
<bpm>0</bpm>
<rpm>0.00</rpm>
</extensions>
</trkpt>
<trkpt lat="64.152641296" lon="-21.952554703">
<ele>4.177490</ele>
<time>2012-07-18T11:31:00Z</time>
<speed>4.060000</speed>
<extensions>
<speed>4.1</speed>
<temp>0.00</temp>
<bpm>0</bpm>
<rpm>0.00</rpm>
</extensions>
</trkpt>
<trkpt lat="64.152519226" lon="-21.952249527">
<ele>4.339233</ele>
<time>2012-07-18T11:31:05Z</time>
<speed>3.730000</speed>
<extensions>
<speed>3.7</speed>
<temp>0.00</temp>
<bpm>0</bpm>
<rpm>0.00</rpm>
</extensions>
</trkpt>
<trkpt lat="64.152427673" lon="-21.951950073">
<ele>5.262329</ele>
<time>2012-07-18T11:31:10Z</time>
<speed>3.170000</speed>
<extensions>
<speed>3.2</speed>
<temp>0.00</temp>
<bpm>0</bpm>
<rpm>0.00</rpm>
</extensions>
</trkpt>
<trkpt lat="64.152359009" lon="-21.951698303">
<ele>7.045654</ele>
<time>2012-07-18T11:31:15Z</time>
<speed>2.920000</speed>
<extensions>
<speed>2.9</speed>
<temp>0.00</temp>
<bpm>0</bpm>
<rpm>0.00</rpm>
</extensions>
</trkpt>
<trkpt lat="64.152282715" lon="-21.951446533">
<ele>8.749512</ele>
<time>2012-07-18T11:31:20Z</time>
<speed>2.920000</speed>
<extensions>
<speed>2.9</speed>
<temp>0.00</temp>
<bpm>0</bpm>
<rpm>0.00</rpm>
</extensions>
</trkpt>
<trkpt lat="64.152214050" lon="-21.951158524">
<ele>9.281250</ele>
<time>2012-07-18T11:31:25Z</time>
<speed>2.880000</speed>
<extensions>
<speed>2.9</speed>
<temp>0.00</temp>
<bpm>0</bpm>
<rpm>0.00</rpm>
</extensions>
</trkpt>
<trkpt lat="64.152153015" lon="-21.950845718">
<ele>12.351807</ele>
<time>2012-07-18T11:31:30Z</time>
<speed>3.830000</speed>
<extensions>
<speed>3.8</speed>
<temp>0.00</temp>
<bpm>0</bpm>
<rpm>0.00</rpm>
</extensions>
</trkpt>
<trkpt lat="64.152061462" lon="-21.950466156">
<ele>13.332275</ele>
<time>2012-07-18T11:31:35Z</time>
<speed>3.500000</speed>
<extensions>
<speed>3.5</speed>
<temp>0.00</temp>
<bpm>0</bpm>
<rpm>0.00</rpm>
</extensions>
</trkpt>
<trkpt lat="64.151969910" lon="-21.950214386">
<ele>15.342529</ele>
<time>2012-07-18T11:31:40Z</time>
<speed>3.250000</speed>
<extensions>
<speed>3.2</speed>
<temp>0.00</temp>
<bpm>0</bpm>
<rpm>0.00</rpm>
</extensions>
</trkpt>
<trkpt lat="64.151878357" lon="-21.949876785">
<ele>15.383057</ele>
<time>2012-07-18T11:31:45Z</time>
<speed>3.990000</speed>
<extensions>
<speed>4.0</speed>
<temp>0.00</temp>
<bpm>0</bpm>
<rpm>0.00</rpm>
</extensions>
</trkpt>
<trkpt lat="64.151748657" lon="-21.949522018">
<ele>14.843994</ele>
<time>2012-07-18T11:31:50Z</time>
<speed>4.430000</speed>
<extensions>
<speed>4.4</speed>
<temp>0.00</temp>
<bpm>0</bpm>
<rpm>0.00</rpm>
</extensions>
</trkpt>
<trkpt lat="64.151618958" lon="-21.949176788">
<ele>13.497070</ele>
<time>2012-07-18T11:31:55Z</time>
<speed>4.140000</speed>
<extensions>
<speed>4.1</speed>
<temp>0.00</temp>
<bpm>0</bpm>
<rpm>0.00</rpm>
</extensions>
</trkpt>
<trkpt lat="64.151512146" lon="-21.948860168">
<ele>12.915771</ele>
<time>2012-07-18T11:32:00Z</time>
<speed>3.800000</speed>
<extensions>
<speed>3.8</speed>
<temp>0.00</temp>
<bpm>0</bpm>
<rpm>0.00</rpm>
</extensions>
</trkpt>
<trkpt lat="64.151397705" lon="-21.948564529">
<ele>11.781250</ele>
<time>2012-07-18T11:32:05Z</time>
<speed>3.710000</speed>
<extensions>
<speed>3.7</speed>
<temp>0.00</temp>
<bpm>0</bpm>
<rpm>0.00</rpm>
</extensions>
</trkpt>
<trkpt lat="64.151290894" lon="-21.948251724">
<ele>11.001953</ele>
<time>2012-07-18T11:32:10Z</time>
<speed>4.170000</speed>
<extensions>
<speed>4.2</speed>
<temp>0.00</temp>
<bpm>0</bpm>
<rpm>0.00</rpm>
</extensions>
</trkpt>
<trkpt lat="64.151184082" lon="-21.947980881">
<ele>13.396484</ele>
<time>2012-07-18T11:32:15Z</time>
<speed>3.440000</speed>
<extensions>
<speed>3.4</speed>
<temp>0.00</temp>
<bpm>0</bpm>
<rpm>0.00</rpm>
</extensions>
</trkpt>
<trkpt lat="64.151130676" lon="-21.947759628">
<ele>15.257813</ele>
<time>2012-07-18T11:32:20Z</time>
<speed>1.140000</speed>
<extensions>
<speed>1.1</speed>
<temp>0.00</temp>
<bpm>0</bpm>
<rpm>0.00</rpm>
</extensions>
</trkpt>
<trkpt lat="64.151069641" lon="-21.947460175">
<ele>15.948730</ele>
<time>2012-07-18T11:32:25Z</time>
<speed>3.950000</speed>
<extensions>
<speed>4.0</speed>
<temp>0.00</temp>
<bpm>0</bpm>
<rpm>0.00</rpm>
</extensions>
</trkpt>
<trkpt lat="64.151016235" lon="-21.947044373">
<ele>18.889160</ele>
<time>2012-07-18T11:32:30Z</time>
<speed>4.020000</speed>
<extensions>
<speed>4.0</speed>
<temp>0.00</temp>
<bpm>0</bpm>
<rpm>0.00</rpm>
</extensions>
</trkpt>
<trkpt lat="64.150947571" lon="-21.946691513">
<ele>20.466797</ele>
<time>2012-07-18T11:32:35Z</time>
<speed>3.670000</speed>
<extensions>
<speed>3.7</speed>
<temp>0.00</temp>
<bpm>0</bpm>
<rpm>0.00</rpm>
</extensions>
</trkpt>
<trkpt lat="64.150901794" lon="-21.946342468">
<ele>23.035156</ele>
<time>2012-07-18T11:32:40Z</time>
<speed>3.430000</speed>
<extensions>
<speed>3.4</speed>
<temp>0.00</temp>
<bpm>0</bpm>
<rpm>0.00</rpm>
</extensions>
</trkpt>
<trkpt lat="64.150863647" lon="-21.945960999">
<ele>24.139160</ele>
<time>2012-07-18T11:32:45Z</time>
<speed>3.510000</speed>
<extensions>
<speed>3.5</speed>
<temp>0.00</temp>
<bpm>0</bpm>
<rpm>0.00</rpm>
</extensions>
</trkpt>
<trkpt lat="64.150833130" lon="-21.945730209">
<ele>24.864746</ele>
<time>2012-07-18T11:32:50Z</time>
<speed>1.110000</speed>
<extensions>
<speed>1.1</speed>
<temp>0.00</temp>
<bpm>0</bpm>
<rpm>0.00</rpm>
</extensions>
</trkpt>
<trkpt lat="64.150810242" lon="-21.945714951">
<ele>24.489258</ele>
<time>2012-07-18T11:32:55Z</time>
<speed>0.180000</speed>
<extensions>
<speed>0.2</speed>
<temp>0.00</temp>
<bpm>0</bpm>
<rpm>0.00</rpm>
</extensions>
</trkpt>
<trkpt lat="64.150802612" lon="-21.945718765">
<ele>24.744629</ele>
<time>2012-07-18T11:33:00Z</time>
<speed>0.170000</speed>
<extensions>
<speed>0.2</speed>
<temp>0.00</temp>
<bpm>0</bpm>
<rpm>0.00</rpm>
</extensions>
</trkpt>
<trkpt lat="64.150787354" lon="-21.945619583">
<ele>24.506348</ele>
<time>2012-07-18T11:33:05Z</time>
<speed>1.650000</speed>
<extensions>
<speed>1.7</speed>
<temp>0.00</temp>
<bpm>0</bpm>
<rpm>0.00</rpm>
</extensions>
</trkpt>
<trkpt lat="64.150794983" lon="-21.945287704">
<ele>22.683105</ele>
<time>2012-07-18T11:33:10Z</time>
<speed>4.480000</speed>
<extensions>
<speed>4.5</speed>
<temp>0.00</temp>
<bpm>0</bpm>
<rpm>0.00</rpm>
</extensions>
</trkpt>
<trkpt lat="64.150741577" lon="-21.944759369">
<ele>17.449707</ele>
<time>2012-07-18T11:33:15Z</time>
<speed>4.830000</speed>
<extensions>
<speed>4.8</speed>
<temp>0.00</temp>
<bpm>0</bpm>
<rpm>0.00</rpm>
</extensions>
</trkpt>
<trkpt lat="64.150672913" lon="-21.944244385">
<ele>14.510254</ele>
<time>2012-07-18T11:33:20Z</time>
<speed>5.870000</speed>
<extensions>
<speed>5.9</speed>
<temp>0.00</temp>
<bpm>0</bpm>
<rpm>0.00</rpm>
</extensions>
</trkpt>
<trkpt lat="64.150535583" lon="-21.943843842">
<ele>12.400635</ele>
<time>2012-07-18T11:33:25Z</time>
<speed>4.510000</speed>
<extensions>
<speed>4.5</speed>
<temp>0.00</temp>
<bpm>0</bpm>
<rpm>0.00</rpm>
</extensions>
</trkpt>
<trkpt lat="64.150413513" lon="-21.943511963">
<ele>13.318115</ele>
<time>2012-07-18T11:33:30Z</time>
<speed>3.910000</speed>
<extensions>
<speed>3.9</speed>
<temp>0.00</temp>
<bpm>0</bpm>
<rpm>0.00</rpm>
</extensions>
</trkpt>
<trkpt lat="64.150276184" lon="-21.943233490">
<ele>15.151367</ele>
<time>2012-07-18T11:33:35Z</time>
<speed>3.940000</speed>
<extensions>
<speed>3.9</speed>
<temp>0.00</temp>
<bpm>0</bpm>
<rpm>0.00</rpm>
</extensions>
</trkpt>
<trkpt lat="64.150146484" lon="-21.943088531">
<ele>17.380371</ele>
<time>2012-07-18T11:33:40Z</time>
<speed>2.510000</speed>
<extensions>
<speed>2.5</speed>
<temp>0.00</temp>
<bpm>0</bpm>
<rpm>0.00</rpm>
</extensions>
</trkpt>
<trkpt lat="64.150054932" lon="-21.943065643">
<ele>16.705566</ele>
<time>2012-07-18T11:33:45Z</time>
<speed>1.940000</speed>
<extensions>
<speed>1.9</speed>
<temp>0.00</temp>
<bpm>0</bpm>
<rpm>0.00</rpm>
</extensions>
</trkpt>
<trkpt lat="64.149963379" lon="-21.943012238">
<ele>15.658203</ele>
<time>2012-07-18T11:33:50Z</time>
<speed>1.320000</speed>
<extensions>
<speed>1.3</speed>
<temp>0.00</temp>
<bpm>0</bpm>
<rpm>0.00</rpm>
</extensions>
</trkpt>
<trkpt lat="64.149917603" lon="-21.942886353">
<ele>18.170410</ele>
<time>2012-07-18T11:33:55Z</time>
<speed>1.700000</speed>
<extensions>
<speed>1.7</speed>
<temp>0.00</temp>
<bpm>0</bpm>
<rpm>0.00</rpm>
</extensions>
</trkpt>
<trkpt lat="64.149833679" lon="-21.942750931">
<ele>20.221191</ele>
<time>2012-07-18T11:34:00Z</time>
<speed>2.740000</speed>
<extensions>
<speed>2.7</speed>
<temp>0.00</temp>
<bpm>0</bpm>
<rpm>0.00</rpm>
</extensions>
</trkpt>
<trkpt lat="64.149711609" lon="-21.942623138">
<ele>20.471191</ele>
<time>2012-07-18T11:34:05Z</time>
<speed>2.820000</speed>
<extensions>
<speed>2.8</speed>
<temp>0.00</temp>
<bpm>0</bpm>
<rpm>0.00</rpm>
</extensions>
</trkpt>
<trkpt lat="64.149642944" lon="-21.942377090">
<ele>21.174316</ele>
<time>2012-07-18T11:34:10Z</time>
<speed>2.580000</speed>
<extensions>
<speed>2.6</speed>
<temp>0.00</temp>
<bpm>0</bpm>
<rpm>0.00</rpm>
</extensions>
</trkpt>
<trkpt lat="64.149543762" lon="-21.942216873">
<ele>21.817383</ele>
<time>2012-07-18T11:34:15Z</time>
<speed>3.420000</speed>
<extensions>
<speed>3.4</speed>
<temp>0.00</temp>
<bpm>0</bpm>
<rpm>0.00</rpm>
</extensions>
</trkpt>
<trkpt lat="64.149421692" lon="-21.942073822">
<ele>23.513672</ele>
<time>2012-07-18T11:34:20Z</time>
<speed>2.900000</speed>
<extensions>
<speed>2.9</speed>
<temp>0.00</temp>
<bpm>0</bpm>
<rpm>0.00</rpm>
</extensions>
</trkpt>
<trkpt lat="64.149299622" lon="-21.941844940">
<ele>27.472168</ele>
<time>2012-07-18T11:34:25Z</time>
<speed>2.730000</speed>
<extensions>
<speed>2.7</speed>
<temp>0.00</temp>
<bpm>0</bpm>
<rpm>0.00</rpm>
</extensions>
</trkpt>
<trkpt lat="64.149223328" lon="-21.941720963">
<ele>30.126953</ele>
<time>2012-07-18T11:34:30Z</time>
<speed>1.530000</speed>
<extensions>
<speed>1.5</speed>
<temp>0.00</temp>
<bpm>0</bpm>
<rpm>0.00</rpm>
</extensions>
</trkpt>
<trkpt lat="64.149147034" lon="-21.941566467">
<ele>28.927246</ele>
<time>2012-07-18T11:34:35Z</time>
<speed>1.850000</speed>
<extensions>
<speed>1.8</speed>
<temp>0.00</temp>
<bpm>0</bpm>
<rpm>0.00</rpm>
</extensions>
</trkpt>
<trkpt lat="64.149093628" lon="-21.941291809">
<ele>28.718262</ele>
<time>2012-07-18T11:34:40Z</time>
<speed>1.910000</speed>
<extensions>
<speed>1.9</speed>
<temp>0.00</temp>
<bpm>0</bpm>
<rpm>0.00</rpm>
</extensions>
</trkpt>
<trkpt lat="64.149032593" lon="-21.941144943">
<ele>27.271973</ele>
<time>2012-07-18T11:34:45Z</time>
<speed>0.990000</speed>
<extensions>
<speed>1.0</speed>
<temp>0.00</temp>
<bpm>0</bpm>
<rpm>0.00</rpm>
</extensions>
</trkpt>
<trkpt lat="64.149040222" lon="-21.941043854">
<ele>25.587402</ele>
<time>2012-07-18T11:34:50Z</time>
<speed>1.500000</speed>
<extensions>
<speed>1.5</speed>
<temp>0.00</temp>
<bpm>0</bpm>
<rpm>0.00</rpm>
</extensions>
</trkpt>
<trkpt lat="64.149040222" lon="-21.941011429">
<ele>24.529785</ele>
<time>2012-07-18T11:34:55Z</time>
<speed>1.070000</speed>
<extensions>
<speed>1.1</speed>
<temp>0.00</temp>
<bpm>0</bpm>
<rpm>0.00</rpm>
</extensions>
</trkpt>
<trkpt lat="64.148986816" lon="-21.940931320">
<ele>22.520996</ele>
<time>2012-07-18T11:35:00Z</time>
<speed>0.540000</speed>
<extensions>
<speed>0.5</speed>
<temp>0.00</temp>
<bpm>0</bpm>
<rpm>0.00</rpm>
</extensions>
</trkpt>
<trkpt lat="64.148986816" lon="-21.940959930">
<ele>22.729980</ele>
<time>2012-07-18T11:35:05Z</time>
<speed>0.280000</speed>
<extensions>
<speed>0.3</speed>
<temp>0.00</temp>
<bpm>0</bpm>
<rpm>0.00</rpm>
</extensions>
</trkpt>
<trkpt lat="64.148994446" lon="-21.941003799">
<ele>22.765625</ele>
<time>2012-07-18T11:35:10Z</time>
<speed>0.850000</speed>
<extensions>
<speed>0.8</speed>
<temp>0.00</temp>
<bpm>0</bpm>
<rpm>0.00</rpm>
</extensions>
</trkpt>
<trkpt lat="64.149055481" lon="-21.941118240">
<ele>23.394043</ele>
<time>2012-07-18T11:35:15Z</time>
<speed>2.100000</speed>
<extensions>
<speed>2.1</speed>
<temp>0.00</temp>
<bpm>0</bpm>
<rpm>0.00</rpm>
</extensions>
</trkpt>
<trkpt lat="64.149093628" lon="-21.941333771">
<ele>27.008789</ele>
<time>2012-07-18T11:35:20Z</time>
<speed>1.450000</speed>
<extensions>
<speed>1.4</speed>
<temp>0.00</temp>
<bpm>0</bpm>
<rpm>0.00</rpm>
</extensions>
</trkpt>
<trkpt lat="64.149040222" lon="-21.941373825">
<ele>33.132813</ele>
<time>2012-07-18T11:35:25Z</time>
<speed>1.470000</speed>
<extensions>
<speed>1.5</speed>
<temp>0.00</temp>
<bpm>0</bpm>
<rpm>0.00</rpm>
</extensions>
</trkpt>
<trkpt lat="64.148994446" lon="-21.941444397">
<ele>38.471680</ele>
<time>2012-07-18T11:35:30Z</time>
<speed>1.010000</speed>
<extensions>
<speed>1.0</speed>
<temp>0.00</temp>
<bpm>0</bpm>
<rpm>0.00</rpm>
</extensions>
</trkpt>
<trkpt lat="64.148902893" lon="-21.941446304">
<ele>40.748047</ele>
<time>2012-07-18T11:35:35Z</time>
<speed>1.240000</speed>
<extensions>
<speed>1.2</speed>
<temp>0.00</temp>
<bpm>0</bpm>
<rpm>0.00</rpm>
</extensions>
</trkpt>
<trkpt lat="64.148834229" lon="-21.941450119">
<ele>39.951172</ele>
<time>2012-07-18T11:35:40Z</time>
<speed>1.850000</speed>
<extensions>
<speed>1.8</speed>
<temp>0.00</temp>
<bpm>0</bpm>
<rpm>0.00</rpm>
</extensions>
</trkpt>
<trkpt lat="64.148773193" lon="-21.941305161">
<ele>40.950195</ele>
<time>2012-07-18T11:35:45Z</time>
<speed>2.310000</speed>
<extensions>
<speed>2.3</speed>
<temp>0.00</temp>
<bpm>0</bpm>
<rpm>0.00</rpm>
</extensions>
</trkpt>
<trkpt lat="64.148712158" lon="-21.941347122">
<ele>40.381836</ele>
<time>2012-07-18T11:35:50Z</time>
<speed>0.350000</speed>
<extensions>
<speed>0.3</speed>
<temp>0.00</temp>
<bpm>0</bpm>
<rpm>0.00</rpm>
</extensions>
</trkpt>
<trkpt lat="64.148666382" lon="-21.941438675">
<ele>39.031250</ele>
<time>2012-07-18T11:35:55Z</time>
<speed>0.100000</speed>
<extensions>
<speed>0.1</speed>
<temp>0.00</temp>
<bpm>0</bpm>
<rpm>0.00</rpm>
</extensions>
</trkpt>
<trkpt lat="64.148666382" lon="-21.941446304">
<ele>39.183594</ele>
<time>2012-07-18T11:36:00Z</time>
<speed>0.030000</speed>
<extensions>
<speed>0.0</speed>
<temp>0.00</temp>
<bpm>0</bpm>
<rpm>0.00</rpm>
</extensions>
</trkpt>
<trkpt lat="64.148651123" lon="-21.941419601">
<ele>39.095703</ele>
<time>2012-07-18T11:36:05Z</time>
<speed>0.640000</speed>
<extensions>
<speed>0.6</speed>
<temp>0.00</temp>
<bpm>0</bpm>
<rpm>0.00</rpm>
</extensions>
</trkpt>
<trkpt lat="64.148620605" lon="-21.941387177">
<ele>36.983398</ele>
<time>2012-07-18T11:36:10Z</time>
<speed>0.330000</speed>
<extensions>
<speed>0.3</speed>
<temp>0.00</temp>
<bpm>0</bpm>
<rpm>0.00</rpm>
</extensions>
</trkpt>
<trkpt lat="64.148605347" lon="-21.941360474">
<ele>36.314453</ele>
<time>2012-07-18T11:36:15Z</time>
<speed>0.180000</speed>
<extensions>
<speed>0.2</speed>
<temp>0.00</temp>
<bpm>0</bpm>
<rpm>0.00</rpm>
</extensions>
</trkpt>
<trkpt lat="64.148605347" lon="-21.941354752">
<ele>36.319336</ele>
<time>2012-07-18T11:36:20Z</time>
<speed>0.080000</speed>
<extensions>
<speed>0.1</speed>
<temp>0.00</temp>
<bpm>0</bpm>
<rpm>0.00</rpm>
</extensions>
</trkpt>
<trkpt lat="64.148612976" lon="-21.941354752">
<ele>36.354492</ele>
<time>2012-07-18T11:36:25Z</time>
<speed>0.140000</speed>
<extensions>
<speed>0.1</speed>
<temp>0.00</temp>
<bpm>0</bpm>
<rpm>0.00</rpm>
</extensions>
</trkpt>
<trkpt lat="64.148612976" lon="-21.941364288">
<ele>36.381836</ele>
<time>2012-07-18T11:36:30Z</time>
<speed>0.110000</speed>
<extensions>
<speed>0.1</speed>
<temp>0.00</temp>
<bpm>0</bpm>
<rpm>0.00</rpm>
</extensions>
</trkpt>
<trkpt lat="64.148620605" lon="-21.941364288">
<ele>36.399414</ele>
<time>2012-07-18T11:36:35Z</time>
<speed>0.070000</speed>
<extensions>
<speed>0.1</speed>
<temp>0.00</temp>
<bpm>0</bpm>
<rpm>0.00</rpm>
</extensions>
</trkpt>
<trkpt lat="64.148582458" lon="-21.941318512">
<ele>35.458984</ele>
<time>2012-07-18T11:36:40Z</time>
<speed>0.880000</speed>
<extensions>
<speed>0.9</speed>
<temp>0.00</temp>
<bpm>0</bpm>
<rpm>0.00</rpm>
</extensions>
</trkpt>
<trkpt lat="64.148529053" lon="-21.941261292">
<ele>32.530273</ele>
<time>2012-07-18T11:36:45Z</time>
<speed>1.690000</speed>
<extensions>
<speed>1.7</speed>
<temp>0.00</temp>
<bpm>0</bpm>
<rpm>0.00</rpm>
</extensions>
</trkpt>
<trkpt lat="64.148468018" lon="-21.941257477">
<ele>29.384766</ele>
<time>2012-07-18T11:36:50Z</time>
<speed>1.380000</speed>
<extensions>
<speed>1.4</speed>
<temp>0.00</temp>
<bpm>0</bpm>
<rpm>0.00</rpm>
</extensions>
</trkpt>
<trkpt lat="64.148437500" lon="-21.941198349">
<ele>28.125977</ele>
<time>2012-07-18T11:36:55Z</time>
<speed>0.170000</speed>
<extensions>
<speed>0.2</speed>
<temp>0.00</temp>
<bpm>0</bpm>
<rpm>0.00</rpm>
</extensions>
</trkpt>
<trkpt lat="64.148437500" lon="-21.941190720">
<ele>27.034180</ele>
<time>2012-07-18T11:37:00Z</time>
<extensions>
<speed>0.0</speed>
<temp>0.00</temp>
<bpm>0</bpm>
<rpm>0.00</rpm>
</extensions>
</trkpt>
<trkpt lat="64.148437500" lon="-21.941188812">
<ele>26.892578</ele>
<time>2012-07-18T11:37:05Z</time>
<speed>0.020000</speed>
<extensions>
<speed>0.0</speed>
<temp>0.00</temp>
<bpm>0</bpm>
<rpm>0.00</rpm>
</extensions>
</trkpt>
<trkpt lat="64.148437500" lon="-21.941190720">
<ele>26.817383</ele>
<time>2012-07-18T11:37:10Z</time>
<speed>0.060000</speed>
<extensions>
<speed>0.1</speed>
<temp>0.00</temp>
<bpm>0</bpm>
<rpm>0.00</rpm>
</extensions>
</trkpt>
<trkpt lat="64.148437500" lon="-21.941190720">
<ele>26.801758</ele>
<time>2012-07-18T11:37:15Z</time>
<speed>0.080000</speed>
<extensions>
<speed>0.1</speed>
<temp>0.00</temp>
<bpm>0</bpm>
<rpm>0.00</rpm>
</extensions>
</trkpt>
<trkpt lat="64.148437500" lon="-21.941188812">
<ele>26.822266</ele>
<time>2012-07-18T11:37:20Z</time>
<extensions>
<speed>0.0</speed>
<temp>0.00</temp>
<bpm>0</bpm>
<rpm>0.00</rpm>
</extensions>
</trkpt>
<trkpt lat="64.148437500" lon="-21.941188812">
<ele>26.874512</ele>
<time>2012-07-18T11:37:25Z</time>
<speed>0.120000</speed>
<extensions>
<speed>0.1</speed>
<temp>0.00</temp>
<bpm>0</bpm>
<rpm>0.00</rpm>
</extensions>
</trkpt>
<trkpt lat="64.148437500" lon="-21.941186905">
<ele>26.926270</ele>
<time>2012-07-18T11:37:30Z</time>
<extensions>
<speed>0.0</speed>
<temp>0.00</temp>
<bpm>0</bpm>
<rpm>0.00</rpm>
</extensions>
</trkpt>
<trkpt lat="64.148437500" lon="-21.941186905">
<ele>26.964844</ele>
<time>2012-07-18T11:37:35Z</time>
<speed>0.010000</speed>
<extensions>
<speed>0.0</speed>
<temp>0.00</temp>
<bpm>0</bpm>
<rpm>0.00</rpm>
</extensions>
</trkpt>
<trkpt lat="64.148437500" lon="-21.941184998">
<ele>27.016602</ele>
<time>2012-07-18T11:37:40Z</time>
<speed>0.010000</speed>
<extensions>
<speed>0.0</speed>
<temp>0.00</temp>
<bpm>0</bpm>
<rpm>0.00</rpm>
</extensions>
</trkpt>
<trkpt lat="64.148437500" lon="-21.941184998">
<ele>27.049316</ele>
<time>2012-07-18T11:37:45Z</time>
<speed>0.010000</speed>
<extensions>
<speed>0.0</speed>
<temp>0.00</temp>
<bpm>0</bpm>
<rpm>0.00</rpm>
</extensions>
</trkpt>
<trkpt lat="64.148437500" lon="-21.941184998">
<ele>27.068848</ele>
<time>2012-07-18T11:37:50Z</time>
<speed>0.010000</speed>
<extensions>
<speed>0.0</speed>
<temp>0.00</temp>
<bpm>0</bpm>
<rpm>0.00</rpm>
</extensions>
</trkpt>
<trkpt lat="64.148437500" lon="-21.941184998">
<ele>27.118164</ele>
<time>2012-07-18T11:37:55Z</time>
<speed>0.030000</speed>
<extensions>
<speed>0.0</speed>
<temp>0.00</temp>
<bpm>0</bpm>
<rpm>0.00</rpm>
</extensions>
</trkpt>
<trkpt lat="64.148445129" lon="-21.941179276">
<ele>27.287598</ele>
<time>2012-07-18T11:38:00Z</time>
<speed>0.110000</speed>
<extensions>
<speed>0.1</speed>
<temp>0.00</temp>
<bpm>0</bpm>
<rpm>0.00</rpm>
</extensions>
</trkpt>
<trkpt lat="64.148445129" lon="-21.941164017">
<ele>27.531250</ele>
<time>2012-07-18T11:38:05Z</time>
<speed>0.210000</speed>
<extensions>
<speed>0.2</speed>
<temp>0.00</temp>
<bpm>0</bpm>
<rpm>0.00</rpm>
</extensions>
</trkpt>
<trkpt lat="64.148445129" lon="-21.941141129">
<ele>27.861328</ele>
<time>2012-07-18T11:38:10Z</time>
<speed>0.320000</speed>
<extensions>
<speed>0.3</speed>
<temp>0.00</temp>
<bpm>0</bpm>
<rpm>0.00</rpm>
</extensions>
</trkpt>
<trkpt lat="64.148399353" lon="-21.941104889">
<ele>28.738770</ele>
<time>2012-07-18T11:38:15Z</time>
<speed>0.050000</speed>
<extensions>
<speed>0.1</speed>
<temp>0.00</temp>
<bpm>0</bpm>
<rpm>0.00</rpm>
</extensions>
</trkpt>
<trkpt lat="64.148345947" lon="-21.940969467">
<ele>27.177246</ele>
<time>2012-07-18T11:38:20Z</time>
<speed>1.840000</speed>
<extensions>
<speed>1.8</speed>
<temp>0.00</temp>
<bpm>0</bpm>
<rpm>0.00</rpm>
</extensions>
</trkpt>
<trkpt lat="64.148315430" lon="-21.940887451">
<ele>23.946777</ele>
<time>2012-07-18T11:38:25Z</time>
<speed>1.190000</speed>
<extensions>
<speed>1.2</speed>
<temp>0.00</temp>
<bpm>0</bpm>
<rpm>0.00</rpm>
</extensions>
</trkpt>
<trkpt lat="64.148284912" lon="-21.940683365">
<ele>22.476074</ele>
<time>2012-07-18T11:38:30Z</time>
<speed>2.340000</speed>
<extensions>
<speed>2.3</speed>
<temp>0.00</temp>
<bpm>0</bpm>
<rpm>0.00</rpm>
</extensions>
</trkpt>
<trkpt lat="64.148315430" lon="-21.940399170">
<ele>21.390137</ele>
<time>2012-07-18T11:38:35Z</time>
<speed>2.110000</speed>
<extensions>
<speed>2.1</speed>
<temp>0.00</temp>
<bpm>0</bpm>
<rpm>0.00</rpm>
</extensions>
</trkpt>
<trkpt lat="64.148368835" lon="-21.940284729">
<ele>22.018066</ele>
<time>2012-07-18T11:38:40Z</time>
<speed>0.480000</speed>
<extensions>
<speed>0.5</speed>
<temp>0.00</temp>
<bpm>0</bpm>
<rpm>0.00</rpm>
</extensions>
</trkpt>
<trkpt lat="64.148406982" lon="-21.940231323">
<ele>22.932617</ele>
<time>2012-07-18T11:38:45Z</time>
<speed>0.080000</speed>
<extensions>
<speed>0.1</speed>
<temp>0.00</temp>
<bpm>0</bpm>
<rpm>0.00</rpm>
</extensions>
</trkpt>
<trkpt lat="64.148460388" lon="-21.940181732">
<ele>23.155762</ele>
<time>2012-07-18T11:38:50Z</time>
<speed>1.830000</speed>
<extensions>
<speed>1.8</speed>
<temp>0.00</temp>
<bpm>0</bpm>
<rpm>0.00</rpm>
</extensions>
</trkpt>
<trkpt lat="64.148567200" lon="-21.940080643">
<ele>22.172363</ele>
<time>2012-07-18T11:38:55Z</time>
<speed>2.180000</speed>
<extensions>
<speed>2.2</speed>
<temp>0.00</temp>
<bpm>0</bpm>
<rpm>0.00</rpm>
</extensions>
</trkpt>
<trkpt lat="64.148597717" lon="-21.939945221">
<ele>8.702637</ele>
<time>2012-07-18T11:39:00Z</time>
<speed>1.290000</speed>
<extensions>
<speed>1.3</speed>
<temp>0.00</temp>
<bpm>0</bpm>
<rpm>0.00</rpm>
</extensions>
</trkpt>
<trkpt lat="64.148582458" lon="-21.940050125">
<ele>5.264160</ele>
<time>2012-07-18T11:39:05Z</time>
<speed>3.340000</speed>
<extensions>
<speed>3.3</speed>
<temp>0.00</temp>
<bpm>0</bpm>
<rpm>0.00</rpm>
</extensions>
</trkpt>
<trkpt lat="64.148559570" lon="-21.940238953">
<ele>2.154541</ele>
<time>2012-07-18T11:39:10Z</time>
<speed>2.560000</speed>
<extensions>
<speed>2.6</speed>
<temp>0.00</temp>
<bpm>0</bpm>
<rpm>0.00</rpm>
</extensions>
</trkpt>
<trkpt lat="64.148574829" lon="-21.940448761">
<ele>2.168213</ele>
<time>2012-07-18T11:39:15Z</time>
<speed>1.820000</speed>
<extensions>
<speed>1.8</speed>
<temp>0.00</temp>
<bpm>0</bpm>
<rpm>0.00</rpm>
</extensions>
</trkpt>
<trkpt lat="64.148628235" lon="-21.940559387">
<ele>5.599121</ele>
<time>2012-07-18T11:39:20Z</time>
<speed>0.380000</speed>
<extensions>
<speed>0.4</speed>
<temp>0.00</temp>
<bpm>0</bpm>
<rpm>0.00</rpm>
</extensions>
</trkpt>
<trkpt lat="64.148704529" lon="-21.940673828">
<ele>5.318481</ele>
<time>2012-07-18T11:39:25Z</time>
<speed>1.420000</speed>
<extensions>
<speed>1.4</speed>
<temp>0.00</temp>
<bpm>0</bpm>
<rpm>0.00</rpm>
</extensions>
</trkpt>
<trkpt lat="64.148826599" lon="-21.940799713">
<ele>3.800842</ele>
<time>2012-07-18T11:39:30Z</time>
<speed>0.220000</speed>
<extensions>
<speed>0.2</speed>
<temp>0.00</temp>
<bpm>0</bpm>
<rpm>0.00</rpm>
</extensions>
</trkpt>
<trkpt lat="64.148849487" lon="-21.940814972">
<ele>4.942017</ele>
<time>2012-07-18T11:39:35Z</time>
<speed>0.510000</speed>
<extensions>
<speed>0.5</speed>
<temp>0.00</temp>
<bpm>0</bpm>
<rpm>0.00</rpm>
</extensions>
</trkpt>
<trkpt lat="64.148887634" lon="-21.940826416">
<ele>3.906372</ele>
<time>2012-07-18T11:39:40Z</time>
<speed>0.370000</speed>
<extensions>
<speed>0.4</speed>
<temp>0.00</temp>
<bpm>0</bpm>
<rpm>0.00</rpm>
</extensions>
</trkpt>
<trkpt lat="64.148941040" lon="-21.940896988">
<ele>2.861572</ele>
<time>2012-07-18T11:39:45Z</time>
<speed>0.240000</speed>
<extensions>
<speed>0.2</speed>
<temp>0.00</temp>
<bpm>0</bpm>
<rpm>0.00</rpm>
</extensions>
</trkpt>
<trkpt lat="64.148956299" lon="-21.940937042">
<ele>2.067322</ele>
<time>2012-07-18T11:39:50Z</time>
<speed>0.280000</speed>
<extensions>
<speed>0.3</speed>
<temp>0.00</temp>
<bpm>0</bpm>
<rpm>0.00</rpm>
</extensions>
</trkpt>
<trkpt lat="64.148963928" lon="-21.940967560">
<ele>1.162689</ele>
<time>2012-07-18T11:39:55Z</time>
<speed>0.130000</speed>
<extensions>
<speed>0.1</speed>
<temp>0.00</temp>
<bpm>0</bpm>
<rpm>0.00</rpm>
</extensions>
</trkpt>
<trkpt lat="64.148971558" lon="-21.940967560">
<ele>1.059814</ele>
<time>2012-07-18T11:40:00Z</time>
<speed>0.020000</speed>
<extensions>
<speed>0.0</speed>
<temp>0.00</temp>
<bpm>0</bpm>
<rpm>0.00</rpm>
</extensions>
</trkpt>
<trkpt lat="64.148971558" lon="-21.940967560">
<ele>1.008240</ele>
<time>2012-07-18T11:40:05Z</time>
<speed>0.040000</speed>
<extensions>
<speed>0.0</speed>
<temp>0.00</temp>
<bpm>0</bpm>
<rpm>0.00</rpm>
</extensions>
</trkpt>
<trkpt lat="64.148971558" lon="-21.940967560">
<ele>0.937485</ele>
<time>2012-07-18T11:40:10Z</time>
<speed>0.100000</speed>
<extensions>
<speed>0.1</speed>
<temp>0.00</temp>
<bpm>0</bpm>
<rpm>0.00</rpm>
</extensions>
</trkpt>
<trkpt lat="64.148971558" lon="-21.940963745">
<ele>0.918793</ele>
<time>2012-07-18T11:40:15Z</time>
<speed>0.110000</speed>
<extensions>
<speed>0.1</speed>
<temp>0.00</temp>
<bpm>0</bpm>
<rpm>0.00</rpm>
</extensions>
</trkpt>
<trkpt lat="64.148971558" lon="-21.940969467">
<ele>0.839081</ele>
<time>2012-07-18T11:40:20Z</time>
<speed>0.050000</speed>
<extensions>
<speed>0.1</speed>
<temp>0.00</temp>
<bpm>0</bpm>
<rpm>0.00</rpm>
</extensions>
</trkpt>
<trkpt lat="64.148948669" lon="-21.940998077">
<ele>0.918167</ele>
<time>2012-07-18T11:40:25Z</time>
<speed>0.500000</speed>
<extensions>
<speed>0.5</speed>
<temp>0.00</temp>
<bpm>0</bpm>
<rpm>0.00</rpm>
</extensions>
</trkpt>
<trkpt lat="64.148887634" lon="-21.941101074">
<ele>2.858643</ele>
<time>2012-07-18T11:40:30Z</time>
<speed>1.680000</speed>
<extensions>
<speed>1.7</speed>
<temp>0.00</temp>
<bpm>0</bpm>
<rpm>0.00</rpm>
</extensions>
</trkpt>
<trkpt lat="64.148818970" lon="-21.941244125">
<ele>4.443848</ele>
<time>2012-07-18T11:40:35Z</time>
<speed>1.500000</speed>
<extensions>
<speed>1.5</speed>
<temp>0.00</temp>
<bpm>0</bpm>
<rpm>0.00</rpm>
</extensions>
</trkpt>
<trkpt lat="64.148765564" lon="-21.941431046">
<ele>4.447266</ele>
<time>2012-07-18T11:40:40Z</time>
<speed>0.840000</speed>
<extensions>
<speed>0.8</speed>
<temp>0.00</temp>
<bpm>0</bpm>
<rpm>0.00</rpm>
</extensions>
</trkpt>
<trkpt lat="64.148681641" lon="-21.941234589">
<ele>5.796875</ele>
<time>2012-07-18T11:40:45Z</time>
<speed>3.430000</speed>
<extensions>
<speed>3.4</speed>
<temp>0.00</temp>
<bpm>0</bpm>
<rpm>0.00</rpm>
</extensions>
</trkpt>
<trkpt lat="64.148582458" lon="-21.941078186">
<ele>1.359619</ele>
<time>2012-07-18T11:40:50Z</time>
<speed>2.910000</speed>
<extensions>
<speed>2.9</speed>
<temp>0.00</temp>
<bpm>0</bpm>
<rpm>0.00</rpm>
</extensions>
</trkpt>
<trkpt lat="64.148475647" lon="-21.941026688">
<ele>6.571899</ele>
<time>2012-07-18T11:40:55Z</time>
<speed>1.920000</speed>
<extensions>
<speed>1.9</speed>
<temp>0.00</temp>
<bpm>0</bpm>
<rpm>0.00</rpm>
</extensions>
</trkpt>
<trkpt lat="64.148414612" lon="-21.941160202">
<ele>10.464600</ele>
<time>2012-07-18T11:41:00Z</time>
<speed>1.710000</speed>
<extensions>
<speed>1.7</speed>
<temp>0.00</temp>
<bpm>0</bpm>
<rpm>0.00</rpm>
</extensions>
</trkpt>
<trkpt lat="64.148338318" lon="-21.941093445">
<ele>10.796143</ele>
<time>2012-07-18T11:41:05Z</time>
<speed>0.270000</speed>
<extensions>
<speed>0.3</speed>
<temp>0.00</temp>
<bpm>0</bpm>
<rpm>0.00</rpm>
</extensions>
</trkpt>
<trkpt lat="64.148315430" lon="-21.941051483">
<ele>11.076904</ele>
<time>2012-07-18T11:41:10Z</time>
<speed>0.190000</speed>
<extensions>
<speed>0.2</speed>
<temp>0.00</temp>
<bpm>0</bpm>
<rpm>0.00</rpm>
</extensions>
</trkpt>
<trkpt lat="64.148277283" lon="-21.941089630">
<ele>11.909424</ele>
<time>2012-07-18T11:41:15Z</time>
<speed>1.460000</speed>
<extensions>
<speed>1.5</speed>
<temp>0.00</temp>
<bpm>0</bpm>
<rpm>0.00</rpm>
</extensions>
</trkpt>
<trkpt lat="64.148231506" lon="-21.941160202">
<ele>10.130371</ele>
<time>2012-07-18T11:41:20Z</time>
<speed>0.920000</speed>
<extensions>
<speed>0.9</speed>
<temp>0.00</temp>
<bpm>0</bpm>
<rpm>0.00</rpm>
</extensions>
</trkpt>
<trkpt lat="64.148216248" lon="-21.941198349">
<ele>9.127686</ele>
<time>2012-07-18T11:41:25Z</time>
<speed>0.440000</speed>
<extensions>
<speed>0.4</speed>
<temp>0.00</temp>
<bpm>0</bpm>
<rpm>0.00</rpm>
</extensions>
</trkpt>
<trkpt lat="64.148208618" lon="-21.941257477">
<ele>8.803955</ele>
<time>2012-07-18T11:41:30Z</time>
<speed>0.380000</speed>
<extensions>
<speed>0.4</speed>
<temp>0.00</temp>
<bpm>0</bpm>
<rpm>0.00</rpm>
</extensions>
</trkpt>
<trkpt lat="64.148193359" lon="-21.941297531">
<ele>10.062744</ele>
<time>2012-07-18T11:41:35Z</time>
<speed>0.040000</speed>
<extensions>
<speed>0.0</speed>
<temp>0.00</temp>
<bpm>0</bpm>
<rpm>0.00</rpm>
</extensions>
</trkpt>
<trkpt lat="64.148193359" lon="-21.941297531">
<ele>10.046143</ele>
<time>2012-07-18T11:41:40Z</time>
<speed>0.020000</speed>
<extensions>
<speed>0.0</speed>
<temp>0.00</temp>
<bpm>0</bpm>
<rpm>0.00</rpm>
</extensions>
</trkpt>
<trkpt lat="64.148193359" lon="-21.941297531">
<ele>9.999023</ele>
<time>2012-07-18T11:41:45Z</time>
<speed>0.040000</speed>
<extensions>
<speed>0.0</speed>
<temp>0.00</temp>
<bpm>0</bpm>
<rpm>0.00</rpm>
</extensions>
</trkpt>
<trkpt lat="64.148193359" lon="-21.941297531">
<ele>10.010986</ele>
<time>2012-07-18T11:41:50Z</time>
<speed>0.010000</speed>
<extensions>
<speed>0.0</speed>
<temp>0.00</temp>
<bpm>0</bpm>
<rpm>0.00</rpm>
</extensions>
</trkpt>
<trkpt lat="64.148193359" lon="-21.941295624">
<ele>10.015381</ele>
<time>2012-07-18T11:41:55Z</time>
<speed>0.010000</speed>
<extensions>
<speed>0.0</speed>
<temp>0.00</temp>
<bpm>0</bpm>
<rpm>0.00</rpm>
</extensions>
</trkpt>
<trkpt lat="64.148193359" lon="-21.941295624">
<ele>10.033447</ele>
<time>2012-07-18T11:42:00Z</time>
<extensions>
<speed>0.0</speed>
<temp>0.00</temp>
<bpm>0</bpm>
<rpm>0.00</rpm>
</extensions>
</trkpt>
<trkpt lat="64.148193359" lon="-21.941295624">
<ele>10.047363</ele>
<time>2012-07-18T11:42:05Z</time>
<speed>0.020000</speed>
<extensions>
<speed>0.0</speed>
<temp>0.00</temp>
<bpm>0</bpm>
<rpm>0.00</rpm>
</extensions>
</trkpt>
<trkpt lat="64.148193359" lon="-21.941295624">
<ele>10.089600</ele>
<time>2012-07-18T11:42:10Z</time>
<speed>0.020000</speed>
<extensions>
<speed>0.0</speed>
<temp>0.00</temp>
<bpm>0</bpm>
<rpm>0.00</rpm>
</extensions>
</trkpt>
<trkpt lat="64.148193359" lon="-21.941295624">
<ele>10.108643</ele>
<time>2012-07-18T11:42:15Z</time>
<extensions>
<speed>0.0</speed>
<temp>0.00</temp>
<bpm>0</bpm>
<rpm>0.00</rpm>
</extensions>
</trkpt>
<trkpt lat="64.148193359" lon="-21.941297531">
<ele>10.132324</ele>
<time>2012-07-18T11:42:20Z</time>
<speed>0.010000</speed>
<extensions>
<speed>0.0</speed>
<temp>0.00</temp>
<bpm>0</bpm>
<rpm>0.00</rpm>
</extensions>
</trkpt>
<trkpt lat="64.148193359" lon="-21.941297531">
<ele>10.149414</ele>
<time>2012-07-18T11:42:25Z</time>
<extensions>
<speed>0.0</speed>
<temp>0.00</temp>
<bpm>0</bpm>
<rpm>0.00</rpm>
</extensions>
</trkpt>
<trkpt lat="64.148193359" lon="-21.941297531">
<ele>10.164795</ele>
<time>2012-07-18T11:42:30Z</time>
<extensions>
<speed>0.0</speed>
<temp>0.00</temp>
<bpm>0</bpm>
<rpm>0.00</rpm>
</extensions>
</trkpt>
<trkpt lat="64.148193359" lon="-21.941299438">
<ele>10.189697</ele>
<time>2012-07-18T11:42:35Z</time>
<speed>0.020000</speed>
<extensions>
<speed>0.0</speed>
<temp>0.00</temp>
<bpm>0</bpm>
<rpm>0.00</rpm>
</extensions>
</trkpt>
<trkpt lat="64.148193359" lon="-21.941299438">
<ele>10.250244</ele>
<time>2012-07-18T11:42:40Z</time>
<speed>0.010000</speed>
<extensions>
<speed>0.0</speed>
<temp>0.00</temp>
<bpm>0</bpm>
<rpm>0.00</rpm>
</extensions>
</trkpt>
<trkpt lat="64.148193359" lon="-21.941303253">
<ele>10.356934</ele>
<time>2012-07-18T11:42:45Z</time>
<speed>0.040000</speed>
<extensions>
<speed>0.0</speed>
<temp>0.00</temp>
<bpm>0</bpm>
<rpm>0.00</rpm>
</extensions>
</trkpt>
<trkpt lat="64.148193359" lon="-21.941303253">
<ele>10.429688</ele>
<time>2012-07-18T11:42:50Z</time>
<speed>0.010000</speed>
<extensions>
<speed>0.0</speed>
<temp>0.00</temp>
<bpm>0</bpm>
<rpm>0.00</rpm>
</extensions>
</trkpt>
<trkpt lat="64.148193359" lon="-21.941303253">
<ele>10.454590</ele>
<time>2012-07-18T11:42:55Z</time>
<speed>0.010000</speed>
<extensions>
<speed>0.0</speed>
<temp>0.00</temp>
<bpm>0</bpm>
<rpm>0.00</rpm>
</extensions>
</trkpt>
<trkpt lat="64.148193359" lon="-21.941303253">
<ele>10.472900</ele>
<time>2012-07-18T11:43:00Z</time>
<extensions>
<speed>0.0</speed>
<temp>0.00</temp>
<bpm>0</bpm>
<rpm>0.00</rpm>
</extensions>
</trkpt>
<trkpt lat="64.148193359" lon="-21.941303253">
<ele>10.493408</ele>
<time>2012-07-18T11:43:05Z</time>
<speed>0.010000</speed>
<extensions>
<speed>0.0</speed>
<temp>0.00</temp>
<bpm>0</bpm>
<rpm>0.00</rpm>
</extensions>
</trkpt>
<trkpt lat="64.148193359" lon="-21.941303253">
<ele>10.510010</ele>
<time>2012-07-18T11:43:10Z</time>
<speed>0.010000</speed>
<extensions>
<speed>0.0</speed>
<temp>0.00</temp>
<bpm>0</bpm>
<rpm>0.00</rpm>
</extensions>
</trkpt>
<trkpt lat="64.148193359" lon="-21.941303253">
<ele>10.539795</ele>
<time>2012-07-18T11:43:15Z</time>
<speed>0.020000</speed>
<extensions>
<speed>0.0</speed>
<temp>0.00</temp>
<bpm>0</bpm>
<rpm>0.00</rpm>
</extensions>
</trkpt>
<trkpt lat="64.148193359" lon="-21.941303253">
<ele>10.585693</ele>
<time>2012-07-18T11:43:20Z</time>
<extensions>
<speed>0.0</speed>
<temp>0.00</temp>
<bpm>0</bpm>
<rpm>0.00</rpm>
</extensions>
</trkpt>
<trkpt lat="64.148193359" lon="-21.941303253">
<ele>10.620117</ele>
<time>2012-07-18T11:43:25Z</time>
<speed>0.010000</speed>
<extensions>
<speed>0.0</speed>
<temp>0.00</temp>
<bpm>0</bpm>
<rpm>0.00</rpm>
</extensions>
</trkpt>
<trkpt lat="64.148193359" lon="-21.941303253">
<ele>10.687744</ele>
<time>2012-07-18T11:43:30Z</time>
<speed>0.010000</speed>
<extensions>
<speed>0.0</speed>
<temp>0.00</temp>
<bpm>0</bpm>
<rpm>0.00</rpm>
</extensions>
</trkpt>
<trkpt lat="64.148193359" lon="-21.941303253">
<ele>10.747803</ele>
<time>2012-07-18T11:43:35Z</time>
<speed>0.010000</speed>
<extensions>
<speed>0.0</speed>
<temp>0.00</temp>
<bpm>0</bpm>
<rpm>0.00</rpm>
</extensions>
</trkpt>
<trkpt lat="64.148193359" lon="-21.941303253">
<ele>10.800537</ele>
<time>2012-07-18T11:43:40Z</time>
<extensions>
<speed>0.0</speed>
<temp>0.00</temp>
<bpm>0</bpm>
<rpm>0.00</rpm>
</extensions>
</trkpt>
<trkpt lat="64.148193359" lon="-21.941301346">
<ele>10.869385</ele>
<time>2012-07-18T11:43:45Z</time>
<speed>0.020000</speed>
<extensions>
<speed>0.0</speed>
<temp>0.00</temp>
<bpm>0</bpm>
<rpm>0.00</rpm>
</extensions>
</trkpt>
<trkpt lat="64.148193359" lon="-21.941299438">
<ele>10.937256</ele>
<time>2012-07-18T11:43:50Z</time>
<speed>0.030000</speed>
<extensions>
<speed>0.0</speed>
<temp>0.00</temp>
<bpm>0</bpm>
<rpm>0.00</rpm>
</extensions>
</trkpt>
<trkpt lat="64.148193359" lon="-21.941295624">
<ele>10.963867</ele>
<time>2012-07-18T11:43:55Z</time>
<speed>0.020000</speed>
<extensions>
<speed>0.0</speed>
<temp>0.00</temp>
<bpm>0</bpm>
<rpm>0.00</rpm>
</extensions>
</trkpt>
<trkpt lat="64.148193359" lon="-21.941295624">
<ele>11.018311</ele>
<time>2012-07-18T11:44:00Z</time>
<speed>0.010000</speed>
<extensions>
<speed>0.0</speed>
<temp>0.00</temp>
<bpm>0</bpm>
<rpm>0.00</rpm>
</extensions>
</trkpt>
<trkpt lat="64.148193359" lon="-21.941293716">
<ele>11.093262</ele>
<time>2012-07-18T11:44:05Z</time>
<extensions>
<speed>0.0</speed>
<temp>0.00</temp>
<bpm>0</bpm>
<rpm>0.00</rpm>
</extensions>
</trkpt>
<trkpt lat="64.148193359" lon="-21.941295624">
<ele>11.166504</ele>
<time>2012-07-18T11:44:10Z</time>
<speed>0.010000</speed>
<extensions>
<speed>0.0</speed>
<temp>0.00</temp>
<bpm>0</bpm>
<rpm>0.00</rpm>
</extensions>
</trkpt>
<trkpt lat="64.148193359" lon="-21.941295624">
<ele>11.235840</ele>
<time>2012-07-18T11:44:15Z</time>
<speed>0.010000</speed>
<extensions>
<speed>0.0</speed>
<temp>0.00</temp>
<bpm>0</bpm>
<rpm>0.00</rpm>
</extensions>
</trkpt>
<trkpt lat="64.148193359" lon="-21.941295624">
<ele>11.334717</ele>
<time>2012-07-18T11:44:20Z</time>
<speed>0.010000</speed>
<extensions>
<speed>0.0</speed>
<temp>0.00</temp>
<bpm>0</bpm>
<rpm>0.00</rpm>
</extensions>
</trkpt>
<trkpt lat="64.148193359" lon="-21.941295624">
<ele>11.408203</ele>
<time>2012-07-18T11:44:25Z</time>
<speed>0.010000</speed>
<extensions>
<speed>0.0</speed>
<temp>0.00</temp>
<bpm>0</bpm>
<rpm>0.00</rpm>
</extensions>
</trkpt>
<trkpt lat="64.148193359" lon="-21.941295624">
<ele>11.438721</ele>
<time>2012-07-18T11:44:30Z</time>
<extensions>
<speed>0.0</speed>
<temp>0.00</temp>
<bpm>0</bpm>
<rpm>0.00</rpm>
</extensions>
</trkpt>
<trkpt lat="64.148193359" lon="-21.941295624">
<ele>11.503906</ele>
<time>2012-07-18T11:44:35Z</time>
<speed>0.010000</speed>
<extensions>
<speed>0.0</speed>
<temp>0.00</temp>
<bpm>0</bpm>
<rpm>0.00</rpm>
</extensions>
</trkpt>
<trkpt lat="64.148193359" lon="-21.941295624">
<ele>11.594727</ele>
<time>2012-07-18T11:44:40Z</time>
<extensions>
<speed>0.0</speed>
<temp>0.00</temp>
<bpm>0</bpm>
<rpm>0.00</rpm>
</extensions>
</trkpt>
<trkpt lat="64.148200989" lon="-21.941295624">
<ele>11.670166</ele>
<time>2012-07-18T11:44:45Z</time>
<speed>0.010000</speed>
<extensions>
<speed>0.0</speed>
<temp>0.00</temp>
<bpm>0</bpm>
<rpm>0.00</rpm>
</extensions>
</trkpt>
<trkpt lat="64.148200989" lon="-21.941295624">
<ele>11.723389</ele>
<time>2012-07-18T11:44:50Z</time>
<extensions>
<speed>0.0</speed>
<temp>0.00</temp>
<bpm>0</bpm>
<rpm>0.00</rpm>
</extensions>
</trkpt>
<trkpt lat="64.148200989" lon="-21.941295624">
<ele>11.784912</ele>
<time>2012-07-18T11:44:55Z</time>
<extensions>
<speed>0.0</speed>
<temp>0.00</temp>
<bpm>0</bpm>
<rpm>0.00</rpm>
</extensions>
</trkpt>
<trkpt lat="64.148200989" lon="-21.941293716">
<ele>11.817871</ele>
<time>2012-07-18T11:45:00Z</time>
<extensions>
<speed>0.0</speed>
<temp>0.00</temp>
<bpm>0</bpm>
<rpm>0.00</rpm>
</extensions>
</trkpt>
<trkpt lat="64.148200989" lon="-21.941293716">
<ele>11.842773</ele>
<time>2012-07-18T11:45:05Z</time>
<extensions>
<speed>0.0</speed>
<temp>0.00</temp>
<bpm>0</bpm>
<rpm>0.00</rpm>
</extensions>
</trkpt>
<trkpt lat="64.148200989" lon="-21.941293716">
<ele>11.865967</ele>
<time>2012-07-18T11:45:10Z</time>
<extensions>
<speed>0.0</speed>
<temp>0.00</temp>
<bpm>0</bpm>
<rpm>0.00</rpm>
</extensions>
</trkpt>
<trkpt lat="64.148200989" lon="-21.941293716">
<ele>11.897461</ele>
<time>2012-07-18T11:45:15Z</time>
<extensions>
<speed>0.0</speed>
<temp>0.00</temp>
<bpm>0</bpm>
<rpm>0.00</rpm>
</extensions>
</trkpt>
<trkpt lat="64.148200989" lon="-21.941293716">
<ele>11.924072</ele>
<time>2012-07-18T11:45:20Z</time>
<extensions>
<speed>0.0</speed>
<temp>0.00</temp>
<bpm>0</bpm>
<rpm>0.00</rpm>
</extensions>
</trkpt>
<trkpt lat="64.148200989" lon="-21.941293716">
<ele>11.950439</ele>
<time>2012-07-18T11:45:25Z</time>
<extensions>
<speed>0.0</speed>
<temp>0.00</temp>
<bpm>0</bpm>
<rpm>0.00</rpm>
</extensions>
</trkpt>
<trkpt lat="64.148200989" lon="-21.941293716">
<ele>11.983154</ele>
<time>2012-07-18T11:45:30Z</time>
<extensions>
<speed>0.0</speed>
<temp>0.00</temp>
<bpm>0</bpm>
<rpm>0.00</rpm>
</extensions>
</trkpt>
<trkpt lat="64.148200989" lon="-21.941295624">
<ele>12.005127</ele>
<time>2012-07-18T11:45:35Z</time>
<extensions>
<speed>0.0</speed>
<temp>0.00</temp>
<bpm>0</bpm>
<rpm>0.00</rpm>
</extensions>
</trkpt>
<trkpt lat="64.148200989" lon="-21.941293716">
<ele>12.066650</ele>
<time>2012-07-18T11:45:40Z</time>
<extensions>
<speed>0.0</speed>
<temp>0.00</temp>
<bpm>0</bpm>
<rpm>0.00</rpm>
</extensions>
</trkpt>
<trkpt lat="64.148200989" lon="-21.941293716">
<ele>12.124268</ele>
<time>2012-07-18T11:45:45Z</time>
<extensions>
<speed>0.0</speed>
<temp>0.00</temp>
<bpm>0</bpm>
<rpm>0.00</rpm>
</extensions>
</trkpt>
<trkpt lat="64.148200989" lon="-21.941293716">
<ele>12.161621</ele>
<time>2012-07-18T11:45:50Z</time>
<speed>0.010000</speed>
<extensions>
<speed>0.0</speed>
<temp>0.00</temp>
<bpm>0</bpm>
<rpm>0.00</rpm>
</extensions>
</trkpt>
<trkpt lat="64.148200989" lon="-21.941293716">
<ele>12.206299</ele>
<time>2012-07-18T11:45:55Z</time>
<speed>0.010000</speed>
<extensions>
<speed>0.0</speed>
<temp>0.00</temp>
<bpm>0</bpm>
<rpm>0.00</rpm>
</extensions>
</trkpt>
<trkpt lat="64.148200989" lon="-21.941291809">
<ele>12.259766</ele>
<time>2012-07-18T11:46:00Z</time>
<extensions>
<speed>0.0</speed>
<temp>0.00</temp>
<bpm>0</bpm>
<rpm>0.00</rpm>
</extensions>
</trkpt>
<trkpt lat="64.148200989" lon="-21.941291809">
<ele>12.319580</ele>
<time>2012-07-18T11:46:05Z</time>
<speed>0.010000</speed>
<extensions>
<speed>0.0</speed>
<temp>0.00</temp>
<bpm>0</bpm>
<rpm>0.00</rpm>
</extensions>
</trkpt>
<trkpt lat="64.148200989" lon="-21.941291809">
<ele>12.371338</ele>
<time>2012-07-18T11:46:10Z</time>
<speed>0.020000</speed>
<extensions>
<speed>0.0</speed>
<temp>0.00</temp>
<bpm>0</bpm>
<rpm>0.00</rpm>
</extensions>
</trkpt>
<trkpt lat="64.148200989" lon="-21.941291809">
<ele>12.441406</ele>
<time>2012-07-18T11:46:15Z</time>
<speed>0.020000</speed>
<extensions>
<speed>0.0</speed>
<temp>0.00</temp>
<bpm>0</bpm>
<rpm>0.00</rpm>
</extensions>
</trkpt>
<trkpt lat="64.148200989" lon="-21.941291809">
<ele>12.498047</ele>
<time>2012-07-18T11:46:20Z</time>
<speed>0.030000</speed>
<extensions>
<speed>0.0</speed>
<temp>0.00</temp>
<bpm>0</bpm>
<rpm>0.00</rpm>
</extensions>
</trkpt>
<trkpt lat="64.148200989" lon="-21.941291809">
<ele>12.831055</ele>
<time>2012-07-18T11:46:25Z</time>
<speed>0.010000</speed>
<extensions>
<speed>0.0</speed>
<temp>0.00</temp>
<bpm>0</bpm>
<rpm>0.00</rpm>
</extensions>
</trkpt>
<trkpt lat="64.148200989" lon="-21.941291809">
<ele>12.990723</ele>
<time>2012-07-18T11:46:30Z</time>
<extensions>
<speed>0.0</speed>
<temp>0.00</temp>
<bpm>0</bpm>
<rpm>0.00</rpm>
</extensions>
</trkpt>
<trkpt lat="64.148200989" lon="-21.941291809">
<ele>13.088135</ele>
<time>2012-07-18T11:46:35Z</time>
<extensions>
<speed>0.0</speed>
<temp>0.00</temp>
<bpm>0</bpm>
<rpm>0.00</rpm>
</extensions>
</trkpt>
<trkpt lat="64.148200989" lon="-21.941291809">
<ele>13.162842</ele>
<time>2012-07-18T11:46:40Z</time>
<speed>0.010000</speed>
<extensions>
<speed>0.0</speed>
<temp>0.00</temp>
<bpm>0</bpm>
<rpm>0.00</rpm>
</extensions>
</trkpt>
<trkpt lat="64.148208618" lon="-21.941291809">
<ele>13.236084</ele>
<time>2012-07-18T11:46:45Z</time>
<extensions>
<speed>0.0</speed>
<temp>0.00</temp>
<bpm>0</bpm>
<rpm>0.00</rpm>
</extensions>
</trkpt>
<trkpt lat="64.148208618" lon="-21.941289902">
<ele>13.294922</ele>
<time>2012-07-18T11:46:50Z</time>
<extensions>
<speed>0.0</speed>
<temp>0.00</temp>
<bpm>0</bpm>
<rpm>0.00</rpm>
</extensions>
</trkpt>
<trkpt lat="64.148208618" lon="-21.941289902">
<ele>13.347412</ele>
<time>2012-07-18T11:46:55Z</time>
<extensions>
<speed>0.0</speed>
<temp>0.00</temp>
<bpm>0</bpm>
<rpm>0.00</rpm>
</extensions>
</trkpt>
<trkpt lat="64.148208618" lon="-21.941289902">
<ele>13.395996</ele>
<time>2012-07-18T11:47:00Z</time>
<extensions>
<speed>0.0</speed>
<temp>0.00</temp>
<bpm>0</bpm>
<rpm>0.00</rpm>
</extensions>
</trkpt>
<trkpt lat="64.148208618" lon="-21.941291809">
<ele>13.449707</ele>
<time>2012-07-18T11:47:05Z</time>
<extensions>
<speed>0.0</speed>
<temp>0.00</temp>
<bpm>0</bpm>
<rpm>0.00</rpm>
</extensions>
</trkpt>
<trkpt lat="64.148208618" lon="-21.941291809">
<ele>13.492676</ele>
<time>2012-07-18T11:47:10Z</time>
<extensions>
<speed>0.0</speed>
<temp>0.00</temp>
<bpm>0</bpm>
<rpm>0.00</rpm>
</extensions>
</trkpt>
<trkpt lat="64.148208618" lon="-21.941291809">
<ele>13.537842</ele>
<time>2012-07-18T11:47:15Z</time>
<extensions>
<speed>0.0</speed>
<temp>0.00</temp>
<bpm>0</bpm>
<rpm>0.00</rpm>
</extensions>
</trkpt>
<trkpt lat="64.148208618" lon="-21.941291809">
<ele>13.596436</ele>
<time>2012-07-18T11:47:20Z</time>
<extensions>
<speed>0.0</speed>
<temp>0.00</temp>
<bpm>0</bpm>
<rpm>0.00</rpm>
</extensions>
</trkpt>
<trkpt lat="64.148208618" lon="-21.941291809">
<ele>13.654785</ele>
<time>2012-07-18T11:47:25Z</time>
<speed>0.010000</speed>
<extensions>
<speed>0.0</speed>
<temp>0.00</temp>
<bpm>0</bpm>
<rpm>0.00</rpm>
</extensions>
</trkpt>
<trkpt lat="64.148208618" lon="-21.941291809">
<ele>13.715088</ele>
<time>2012-07-18T11:47:30Z</time>
<extensions>
<speed>0.0</speed>
<temp>0.00</temp>
<bpm>0</bpm>
<rpm>0.00</rpm>
</extensions>
</trkpt>
<trkpt lat="64.148208618" lon="-21.941289902">
<ele>13.981689</ele>
<time>2012-07-18T11:47:35Z</time>
<speed>0.010000</speed>
<extensions>
<speed>0.0</speed>
<temp>0.00</temp>
<bpm>0</bpm>
<rpm>0.00</rpm>
</extensions>
</trkpt>
<trkpt lat="64.148208618" lon="-21.941289902">
<ele>14.118408</ele>
<time>2012-07-18T11:47:40Z</time>
<speed>0.020000</speed>
<extensions>
<speed>0.0</speed>
<temp>0.00</temp>
<bpm>0</bpm>
<rpm>0.00</rpm>
</extensions>
</trkpt>
<trkpt lat="64.148208618" lon="-21.941287994">
<ele>14.220703</ele>
<time>2012-07-18T11:47:45Z</time>
<extensions>
<speed>0.0</speed>
<temp>0.00</temp>
<bpm>0</bpm>
<rpm>0.00</rpm>
</extensions>
</trkpt>
<trkpt lat="64.148208618" lon="-21.941287994">
<ele>14.284424</ele>
<time>2012-07-18T11:47:50Z</time>
<extensions>
<speed>0.0</speed>
<temp>0.00</temp>
<bpm>0</bpm>
<rpm>0.00</rpm>
</extensions>
</trkpt>
<trkpt lat="64.148208618" lon="-21.941286087">
<ele>14.328613</ele>
<time>2012-07-18T11:47:55Z</time>
<extensions>
<speed>0.0</speed>
<temp>0.00</temp>
<bpm>0</bpm>
<rpm>0.00</rpm>
</extensions>
</trkpt>
<trkpt lat="64.148208618" lon="-21.941286087">
<ele>14.367676</ele>
<time>2012-07-18T11:48:00Z</time>
<extensions>
<speed>0.0</speed>
<temp>0.00</temp>
<bpm>0</bpm>
<rpm>0.00</rpm>
</extensions>
</trkpt>
<trkpt lat="64.148208618" lon="-21.941286087">
<ele>14.410400</ele>
<time>2012-07-18T11:48:05Z</time>
<speed>0.020000</speed>
<extensions>
<speed>0.0</speed>
<temp>0.00</temp>
<bpm>0</bpm>
<rpm>0.00</rpm>
</extensions>
</trkpt>
<trkpt lat="64.148208618" lon="-21.941286087">
<ele>14.454346</ele>
<time>2012-07-18T11:48:10Z</time>
<extensions>
<speed>0.0</speed>
<temp>0.00</temp>
<bpm>0</bpm>
<rpm>0.00</rpm>
</extensions>
</trkpt>
<trkpt lat="64.148208618" lon="-21.941286087">
<ele>14.485840</ele>
<time>2012-07-18T11:48:15Z</time>
<speed>0.020000</speed>
<extensions>
<speed>0.0</speed>
<temp>0.00</temp>
<bpm>0</bpm>
<rpm>0.00</rpm>
</extensions>
</trkpt>
<trkpt lat="64.148208618" lon="-21.941286087">
<ele>14.517090</ele>
<time>2012-07-18T11:48:20Z</time>
<speed>0.030000</speed>
<extensions>
<speed>0.0</speed>
<temp>0.00</temp>
<bpm>0</bpm>
<rpm>0.00</rpm>
</extensions>
</trkpt>
<trkpt lat="64.148208618" lon="-21.941287994">
<ele>14.564209</ele>
<time>2012-07-18T11:48:25Z</time>
<speed>0.020000</speed>
<extensions>
<speed>0.0</speed>
<temp>0.00</temp>
<bpm>0</bpm>
<rpm>0.00</rpm>
</extensions>
</trkpt>
<trkpt lat="64.148208618" lon="-21.941286087">
<ele>14.636475</ele>
<time>2012-07-18T11:48:30Z</time>
<speed>0.010000</speed>
<extensions>
<speed>0.0</speed>
<temp>0.00</temp>
<bpm>0</bpm>
<rpm>0.00</rpm>
</extensions>
</trkpt>
<trkpt lat="64.148208618" lon="-21.941286087">
<ele>14.731201</ele>
<time>2012-07-18T11:48:35Z</time>
<speed>0.020000</speed>
<extensions>
<speed>0.0</speed>
<temp>0.00</temp>
<bpm>0</bpm>
<rpm>0.00</rpm>
</extensions>
</trkpt>
<trkpt lat="64.148208618" lon="-21.941286087">
<ele>14.827393</ele>
<time>2012-07-18T11:48:40Z</time>
<extensions>
<speed>0.0</speed>
<temp>0.00</temp>
<bpm>0</bpm>
<rpm>0.00</rpm>
</extensions>
</trkpt>
<trkpt lat="64.148208618" lon="-21.941286087">
<ele>14.906738</ele>
<time>2012-07-18T11:48:45Z</time>
<speed>0.010000</speed>
<extensions>
<speed>0.0</speed>
<temp>0.00</temp>
<bpm>0</bpm>
<rpm>0.00</rpm>
</extensions>
</trkpt>
<trkpt lat="64.148208618" lon="-21.941286087">
<ele>14.952148</ele>
<time>2012-07-18T11:48:50Z</time>
<extensions>
<speed>0.0</speed>
<temp>0.00</temp>
<bpm>0</bpm>
<rpm>0.00</rpm>
</extensions>
</trkpt>
<trkpt lat="64.148208618" lon="-21.941286087">
<ele>14.971680</ele>
<time>2012-07-18T11:48:55Z</time>
<extensions>
<speed>0.0</speed>
<temp>0.00</temp>
<bpm>0</bpm>
<rpm>0.00</rpm>
</extensions>
</trkpt>
<trkpt lat="64.148208618" lon="-21.941286087">
<ele>14.995117</ele>
<time>2012-07-18T11:49:00Z</time>
<extensions>
<speed>0.0</speed>
<temp>0.00</temp>
<bpm>0</bpm>
<rpm>0.00</rpm>
</extensions>
</trkpt>
<trkpt lat="64.148208618" lon="-21.941286087">
<ele>15.035400</ele>
<time>2012-07-18T11:49:05Z</time>
<speed>0.030000</speed>
<extensions>
<speed>0.0</speed>
<temp>0.00</temp>
<bpm>0</bpm>
<rpm>0.00</rpm>
</extensions>
</trkpt>
<trkpt lat="64.148208618" lon="-21.941287994">
<ele>15.091064</ele>
<time>2012-07-18T11:49:10Z</time>
<speed>0.040000</speed>
<extensions>
<speed>0.0</speed>
<temp>0.00</temp>
<bpm>0</bpm>
<rpm>0.00</rpm>
</extensions>
</trkpt>
<trkpt lat="64.148216248" lon="-21.941291809">
<ele>15.205078</ele>
<time>2012-07-18T11:49:15Z</time>
<speed>0.050000</speed>
<extensions>
<speed>0.1</speed>
<temp>0.00</temp>
<bpm>0</bpm>
<rpm>0.00</rpm>
</extensions>
</trkpt>
<trkpt lat="64.148216248" lon="-21.941299438">
<ele>15.422363</ele>
<time>2012-07-18T11:49:20Z</time>
<speed>0.090000</speed>
<extensions>
<speed>0.1</speed>
<temp>0.00</temp>
<bpm>0</bpm>
<rpm>0.00</rpm>
</extensions>
</trkpt>
<trkpt lat="64.148216248" lon="-21.941303253">
<ele>15.712402</ele>
<time>2012-07-18T11:49:25Z</time>
<speed>0.060000</speed>
<extensions>
<speed>0.1</speed>
<temp>0.00</temp>
<bpm>0</bpm>
<rpm>0.00</rpm>
</extensions>
</trkpt>
<trkpt lat="64.148216248" lon="-21.941301346">
<ele>15.809814</ele>
<time>2012-07-18T11:49:30Z</time>
<speed>0.010000</speed>
<extensions>
<speed>0.0</speed>
<temp>0.00</temp>
<bpm>0</bpm>
<rpm>0.00</rpm>
</extensions>
</trkpt>
<trkpt lat="64.148216248" lon="-21.941301346">
<ele>15.851563</ele>
<time>2012-07-18T11:49:35Z</time>
<extensions>
<speed>0.0</speed>
<temp>0.00</temp>
<bpm>0</bpm>
<rpm>0.00</rpm>
</extensions>
</trkpt>
<trkpt lat="64.148216248" lon="-21.941301346">
<ele>15.883545</ele>
<time>2012-07-18T11:49:40Z</time>
<extensions>
<speed>0.0</speed>
<temp>0.00</temp>
<bpm>0</bpm>
<rpm>0.00</rpm>
</extensions>
</trkpt>
<trkpt lat="64.148216248" lon="-21.941301346">
<ele>15.905518</ele>
<time>2012-07-18T11:49:45Z</time>
<speed>0.010000</speed>
<extensions>
<speed>0.0</speed>
<temp>0.00</temp>
<bpm>0</bpm>
<rpm>0.00</rpm>
</extensions>
</trkpt>
<trkpt lat="64.148216248" lon="-21.941303253">
<ele>15.929443</ele>
<time>2012-07-18T11:49:50Z</time>
<speed>0.010000</speed>
<extensions>
<speed>0.0</speed>
<temp>0.00</temp>
<bpm>0</bpm>
<rpm>0.00</rpm>
</extensions>
</trkpt>
<trkpt lat="64.148216248" lon="-21.941303253">
<ele>15.960938</ele>
<time>2012-07-18T11:49:55Z</time>
<extensions>
<speed>0.0</speed>
<temp>0.00</temp>
<bpm>0</bpm>
<rpm>0.00</rpm>
</extensions>
</trkpt>
<trkpt lat="64.148216248" lon="-21.941303253">
<ele>16.005859</ele>
<time>2012-07-18T11:50:00Z</time>
<speed>0.010000</speed>
<extensions>
<speed>0.0</speed>
<temp>0.00</temp>
<bpm>0</bpm>
<rpm>0.00</rpm>
</extensions>
</trkpt>
<trkpt lat="64.148216248" lon="-21.941303253">
<ele>16.072754</ele>
<time>2012-07-18T11:50:05Z</time>
<extensions>
<speed>0.0</speed>
<temp>0.00</temp>
<bpm>0</bpm>
<rpm>0.00</rpm>
</extensions>
</trkpt>
<trkpt lat="64.148216248" lon="-21.941303253">
<ele>16.138184</ele>
<time>2012-07-18T11:50:10Z</time>
<speed>0.020000</speed>
<extensions>
<speed>0.0</speed>
<temp>0.00</temp>
<bpm>0</bpm>
<rpm>0.00</rpm>
</extensions>
</trkpt>
<trkpt lat="64.148216248" lon="-21.941301346">
<ele>16.228516</ele>
<time>2012-07-18T11:50:15Z</time>
<speed>0.010000</speed>
<extensions>
<speed>0.0</speed>
<temp>0.00</temp>
<bpm>0</bpm>
<rpm>0.00</rpm>
</extensions>
</trkpt>
<trkpt lat="64.148216248" lon="-21.941301346">
<ele>16.318848</ele>
<time>2012-07-18T11:50:20Z</time>
<extensions>
<speed>0.0</speed>
<temp>0.00</temp>
<bpm>0</bpm>
<rpm>0.00</rpm>
</extensions>
</trkpt>
<trkpt lat="64.148216248" lon="-21.941301346">
<ele>16.358887</ele>
<time>2012-07-18T11:50:25Z</time>
<speed>0.010000</speed>
<extensions>
<speed>0.0</speed>
<temp>0.00</temp>
<bpm>0</bpm>
<rpm>0.00</rpm>
</extensions>
</trkpt>
<trkpt lat="64.148216248" lon="-21.941301346">
<ele>16.426758</ele>
<time>2012-07-18T11:50:30Z</time>
<speed>0.020000</speed>
<extensions>
<speed>0.0</speed>
<temp>0.00</temp>
<bpm>0</bpm>
<rpm>0.00</rpm>
</extensions>
</trkpt>
<trkpt lat="64.148216248" lon="-21.941299438">
<ele>16.537109</ele>
<time>2012-07-18T11:50:35Z</time>
<speed>0.020000</speed>
<extensions>
<speed>0.0</speed>
<temp>0.00</temp>
<bpm>0</bpm>
<rpm>0.00</rpm>
</extensions>
</trkpt>
<trkpt lat="64.148216248" lon="-21.941295624">
<ele>16.675293</ele>
<time>2012-07-18T11:50:40Z</time>
<speed>0.060000</speed>
<extensions>
<speed>0.1</speed>
<temp>0.00</temp>
<bpm>0</bpm>
<rpm>0.00</rpm>
</extensions>
</trkpt>
<trkpt lat="64.148223877" lon="-21.941286087">
<ele>16.846680</ele>
<time>2012-07-18T11:50:45Z</time>
<speed>0.050000</speed>
<extensions>
<speed>0.1</speed>
<temp>0.00</temp>
<bpm>0</bpm>
<rpm>0.00</rpm>
</extensions>
</trkpt>
<trkpt lat="64.148223877" lon="-21.941282272">
<ele>17.033691</ele>
<time>2012-07-18T11:50:50Z</time>
<speed>0.050000</speed>
<extensions>
<speed>0.1</speed>
<temp>0.00</temp>
<bpm>0</bpm>
<rpm>0.00</rpm>
</extensions>
</trkpt>
<trkpt lat="64.148223877" lon="-21.941278458">
<ele>17.215820</ele>
<time>2012-07-18T11:50:55Z</time>
<speed>0.070000</speed>
<extensions>
<speed>0.1</speed>
<temp>0.00</temp>
<bpm>0</bpm>
<rpm>0.00</rpm>
</extensions>
</trkpt>
<trkpt lat="64.148223877" lon="-21.941274643">
<ele>17.403320</ele>
<time>2012-07-18T11:51:00Z</time>
<speed>0.060000</speed>
<extensions>
<speed>0.1</speed>
<temp>0.00</temp>
<bpm>0</bpm>
<rpm>0.00</rpm>
</extensions>
</trkpt>
<trkpt lat="64.148231506" lon="-21.941270828">
<ele>17.578125</ele>
<time>2012-07-18T11:51:05Z</time>
<speed>0.030000</speed>
<extensions>
<speed>0.0</speed>
<temp>0.00</temp>
<bpm>0</bpm>
<rpm>0.00</rpm>
</extensions>
</trkpt>
<trkpt lat="64.148231506" lon="-21.941270828">
<ele>17.682617</ele>
<time>2012-07-18T11:51:10Z</time>
<extensions>
<speed>0.0</speed>
<temp>0.00</temp>
<bpm>0</bpm>
<rpm>0.00</rpm>
</extensions>
</trkpt>
<trkpt lat="64.148231506" lon="-21.941270828">
<ele>17.711426</ele>
<time>2012-07-18T11:51:15Z</time>
<extensions>
<speed>0.0</speed>
<temp>0.00</temp>
<bpm>0</bpm>
<rpm>0.00</rpm>
</extensions>
</trkpt>
<trkpt lat="64.148231506" lon="-21.941270828">
<ele>17.783691</ele>
<time>2012-07-18T11:51:20Z</time>
<extensions>
<speed>0.0</speed>
<temp>0.00</temp>
<bpm>0</bpm>
<rpm>0.00</rpm>
</extensions>
</trkpt>
<trkpt lat="64.148231506" lon="-21.941270828">
<ele>17.854492</ele>
<time>2012-07-18T11:51:25Z</time>
<extensions>
<speed>0.0</speed>
<temp>0.00</temp>
<bpm>0</bpm>
<rpm>0.00</rpm>
</extensions>
</trkpt>
<trkpt lat="64.148231506" lon="-21.941270828">
<ele>17.916504</ele>
<time>2012-07-18T11:51:30Z</time>
<extensions>
<speed>0.0</speed>
<temp>0.00</temp>
<bpm>0</bpm>
<rpm>0.00</rpm>
</extensions>
</trkpt>
<trkpt lat="64.148231506" lon="-21.941270828">
<ele>17.976563</ele>
<time>2012-07-18T11:51:35Z</time>
<speed>0.020000</speed>
<extensions>
<speed>0.0</speed>
<temp>0.00</temp>
<bpm>0</bpm>
<rpm>0.00</rpm>
</extensions>
</trkpt>
<trkpt lat="64.148231506" lon="-21.941268921">
<ele>18.046387</ele>
<time>2012-07-18T11:51:40Z</time>
<extensions>
<speed>0.0</speed>
<temp>0.00</temp>
<bpm>0</bpm>
<rpm>0.00</rpm>
</extensions>
</trkpt>
<trkpt lat="64.148231506" lon="-21.941270828">
<ele>18.125977</ele>
<time>2012-07-18T11:51:45Z</time>
<speed>0.030000</speed>
<extensions>
<speed>0.0</speed>
<temp>0.00</temp>
<bpm>0</bpm>
<rpm>0.00</rpm>
</extensions>
</trkpt>
<trkpt lat="64.148231506" lon="-21.941270828">
<ele>18.224609</ele>
<time>2012-07-18T11:51:50Z</time>
<speed>0.010000</speed>
<extensions>
<speed>0.0</speed>
<temp>0.00</temp>
<bpm>0</bpm>
<rpm>0.00</rpm>
</extensions>
</trkpt>
<trkpt lat="64.148231506" lon="-21.941270828">
<ele>18.309082</ele>
<time>2012-07-18T11:51:55Z</time>
<speed>0.010000</speed>
<extensions>
<speed>0.0</speed>
<temp>0.00</temp>
<bpm>0</bpm>
<rpm>0.00</rpm>
</extensions>
</trkpt>
<trkpt lat="64.148231506" lon="-21.941268921">
<ele>18.364258</ele>
<time>2012-07-18T11:52:00Z</time>
<extensions>
<speed>0.0</speed>
<temp>0.00</temp>
<bpm>0</bpm>
<rpm>0.00</rpm>
</extensions>
</trkpt>
<trkpt lat="64.148231506" lon="-21.941268921">
<ele>18.423828</ele>
<time>2012-07-18T11:52:05Z</time>
<speed>0.030000</speed>
<extensions>
<speed>0.0</speed>
<temp>0.00</temp>
<bpm>0</bpm>
<rpm>0.00</rpm>
</extensions>
</trkpt>
<trkpt lat="64.148231506" lon="-21.941267014">
<ele>18.469727</ele>
<time>2012-07-18T11:52:10Z</time>
<extensions>
<speed>0.0</speed>
<temp>0.00</temp>
<bpm>0</bpm>
<rpm>0.00</rpm>
</extensions>
</trkpt>
<trkpt lat="64.148231506" lon="-21.941267014">
<ele>18.471680</ele>
<time>2012-07-18T11:52:15Z</time>
<speed>0.010000</speed>
<extensions>
<speed>0.0</speed>
<temp>0.00</temp>
<bpm>0</bpm>
<rpm>0.00</rpm>
</extensions>
</trkpt>
<trkpt lat="64.148231506" lon="-21.941267014">
<ele>18.519043</ele>
<time>2012-07-18T11:52:20Z</time>
<speed>0.010000</speed>
<extensions>
<speed>0.0</speed>
<temp>0.00</temp>
<bpm>0</bpm>
<rpm>0.00</rpm>
</extensions>
</trkpt>
<trkpt lat="64.148231506" lon="-21.941268921">
<ele>18.625000</ele>
<time>2012-07-18T11:52:25Z</time>
<speed>0.010000</speed>
<extensions>
<speed>0.0</speed>
<temp>0.00</temp>
<bpm>0</bpm>
<rpm>0.00</rpm>
</extensions>
</trkpt>
<trkpt lat="64.148231506" lon="-21.941270828">
<ele>18.748047</ele>
<time>2012-07-18T11:52:30Z</time>
<speed>0.010000</speed>
<extensions>
<speed>0.0</speed>
<temp>0.00</temp>
<bpm>0</bpm>
<rpm>0.00</rpm>
</extensions>
</trkpt>
<trkpt lat="64.148231506" lon="-21.941270828">
<ele>18.812988</ele>
<time>2012-07-18T11:52:35Z</time>
<speed>0.010000</speed>
<extensions>
<speed>0.0</speed>
<temp>0.00</temp>
<bpm>0</bpm>
<rpm>0.00</rpm>
</extensions>
</trkpt>
<trkpt lat="64.148231506" lon="-21.941270828">
<ele>18.870605</ele>
<time>2012-07-18T11:52:40Z</time>
<extensions>
<speed>0.0</speed>
<temp>0.00</temp>
<bpm>0</bpm>
<rpm>0.00</rpm>
</extensions>
</trkpt>
<trkpt lat="64.148231506" lon="-21.941270828">
<ele>18.913086</ele>
<time>2012-07-18T11:52:45Z</time>
<extensions>
<speed>0.0</speed>
<temp>0.00</temp>
<bpm>0</bpm>
<rpm>0.00</rpm>
</extensions>
</trkpt>
<trkpt lat="64.148231506" lon="-21.941270828">
<ele>18.956543</ele>
<time>2012-07-18T11:52:50Z</time>
<speed>0.010000</speed>
<extensions>
<speed>0.0</speed>
<temp>0.00</temp>
<bpm>0</bpm>
<rpm>0.00</rpm>
</extensions>
</trkpt>
<trkpt lat="64.148231506" lon="-21.941270828">
<ele>19.020508</ele>
<time>2012-07-18T11:52:55Z</time>
<extensions>
<speed>0.0</speed>
<temp>0.00</temp>
<bpm>0</bpm>
<rpm>0.00</rpm>
</extensions>
</trkpt>
<trkpt lat="64.148231506" lon="-21.941270828">
<ele>19.068848</ele>
<time>2012-07-18T11:53:00Z</time>
<speed>0.020000</speed>
<extensions>
<speed>0.0</speed>
<temp>0.00</temp>
<bpm>0</bpm>
<rpm>0.00</rpm>
</extensions>
</trkpt>
<trkpt lat="64.148231506" lon="-21.941270828">
<ele>19.088867</ele>
<time>2012-07-18T11:53:05Z</time>
<extensions>
<speed>0.0</speed>
<temp>0.00</temp>
<bpm>0</bpm>
<rpm>0.00</rpm>
</extensions>
</trkpt>
<trkpt lat="64.148231506" lon="-21.941270828">
<ele>19.121094</ele>
<time>2012-07-18T11:53:10Z</time>
<speed>0.020000</speed>
<extensions>
<speed>0.0</speed>
<temp>0.00</temp>
<bpm>0</bpm>
<rpm>0.00</rpm>
</extensions>
</trkpt>
<trkpt lat="64.148231506" lon="-21.941270828">
<ele>19.141602</ele>
<time>2012-07-18T11:53:15Z</time>
<extensions>
<speed>0.0</speed>
<temp>0.00</temp>
<bpm>0</bpm>
<rpm>0.00</rpm>
</extensions>
</trkpt>
<trkpt lat="64.148231506" lon="-21.941270828">
<ele>19.182129</ele>
<time>2012-07-18T11:53:20Z</time>
<extensions>
<speed>0.0</speed>
<temp>0.00</temp>
<bpm>0</bpm>
<rpm>0.00</rpm>
</extensions>
</trkpt>
<trkpt lat="64.148231506" lon="-21.941270828">
<ele>19.251953</ele>
<time>2012-07-18T11:53:25Z</time>
<extensions>
<speed>0.0</speed>
<temp>0.00</temp>
<bpm>0</bpm>
<rpm>0.00</rpm>
</extensions>
</trkpt>
<trkpt lat="64.148231506" lon="-21.941270828">
<ele>19.320313</ele>
<time>2012-07-18T11:53:30Z</time>
<speed>0.010000</speed>
<extensions>
<speed>0.0</speed>
<temp>0.00</temp>
<bpm>0</bpm>
<rpm>0.00</rpm>
</extensions>
</trkpt>
<trkpt lat="64.148231506" lon="-21.941270828">
<ele>19.388672</ele>
<time>2012-07-18T11:53:35Z</time>
<extensions>
<speed>0.0</speed>
<temp>0.00</temp>
<bpm>0</bpm>
<rpm>0.00</rpm>
</extensions>
</trkpt>
<trkpt lat="64.148231506" lon="-21.941270828">
<ele>19.434570</ele>
<time>2012-07-18T11:53:40Z</time>
<speed>0.010000</speed>
<extensions>
<speed>0.0</speed>
<temp>0.00</temp>
<bpm>0</bpm>
<rpm>0.00</rpm>
</extensions>
</trkpt>
<trkpt lat="64.148231506" lon="-21.941270828">
<ele>19.462891</ele>
<time>2012-07-18T11:53:45Z</time>
<extensions>
<speed>0.0</speed>
<temp>0.00</temp>
<bpm>0</bpm>
<rpm>0.00</rpm>
</extensions>
</trkpt>
<trkpt lat="64.148231506" lon="-21.941270828">
<ele>19.508301</ele>
<time>2012-07-18T11:53:50Z</time>
<speed>0.060000</speed>
<extensions>
<speed>0.1</speed>
<temp>0.00</temp>
<bpm>0</bpm>
<rpm>0.00</rpm>
</extensions>
</trkpt>
<trkpt lat="64.148231506" lon="-21.941268921">
<ele>19.522949</ele>
<time>2012-07-18T11:53:55Z</time>
<extensions>
<speed>0.0</speed>
<temp>0.00</temp>
<bpm>0</bpm>
<rpm>0.00</rpm>
</extensions>
</trkpt>
<trkpt lat="64.148231506" lon="-21.941268921">
<ele>19.533691</ele>
<time>2012-07-18T11:54:00Z</time>
<extensions>
<speed>0.0</speed>
<temp>0.00</temp>
<bpm>0</bpm>
<rpm>0.00</rpm>
</extensions>
</trkpt>
<trkpt lat="64.148231506" lon="-21.941270828">
<ele>19.586914</ele>
<time>2012-07-18T11:54:05Z</time>
<speed>0.020000</speed>
<extensions>
<speed>0.0</speed>
<temp>0.00</temp>
<bpm>0</bpm>
<rpm>0.00</rpm>
</extensions>
</trkpt>
<trkpt lat="64.148231506" lon="-21.941270828">
<ele>19.649414</ele>
<time>2012-07-18T11:54:10Z</time>
<speed>0.030000</speed>
<extensions>
<speed>0.0</speed>
<temp>0.00</temp>
<bpm>0</bpm>
<rpm>0.00</rpm>
</extensions>
</trkpt>
<trkpt lat="64.148231506" lon="-21.941270828">
<ele>19.686523</ele>
<time>2012-07-18T11:54:15Z</time>
<speed>0.010000</speed>
<extensions>
<speed>0.0</speed>
<temp>0.00</temp>
<bpm>0</bpm>
<rpm>0.00</rpm>
</extensions>
</trkpt>
<trkpt lat="64.148231506" lon="-21.941270828">
<ele>19.721680</ele>
<time>2012-07-18T11:54:20Z</time>
<extensions>
<speed>0.0</speed>
<temp>0.00</temp>
<bpm>0</bpm>
<rpm>0.00</rpm>
</extensions>
</trkpt>
<trkpt lat="64.148239136" lon="-21.941270828">
<ele>19.744141</ele>
<time>2012-07-18T11:54:25Z</time>
<speed>0.020000</speed>
<extensions>
<speed>0.0</speed>
<temp>0.00</temp>
<bpm>0</bpm>
<rpm>0.00</rpm>
</extensions>
</trkpt>
<trkpt lat="64.148239136" lon="-21.941270828">
<ele>19.803711</ele>
<time>2012-07-18T11:54:30Z</time>
<speed>0.020000</speed>
<extensions>
<speed>0.0</speed>
<temp>0.00</temp>
<bpm>0</bpm>
<rpm>0.00</rpm>
</extensions>
</trkpt>
<trkpt lat="64.148239136" lon="-21.941270828">
<ele>19.844238</ele>
<time>2012-07-18T11:54:35Z</time>
<extensions>
<speed>0.0</speed>
<temp>0.00</temp>
<bpm>0</bpm>
<rpm>0.00</rpm>
</extensions>
</trkpt>
<trkpt lat="64.148239136" lon="-21.941270828">
<ele>19.881836</ele>
<time>2012-07-18T11:54:40Z</time>
<speed>0.010000</speed>
<extensions>
<speed>0.0</speed>
<temp>0.00</temp>
<bpm>0</bpm>
<rpm>0.00</rpm>
</extensions>
</trkpt>
<trkpt lat="64.148239136" lon="-21.941270828">
<ele>19.881836</ele>
<time>2012-07-18T11:54:45Z</time>
<extensions>
<speed>0.0</speed>
<temp>0.00</temp>
<bpm>0</bpm>
<rpm>0.00</rpm>
</extensions>
</trkpt>
<trkpt lat="64.148239136" lon="-21.941270828">
<ele>19.941895</ele>
<time>2012-07-18T11:54:50Z</time>
<speed>0.020000</speed>
<extensions>
<speed>0.0</speed>
<temp>0.00</temp>
<bpm>0</bpm>
<rpm>0.00</rpm>
</extensions>
</trkpt>
<trkpt lat="64.148239136" lon="-21.941270828">
<ele>19.965332</ele>
<time>2012-07-18T11:54:55Z</time>
<speed>0.360000</speed>
<extensions>
<speed>0.4</speed>
<temp>0.00</temp>
<bpm>0</bpm>
<rpm>0.00</rpm>
</extensions>
</trkpt>
<trkpt lat="64.148223877" lon="-21.941331863">
<ele>23.186523</ele>
<time>2012-07-18T11:55:00Z</time>
<speed>0.210000</speed>
<extensions>
<speed>0.2</speed>
<temp>0.00</temp>
<bpm>0</bpm>
<rpm>0.00</rpm>
</extensions>
</trkpt>
<trkpt lat="64.148193359" lon="-21.941341400">
<ele>23.256836</ele>
<time>2012-07-18T11:55:05Z</time>
<speed>0.060000</speed>
<extensions>
<speed>0.1</speed>
<temp>0.00</temp>
<bpm>0</bpm>
<rpm>0.00</rpm>
</extensions>
</trkpt>
<trkpt lat="64.148178101" lon="-21.941368103">
<ele>23.953613</ele>
<time>2012-07-18T11:55:10Z</time>
<speed>0.870000</speed>
<extensions>
<speed>0.9</speed>
<temp>0.00</temp>
<bpm>0</bpm>
<rpm>0.00</rpm>
</extensions>
</trkpt>
<trkpt lat="64.148094177" lon="-21.941518784">
<ele>23.641602</ele>
<time>2012-07-18T11:55:15Z</time>
<speed>2.680000</speed>
<extensions>
<speed>2.7</speed>
<temp>0.00</temp>
<bpm>0</bpm>
<rpm>0.00</rpm>
</extensions>
</trkpt>
<trkpt lat="64.148033142" lon="-21.941568375">
<ele>20.828125</ele>
<time>2012-07-18T11:55:20Z</time>
<speed>0.250000</speed>
<extensions>
<speed>0.2</speed>
<temp>0.00</temp>
<bpm>0</bpm>
<rpm>0.00</rpm>
</extensions>
</trkpt>
<trkpt lat="64.148033142" lon="-21.941577911">
<ele>21.978027</ele>
<time>2012-07-18T11:55:25Z</time>
<speed>0.030000</speed>
<extensions>
<speed>0.0</speed>
<temp>0.00</temp>
<bpm>0</bpm>
<rpm>0.00</rpm>
</extensions>
</trkpt>
<trkpt lat="64.148002625" lon="-21.941589355">
<ele>23.932129</ele>
<time>2012-07-18T11:55:30Z</time>
<speed>1.280000</speed>
<extensions>
<speed>1.3</speed>
<temp>0.00</temp>
<bpm>0</bpm>
<rpm>0.00</rpm>
</extensions>
</trkpt>
<trkpt lat="64.147933960" lon="-21.941637039">
<ele>28.436523</ele>
<time>2012-07-18T11:55:35Z</time>
<speed>2.340000</speed>
<extensions>
<speed>2.3</speed>
<temp>0.00</temp>
<bpm>0</bpm>
<rpm>0.00</rpm>
</extensions>
</trkpt>
<trkpt lat="64.147865295" lon="-21.941698074">
<ele>32.298828</ele>
<time>2012-07-18T11:55:40Z</time>
<speed>0.180000</speed>
<extensions>
<speed>0.2</speed>
<temp>0.00</temp>
<bpm>0</bpm>
<rpm>0.00</rpm>
</extensions>
</trkpt>
<trkpt lat="64.147865295" lon="-21.941679001">
<ele>33.384766</ele>
<time>2012-07-18T11:55:45Z</time>
<speed>0.150000</speed>
<extensions>
<speed>0.2</speed>
<temp>0.00</temp>
<bpm>0</bpm>
<rpm>0.00</rpm>
</extensions>
</trkpt>
<trkpt lat="64.147872925" lon="-21.941673279">
<ele>34.965820</ele>
<time>2012-07-18T11:55:50Z</time>
<speed>0.330000</speed>
<extensions>
<speed>0.3</speed>
<temp>0.00</temp>
<bpm>0</bpm>
<rpm>0.00</rpm>
</extensions>
</trkpt>
<trkpt lat="64.147880554" lon="-21.941623688">
<ele>38.209961</ele>
<time>2012-07-18T11:55:55Z</time>
<speed>0.730000</speed>
<extensions>
<speed>0.7</speed>
<temp>0.00</temp>
<bpm>0</bpm>
<rpm>0.00</rpm>
</extensions>
</trkpt>
<trkpt lat="64.147827148" lon="-21.941480637">
<ele>41.406250</ele>
<time>2012-07-18T11:56:00Z</time>
<speed>1.540000</speed>
<extensions>
<speed>1.5</speed>
<temp>0.00</temp>
<bpm>0</bpm>
<rpm>0.00</rpm>
</extensions>
</trkpt>
<trkpt lat="64.147758484" lon="-21.941274643">
<ele>45.697266</ele>
<time>2012-07-18T11:56:05Z</time>
<speed>2.980000</speed>
<extensions>
<speed>3.0</speed>
<temp>0.00</temp>
<bpm>0</bpm>
<rpm>0.00</rpm>
</extensions>
</trkpt>
<trkpt lat="64.147651672" lon="-21.941032410">
<ele>48.699219</ele>
<time>2012-07-18T11:56:10Z</time>
<speed>2.320000</speed>
<extensions>
<speed>2.3</speed>
<temp>0.00</temp>
<bpm>0</bpm>
<rpm>0.00</rpm>
</extensions>
</trkpt>
<trkpt lat="64.147529602" lon="-21.940851212">
<ele>50.941406</ele>
<time>2012-07-18T11:56:15Z</time>
<speed>2.120000</speed>
<extensions>
<speed>2.1</speed>
<temp>0.00</temp>
<bpm>0</bpm>
<rpm>0.00</rpm>
</extensions>
</trkpt>
<trkpt lat="64.147399902" lon="-21.940614700">
<ele>50.400391</ele>
<time>2012-07-18T11:56:20Z</time>
<speed>2.790000</speed>
<extensions>
<speed>2.8</speed>
<temp>0.00</temp>
<bpm>0</bpm>
<rpm>0.00</rpm>
</extensions>
</trkpt>
<trkpt lat="64.147277832" lon="-21.940568924">
<ele>46.801758</ele>
<time>2012-07-18T11:56:25Z</time>
<speed>3.060000</speed>
<extensions>
<speed>3.1</speed>
<temp>0.00</temp>
<bpm>0</bpm>
<rpm>0.00</rpm>
</extensions>
</trkpt>
<trkpt lat="64.147193909" lon="-21.940446854">
<ele>45.152344</ele>
<time>2012-07-18T11:56:30Z</time>
<speed>2.660000</speed>
<extensions>
<speed>2.7</speed>
<temp>0.00</temp>
<bpm>0</bpm>
<rpm>0.00</rpm>
</extensions>
</trkpt>
<trkpt lat="64.147117615" lon="-21.940250397">
<ele>42.963867</ele>
<time>2012-07-18T11:56:35Z</time>
<speed>2.700000</speed>
<extensions>
<speed>2.7</speed>
<temp>0.00</temp>
<bpm>0</bpm>
<rpm>0.00</rpm>
</extensions>
</trkpt>
<trkpt lat="64.147048950" lon="-21.940044403">
<ele>45.533203</ele>
<time>2012-07-18T11:56:40Z</time>
<speed>2.640000</speed>
<extensions>
<speed>2.6</speed>
<temp>0.00</temp>
<bpm>0</bpm>
<rpm>0.00</rpm>
</extensions>
</trkpt>
<trkpt lat="64.146949768" lon="-21.939804077">
<ele>38.588867</ele>
<time>2012-07-18T11:56:45Z</time>
<speed>2.410000</speed>
<extensions>
<speed>2.4</speed>
<temp>0.00</temp>
<bpm>0</bpm>
<rpm>0.00</rpm>
</extensions>
</trkpt>
<trkpt lat="64.146858215" lon="-21.939640045">
<ele>30.589355</ele>
<time>2012-07-18T11:56:50Z</time>
<speed>1.680000</speed>
<extensions>
<speed>1.7</speed>
<temp>0.00</temp>
<bpm>0</bpm>
<rpm>0.00</rpm>
</extensions>
</trkpt>
<trkpt lat="64.146804810" lon="-21.939487457">
<ele>29.274414</ele>
<time>2012-07-18T11:56:55Z</time>
<speed>1.680000</speed>
<extensions>
<speed>1.7</speed>
<temp>0.00</temp>
<bpm>0</bpm>
<rpm>0.00</rpm>
</extensions>
</trkpt>
<trkpt lat="64.146759033" lon="-21.939275742">
<ele>28.859375</ele>
<time>2012-07-18T11:57:00Z</time>
<speed>1.600000</speed>
<extensions>
<speed>1.6</speed>
<temp>0.00</temp>
<bpm>0</bpm>
<rpm>0.00</rpm>
</extensions>
</trkpt>
<trkpt lat="64.146675110" lon="-21.939085007">
<ele>28.109863</ele>
<time>2012-07-18T11:57:05Z</time>
<speed>1.410000</speed>
<extensions>
<speed>1.4</speed>
<temp>0.00</temp>
<bpm>0</bpm>
<rpm>0.00</rpm>
</extensions>
</trkpt>
<trkpt lat="64.146659851" lon="-21.939092636">
<ele>27.506348</ele>
<time>2012-07-18T11:57:10Z</time>
<speed>0.450000</speed>
<extensions>
<speed>0.5</speed>
<temp>0.00</temp>
<bpm>0</bpm>
<rpm>0.00</rpm>
</extensions>
</trkpt>
<trkpt lat="64.146629333" lon="-21.939105988">
<ele>27.604980</ele>
<time>2012-07-18T11:57:15Z</time>
<speed>0.240000</speed>
<extensions>
<speed>0.2</speed>
<temp>0.00</temp>
<bpm>0</bpm>
<rpm>0.00</rpm>
</extensions>
</trkpt>
<trkpt lat="64.146514893" lon="-21.938953400">
<ele>26.392090</ele>
<time>2012-07-18T11:57:20Z</time>
<speed>2.440000</speed>
<extensions>
<speed>2.4</speed>
<temp>0.00</temp>
<bpm>0</bpm>
<rpm>0.00</rpm>
</extensions>
</trkpt>
<trkpt lat="64.146453857" lon="-21.938684464">
<ele>25.007324</ele>
<time>2012-07-18T11:57:25Z</time>
<speed>2.470000</speed>
<extensions>
<speed>2.5</speed>
<temp>0.00</temp>
<bpm>0</bpm>
<rpm>0.00</rpm>
</extensions>
</trkpt>
<trkpt lat="64.146430969" lon="-21.938392639">
<ele>22.399902</ele>
<time>2012-07-18T11:57:30Z</time>
<speed>2.090000</speed>
<extensions>
<speed>2.1</speed>
<temp>0.00</temp>
<bpm>0</bpm>
<rpm>0.00</rpm>
</extensions>
</trkpt>
<trkpt lat="64.146377563" lon="-21.938135147">
<ele>21.551758</ele>
<time>2012-07-18T11:57:35Z</time>
<speed>1.680000</speed>
<extensions>
<speed>1.7</speed>
<temp>0.00</temp>
<bpm>0</bpm>
<rpm>0.00</rpm>
</extensions>
</trkpt>
<trkpt lat="64.146377563" lon="-21.938007355">
<ele>21.368652</ele>
<time>2012-07-18T11:57:40Z</time>
<speed>0.080000</speed>
<extensions>
<speed>0.1</speed>
<temp>0.00</temp>
<bpm>0</bpm>
<rpm>0.00</rpm>
</extensions>
</trkpt>
<trkpt lat="64.146377563" lon="-21.938005447">
<ele>22.456543</ele>
<time>2012-07-18T11:57:45Z</time>
<speed>0.010000</speed>
<extensions>
<speed>0.0</speed>
<temp>0.00</temp>
<bpm>0</bpm>
<rpm>0.00</rpm>
</extensions>
</trkpt>
<trkpt lat="64.146377563" lon="-21.938003540">
<ele>22.500488</ele>
<time>2012-07-18T11:57:50Z</time>
<speed>0.010000</speed>
<extensions>
<speed>0.0</speed>
<temp>0.00</temp>
<bpm>0</bpm>
<rpm>0.00</rpm>
</extensions>
</trkpt>
<trkpt lat="64.146377563" lon="-21.938001633">
<ele>22.538086</ele>
<time>2012-07-18T11:57:55Z</time>
<speed>0.010000</speed>
<extensions>
<speed>0.0</speed>
<temp>0.00</temp>
<bpm>0</bpm>
<rpm>0.00</rpm>
</extensions>
</trkpt>
<trkpt lat="64.146377563" lon="-21.938001633">
<ele>22.557129</ele>
<time>2012-07-18T11:58:00Z</time>
<speed>0.020000</speed>
<extensions>
<speed>0.0</speed>
<temp>0.00</temp>
<bpm>0</bpm>
<rpm>0.00</rpm>
</extensions>
</trkpt>
<trkpt lat="64.146377563" lon="-21.937999725">
<ele>22.568848</ele>
<time>2012-07-18T11:58:05Z</time>
<extensions>
<speed>0.0</speed>
<temp>0.00</temp>
<bpm>0</bpm>
<rpm>0.00</rpm>
</extensions>
</trkpt>
<trkpt lat="64.146377563" lon="-21.937999725">
<ele>22.580078</ele>
<time>2012-07-18T11:58:10Z</time>
<speed>0.010000</speed>
<extensions>
<speed>0.0</speed>
<temp>0.00</temp>
<bpm>0</bpm>
<rpm>0.00</rpm>
</extensions>
</trkpt>
<trkpt lat="64.146377563" lon="-21.937997818">
<ele>22.625977</ele>
<time>2012-07-18T11:58:15Z</time>
<speed>0.010000</speed>
<extensions>
<speed>0.0</speed>
<temp>0.00</temp>
<bpm>0</bpm>
<rpm>0.00</rpm>
</extensions>
</trkpt>
<trkpt lat="64.146377563" lon="-21.937994003">
<ele>22.776855</ele>
<time>2012-07-18T11:58:20Z</time>
<speed>0.020000</speed>
<extensions>
<speed>0.0</speed>
<temp>0.00</temp>
<bpm>0</bpm>
<rpm>0.00</rpm>
</extensions>
</trkpt>
<trkpt lat="64.146377563" lon="-21.937992096">
<ele>22.831543</ele>
<time>2012-07-18T11:58:25Z</time>
<speed>0.010000</speed>
<extensions>
<speed>0.0</speed>
<temp>0.00</temp>
<bpm>0</bpm>
<rpm>0.00</rpm>
</extensions>
</trkpt>
<trkpt lat="64.146377563" lon="-21.937986374">
<ele>22.957031</ele>
<time>2012-07-18T11:58:30Z</time>
<speed>0.750000</speed>
<extensions>
<speed>0.8</speed>
<temp>0.00</temp>
<bpm>0</bpm>
<rpm>0.00</rpm>
</extensions>
</trkpt>
<trkpt lat="64.146339417" lon="-21.937978745">
<ele>23.016113</ele>
<time>2012-07-18T11:58:35Z</time>
<speed>0.930000</speed>
<extensions>
<speed>0.9</speed>
<temp>0.00</temp>
<bpm>0</bpm>
<rpm>0.00</rpm>
</extensions>
</trkpt>
<trkpt lat="64.146293640" lon="-21.938047409">
<ele>26.126465</ele>
<time>2012-07-18T11:58:40Z</time>
<speed>2.160000</speed>
<extensions>
<speed>2.2</speed>
<temp>0.00</temp>
<bpm>0</bpm>
<rpm>0.00</rpm>
</extensions>
</trkpt>
<trkpt lat="64.146179199" lon="-21.938236237">
<ele>27.564453</ele>
<time>2012-07-18T11:58:45Z</time>
<speed>3.430000</speed>
<extensions>
<speed>3.4</speed>
<temp>0.00</temp>
<bpm>0</bpm>
<rpm>0.00</rpm>
</extensions>
</trkpt>
<trkpt lat="64.146018982" lon="-21.938488007">
<ele>23.446289</ele>
<time>2012-07-18T11:58:50Z</time>
<speed>3.790000</speed>
<extensions>
<speed>3.8</speed>
<temp>0.00</temp>
<bpm>0</bpm>
<rpm>0.00</rpm>
</extensions>
</trkpt>
<trkpt lat="64.145858765" lon="-21.938802719">
<ele>16.125977</ele>
<time>2012-07-18T11:58:55Z</time>
<speed>4.260000</speed>
<extensions>
<speed>4.3</speed>
<temp>0.00</temp>
<bpm>0</bpm>
<rpm>0.00</rpm>
</extensions>
</trkpt>
<trkpt lat="64.145713806" lon="-21.939043045">
<ele>16.724609</ele>
<time>2012-07-18T11:59:00Z</time>
<speed>3.850000</speed>
<extensions>
<speed>3.8</speed>
<temp>0.00</temp>
<bpm>0</bpm>
<rpm>0.00</rpm>
</extensions>
</trkpt>
<trkpt lat="64.145576477" lon="-21.939321518">
<ele>14.861084</ele>
<time>2012-07-18T11:59:05Z</time>
<speed>3.610000</speed>
<extensions>
<speed>3.6</speed>
<temp>0.00</temp>
<bpm>0</bpm>
<rpm>0.00</rpm>
</extensions>
</trkpt>
<trkpt lat="64.145324707" lon="-21.939399719">
<ele>10.215332</ele>
<time>2012-07-18T11:59:10Z</time>
<speed>4.370000</speed>
<extensions>
<speed>4.4</speed>
<temp>0.00</temp>
<bpm>0</bpm>
<rpm>0.00</rpm>
</extensions>
</trkpt>
<trkpt lat="64.145072937" lon="-21.939495087">
<ele>4.088989</ele>
<time>2012-07-18T11:59:15Z</time>
<speed>4.540000</speed>
<extensions>
<speed>4.5</speed>
<temp>0.00</temp>
<bpm>0</bpm>
<rpm>0.00</rpm>
</extensions>
</trkpt>
<trkpt lat="64.144851685" lon="-21.939598083">
<ele>1.415436</ele>
<time>2012-07-18T11:59:20Z</time>
<speed>4.730000</speed>
<extensions>
<speed>4.7</speed>
<temp>0.00</temp>
<bpm>0</bpm>
<rpm>0.00</rpm>
</extensions>
</trkpt>
<trkpt lat="64.144622803" lon="-21.939676285">
<ele>0.359871</ele>
<time>2012-07-18T11:59:25Z</time>
<speed>4.670000</speed>
<extensions>
<speed>4.7</speed>
<temp>0.00</temp>
<bpm>0</bpm>
<rpm>0.00</rpm>
</extensions>
</trkpt>
<trkpt lat="64.144416809" lon="-21.939760208">
<ele>-0.120998</ele>
<time>2012-07-18T11:59:30Z</time>
<speed>4.340000</speed>
<extensions>
<speed>4.3</speed>
<temp>0.00</temp>
<bpm>0</bpm>
<rpm>0.00</rpm>
</extensions>
</trkpt>
<trkpt lat="64.144226074" lon="-21.939832687">
<ele>-1.331146</ele>
<time>2012-07-18T11:59:35Z</time>
<speed>4.080000</speed>
<extensions>
<speed>4.1</speed>
<temp>0.00</temp>
<bpm>0</bpm>
<rpm>0.00</rpm>
</extensions>
</trkpt>
<trkpt lat="64.144035339" lon="-21.939893723">
<ele>-1.068329</ele>
<time>2012-07-18T11:59:40Z</time>
<speed>4.520000</speed>
<extensions>
<speed>4.5</speed>
<temp>0.00</temp>
<bpm>0</bpm>
<rpm>0.00</rpm>
</extensions>
</trkpt>
<trkpt lat="64.143829346" lon="-21.939987183">
<ele>-2.194824</ele>
<time>2012-07-18T11:59:45Z</time>
<speed>4.350000</speed>
<extensions>
<speed>4.3</speed>
<temp>0.00</temp>
<bpm>0</bpm>
<rpm>0.00</rpm>
</extensions>
</trkpt>
<trkpt lat="64.143646240" lon="-21.940071106">
<ele>-4.369507</ele>
<time>2012-07-18T11:59:50Z</time>
<speed>4.140000</speed>
<extensions>
<speed>4.1</speed>
<temp>0.00</temp>
<bpm>0</bpm>
<rpm>0.00</rpm>
</extensions>
</trkpt>
<trkpt lat="64.143455505" lon="-21.940164566">
<ele>-4.474243</ele>
<time>2012-07-18T11:59:55Z</time>
<speed>4.590000</speed>
<extensions>
<speed>4.6</speed>
<temp>0.00</temp>
<bpm>0</bpm>
<rpm>0.00</rpm>
</extensions>
</trkpt>
<trkpt lat="64.143264771" lon="-21.940265656">
<ele>-4.541260</ele>
<time>2012-07-18T12:00:00Z</time>
<speed>4.120000</speed>
<extensions>
<speed>4.1</speed>
<temp>0.00</temp>
<bpm>0</bpm>
<rpm>0.00</rpm>
</extensions>
</trkpt>
<trkpt lat="64.143089294" lon="-21.940336227">
<ele>-3.146729</ele>
<time>2012-07-18T12:00:05Z</time>
<speed>4.020000</speed>
<extensions>
<speed>4.0</speed>
<temp>0.00</temp>
<bpm>0</bpm>
<rpm>0.00</rpm>
</extensions>
</trkpt>
<trkpt lat="64.142929077" lon="-21.940383911">
<ele>-2.208435</ele>
<time>2012-07-18T12:00:10Z</time>
<speed>3.560000</speed>
<extensions>
<speed>3.6</speed>
<temp>0.00</temp>
<bpm>0</bpm>
<rpm>0.00</rpm>
</extensions>
</trkpt>
<trkpt lat="64.142791748" lon="-21.940372467">
<ele>0.336502</ele>
<time>2012-07-18T12:00:15Z</time>
<speed>2.770000</speed>
<extensions>
<speed>2.8</speed>
<temp>0.00</temp>
<bpm>0</bpm>
<rpm>0.00</rpm>
</extensions>
</trkpt>
<trkpt lat="64.142654419" lon="-21.940275192">
<ele>0.774567</ele>
<time>2012-07-18T12:00:20Z</time>
<speed>3.090000</speed>
<extensions>
<speed>3.1</speed>
<temp>0.00</temp>
<bpm>0</bpm>
<rpm>0.00</rpm>
</extensions>
</trkpt>
<trkpt lat="64.142517090" lon="-21.940187454">
<ele>1.405182</ele>
<time>2012-07-18T12:00:25Z</time>
<speed>2.960000</speed>
<extensions>
<speed>3.0</speed>
<temp>0.00</temp>
<bpm>0</bpm>
<rpm>0.00</rpm>
</extensions>
</trkpt>
<trkpt lat="64.142372131" lon="-21.940052032">
<ele>3.558533</ele>
<time>2012-07-18T12:00:30Z</time>
<speed>3.090000</speed>
<extensions>
<speed>3.1</speed>
<temp>0.00</temp>
<bpm>0</bpm>
<rpm>0.00</rpm>
</extensions>
</trkpt>
<trkpt lat="64.142227173" lon="-21.939905167">
<ele>6.257690</ele>
<time>2012-07-18T12:00:35Z</time>
<speed>3.590000</speed>
<extensions>
<speed>3.6</speed>
<temp>0.00</temp>
<bpm>0</bpm>
<rpm>0.00</rpm>
</extensions>
</trkpt>
<trkpt lat="64.142051697" lon="-21.939739227">
<ele>7.274048</ele>
<time>2012-07-18T12:00:40Z</time>
<speed>4.150000</speed>
<extensions>
<speed>4.1</speed>
<temp>0.00</temp>
<bpm>0</bpm>
<rpm>0.00</rpm>
</extensions>
</trkpt>
<trkpt lat="64.141876221" lon="-21.939598083">
<ele>10.188965</ele>
<time>2012-07-18T12:00:45Z</time>
<speed>4.340000</speed>
<extensions>
<speed>4.3</speed>
<temp>0.00</temp>
<bpm>0</bpm>
<rpm>0.00</rpm>
</extensions>
</trkpt>
<trkpt lat="64.141693115" lon="-21.939481735">
<ele>11.433105</ele>
<time>2012-07-18T12:00:50Z</time>
<speed>4.140000</speed>
<extensions>
<speed>4.1</speed>
<temp>0.00</temp>
<bpm>0</bpm>
<rpm>0.00</rpm>
</extensions>
</trkpt>
<trkpt lat="64.141510010" lon="-21.939409256">
<ele>9.502441</ele>
<time>2012-07-18T12:00:55Z</time>
<speed>4.000000</speed>
<extensions>
<speed>4.0</speed>
<temp>0.00</temp>
<bpm>0</bpm>
<rpm>0.00</rpm>
</extensions>
</trkpt>
<trkpt lat="64.141326904" lon="-21.939292908">
<ele>8.218994</ele>
<time>2012-07-18T12:01:00Z</time>
<speed>4.080000</speed>
<extensions>
<speed>4.1</speed>
<temp>0.00</temp>
<bpm>0</bpm>
<rpm>0.00</rpm>
</extensions>
</trkpt>
<trkpt lat="64.141151428" lon="-21.939155579">
<ele>8.083984</ele>
<time>2012-07-18T12:01:05Z</time>
<speed>3.810000</speed>
<extensions>
<speed>3.8</speed>
<temp>0.00</temp>
<bpm>0</bpm>
<rpm>0.00</rpm>
</extensions>
</trkpt>
<trkpt lat="64.140998840" lon="-21.939031601">
<ele>6.214966</ele>
<time>2012-07-18T12:01:10Z</time>
<speed>3.580000</speed>
<extensions>
<speed>3.6</speed>
<temp>0.00</temp>
<bpm>0</bpm>
<rpm>0.00</rpm>
</extensions>
</trkpt>
<trkpt lat="64.140846252" lon="-21.938875198">
<ele>5.903076</ele>
<time>2012-07-18T12:01:15Z</time>
<speed>3.770000</speed>
<extensions>
<speed>3.8</speed>
<temp>0.00</temp>
<bpm>0</bpm>
<rpm>0.00</rpm>
</extensions>
</trkpt>
<trkpt lat="64.140701294" lon="-21.938751221">
<ele>7.092407</ele>
<time>2012-07-18T12:01:20Z</time>
<speed>3.260000</speed>
<extensions>
<speed>3.3</speed>
<temp>0.00</temp>
<bpm>0</bpm>
<rpm>0.00</rpm>
</extensions>
</trkpt>
<trkpt lat="64.140602112" lon="-21.938680649">
<ele>10.728271</ele>
<time>2012-07-18T12:01:25Z</time>
<speed>2.900000</speed>
<extensions>
<speed>2.9</speed>
<temp>0.00</temp>
<bpm>0</bpm>
<rpm>0.00</rpm>
</extensions>
</trkpt>
<trkpt lat="64.140441895" lon="-21.938541412">
<ele>11.651855</ele>
<time>2012-07-18T12:01:30Z</time>
<speed>3.350000</speed>
<extensions>
<speed>3.4</speed>
<temp>0.00</temp>
<bpm>0</bpm>
<rpm>0.00</rpm>
</extensions>
</trkpt>
<trkpt lat="64.140274048" lon="-21.938417435">
<ele>12.165039</ele>
<time>2012-07-18T12:01:35Z</time>
<speed>3.820000</speed>
<extensions>
<speed>3.8</speed>
<temp>0.00</temp>
<bpm>0</bpm>
<rpm>0.00</rpm>
</extensions>
</trkpt>
<trkpt lat="64.140113831" lon="-21.938312531">
<ele>12.273682</ele>
<time>2012-07-18T12:01:40Z</time>
<speed>2.760000</speed>
<extensions>
<speed>2.8</speed>
<temp>0.00</temp>
<bpm>0</bpm>
<rpm>0.00</rpm>
</extensions>
</trkpt>
<trkpt lat="64.139984131" lon="-21.938201904">
<ele>12.647705</ele>
<time>2012-07-18T12:01:45Z</time>
<speed>1.790000</speed>
<extensions>
<speed>1.8</speed>
<temp>0.00</temp>
<bpm>0</bpm>
<rpm>0.00</rpm>
</extensions>
</trkpt>
<trkpt lat="64.139915466" lon="-21.938102722">
<ele>13.633545</ele>
<time>2012-07-18T12:01:50Z</time>
<speed>1.620000</speed>
<extensions>
<speed>1.6</speed>
<temp>0.00</temp>
<bpm>0</bpm>
<rpm>0.00</rpm>
</extensions>
</trkpt>
<trkpt lat="64.139823914" lon="-21.938032150">
<ele>14.963623</ele>
<time>2012-07-18T12:01:55Z</time>
<speed>1.820000</speed>
<extensions>
<speed>1.8</speed>
<temp>0.00</temp>
<bpm>0</bpm>
<rpm>0.00</rpm>
</extensions>
</trkpt>
<trkpt lat="64.139755249" lon="-21.938114166">
<ele>14.952148</ele>
<time>2012-07-18T12:02:00Z</time>
<speed>1.740000</speed>
<extensions>
<speed>1.7</speed>
<temp>0.00</temp>
<bpm>0</bpm>
<rpm>0.00</rpm>
</extensions>
</trkpt>
<trkpt lat="64.139640808" lon="-21.938220978">
<ele>11.466553</ele>
<time>2012-07-18T12:02:05Z</time>
<speed>1.380000</speed>
<extensions>
<speed>1.4</speed>
<temp>0.00</temp>
<bpm>0</bpm>
<rpm>0.00</rpm>
</extensions>
</trkpt>
<trkpt lat="64.139625549" lon="-21.938236237">
<ele>11.972168</ele>
<time>2012-07-18T12:02:10Z</time>
<speed>0.040000</speed>
<extensions>
<speed>0.0</speed>
<temp>0.00</temp>
<bpm>0</bpm>
<rpm>0.00</rpm>
</extensions>
</trkpt>
<trkpt lat="64.139625549" lon="-21.938236237">
<ele>12.103760</ele>
<time>2012-07-18T12:02:15Z</time>
<speed>0.120000</speed>
<extensions>
<speed>0.1</speed>
<temp>0.00</temp>
<bpm>0</bpm>
<rpm>0.00</rpm>
</extensions>
</trkpt>
<trkpt lat="64.139610291" lon="-21.938228607">
<ele>12.213379</ele>
<time>2012-07-18T12:02:20Z</time>
<speed>1.640000</speed>
<extensions>
<speed>1.6</speed>
<temp>0.00</temp>
<bpm>0</bpm>
<rpm>0.00</rpm>
</extensions>
</trkpt>
<trkpt lat="64.139495850" lon="-21.937990189">
<ele>10.892334</ele>
<time>2012-07-18T12:02:25Z</time>
<speed>3.690000</speed>
<extensions>
<speed>3.7</speed>
<temp>0.00</temp>
<bpm>0</bpm>
<rpm>0.00</rpm>
</extensions>
</trkpt>
<trkpt lat="64.139335632" lon="-21.937765121">
<ele>8.266846</ele>
<time>2012-07-18T12:02:30Z</time>
<speed>3.900000</speed>
<extensions>
<speed>3.9</speed>
<temp>0.00</temp>
<bpm>0</bpm>
<rpm>0.00</rpm>
</extensions>
</trkpt>
<trkpt lat="64.139183044" lon="-21.937597275">
<ele>7.469971</ele>
<time>2012-07-18T12:02:35Z</time>
<speed>3.320000</speed>
<extensions>
<speed>3.3</speed>
<temp>0.00</temp>
<bpm>0</bpm>
<rpm>0.00</rpm>
</extensions>
</trkpt>
<trkpt lat="64.139053345" lon="-21.937383652">
<ele>9.082031</ele>
<time>2012-07-18T12:02:40Z</time>
<speed>3.400000</speed>
<extensions>
<speed>3.4</speed>
<temp>0.00</temp>
<bpm>0</bpm>
<rpm>0.00</rpm>
</extensions>
</trkpt>
<trkpt lat="64.138954163" lon="-21.937084198">
<ele>8.897705</ele>
<time>2012-07-18T12:02:45Z</time>
<speed>3.520000</speed>
<extensions>
<speed>3.5</speed>
<temp>0.00</temp>
<bpm>0</bpm>
<rpm>0.00</rpm>
</extensions>
</trkpt>
<trkpt lat="64.138854980" lon="-21.936742783">
<ele>6.866211</ele>
<time>2012-07-18T12:02:50Z</time>
<speed>3.660000</speed>
<extensions>
<speed>3.7</speed>
<temp>0.00</temp>
<bpm>0</bpm>
<rpm>0.00</rpm>
</extensions>
</trkpt>
<trkpt lat="64.138771057" lon="-21.936460495">
<ele>6.258301</ele>
<time>2012-07-18T12:02:55Z</time>
<speed>2.890000</speed>
<extensions>
<speed>2.9</speed>
<temp>0.00</temp>
<bpm>0</bpm>
<rpm>0.00</rpm>
</extensions>
</trkpt>
<trkpt lat="64.138702393" lon="-21.936203003">
<ele>5.587891</ele>
<time>2012-07-18T12:03:00Z</time>
<speed>3.070000</speed>
<extensions>
<speed>3.1</speed>
<temp>0.00</temp>
<bpm>0</bpm>
<rpm>0.00</rpm>
</extensions>
</trkpt>
<trkpt lat="64.138656616" lon="-21.935886383">
<ele>4.455078</ele>
<time>2012-07-18T12:03:05Z</time>
<speed>3.140000</speed>
<extensions>
<speed>3.1</speed>
<temp>0.00</temp>
<bpm>0</bpm>
<rpm>0.00</rpm>
</extensions>
</trkpt>
<trkpt lat="64.138618469" lon="-21.935625076">
<ele>4.117798</ele>
<time>2012-07-18T12:03:10Z</time>
<speed>2.190000</speed>
<extensions>
<speed>2.2</speed>
<temp>0.00</temp>
<bpm>0</bpm>
<rpm>0.00</rpm>
</extensions>
</trkpt>
<trkpt lat="64.138587952" lon="-21.935405731">
<ele>3.975525</ele>
<time>2012-07-18T12:03:15Z</time>
<speed>2.290000</speed>
<extensions>
<speed>2.3</speed>
<temp>0.00</temp>
<bpm>0</bpm>
<rpm>0.00</rpm>
</extensions>
</trkpt>
<trkpt lat="64.138549805" lon="-21.935146332">
<ele>3.401123</ele>
<time>2012-07-18T12:03:20Z</time>
<speed>2.610000</speed>
<extensions>
<speed>2.6</speed>
<temp>0.00</temp>
<bpm>0</bpm>
<rpm>0.00</rpm>
</extensions>
</trkpt>
<trkpt lat="64.138504028" lon="-21.934894562">
<ele>3.395752</ele>
<time>2012-07-18T12:03:25Z</time>
<speed>2.650000</speed>
<extensions>
<speed>2.6</speed>
<temp>0.00</temp>
<bpm>0</bpm>
<rpm>0.00</rpm>
</extensions>
</trkpt>
<trkpt lat="64.138465881" lon="-21.934665680">
<ele>4.711914</ele>
<time>2012-07-18T12:03:30Z</time>
<speed>2.770000</speed>
<extensions>
<speed>2.8</speed>
<temp>0.00</temp>
<bpm>0</bpm>
<rpm>0.00</rpm>
</extensions>
</trkpt>
<trkpt lat="64.138420105" lon="-21.934377670">
<ele>4.922607</ele>
<time>2012-07-18T12:03:35Z</time>
<speed>3.230000</speed>
<extensions>
<speed>3.2</speed>
<temp>0.00</temp>
<bpm>0</bpm>
<rpm>0.00</rpm>
</extensions>
</trkpt>
<trkpt lat="64.138381958" lon="-21.934106827">
<ele>4.911011</ele>
<time>2012-07-18T12:03:40Z</time>
<speed>2.370000</speed>
<extensions>
<speed>2.4</speed>
<temp>0.00</temp>
<bpm>0</bpm>
<rpm>0.00</rpm>
</extensions>
</trkpt>
<trkpt lat="64.138343811" lon="-21.933847427">
<ele>5.214722</ele>
<time>2012-07-18T12:03:45Z</time>
<speed>2.820000</speed>
<extensions>
<speed>2.8</speed>
<temp>0.00</temp>
<bpm>0</bpm>
<rpm>0.00</rpm>
</extensions>
</trkpt>
<trkpt lat="64.138313293" lon="-21.933599472">
<ele>5.182983</ele>
<time>2012-07-18T12:03:50Z</time>
<speed>2.470000</speed>
<extensions>
<speed>2.5</speed>
<temp>0.00</temp>
<bpm>0</bpm>
<rpm>0.00</rpm>
</extensions>
</trkpt>
<trkpt lat="64.138290405" lon="-21.933307648">
<ele>5.283813</ele>
<time>2012-07-18T12:03:55Z</time>
<speed>3.230000</speed>
<extensions>
<speed>3.2</speed>
<temp>0.00</temp>
<bpm>0</bpm>
<rpm>0.00</rpm>
</extensions>
</trkpt>
<trkpt lat="64.138244629" lon="-21.932996750">
<ele>5.518066</ele>
<time>2012-07-18T12:04:00Z</time>
<speed>3.050000</speed>
<extensions>
<speed>3.0</speed>
<temp>0.00</temp>
<bpm>0</bpm>
<rpm>0.00</rpm>
</extensions>
</trkpt>
<trkpt lat="64.138183594" lon="-21.932762146">
<ele>8.372070</ele>
<time>2012-07-18T12:04:05Z</time>
<speed>2.500000</speed>
<extensions>
<speed>2.5</speed>
<temp>0.00</temp>
<bpm>0</bpm>
<rpm>0.00</rpm>
</extensions>
</trkpt>
<trkpt lat="64.138137817" lon="-21.932483673">
<ele>8.235107</ele>
<time>2012-07-18T12:04:10Z</time>
<speed>2.880000</speed>
<extensions>
<speed>2.9</speed>
<temp>0.00</temp>
<bpm>0</bpm>
<rpm>0.00</rpm>
</extensions>
</trkpt>
<trkpt lat="64.138092041" lon="-21.932203293">
<ele>8.681396</ele>
<time>2012-07-18T12:04:15Z</time>
<speed>2.660000</speed>
<extensions>
<speed>2.7</speed>
<temp>0.00</temp>
<bpm>0</bpm>
<rpm>0.00</rpm>
</extensions>
</trkpt>
<trkpt lat="64.138046265" lon="-21.931945801">
<ele>8.731689</ele>
<time>2012-07-18T12:04:20Z</time>
<speed>2.760000</speed>
<extensions>
<speed>2.8</speed>
<temp>0.00</temp>
<bpm>0</bpm>
<rpm>0.00</rpm>
</extensions>
</trkpt>
<trkpt lat="64.138008118" lon="-21.931652069">
<ele>9.156982</ele>
<time>2012-07-18T12:04:25Z</time>
<speed>2.940000</speed>
<extensions>
<speed>2.9</speed>
<temp>0.00</temp>
<bpm>0</bpm>
<rpm>0.00</rpm>
</extensions>
</trkpt>
<trkpt lat="64.137962341" lon="-21.931390762">
<ele>9.604248</ele>
<time>2012-07-18T12:04:30Z</time>
<speed>2.580000</speed>
<extensions>
<speed>2.6</speed>
<temp>0.00</temp>
<bpm>0</bpm>
<rpm>0.00</rpm>
</extensions>
</trkpt>
<trkpt lat="64.137924194" lon="-21.931123734">
<ele>9.667480</ele>
<time>2012-07-18T12:04:35Z</time>
<speed>2.670000</speed>
<extensions>
<speed>2.7</speed>
<temp>0.00</temp>
<bpm>0</bpm>
<rpm>0.00</rpm>
</extensions>
</trkpt>
<trkpt lat="64.137878418" lon="-21.930837631">
<ele>9.335938</ele>
<time>2012-07-18T12:04:40Z</time>
<speed>2.920000</speed>
<extensions>
<speed>2.9</speed>
<temp>0.00</temp>
<bpm>0</bpm>
<rpm>0.00</rpm>
</extensions>
</trkpt>
<trkpt lat="64.137840271" lon="-21.930543900">
<ele>8.928467</ele>
<time>2012-07-18T12:04:45Z</time>
<speed>2.910000</speed>
<extensions>
<speed>2.9</speed>
<temp>0.00</temp>
<bpm>0</bpm>
<rpm>0.00</rpm>
</extensions>
</trkpt>
<trkpt lat="64.137794495" lon="-21.930255890">
<ele>9.363281</ele>
<time>2012-07-18T12:04:50Z</time>
<speed>3.100000</speed>
<extensions>
<speed>3.1</speed>
<temp>0.00</temp>
<bpm>0</bpm>
<rpm>0.00</rpm>
</extensions>
</trkpt>
<trkpt lat="64.137748718" lon="-21.929929733">
<ele>9.362061</ele>
<time>2012-07-18T12:04:55Z</time>
<speed>3.400000</speed>
<extensions>
<speed>3.4</speed>
<temp>0.00</temp>
<bpm>0</bpm>
<rpm>0.00</rpm>
</extensions>
</trkpt>
<trkpt lat="64.137695313" lon="-21.929601669">
<ele>9.451172</ele>
<time>2012-07-18T12:05:00Z</time>
<speed>3.410000</speed>
<extensions>
<speed>3.4</speed>
<temp>0.00</temp>
<bpm>0</bpm>
<rpm>0.00</rpm>
</extensions>
</trkpt>
<trkpt lat="64.137641907" lon="-21.929248810">
<ele>9.312012</ele>
<time>2012-07-18T12:05:05Z</time>
<speed>3.680000</speed>
<extensions>
<speed>3.7</speed>
<temp>0.00</temp>
<bpm>0</bpm>
<rpm>0.00</rpm>
</extensions>
</trkpt>
<trkpt lat="64.137580872" lon="-21.928924561">
<ele>9.120361</ele>
<time>2012-07-18T12:05:10Z</time>
<speed>3.390000</speed>
<extensions>
<speed>3.4</speed>
<temp>0.00</temp>
<bpm>0</bpm>
<rpm>0.00</rpm>
</extensions>
</trkpt>
<trkpt lat="64.137527466" lon="-21.928592682">
<ele>9.458496</ele>
<time>2012-07-18T12:05:15Z</time>
<speed>3.520000</speed>
<extensions>
<speed>3.5</speed>
<temp>0.00</temp>
<bpm>0</bpm>
<rpm>0.00</rpm>
</extensions>
</trkpt>
<trkpt lat="64.137481689" lon="-21.928239822">
<ele>9.712158</ele>
<time>2012-07-18T12:05:20Z</time>
<speed>3.640000</speed>
<extensions>
<speed>3.6</speed>
<temp>0.00</temp>
<bpm>0</bpm>
<rpm>0.00</rpm>
</extensions>
</trkpt>
<trkpt lat="64.137435913" lon="-21.927881241">
<ele>9.761963</ele>
<time>2012-07-18T12:05:25Z</time>
<speed>3.720000</speed>
<extensions>
<speed>3.7</speed>
<temp>0.00</temp>
<bpm>0</bpm>
<rpm>0.00</rpm>
</extensions>
</trkpt>
<trkpt lat="64.137397766" lon="-21.927518845">
<ele>9.929443</ele>
<time>2012-07-18T12:05:30Z</time>
<speed>3.470000</speed>
<extensions>
<speed>3.5</speed>
<temp>0.00</temp>
<bpm>0</bpm>
<rpm>0.00</rpm>
</extensions>
</trkpt>
<trkpt lat="64.137351990" lon="-21.927297592">
<ele>10.307861</ele>
<time>2012-07-18T12:05:35Z</time>
<speed>0.470000</speed>
<extensions>
<speed>0.5</speed>
<temp>0.00</temp>
<bpm>0</bpm>
<rpm>0.00</rpm>
</extensions>
</trkpt>
<trkpt lat="64.137351990" lon="-21.927314758">
<ele>10.614502</ele>
<time>2012-07-18T12:05:40Z</time>
<speed>0.060000</speed>
<extensions>
<speed>0.1</speed>
<temp>0.00</temp>
<bpm>0</bpm>
<rpm>0.00</rpm>
</extensions>
</trkpt>
<trkpt lat="64.137351990" lon="-21.927314758">
<ele>10.829590</ele>
<time>2012-07-18T12:05:45Z</time>
<speed>0.090000</speed>
<extensions>
<speed>0.1</speed>
<temp>0.00</temp>
<bpm>0</bpm>
<rpm>0.00</rpm>
</extensions>
</trkpt>
<trkpt lat="64.137351990" lon="-21.927314758">
<ele>10.915771</ele>
<time>2012-07-18T12:05:50Z</time>
<speed>0.020000</speed>
<extensions>
<speed>0.0</speed>
<temp>0.00</temp>
<bpm>0</bpm>
<rpm>0.00</rpm>
</extensions>
</trkpt>
<trkpt lat="64.137351990" lon="-21.927310944">
<ele>10.902588</ele>
<time>2012-07-18T12:05:55Z</time>
<extensions>
<speed>0.0</speed>
<temp>0.00</temp>
<bpm>0</bpm>
<rpm>0.00</rpm>
</extensions>
</trkpt>
<trkpt lat="64.137351990" lon="-21.927310944">
<ele>10.923584</ele>
<time>2012-07-18T12:06:00Z</time>
<extensions>
<speed>0.0</speed>
<temp>0.00</temp>
<bpm>0</bpm>
<rpm>0.00</rpm>
</extensions>
</trkpt>
<trkpt lat="64.137351990" lon="-21.927310944">
<ele>10.941162</ele>
<time>2012-07-18T12:06:05Z</time>
<speed>0.270000</speed>
<extensions>
<speed>0.3</speed>
<temp>0.00</temp>
<bpm>0</bpm>
<rpm>0.00</rpm>
</extensions>
</trkpt>
<trkpt lat="64.137351990" lon="-21.927310944">
<ele>10.814209</ele>
<time>2012-07-18T12:06:10Z</time>
<speed>0.060000</speed>
<extensions>
<speed>0.1</speed>
<temp>0.00</temp>
<bpm>0</bpm>
<rpm>0.00</rpm>
</extensions>
</trkpt>
<trkpt lat="64.137351990" lon="-21.927312851">
<ele>10.822998</ele>
<time>2012-07-18T12:06:15Z</time>
<extensions>
<speed>0.0</speed>
<temp>0.00</temp>
<bpm>0</bpm>
<rpm>0.00</rpm>
</extensions>
</trkpt>
<trkpt lat="64.137351990" lon="-21.927312851">
<ele>10.833496</ele>
<time>2012-07-18T12:06:20Z</time>
<extensions>
<speed>0.0</speed>
<temp>0.00</temp>
<bpm>0</bpm>
<rpm>0.00</rpm>
</extensions>
</trkpt>
<trkpt lat="64.137351990" lon="-21.927312851">
<ele>10.840820</ele>
<time>2012-07-18T12:06:25Z</time>
<extensions>
<speed>0.0</speed>
<temp>0.00</temp>
<bpm>0</bpm>
<rpm>0.00</rpm>
</extensions>
</trkpt>
<trkpt lat="64.137351990" lon="-21.927312851">
<ele>10.849121</ele>
<time>2012-07-18T12:06:30Z</time>
<speed>0.010000</speed>
<extensions>
<speed>0.0</speed>
<temp>0.00</temp>
<bpm>0</bpm>
<rpm>0.00</rpm>
</extensions>
</trkpt>
<trkpt lat="64.137351990" lon="-21.927312851">
<ele>10.848145</ele>
<time>2012-07-18T12:06:35Z</time>
<speed>0.010000</speed>
<extensions>
<speed>0.0</speed>
<temp>0.00</temp>
<bpm>0</bpm>
<rpm>0.00</rpm>
</extensions>
</trkpt>
<trkpt lat="64.137351990" lon="-21.927312851">
<ele>10.837891</ele>
<time>2012-07-18T12:06:40Z</time>
<speed>0.030000</speed>
<extensions>
<speed>0.0</speed>
<temp>0.00</temp>
<bpm>0</bpm>
<rpm>0.00</rpm>
</extensions>
</trkpt>
<trkpt lat="64.137351990" lon="-21.927312851">
<ele>10.821289</ele>
<time>2012-07-18T12:06:45Z</time>
<extensions>
<speed>0.0</speed>
<temp>0.00</temp>
<bpm>0</bpm>
<rpm>0.00</rpm>
</extensions>
</trkpt>
<trkpt lat="64.137351990" lon="-21.927310944">
<ele>10.810547</ele>
<time>2012-07-18T12:06:50Z</time>
<extensions>
<speed>0.0</speed>
<temp>0.00</temp>
<bpm>0</bpm>
<rpm>0.00</rpm>
</extensions>
</trkpt>
<trkpt lat="64.137351990" lon="-21.927310944">
<ele>10.810303</ele>
<time>2012-07-18T12:06:55Z</time>
<extensions>
<speed>0.0</speed>
<temp>0.00</temp>
<bpm>0</bpm>
<rpm>0.00</rpm>
</extensions>
</trkpt>
<trkpt lat="64.137351990" lon="-21.927310944">
<ele>10.822266</ele>
<time>2012-07-18T12:07:00Z</time>
<speed>0.010000</speed>
<extensions>
<speed>0.0</speed>
<temp>0.00</temp>
<bpm>0</bpm>
<rpm>0.00</rpm>
</extensions>
</trkpt>
<trkpt lat="64.137351990" lon="-21.927310944">
<ele>10.826660</ele>
<time>2012-07-18T12:07:05Z</time>
<speed>0.030000</speed>
<extensions>
<speed>0.0</speed>
<temp>0.00</temp>
<bpm>0</bpm>
<rpm>0.00</rpm>
</extensions>
</trkpt>
<trkpt lat="64.137351990" lon="-21.927310944">
<ele>10.824463</ele>
<time>2012-07-18T12:07:10Z</time>
<extensions>
<speed>0.0</speed>
<temp>0.00</temp>
<bpm>0</bpm>
<rpm>0.00</rpm>
</extensions>
</trkpt>
<trkpt lat="64.137351990" lon="-21.927310944">
<ele>10.849121</ele>
<time>2012-07-18T12:07:15Z</time>
<speed>0.050000</speed>
<extensions>
<speed>0.1</speed>
<temp>0.00</temp>
<bpm>0</bpm>
<rpm>0.00</rpm>
</extensions>
</trkpt>
<trkpt lat="64.137351990" lon="-21.927282333">
<ele>11.096191</ele>
<time>2012-07-18T12:07:20Z</time>
<speed>0.110000</speed>
<extensions>
<speed>0.1</speed>
<temp>0.00</temp>
<bpm>0</bpm>
<rpm>0.00</rpm>
</extensions>
</trkpt>
<trkpt lat="64.137336731" lon="-21.927246094">
<ele>11.464111</ele>
<time>2012-07-18T12:07:25Z</time>
<speed>1.810000</speed>
<extensions>
<speed>1.8</speed>
<temp>0.00</temp>
<bpm>0</bpm>
<rpm>0.00</rpm>
</extensions>
</trkpt>
<trkpt lat="64.137298584" lon="-21.927030563">
<ele>11.927979</ele>
<time>2012-07-18T12:07:30Z</time>
<speed>2.540000</speed>
<extensions>
<speed>2.5</speed>
<temp>0.00</temp>
<bpm>0</bpm>
<rpm>0.00</rpm>
</extensions>
</trkpt>
<trkpt lat="64.137260437" lon="-21.926757813">
<ele>12.130615</ele>
<time>2012-07-18T12:07:35Z</time>
<speed>2.580000</speed>
<extensions>
<speed>2.6</speed>
<temp>0.00</temp>
<bpm>0</bpm>
<rpm>0.00</rpm>
</extensions>
</trkpt>
<trkpt lat="64.137222290" lon="-21.926483154">
<ele>12.425293</ele>
<time>2012-07-18T12:07:40Z</time>
<speed>2.760000</speed>
<extensions>
<speed>2.8</speed>
<temp>0.00</temp>
<bpm>0</bpm>
<rpm>0.00</rpm>
</extensions>
</trkpt>
<trkpt lat="64.137176514" lon="-21.926212311">
<ele>12.450439</ele>
<time>2012-07-18T12:07:45Z</time>
<speed>2.850000</speed>
<extensions>
<speed>2.9</speed>
<temp>0.00</temp>
<bpm>0</bpm>
<rpm>0.00</rpm>
</extensions>
</trkpt>
<trkpt lat="64.137115479" lon="-21.925903320">
<ele>12.644775</ele>
<time>2012-07-18T12:07:50Z</time>
<speed>3.270000</speed>
<extensions>
<speed>3.3</speed>
<temp>0.00</temp>
<bpm>0</bpm>
<rpm>0.00</rpm>
</extensions>
</trkpt>
<trkpt lat="64.137054443" lon="-21.925569534">
<ele>12.796631</ele>
<time>2012-07-18T12:07:55Z</time>
<speed>3.760000</speed>
<extensions>
<speed>3.8</speed>
<temp>0.00</temp>
<bpm>0</bpm>
<rpm>0.00</rpm>
</extensions>
</trkpt>
<trkpt lat="64.136993408" lon="-21.925228119">
<ele>13.037354</ele>
<time>2012-07-18T12:08:00Z</time>
<speed>3.560000</speed>
<extensions>
<speed>3.6</speed>
<temp>0.00</temp>
<bpm>0</bpm>
<rpm>0.00</rpm>
</extensions>
</trkpt>
<trkpt lat="64.136932373" lon="-21.924880981">
<ele>13.484375</ele>
<time>2012-07-18T12:08:05Z</time>
<speed>3.470000</speed>
<extensions>
<speed>3.5</speed>
<temp>0.00</temp>
<bpm>0</bpm>
<rpm>0.00</rpm>
</extensions>
</trkpt>
<trkpt lat="64.136878967" lon="-21.924556732">
<ele>13.992920</ele>
<time>2012-07-18T12:08:10Z</time>
<speed>3.300000</speed>
<extensions>
<speed>3.3</speed>
<temp>0.00</temp>
<bpm>0</bpm>
<rpm>0.00</rpm>
</extensions>
</trkpt>
<trkpt lat="64.136833191" lon="-21.924249649">
<ele>14.561035</ele>
<time>2012-07-18T12:08:15Z</time>
<speed>3.030000</speed>
<extensions>
<speed>3.0</speed>
<temp>0.00</temp>
<bpm>0</bpm>
<rpm>0.00</rpm>
</extensions>
</trkpt>
<trkpt lat="64.136787415" lon="-21.923957825">
<ele>15.177734</ele>
<time>2012-07-18T12:08:20Z</time>
<speed>2.860000</speed>
<extensions>
<speed>2.9</speed>
<temp>0.00</temp>
<bpm>0</bpm>
<rpm>0.00</rpm>
</extensions>
</trkpt>
<trkpt lat="64.136764526" lon="-21.923753738">
<ele>15.739014</ele>
<time>2012-07-18T12:08:25Z</time>
<speed>1.510000</speed>
<extensions>
<speed>1.5</speed>
<temp>0.00</temp>
<bpm>0</bpm>
<rpm>0.00</rpm>
</extensions>
</trkpt>
<trkpt lat="64.136741638" lon="-21.923667908">
<ele>15.410400</ele>
<time>2012-07-18T12:08:30Z</time>
<speed>0.940000</speed>
<extensions>
<speed>0.9</speed>
<temp>0.00</temp>
<bpm>0</bpm>
<rpm>0.00</rpm>
</extensions>
</trkpt>
<trkpt lat="64.136680603" lon="-21.923681259">
<ele>15.901123</ele>
<time>2012-07-18T12:08:35Z</time>
<speed>2.030000</speed>
<extensions>
<speed>2.0</speed>
<temp>0.00</temp>
<bpm>0</bpm>
<rpm>0.00</rpm>
</extensions>
</trkpt>
<trkpt lat="64.136604309" lon="-21.923641205">
<ele>16.767578</ele>
<time>2012-07-18T12:08:40Z</time>
<speed>1.450000</speed>
<extensions>
<speed>1.4</speed>
<temp>0.00</temp>
<bpm>0</bpm>
<rpm>0.00</rpm>
</extensions>
</trkpt>
<trkpt lat="64.136550903" lon="-21.923656464">
<ele>19.752930</ele>
<time>2012-07-18T12:08:45Z</time>
<speed>0.070000</speed>
<extensions>
<speed>0.1</speed>
<temp>0.00</temp>
<bpm>0</bpm>
<rpm>0.00</rpm>
</extensions>
</trkpt>
<trkpt lat="64.136550903" lon="-21.923666000">
<ele>20.114746</ele>
<time>2012-07-18T12:08:50Z</time>
<speed>0.120000</speed>
<extensions>
<speed>0.1</speed>
<temp>0.00</temp>
<bpm>0</bpm>
<rpm>0.00</rpm>
</extensions>
</trkpt>
<trkpt lat="64.136550903" lon="-21.923650742">
<ele>20.351074</ele>
<time>2012-07-18T12:08:55Z</time>
<speed>0.170000</speed>
<extensions>
<speed>0.2</speed>
<temp>0.00</temp>
<bpm>0</bpm>
<rpm>0.00</rpm>
</extensions>
</trkpt>
<trkpt lat="64.136543274" lon="-21.923648834">
<ele>20.396484</ele>
<time>2012-07-18T12:09:00Z</time>
<speed>0.010000</speed>
<extensions>
<speed>0.0</speed>
<temp>0.00</temp>
<bpm>0</bpm>
<rpm>0.00</rpm>
</extensions>
</trkpt>
<trkpt lat="64.136543274" lon="-21.923650742">
<ele>20.398926</ele>
<time>2012-07-18T12:09:05Z</time>
<speed>0.010000</speed>
<extensions>
<speed>0.0</speed>
<temp>0.00</temp>
<bpm>0</bpm>
<rpm>0.00</rpm>
</extensions>
</trkpt>
<trkpt lat="64.136543274" lon="-21.923650742">
<ele>20.416504</ele>
<time>2012-07-18T12:09:10Z</time>
<speed>0.040000</speed>
<extensions>
<speed>0.0</speed>
<temp>0.00</temp>
<bpm>0</bpm>
<rpm>0.00</rpm>
</extensions>
</trkpt>
<trkpt lat="64.136543274" lon="-21.923650742">
<ele>20.437988</ele>
<time>2012-07-18T12:09:15Z</time>
<speed>0.050000</speed>
<extensions>
<speed>0.1</speed>
<temp>0.00</temp>
<bpm>0</bpm>
<rpm>0.00</rpm>
</extensions>
</trkpt>
<trkpt lat="64.136543274" lon="-21.923650742">
<ele>20.448242</ele>
<time>2012-07-18T12:09:20Z</time>
<speed>0.020000</speed>
<extensions>
<speed>0.0</speed>
<temp>0.00</temp>
<bpm>0</bpm>
<rpm>0.00</rpm>
</extensions>
</trkpt>
<trkpt lat="64.136543274" lon="-21.923650742">
<ele>20.450195</ele>
<time>2012-07-18T12:09:25Z</time>
<speed>0.040000</speed>
<extensions>
<speed>0.0</speed>
<temp>0.00</temp>
<bpm>0</bpm>
<rpm>0.00</rpm>
</extensions>
</trkpt>
<trkpt lat="64.136543274" lon="-21.923650742">
<ele>20.454102</ele>
<time>2012-07-18T12:09:30Z</time>
<speed>1.290000</speed>
<extensions>
<speed>1.3</speed>
<temp>0.00</temp>
<bpm>0</bpm>
<rpm>0.00</rpm>
</extensions>
</trkpt>
<trkpt lat="64.136428833" lon="-21.923707962">
<ele>21.020508</ele>
<time>2012-07-18T12:09:35Z</time>
<speed>3.330000</speed>
<extensions>
<speed>3.3</speed>
<temp>0.00</temp>
<bpm>0</bpm>
<rpm>0.00</rpm>
</extensions>
</trkpt>
<trkpt lat="64.136245728" lon="-21.923732758">
<ele>20.459473</ele>
<time>2012-07-18T12:09:40Z</time>
<speed>4.310000</speed>
<extensions>
<speed>4.3</speed>
<temp>0.00</temp>
<bpm>0</bpm>
<rpm>0.00</rpm>
</extensions>
</trkpt>
<trkpt lat="64.136047363" lon="-21.923765182">
<ele>21.447754</ele>
<time>2012-07-18T12:09:45Z</time>
<speed>4.680000</speed>
<extensions>
<speed>4.7</speed>
<temp>0.00</temp>
<bpm>0</bpm>
<rpm>0.00</rpm>
</extensions>
</trkpt>
<trkpt lat="64.135826111" lon="-21.923786163">
<ele>20.228516</ele>
<time>2012-07-18T12:09:50Z</time>
<speed>5.140000</speed>
<extensions>
<speed>5.1</speed>
<temp>0.00</temp>
<bpm>0</bpm>
<rpm>0.00</rpm>
</extensions>
</trkpt>
<trkpt lat="64.135604858" lon="-21.923744202">
<ele>18.793457</ele>
<time>2012-07-18T12:09:55Z</time>
<speed>4.100000</speed>
<extensions>
<speed>4.1</speed>
<temp>0.00</temp>
<bpm>0</bpm>
<rpm>0.00</rpm>
</extensions>
</trkpt>
<trkpt lat="64.135406494" lon="-21.923736572">
<ele>17.897461</ele>
<time>2012-07-18T12:10:00Z</time>
<speed>4.250000</speed>
<extensions>
<speed>4.3</speed>
<temp>0.00</temp>
<bpm>0</bpm>
<rpm>0.00</rpm>
</extensions>
</trkpt>
<trkpt lat="64.135208130" lon="-21.923879623">
<ele>16.392090</ele>
<time>2012-07-18T12:10:05Z</time>
<speed>5.780000</speed>
<extensions>
<speed>5.8</speed>
<temp>0.00</temp>
<bpm>0</bpm>
<rpm>0.00</rpm>
</extensions>
</trkpt>
<trkpt lat="64.135177612" lon="-21.924468994">
<ele>15.466309</ele>
<time>2012-07-18T12:10:10Z</time>
<speed>6.240000</speed>
<extensions>
<speed>6.2</speed>
<temp>0.00</temp>
<bpm>0</bpm>
<rpm>0.00</rpm>
</extensions>
</trkpt>
<trkpt lat="64.135429382" lon="-21.924650192">
<ele>14.509277</ele>
<time>2012-07-18T12:10:15Z</time>
<speed>6.930000</speed>
<extensions>
<speed>6.9</speed>
<temp>0.00</temp>
<bpm>0</bpm>
<rpm>0.00</rpm>
</extensions>
</trkpt>
<trkpt lat="64.135688782" lon="-21.924325943">
<ele>16.355469</ele>
<time>2012-07-18T12:10:20Z</time>
<speed>4.720000</speed>
<extensions>
<speed>4.7</speed>
<temp>0.00</temp>
<bpm>0</bpm>
<rpm>0.00</rpm>
</extensions>
</trkpt>
<trkpt lat="64.135765076" lon="-21.923919678">
<ele>18.857910</ele>
<time>2012-07-18T12:10:25Z</time>
<speed>3.980000</speed>
<extensions>
<speed>4.0</speed>
<temp>0.00</temp>
<bpm>0</bpm>
<rpm>0.00</rpm>
</extensions>
</trkpt>
<trkpt lat="64.135787964" lon="-21.923603058">
<ele>20.190430</ele>
<time>2012-07-18T12:10:30Z</time>
<speed>3.050000</speed>
<extensions>
<speed>3.0</speed>
<temp>0.00</temp>
<bpm>0</bpm>
<rpm>0.00</rpm>
</extensions>
</trkpt>
<trkpt lat="64.135795593" lon="-21.923349380">
<ele>20.721680</ele>
<time>2012-07-18T12:10:35Z</time>
<speed>1.950000</speed>
<extensions>
<speed>1.9</speed>
<temp>0.00</temp>
<bpm>0</bpm>
<rpm>0.00</rpm>
</extensions>
</trkpt>
<trkpt lat="64.135803223" lon="-21.923118591">
<ele>20.677246</ele>
<time>2012-07-18T12:10:40Z</time>
<speed>2.060000</speed>
<extensions>
<speed>2.1</speed>
<temp>0.00</temp>
<bpm>0</bpm>
<rpm>0.00</rpm>
</extensions>
</trkpt>
<trkpt lat="64.135765076" lon="-21.922920227">
<ele>20.652344</ele>
<time>2012-07-18T12:10:45Z</time>
<speed>2.130000</speed>
<extensions>
<speed>2.1</speed>
<temp>0.00</temp>
<bpm>0</bpm>
<rpm>0.00</rpm>
</extensions>
</trkpt>
<trkpt lat="64.135726929" lon="-21.922742844">
<ele>17.905762</ele>
<time>2012-07-18T12:10:50Z</time>
<speed>1.590000</speed>
<extensions>
<speed>1.6</speed>
<temp>0.00</temp>
<bpm>0</bpm>
<rpm>0.00</rpm>
</extensions>
</trkpt>
<trkpt lat="64.135688782" lon="-21.922599792">
<ele>15.998779</ele>
<time>2012-07-18T12:10:55Z</time>
<speed>1.560000</speed>
<extensions>
<speed>1.6</speed>
<temp>0.00</temp>
<bpm>0</bpm>
<rpm>0.00</rpm>
</extensions>
</trkpt>
<trkpt lat="64.135635376" lon="-21.922416687">
<ele>19.382324</ele>
<time>2012-07-18T12:11:00Z</time>
<speed>2.590000</speed>
<extensions>
<speed>2.6</speed>
<temp>0.00</temp>
<bpm>0</bpm>
<rpm>0.00</rpm>
</extensions>
</trkpt>
<trkpt lat="64.135581970" lon="-21.922164917">
<ele>19.852051</ele>
<time>2012-07-18T12:11:05Z</time>
<speed>2.890000</speed>
<extensions>
<speed>2.9</speed>
<temp>0.00</temp>
<bpm>0</bpm>
<rpm>0.00</rpm>
</extensions>
</trkpt>
<trkpt lat="64.135520935" lon="-21.921895981">
<ele>18.276855</ele>
<time>2012-07-18T12:11:10Z</time>
<speed>2.470000</speed>
<extensions>
<speed>2.5</speed>
<temp>0.00</temp>
<bpm>0</bpm>
<rpm>0.00</rpm>
</extensions>
</trkpt>
<trkpt lat="64.135520935" lon="-21.921598434">
<ele>20.004395</ele>
<time>2012-07-18T12:11:15Z</time>
<speed>3.250000</speed>
<extensions>
<speed>3.2</speed>
<temp>0.00</temp>
<bpm>0</bpm>
<rpm>0.00</rpm>
</extensions>
</trkpt>
<trkpt lat="64.135574341" lon="-21.921274185">
<ele>22.297852</ele>
<time>2012-07-18T12:11:20Z</time>
<speed>3.290000</speed>
<extensions>
<speed>3.3</speed>
<temp>0.00</temp>
<bpm>0</bpm>
<rpm>0.00</rpm>
</extensions>
</trkpt>
<trkpt lat="64.135604858" lon="-21.920982361">
<ele>24.723633</ele>
<time>2012-07-18T12:11:25Z</time>
<speed>3.020000</speed>
<extensions>
<speed>3.0</speed>
<temp>0.00</temp>
<bpm>0</bpm>
<rpm>0.00</rpm>
</extensions>
</trkpt>
<trkpt lat="64.135696411" lon="-21.920604706">
<ele>24.917969</ele>
<time>2012-07-18T12:11:30Z</time>
<speed>3.880000</speed>
<extensions>
<speed>3.9</speed>
<temp>0.00</temp>
<bpm>0</bpm>
<rpm>0.00</rpm>
</extensions>
</trkpt>
<trkpt lat="64.135818481" lon="-21.920209885">
<ele>22.572266</ele>
<time>2012-07-18T12:11:35Z</time>
<speed>4.890000</speed>
<extensions>
<speed>4.9</speed>
<temp>0.00</temp>
<bpm>0</bpm>
<rpm>0.00</rpm>
</extensions>
</trkpt>
<trkpt lat="64.135940552" lon="-21.919792175">
<ele>22.488770</ele>
<time>2012-07-18T12:11:40Z</time>
<speed>4.560000</speed>
<extensions>
<speed>4.6</speed>
<temp>0.00</temp>
<bpm>0</bpm>
<rpm>0.00</rpm>
</extensions>
</trkpt>
<trkpt lat="64.136039734" lon="-21.919355392">
<ele>23.476563</ele>
<time>2012-07-18T12:11:45Z</time>
<speed>4.920000</speed>
<extensions>
<speed>4.9</speed>
<temp>0.00</temp>
<bpm>0</bpm>
<rpm>0.00</rpm>
</extensions>
</trkpt>
<trkpt lat="64.136070251" lon="-21.918933868">
<ele>21.487305</ele>
<time>2012-07-18T12:11:50Z</time>
<speed>4.260000</speed>
<extensions>
<speed>4.3</speed>
<temp>0.00</temp>
<bpm>0</bpm>
<rpm>0.00</rpm>
</extensions>
</trkpt>
<trkpt lat="64.136001587" lon="-21.918539047">
<ele>22.262695</ele>
<time>2012-07-18T12:11:55Z</time>
<speed>4.070000</speed>
<extensions>
<speed>4.1</speed>
<temp>0.00</temp>
<bpm>0</bpm>
<rpm>0.00</rpm>
</extensions>
</trkpt>
<trkpt lat="64.135940552" lon="-21.918138504">
<ele>18.676758</ele>
<time>2012-07-18T12:12:00Z</time>
<speed>3.520000</speed>
<extensions>
<speed>3.5</speed>
<temp>0.00</temp>
<bpm>0</bpm>
<rpm>0.00</rpm>
</extensions>
</trkpt>
<trkpt lat="64.135887146" lon="-21.917757034">
<ele>17.498535</ele>
<time>2012-07-18T12:12:05Z</time>
<speed>3.930000</speed>
<extensions>
<speed>3.9</speed>
<temp>0.00</temp>
<bpm>0</bpm>
<rpm>0.00</rpm>
</extensions>
</trkpt>
<trkpt lat="64.135826111" lon="-21.917377472">
<ele>16.248047</ele>
<time>2012-07-18T12:12:10Z</time>
<speed>3.690000</speed>
<extensions>
<speed>3.7</speed>
<temp>0.00</temp>
<bpm>0</bpm>
<rpm>0.00</rpm>
</extensions>
</trkpt>
<trkpt lat="64.135765076" lon="-21.916994095">
<ele>12.799316</ele>
<time>2012-07-18T12:12:15Z</time>
<speed>3.920000</speed>
<extensions>
<speed>3.9</speed>
<temp>0.00</temp>
<bpm>0</bpm>
<rpm>0.00</rpm>
</extensions>
</trkpt>
<trkpt lat="64.135711670" lon="-21.916681290">
<ele>9.887939</ele>
<time>2012-07-18T12:12:20Z</time>
<speed>3.120000</speed>
<extensions>
<speed>3.1</speed>
<temp>0.00</temp>
<bpm>0</bpm>
<rpm>0.00</rpm>
</extensions>
</trkpt>
<trkpt lat="64.135665894" lon="-21.916410446">
<ele>8.484131</ele>
<time>2012-07-18T12:12:25Z</time>
<speed>2.930000</speed>
<extensions>
<speed>2.9</speed>
<temp>0.00</temp>
<bpm>0</bpm>
<rpm>0.00</rpm>
</extensions>
</trkpt>
<trkpt lat="64.135604858" lon="-21.916023254">
<ele>7.465942</ele>
<time>2012-07-18T12:12:30Z</time>
<speed>4.290000</speed>
<extensions>
<speed>4.3</speed>
<temp>0.00</temp>
<bpm>0</bpm>
<rpm>0.00</rpm>
</extensions>
</trkpt>
<trkpt lat="64.135543823" lon="-21.915618896">
<ele>6.467651</ele>
<time>2012-07-18T12:12:35Z</time>
<speed>4.000000</speed>
<extensions>
<speed>4.0</speed>
<temp>0.00</temp>
<bpm>0</bpm>
<rpm>0.00</rpm>
</extensions>
</trkpt>
<trkpt lat="64.135482788" lon="-21.915201187">
<ele>6.471558</ele>
<time>2012-07-18T12:12:40Z</time>
<speed>4.260000</speed>
<extensions>
<speed>4.3</speed>
<temp>0.00</temp>
<bpm>0</bpm>
<rpm>0.00</rpm>
</extensions>
</trkpt>
<trkpt lat="64.135421753" lon="-21.914817810">
<ele>4.482300</ele>
<time>2012-07-18T12:12:45Z</time>
<speed>3.830000</speed>
<extensions>
<speed>3.8</speed>
<temp>0.00</temp>
<bpm>0</bpm>
<rpm>0.00</rpm>
</extensions>
</trkpt>
<trkpt lat="64.135360718" lon="-21.914491653">
<ele>3.319702</ele>
<time>2012-07-18T12:12:50Z</time>
<speed>3.120000</speed>
<extensions>
<speed>3.1</speed>
<temp>0.00</temp>
<bpm>0</bpm>
<rpm>0.00</rpm>
</extensions>
</trkpt>
<trkpt lat="64.135330200" lon="-21.914207458">
<ele>4.143799</ele>
<time>2012-07-18T12:12:55Z</time>
<speed>2.900000</speed>
<extensions>
<speed>2.9</speed>
<temp>0.00</temp>
<bpm>0</bpm>
<rpm>0.00</rpm>
</extensions>
</trkpt>
<trkpt lat="64.135314941" lon="-21.914093018">
<ele>6.265625</ele>
<time>2012-07-18T12:13:00Z</time>
<speed>0.030000</speed>
<extensions>
<speed>0.0</speed>
<temp>0.00</temp>
<bpm>0</bpm>
<rpm>0.00</rpm>
</extensions>
</trkpt>
<trkpt lat="64.135307312" lon="-21.914096832">
<ele>6.441406</ele>
<time>2012-07-18T12:13:05Z</time>
<speed>0.960000</speed>
<extensions>
<speed>1.0</speed>
<temp>0.00</temp>
<bpm>0</bpm>
<rpm>0.00</rpm>
</extensions>
</trkpt>
<trkpt lat="64.135292053" lon="-21.913879395">
<ele>7.261597</ele>
<time>2012-07-18T12:13:10Z</time>
<speed>2.940000</speed>
<extensions>
<speed>2.9</speed>
<temp>0.00</temp>
<bpm>0</bpm>
<rpm>0.00</rpm>
</extensions>
</trkpt>
<trkpt lat="64.135253906" lon="-21.913553238">
<ele>7.963257</ele>
<time>2012-07-18T12:13:15Z</time>
<speed>2.980000</speed>
<extensions>
<speed>3.0</speed>
<temp>0.00</temp>
<bpm>0</bpm>
<rpm>0.00</rpm>
</extensions>
</trkpt>
<trkpt lat="64.135200500" lon="-21.913211823">
<ele>8.614990</ele>
<time>2012-07-18T12:13:20Z</time>
<speed>3.790000</speed>
<extensions>
<speed>3.8</speed>
<temp>0.00</temp>
<bpm>0</bpm>
<rpm>0.00</rpm>
</extensions>
</trkpt>
<trkpt lat="64.135147095" lon="-21.912841797">
<ele>10.365723</ele>
<time>2012-07-18T12:13:25Z</time>
<speed>4.080000</speed>
<extensions>
<speed>4.1</speed>
<temp>0.00</temp>
<bpm>0</bpm>
<rpm>0.00</rpm>
</extensions>
</trkpt>
<trkpt lat="64.135086060" lon="-21.912460327">
<ele>11.294678</ele>
<time>2012-07-18T12:13:30Z</time>
<speed>3.920000</speed>
<extensions>
<speed>3.9</speed>
<temp>0.00</temp>
<bpm>0</bpm>
<rpm>0.00</rpm>
</extensions>
</trkpt>
<trkpt lat="64.135025024" lon="-21.912075043">
<ele>11.828857</ele>
<time>2012-07-18T12:13:35Z</time>
<speed>3.720000</speed>
<extensions>
<speed>3.7</speed>
<temp>0.00</temp>
<bpm>0</bpm>
<rpm>0.00</rpm>
</extensions>
</trkpt>
<trkpt lat="64.134986877" lon="-21.911727905">
<ele>12.530029</ele>
<time>2012-07-18T12:13:40Z</time>
<speed>2.960000</speed>
<extensions>
<speed>3.0</speed>
<temp>0.00</temp>
<bpm>0</bpm>
<rpm>0.00</rpm>
</extensions>
</trkpt>
<trkpt lat="64.134948730" lon="-21.911441803">
<ele>17.355957</ele>
<time>2012-07-18T12:13:45Z</time>
<speed>3.250000</speed>
<extensions>
<speed>3.2</speed>
<temp>0.00</temp>
<bpm>0</bpm>
<rpm>0.00</rpm>
</extensions>
</trkpt>
<trkpt lat="64.134895325" lon="-21.911130905">
<ele>17.665527</ele>
<time>2012-07-18T12:13:50Z</time>
<speed>2.810000</speed>
<extensions>
<speed>2.8</speed>
<temp>0.00</temp>
<bpm>0</bpm>
<rpm>0.00</rpm>
</extensions>
</trkpt>
<trkpt lat="64.134857178" lon="-21.910888672">
<ele>17.849609</ele>
<time>2012-07-18T12:13:55Z</time>
<speed>2.220000</speed>
<extensions>
<speed>2.2</speed>
<temp>0.00</temp>
<bpm>0</bpm>
<rpm>0.00</rpm>
</extensions>
</trkpt>
<trkpt lat="64.134849548" lon="-21.910816193">
<ele>18.958008</ele>
<time>2012-07-18T12:14:00Z</time>
<speed>0.120000</speed>
<extensions>
<speed>0.1</speed>
<temp>0.00</temp>
<bpm>0</bpm>
<rpm>0.00</rpm>
</extensions>
</trkpt>
<trkpt lat="64.134849548" lon="-21.910820007">
<ele>18.776855</ele>
<time>2012-07-18T12:14:05Z</time>
<speed>0.030000</speed>
<extensions>
<speed>0.0</speed>
<temp>0.00</temp>
<bpm>0</bpm>
<rpm>0.00</rpm>
</extensions>
</trkpt>
<trkpt lat="64.134849548" lon="-21.910823822">
<ele>18.831055</ele>
<time>2012-07-18T12:14:10Z</time>
<speed>0.010000</speed>
<extensions>
<speed>0.0</speed>
<temp>0.00</temp>
<bpm>0</bpm>
<rpm>0.00</rpm>
</extensions>
</trkpt>
<trkpt lat="64.134849548" lon="-21.910823822">
<ele>18.913086</ele>
<time>2012-07-18T12:14:15Z</time>
<speed>0.010000</speed>
<extensions>
<speed>0.0</speed>
<temp>0.00</temp>
<bpm>0</bpm>
<rpm>0.00</rpm>
</extensions>
</trkpt>
<trkpt lat="64.134849548" lon="-21.910821915">
<ele>18.897949</ele>
<time>2012-07-18T12:14:20Z</time>
<extensions>
<speed>0.0</speed>
<temp>0.00</temp>
<bpm>0</bpm>
<rpm>0.00</rpm>
</extensions>
</trkpt>
<trkpt lat="64.134849548" lon="-21.910821915">
<ele>18.895996</ele>
<time>2012-07-18T12:14:25Z</time>
<extensions>
<speed>0.0</speed>
<temp>0.00</temp>
<bpm>0</bpm>
<rpm>0.00</rpm>
</extensions>
</trkpt>
<trkpt lat="64.134857178" lon="-21.910820007">
<ele>18.970703</ele>
<time>2012-07-18T12:14:30Z</time>
<extensions>
<speed>0.0</speed>
<temp>0.00</temp>
<bpm>0</bpm>
<rpm>0.00</rpm>
</extensions>
</trkpt>
<trkpt lat="64.134857178" lon="-21.910820007">
<ele>18.988281</ele>
<time>2012-07-18T12:14:35Z</time>
<speed>0.020000</speed>
<extensions>
<speed>0.0</speed>
<temp>0.00</temp>
<bpm>0</bpm>
<rpm>0.00</rpm>
</extensions>
</trkpt>
<trkpt lat="64.134857178" lon="-21.910820007">
<ele>19.047852</ele>
<time>2012-07-18T12:14:40Z</time>
<extensions>
<speed>0.0</speed>
<temp>0.00</temp>
<bpm>0</bpm>
<rpm>0.00</rpm>
</extensions>
</trkpt>
<trkpt lat="64.134857178" lon="-21.910818100">
<ele>19.114746</ele>
<time>2012-07-18T12:14:45Z</time>
<extensions>
<speed>0.0</speed>
<temp>0.00</temp>
<bpm>0</bpm>
<rpm>0.00</rpm>
</extensions>
</trkpt>
<trkpt lat="64.134857178" lon="-21.910818100">
<ele>19.147461</ele>
<time>2012-07-18T12:14:50Z</time>
<speed>0.080000</speed>
<extensions>
<speed>0.1</speed>
<temp>0.00</temp>
<bpm>0</bpm>
<rpm>0.00</rpm>
</extensions>
</trkpt>
<trkpt lat="64.134834290" lon="-21.910671234">
<ele>19.303711</ele>
<time>2012-07-18T12:14:55Z</time>
<speed>2.180000</speed>
<extensions>
<speed>2.2</speed>
<temp>0.00</temp>
<bpm>0</bpm>
<rpm>0.00</rpm>
</extensions>
</trkpt>
<trkpt lat="64.134788513" lon="-21.910402298">
<ele>19.886719</ele>
<time>2012-07-18T12:15:00Z</time>
<speed>2.240000</speed>
<extensions>
<speed>2.2</speed>
<temp>0.00</temp>
<bpm>0</bpm>
<rpm>0.00</rpm>
</extensions>
</trkpt>
<trkpt lat="64.134757996" lon="-21.910100937">
<ele>20.891602</ele>
<time>2012-07-18T12:15:05Z</time>
<speed>2.970000</speed>
<extensions>
<speed>3.0</speed>
<temp>0.00</temp>
<bpm>0</bpm>
<rpm>0.00</rpm>
</extensions>
</trkpt>
<trkpt lat="64.134712219" lon="-21.909790039">
<ele>21.671875</ele>
<time>2012-07-18T12:15:10Z</time>
<speed>3.200000</speed>
<extensions>
<speed>3.2</speed>
<temp>0.00</temp>
<bpm>0</bpm>
<rpm>0.00</rpm>
</extensions>
</trkpt>
<trkpt lat="64.134658813" lon="-21.909475327">
<ele>22.107910</ele>
<time>2012-07-18T12:15:15Z</time>
<speed>3.350000</speed>
<extensions>
<speed>3.4</speed>
<temp>0.00</temp>
<bpm>0</bpm>
<rpm>0.00</rpm>
</extensions>
</trkpt>
<trkpt lat="64.134597778" lon="-21.909124374">
<ele>22.764160</ele>
<time>2012-07-18T12:15:20Z</time>
<speed>3.510000</speed>
<extensions>
<speed>3.5</speed>
<temp>0.00</temp>
<bpm>0</bpm>
<rpm>0.00</rpm>
</extensions>
</trkpt>
<trkpt lat="64.134544373" lon="-21.908773422">
<ele>24.302246</ele>
<time>2012-07-18T12:15:25Z</time>
<speed>3.490000</speed>
<extensions>
<speed>3.5</speed>
<temp>0.00</temp>
<bpm>0</bpm>
<rpm>0.00</rpm>
</extensions>
</trkpt>
<trkpt lat="64.134483337" lon="-21.908418655">
<ele>24.673828</ele>
<time>2012-07-18T12:15:30Z</time>
<speed>3.730000</speed>
<extensions>
<speed>3.7</speed>
<temp>0.00</temp>
<bpm>0</bpm>
<rpm>0.00</rpm>
</extensions>
</trkpt>
<trkpt lat="64.134422302" lon="-21.908058167">
<ele>24.419434</ele>
<time>2012-07-18T12:15:35Z</time>
<speed>3.710000</speed>
<extensions>
<speed>3.7</speed>
<temp>0.00</temp>
<bpm>0</bpm>
<rpm>0.00</rpm>
</extensions>
</trkpt>
<trkpt lat="64.134368896" lon="-21.907703400">
<ele>25.707520</ele>
<time>2012-07-18T12:15:40Z</time>
<speed>3.810000</speed>
<extensions>
<speed>3.8</speed>
<temp>0.00</temp>
<bpm>0</bpm>
<rpm>0.00</rpm>
</extensions>
</trkpt>
<trkpt lat="64.134315491" lon="-21.907339096">
<ele>25.625000</ele>
<time>2012-07-18T12:15:45Z</time>
<speed>3.650000</speed>
<extensions>
<speed>3.7</speed>
<temp>0.00</temp>
<bpm>0</bpm>
<rpm>0.00</rpm>
</extensions>
</trkpt>
<trkpt lat="64.134254456" lon="-21.906982422">
<ele>26.079590</ele>
<time>2012-07-18T12:15:50Z</time>
<speed>3.660000</speed>
<extensions>
<speed>3.7</speed>
<temp>0.00</temp>
<bpm>0</bpm>
<rpm>0.00</rpm>
</extensions>
</trkpt>
<trkpt lat="64.134208679" lon="-21.906642914">
<ele>26.506348</ele>
<time>2012-07-18T12:15:55Z</time>
<speed>3.170000</speed>
<extensions>
<speed>3.2</speed>
<temp>0.00</temp>
<bpm>0</bpm>
<rpm>0.00</rpm>
</extensions>
</trkpt>
<trkpt lat="64.134140015" lon="-21.906414032">
<ele>32.322266</ele>
<time>2012-07-18T12:16:00Z</time>
<speed>3.020000</speed>
<extensions>
<speed>3.0</speed>
<temp>0.00</temp>
<bpm>0</bpm>
<rpm>0.00</rpm>
</extensions>
</trkpt>
<trkpt lat="64.134101868" lon="-21.906097412">
<ele>32.543945</ele>
<time>2012-07-18T12:16:05Z</time>
<speed>2.820000</speed>
<extensions>
<speed>2.8</speed>
<temp>0.00</temp>
<bpm>0</bpm>
<rpm>0.00</rpm>
</extensions>
</trkpt>
<trkpt lat="64.134063721" lon="-21.905872345">
<ele>30.302734</ele>
<time>2012-07-18T12:16:10Z</time>
<speed>2.470000</speed>
<extensions>
<speed>2.5</speed>
<temp>0.00</temp>
<bpm>0</bpm>
<rpm>0.00</rpm>
</extensions>
</trkpt>
<trkpt lat="64.134033203" lon="-21.905584335">
<ele>32.367188</ele>
<time>2012-07-18T12:16:15Z</time>
<speed>2.980000</speed>
<extensions>
<speed>3.0</speed>
<temp>0.00</temp>
<bpm>0</bpm>
<rpm>0.00</rpm>
</extensions>
</trkpt>
<trkpt lat="64.133979797" lon="-21.905294418">
<ele>33.747070</ele>
<time>2012-07-18T12:16:20Z</time>
<speed>3.040000</speed>
<extensions>
<speed>3.0</speed>
<temp>0.00</temp>
<bpm>0</bpm>
<rpm>0.00</rpm>
</extensions>
</trkpt>
<trkpt lat="64.133941650" lon="-21.905046463">
<ele>34.818359</ele>
<time>2012-07-18T12:16:25Z</time>
<speed>2.370000</speed>
<extensions>
<speed>2.4</speed>
<temp>0.00</temp>
<bpm>0</bpm>
<rpm>0.00</rpm>
</extensions>
</trkpt>
<trkpt lat="64.133911133" lon="-21.904815674">
<ele>34.080078</ele>
<time>2012-07-18T12:16:30Z</time>
<speed>2.220000</speed>
<extensions>
<speed>2.2</speed>
<temp>0.00</temp>
<bpm>0</bpm>
<rpm>0.00</rpm>
</extensions>
</trkpt>
<trkpt lat="64.133872986" lon="-21.904586792">
<ele>33.954102</ele>
<time>2012-07-18T12:16:35Z</time>
<speed>2.650000</speed>
<extensions>
<speed>2.6</speed>
<temp>0.00</temp>
<bpm>0</bpm>
<rpm>0.00</rpm>
</extensions>
</trkpt>
<trkpt lat="64.133827209" lon="-21.904348373">
<ele>34.614258</ele>
<time>2012-07-18T12:16:40Z</time>
<speed>2.390000</speed>
<extensions>
<speed>2.4</speed>
<temp>0.00</temp>
<bpm>0</bpm>
<rpm>0.00</rpm>
</extensions>
</trkpt>
<trkpt lat="64.133804321" lon="-21.904092789">
<ele>34.639648</ele>
<time>2012-07-18T12:16:45Z</time>
<speed>2.720000</speed>
<extensions>
<speed>2.7</speed>
<temp>0.00</temp>
<bpm>0</bpm>
<rpm>0.00</rpm>
</extensions>
</trkpt>
<trkpt lat="64.133766174" lon="-21.903835297">
<ele>35.401367</ele>
<time>2012-07-18T12:16:50Z</time>
<speed>2.660000</speed>
<extensions>
<speed>2.7</speed>
<temp>0.00</temp>
<bpm>0</bpm>
<rpm>0.00</rpm>
</extensions>
</trkpt>
<trkpt lat="64.133720398" lon="-21.903627396">
<ele>35.941406</ele>
<time>2012-07-18T12:16:55Z</time>
<speed>2.090000</speed>
<extensions>
<speed>2.1</speed>
<temp>0.00</temp>
<bpm>0</bpm>
<rpm>0.00</rpm>
</extensions>
</trkpt>
<trkpt lat="64.133689880" lon="-21.903453827">
<ele>35.206055</ele>
<time>2012-07-18T12:17:00Z</time>
<speed>2.160000</speed>
<extensions>
<speed>2.2</speed>
<temp>0.00</temp>
<bpm>0</bpm>
<rpm>0.00</rpm>
</extensions>
</trkpt>
<trkpt lat="64.133651733" lon="-21.903230667">
<ele>34.335938</ele>
<time>2012-07-18T12:17:05Z</time>
<speed>1.850000</speed>
<extensions>
<speed>1.8</speed>
<temp>0.00</temp>
<bpm>0</bpm>
<rpm>0.00</rpm>
</extensions>
</trkpt>
<trkpt lat="64.133628845" lon="-21.903059006">
<ele>33.995117</ele>
<time>2012-07-18T12:17:10Z</time>
<speed>1.650000</speed>
<extensions>
<speed>1.7</speed>
<temp>0.00</temp>
<bpm>0</bpm>
<rpm>0.00</rpm>
</extensions>
</trkpt>
<trkpt lat="64.133605957" lon="-21.902921677">
<ele>33.466797</ele>
<time>2012-07-18T12:17:15Z</time>
<speed>1.430000</speed>
<extensions>
<speed>1.4</speed>
<temp>0.00</temp>
<bpm>0</bpm>
<rpm>0.00</rpm>
</extensions>
</trkpt>
<trkpt lat="64.133552551" lon="-21.902688980">
<ele>31.226074</ele>
<time>2012-07-18T12:17:20Z</time>
<speed>3.240000</speed>
<extensions>
<speed>3.2</speed>
<temp>0.00</temp>
<bpm>0</bpm>
<rpm>0.00</rpm>
</extensions>
</trkpt>
<trkpt lat="64.133506775" lon="-21.902364731">
<ele>30.916992</ele>
<time>2012-07-18T12:17:25Z</time>
<speed>3.440000</speed>
<extensions>
<speed>3.4</speed>
<temp>0.00</temp>
<bpm>0</bpm>
<rpm>0.00</rpm>
</extensions>
</trkpt>
<trkpt lat="64.133453369" lon="-21.902069092">
<ele>30.835938</ele>
<time>2012-07-18T12:17:30Z</time>
<speed>3.040000</speed>
<extensions>
<speed>3.0</speed>
<temp>0.00</temp>
<bpm>0</bpm>
<rpm>0.00</rpm>
</extensions>
</trkpt>
<trkpt lat="64.133392334" lon="-21.901775360">
<ele>30.210938</ele>
<time>2012-07-18T12:17:35Z</time>
<speed>3.170000</speed>
<extensions>
<speed>3.2</speed>
<temp>0.00</temp>
<bpm>0</bpm>
<rpm>0.00</rpm>
</extensions>
</trkpt>
<trkpt lat="64.133346558" lon="-21.901456833">
<ele>30.358398</ele>
<time>2012-07-18T12:17:40Z</time>
<speed>3.320000</speed>
<extensions>
<speed>3.3</speed>
<temp>0.00</temp>
<bpm>0</bpm>
<rpm>0.00</rpm>
</extensions>
</trkpt>
<trkpt lat="64.133277893" lon="-21.901121140">
<ele>27.269043</ele>
<time>2012-07-18T12:17:45Z</time>
<speed>3.870000</speed>
<extensions>
<speed>3.9</speed>
<temp>0.00</temp>
<bpm>0</bpm>
<rpm>0.00</rpm>
</extensions>
</trkpt>
<trkpt lat="64.133209229" lon="-21.900714874">
<ele>28.440918</ele>
<time>2012-07-18T12:17:50Z</time>
<speed>4.140000</speed>
<extensions>
<speed>4.1</speed>
<temp>0.00</temp>
<bpm>0</bpm>
<rpm>0.00</rpm>
</extensions>
</trkpt>
<trkpt lat="64.133155823" lon="-21.900291443">
<ele>30.562012</ele>
<time>2012-07-18T12:17:55Z</time>
<speed>4.150000</speed>
<extensions>
<speed>4.1</speed>
<temp>0.00</temp>
<bpm>0</bpm>
<rpm>0.00</rpm>
</extensions>
</trkpt>
<trkpt lat="64.133102417" lon="-21.899887085">
<ele>30.068848</ele>
<time>2012-07-18T12:18:00Z</time>
<speed>3.990000</speed>
<extensions>
<speed>4.0</speed>
<temp>0.00</temp>
<bpm>0</bpm>
<rpm>0.00</rpm>
</extensions>
</trkpt>
<trkpt lat="64.133049011" lon="-21.899492264">
<ele>32.765625</ele>
<time>2012-07-18T12:18:05Z</time>
<speed>3.770000</speed>
<extensions>
<speed>3.8</speed>
<temp>0.00</temp>
<bpm>0</bpm>
<rpm>0.00</rpm>
</extensions>
</trkpt>
<trkpt lat="64.132995605" lon="-21.899099350">
<ele>35.994141</ele>
<time>2012-07-18T12:18:10Z</time>
<speed>3.780000</speed>
<extensions>
<speed>3.8</speed>
<temp>0.00</temp>
<bpm>0</bpm>
<rpm>0.00</rpm>
</extensions>
</trkpt>
<trkpt lat="64.132911682" lon="-21.898836136">
<ele>30.494629</ele>
<time>2012-07-18T12:18:15Z</time>
<speed>2.340000</speed>
<extensions>
<speed>2.3</speed>
<temp>0.00</temp>
<bpm>0</bpm>
<rpm>0.00</rpm>
</extensions>
</trkpt>
<trkpt lat="64.132904053" lon="-21.898607254">
<ele>30.650879</ele>
<time>2012-07-18T12:18:20Z</time>
<speed>1.990000</speed>
<extensions>
<speed>2.0</speed>
<temp>0.00</temp>
<bpm>0</bpm>
<rpm>0.00</rpm>
</extensions>
</trkpt>
<trkpt lat="64.132865906" lon="-21.898374557">
<ele>29.647461</ele>
<time>2012-07-18T12:18:25Z</time>
<speed>2.420000</speed>
<extensions>
<speed>2.4</speed>
<temp>0.00</temp>
<bpm>0</bpm>
<rpm>0.00</rpm>
</extensions>
</trkpt>
<trkpt lat="64.132888794" lon="-21.898231506">
<ele>32.641602</ele>
<time>2012-07-18T12:18:30Z</time>
<speed>2.280000</speed>
<extensions>
<speed>2.3</speed>
<temp>0.00</temp>
<bpm>0</bpm>
<rpm>0.00</rpm>
</extensions>
</trkpt>
<trkpt lat="64.132835388" lon="-21.897930145">
<ele>32.181641</ele>
<time>2012-07-18T12:18:35Z</time>
<speed>3.090000</speed>
<extensions>
<speed>3.1</speed>
<temp>0.00</temp>
<bpm>0</bpm>
<rpm>0.00</rpm>
</extensions>
</trkpt>
<trkpt lat="64.132789612" lon="-21.897708893">
<ele>33.003906</ele>
<time>2012-07-18T12:18:40Z</time>
<speed>2.780000</speed>
<extensions>
<speed>2.8</speed>
<temp>0.00</temp>
<bpm>0</bpm>
<rpm>0.00</rpm>
</extensions>
</trkpt>
<trkpt lat="64.132728577" lon="-21.897369385">
<ele>33.516602</ele>
<time>2012-07-18T12:18:45Z</time>
<speed>3.730000</speed>
<extensions>
<speed>3.7</speed>
<temp>0.00</temp>
<bpm>0</bpm>
<rpm>0.00</rpm>
</extensions>
</trkpt>
<trkpt lat="64.132675171" lon="-21.896997452">
<ele>31.957031</ele>
<time>2012-07-18T12:18:50Z</time>
<speed>3.780000</speed>
<extensions>
<speed>3.8</speed>
<temp>0.00</temp>
<bpm>0</bpm>
<rpm>0.00</rpm>
</extensions>
</trkpt>
<trkpt lat="64.132614136" lon="-21.896640778">
<ele>31.024902</ele>
<time>2012-07-18T12:18:55Z</time>
<speed>3.430000</speed>
<extensions>
<speed>3.4</speed>
<temp>0.00</temp>
<bpm>0</bpm>
<rpm>0.00</rpm>
</extensions>
</trkpt>
<trkpt lat="64.132606506" lon="-21.896339417">
<ele>33.213867</ele>
<time>2012-07-18T12:19:00Z</time>
<speed>2.470000</speed>
<extensions>
<speed>2.5</speed>
<temp>0.00</temp>
<bpm>0</bpm>
<rpm>0.00</rpm>
</extensions>
</trkpt>
<trkpt lat="64.132591248" lon="-21.896068573">
<ele>33.800781</ele>
<time>2012-07-18T12:19:05Z</time>
<speed>3.110000</speed>
<extensions>
<speed>3.1</speed>
<temp>0.00</temp>
<bpm>0</bpm>
<rpm>0.00</rpm>
</extensions>
</trkpt>
<trkpt lat="64.132537842" lon="-21.895740509">
<ele>31.779297</ele>
<time>2012-07-18T12:19:10Z</time>
<speed>3.600000</speed>
<extensions>
<speed>3.6</speed>
<temp>0.00</temp>
<bpm>0</bpm>
<rpm>0.00</rpm>
</extensions>
</trkpt>
<trkpt lat="64.132476807" lon="-21.895368576">
<ele>31.285645</ele>
<time>2012-07-18T12:19:15Z</time>
<speed>3.950000</speed>
<extensions>
<speed>4.0</speed>
<temp>0.00</temp>
<bpm>0</bpm>
<rpm>0.00</rpm>
</extensions>
</trkpt>
<trkpt lat="64.132423401" lon="-21.894979477">
<ele>32.801758</ele>
<time>2012-07-18T12:19:20Z</time>
<speed>4.100000</speed>
<extensions>
<speed>4.1</speed>
<temp>0.00</temp>
<bpm>0</bpm>
<rpm>0.00</rpm>
</extensions>
</trkpt>
<trkpt lat="64.132354736" lon="-21.894638062">
<ele>31.821777</ele>
<time>2012-07-18T12:19:25Z</time>
<speed>3.360000</speed>
<extensions>
<speed>3.4</speed>
<temp>0.00</temp>
<bpm>0</bpm>
<rpm>0.00</rpm>
</extensions>
</trkpt>
<trkpt lat="64.132270813" lon="-21.894355774">
<ele>32.871094</ele>
<time>2012-07-18T12:19:30Z</time>
<speed>3.450000</speed>
<extensions>
<speed>3.5</speed>
<temp>0.00</temp>
<bpm>0</bpm>
<rpm>0.00</rpm>
</extensions>
</trkpt>
<trkpt lat="64.132202148" lon="-21.894029617">
<ele>32.891602</ele>
<time>2012-07-18T12:19:35Z</time>
<speed>3.780000</speed>
<extensions>
<speed>3.8</speed>
<temp>0.00</temp>
<bpm>0</bpm>
<rpm>0.00</rpm>
</extensions>
</trkpt>
<trkpt lat="64.132141113" lon="-21.893640518">
<ele>33.231445</ele>
<time>2012-07-18T12:19:40Z</time>
<speed>4.140000</speed>
<extensions>
<speed>4.1</speed>
<temp>0.00</temp>
<bpm>0</bpm>
<rpm>0.00</rpm>
</extensions>
</trkpt>
<trkpt lat="64.132064819" lon="-21.893257141">
<ele>30.531250</ele>
<time>2012-07-18T12:19:45Z</time>
<speed>4.120000</speed>
<extensions>
<speed>4.1</speed>
<temp>0.00</temp>
<bpm>0</bpm>
<rpm>0.00</rpm>
</extensions>
</trkpt>
<trkpt lat="64.132003784" lon="-21.892847061">
<ele>30.532715</ele>
<time>2012-07-18T12:19:50Z</time>
<speed>4.390000</speed>
<extensions>
<speed>4.4</speed>
<temp>0.00</temp>
<bpm>0</bpm>
<rpm>0.00</rpm>
</extensions>
</trkpt>
<trkpt lat="64.131958008" lon="-21.892389297">
<ele>30.941895</ele>
<time>2012-07-18T12:19:55Z</time>
<speed>4.530000</speed>
<extensions>
<speed>4.5</speed>
<temp>0.00</temp>
<bpm>0</bpm>
<rpm>0.00</rpm>
</extensions>
</trkpt>
<trkpt lat="64.131904602" lon="-21.892000198">
<ele>31.001953</ele>
<time>2012-07-18T12:20:00Z</time>
<speed>3.440000</speed>
<extensions>
<speed>3.4</speed>
<temp>0.00</temp>
<bpm>0</bpm>
<rpm>0.00</rpm>
</extensions>
</trkpt>
<trkpt lat="64.131851196" lon="-21.891716003">
<ele>31.315918</ele>
<time>2012-07-18T12:20:05Z</time>
<speed>2.420000</speed>
<extensions>
<speed>2.4</speed>
<temp>0.00</temp>
<bpm>0</bpm>
<rpm>0.00</rpm>
</extensions>
</trkpt>
<trkpt lat="64.131797791" lon="-21.891654968">
<ele>30.575195</ele>
<time>2012-07-18T12:20:10Z</time>
<speed>0.230000</speed>
<extensions>
<speed>0.2</speed>
<temp>0.00</temp>
<bpm>0</bpm>
<rpm>0.00</rpm>
</extensions>
</trkpt>
<trkpt lat="64.131805420" lon="-21.891662598">
<ele>30.110352</ele>
<time>2012-07-18T12:20:15Z</time>
<speed>0.020000</speed>
<extensions>
<speed>0.0</speed>
<temp>0.00</temp>
<bpm>0</bpm>
<rpm>0.00</rpm>
</extensions>
</trkpt>
<trkpt lat="64.131782532" lon="-21.891626358">
<ele>28.583984</ele>
<time>2012-07-18T12:20:20Z</time>
<speed>2.000000</speed>
<extensions>
<speed>2.0</speed>
<temp>0.00</temp>
<bpm>0</bpm>
<rpm>0.00</rpm>
</extensions>
</trkpt>
<trkpt lat="64.131713867" lon="-21.891561508">
<ele>28.896973</ele>
<time>2012-07-18T12:20:25Z</time>
<speed>1.600000</speed>
<extensions>
<speed>1.6</speed>
<temp>0.00</temp>
<bpm>0</bpm>
<rpm>0.00</rpm>
</extensions>
</trkpt>
<trkpt lat="64.131744385" lon="-21.891391754">
<ele>30.169434</ele>
<time>2012-07-18T12:20:30Z</time>
<speed>2.150000</speed>
<extensions>
<speed>2.1</speed>
<temp>0.00</temp>
<bpm>0</bpm>
<rpm>0.00</rpm>
</extensions>
</trkpt>
<trkpt lat="64.131767273" lon="-21.891153336">
<ele>30.794434</ele>
<time>2012-07-18T12:20:35Z</time>
<speed>2.400000</speed>
<extensions>
<speed>2.4</speed>
<temp>0.00</temp>
<bpm>0</bpm>
<rpm>0.00</rpm>
</extensions>
</trkpt>
<trkpt lat="64.131752014" lon="-21.890905380">
<ele>31.155762</ele>
<time>2012-07-18T12:20:40Z</time>
<speed>2.480000</speed>
<extensions>
<speed>2.5</speed>
<temp>0.00</temp>
<bpm>0</bpm>
<rpm>0.00</rpm>
</extensions>
</trkpt>
<trkpt lat="64.131736755" lon="-21.890649796">
<ele>30.881348</ele>
<time>2012-07-18T12:20:45Z</time>
<speed>1.900000</speed>
<extensions>
<speed>1.9</speed>
<temp>0.00</temp>
<bpm>0</bpm>
<rpm>0.00</rpm>
</extensions>
</trkpt>
<trkpt lat="64.131698608" lon="-21.890441895">
<ele>29.096680</ele>
<time>2012-07-18T12:20:50Z</time>
<speed>2.350000</speed>
<extensions>
<speed>2.4</speed>
<temp>0.00</temp>
<bpm>0</bpm>
<rpm>0.00</rpm>
</extensions>
</trkpt>
<trkpt lat="64.131645203" lon="-21.890205383">
<ele>30.034180</ele>
<time>2012-07-18T12:20:55Z</time>
<speed>2.620000</speed>
<extensions>
<speed>2.6</speed>
<temp>0.00</temp>
<bpm>0</bpm>
<rpm>0.00</rpm>
</extensions>
</trkpt>
<trkpt lat="64.131568909" lon="-21.890037537">
<ele>31.423340</ele>
<time>2012-07-18T12:21:00Z</time>
<speed>2.560000</speed>
<extensions>
<speed>2.6</speed>
<temp>0.00</temp>
<bpm>0</bpm>
<rpm>0.00</rpm>
</extensions>
</trkpt>
<trkpt lat="64.131492615" lon="-21.889869690">
<ele>34.655273</ele>
<time>2012-07-18T12:21:05Z</time>
<speed>2.360000</speed>
<extensions>
<speed>2.4</speed>
<temp>0.00</temp>
<bpm>0</bpm>
<rpm>0.00</rpm>
</extensions>
</trkpt>
<trkpt lat="64.131416321" lon="-21.889770508">
<ele>41.050781</ele>
<time>2012-07-18T12:21:10Z</time>
<speed>2.080000</speed>
<extensions>
<speed>2.1</speed>
<temp>0.00</temp>
<bpm>0</bpm>
<rpm>0.00</rpm>
</extensions>
</trkpt>
<trkpt lat="64.131355286" lon="-21.889528275">
<ele>41.144531</ele>
<time>2012-07-18T12:21:15Z</time>
<speed>2.510000</speed>
<extensions>
<speed>2.5</speed>
<temp>0.00</temp>
<bpm>0</bpm>
<rpm>0.00</rpm>
</extensions>
</trkpt>
<trkpt lat="64.131332397" lon="-21.889268875">
<ele>41.559570</ele>
<time>2012-07-18T12:21:20Z</time>
<speed>2.190000</speed>
<extensions>
<speed>2.2</speed>
<temp>0.00</temp>
<bpm>0</bpm>
<rpm>0.00</rpm>
</extensions>
</trkpt>
<trkpt lat="64.131309509" lon="-21.889007568">
<ele>44.152344</ele>
<time>2012-07-18T12:21:25Z</time>
<speed>2.420000</speed>
<extensions>
<speed>2.4</speed>
<temp>0.00</temp>
<bpm>0</bpm>
<rpm>0.00</rpm>
</extensions>
</trkpt>
<trkpt lat="64.131294250" lon="-21.888677597">
<ele>49.425781</ele>
<time>2012-07-18T12:21:30Z</time>
<speed>3.130000</speed>
<extensions>
<speed>3.1</speed>
<temp>0.00</temp>
<bpm>0</bpm>
<rpm>0.00</rpm>
</extensions>
</trkpt>
<trkpt lat="64.131248474" lon="-21.888416290">
<ele>47.664063</ele>
<time>2012-07-18T12:21:35Z</time>
<speed>2.880000</speed>
<extensions>
<speed>2.9</speed>
<temp>0.00</temp>
<bpm>0</bpm>
<rpm>0.00</rpm>
</extensions>
</trkpt>
<trkpt lat="64.131210327" lon="-21.888175964">
<ele>46.495117</ele>
<time>2012-07-18T12:21:40Z</time>
<speed>2.670000</speed>
<extensions>
<speed>2.7</speed>
<temp>0.00</temp>
<bpm>0</bpm>
<rpm>0.00</rpm>
</extensions>
</trkpt>
<trkpt lat="64.131164551" lon="-21.887924194">
<ele>46.033203</ele>
<time>2012-07-18T12:21:45Z</time>
<speed>2.290000</speed>
<extensions>
<speed>2.3</speed>
<temp>0.00</temp>
<bpm>0</bpm>
<rpm>0.00</rpm>
</extensions>
</trkpt>
<trkpt lat="64.131118774" lon="-21.887701035">
<ele>47.013672</ele>
<time>2012-07-18T12:21:50Z</time>
<speed>2.490000</speed>
<extensions>
<speed>2.5</speed>
<temp>0.00</temp>
<bpm>0</bpm>
<rpm>0.00</rpm>
</extensions>
</trkpt>
<trkpt lat="64.131095886" lon="-21.887430191">
<ele>47.826172</ele>
<time>2012-07-18T12:21:55Z</time>
<speed>2.670000</speed>
<extensions>
<speed>2.7</speed>
<temp>0.00</temp>
<bpm>0</bpm>
<rpm>0.00</rpm>
</extensions>
</trkpt>
<trkpt lat="64.131042480" lon="-21.887178421">
<ele>48.114258</ele>
<time>2012-07-18T12:22:00Z</time>
<speed>2.650000</speed>
<extensions>
<speed>2.6</speed>
<temp>0.00</temp>
<bpm>0</bpm>
<rpm>0.00</rpm>
</extensions>
</trkpt>
<trkpt lat="64.130996704" lon="-21.886926651">
<ele>47.928711</ele>
<time>2012-07-18T12:22:05Z</time>
<speed>2.590000</speed>
<extensions>
<speed>2.6</speed>
<temp>0.00</temp>
<bpm>0</bpm>
<rpm>0.00</rpm>
</extensions>
</trkpt>
<trkpt lat="64.130958557" lon="-21.886676788">
<ele>48.555664</ele>
<time>2012-07-18T12:22:10Z</time>
<speed>2.470000</speed>
<extensions>
<speed>2.5</speed>
<temp>0.00</temp>
<bpm>0</bpm>
<rpm>0.00</rpm>
</extensions>
</trkpt>
<trkpt lat="64.130943298" lon="-21.886402130">
<ele>51.918945</ele>
<time>2012-07-18T12:22:15Z</time>
<speed>2.610000</speed>
<extensions>
<speed>2.6</speed>
<temp>0.00</temp>
<bpm>0</bpm>
<rpm>0.00</rpm>
</extensions>
</trkpt>
<trkpt lat="64.130897522" lon="-21.886171341">
<ele>51.471680</ele>
<time>2012-07-18T12:22:20Z</time>
<speed>2.680000</speed>
<extensions>
<speed>2.7</speed>
<temp>0.00</temp>
<bpm>0</bpm>
<rpm>0.00</rpm>
</extensions>
</trkpt>
<trkpt lat="64.130828857" lon="-21.885934830">
<ele>50.453125</ele>
<time>2012-07-18T12:22:25Z</time>
<speed>2.880000</speed>
<extensions>
<speed>2.9</speed>
<temp>0.00</temp>
<bpm>0</bpm>
<rpm>0.00</rpm>
</extensions>
</trkpt>
<trkpt lat="64.130775452" lon="-21.885641098">
<ele>50.864258</ele>
<time>2012-07-18T12:22:30Z</time>
<speed>2.860000</speed>
<extensions>
<speed>2.9</speed>
<temp>0.00</temp>
<bpm>0</bpm>
<rpm>0.00</rpm>
</extensions>
</trkpt>
<trkpt lat="64.130760193" lon="-21.885328293">
<ele>53.333984</ele>
<time>2012-07-18T12:22:35Z</time>
<speed>3.320000</speed>
<extensions>
<speed>3.3</speed>
<temp>0.00</temp>
<bpm>0</bpm>
<rpm>0.00</rpm>
</extensions>
</trkpt>
<trkpt lat="64.130722046" lon="-21.884996414">
<ele>54.337891</ele>
<time>2012-07-18T12:22:40Z</time>
<speed>3.200000</speed>
<extensions>
<speed>3.2</speed>
<temp>0.00</temp>
<bpm>0</bpm>
<rpm>0.00</rpm>
</extensions>
</trkpt>
<trkpt lat="64.130706787" lon="-21.884742737">
<ele>55.046875</ele>
<time>2012-07-18T12:22:45Z</time>
<speed>2.970000</speed>
<extensions>
<speed>3.0</speed>
<temp>0.00</temp>
<bpm>0</bpm>
<rpm>0.00</rpm>
</extensions>
</trkpt>
<trkpt lat="64.130752563" lon="-21.884460449">
<ele>54.489258</ele>
<time>2012-07-18T12:22:50Z</time>
<speed>2.780000</speed>
<extensions>
<speed>2.8</speed>
<temp>0.00</temp>
<bpm>0</bpm>
<rpm>0.00</rpm>
</extensions>
</trkpt>
<trkpt lat="64.130805969" lon="-21.884220123">
<ele>54.759766</ele>
<time>2012-07-18T12:22:55Z</time>
<speed>2.080000</speed>
<extensions>
<speed>2.1</speed>
<temp>0.00</temp>
<bpm>0</bpm>
<rpm>0.00</rpm>
</extensions>
</trkpt>
<trkpt lat="64.130783081" lon="-21.884168625">
<ele>53.592773</ele>
<time>2012-07-18T12:23:00Z</time>
<speed>0.040000</speed>
<extensions>
<speed>0.0</speed>
<temp>0.00</temp>
<bpm>0</bpm>
<rpm>0.00</rpm>
</extensions>
</trkpt>
<trkpt lat="64.130783081" lon="-21.884170532">
<ele>53.558594</ele>
<time>2012-07-18T12:23:05Z</time>
<extensions>
<speed>0.0</speed>
<temp>0.00</temp>
<bpm>0</bpm>
<rpm>0.00</rpm>
</extensions>
</trkpt>
<trkpt lat="64.130783081" lon="-21.884170532">
<ele>53.472656</ele>
<time>2012-07-18T12:23:10Z</time>
<speed>0.020000</speed>
<extensions>
<speed>0.0</speed>
<temp>0.00</temp>
<bpm>0</bpm>
<rpm>0.00</rpm>
</extensions>
</trkpt>
<trkpt lat="64.130783081" lon="-21.884170532">
<ele>53.423828</ele>
<time>2012-07-18T12:23:15Z</time>
<extensions>
<speed>0.0</speed>
<temp>0.00</temp>
<bpm>0</bpm>
<rpm>0.00</rpm>
</extensions>
</trkpt>
<trkpt lat="64.130783081" lon="-21.884172440">
<ele>53.382813</ele>
<time>2012-07-18T12:23:20Z</time>
<speed>0.010000</speed>
<extensions>
<speed>0.0</speed>
<temp>0.00</temp>
<bpm>0</bpm>
<rpm>0.00</rpm>
</extensions>
</trkpt>
<trkpt lat="64.130783081" lon="-21.884172440">
<ele>53.344727</ele>
<time>2012-07-18T12:23:25Z</time>
<speed>0.020000</speed>
<extensions>
<speed>0.0</speed>
<temp>0.00</temp>
<bpm>0</bpm>
<rpm>0.00</rpm>
</extensions>
</trkpt>
<trkpt lat="64.130783081" lon="-21.884170532">
<ele>53.332031</ele>
<time>2012-07-18T12:23:30Z</time>
<extensions>
<speed>0.0</speed>
<temp>0.00</temp>
<bpm>0</bpm>
<rpm>0.00</rpm>
</extensions>
</trkpt>
<trkpt lat="64.130783081" lon="-21.884172440">
<ele>53.287109</ele>
<time>2012-07-18T12:23:35Z</time>
<extensions>
<speed>0.0</speed>
<temp>0.00</temp>
<bpm>0</bpm>
<rpm>0.00</rpm>
</extensions>
</trkpt>
<trkpt lat="64.130783081" lon="-21.884172440">
<ele>53.270508</ele>
<time>2012-07-18T12:23:40Z</time>
<extensions>
<speed>0.0</speed>
<temp>0.00</temp>
<bpm>0</bpm>
<rpm>0.00</rpm>
</extensions>
</trkpt>
<trkpt lat="64.130783081" lon="-21.884172440">
<ele>53.251953</ele>
<time>2012-07-18T12:23:45Z</time>
<extensions>
<speed>0.0</speed>
<temp>0.00</temp>
<bpm>0</bpm>
<rpm>0.00</rpm>
</extensions>
</trkpt>
<trkpt lat="64.130783081" lon="-21.884172440">
<ele>53.238281</ele>
<time>2012-07-18T12:23:50Z</time>
<speed>0.010000</speed>
<extensions>
<speed>0.0</speed>
<temp>0.00</temp>
<bpm>0</bpm>
<rpm>0.00</rpm>
</extensions>
</trkpt>
<trkpt lat="64.130783081" lon="-21.884172440">
<ele>53.220703</ele>
<time>2012-07-18T12:23:55Z</time>
<extensions>
<speed>0.0</speed>
<temp>0.00</temp>
<bpm>0</bpm>
<rpm>0.00</rpm>
</extensions>
</trkpt>
<trkpt lat="64.130783081" lon="-21.884172440">
<ele>53.190430</ele>
<time>2012-07-18T12:24:00Z</time>
<extensions>
<speed>0.0</speed>
<temp>0.00</temp>
<bpm>0</bpm>
<rpm>0.00</rpm>
</extensions>
</trkpt>
<trkpt lat="64.130783081" lon="-21.884172440">
<ele>53.162109</ele>
<time>2012-07-18T12:24:05Z</time>
<extensions>
<speed>0.0</speed>
<temp>0.00</temp>
<bpm>0</bpm>
<rpm>0.00</rpm>
</extensions>
</trkpt>
<trkpt lat="64.130783081" lon="-21.884172440">
<ele>53.126953</ele>
<time>2012-07-18T12:24:10Z</time>
<extensions>
<speed>0.0</speed>
<temp>0.00</temp>
<bpm>0</bpm>
<rpm>0.00</rpm>
</extensions>
</trkpt>
<trkpt lat="64.130783081" lon="-21.884170532">
<ele>53.096680</ele>
<time>2012-07-18T12:24:15Z</time>
<extensions>
<speed>0.0</speed>
<temp>0.00</temp>
<bpm>0</bpm>
<rpm>0.00</rpm>
</extensions>
</trkpt>
<trkpt lat="64.130783081" lon="-21.884170532">
<ele>53.073242</ele>
<time>2012-07-18T12:24:20Z</time>
<extensions>
<speed>0.0</speed>
<temp>0.00</temp>
<bpm>0</bpm>
<rpm>0.00</rpm>
</extensions>
</trkpt>
<trkpt lat="64.130783081" lon="-21.884170532">
<ele>53.049805</ele>
<time>2012-07-18T12:24:25Z</time>
<extensions>
<speed>0.0</speed>
<temp>0.00</temp>
<bpm>0</bpm>
<rpm>0.00</rpm>
</extensions>
</trkpt>
<trkpt lat="64.130783081" lon="-21.884170532">
<ele>53.038086</ele>
<time>2012-07-18T12:24:30Z</time>
<extensions>
<speed>0.0</speed>
<temp>0.00</temp>
<bpm>0</bpm>
<rpm>0.00</rpm>
</extensions>
</trkpt>
<trkpt lat="64.130783081" lon="-21.884170532">
<ele>53.026367</ele>
<time>2012-07-18T12:24:35Z</time>
<extensions>
<speed>0.0</speed>
<temp>0.00</temp>
<bpm>0</bpm>
<rpm>0.00</rpm>
</extensions>
</trkpt>
<trkpt lat="64.130783081" lon="-21.884170532">
<ele>53.029297</ele>
<time>2012-07-18T12:24:40Z</time>
<speed>0.620000</speed>
<extensions>
<speed>0.6</speed>
<temp>0.00</temp>
<bpm>0</bpm>
<rpm>0.00</rpm>
</extensions>
</trkpt>
<trkpt lat="64.130752563" lon="-21.883998871">
<ele>52.204102</ele>
<time>2012-07-18T12:24:45Z</time>
<speed>2.070000</speed>
<extensions>
<speed>2.1</speed>
<temp>0.00</temp>
<bpm>0</bpm>
<rpm>0.00</rpm>
</extensions>
</trkpt>
<trkpt lat="64.130714417" lon="-21.883739471">
<ele>51.216797</ele>
<time>2012-07-18T12:24:50Z</time>
<speed>2.750000</speed>
<extensions>
<speed>2.7</speed>
<temp>0.00</temp>
<bpm>0</bpm>
<rpm>0.00</rpm>
</extensions>
</trkpt>
<trkpt lat="64.130676270" lon="-21.883508682">
<ele>50.366211</ele>
<time>2012-07-18T12:24:55Z</time>
<speed>2.270000</speed>
<extensions>
<speed>2.3</speed>
<temp>0.00</temp>
<bpm>0</bpm>
<rpm>0.00</rpm>
</extensions>
</trkpt>
<trkpt lat="64.130569458" lon="-21.883382797">
<ele>50.632813</ele>
<time>2012-07-18T12:25:00Z</time>
<speed>2.580000</speed>
<extensions>
<speed>2.6</speed>
<temp>0.00</temp>
<bpm>0</bpm>
<rpm>0.00</rpm>
</extensions>
</trkpt>
<trkpt lat="64.130462646" lon="-21.883224487">
<ele>50.650391</ele>
<time>2012-07-18T12:25:05Z</time>
<speed>3.330000</speed>
<extensions>
<speed>3.3</speed>
<temp>0.00</temp>
<bpm>0</bpm>
<rpm>0.00</rpm>
</extensions>
</trkpt>
<trkpt lat="64.130348206" lon="-21.882999420">
<ele>50.900391</ele>
<time>2012-07-18T12:25:10Z</time>
<speed>3.270000</speed>
<extensions>
<speed>3.3</speed>
<temp>0.00</temp>
<bpm>0</bpm>
<rpm>0.00</rpm>
</extensions>
</trkpt>
<trkpt lat="64.130241394" lon="-21.882787704">
<ele>50.934570</ele>
<time>2012-07-18T12:25:15Z</time>
<speed>3.140000</speed>
<extensions>
<speed>3.1</speed>
<temp>0.00</temp>
<bpm>0</bpm>
<rpm>0.00</rpm>
</extensions>
</trkpt>
<trkpt lat="64.130180359" lon="-21.882469177">
<ele>48.977539</ele>
<time>2012-07-18T12:25:20Z</time>
<speed>3.220000</speed>
<extensions>
<speed>3.2</speed>
<temp>0.00</temp>
<bpm>0</bpm>
<rpm>0.00</rpm>
</extensions>
</trkpt>
<trkpt lat="64.130157471" lon="-21.882122040">
<ele>48.136719</ele>
<time>2012-07-18T12:25:25Z</time>
<speed>3.720000</speed>
<extensions>
<speed>3.7</speed>
<temp>0.00</temp>
<bpm>0</bpm>
<rpm>0.00</rpm>
</extensions>
</trkpt>
<trkpt lat="64.130134583" lon="-21.881715775">
<ele>47.154297</ele>
<time>2012-07-18T12:25:30Z</time>
<speed>4.200000</speed>
<extensions>
<speed>4.2</speed>
<temp>0.00</temp>
<bpm>0</bpm>
<rpm>0.00</rpm>
</extensions>
</trkpt>
<trkpt lat="64.130081177" lon="-21.881275177">
<ele>46.341797</ele>
<time>2012-07-18T12:25:35Z</time>
<speed>4.460000</speed>
<extensions>
<speed>4.5</speed>
<temp>0.00</temp>
<bpm>0</bpm>
<rpm>0.00</rpm>
</extensions>
</trkpt>
<trkpt lat="64.130027771" lon="-21.880819321">
<ele>46.689453</ele>
<time>2012-07-18T12:25:40Z</time>
<speed>4.860000</speed>
<extensions>
<speed>4.9</speed>
<temp>0.00</temp>
<bpm>0</bpm>
<rpm>0.00</rpm>
</extensions>
</trkpt>
<trkpt lat="64.129951477" lon="-21.880336761">
<ele>46.602539</ele>
<time>2012-07-18T12:25:45Z</time>
<speed>5.190000</speed>
<extensions>
<speed>5.2</speed>
<temp>0.00</temp>
<bpm>0</bpm>
<rpm>0.00</rpm>
</extensions>
</trkpt>
<trkpt lat="64.129882813" lon="-21.879804611">
<ele>46.013672</ele>
<time>2012-07-18T12:25:50Z</time>
<speed>5.540000</speed>
<extensions>
<speed>5.5</speed>
<temp>0.00</temp>
<bpm>0</bpm>
<rpm>0.00</rpm>
</extensions>
</trkpt>
<trkpt lat="64.129798889" lon="-21.879213333">
<ele>44.501953</ele>
<time>2012-07-18T12:25:55Z</time>
<speed>6.680000</speed>
<extensions>
<speed>6.7</speed>
<temp>0.00</temp>
<bpm>0</bpm>
<rpm>0.00</rpm>
</extensions>
</trkpt>
<trkpt lat="64.129684448" lon="-21.878574371">
<ele>42.504883</ele>
<time>2012-07-18T12:26:00Z</time>
<speed>6.390000</speed>
<extensions>
<speed>6.4</speed>
<temp>0.00</temp>
<bpm>0</bpm>
<rpm>0.00</rpm>
</extensions>
</trkpt>
<trkpt lat="64.129585266" lon="-21.877838135">
<ele>41.411133</ele>
<time>2012-07-18T12:26:05Z</time>
<speed>8.530000</speed>
<extensions>
<speed>8.5</speed>
<temp>0.00</temp>
<bpm>0</bpm>
<rpm>0.00</rpm>
</extensions>
</trkpt>
<trkpt lat="64.129562378" lon="-21.876964569">
<ele>38.340820</ele>
<time>2012-07-18T12:26:10Z</time>
<speed>8.880000</speed>
<extensions>
<speed>8.9</speed>
<temp>0.00</temp>
<bpm>0</bpm>
<rpm>0.00</rpm>
</extensions>
</trkpt>
<trkpt lat="64.129394531" lon="-21.876316071">
<ele>35.168945</ele>
<time>2012-07-18T12:26:15Z</time>
<speed>5.380000</speed>
<extensions>
<speed>5.4</speed>
<temp>0.00</temp>
<bpm>0</bpm>
<rpm>0.00</rpm>
</extensions>
</trkpt>
<trkpt lat="64.129371643" lon="-21.876005173">
<ele>32.218750</ele>
<time>2012-07-18T12:26:20Z</time>
<speed>2.790000</speed>
<extensions>
<speed>2.8</speed>
<temp>0.00</temp>
<bpm>0</bpm>
<rpm>0.00</rpm>
</extensions>
</trkpt>
<trkpt lat="64.129417419" lon="-21.875852585">
<ele>32.331055</ele>
<time>2012-07-18T12:26:25Z</time>
<speed>0.120000</speed>
<extensions>
<speed>0.1</speed>
<temp>0.00</temp>
<bpm>0</bpm>
<rpm>0.00</rpm>
</extensions>
</trkpt>
<trkpt lat="64.129379272" lon="-21.875642776">
<ele>32.458008</ele>
<time>2012-07-18T12:26:30Z</time>
<speed>3.280000</speed>
<extensions>
<speed>3.3</speed>
<temp>0.00</temp>
<bpm>0</bpm>
<rpm>0.00</rpm>
</extensions>
</trkpt>
<trkpt lat="64.129341125" lon="-21.875305176">
<ele>32.806641</ele>
<time>2012-07-18T12:26:35Z</time>
<speed>3.310000</speed>
<extensions>
<speed>3.3</speed>
<temp>0.00</temp>
<bpm>0</bpm>
<rpm>0.00</rpm>
</extensions>
</trkpt>
<trkpt lat="64.129257202" lon="-21.875169754">
<ele>34.130859</ele>
<time>2012-07-18T12:26:40Z</time>
<speed>1.130000</speed>
<extensions>
<speed>1.1</speed>
<temp>0.00</temp>
<bpm>0</bpm>
<rpm>0.00</rpm>
</extensions>
</trkpt>
<trkpt lat="64.129241943" lon="-21.875183105">
<ele>35.390625</ele>
<time>2012-07-18T12:26:45Z</time>
<speed>0.120000</speed>
<extensions>
<speed>0.1</speed>
<temp>0.00</temp>
<bpm>0</bpm>
<rpm>0.00</rpm>
</extensions>
</trkpt>
<trkpt lat="64.129241943" lon="-21.875181198">
<ele>36.369141</ele>
<time>2012-07-18T12:26:50Z</time>
<speed>0.060000</speed>
<extensions>
<speed>0.1</speed>
<temp>0.00</temp>
<bpm>0</bpm>
<rpm>0.00</rpm>
</extensions>
</trkpt>
<trkpt lat="64.129241943" lon="-21.875181198">
<ele>36.493164</ele>
<time>2012-07-18T12:26:55Z</time>
<speed>0.010000</speed>
<extensions>
<speed>0.0</speed>
<temp>0.00</temp>
<bpm>0</bpm>
<rpm>0.00</rpm>
</extensions>
</trkpt>
<trkpt lat="64.129241943" lon="-21.875181198">
<ele>36.414063</ele>
<time>2012-07-18T12:27:00Z</time>
<speed>0.030000</speed>
<extensions>
<speed>0.0</speed>
<temp>0.00</temp>
<bpm>0</bpm>
<rpm>0.00</rpm>
</extensions>
</trkpt>
<trkpt lat="64.129241943" lon="-21.875181198">
<ele>36.384766</ele>
<time>2012-07-18T12:27:05Z</time>
<speed>0.010000</speed>
<extensions>
<speed>0.0</speed>
<temp>0.00</temp>
<bpm>0</bpm>
<rpm>0.00</rpm>
</extensions>
</trkpt>
<trkpt lat="64.129241943" lon="-21.875181198">
<ele>36.361328</ele>
<time>2012-07-18T12:27:10Z</time>
<speed>0.010000</speed>
<extensions>
<speed>0.0</speed>
<temp>0.00</temp>
<bpm>0</bpm>
<rpm>0.00</rpm>
</extensions>
</trkpt>
<trkpt lat="64.129241943" lon="-21.875173569">
<ele>36.399414</ele>
<time>2012-07-18T12:27:15Z</time>
<speed>0.020000</speed>
<extensions>
<speed>0.0</speed>
<temp>0.00</temp>
<bpm>0</bpm>
<rpm>0.00</rpm>
</extensions>
</trkpt>
<trkpt lat="64.129241943" lon="-21.875173569">
<ele>36.397461</ele>
<time>2012-07-18T12:27:20Z</time>
<extensions>
<speed>0.0</speed>
<temp>0.00</temp>
<bpm>0</bpm>
<rpm>0.00</rpm>
</extensions>
</trkpt>
<trkpt lat="64.129241943" lon="-21.875175476">
<ele>36.391602</ele>
<time>2012-07-18T12:27:25Z</time>
<extensions>
<speed>0.0</speed>
<temp>0.00</temp>
<bpm>0</bpm>
<rpm>0.00</rpm>
</extensions>
</trkpt>
<trkpt lat="64.129241943" lon="-21.875152588">
<ele>36.396484</ele>
<time>2012-07-18T12:27:30Z</time>
<speed>1.010000</speed>
<extensions>
<speed>1.0</speed>
<temp>0.00</temp>
<bpm>0</bpm>
<rpm>0.00</rpm>
</extensions>
</trkpt>
<trkpt lat="64.129219055" lon="-21.875106812">
<ele>35.672852</ele>
<time>2012-07-18T12:27:35Z</time>
<speed>0.110000</speed>
<extensions>
<speed>0.1</speed>
<temp>0.00</temp>
<bpm>0</bpm>
<rpm>0.00</rpm>
</extensions>
</trkpt>
<trkpt lat="64.129234314" lon="-21.875143051">
<ele>35.263672</ele>
<time>2012-07-18T12:27:40Z</time>
<speed>0.700000</speed>
<extensions>
<speed>0.7</speed>
<temp>0.00</temp>
<bpm>0</bpm>
<rpm>0.00</rpm>
</extensions>
</trkpt>
<trkpt lat="64.129234314" lon="-21.875139236">
<ele>35.455078</ele>
<time>2012-07-18T12:27:45Z</time>
<speed>0.010000</speed>
<extensions>
<speed>0.0</speed>
<temp>0.00</temp>
<bpm>0</bpm>
<rpm>0.00</rpm>
</extensions>
</trkpt>
<trkpt lat="64.129249573" lon="-21.875169754">
<ele>35.726563</ele>
<time>2012-07-18T12:27:50Z</time>
<speed>0.850000</speed>
<extensions>
<speed>0.8</speed>
<temp>0.00</temp>
<bpm>0</bpm>
<rpm>0.00</rpm>
</extensions>
</trkpt>
<trkpt lat="64.129325867" lon="-21.875272751">
<ele>34.984375</ele>
<time>2012-07-18T12:27:55Z</time>
<speed>2.330000</speed>
<extensions>
<speed>2.3</speed>
<temp>0.00</temp>
<bpm>0</bpm>
<rpm>0.00</rpm>
</extensions>
</trkpt>
<trkpt lat="64.129364014" lon="-21.875514984">
<ele>35.170898</ele>
<time>2012-07-18T12:28:00Z</time>
<speed>2.570000</speed>
<extensions>
<speed>2.6</speed>
<temp>0.00</temp>
<bpm>0</bpm>
<rpm>0.00</rpm>
</extensions>
</trkpt>
<trkpt lat="64.129402161" lon="-21.875757217">
<ele>39.815430</ele>
<time>2012-07-18T12:28:05Z</time>
<speed>2.380000</speed>
<extensions>
<speed>2.4</speed>
<temp>0.00</temp>
<bpm>0</bpm>
<rpm>0.00</rpm>
</extensions>
</trkpt>
<trkpt lat="64.129402161" lon="-21.875995636">
<ele>40.279297</ele>
<time>2012-07-18T12:28:10Z</time>
<speed>2.880000</speed>
<extensions>
<speed>2.9</speed>
<temp>0.00</temp>
<bpm>0</bpm>
<rpm>0.00</rpm>
</extensions>
</trkpt>
<trkpt lat="64.129295349" lon="-21.876115799">
<ele>41.096680</ele>
<time>2012-07-18T12:28:15Z</time>
<speed>2.180000</speed>
<extensions>
<speed>2.2</speed>
<temp>0.00</temp>
<bpm>0</bpm>
<rpm>0.00</rpm>
</extensions>
</trkpt>
<trkpt lat="64.129188538" lon="-21.876173019">
<ele>41.369141</ele>
<time>2012-07-18T12:28:20Z</time>
<speed>2.130000</speed>
<extensions>
<speed>2.1</speed>
<temp>0.00</temp>
<bpm>0</bpm>
<rpm>0.00</rpm>
</extensions>
</trkpt>
<trkpt lat="64.129135132" lon="-21.876207352">
<ele>41.313477</ele>
<time>2012-07-18T12:28:25Z</time>
<speed>1.020000</speed>
<extensions>
<speed>1.0</speed>
<temp>0.00</temp>
<bpm>0</bpm>
<rpm>0.00</rpm>
</extensions>
</trkpt>
<trkpt lat="64.129081726" lon="-21.876209259">
<ele>41.096680</ele>
<time>2012-07-18T12:28:30Z</time>
<speed>1.250000</speed>
<extensions>
<speed>1.3</speed>
<temp>0.00</temp>
<bpm>0</bpm>
<rpm>0.00</rpm>
</extensions>
</trkpt>
<trkpt lat="64.129020691" lon="-21.876276016">
<ele>42.494141</ele>
<time>2012-07-18T12:28:35Z</time>
<speed>1.290000</speed>
<extensions>
<speed>1.3</speed>
<temp>0.00</temp>
<bpm>0</bpm>
<rpm>0.00</rpm>
</extensions>
</trkpt>
<trkpt lat="64.128982544" lon="-21.876319885">
<ele>43.656250</ele>
<time>2012-07-18T12:28:40Z</time>
<speed>0.560000</speed>
<extensions>
<speed>0.6</speed>
<temp>0.00</temp>
<bpm>0</bpm>
<rpm>0.00</rpm>
</extensions>
</trkpt>
<trkpt lat="64.128952026" lon="-21.876333237">
<ele>43.245117</ele>
<time>2012-07-18T12:28:45Z</time>
<speed>0.230000</speed>
<extensions>
<speed>0.2</speed>
<temp>0.00</temp>
<bpm>0</bpm>
<rpm>0.00</rpm>
</extensions>
</trkpt>
<trkpt lat="64.128944397" lon="-21.876283646">
<ele>43.920898</ele>
<time>2012-07-18T12:28:50Z</time>
<speed>0.390000</speed>
<extensions>
<speed>0.4</speed>
<temp>0.00</temp>
<bpm>0</bpm>
<rpm>0.00</rpm>
</extensions>
</trkpt>
<trkpt lat="64.128921509" lon="-21.876268387">
<ele>44.977539</ele>
<time>2012-07-18T12:28:55Z</time>
<speed>0.690000</speed>
<extensions>
<speed>0.7</speed>
<temp>0.00</temp>
<bpm>0</bpm>
<rpm>0.00</rpm>
</extensions>
</trkpt>
<trkpt lat="64.128921509" lon="-21.876245499">
<ele>46.307617</ele>
<time>2012-07-18T12:29:00Z</time>
<speed>0.240000</speed>
<extensions>
<speed>0.2</speed>
<temp>0.00</temp>
<bpm>0</bpm>
<rpm>0.00</rpm>
</extensions>
</trkpt>
<trkpt lat="64.128921509" lon="-21.876220703">
<ele>47.229492</ele>
<time>2012-07-18T12:29:05Z</time>
<speed>0.350000</speed>
<extensions>
<speed>0.3</speed>
<temp>0.00</temp>
<bpm>0</bpm>
<rpm>0.00</rpm>
</extensions>
</trkpt>
<trkpt lat="64.128921509" lon="-21.876201630">
<ele>47.828125</ele>
<time>2012-07-18T12:29:10Z</time>
<speed>0.260000</speed>
<extensions>
<speed>0.3</speed>
<temp>0.00</temp>
<bpm>0</bpm>
<rpm>0.00</rpm>
</extensions>
</trkpt>
<trkpt lat="64.128929138" lon="-21.876178741">
<ele>48.629883</ele>
<time>2012-07-18T12:29:15Z</time>
<speed>0.280000</speed>
<extensions>
<speed>0.3</speed>
<temp>0.00</temp>
<bpm>0</bpm>
<rpm>0.00</rpm>
</extensions>
</trkpt>
<trkpt lat="64.128929138" lon="-21.876148224">
<ele>49.421875</ele>
<time>2012-07-18T12:29:20Z</time>
<speed>0.270000</speed>
<extensions>
<speed>0.3</speed>
<temp>0.00</temp>
<bpm>0</bpm>
<rpm>0.00</rpm>
</extensions>
</trkpt>
<trkpt lat="64.128929138" lon="-21.876121521">
<ele>50.154297</ele>
<time>2012-07-18T12:29:25Z</time>
<speed>0.230000</speed>
<extensions>
<speed>0.2</speed>
<temp>0.00</temp>
<bpm>0</bpm>
<rpm>0.00</rpm>
</extensions>
</trkpt>
<trkpt lat="64.128929138" lon="-21.876096725">
<ele>50.870117</ele>
<time>2012-07-18T12:29:30Z</time>
<speed>0.260000</speed>
<extensions>
<speed>0.3</speed>
<temp>0.00</temp>
<bpm>0</bpm>
<rpm>0.00</rpm>
</extensions>
</trkpt>
<trkpt lat="64.128929138" lon="-21.876070023">
<ele>51.609375</ele>
<time>2012-07-18T12:29:35Z</time>
<speed>0.270000</speed>
<extensions>
<speed>0.3</speed>
<temp>0.00</temp>
<bpm>0</bpm>
<rpm>0.00</rpm>
</extensions>
</trkpt>
<trkpt lat="64.128936768" lon="-21.876043320">
<ele>52.456055</ele>
<time>2012-07-18T12:29:40Z</time>
<speed>0.280000</speed>
<extensions>
<speed>0.3</speed>
<temp>0.00</temp>
<bpm>0</bpm>
<rpm>0.00</rpm>
</extensions>
</trkpt>
<trkpt lat="64.128936768" lon="-21.876001358">
<ele>53.566406</ele>
<time>2012-07-18T12:29:45Z</time>
<speed>0.300000</speed>
<extensions>
<speed>0.3</speed>
<temp>0.00</temp>
<bpm>0</bpm>
<rpm>0.00</rpm>
</extensions>
</trkpt>
<trkpt lat="64.128936768" lon="-21.875980377">
<ele>54.419922</ele>
<time>2012-07-18T12:29:50Z</time>
<speed>0.280000</speed>
<extensions>
<speed>0.3</speed>
<temp>0.00</temp>
<bpm>0</bpm>
<rpm>0.00</rpm>
</extensions>
</trkpt>
<trkpt lat="64.128936768" lon="-21.875963211">
<ele>55.162109</ele>
<time>2012-07-18T12:29:55Z</time>
<speed>0.260000</speed>
<extensions>
<speed>0.3</speed>
<temp>0.00</temp>
<bpm>0</bpm>
<rpm>0.00</rpm>
</extensions>
</trkpt>
<trkpt lat="64.128936768" lon="-21.875936508">
<ele>55.833008</ele>
<time>2012-07-18T12:30:00Z</time>
<speed>0.250000</speed>
<extensions>
<speed>0.2</speed>
<temp>0.00</temp>
<bpm>0</bpm>
<rpm>0.00</rpm>
</extensions>
</trkpt>
<trkpt lat="64.128936768" lon="-21.875911713">
<ele>56.510742</ele>
<time>2012-07-18T12:30:05Z</time>
<speed>0.240000</speed>
<extensions>
<speed>0.2</speed>
<temp>0.00</temp>
<bpm>0</bpm>
<rpm>0.00</rpm>
</extensions>
</trkpt>
<trkpt lat="64.128936768" lon="-21.875888824">
<ele>57.124023</ele>
<time>2012-07-18T12:30:10Z</time>
<speed>0.220000</speed>
<extensions>
<speed>0.2</speed>
<temp>0.00</temp>
<bpm>0</bpm>
<rpm>0.00</rpm>
</extensions>
</trkpt>
<trkpt lat="64.128936768" lon="-21.875867844">
<ele>57.645508</ele>
<time>2012-07-18T12:30:15Z</time>
<speed>0.180000</speed>
<extensions>
<speed>0.2</speed>
<temp>0.00</temp>
<bpm>0</bpm>
<rpm>0.00</rpm>
</extensions>
</trkpt>
<trkpt lat="64.128944397" lon="-21.875852585">
<ele>58.098633</ele>
<time>2012-07-18T12:30:20Z</time>
<speed>0.140000</speed>
<extensions>
<speed>0.1</speed>
<temp>0.00</temp>
<bpm>0</bpm>
<rpm>0.00</rpm>
</extensions>
</trkpt>
<trkpt lat="64.128944397" lon="-21.875835419">
<ele>58.512695</ele>
<time>2012-07-18T12:30:25Z</time>
<speed>0.120000</speed>
<extensions>
<speed>0.1</speed>
<temp>0.00</temp>
<bpm>0</bpm>
<rpm>0.00</rpm>
</extensions>
</trkpt>
<trkpt lat="64.128944397" lon="-21.875823975">
<ele>58.879883</ele>
<time>2012-07-18T12:30:30Z</time>
<speed>0.110000</speed>
<extensions>
<speed>0.1</speed>
<temp>0.00</temp>
<bpm>0</bpm>
<rpm>0.00</rpm>
</extensions>
</trkpt>
<trkpt lat="64.128944397" lon="-21.875812531">
<ele>59.184570</ele>
<time>2012-07-18T12:30:35Z</time>
<speed>0.110000</speed>
<extensions>
<speed>0.1</speed>
<temp>0.00</temp>
<bpm>0</bpm>
<rpm>0.00</rpm>
</extensions>
</trkpt>
<trkpt lat="64.128944397" lon="-21.875801086">
<ele>59.443359</ele>
<time>2012-07-18T12:30:40Z</time>
<speed>0.070000</speed>
<extensions>
<speed>0.1</speed>
<temp>0.00</temp>
<bpm>0</bpm>
<rpm>0.00</rpm>
</extensions>
</trkpt>
<trkpt lat="64.128944397" lon="-21.875793457">
<ele>59.666016</ele>
<time>2012-07-18T12:30:45Z</time>
<speed>0.030000</speed>
<extensions>
<speed>0.0</speed>
<temp>0.00</temp>
<bpm>0</bpm>
<rpm>0.00</rpm>
</extensions>
</trkpt>
<trkpt lat="64.128944397" lon="-21.875791550">
<ele>59.864258</ele>
<time>2012-07-18T12:30:50Z</time>
<speed>0.030000</speed>
<extensions>
<speed>0.0</speed>
<temp>0.00</temp>
<bpm>0</bpm>
<rpm>0.00</rpm>
</extensions>
</trkpt>
<trkpt lat="64.128944397" lon="-21.875791550">
<ele>60.021484</ele>
<time>2012-07-18T12:30:55Z</time>
<speed>0.050000</speed>
<extensions>
<speed>0.1</speed>
<temp>0.00</temp>
<bpm>0</bpm>
<rpm>0.00</rpm>
</extensions>
</trkpt>
<trkpt lat="64.128944397" lon="-21.875791550">
<ele>60.015625</ele>
<time>2012-07-18T12:31:00Z</time>
<speed>0.010000</speed>
<extensions>
<speed>0.0</speed>
<temp>0.00</temp>
<bpm>0</bpm>
<rpm>0.00</rpm>
</extensions>
</trkpt>
<trkpt lat="64.128944397" lon="-21.875791550">
<ele>60.031250</ele>
<time>2012-07-18T12:31:05Z</time>
<speed>0.020000</speed>
<extensions>
<speed>0.0</speed>
<temp>0.00</temp>
<bpm>0</bpm>
<rpm>0.00</rpm>
</extensions>
</trkpt>
<trkpt lat="64.128944397" lon="-21.875791550">
<ele>60.012695</ele>
<time>2012-07-18T12:31:10Z</time>
<speed>0.020000</speed>
<extensions>
<speed>0.0</speed>
<temp>0.00</temp>
<bpm>0</bpm>
<rpm>0.00</rpm>
</extensions>
</trkpt>
<trkpt lat="64.128944397" lon="-21.875791550">
<ele>60.036133</ele>
<time>2012-07-18T12:31:15Z</time>
<speed>0.020000</speed>
<extensions>
<speed>0.0</speed>
<temp>0.00</temp>
<bpm>0</bpm>
<rpm>0.00</rpm>
</extensions>
</trkpt>
<trkpt lat="64.128944397" lon="-21.875789642">
<ele>60.050781</ele>
<time>2012-07-18T12:31:20Z</time>
<extensions>
<speed>0.0</speed>
<temp>0.00</temp>
<bpm>0</bpm>
<rpm>0.00</rpm>
</extensions>
</trkpt>
<trkpt lat="64.128944397" lon="-21.875789642">
<ele>60.062500</ele>
<time>2012-07-18T12:31:25Z</time>
<speed>0.010000</speed>
<extensions>
<speed>0.0</speed>
<temp>0.00</temp>
<bpm>0</bpm>
<rpm>0.00</rpm>
</extensions>
</trkpt>
<trkpt lat="64.128944397" lon="-21.875789642">
<ele>60.075195</ele>
<time>2012-07-18T12:31:30Z</time>
<speed>0.010000</speed>
<extensions>
<speed>0.0</speed>
<temp>0.00</temp>
<bpm>0</bpm>
<rpm>0.00</rpm>
</extensions>
</trkpt>
<trkpt lat="64.128944397" lon="-21.875789642">
<ele>60.078125</ele>
<time>2012-07-18T12:31:35Z</time>
<speed>0.020000</speed>
<extensions>
<speed>0.0</speed>
<temp>0.00</temp>
<bpm>0</bpm>
<rpm>0.00</rpm>
</extensions>
</trkpt>
<trkpt lat="64.128944397" lon="-21.875789642">
<ele>60.074219</ele>
<time>2012-07-18T12:31:40Z</time>
<speed>0.010000</speed>
<extensions>
<speed>0.0</speed>
<temp>0.00</temp>
<bpm>0</bpm>
<rpm>0.00</rpm>
</extensions>
</trkpt>
<trkpt lat="64.128944397" lon="-21.875789642">
<ele>60.067383</ele>
<time>2012-07-18T12:31:45Z</time>
<speed>0.010000</speed>
<extensions>
<speed>0.0</speed>
<temp>0.00</temp>
<bpm>0</bpm>
<rpm>0.00</rpm>
</extensions>
</trkpt>
<trkpt lat="64.128944397" lon="-21.875787735">
<ele>60.084961</ele>
<time>2012-07-18T12:31:50Z</time>
<speed>0.010000</speed>
<extensions>
<speed>0.0</speed>
<temp>0.00</temp>
<bpm>0</bpm>
<rpm>0.00</rpm>
</extensions>
</trkpt>
<trkpt lat="64.128944397" lon="-21.875785828">
<ele>60.082031</ele>
<time>2012-07-18T12:31:55Z</time>
<speed>0.010000</speed>
<extensions>
<speed>0.0</speed>
<temp>0.00</temp>
<bpm>0</bpm>
<rpm>0.00</rpm>
</extensions>
</trkpt>
<trkpt lat="64.128944397" lon="-21.875787735">
<ele>59.981445</ele>
<time>2012-07-18T12:32:00Z</time>
<speed>0.010000</speed>
<extensions>
<speed>0.0</speed>
<temp>0.00</temp>
<bpm>0</bpm>
<rpm>0.00</rpm>
</extensions>
</trkpt>
<trkpt lat="64.128944397" lon="-21.875793457">
<ele>59.790039</ele>
<time>2012-07-18T12:32:05Z</time>
<speed>0.060000</speed>
<extensions>
<speed>0.1</speed>
<temp>0.00</temp>
<bpm>0</bpm>
<rpm>0.00</rpm>
</extensions>
</trkpt>
<trkpt lat="64.128944397" lon="-21.875801086">
<ele>59.547852</ele>
<time>2012-07-18T12:32:10Z</time>
<speed>0.080000</speed>
<extensions>
<speed>0.1</speed>
<temp>0.00</temp>
<bpm>0</bpm>
<rpm>0.00</rpm>
</extensions>
</trkpt>
<trkpt lat="64.128944397" lon="-21.875812531">
<ele>59.254883</ele>
<time>2012-07-18T12:32:15Z</time>
<speed>0.110000</speed>
<extensions>
<speed>0.1</speed>
<temp>0.00</temp>
<bpm>0</bpm>
<rpm>0.00</rpm>
</extensions>
</trkpt>
<trkpt lat="64.128944397" lon="-21.875822067">
<ele>59.044922</ele>
<time>2012-07-18T12:32:20Z</time>
<speed>0.100000</speed>
<extensions>
<speed>0.1</speed>
<temp>0.00</temp>
<bpm>0</bpm>
<rpm>0.00</rpm>
</extensions>
</trkpt>
<trkpt lat="64.128944397" lon="-21.875833511">
<ele>58.846680</ele>
<time>2012-07-18T12:32:25Z</time>
<speed>0.090000</speed>
<extensions>
<speed>0.1</speed>
<temp>0.00</temp>
<bpm>0</bpm>
<rpm>0.00</rpm>
</extensions>
</trkpt>
<trkpt lat="64.128944397" lon="-21.875846863">
<ele>58.641602</ele>
<time>2012-07-18T12:32:30Z</time>
<speed>0.140000</speed>
<extensions>
<speed>0.1</speed>
<temp>0.00</temp>
<bpm>0</bpm>
<rpm>0.00</rpm>
</extensions>
</trkpt>
<trkpt lat="64.128944397" lon="-21.875865936">
<ele>58.406250</ele>
<time>2012-07-18T12:32:35Z</time>
<speed>0.230000</speed>
<extensions>
<speed>0.2</speed>
<temp>0.00</temp>
<bpm>0</bpm>
<rpm>0.00</rpm>
</extensions>
</trkpt>
<trkpt lat="64.128952026" lon="-21.875892639">
<ele>58.109375</ele>
<time>2012-07-18T12:32:40Z</time>
<speed>0.290000</speed>
<extensions>
<speed>0.3</speed>
<temp>0.00</temp>
<bpm>0</bpm>
<rpm>0.00</rpm>
</extensions>
</trkpt>
<trkpt lat="64.128944397" lon="-21.875982285">
<ele>56.422852</ele>
<time>2012-07-18T12:32:45Z</time>
<speed>0.420000</speed>
<extensions>
<speed>0.4</speed>
<temp>0.00</temp>
<bpm>0</bpm>
<rpm>0.00</rpm>
</extensions>
</trkpt>
<trkpt lat="64.128936768" lon="-21.876094818">
<ele>54.394531</ele>
<time>2012-07-18T12:32:50Z</time>
<speed>0.500000</speed>
<extensions>
<speed>0.5</speed>
<temp>0.00</temp>
<bpm>0</bpm>
<rpm>0.00</rpm>
</extensions>
</trkpt>
<trkpt lat="64.128936768" lon="-21.876144409">
<ele>53.673828</ele>
<time>2012-07-18T12:32:55Z</time>
<speed>0.470000</speed>
<extensions>
<speed>0.5</speed>
<temp>0.00</temp>
<bpm>0</bpm>
<rpm>0.00</rpm>
</extensions>
</trkpt>
<trkpt lat="64.128936768" lon="-21.876216888">
<ele>53.104492</ele>
<time>2012-07-18T12:33:00Z</time>
<speed>0.580000</speed>
<extensions>
<speed>0.6</speed>
<temp>0.00</temp>
<bpm>0</bpm>
<rpm>0.00</rpm>
</extensions>
</trkpt>
<trkpt lat="64.128944397" lon="-21.876266479">
<ele>52.721680</ele>
<time>2012-07-18T12:33:05Z</time>
<speed>0.550000</speed>
<extensions>
<speed>0.6</speed>
<temp>0.00</temp>
<bpm>0</bpm>
<rpm>0.00</rpm>
</extensions>
</trkpt>
<trkpt lat="64.128936768" lon="-21.876293182">
<ele>51.561523</ele>
<time>2012-07-18T12:33:10Z</time>
<speed>0.450000</speed>
<extensions>
<speed>0.5</speed>
<temp>0.00</temp>
<bpm>0</bpm>
<rpm>0.00</rpm>
</extensions>
</trkpt>
<trkpt lat="64.128929138" lon="-21.876316071">
<ele>50.771484</ele>
<time>2012-07-18T12:33:15Z</time>
<speed>0.460000</speed>
<extensions>
<speed>0.5</speed>
<temp>0.00</temp>
<bpm>0</bpm>
<rpm>0.00</rpm>
</extensions>
</trkpt>
<trkpt lat="64.128936768" lon="-21.876365662">
<ele>50.137695</ele>
<time>2012-07-18T12:33:20Z</time>
<speed>0.500000</speed>
<extensions>
<speed>0.5</speed>
<temp>0.00</temp>
<bpm>0</bpm>
<rpm>0.00</rpm>
</extensions>
</trkpt>
<trkpt lat="64.128936768" lon="-21.876407623">
<ele>49.349609</ele>
<time>2012-07-18T12:33:25Z</time>
<speed>0.480000</speed>
<extensions>
<speed>0.5</speed>
<temp>0.00</temp>
<bpm>0</bpm>
<rpm>0.00</rpm>
</extensions>
</trkpt>
<trkpt lat="64.128921509" lon="-21.876430511">
<ele>47.894531</ele>
<time>2012-07-18T12:33:30Z</time>
<speed>0.370000</speed>
<extensions>
<speed>0.4</speed>
<temp>0.00</temp>
<bpm>0</bpm>
<rpm>0.00</rpm>
</extensions>
</trkpt>
<trkpt lat="64.128921509" lon="-21.876430511">
<ele>47.247070</ele>
<time>2012-07-18T12:33:35Z</time>
<speed>0.270000</speed>
<extensions>
<speed>0.3</speed>
<temp>0.00</temp>
<bpm>0</bpm>
<rpm>0.00</rpm>
</extensions>
</trkpt>
<trkpt lat="64.128913879" lon="-21.876451492">
<ele>46.431641</ele>
<time>2012-07-18T12:33:40Z</time>
<speed>0.180000</speed>
<extensions>
<speed>0.2</speed>
<temp>0.00</temp>
<bpm>0</bpm>
<rpm>0.00</rpm>
</extensions>
</trkpt>
<trkpt lat="64.128913879" lon="-21.876472473">
<ele>45.669922</ele>
<time>2012-07-18T12:33:45Z</time>
<speed>0.210000</speed>
<extensions>
<speed>0.2</speed>
<temp>0.00</temp>
<bpm>0</bpm>
<rpm>0.00</rpm>
</extensions>
</trkpt>
<trkpt lat="64.128913879" lon="-21.876485825">
<ele>44.908203</ele>
<time>2012-07-18T12:33:50Z</time>
<speed>0.060000</speed>
<extensions>
<speed>0.1</speed>
<temp>0.00</temp>
<bpm>0</bpm>
<rpm>0.00</rpm>
</extensions>
</trkpt>
<trkpt lat="64.128913879" lon="-21.876487732">
<ele>44.190430</ele>
<time>2012-07-18T12:33:55Z</time>
<speed>0.010000</speed>
<extensions>
<speed>0.0</speed>
<temp>0.00</temp>
<bpm>0</bpm>
<rpm>0.00</rpm>
</extensions>
</trkpt>
<trkpt lat="64.128913879" lon="-21.876491547">
<ele>43.495117</ele>
<time>2012-07-18T12:34:00Z</time>
<speed>0.080000</speed>
<extensions>
<speed>0.1</speed>
<temp>0.00</temp>
<bpm>0</bpm>
<rpm>0.00</rpm>
</extensions>
</trkpt>
<trkpt lat="64.128906250" lon="-21.876495361">
<ele>42.804688</ele>
<time>2012-07-18T12:34:05Z</time>
<speed>0.090000</speed>
<extensions>
<speed>0.1</speed>
<temp>0.00</temp>
<bpm>0</bpm>
<rpm>0.00</rpm>
</extensions>
</trkpt>
<trkpt lat="64.128906250" lon="-21.876495361">
<ele>42.135742</ele>
<time>2012-07-18T12:34:10Z</time>
<speed>0.090000</speed>
<extensions>
<speed>0.1</speed>
<temp>0.00</temp>
<bpm>0</bpm>
<rpm>0.00</rpm>
</extensions>
</trkpt>
<trkpt lat="64.128906250" lon="-21.876499176">
<ele>41.512695</ele>
<time>2012-07-18T12:34:15Z</time>
<speed>0.040000</speed>
<extensions>
<speed>0.0</speed>
<temp>0.00</temp>
<bpm>0</bpm>
<rpm>0.00</rpm>
</extensions>
</trkpt>
<trkpt lat="64.128906250" lon="-21.876502991">
<ele>40.906250</ele>
<time>2012-07-18T12:34:20Z</time>
<speed>0.060000</speed>
<extensions>
<speed>0.1</speed>
<temp>0.00</temp>
<bpm>0</bpm>
<rpm>0.00</rpm>
</extensions>
</trkpt>
<trkpt lat="64.128906250" lon="-21.876510620">
<ele>40.356445</ele>
<time>2012-07-18T12:34:25Z</time>
<speed>0.110000</speed>
<extensions>
<speed>0.1</speed>
<temp>0.00</temp>
<bpm>0</bpm>
<rpm>0.00</rpm>
</extensions>
</trkpt>
<trkpt lat="64.128906250" lon="-21.876522064">
<ele>39.884766</ele>
<time>2012-07-18T12:34:30Z</time>
<speed>0.090000</speed>
<extensions>
<speed>0.1</speed>
<temp>0.00</temp>
<bpm>0</bpm>
<rpm>0.00</rpm>
</extensions>
</trkpt>
<trkpt lat="64.128898621" lon="-21.876529694">
<ele>39.449219</ele>
<time>2012-07-18T12:34:35Z</time>
<speed>0.070000</speed>
<extensions>
<speed>0.1</speed>
<temp>0.00</temp>
<bpm>0</bpm>
<rpm>0.00</rpm>
</extensions>
</trkpt>
<trkpt lat="64.128898621" lon="-21.876527786">
<ele>39.044922</ele>
<time>2012-07-18T12:34:40Z</time>
<speed>0.070000</speed>
<extensions>
<speed>0.1</speed>
<temp>0.00</temp>
<bpm>0</bpm>
<rpm>0.00</rpm>
</extensions>
</trkpt>
<trkpt lat="64.128898621" lon="-21.876520157">
<ele>38.658203</ele>
<time>2012-07-18T12:34:45Z</time>
<speed>0.080000</speed>
<extensions>
<speed>0.1</speed>
<temp>0.00</temp>
<bpm>0</bpm>
<rpm>0.00</rpm>
</extensions>
</trkpt>
<trkpt lat="64.128890991" lon="-21.876514435">
<ele>38.274414</ele>
<time>2012-07-18T12:34:50Z</time>
<speed>0.130000</speed>
<extensions>
<speed>0.1</speed>
<temp>0.00</temp>
<bpm>0</bpm>
<rpm>0.00</rpm>
</extensions>
</trkpt>
<trkpt lat="64.128890991" lon="-21.876499176">
<ele>37.937500</ele>
<time>2012-07-18T12:34:55Z</time>
<speed>0.190000</speed>
<extensions>
<speed>0.2</speed>
<temp>0.00</temp>
<bpm>0</bpm>
<rpm>0.00</rpm>
</extensions>
</trkpt>
<trkpt lat="64.128883362" lon="-21.876430511">
<ele>38.148438</ele>
<time>2012-07-18T12:35:00Z</time>
<speed>0.370000</speed>
<extensions>
<speed>0.4</speed>
<temp>0.00</temp>
<bpm>0</bpm>
<rpm>0.00</rpm>
</extensions>
</trkpt>
<trkpt lat="64.128875732" lon="-21.876314163">
<ele>39.753906</ele>
<time>2012-07-18T12:35:05Z</time>
<speed>0.380000</speed>
<extensions>
<speed>0.4</speed>
<temp>0.00</temp>
<bpm>0</bpm>
<rpm>0.00</rpm>
</extensions>
</trkpt>
<trkpt lat="64.128875732" lon="-21.876203537">
<ele>41.590820</ele>
<time>2012-07-18T12:35:10Z</time>
<speed>0.390000</speed>
<extensions>
<speed>0.4</speed>
<temp>0.00</temp>
<bpm>0</bpm>
<rpm>0.00</rpm>
</extensions>
</trkpt>
<trkpt lat="64.128875732" lon="-21.876119614">
<ele>43.315430</ele>
<time>2012-07-18T12:35:15Z</time>
<speed>0.420000</speed>
<extensions>
<speed>0.4</speed>
<temp>0.00</temp>
<bpm>0</bpm>
<rpm>0.00</rpm>
</extensions>
</trkpt>
<trkpt lat="64.128875732" lon="-21.876117706">
<ele>43.973633</ele>
<time>2012-07-18T12:35:20Z</time>
<speed>0.310000</speed>
<extensions>
<speed>0.3</speed>
<temp>0.00</temp>
<bpm>0</bpm>
<rpm>0.00</rpm>
</extensions>
</trkpt>
<trkpt lat="64.128875732" lon="-21.876096725">
<ele>44.911133</ele>
<time>2012-07-18T12:35:25Z</time>
<speed>0.170000</speed>
<extensions>
<speed>0.2</speed>
<temp>0.00</temp>
<bpm>0</bpm>
<rpm>0.00</rpm>
</extensions>
</trkpt>
<trkpt lat="64.128868103" lon="-21.876094818">
<ele>45.008789</ele>
<time>2012-07-18T12:35:30Z</time>
<speed>0.110000</speed>
<extensions>
<speed>0.1</speed>
<temp>0.00</temp>
<bpm>0</bpm>
<rpm>0.00</rpm>
</extensions>
</trkpt>
<trkpt lat="64.128860474" lon="-21.876098633">
<ele>45.119141</ele>
<time>2012-07-18T12:35:35Z</time>
<speed>0.070000</speed>
<extensions>
<speed>0.1</speed>
<temp>0.00</temp>
<bpm>0</bpm>
<rpm>0.00</rpm>
</extensions>
</trkpt>
<trkpt lat="64.128860474" lon="-21.876100540">
<ele>45.248047</ele>
<time>2012-07-18T12:35:40Z</time>
<speed>0.120000</speed>
<extensions>
<speed>0.1</speed>
<temp>0.00</temp>
<bpm>0</bpm>
<rpm>0.00</rpm>
</extensions>
</trkpt>
<trkpt lat="64.128860474" lon="-21.876117706">
<ele>45.385742</ele>
<time>2012-07-18T12:35:45Z</time>
<speed>0.230000</speed>
<extensions>
<speed>0.2</speed>
<temp>0.00</temp>
<bpm>0</bpm>
<rpm>0.00</rpm>
</extensions>
</trkpt>
<trkpt lat="64.128860474" lon="-21.876134872">
<ele>45.547852</ele>
<time>2012-07-18T12:35:50Z</time>
<speed>0.150000</speed>
<extensions>
<speed>0.2</speed>
<temp>0.00</temp>
<bpm>0</bpm>
<rpm>0.00</rpm>
</extensions>
</trkpt>
<trkpt lat="64.128860474" lon="-21.876148224">
<ele>45.717773</ele>
<time>2012-07-18T12:35:55Z</time>
<speed>0.080000</speed>
<extensions>
<speed>0.1</speed>
<temp>0.00</temp>
<bpm>0</bpm>
<rpm>0.00</rpm>
</extensions>
</trkpt>
<trkpt lat="64.128852844" lon="-21.876142502">
<ele>45.900391</ele>
<time>2012-07-18T12:36:00Z</time>
<speed>0.180000</speed>
<extensions>
<speed>0.2</speed>
<temp>0.00</temp>
<bpm>0</bpm>
<rpm>0.00</rpm>
</extensions>
</trkpt>
<trkpt lat="64.128852844" lon="-21.876117706">
<ele>45.999023</ele>
<time>2012-07-18T12:36:05Z</time>
<speed>0.250000</speed>
<extensions>
<speed>0.2</speed>
<temp>0.00</temp>
<bpm>0</bpm>
<rpm>0.00</rpm>
</extensions>
</trkpt>
<trkpt lat="64.128845215" lon="-21.876079559">
<ele>45.478516</ele>
<time>2012-07-18T12:36:10Z</time>
<speed>0.320000</speed>
<extensions>
<speed>0.3</speed>
<temp>0.00</temp>
<bpm>0</bpm>
<rpm>0.00</rpm>
</extensions>
</trkpt>
<trkpt lat="64.128829956" lon="-21.876039505">
<ele>44.340820</ele>
<time>2012-07-18T12:36:15Z</time>
<speed>0.320000</speed>
<extensions>
<speed>0.3</speed>
<temp>0.00</temp>
<bpm>0</bpm>
<rpm>0.00</rpm>
</extensions>
</trkpt>
<trkpt lat="64.128829956" lon="-21.875953674">
<ele>44.999023</ele>
<time>2012-07-18T12:36:20Z</time>
<speed>0.280000</speed>
<extensions>
<speed>0.3</speed>
<temp>0.00</temp>
<bpm>0</bpm>
<rpm>0.00</rpm>
</extensions>
</trkpt>
<trkpt lat="64.128829956" lon="-21.875877380">
<ele>46.126953</ele>
<time>2012-07-18T12:36:25Z</time>
<speed>0.250000</speed>
<extensions>
<speed>0.2</speed>
<temp>0.00</temp>
<bpm>0</bpm>
<rpm>0.00</rpm>
</extensions>
</trkpt>
<trkpt lat="64.128829956" lon="-21.875879288">
<ele>46.394531</ele>
<time>2012-07-18T12:36:30Z</time>
<speed>0.060000</speed>
<extensions>
<speed>0.1</speed>
<temp>0.00</temp>
<bpm>0</bpm>
<rpm>0.00</rpm>
</extensions>
</trkpt>
<trkpt lat="64.128829956" lon="-21.875886917">
<ele>46.586914</ele>
<time>2012-07-18T12:36:35Z</time>
<speed>0.240000</speed>
<extensions>
<speed>0.2</speed>
<temp>0.00</temp>
<bpm>0</bpm>
<rpm>0.00</rpm>
</extensions>
</trkpt>
<trkpt lat="64.128845215" lon="-21.875934601">
<ele>47.554688</ele>
<time>2012-07-18T12:36:40Z</time>
<speed>0.310000</speed>
<extensions>
<speed>0.3</speed>
<temp>0.00</temp>
<bpm>0</bpm>
<rpm>0.00</rpm>
</extensions>
</trkpt>
<trkpt lat="64.128852844" lon="-21.875961304">
<ele>48.398438</ele>
<time>2012-07-18T12:36:45Z</time>
<speed>0.260000</speed>
<extensions>
<speed>0.3</speed>
<temp>0.00</temp>
<bpm>0</bpm>
<rpm>0.00</rpm>
</extensions>
</trkpt>
<trkpt lat="64.128860474" lon="-21.875976563">
<ele>48.783203</ele>
<time>2012-07-18T12:36:50Z</time>
<speed>0.120000</speed>
<extensions>
<speed>0.1</speed>
<temp>0.00</temp>
<bpm>0</bpm>
<rpm>0.00</rpm>
</extensions>
</trkpt>
<trkpt lat="64.128860474" lon="-21.875974655">
<ele>49.083984</ele>
<time>2012-07-18T12:36:55Z</time>
<speed>0.080000</speed>
<extensions>
<speed>0.1</speed>
<temp>0.00</temp>
<bpm>0</bpm>
<rpm>0.00</rpm>
</extensions>
</trkpt>
<trkpt lat="64.128868103" lon="-21.875974655">
<ele>49.173828</ele>
<time>2012-07-18T12:37:00Z</time>
<extensions>
<speed>0.0</speed>
<temp>0.00</temp>
<bpm>0</bpm>
<rpm>0.00</rpm>
</extensions>
</trkpt>
<trkpt lat="64.128868103" lon="-21.875970840">
<ele>49.251953</ele>
<time>2012-07-18T12:37:05Z</time>
<speed>0.080000</speed>
<extensions>
<speed>0.1</speed>
<temp>0.00</temp>
<bpm>0</bpm>
<rpm>0.00</rpm>
</extensions>
</trkpt>
<trkpt lat="64.128860474" lon="-21.875968933">
<ele>49.274414</ele>
<time>2012-07-18T12:37:10Z</time>
<extensions>
<speed>0.0</speed>
<temp>0.00</temp>
<bpm>0</bpm>
<rpm>0.00</rpm>
</extensions>
</trkpt>
<trkpt lat="64.128860474" lon="-21.875968933">
<ele>49.273438</ele>
<time>2012-07-18T12:37:15Z</time>
<speed>0.010000</speed>
<extensions>
<speed>0.0</speed>
<temp>0.00</temp>
<bpm>0</bpm>
<rpm>0.00</rpm>
</extensions>
</trkpt>
<trkpt lat="64.128860474" lon="-21.875968933">
<ele>49.269531</ele>
<time>2012-07-18T12:37:20Z</time>
<speed>0.010000</speed>
<extensions>
<speed>0.0</speed>
<temp>0.00</temp>
<bpm>0</bpm>
<rpm>0.00</rpm>
</extensions>
</trkpt>
<trkpt lat="64.128860474" lon="-21.875968933">
<ele>49.278320</ele>
<time>2012-07-18T12:37:25Z</time>
<speed>0.020000</speed>
<extensions>
<speed>0.0</speed>
<temp>0.00</temp>
<bpm>0</bpm>
<rpm>0.00</rpm>
</extensions>
</trkpt>
<trkpt lat="64.128860474" lon="-21.875967026">
<ele>49.294922</ele>
<time>2012-07-18T12:37:30Z</time>
<speed>0.030000</speed>
<extensions>
<speed>0.0</speed>
<temp>0.00</temp>
<bpm>0</bpm>
<rpm>0.00</rpm>
</extensions>
</trkpt>
<trkpt lat="64.128860474" lon="-21.875967026">
<ele>49.308594</ele>
<time>2012-07-18T12:37:35Z</time>
<extensions>
<speed>0.0</speed>
<temp>0.00</temp>
<bpm>0</bpm>
<rpm>0.00</rpm>
</extensions>
</trkpt>
<trkpt lat="64.128860474" lon="-21.875967026">
<ele>49.310547</ele>
<time>2012-07-18T12:37:40Z</time>
<speed>0.020000</speed>
<extensions>
<speed>0.0</speed>
<temp>0.00</temp>
<bpm>0</bpm>
<rpm>0.00</rpm>
</extensions>
</trkpt>
<trkpt lat="64.128860474" lon="-21.875965118">
<ele>49.316406</ele>
<time>2012-07-18T12:37:45Z</time>
<speed>0.010000</speed>
<extensions>
<speed>0.0</speed>
<temp>0.00</temp>
<bpm>0</bpm>
<rpm>0.00</rpm>
</extensions>
</trkpt>
<trkpt lat="64.128860474" lon="-21.875965118">
<ele>49.328125</ele>
<time>2012-07-18T12:37:50Z</time>
<speed>0.010000</speed>
<extensions>
<speed>0.0</speed>
<temp>0.00</temp>
<bpm>0</bpm>
<rpm>0.00</rpm>
</extensions>
</trkpt>
<trkpt lat="64.128860474" lon="-21.875967026">
<ele>49.350586</ele>
<time>2012-07-18T12:37:55Z</time>
<speed>0.030000</speed>
<extensions>
<speed>0.0</speed>
<temp>0.00</temp>
<bpm>0</bpm>
<rpm>0.00</rpm>
</extensions>
</trkpt>
<trkpt lat="64.128860474" lon="-21.875967026">
<ele>49.364258</ele>
<time>2012-07-18T12:38:00Z</time>
<speed>0.010000</speed>
<extensions>
<speed>0.0</speed>
<temp>0.00</temp>
<bpm>0</bpm>
<rpm>0.00</rpm>
</extensions>
</trkpt>
<trkpt lat="64.128860474" lon="-21.875968933">
<ele>49.381836</ele>
<time>2012-07-18T12:38:05Z</time>
<speed>0.020000</speed>
<extensions>
<speed>0.0</speed>
<temp>0.00</temp>
<bpm>0</bpm>
<rpm>0.00</rpm>
</extensions>
</trkpt>
<trkpt lat="64.128860474" lon="-21.875968933">
<ele>49.382813</ele>
<time>2012-07-18T12:38:10Z</time>
<speed>0.010000</speed>
<extensions>
<speed>0.0</speed>
<temp>0.00</temp>
<bpm>0</bpm>
<rpm>0.00</rpm>
</extensions>
</trkpt>
<trkpt lat="64.128860474" lon="-21.875970840">
<ele>49.378906</ele>
<time>2012-07-18T12:38:15Z</time>
<extensions>
<speed>0.0</speed>
<temp>0.00</temp>
<bpm>0</bpm>
<rpm>0.00</rpm>
</extensions>
</trkpt>
<trkpt lat="64.128860474" lon="-21.875970840">
<ele>49.355469</ele>
<time>2012-07-18T12:38:20Z</time>
<speed>0.030000</speed>
<extensions>
<speed>0.0</speed>
<temp>0.00</temp>
<bpm>0</bpm>
<rpm>0.00</rpm>
</extensions>
</trkpt>
<trkpt lat="64.128860474" lon="-21.875972748">
<ele>49.339844</ele>
<time>2012-07-18T12:38:25Z</time>
<speed>0.020000</speed>
<extensions>
<speed>0.0</speed>
<temp>0.00</temp>
<bpm>0</bpm>
<rpm>0.00</rpm>
</extensions>
</trkpt>
<trkpt lat="64.128860474" lon="-21.875976563">
<ele>49.324219</ele>
<time>2012-07-18T12:38:30Z</time>
<speed>0.070000</speed>
<extensions>
<speed>0.1</speed>
<temp>0.00</temp>
<bpm>0</bpm>
<rpm>0.00</rpm>
</extensions>
</trkpt>
<trkpt lat="64.128860474" lon="-21.875980377">
<ele>49.328125</ele>
<time>2012-07-18T12:38:35Z</time>
<speed>0.070000</speed>
<extensions>
<speed>0.1</speed>
<temp>0.00</temp>
<bpm>0</bpm>
<rpm>0.00</rpm>
</extensions>
</trkpt>
<trkpt lat="64.128860474" lon="-21.875982285">
<ele>49.331055</ele>
<time>2012-07-18T12:38:40Z</time>
<speed>0.010000</speed>
<extensions>
<speed>0.0</speed>
<temp>0.00</temp>
<bpm>0</bpm>
<rpm>0.00</rpm>
</extensions>
</trkpt>
<trkpt lat="64.128860474" lon="-21.875986099">
<ele>49.284180</ele>
<time>2012-07-18T12:38:45Z</time>
<speed>0.040000</speed>
<extensions>
<speed>0.0</speed>
<temp>0.00</temp>
<bpm>0</bpm>
<rpm>0.00</rpm>
</extensions>
</trkpt>
<trkpt lat="64.128860474" lon="-21.875986099">
<ele>49.278320</ele>
<time>2012-07-18T12:38:50Z</time>
<extensions>
<speed>0.0</speed>
<temp>0.00</temp>
<bpm>0</bpm>
<rpm>0.00</rpm>
</extensions>
</trkpt>
<trkpt lat="64.128860474" lon="-21.875988007">
<ele>49.309570</ele>
<time>2012-07-18T12:38:55Z</time>
<speed>0.010000</speed>
<extensions>
<speed>0.0</speed>
<temp>0.00</temp>
<bpm>0</bpm>
<rpm>0.00</rpm>
</extensions>
</trkpt>
<trkpt lat="64.128860474" lon="-21.875988007">
<ele>49.323242</ele>
<time>2012-07-18T12:39:00Z</time>
<speed>0.020000</speed>
<extensions>
<speed>0.0</speed>
<temp>0.00</temp>
<bpm>0</bpm>
<rpm>0.00</rpm>
</extensions>
</trkpt>
<trkpt lat="64.128868103" lon="-21.875988007">
<ele>49.347656</ele>
<time>2012-07-18T12:39:05Z</time>
<speed>0.020000</speed>
<extensions>
<speed>0.0</speed>
<temp>0.00</temp>
<bpm>0</bpm>
<rpm>0.00</rpm>
</extensions>
</trkpt>
<trkpt lat="64.128868103" lon="-21.875989914">
<ele>49.372070</ele>
<time>2012-07-18T12:39:10Z</time>
<speed>0.010000</speed>
<extensions>
<speed>0.0</speed>
<temp>0.00</temp>
<bpm>0</bpm>
<rpm>0.00</rpm>
</extensions>
</trkpt>
<trkpt lat="64.128868103" lon="-21.875991821">
<ele>49.386719</ele>
<time>2012-07-18T12:39:15Z</time>
<speed>0.050000</speed>
<extensions>
<speed>0.1</speed>
<temp>0.00</temp>
<bpm>0</bpm>
<rpm>0.00</rpm>
</extensions>
</trkpt>
<trkpt lat="64.128868103" lon="-21.875995636">
<ele>49.386719</ele>
<time>2012-07-18T12:39:20Z</time>
<speed>0.050000</speed>
<extensions>
<speed>0.1</speed>
<temp>0.00</temp>
<bpm>0</bpm>
<rpm>0.00</rpm>
</extensions>
</trkpt>
<trkpt lat="64.128868103" lon="-21.875997543">
<ele>49.372070</ele>
<time>2012-07-18T12:39:25Z</time>
<speed>0.010000</speed>
<extensions>
<speed>0.0</speed>
<temp>0.00</temp>
<bpm>0</bpm>
<rpm>0.00</rpm>
</extensions>
</trkpt>
<trkpt lat="64.128868103" lon="-21.875999451">
<ele>49.330078</ele>
<time>2012-07-18T12:39:30Z</time>
<speed>0.040000</speed>
<extensions>
<speed>0.0</speed>
<temp>0.00</temp>
<bpm>0</bpm>
<rpm>0.00</rpm>
</extensions>
</trkpt>
<trkpt lat="64.128868103" lon="-21.876001358">
<ele>49.299805</ele>
<time>2012-07-18T12:39:35Z</time>
<speed>0.010000</speed>
<extensions>
<speed>0.0</speed>
<temp>0.00</temp>
<bpm>0</bpm>
<rpm>0.00</rpm>
</extensions>
</trkpt>
<trkpt lat="64.128868103" lon="-21.876001358">
<ele>49.285156</ele>
<time>2012-07-18T12:39:40Z</time>
<speed>0.050000</speed>
<extensions>
<speed>0.1</speed>
<temp>0.00</temp>
<bpm>0</bpm>
<rpm>0.00</rpm>
</extensions>
</trkpt>
<trkpt lat="64.128868103" lon="-21.876005173">
<ele>49.279297</ele>
<time>2012-07-18T12:39:45Z</time>
<speed>0.040000</speed>
<extensions>
<speed>0.0</speed>
<temp>0.00</temp>
<bpm>0</bpm>
<rpm>0.00</rpm>
</extensions>
</trkpt>
<trkpt lat="64.128868103" lon="-21.876007080">
<ele>49.262695</ele>
<time>2012-07-18T12:39:50Z</time>
<speed>0.040000</speed>
<extensions>
<speed>0.0</speed>
<temp>0.00</temp>
<bpm>0</bpm>
<rpm>0.00</rpm>
</extensions>
</trkpt>
<trkpt lat="64.128868103" lon="-21.876008987">
<ele>49.275391</ele>
<time>2012-07-18T12:39:55Z</time>
<speed>0.020000</speed>
<extensions>
<speed>0.0</speed>
<temp>0.00</temp>
<bpm>0</bpm>
<rpm>0.00</rpm>
</extensions>
</trkpt>
<trkpt lat="64.128868103" lon="-21.876010895">
<ele>49.281250</ele>
<time>2012-07-18T12:40:00Z</time>
<speed>0.040000</speed>
<extensions>
<speed>0.0</speed>
<temp>0.00</temp>
<bpm>0</bpm>
<rpm>0.00</rpm>
</extensions>
</trkpt>
<trkpt lat="64.128868103" lon="-21.876012802">
<ele>49.288086</ele>
<time>2012-07-18T12:40:05Z</time>
<speed>0.010000</speed>
<extensions>
<speed>0.0</speed>
<temp>0.00</temp>
<bpm>0</bpm>
<rpm>0.00</rpm>
</extensions>
</trkpt>
<trkpt lat="64.128868103" lon="-21.876014709">
<ele>49.285156</ele>
<time>2012-07-18T12:40:10Z</time>
<speed>0.030000</speed>
<extensions>
<speed>0.0</speed>
<temp>0.00</temp>
<bpm>0</bpm>
<rpm>0.00</rpm>
</extensions>
</trkpt>
<trkpt lat="64.128868103" lon="-21.876018524">
<ele>49.282227</ele>
<time>2012-07-18T12:40:15Z</time>
<speed>0.030000</speed>
<extensions>
<speed>0.0</speed>
<temp>0.00</temp>
<bpm>0</bpm>
<rpm>0.00</rpm>
</extensions>
</trkpt>
<trkpt lat="64.128868103" lon="-21.876018524">
<ele>49.295898</ele>
<time>2012-07-18T12:40:20Z</time>
<speed>0.020000</speed>
<extensions>
<speed>0.0</speed>
<temp>0.00</temp>
<bpm>0</bpm>
<rpm>0.00</rpm>
</extensions>
</trkpt>
<trkpt lat="64.128868103" lon="-21.876020432">
<ele>49.319336</ele>
<time>2012-07-18T12:40:25Z</time>
<speed>0.030000</speed>
<extensions>
<speed>0.0</speed>
<temp>0.00</temp>
<bpm>0</bpm>
<rpm>0.00</rpm>
</extensions>
</trkpt>
<trkpt lat="64.128868103" lon="-21.876020432">
<ele>49.336914</ele>
<time>2012-07-18T12:40:30Z</time>
<speed>0.020000</speed>
<extensions>
<speed>0.0</speed>
<temp>0.00</temp>
<bpm>0</bpm>
<rpm>0.00</rpm>
</extensions>
</trkpt>
<trkpt lat="64.128868103" lon="-21.876024246">
<ele>49.363281</ele>
<time>2012-07-18T12:40:35Z</time>
<speed>0.090000</speed>
<extensions>
<speed>0.1</speed>
<temp>0.00</temp>
<bpm>0</bpm>
<rpm>0.00</rpm>
</extensions>
</trkpt>
<trkpt lat="64.128868103" lon="-21.876035690">
<ele>49.497070</ele>
<time>2012-07-18T12:40:40Z</time>
<speed>0.150000</speed>
<extensions>
<speed>0.2</speed>
<temp>0.00</temp>
<bpm>0</bpm>
<rpm>0.00</rpm>
</extensions>
</trkpt>
<trkpt lat="64.128875732" lon="-21.876056671">
<ele>49.702148</ele>
<time>2012-07-18T12:40:45Z</time>
<speed>0.270000</speed>
<extensions>
<speed>0.3</speed>
<temp>0.00</temp>
<bpm>0</bpm>
<rpm>0.00</rpm>
</extensions>
</trkpt>
<trkpt lat="64.128875732" lon="-21.876083374">
<ele>49.958008</ele>
<time>2012-07-18T12:40:50Z</time>
<speed>0.270000</speed>
<extensions>
<speed>0.3</speed>
<temp>0.00</temp>
<bpm>0</bpm>
<rpm>0.00</rpm>
</extensions>
</trkpt>
<trkpt lat="64.128883362" lon="-21.876163483">
<ele>50.041992</ele>
<time>2012-07-18T12:40:55Z</time>
<speed>0.350000</speed>
<extensions>
<speed>0.3</speed>
<temp>0.00</temp>
<bpm>0</bpm>
<rpm>0.00</rpm>
</extensions>
</trkpt>
<trkpt lat="64.128890991" lon="-21.876214981">
<ele>50.318359</ele>
<time>2012-07-18T12:41:00Z</time>
<speed>0.260000</speed>
<extensions>
<speed>0.3</speed>
<temp>0.00</temp>
<bpm>0</bpm>
<rpm>0.00</rpm>
</extensions>
</trkpt>
<trkpt lat="64.128890991" lon="-21.876234055">
<ele>50.772461</ele>
<time>2012-07-18T12:41:05Z</time>
<speed>0.250000</speed>
<extensions>
<speed>0.2</speed>
<temp>0.00</temp>
<bpm>0</bpm>
<rpm>0.00</rpm>
</extensions>
</trkpt>
<trkpt lat="64.128898621" lon="-21.876253128">
<ele>50.933594</ele>
<time>2012-07-18T12:41:10Z</time>
<speed>0.090000</speed>
<extensions>
<speed>0.1</speed>
<temp>0.00</temp>
<bpm>0</bpm>
<rpm>0.00</rpm>
</extensions>
</trkpt>
<trkpt lat="64.128898621" lon="-21.876249313">
<ele>50.887695</ele>
<time>2012-07-18T12:41:15Z</time>
<speed>0.120000</speed>
<extensions>
<speed>0.1</speed>
<temp>0.00</temp>
<bpm>0</bpm>
<rpm>0.00</rpm>
</extensions>
</trkpt>
<trkpt lat="64.128890991" lon="-21.876232147">
<ele>50.675781</ele>
<time>2012-07-18T12:41:20Z</time>
<speed>0.180000</speed>
<extensions>
<speed>0.2</speed>
<temp>0.00</temp>
<bpm>0</bpm>
<rpm>0.00</rpm>
</extensions>
</trkpt>
<trkpt lat="64.128890991" lon="-21.876214981">
<ele>50.354492</ele>
<time>2012-07-18T12:41:25Z</time>
<speed>0.210000</speed>
<extensions>
<speed>0.2</speed>
<temp>0.00</temp>
<bpm>0</bpm>
<rpm>0.00</rpm>
</extensions>
</trkpt>
<trkpt lat="64.128883362" lon="-21.876199722">
<ele>49.869141</ele>
<time>2012-07-18T12:41:30Z</time>
<speed>0.160000</speed>
<extensions>
<speed>0.2</speed>
<temp>0.00</temp>
<bpm>0</bpm>
<rpm>0.00</rpm>
</extensions>
</trkpt>
<trkpt lat="64.128875732" lon="-21.876186371">
<ele>49.306641</ele>
<time>2012-07-18T12:41:35Z</time>
<speed>0.160000</speed>
<extensions>
<speed>0.2</speed>
<temp>0.00</temp>
<bpm>0</bpm>
<rpm>0.00</rpm>
</extensions>
</trkpt>
<trkpt lat="64.128875732" lon="-21.876184464">
<ele>48.684570</ele>
<time>2012-07-18T12:41:40Z</time>
<speed>0.100000</speed>
<extensions>
<speed>0.1</speed>
<temp>0.00</temp>
<bpm>0</bpm>
<rpm>0.00</rpm>
</extensions>
</trkpt>
<trkpt lat="64.128868103" lon="-21.876182556">
<ele>48.018555</ele>
<time>2012-07-18T12:41:45Z</time>
<speed>0.100000</speed>
<extensions>
<speed>0.1</speed>
<temp>0.00</temp>
<bpm>0</bpm>
<rpm>0.00</rpm>
</extensions>
</trkpt>
<trkpt lat="64.128860474" lon="-21.876190186">
<ele>47.416992</ele>
<time>2012-07-18T12:41:50Z</time>
<speed>0.140000</speed>
<extensions>
<speed>0.1</speed>
<temp>0.00</temp>
<bpm>0</bpm>
<rpm>0.00</rpm>
</extensions>
</trkpt>
<trkpt lat="64.128860474" lon="-21.876218796">
<ele>47.012695</ele>
<time>2012-07-18T12:41:55Z</time>
<speed>0.400000</speed>
<extensions>
<speed>0.4</speed>
<temp>0.00</temp>
<bpm>0</bpm>
<rpm>0.00</rpm>
</extensions>
</trkpt>
<trkpt lat="64.128883362" lon="-21.876359940">
<ele>47.911133</ele>
<time>2012-07-18T12:42:00Z</time>
<speed>0.570000</speed>
<extensions>
<speed>0.6</speed>
<temp>0.00</temp>
<bpm>0</bpm>
<rpm>0.00</rpm>
</extensions>
</trkpt>
<trkpt lat="64.128898621" lon="-21.876434326">
<ele>48.950195</ele>
<time>2012-07-18T12:42:05Z</time>
<speed>0.260000</speed>
<extensions>
<speed>0.3</speed>
<temp>0.00</temp>
<bpm>0</bpm>
<rpm>0.00</rpm>
</extensions>
</trkpt>
<trkpt lat="64.128883362" lon="-21.876405716">
<ele>46.400391</ele>
<time>2012-07-18T12:42:10Z</time>
<speed>0.160000</speed>
<extensions>
<speed>0.2</speed>
<temp>0.00</temp>
<bpm>0</bpm>
<rpm>0.00</rpm>
</extensions>
</trkpt>
<trkpt lat="64.128883362" lon="-21.876417160">
<ele>46.359375</ele>
<time>2012-07-18T12:42:15Z</time>
<speed>0.030000</speed>
<extensions>
<speed>0.0</speed>
<temp>0.00</temp>
<bpm>0</bpm>
<rpm>0.00</rpm>
</extensions>
</trkpt>
<trkpt lat="64.128883362" lon="-21.876417160">
<ele>46.345703</ele>
<time>2012-07-18T12:42:20Z</time>
<speed>0.040000</speed>
<extensions>
<speed>0.0</speed>
<temp>0.00</temp>
<bpm>0</bpm>
<rpm>0.00</rpm>
</extensions>
</trkpt>
<trkpt lat="64.128883362" lon="-21.876413345">
<ele>46.358398</ele>
<time>2012-07-18T12:42:25Z</time>
<speed>0.020000</speed>
<extensions>
<speed>0.0</speed>
<temp>0.00</temp>
<bpm>0</bpm>
<rpm>0.00</rpm>
</extensions>
</trkpt>
<trkpt lat="64.128883362" lon="-21.876407623">
<ele>46.485352</ele>
<time>2012-07-18T12:42:30Z</time>
<speed>0.160000</speed>
<extensions>
<speed>0.2</speed>
<temp>0.00</temp>
<bpm>0</bpm>
<rpm>0.00</rpm>
</extensions>
</trkpt>
<trkpt lat="64.128890991" lon="-21.876398087">
<ele>46.474609</ele>
<time>2012-07-18T12:42:35Z</time>
<speed>0.110000</speed>
<extensions>
<speed>0.1</speed>
<temp>0.00</temp>
<bpm>0</bpm>
<rpm>0.00</rpm>
</extensions>
</trkpt>
<trkpt lat="64.128883362" lon="-21.876382828">
<ele>46.079102</ele>
<time>2012-07-18T12:42:40Z</time>
<speed>0.250000</speed>
<extensions>
<speed>0.2</speed>
<temp>0.00</temp>
<bpm>0</bpm>
<rpm>0.00</rpm>
</extensions>
</trkpt>
<trkpt lat="64.128875732" lon="-21.876375198">
<ele>45.634766</ele>
<time>2012-07-18T12:42:45Z</time>
<speed>0.020000</speed>
<extensions>
<speed>0.0</speed>
<temp>0.00</temp>
<bpm>0</bpm>
<rpm>0.00</rpm>
</extensions>
</trkpt>
<trkpt lat="64.128875732" lon="-21.876373291">
<ele>45.505859</ele>
<time>2012-07-18T12:42:50Z</time>
<speed>0.070000</speed>
<extensions>
<speed>0.1</speed>
<temp>0.00</temp>
<bpm>0</bpm>
<rpm>0.00</rpm>
</extensions>
</trkpt>
<trkpt lat="64.128875732" lon="-21.876373291">
<ele>45.342773</ele>
<time>2012-07-18T12:42:55Z</time>
<speed>0.010000</speed>
<extensions>
<speed>0.0</speed>
<temp>0.00</temp>
<bpm>0</bpm>
<rpm>0.00</rpm>
</extensions>
</trkpt>
<trkpt lat="64.128875732" lon="-21.876373291">
<ele>45.335938</ele>
<time>2012-07-18T12:43:00Z</time>
<speed>0.010000</speed>
<extensions>
<speed>0.0</speed>
<temp>0.00</temp>
<bpm>0</bpm>
<rpm>0.00</rpm>
</extensions>
</trkpt>
<trkpt lat="64.128875732" lon="-21.876371384">
<ele>45.324219</ele>
<time>2012-07-18T12:43:05Z</time>
<extensions>
<speed>0.0</speed>
<temp>0.00</temp>
<bpm>0</bpm>
<rpm>0.00</rpm>
</extensions>
</trkpt>
<trkpt lat="64.128875732" lon="-21.876371384">
<ele>45.310547</ele>
<time>2012-07-18T12:43:10Z</time>
<speed>0.010000</speed>
<extensions>
<speed>0.0</speed>
<temp>0.00</temp>
<bpm>0</bpm>
<rpm>0.00</rpm>
</extensions>
</trkpt>
<trkpt lat="64.128875732" lon="-21.876369476">
<ele>45.293945</ele>
<time>2012-07-18T12:43:15Z</time>
<speed>0.140000</speed>
<extensions>
<speed>0.1</speed>
<temp>0.00</temp>
<bpm>0</bpm>
<rpm>0.00</rpm>
</extensions>
</trkpt>
<trkpt lat="64.128875732" lon="-21.876367569">
<ele>45.302734</ele>
<time>2012-07-18T12:43:20Z</time>
<speed>1.180000</speed>
<extensions>
<speed>1.2</speed>
<temp>0.00</temp>
<bpm>0</bpm>
<rpm>0.00</rpm>
</extensions>
</trkpt>
<trkpt lat="64.128997803" lon="-21.876235962">
<ele>44.457031</ele>
<time>2012-07-18T12:43:25Z</time>
<speed>2.980000</speed>
<extensions>
<speed>3.0</speed>
<temp>0.00</temp>
<bpm>0</bpm>
<rpm>0.00</rpm>
</extensions>
</trkpt>
<trkpt lat="64.129142761" lon="-21.876163483">
<ele>43.323242</ele>
<time>2012-07-18T12:43:30Z</time>
<speed>2.650000</speed>
<extensions>
<speed>2.6</speed>
<temp>0.00</temp>
<bpm>0</bpm>
<rpm>0.00</rpm>
</extensions>
</trkpt>
<trkpt lat="64.129249573" lon="-21.876123428">
<ele>40.663086</ele>
<time>2012-07-18T12:43:35Z</time>
<speed>0.950000</speed>
<extensions>
<speed>1.0</speed>
<temp>0.00</temp>
<bpm>0</bpm>
<rpm>0.00</rpm>
</extensions>
</trkpt>
<trkpt lat="64.129325867" lon="-21.876056671">
<ele>39.269531</ele>
<time>2012-07-18T12:43:40Z</time>
<speed>1.650000</speed>
<extensions>
<speed>1.7</speed>
<temp>0.00</temp>
<bpm>0</bpm>
<rpm>0.00</rpm>
</extensions>
</trkpt>
<trkpt lat="64.129379272" lon="-21.875923157">
<ele>36.646484</ele>
<time>2012-07-18T12:43:45Z</time>
<speed>1.930000</speed>
<extensions>
<speed>1.9</speed>
<temp>0.00</temp>
<bpm>0</bpm>
<rpm>0.00</rpm>
</extensions>
</trkpt>
<trkpt lat="64.129379272" lon="-21.875846863">
<ele>35.065430</ele>
<time>2012-07-18T12:43:50Z</time>
<speed>0.110000</speed>
<extensions>
<speed>0.1</speed>
<temp>0.00</temp>
<bpm>0</bpm>
<rpm>0.00</rpm>
</extensions>
</trkpt>
<trkpt lat="64.129379272" lon="-21.875844955">
<ele>34.959961</ele>
<time>2012-07-18T12:43:55Z</time>
<speed>0.200000</speed>
<extensions>
<speed>0.2</speed>
<temp>0.00</temp>
<bpm>0</bpm>
<rpm>0.00</rpm>
</extensions>
</trkpt>
<trkpt lat="64.129379272" lon="-21.875841141">
<ele>35.019531</ele>
<time>2012-07-18T12:44:00Z</time>
<speed>0.050000</speed>
<extensions>
<speed>0.1</speed>
<temp>0.00</temp>
<bpm>0</bpm>
<rpm>0.00</rpm>
</extensions>
</trkpt>
<trkpt lat="64.129379272" lon="-21.875841141">
<ele>35.053711</ele>
<time>2012-07-18T12:44:05Z</time>
<extensions>
<speed>0.0</speed>
<temp>0.00</temp>
<bpm>0</bpm>
<rpm>0.00</rpm>
</extensions>
</trkpt>
<trkpt lat="64.129379272" lon="-21.875841141">
<ele>35.079102</ele>
<time>2012-07-18T12:44:10Z</time>
<speed>0.020000</speed>
<extensions>
<speed>0.0</speed>
<temp>0.00</temp>
<bpm>0</bpm>
<rpm>0.00</rpm>
</extensions>
</trkpt>
<trkpt lat="64.129379272" lon="-21.875841141">
<ele>35.080078</ele>
<time>2012-07-18T12:44:15Z</time>
<extensions>
<speed>0.0</speed>
<temp>0.00</temp>
<bpm>0</bpm>
<rpm>0.00</rpm>
</extensions>
</trkpt>
<trkpt lat="64.129379272" lon="-21.875841141">
<ele>35.083984</ele>
<time>2012-07-18T12:44:20Z</time>
<extensions>
<speed>0.0</speed>
<temp>0.00</temp>
<bpm>0</bpm>
<rpm>0.00</rpm>
</extensions>
</trkpt>
<trkpt lat="64.129379272" lon="-21.875843048">
<ele>35.090820</ele>
<time>2012-07-18T12:44:25Z</time>
<speed>0.010000</speed>
<extensions>
<speed>0.0</speed>
<temp>0.00</temp>
<bpm>0</bpm>
<rpm>0.00</rpm>
</extensions>
</trkpt>
<trkpt lat="64.129379272" lon="-21.875843048">
<ele>35.095703</ele>
<time>2012-07-18T12:44:30Z</time>
<extensions>
<speed>0.0</speed>
<temp>0.00</temp>
<bpm>0</bpm>
<rpm>0.00</rpm>
</extensions>
</trkpt>
<trkpt lat="64.129379272" lon="-21.875843048">
<ele>35.092773</ele>
<time>2012-07-18T12:44:35Z</time>
<speed>0.020000</speed>
<extensions>
<speed>0.0</speed>
<temp>0.00</temp>
<bpm>0</bpm>
<rpm>0.00</rpm>
</extensions>
</trkpt>
<trkpt lat="64.129348755" lon="-21.875694275">
<ele>34.537109</ele>
<time>2012-07-18T12:44:40Z</time>
<speed>3.010000</speed>
<extensions>
<speed>3.0</speed>
<temp>0.00</temp>
<bpm>0</bpm>
<rpm>0.00</rpm>
</extensions>
</trkpt>
<trkpt lat="64.129295349" lon="-21.875350952">
<ele>33.939453</ele>
<time>2012-07-18T12:44:45Z</time>
<speed>3.890000</speed>
<extensions>
<speed>3.9</speed>
<temp>0.00</temp>
<bpm>0</bpm>
<rpm>0.00</rpm>
</extensions>
</trkpt>
<trkpt lat="64.129196167" lon="-21.875057220">
<ele>34.018555</ele>
<time>2012-07-18T12:44:50Z</time>
<speed>3.460000</speed>
<extensions>
<speed>3.5</speed>
<temp>0.00</temp>
<bpm>0</bpm>
<rpm>0.00</rpm>
</extensions>
</trkpt>
<trkpt lat="64.129150391" lon="-21.874671936">
<ele>33.075195</ele>
<time>2012-07-18T12:44:55Z</time>
<speed>4.270000</speed>
<extensions>
<speed>4.3</speed>
<temp>0.00</temp>
<bpm>0</bpm>
<rpm>0.00</rpm>
</extensions>
</trkpt>
<trkpt lat="64.129081726" lon="-21.874240875">
<ele>32.475586</ele>
<time>2012-07-18T12:45:00Z</time>
<speed>4.670000</speed>
<extensions>
<speed>4.7</speed>
<temp>0.00</temp>
<bpm>0</bpm>
<rpm>0.00</rpm>
</extensions>
</trkpt>
<trkpt lat="64.128990173" lon="-21.873783112">
<ele>31.176758</ele>
<time>2012-07-18T12:45:05Z</time>
<speed>4.920000</speed>
<extensions>
<speed>4.9</speed>
<temp>0.00</temp>
<bpm>0</bpm>
<rpm>0.00</rpm>
</extensions>
</trkpt>
<trkpt lat="64.128906250" lon="-21.873302460">
<ele>30.411133</ele>
<time>2012-07-18T12:45:10Z</time>
<speed>5.070000</speed>
<extensions>
<speed>5.1</speed>
<temp>0.00</temp>
<bpm>0</bpm>
<rpm>0.00</rpm>
</extensions>
</trkpt>
<trkpt lat="64.128807068" lon="-21.872808456">
<ele>28.999023</ele>
<time>2012-07-18T12:45:15Z</time>
<speed>5.190000</speed>
<extensions>
<speed>5.2</speed>
<temp>0.00</temp>
<bpm>0</bpm>
<rpm>0.00</rpm>
</extensions>
</trkpt>
<trkpt lat="64.128700256" lon="-21.872344971">
<ele>27.413086</ele>
<time>2012-07-18T12:45:20Z</time>
<speed>5.130000</speed>
<extensions>
<speed>5.1</speed>
<temp>0.00</temp>
<bpm>0</bpm>
<rpm>0.00</rpm>
</extensions>
</trkpt>
<trkpt lat="64.128608704" lon="-21.871934891">
<ele>27.103516</ele>
<time>2012-07-18T12:45:25Z</time>
<speed>4.490000</speed>
<extensions>
<speed>4.5</speed>
<temp>0.00</temp>
<bpm>0</bpm>
<rpm>0.00</rpm>
</extensions>
</trkpt>
<trkpt lat="64.128585815" lon="-21.871425629">
<ele>26.199707</ele>
<time>2012-07-18T12:45:30Z</time>
<speed>5.340000</speed>
<extensions>
<speed>5.3</speed>
<temp>0.00</temp>
<bpm>0</bpm>
<rpm>0.00</rpm>
</extensions>
</trkpt>
<trkpt lat="64.128501892" lon="-21.870916367">
<ele>25.878418</ele>
<time>2012-07-18T12:45:35Z</time>
<speed>5.330000</speed>
<extensions>
<speed>5.3</speed>
<temp>0.00</temp>
<bpm>0</bpm>
<rpm>0.00</rpm>
</extensions>
</trkpt>
<trkpt lat="64.128440857" lon="-21.870447159">
<ele>25.093750</ele>
<time>2012-07-18T12:45:40Z</time>
<speed>3.150000</speed>
<extensions>
<speed>3.2</speed>
<temp>0.00</temp>
<bpm>0</bpm>
<rpm>0.00</rpm>
</extensions>
</trkpt>
<trkpt lat="64.128448486" lon="-21.870201111">
<ele>24.801270</ele>
<time>2012-07-18T12:45:45Z</time>
<speed>1.910000</speed>
<extensions>
<speed>1.9</speed>
<temp>0.00</temp>
<bpm>0</bpm>
<rpm>0.00</rpm>
</extensions>
</trkpt>
<trkpt lat="64.128448486" lon="-21.869985580">
<ele>24.158691</ele>
<time>2012-07-18T12:45:50Z</time>
<speed>2.560000</speed>
<extensions>
<speed>2.6</speed>
<temp>0.00</temp>
<bpm>0</bpm>
<rpm>0.00</rpm>
</extensions>
</trkpt>
<trkpt lat="64.128402710" lon="-21.869670868">
<ele>24.183594</ele>
<time>2012-07-18T12:45:55Z</time>
<speed>3.870000</speed>
<extensions>
<speed>3.9</speed>
<temp>0.00</temp>
<bpm>0</bpm>
<rpm>0.00</rpm>
</extensions>
</trkpt>
<trkpt lat="64.128334045" lon="-21.869245529">
<ele>23.542969</ele>
<time>2012-07-18T12:46:00Z</time>
<speed>4.620000</speed>
<extensions>
<speed>4.6</speed>
<temp>0.00</temp>
<bpm>0</bpm>
<rpm>0.00</rpm>
</extensions>
</trkpt>
<trkpt lat="64.128250122" lon="-21.868780136">
<ele>24.406738</ele>
<time>2012-07-18T12:46:05Z</time>
<speed>5.110000</speed>
<extensions>
<speed>5.1</speed>
<temp>0.00</temp>
<bpm>0</bpm>
<rpm>0.00</rpm>
</extensions>
</trkpt>
<trkpt lat="64.128158569" lon="-21.868291855">
<ele>24.451660</ele>
<time>2012-07-18T12:46:10Z</time>
<speed>5.210000</speed>
<extensions>
<speed>5.2</speed>
<temp>0.00</temp>
<bpm>0</bpm>
<rpm>0.00</rpm>
</extensions>
</trkpt>
<trkpt lat="64.128089905" lon="-21.867761612">
<ele>25.710938</ele>
<time>2012-07-18T12:46:15Z</time>
<speed>5.400000</speed>
<extensions>
<speed>5.4</speed>
<temp>0.00</temp>
<bpm>0</bpm>
<rpm>0.00</rpm>
</extensions>
</trkpt>
<trkpt lat="64.128005981" lon="-21.867227554">
<ele>26.180176</ele>
<time>2012-07-18T12:46:20Z</time>
<speed>5.590000</speed>
<extensions>
<speed>5.6</speed>
<temp>0.00</temp>
<bpm>0</bpm>
<rpm>0.00</rpm>
</extensions>
</trkpt>
<trkpt lat="64.127914429" lon="-21.866685867">
<ele>26.367188</ele>
<time>2012-07-18T12:46:25Z</time>
<speed>5.560000</speed>
<extensions>
<speed>5.6</speed>
<temp>0.00</temp>
<bpm>0</bpm>
<rpm>0.00</rpm>
</extensions>
</trkpt>
<trkpt lat="64.127822876" lon="-21.866132736">
<ele>26.501465</ele>
<time>2012-07-18T12:46:30Z</time>
<speed>5.920000</speed>
<extensions>
<speed>5.9</speed>
<temp>0.00</temp>
<bpm>0</bpm>
<rpm>0.00</rpm>
</extensions>
</trkpt>
<trkpt lat="64.127738953" lon="-21.865600586">
<ele>26.481445</ele>
<time>2012-07-18T12:46:35Z</time>
<speed>5.260000</speed>
<extensions>
<speed>5.3</speed>
<temp>0.00</temp>
<bpm>0</bpm>
<rpm>0.00</rpm>
</extensions>
</trkpt>
<trkpt lat="64.127647400" lon="-21.865129471">
<ele>26.198730</ele>
<time>2012-07-18T12:46:40Z</time>
<speed>5.410000</speed>
<extensions>
<speed>5.4</speed>
<temp>0.00</temp>
<bpm>0</bpm>
<rpm>0.00</rpm>
</extensions>
</trkpt>
<trkpt lat="64.127563477" lon="-21.864574432">
<ele>26.142090</ele>
<time>2012-07-18T12:46:45Z</time>
<speed>5.690000</speed>
<extensions>
<speed>5.7</speed>
<temp>0.00</temp>
<bpm>0</bpm>
<rpm>0.00</rpm>
</extensions>
</trkpt>
<trkpt lat="64.127471924" lon="-21.864038467">
<ele>27.812012</ele>
<time>2012-07-18T12:46:50Z</time>
<speed>5.550000</speed>
<extensions>
<speed>5.5</speed>
<temp>0.00</temp>
<bpm>0</bpm>
<rpm>0.00</rpm>
</extensions>
</trkpt>
<trkpt lat="64.127380371" lon="-21.863489151">
<ele>27.959473</ele>
<time>2012-07-18T12:46:55Z</time>
<speed>5.760000</speed>
<extensions>
<speed>5.8</speed>
<temp>0.00</temp>
<bpm>0</bpm>
<rpm>0.00</rpm>
</extensions>
</trkpt>
<trkpt lat="64.127250671" lon="-21.862970352">
<ele>26.840820</ele>
<time>2012-07-18T12:47:00Z</time>
<speed>6.090000</speed>
<extensions>
<speed>6.1</speed>
<temp>0.00</temp>
<bpm>0</bpm>
<rpm>0.00</rpm>
</extensions>
</trkpt>
<trkpt lat="64.127159119" lon="-21.862371445">
<ele>26.675293</ele>
<time>2012-07-18T12:47:05Z</time>
<speed>6.080000</speed>
<extensions>
<speed>6.1</speed>
<temp>0.00</temp>
<bpm>0</bpm>
<rpm>0.00</rpm>
</extensions>
</trkpt>
<trkpt lat="64.127059937" lon="-21.861789703">
<ele>27.178223</ele>
<time>2012-07-18T12:47:10Z</time>
<speed>6.100000</speed>
<extensions>
<speed>6.1</speed>
<temp>0.00</temp>
<bpm>0</bpm>
<rpm>0.00</rpm>
</extensions>
</trkpt>
<trkpt lat="64.126968384" lon="-21.861196518">
<ele>27.552246</ele>
<time>2012-07-18T12:47:15Z</time>
<speed>6.100000</speed>
<extensions>
<speed>6.1</speed>
<temp>0.00</temp>
<bpm>0</bpm>
<rpm>0.00</rpm>
</extensions>
</trkpt>
<trkpt lat="64.126869202" lon="-21.860601425">
<ele>27.587402</ele>
<time>2012-07-18T12:47:20Z</time>
<speed>6.280000</speed>
<extensions>
<speed>6.3</speed>
<temp>0.00</temp>
<bpm>0</bpm>
<rpm>0.00</rpm>
</extensions>
</trkpt>
<trkpt lat="64.126762390" lon="-21.860006332">
<ele>26.781250</ele>
<time>2012-07-18T12:47:25Z</time>
<speed>6.230000</speed>
<extensions>
<speed>6.2</speed>
<temp>0.00</temp>
<bpm>0</bpm>
<rpm>0.00</rpm>
</extensions>
</trkpt>
<trkpt lat="64.126678467" lon="-21.859382629">
<ele>28.126953</ele>
<time>2012-07-18T12:47:30Z</time>
<speed>6.390000</speed>
<extensions>
<speed>6.4</speed>
<temp>0.00</temp>
<bpm>0</bpm>
<rpm>0.00</rpm>
</extensions>
</trkpt>
<trkpt lat="64.126586914" lon="-21.858753204">
<ele>27.956543</ele>
<time>2012-07-18T12:47:35Z</time>
<speed>6.340000</speed>
<extensions>
<speed>6.3</speed>
<temp>0.00</temp>
<bpm>0</bpm>
<rpm>0.00</rpm>
</extensions>
</trkpt>
<trkpt lat="64.126495361" lon="-21.858167648">
<ele>28.394531</ele>
<time>2012-07-18T12:47:40Z</time>
<speed>6.080000</speed>
<extensions>
<speed>6.1</speed>
<temp>0.00</temp>
<bpm>0</bpm>
<rpm>0.00</rpm>
</extensions>
</trkpt>
<trkpt lat="64.126396179" lon="-21.857584000">
<ele>27.409180</ele>
<time>2012-07-18T12:47:45Z</time>
<speed>5.830000</speed>
<extensions>
<speed>5.8</speed>
<temp>0.00</temp>
<bpm>0</bpm>
<rpm>0.00</rpm>
</extensions>
</trkpt>
<trkpt lat="64.126296997" lon="-21.857034683">
<ele>26.069824</ele>
<time>2012-07-18T12:47:50Z</time>
<speed>5.970000</speed>
<extensions>
<speed>6.0</speed>
<temp>0.00</temp>
<bpm>0</bpm>
<rpm>0.00</rpm>
</extensions>
</trkpt>
<trkpt lat="64.126197815" lon="-21.856420517">
<ele>25.843750</ele>
<time>2012-07-18T12:47:55Z</time>
<speed>6.570000</speed>
<extensions>
<speed>6.6</speed>
<temp>0.00</temp>
<bpm>0</bpm>
<rpm>0.00</rpm>
</extensions>
</trkpt>
<trkpt lat="64.126083374" lon="-21.855766296">
<ele>25.590332</ele>
<time>2012-07-18T12:48:00Z</time>
<speed>6.640000</speed>
<extensions>
<speed>6.6</speed>
<temp>0.00</temp>
<bpm>0</bpm>
<rpm>0.00</rpm>
</extensions>
</trkpt>
<trkpt lat="64.125976563" lon="-21.855131149">
<ele>25.035645</ele>
<time>2012-07-18T12:48:05Z</time>
<speed>6.680000</speed>
<extensions>
<speed>6.7</speed>
<temp>0.00</temp>
<bpm>0</bpm>
<rpm>0.00</rpm>
</extensions>
</trkpt>
<trkpt lat="64.125877380" lon="-21.854473114">
<ele>25.229492</ele>
<time>2012-07-18T12:48:10Z</time>
<speed>7.000000</speed>
<extensions>
<speed>7.0</speed>
<temp>0.00</temp>
<bpm>0</bpm>
<rpm>0.00</rpm>
</extensions>
</trkpt>
<trkpt lat="64.125762939" lon="-21.853794098">
<ele>25.395020</ele>
<time>2012-07-18T12:48:15Z</time>
<speed>7.060000</speed>
<extensions>
<speed>7.1</speed>
<temp>0.00</temp>
<bpm>0</bpm>
<rpm>0.00</rpm>
</extensions>
</trkpt>
<trkpt lat="64.125648499" lon="-21.853116989">
<ele>25.099121</ele>
<time>2012-07-18T12:48:20Z</time>
<speed>7.190000</speed>
<extensions>
<speed>7.2</speed>
<temp>0.00</temp>
<bpm>0</bpm>
<rpm>0.00</rpm>
</extensions>
</trkpt>
<trkpt lat="64.125534058" lon="-21.852434158">
<ele>24.473145</ele>
<time>2012-07-18T12:48:25Z</time>
<speed>7.110000</speed>
<extensions>
<speed>7.1</speed>
<temp>0.00</temp>
<bpm>0</bpm>
<rpm>0.00</rpm>
</extensions>
</trkpt>
<trkpt lat="64.125427246" lon="-21.851753235">
<ele>24.228516</ele>
<time>2012-07-18T12:48:30Z</time>
<speed>6.940000</speed>
<extensions>
<speed>6.9</speed>
<temp>0.00</temp>
<bpm>0</bpm>
<rpm>0.00</rpm>
</extensions>
</trkpt>
<trkpt lat="64.125320435" lon="-21.851068497">
<ele>25.219238</ele>
<time>2012-07-18T12:48:35Z</time>
<speed>6.980000</speed>
<extensions>
<speed>7.0</speed>
<temp>0.00</temp>
<bpm>0</bpm>
<rpm>0.00</rpm>
</extensions>
</trkpt>
<trkpt lat="64.125221252" lon="-21.850387573">
<ele>26.210938</ele>
<time>2012-07-18T12:48:40Z</time>
<speed>6.750000</speed>
<extensions>
<speed>6.7</speed>
<temp>0.00</temp>
<bpm>0</bpm>
<rpm>0.00</rpm>
</extensions>
</trkpt>
<trkpt lat="64.125106812" lon="-21.849758148">
<ele>23.974121</ele>
<time>2012-07-18T12:48:45Z</time>
<speed>6.850000</speed>
<extensions>
<speed>6.8</speed>
<temp>0.00</temp>
<bpm>0</bpm>
<rpm>0.00</rpm>
</extensions>
</trkpt>
<trkpt lat="64.124992371" lon="-21.849092484">
<ele>22.212402</ele>
<time>2012-07-18T12:48:50Z</time>
<speed>6.980000</speed>
<extensions>
<speed>7.0</speed>
<temp>0.00</temp>
<bpm>0</bpm>
<rpm>0.00</rpm>
</extensions>
</trkpt>
<trkpt lat="64.124885559" lon="-21.848403931">
<ele>20.430664</ele>
<time>2012-07-18T12:48:55Z</time>
<speed>7.210000</speed>
<extensions>
<speed>7.2</speed>
<temp>0.00</temp>
<bpm>0</bpm>
<rpm>0.00</rpm>
</extensions>
</trkpt>
<trkpt lat="64.124771118" lon="-21.847740173">
<ele>18.146484</ele>
<time>2012-07-18T12:49:00Z</time>
<speed>6.560000</speed>
<extensions>
<speed>6.6</speed>
<temp>0.00</temp>
<bpm>0</bpm>
<rpm>0.00</rpm>
</extensions>
</trkpt>
<trkpt lat="64.124679565" lon="-21.847078323">
<ele>16.780762</ele>
<time>2012-07-18T12:49:05Z</time>
<speed>7.080000</speed>
<extensions>
<speed>7.1</speed>
<temp>0.00</temp>
<bpm>0</bpm>
<rpm>0.00</rpm>
</extensions>
</trkpt>
<trkpt lat="64.124595642" lon="-21.846363068">
<ele>16.711914</ele>
<time>2012-07-18T12:49:10Z</time>
<speed>7.320000</speed>
<extensions>
<speed>7.3</speed>
<temp>0.00</temp>
<bpm>0</bpm>
<rpm>0.00</rpm>
</extensions>
</trkpt>
<trkpt lat="64.124511719" lon="-21.845619202">
<ele>17.528809</ele>
<time>2012-07-18T12:49:15Z</time>
<speed>7.440000</speed>
<extensions>
<speed>7.4</speed>
<temp>0.00</temp>
<bpm>0</bpm>
<rpm>0.00</rpm>
</extensions>
</trkpt>
<trkpt lat="64.124435425" lon="-21.844879150">
<ele>16.401855</ele>
<time>2012-07-18T12:49:20Z</time>
<speed>7.500000</speed>
<extensions>
<speed>7.5</speed>
<temp>0.00</temp>
<bpm>0</bpm>
<rpm>0.00</rpm>
</extensions>
</trkpt>
<trkpt lat="64.124351501" lon="-21.844154358">
<ele>15.793457</ele>
<time>2012-07-18T12:49:25Z</time>
<speed>7.330000</speed>
<extensions>
<speed>7.3</speed>
<temp>0.00</temp>
<bpm>0</bpm>
<rpm>0.00</rpm>
</extensions>
</trkpt>
<trkpt lat="64.124290466" lon="-21.843427658">
<ele>15.614990</ele>
<time>2012-07-18T12:49:30Z</time>
<speed>7.090000</speed>
<extensions>
<speed>7.1</speed>
<temp>0.00</temp>
<bpm>0</bpm>
<rpm>0.00</rpm>
</extensions>
</trkpt>
<trkpt lat="64.124221802" lon="-21.842727661">
<ele>15.633545</ele>
<time>2012-07-18T12:49:35Z</time>
<speed>6.570000</speed>
<extensions>
<speed>6.6</speed>
<temp>0.00</temp>
<bpm>0</bpm>
<rpm>0.00</rpm>
</extensions>
</trkpt>
<trkpt lat="64.124176025" lon="-21.842100143">
<ele>16.083984</ele>
<time>2012-07-18T12:49:40Z</time>
<speed>5.930000</speed>
<extensions>
<speed>5.9</speed>
<temp>0.00</temp>
<bpm>0</bpm>
<rpm>0.00</rpm>
</extensions>
</trkpt>
<trkpt lat="64.124122620" lon="-21.841535568">
<ele>16.051270</ele>
<time>2012-07-18T12:49:45Z</time>
<speed>5.470000</speed>
<extensions>
<speed>5.5</speed>
<temp>0.00</temp>
<bpm>0</bpm>
<rpm>0.00</rpm>
</extensions>
</trkpt>
<trkpt lat="64.124084473" lon="-21.841009140">
<ele>16.100586</ele>
<time>2012-07-18T12:49:50Z</time>
<speed>5.330000</speed>
<extensions>
<speed>5.3</speed>
<temp>0.00</temp>
<bpm>0</bpm>
<rpm>0.00</rpm>
</extensions>
</trkpt>
<trkpt lat="64.124053955" lon="-21.840478897">
<ele>17.678223</ele>
<time>2012-07-18T12:49:55Z</time>
<speed>5.240000</speed>
<extensions>
<speed>5.2</speed>
<temp>0.00</temp>
<bpm>0</bpm>
<rpm>0.00</rpm>
</extensions>
</trkpt>
<trkpt lat="64.124015808" lon="-21.839950562">
<ele>18.818848</ele>
<time>2012-07-18T12:50:00Z</time>
<speed>5.180000</speed>
<extensions>
<speed>5.2</speed>
<temp>0.00</temp>
<bpm>0</bpm>
<rpm>0.00</rpm>
</extensions>
</trkpt>
<trkpt lat="64.123985291" lon="-21.839435577">
<ele>19.184082</ele>
<time>2012-07-18T12:50:05Z</time>
<speed>5.000000</speed>
<extensions>
<speed>5.0</speed>
<temp>0.00</temp>
<bpm>0</bpm>
<rpm>0.00</rpm>
</extensions>
</trkpt>
<trkpt lat="64.123954773" lon="-21.838953018">
<ele>19.922852</ele>
<time>2012-07-18T12:50:10Z</time>
<speed>4.400000</speed>
<extensions>
<speed>4.4</speed>
<temp>0.00</temp>
<bpm>0</bpm>
<rpm>0.00</rpm>
</extensions>
</trkpt>
<trkpt lat="64.123924255" lon="-21.838521957">
<ele>19.878906</ele>
<time>2012-07-18T12:50:15Z</time>
<speed>4.240000</speed>
<extensions>
<speed>4.2</speed>
<temp>0.00</temp>
<bpm>0</bpm>
<rpm>0.00</rpm>
</extensions>
</trkpt>
<trkpt lat="64.123901367" lon="-21.838068008">
<ele>21.231445</ele>
<time>2012-07-18T12:50:20Z</time>
<speed>4.420000</speed>
<extensions>
<speed>4.4</speed>
<temp>0.00</temp>
<bpm>0</bpm>
<rpm>0.00</rpm>
</extensions>
</trkpt>
<trkpt lat="64.123886108" lon="-21.837678909">
<ele>22.288086</ele>
<time>2012-07-18T12:50:25Z</time>
<speed>3.090000</speed>
<extensions>
<speed>3.1</speed>
<temp>0.00</temp>
<bpm>0</bpm>
<rpm>0.00</rpm>
</extensions>
</trkpt>
<trkpt lat="64.123870850" lon="-21.837381363">
<ele>22.439453</ele>
<time>2012-07-18T12:50:30Z</time>
<speed>2.700000</speed>
<extensions>
<speed>2.7</speed>
<temp>0.00</temp>
<bpm>0</bpm>
<rpm>0.00</rpm>
</extensions>
</trkpt>
<trkpt lat="64.123855591" lon="-21.837116241">
<ele>23.056152</ele>
<time>2012-07-18T12:50:35Z</time>
<speed>2.660000</speed>
<extensions>
<speed>2.7</speed>
<temp>0.00</temp>
<bpm>0</bpm>
<rpm>0.00</rpm>
</extensions>
</trkpt>
<trkpt lat="64.123832703" lon="-21.836839676">
<ele>22.809082</ele>
<time>2012-07-18T12:50:40Z</time>
<speed>2.890000</speed>
<extensions>
<speed>2.9</speed>
<temp>0.00</temp>
<bpm>0</bpm>
<rpm>0.00</rpm>
</extensions>
</trkpt>
<trkpt lat="64.123832703" lon="-21.836559296">
<ele>24.314453</ele>
<time>2012-07-18T12:50:45Z</time>
<speed>2.990000</speed>
<extensions>
<speed>3.0</speed>
<temp>0.00</temp>
<bpm>0</bpm>
<rpm>0.00</rpm>
</extensions>
</trkpt>
<trkpt lat="64.123825073" lon="-21.836254120">
<ele>25.653809</ele>
<time>2012-07-18T12:50:50Z</time>
<speed>2.660000</speed>
<extensions>
<speed>2.7</speed>
<temp>0.00</temp>
<bpm>0</bpm>
<rpm>0.00</rpm>
</extensions>
</trkpt>
<trkpt lat="64.123817444" lon="-21.835958481">
<ele>26.716797</ele>
<time>2012-07-18T12:50:55Z</time>
<speed>2.780000</speed>
<extensions>
<speed>2.8</speed>
<temp>0.00</temp>
<bpm>0</bpm>
<rpm>0.00</rpm>
</extensions>
</trkpt>
<trkpt lat="64.123817444" lon="-21.835664749">
<ele>28.764160</ele>
<time>2012-07-18T12:51:00Z</time>
<speed>2.690000</speed>
<extensions>
<speed>2.7</speed>
<temp>0.00</temp>
<bpm>0</bpm>
<rpm>0.00</rpm>
</extensions>
</trkpt>
<trkpt lat="64.123817444" lon="-21.835359573">
<ele>30.441895</ele>
<time>2012-07-18T12:51:05Z</time>
<speed>2.840000</speed>
<extensions>
<speed>2.8</speed>
<temp>0.00</temp>
<bpm>0</bpm>
<rpm>0.00</rpm>
</extensions>
</trkpt>
<trkpt lat="64.123809814" lon="-21.835073471">
<ele>31.780273</ele>
<time>2012-07-18T12:51:10Z</time>
<speed>2.940000</speed>
<extensions>
<speed>2.9</speed>
<temp>0.00</temp>
<bpm>0</bpm>
<rpm>0.00</rpm>
</extensions>
</trkpt>
<trkpt lat="64.123802185" lon="-21.834791183">
<ele>32.892578</ele>
<time>2012-07-18T12:51:15Z</time>
<speed>2.680000</speed>
<extensions>
<speed>2.7</speed>
<temp>0.00</temp>
<bpm>0</bpm>
<rpm>0.00</rpm>
</extensions>
</trkpt>
<trkpt lat="64.123748779" lon="-21.834512711">
<ele>33.469727</ele>
<time>2012-07-18T12:51:20Z</time>
<speed>3.100000</speed>
<extensions>
<speed>3.1</speed>
<temp>0.00</temp>
<bpm>0</bpm>
<rpm>0.00</rpm>
</extensions>
</trkpt>
<trkpt lat="64.123748779" lon="-21.834232330">
<ele>34.336914</ele>
<time>2012-07-18T12:51:25Z</time>
<speed>2.290000</speed>
<extensions>
<speed>2.3</speed>
<temp>0.00</temp>
<bpm>0</bpm>
<rpm>0.00</rpm>
</extensions>
</trkpt>
<trkpt lat="64.123756409" lon="-21.833963394">
<ele>35.333008</ele>
<time>2012-07-18T12:51:30Z</time>
<speed>2.850000</speed>
<extensions>
<speed>2.9</speed>
<temp>0.00</temp>
<bpm>0</bpm>
<rpm>0.00</rpm>
</extensions>
</trkpt>
<trkpt lat="64.123756409" lon="-21.833662033">
<ele>37.210938</ele>
<time>2012-07-18T12:51:35Z</time>
<speed>3.020000</speed>
<extensions>
<speed>3.0</speed>
<temp>0.00</temp>
<bpm>0</bpm>
<rpm>0.00</rpm>
</extensions>
</trkpt>
<trkpt lat="64.123756409" lon="-21.833372116">
<ele>37.454102</ele>
<time>2012-07-18T12:51:40Z</time>
<speed>2.810000</speed>
<extensions>
<speed>2.8</speed>
<temp>0.00</temp>
<bpm>0</bpm>
<rpm>0.00</rpm>
</extensions>
</trkpt>
<trkpt lat="64.123756409" lon="-21.833087921">
<ele>38.769531</ele>
<time>2012-07-18T12:51:45Z</time>
<speed>2.830000</speed>
<extensions>
<speed>2.8</speed>
<temp>0.00</temp>
<bpm>0</bpm>
<rpm>0.00</rpm>
</extensions>
</trkpt>
<trkpt lat="64.123741150" lon="-21.832798004">
<ele>37.956055</ele>
<time>2012-07-18T12:51:50Z</time>
<speed>2.760000</speed>
<extensions>
<speed>2.8</speed>
<temp>0.00</temp>
<bpm>0</bpm>
<rpm>0.00</rpm>
</extensions>
</trkpt>
<trkpt lat="64.123748779" lon="-21.832500458">
<ele>39.169922</ele>
<time>2012-07-18T12:51:55Z</time>
<speed>2.900000</speed>
<extensions>
<speed>2.9</speed>
<temp>0.00</temp>
<bpm>0</bpm>
<rpm>0.00</rpm>
</extensions>
</trkpt>
<trkpt lat="64.123748779" lon="-21.832221985">
<ele>41.178711</ele>
<time>2012-07-18T12:52:00Z</time>
<speed>2.830000</speed>
<extensions>
<speed>2.8</speed>
<temp>0.00</temp>
<bpm>0</bpm>
<rpm>0.00</rpm>
</extensions>
</trkpt>
<trkpt lat="64.123748779" lon="-21.831949234">
<ele>41.886719</ele>
<time>2012-07-18T12:52:05Z</time>
<speed>2.770000</speed>
<extensions>
<speed>2.8</speed>
<temp>0.00</temp>
<bpm>0</bpm>
<rpm>0.00</rpm>
</extensions>
</trkpt>
<trkpt lat="64.123741150" lon="-21.831672668">
<ele>41.783203</ele>
<time>2012-07-18T12:52:10Z</time>
<speed>2.660000</speed>
<extensions>
<speed>2.7</speed>
<temp>0.00</temp>
<bpm>0</bpm>
<rpm>0.00</rpm>
</extensions>
</trkpt>
<trkpt lat="64.123741150" lon="-21.831424713">
<ele>41.308594</ele>
<time>2012-07-18T12:52:15Z</time>
<speed>1.950000</speed>
<extensions>
<speed>1.9</speed>
<temp>0.00</temp>
<bpm>0</bpm>
<rpm>0.00</rpm>
</extensions>
</trkpt>
<trkpt lat="64.123725891" lon="-21.831314087">
<ele>40.610352</ele>
<time>2012-07-18T12:52:20Z</time>
<speed>0.720000</speed>
<extensions>
<speed>0.7</speed>
<temp>0.00</temp>
<bpm>0</bpm>
<rpm>0.00</rpm>
</extensions>
</trkpt>
<trkpt lat="64.123725891" lon="-21.831293106">
<ele>40.677734</ele>
<time>2012-07-18T12:52:25Z</time>
<speed>0.030000</speed>
<extensions>
<speed>0.0</speed>
<temp>0.00</temp>
<bpm>0</bpm>
<rpm>0.00</rpm>
</extensions>
</trkpt>
<trkpt lat="64.123725891" lon="-21.831293106">
<ele>40.710938</ele>
<time>2012-07-18T12:52:30Z</time>
<speed>0.020000</speed>
<extensions>
<speed>0.0</speed>
<temp>0.00</temp>
<bpm>0</bpm>
<rpm>0.00</rpm>
</extensions>
</trkpt>
<trkpt lat="64.123725891" lon="-21.831293106">
<ele>40.708984</ele>
<time>2012-07-18T12:52:35Z</time>
<extensions>
<speed>0.0</speed>
<temp>0.00</temp>
<bpm>0</bpm>
<rpm>0.00</rpm>
</extensions>
</trkpt>
<trkpt lat="64.123725891" lon="-21.831293106">
<ele>40.674805</ele>
<time>2012-07-18T12:52:40Z</time>
<speed>0.020000</speed>
<extensions>
<speed>0.0</speed>
<temp>0.00</temp>
<bpm>0</bpm>
<rpm>0.00</rpm>
</extensions>
</trkpt>
<trkpt lat="64.123725891" lon="-21.831287384">
<ele>40.644531</ele>
<time>2012-07-18T12:52:45Z</time>
<speed>0.030000</speed>
<extensions>
<speed>0.0</speed>
<temp>0.00</temp>
<bpm>0</bpm>
<rpm>0.00</rpm>
</extensions>
</trkpt>
<trkpt lat="64.123725891" lon="-21.831266403">
<ele>40.581055</ele>
<time>2012-07-18T12:52:50Z</time>
<speed>0.020000</speed>
<extensions>
<speed>0.0</speed>
<temp>0.00</temp>
<bpm>0</bpm>
<rpm>0.00</rpm>
</extensions>
</trkpt>
<trkpt lat="64.123725891" lon="-21.831266403">
<ele>40.467773</ele>
<time>2012-07-18T12:52:55Z</time>
<extensions>
<speed>0.0</speed>
<temp>0.00</temp>
<bpm>0</bpm>
<rpm>0.00</rpm>
</extensions>
</trkpt>
<trkpt lat="64.123725891" lon="-21.831266403">
<ele>40.400391</ele>
<time>2012-07-18T12:53:00Z</time>
<speed>0.010000</speed>
<extensions>
<speed>0.0</speed>
<temp>0.00</temp>
<bpm>0</bpm>
<rpm>0.00</rpm>
</extensions>
</trkpt>
<trkpt lat="64.123725891" lon="-21.831266403">
<ele>40.350586</ele>
<time>2012-07-18T12:53:05Z</time>
<speed>0.690000</speed>
<extensions>
<speed>0.7</speed>
<temp>0.00</temp>
<bpm>0</bpm>
<rpm>0.00</rpm>
</extensions>
</trkpt>
<trkpt lat="64.123756409" lon="-21.831048965">
<ele>40.200195</ele>
<time>2012-07-18T12:53:10Z</time>
<speed>3.490000</speed>
<extensions>
<speed>3.5</speed>
<temp>0.00</temp>
<bpm>0</bpm>
<rpm>0.00</rpm>
</extensions>
</trkpt>
<trkpt lat="64.123764038" lon="-21.830715179">
<ele>41.531250</ele>
<time>2012-07-18T12:53:15Z</time>
<speed>3.150000</speed>
<extensions>
<speed>3.2</speed>
<temp>0.00</temp>
<bpm>0</bpm>
<rpm>0.00</rpm>
</extensions>
</trkpt>
<trkpt lat="64.123764038" lon="-21.830373764">
<ele>43.089844</ele>
<time>2012-07-18T12:53:20Z</time>
<speed>3.250000</speed>
<extensions>
<speed>3.2</speed>
<temp>0.00</temp>
<bpm>0</bpm>
<rpm>0.00</rpm>
</extensions>
</trkpt>
<trkpt lat="64.123771667" lon="-21.830049515">
<ele>44.241211</ele>
<time>2012-07-18T12:53:25Z</time>
<speed>3.090000</speed>
<extensions>
<speed>3.1</speed>
<temp>0.00</temp>
<bpm>0</bpm>
<rpm>0.00</rpm>
</extensions>
</trkpt>
<trkpt lat="64.123779297" lon="-21.829725266">
<ele>45.042969</ele>
<time>2012-07-18T12:53:30Z</time>
<speed>3.210000</speed>
<extensions>
<speed>3.2</speed>
<temp>0.00</temp>
<bpm>0</bpm>
<rpm>0.00</rpm>
</extensions>
</trkpt>
<trkpt lat="64.123786926" lon="-21.829402924">
<ele>45.118164</ele>
<time>2012-07-18T12:53:35Z</time>
<speed>3.180000</speed>
<extensions>
<speed>3.2</speed>
<temp>0.00</temp>
<bpm>0</bpm>
<rpm>0.00</rpm>
</extensions>
</trkpt>
<trkpt lat="64.123779297" lon="-21.829048157">
<ele>45.404297</ele>
<time>2012-07-18T12:53:40Z</time>
<speed>3.550000</speed>
<extensions>
<speed>3.5</speed>
<temp>0.00</temp>
<bpm>0</bpm>
<rpm>0.00</rpm>
</extensions>
</trkpt>
<trkpt lat="64.123794556" lon="-21.828670502">
<ele>46.813477</ele>
<time>2012-07-18T12:53:45Z</time>
<speed>3.610000</speed>
<extensions>
<speed>3.6</speed>
<temp>0.00</temp>
<bpm>0</bpm>
<rpm>0.00</rpm>
</extensions>
</trkpt>
<trkpt lat="64.123809814" lon="-21.828296661">
<ele>48.092773</ele>
<time>2012-07-18T12:53:50Z</time>
<speed>3.650000</speed>
<extensions>
<speed>3.7</speed>
<temp>0.00</temp>
<bpm>0</bpm>
<rpm>0.00</rpm>
</extensions>
</trkpt>
<trkpt lat="64.123825073" lon="-21.827938080">
<ele>48.744141</ele>
<time>2012-07-18T12:53:55Z</time>
<speed>3.730000</speed>
<extensions>
<speed>3.7</speed>
<temp>0.00</temp>
<bpm>0</bpm>
<rpm>0.00</rpm>
</extensions>
</trkpt>
<trkpt lat="64.123825073" lon="-21.827556610">
<ele>48.760742</ele>
<time>2012-07-18T12:54:00Z</time>
<speed>3.870000</speed>
<extensions>
<speed>3.9</speed>
<temp>0.00</temp>
<bpm>0</bpm>
<rpm>0.00</rpm>
</extensions>
</trkpt>
<trkpt lat="64.123832703" lon="-21.827152252">
<ele>49.600586</ele>
<time>2012-07-18T12:54:05Z</time>
<speed>3.780000</speed>
<extensions>
<speed>3.8</speed>
<temp>0.00</temp>
<bpm>0</bpm>
<rpm>0.00</rpm>
</extensions>
</trkpt>
<trkpt lat="64.123840332" lon="-21.826742172">
<ele>50.205078</ele>
<time>2012-07-18T12:54:10Z</time>
<speed>3.970000</speed>
<extensions>
<speed>4.0</speed>
<temp>0.00</temp>
<bpm>0</bpm>
<rpm>0.00</rpm>
</extensions>
</trkpt>
<trkpt lat="64.123832703" lon="-21.826360703">
<ele>50.030273</ele>
<time>2012-07-18T12:54:15Z</time>
<speed>3.780000</speed>
<extensions>
<speed>3.8</speed>
<temp>0.00</temp>
<bpm>0</bpm>
<rpm>0.00</rpm>
</extensions>
</trkpt>
<trkpt lat="64.123832703" lon="-21.825979233">
<ele>49.897461</ele>
<time>2012-07-18T12:54:20Z</time>
<speed>3.840000</speed>
<extensions>
<speed>3.8</speed>
<temp>0.00</temp>
<bpm>0</bpm>
<rpm>0.00</rpm>
</extensions>
</trkpt>
<trkpt lat="64.123847961" lon="-21.825555801">
<ele>50.803711</ele>
<time>2012-07-18T12:54:25Z</time>
<speed>4.070000</speed>
<extensions>
<speed>4.1</speed>
<temp>0.00</temp>
<bpm>0</bpm>
<rpm>0.00</rpm>
</extensions>
</trkpt>
<trkpt lat="64.123855591" lon="-21.825138092">
<ele>51.058594</ele>
<time>2012-07-18T12:54:30Z</time>
<speed>3.950000</speed>
<extensions>
<speed>4.0</speed>
<temp>0.00</temp>
<bpm>0</bpm>
<rpm>0.00</rpm>
</extensions>
</trkpt>
<trkpt lat="64.123855591" lon="-21.824718475">
<ele>52.795898</ele>
<time>2012-07-18T12:54:35Z</time>
<speed>3.790000</speed>
<extensions>
<speed>3.8</speed>
<temp>0.00</temp>
<bpm>0</bpm>
<rpm>0.00</rpm>
</extensions>
</trkpt>
<trkpt lat="64.123847961" lon="-21.824317932">
<ele>53.764648</ele>
<time>2012-07-18T12:54:40Z</time>
<speed>3.830000</speed>
<extensions>
<speed>3.8</speed>
<temp>0.00</temp>
<bpm>0</bpm>
<rpm>0.00</rpm>
</extensions>
</trkpt>
<trkpt lat="64.123847961" lon="-21.823915482">
<ele>53.833008</ele>
<time>2012-07-18T12:54:45Z</time>
<speed>4.160000</speed>
<extensions>
<speed>4.2</speed>
<temp>0.00</temp>
<bpm>0</bpm>
<rpm>0.00</rpm>
</extensions>
</trkpt>
<trkpt lat="64.123870850" lon="-21.823480606">
<ele>54.691406</ele>
<time>2012-07-18T12:54:50Z</time>
<speed>4.020000</speed>
<extensions>
<speed>4.0</speed>
<temp>0.00</temp>
<bpm>0</bpm>
<rpm>0.00</rpm>
</extensions>
</trkpt>
<trkpt lat="64.123886108" lon="-21.823049545">
<ele>55.324219</ele>
<time>2012-07-18T12:54:55Z</time>
<speed>4.290000</speed>
<extensions>
<speed>4.3</speed>
<temp>0.00</temp>
<bpm>0</bpm>
<rpm>0.00</rpm>
</extensions>
</trkpt>
<trkpt lat="64.123870850" lon="-21.822620392">
<ele>54.881836</ele>
<time>2012-07-18T12:55:00Z</time>
<speed>4.060000</speed>
<extensions>
<speed>4.1</speed>
<temp>0.00</temp>
<bpm>0</bpm>
<rpm>0.00</rpm>
</extensions>
</trkpt>
<trkpt lat="64.123878479" lon="-21.822202682">
<ele>54.582031</ele>
<time>2012-07-18T12:55:05Z</time>
<speed>3.310000</speed>
<extensions>
<speed>3.3</speed>
<temp>0.00</temp>
<bpm>0</bpm>
<rpm>0.00</rpm>
</extensions>
</trkpt>
<trkpt lat="64.123886108" lon="-21.821823120">
<ele>56.151367</ele>
<time>2012-07-18T12:55:10Z</time>
<speed>3.660000</speed>
<extensions>
<speed>3.7</speed>
<temp>0.00</temp>
<bpm>0</bpm>
<rpm>0.00</rpm>
</extensions>
</trkpt>
<trkpt lat="64.123878479" lon="-21.821458817">
<ele>55.660156</ele>
<time>2012-07-18T12:55:15Z</time>
<speed>3.580000</speed>
<extensions>
<speed>3.6</speed>
<temp>0.00</temp>
<bpm>0</bpm>
<rpm>0.00</rpm>
</extensions>
</trkpt>
<trkpt lat="64.123870850" lon="-21.821079254">
<ele>56.044922</ele>
<time>2012-07-18T12:55:20Z</time>
<speed>3.740000</speed>
<extensions>
<speed>3.7</speed>
<temp>0.00</temp>
<bpm>0</bpm>
<rpm>0.00</rpm>
</extensions>
</trkpt>
<trkpt lat="64.123878479" lon="-21.820688248">
<ele>57.334961</ele>
<time>2012-07-18T12:55:25Z</time>
<speed>3.780000</speed>
<extensions>
<speed>3.8</speed>
<temp>0.00</temp>
<bpm>0</bpm>
<rpm>0.00</rpm>
</extensions>
</trkpt>
<trkpt lat="64.123886108" lon="-21.820291519">
<ele>57.995117</ele>
<time>2012-07-18T12:55:30Z</time>
<speed>4.080000</speed>
<extensions>
<speed>4.1</speed>
<temp>0.00</temp>
<bpm>0</bpm>
<rpm>0.00</rpm>
</extensions>
</trkpt>
<trkpt lat="64.123901367" lon="-21.819877625">
<ele>58.388672</ele>
<time>2012-07-18T12:55:35Z</time>
<speed>4.160000</speed>
<extensions>
<speed>4.2</speed>
<temp>0.00</temp>
<bpm>0</bpm>
<rpm>0.00</rpm>
</extensions>
</trkpt>
<trkpt lat="64.123924255" lon="-21.819429398">
<ele>59.276367</ele>
<time>2012-07-18T12:55:40Z</time>
<speed>4.460000</speed>
<extensions>
<speed>4.5</speed>
<temp>0.00</temp>
<bpm>0</bpm>
<rpm>0.00</rpm>
</extensions>
</trkpt>
<trkpt lat="64.123924255" lon="-21.818998337">
<ele>58.422852</ele>
<time>2012-07-18T12:55:45Z</time>
<speed>3.800000</speed>
<extensions>
<speed>3.8</speed>
<temp>0.00</temp>
<bpm>0</bpm>
<rpm>0.00</rpm>
</extensions>
</trkpt>
<trkpt lat="64.123931885" lon="-21.818555832">
<ele>58.828125</ele>
<time>2012-07-18T12:55:50Z</time>
<speed>4.190000</speed>
<extensions>
<speed>4.2</speed>
<temp>0.00</temp>
<bpm>0</bpm>
<rpm>0.00</rpm>
</extensions>
</trkpt>
<trkpt lat="64.123939514" lon="-21.818096161">
<ele>59.372070</ele>
<time>2012-07-18T12:55:55Z</time>
<speed>4.280000</speed>
<extensions>
<speed>4.3</speed>
<temp>0.00</temp>
<bpm>0</bpm>
<rpm>0.00</rpm>
</extensions>
</trkpt>
<trkpt lat="64.123931885" lon="-21.817628860">
<ele>60.059570</ele>
<time>2012-07-18T12:56:00Z</time>
<speed>4.340000</speed>
<extensions>
<speed>4.3</speed>
<temp>0.00</temp>
<bpm>0</bpm>
<rpm>0.00</rpm>
</extensions>
</trkpt>
<trkpt lat="64.123947144" lon="-21.817214966">
<ele>60.898438</ele>
<time>2012-07-18T12:56:05Z</time>
<speed>4.070000</speed>
<extensions>
<speed>4.1</speed>
<temp>0.00</temp>
<bpm>0</bpm>
<rpm>0.00</rpm>
</extensions>
</trkpt>
<trkpt lat="64.123985291" lon="-21.816696167">
<ele>59.967773</ele>
<time>2012-07-18T12:56:10Z</time>
<speed>5.540000</speed>
<extensions>
<speed>5.5</speed>
<temp>0.00</temp>
<bpm>0</bpm>
<rpm>0.00</rpm>
</extensions>
</trkpt>
<trkpt lat="64.124000549" lon="-21.816112518">
<ele>60.218750</ele>
<time>2012-07-18T12:56:15Z</time>
<speed>5.520000</speed>
<extensions>
<speed>5.5</speed>
<temp>0.00</temp>
<bpm>0</bpm>
<rpm>0.00</rpm>
</extensions>
</trkpt>
<trkpt lat="64.124008179" lon="-21.815555573">
<ele>60.809570</ele>
<time>2012-07-18T12:56:20Z</time>
<speed>5.480000</speed>
<extensions>
<speed>5.5</speed>
<temp>0.00</temp>
<bpm>0</bpm>
<rpm>0.00</rpm>
</extensions>
</trkpt>
<trkpt lat="64.124000549" lon="-21.815017700">
<ele>58.922852</ele>
<time>2012-07-18T12:56:25Z</time>
<speed>5.130000</speed>
<extensions>
<speed>5.1</speed>
<temp>0.00</temp>
<bpm>0</bpm>
<rpm>0.00</rpm>
</extensions>
</trkpt>
<trkpt lat="64.124008179" lon="-21.814477921">
<ele>58.772461</ele>
<time>2012-07-18T12:56:30Z</time>
<speed>5.290000</speed>
<extensions>
<speed>5.3</speed>
<temp>0.00</temp>
<bpm>0</bpm>
<rpm>0.00</rpm>
</extensions>
</trkpt>
<trkpt lat="64.124023438" lon="-21.813915253">
<ele>59.923828</ele>
<time>2012-07-18T12:56:35Z</time>
<speed>5.420000</speed>
<extensions>
<speed>5.4</speed>
<temp>0.00</temp>
<bpm>0</bpm>
<rpm>0.00</rpm>
</extensions>
</trkpt>
<trkpt lat="64.124046326" lon="-21.813333511">
<ele>62.585938</ele>
<time>2012-07-18T12:56:40Z</time>
<speed>5.520000</speed>
<extensions>
<speed>5.5</speed>
<temp>0.00</temp>
<bpm>0</bpm>
<rpm>0.00</rpm>
</extensions>
</trkpt>
<trkpt lat="64.124069214" lon="-21.812753677">
<ele>64.208984</ele>
<time>2012-07-18T12:56:45Z</time>
<speed>5.630000</speed>
<extensions>
<speed>5.6</speed>
<temp>0.00</temp>
<bpm>0</bpm>
<rpm>0.00</rpm>
</extensions>
</trkpt>
<trkpt lat="64.124084473" lon="-21.812185287">
<ele>65.837891</ele>
<time>2012-07-18T12:56:50Z</time>
<speed>5.690000</speed>
<extensions>
<speed>5.7</speed>
<temp>0.00</temp>
<bpm>0</bpm>
<rpm>0.00</rpm>
</extensions>
</trkpt>
<trkpt lat="64.124107361" lon="-21.811603546">
<ele>67.662109</ele>
<time>2012-07-18T12:56:55Z</time>
<speed>5.620000</speed>
<extensions>
<speed>5.6</speed>
<temp>0.00</temp>
<bpm>0</bpm>
<rpm>0.00</rpm>
</extensions>
</trkpt>
<trkpt lat="64.124084473" lon="-21.811033249">
<ele>68.888672</ele>
<time>2012-07-18T12:57:00Z</time>
<speed>4.720000</speed>
<extensions>
<speed>4.7</speed>
<temp>0.00</temp>
<bpm>0</bpm>
<rpm>0.00</rpm>
</extensions>
</trkpt>
<trkpt lat="64.124053955" lon="-21.810636520">
<ele>67.708984</ele>
<time>2012-07-18T12:57:05Z</time>
<speed>3.090000</speed>
<extensions>
<speed>3.1</speed>
<temp>0.00</temp>
<bpm>0</bpm>
<rpm>0.00</rpm>
</extensions>
</trkpt>
<trkpt lat="64.124076843" lon="-21.810287476">
<ele>70.853516</ele>
<time>2012-07-18T12:57:10Z</time>
<speed>3.280000</speed>
<extensions>
<speed>3.3</speed>
<temp>0.00</temp>
<bpm>0</bpm>
<rpm>0.00</rpm>
</extensions>
</trkpt>
<trkpt lat="64.124084473" lon="-21.809909821">
<ele>67.783203</ele>
<time>2012-07-18T12:57:15Z</time>
<speed>5.070000</speed>
<extensions>
<speed>5.1</speed>
<temp>0.00</temp>
<bpm>0</bpm>
<rpm>0.00</rpm>
</extensions>
</trkpt>
<trkpt lat="64.124092102" lon="-21.809335709">
<ele>67.042969</ele>
<time>2012-07-18T12:57:20Z</time>
<speed>5.640000</speed>
<extensions>
<speed>5.6</speed>
<temp>0.00</temp>
<bpm>0</bpm>
<rpm>0.00</rpm>
</extensions>
</trkpt>
<trkpt lat="64.124092102" lon="-21.808736801">
<ele>65.435547</ele>
<time>2012-07-18T12:57:25Z</time>
<speed>5.810000</speed>
<extensions>
<speed>5.8</speed>
<temp>0.00</temp>
<bpm>0</bpm>
<rpm>0.00</rpm>
</extensions>
</trkpt>
<trkpt lat="64.124092102" lon="-21.808158875">
<ele>63.053711</ele>
<time>2012-07-18T12:57:30Z</time>
<speed>5.440000</speed>
<extensions>
<speed>5.4</speed>
<temp>0.00</temp>
<bpm>0</bpm>
<rpm>0.00</rpm>
</extensions>
</trkpt>
<trkpt lat="64.124107361" lon="-21.807594299">
<ele>63.801758</ele>
<time>2012-07-18T12:57:35Z</time>
<speed>5.630000</speed>
<extensions>
<speed>5.6</speed>
<temp>0.00</temp>
<bpm>0</bpm>
<rpm>0.00</rpm>
</extensions>
</trkpt>
<trkpt lat="64.124130249" lon="-21.806999207">
<ele>64.363281</ele>
<time>2012-07-18T12:57:40Z</time>
<speed>5.860000</speed>
<extensions>
<speed>5.9</speed>
<temp>0.00</temp>
<bpm>0</bpm>
<rpm>0.00</rpm>
</extensions>
</trkpt>
<trkpt lat="64.124130249" lon="-21.806388855">
<ele>63.281250</ele>
<time>2012-07-18T12:57:45Z</time>
<speed>6.070000</speed>
<extensions>
<speed>6.1</speed>
<temp>0.00</temp>
<bpm>0</bpm>
<rpm>0.00</rpm>
</extensions>
</trkpt>
<trkpt lat="64.124137878" lon="-21.805793762">
<ele>61.480469</ele>
<time>2012-07-18T12:57:50Z</time>
<speed>5.650000</speed>
<extensions>
<speed>5.7</speed>
<temp>0.00</temp>
<bpm>0</bpm>
<rpm>0.00</rpm>
</extensions>
</trkpt>
<trkpt lat="64.124153137" lon="-21.805236816">
<ele>61.507813</ele>
<time>2012-07-18T12:57:55Z</time>
<speed>5.300000</speed>
<extensions>
<speed>5.3</speed>
<temp>0.00</temp>
<bpm>0</bpm>
<rpm>0.00</rpm>
</extensions>
</trkpt>
<trkpt lat="64.124160767" lon="-21.804691315">
<ele>61.274414</ele>
<time>2012-07-18T12:58:00Z</time>
<speed>5.120000</speed>
<extensions>
<speed>5.1</speed>
<temp>0.00</temp>
<bpm>0</bpm>
<rpm>0.00</rpm>
</extensions>
</trkpt>
<trkpt lat="64.124168396" lon="-21.804141998">
<ele>61.975586</ele>
<time>2012-07-18T12:58:05Z</time>
<speed>5.600000</speed>
<extensions>
<speed>5.6</speed>
<temp>0.00</temp>
<bpm>0</bpm>
<rpm>0.00</rpm>
</extensions>
</trkpt>
<trkpt lat="64.124183655" lon="-21.803558350">
<ele>62.047852</ele>
<time>2012-07-18T12:58:10Z</time>
<speed>5.910000</speed>
<extensions>
<speed>5.9</speed>
<temp>0.00</temp>
<bpm>0</bpm>
<rpm>0.00</rpm>
</extensions>
</trkpt>
<trkpt lat="64.124176025" lon="-21.802967072">
<ele>60.108398</ele>
<time>2012-07-18T12:58:15Z</time>
<speed>5.990000</speed>
<extensions>
<speed>6.0</speed>
<temp>0.00</temp>
<bpm>0</bpm>
<rpm>0.00</rpm>
</extensions>
</trkpt>
<trkpt lat="64.124183655" lon="-21.802366257">
<ele>58.430664</ele>
<time>2012-07-18T12:58:20Z</time>
<speed>5.810000</speed>
<extensions>
<speed>5.8</speed>
<temp>0.00</temp>
<bpm>0</bpm>
<rpm>0.00</rpm>
</extensions>
</trkpt>
<trkpt lat="64.124191284" lon="-21.801790237">
<ele>57.165039</ele>
<time>2012-07-18T12:58:25Z</time>
<speed>5.690000</speed>
<extensions>
<speed>5.7</speed>
<temp>0.00</temp>
<bpm>0</bpm>
<rpm>0.00</rpm>
</extensions>
</trkpt>
<trkpt lat="64.124206543" lon="-21.801235199">
<ele>56.709961</ele>
<time>2012-07-18T12:58:30Z</time>
<speed>5.320000</speed>
<extensions>
<speed>5.3</speed>
<temp>0.00</temp>
<bpm>0</bpm>
<rpm>0.00</rpm>
</extensions>
</trkpt>
<trkpt lat="64.124221802" lon="-21.800685883">
<ele>56.483398</ele>
<time>2012-07-18T12:58:35Z</time>
<speed>5.180000</speed>
<extensions>
<speed>5.2</speed>
<temp>0.00</temp>
<bpm>0</bpm>
<rpm>0.00</rpm>
</extensions>
</trkpt>
<trkpt lat="64.124214172" lon="-21.800168991">
<ele>54.209961</ele>
<time>2012-07-18T12:58:40Z</time>
<speed>5.250000</speed>
<extensions>
<speed>5.2</speed>
<temp>0.00</temp>
<bpm>0</bpm>
<rpm>0.00</rpm>
</extensions>
</trkpt>
<trkpt lat="64.124214172" lon="-21.799587250">
<ele>52.423828</ele>
<time>2012-07-18T12:58:45Z</time>
<speed>5.780000</speed>
<extensions>
<speed>5.8</speed>
<temp>0.00</temp>
<bpm>0</bpm>
<rpm>0.00</rpm>
</extensions>
</trkpt>
<trkpt lat="64.124214172" lon="-21.798967361">
<ele>50.393555</ele>
<time>2012-07-18T12:58:50Z</time>
<speed>5.980000</speed>
<extensions>
<speed>6.0</speed>
<temp>0.00</temp>
<bpm>0</bpm>
<rpm>0.00</rpm>
</extensions>
</trkpt>
<trkpt lat="64.124221802" lon="-21.798362732">
<ele>48.937500</ele>
<time>2012-07-18T12:58:55Z</time>
<speed>5.670000</speed>
<extensions>
<speed>5.7</speed>
<temp>0.00</temp>
<bpm>0</bpm>
<rpm>0.00</rpm>
</extensions>
</trkpt>
<trkpt lat="64.124229431" lon="-21.797775269">
<ele>48.280273</ele>
<time>2012-07-18T12:59:00Z</time>
<speed>6.040000</speed>
<extensions>
<speed>6.0</speed>
<temp>0.00</temp>
<bpm>0</bpm>
<rpm>0.00</rpm>
</extensions>
</trkpt>
<trkpt lat="64.124237061" lon="-21.797149658">
<ele>47.397461</ele>
<time>2012-07-18T12:59:05Z</time>
<speed>5.920000</speed>
<extensions>
<speed>5.9</speed>
<temp>0.00</temp>
<bpm>0</bpm>
<rpm>0.00</rpm>
</extensions>
</trkpt>
<trkpt lat="64.124244690" lon="-21.796575546">
<ele>46.040039</ele>
<time>2012-07-18T12:59:10Z</time>
<speed>5.500000</speed>
<extensions>
<speed>5.5</speed>
<temp>0.00</temp>
<bpm>0</bpm>
<rpm>0.00</rpm>
</extensions>
</trkpt>
<trkpt lat="64.124244690" lon="-21.796033859">
<ele>44.882813</ele>
<time>2012-07-18T12:59:15Z</time>
<speed>5.150000</speed>
<extensions>
<speed>5.2</speed>
<temp>0.00</temp>
<bpm>0</bpm>
<rpm>0.00</rpm>
</extensions>
</trkpt>
<trkpt lat="64.124259949" lon="-21.795530319">
<ele>44.167969</ele>
<time>2012-07-18T12:59:20Z</time>
<speed>4.760000</speed>
<extensions>
<speed>4.8</speed>
<temp>0.00</temp>
<bpm>0</bpm>
<rpm>0.00</rpm>
</extensions>
</trkpt>
<trkpt lat="64.124259949" lon="-21.795070648">
<ele>43.070313</ele>
<time>2012-07-18T12:59:25Z</time>
<speed>4.440000</speed>
<extensions>
<speed>4.4</speed>
<temp>0.00</temp>
<bpm>0</bpm>
<rpm>0.00</rpm>
</extensions>
</trkpt>
<trkpt lat="64.124267578" lon="-21.794620514">
<ele>42.257813</ele>
<time>2012-07-18T12:59:30Z</time>
<speed>4.210000</speed>
<extensions>
<speed>4.2</speed>
<temp>0.00</temp>
<bpm>0</bpm>
<rpm>0.00</rpm>
</extensions>
</trkpt>
<trkpt lat="64.124275208" lon="-21.794204712">
<ele>41.846680</ele>
<time>2012-07-18T12:59:35Z</time>
<speed>3.900000</speed>
<extensions>
<speed>3.9</speed>
<temp>0.00</temp>
<bpm>0</bpm>
<rpm>0.00</rpm>
</extensions>
</trkpt>
<trkpt lat="64.124275208" lon="-21.793823242">
<ele>41.278320</ele>
<time>2012-07-18T12:59:40Z</time>
<speed>3.510000</speed>
<extensions>
<speed>3.5</speed>
<temp>0.00</temp>
<bpm>0</bpm>
<rpm>0.00</rpm>
</extensions>
</trkpt>
<trkpt lat="64.124282837" lon="-21.793430328">
<ele>40.974609</ele>
<time>2012-07-18T12:59:45Z</time>
<speed>4.330000</speed>
<extensions>
<speed>4.3</speed>
<temp>0.00</temp>
<bpm>0</bpm>
<rpm>0.00</rpm>
</extensions>
</trkpt>
<trkpt lat="64.124298096" lon="-21.792959213">
<ele>41.717773</ele>
<time>2012-07-18T12:59:50Z</time>
<speed>4.980000</speed>
<extensions>
<speed>5.0</speed>
<temp>0.00</temp>
<bpm>0</bpm>
<rpm>0.00</rpm>
</extensions>
</trkpt>
<trkpt lat="64.124305725" lon="-21.792442322">
<ele>41.873047</ele>
<time>2012-07-18T12:59:55Z</time>
<speed>5.210000</speed>
<extensions>
<speed>5.2</speed>
<temp>0.00</temp>
<bpm>0</bpm>
<rpm>0.00</rpm>
</extensions>
</trkpt>
<trkpt lat="64.124328613" lon="-21.791885376">
<ele>42.625000</ele>
<time>2012-07-18T13:00:00Z</time>
<speed>5.430000</speed>
<extensions>
<speed>5.4</speed>
<temp>0.00</temp>
<bpm>0</bpm>
<rpm>0.00</rpm>
</extensions>
</trkpt>
<trkpt lat="64.124328613" lon="-21.791318893">
<ele>42.454102</ele>
<time>2012-07-18T13:00:05Z</time>
<speed>5.600000</speed>
<extensions>
<speed>5.6</speed>
<temp>0.00</temp>
<bpm>0</bpm>
<rpm>0.00</rpm>
</extensions>
</trkpt>
<trkpt lat="64.124351501" lon="-21.790740967">
<ele>42.441406</ele>
<time>2012-07-18T13:00:10Z</time>
<speed>5.700000</speed>
<extensions>
<speed>5.7</speed>
<temp>0.00</temp>
<bpm>0</bpm>
<rpm>0.00</rpm>
</extensions>
</trkpt>
<trkpt lat="64.124382019" lon="-21.790191650">
<ele>42.446289</ele>
<time>2012-07-18T13:00:15Z</time>
<speed>5.150000</speed>
<extensions>
<speed>5.2</speed>
<temp>0.00</temp>
<bpm>0</bpm>
<rpm>0.00</rpm>
</extensions>
</trkpt>
<trkpt lat="64.124412537" lon="-21.789638519">
<ele>42.209961</ele>
<time>2012-07-18T13:00:20Z</time>
<speed>5.660000</speed>
<extensions>
<speed>5.7</speed>
<temp>0.00</temp>
<bpm>0</bpm>
<rpm>0.00</rpm>
</extensions>
</trkpt>
<trkpt lat="64.124450684" lon="-21.789045334">
<ele>41.916016</ele>
<time>2012-07-18T13:00:25Z</time>
<speed>5.950000</speed>
<extensions>
<speed>6.0</speed>
<temp>0.00</temp>
<bpm>0</bpm>
<rpm>0.00</rpm>
</extensions>
</trkpt>
<trkpt lat="64.124504089" lon="-21.788440704">
<ele>41.412109</ele>
<time>2012-07-18T13:00:30Z</time>
<speed>6.150000</speed>
<extensions>
<speed>6.1</speed>
<temp>0.00</temp>
<bpm>0</bpm>
<rpm>0.00</rpm>
</extensions>
</trkpt>
<trkpt lat="64.124557495" lon="-21.787818909">
<ele>42.259766</ele>
<time>2012-07-18T13:00:35Z</time>
<speed>5.790000</speed>
<extensions>
<speed>5.8</speed>
<temp>0.00</temp>
<bpm>0</bpm>
<rpm>0.00</rpm>
</extensions>
</trkpt>
<trkpt lat="64.124618530" lon="-21.787248611">
<ele>42.517578</ele>
<time>2012-07-18T13:00:40Z</time>
<speed>5.850000</speed>
<extensions>
<speed>5.8</speed>
<temp>0.00</temp>
<bpm>0</bpm>
<rpm>0.00</rpm>
</extensions>
</trkpt>
<trkpt lat="64.124679565" lon="-21.786642075">
<ele>42.156250</ele>
<time>2012-07-18T13:00:45Z</time>
<speed>6.300000</speed>
<extensions>
<speed>6.3</speed>
<temp>0.00</temp>
<bpm>0</bpm>
<rpm>0.00</rpm>
</extensions>
</trkpt>
<trkpt lat="64.124755859" lon="-21.786050797">
<ele>42.953125</ele>
<time>2012-07-18T13:00:50Z</time>
<speed>5.770000</speed>
<extensions>
<speed>5.8</speed>
<temp>0.00</temp>
<bpm>0</bpm>
<rpm>0.00</rpm>
</extensions>
</trkpt>
<trkpt lat="64.124832153" lon="-21.785472870">
<ele>44.000977</ele>
<time>2012-07-18T13:00:55Z</time>
<speed>5.710000</speed>
<extensions>
<speed>5.7</speed>
<temp>0.00</temp>
<bpm>0</bpm>
<rpm>0.00</rpm>
</extensions>
</trkpt>
<trkpt lat="64.124916077" lon="-21.784912109">
<ele>44.848633</ele>
<time>2012-07-18T13:01:00Z</time>
<speed>5.560000</speed>
<extensions>
<speed>5.6</speed>
<temp>0.00</temp>
<bpm>0</bpm>
<rpm>0.00</rpm>
</extensions>
</trkpt>
<trkpt lat="64.124992371" lon="-21.784410477">
<ele>45.134766</ele>
<time>2012-07-18T13:01:05Z</time>
<speed>4.870000</speed>
<extensions>
<speed>4.9</speed>
<temp>0.00</temp>
<bpm>0</bpm>
<rpm>0.00</rpm>
</extensions>
</trkpt>
<trkpt lat="64.125076294" lon="-21.783903122">
<ele>47.107422</ele>
<time>2012-07-18T13:01:10Z</time>
<speed>5.410000</speed>
<extensions>
<speed>5.4</speed>
<temp>0.00</temp>
<bpm>0</bpm>
<rpm>0.00</rpm>
</extensions>
</trkpt>
<trkpt lat="64.125175476" lon="-21.783393860">
<ele>47.426758</ele>
<time>2012-07-18T13:01:15Z</time>
<speed>5.650000</speed>
<extensions>
<speed>5.7</speed>
<temp>0.00</temp>
<bpm>0</bpm>
<rpm>0.00</rpm>
</extensions>
</trkpt>
<trkpt lat="64.125274658" lon="-21.782855988">
<ele>46.406250</ele>
<time>2012-07-18T13:01:20Z</time>
<speed>5.610000</speed>
<extensions>
<speed>5.6</speed>
<temp>0.00</temp>
<bpm>0</bpm>
<rpm>0.00</rpm>
</extensions>
</trkpt>
<trkpt lat="64.125389099" lon="-21.782348633">
<ele>47.102539</ele>
<time>2012-07-18T13:01:25Z</time>
<speed>5.560000</speed>
<extensions>
<speed>5.6</speed>
<temp>0.00</temp>
<bpm>0</bpm>
<rpm>0.00</rpm>
</extensions>
</trkpt>
<trkpt lat="64.125495911" lon="-21.781845093">
<ele>45.823242</ele>
<time>2012-07-18T13:01:30Z</time>
<speed>5.680000</speed>
<extensions>
<speed>5.7</speed>
<temp>0.00</temp>
<bpm>0</bpm>
<rpm>0.00</rpm>
</extensions>
</trkpt>
<trkpt lat="64.125610352" lon="-21.781324387">
<ele>45.125000</ele>
<time>2012-07-18T13:01:35Z</time>
<speed>5.690000</speed>
<extensions>
<speed>5.7</speed>
<temp>0.00</temp>
<bpm>0</bpm>
<rpm>0.00</rpm>
</extensions>
</trkpt>
<trkpt lat="64.125740051" lon="-21.780815125">
<ele>45.611328</ele>
<time>2012-07-18T13:01:40Z</time>
<speed>5.750000</speed>
<extensions>
<speed>5.8</speed>
<temp>0.00</temp>
<bpm>0</bpm>
<rpm>0.00</rpm>
</extensions>
</trkpt>
<trkpt lat="64.125869751" lon="-21.780319214">
<ele>43.906250</ele>
<time>2012-07-18T13:01:45Z</time>
<speed>5.710000</speed>
<extensions>
<speed>5.7</speed>
<temp>0.00</temp>
<bpm>0</bpm>
<rpm>0.00</rpm>
</extensions>
</trkpt>
<trkpt lat="64.125999451" lon="-21.779838562">
<ele>41.762695</ele>
<time>2012-07-18T13:01:50Z</time>
<speed>5.580000</speed>
<extensions>
<speed>5.6</speed>
<temp>0.00</temp>
<bpm>0</bpm>
<rpm>0.00</rpm>
</extensions>
</trkpt>
<trkpt lat="64.126121521" lon="-21.779367447">
<ele>37.732422</ele>
<time>2012-07-18T13:01:55Z</time>
<speed>5.520000</speed>
<extensions>
<speed>5.5</speed>
<temp>0.00</temp>
<bpm>0</bpm>
<rpm>0.00</rpm>
</extensions>
</trkpt>
<trkpt lat="64.126251221" lon="-21.778902054">
<ele>38.218750</ele>
<time>2012-07-18T13:02:00Z</time>
<speed>5.440000</speed>
<extensions>
<speed>5.4</speed>
<temp>0.00</temp>
<bpm>0</bpm>
<rpm>0.00</rpm>
</extensions>
</trkpt>
<trkpt lat="64.126388550" lon="-21.778457642">
<ele>37.239258</ele>
<time>2012-07-18T13:02:05Z</time>
<speed>5.210000</speed>
<extensions>
<speed>5.2</speed>
<temp>0.00</temp>
<bpm>0</bpm>
<rpm>0.00</rpm>
</extensions>
</trkpt>
<trkpt lat="64.126525879" lon="-21.778047562">
<ele>37.221680</ele>
<time>2012-07-18T13:02:10Z</time>
<speed>4.910000</speed>
<extensions>
<speed>4.9</speed>
<temp>0.00</temp>
<bpm>0</bpm>
<rpm>0.00</rpm>
</extensions>
</trkpt>
<trkpt lat="64.126663208" lon="-21.777650833">
<ele>35.832031</ele>
<time>2012-07-18T13:02:15Z</time>
<speed>4.940000</speed>
<extensions>
<speed>4.9</speed>
<temp>0.00</temp>
<bpm>0</bpm>
<rpm>0.00</rpm>
</extensions>
</trkpt>
<trkpt lat="64.126800537" lon="-21.777259827">
<ele>35.273438</ele>
<time>2012-07-18T13:02:20Z</time>
<speed>4.870000</speed>
<extensions>
<speed>4.9</speed>
<temp>0.00</temp>
<bpm>0</bpm>
<rpm>0.00</rpm>
</extensions>
</trkpt>
<trkpt lat="64.126937866" lon="-21.776880264">
<ele>35.434570</ele>
<time>2012-07-18T13:02:25Z</time>
<speed>4.660000</speed>
<extensions>
<speed>4.7</speed>
<temp>0.00</temp>
<bpm>0</bpm>
<rpm>0.00</rpm>
</extensions>
</trkpt>
<trkpt lat="64.127067566" lon="-21.776517868">
<ele>36.470703</ele>
<time>2012-07-18T13:02:30Z</time>
<speed>4.600000</speed>
<extensions>
<speed>4.6</speed>
<temp>0.00</temp>
<bpm>0</bpm>
<rpm>0.00</rpm>
</extensions>
</trkpt>
<trkpt lat="64.127197266" lon="-21.776187897">
<ele>37.112305</ele>
<time>2012-07-18T13:02:35Z</time>
<speed>3.960000</speed>
<extensions>
<speed>4.0</speed>
<temp>0.00</temp>
<bpm>0</bpm>
<rpm>0.00</rpm>
</extensions>
</trkpt>
<trkpt lat="64.127311707" lon="-21.775888443">
<ele>36.996094</ele>
<time>2012-07-18T13:02:40Z</time>
<speed>3.860000</speed>
<extensions>
<speed>3.9</speed>
<temp>0.00</temp>
<bpm>0</bpm>
<rpm>0.00</rpm>
</extensions>
</trkpt>
<trkpt lat="64.127441406" lon="-21.775539398">
<ele>38.109375</ele>
<time>2012-07-18T13:02:45Z</time>
<speed>4.520000</speed>
<extensions>
<speed>4.5</speed>
<temp>0.00</temp>
<bpm>0</bpm>
<rpm>0.00</rpm>
</extensions>
</trkpt>
<trkpt lat="64.127571106" lon="-21.775197983">
<ele>38.694336</ele>
<time>2012-07-18T13:02:50Z</time>
<speed>4.580000</speed>
<extensions>
<speed>4.6</speed>
<temp>0.00</temp>
<bpm>0</bpm>
<rpm>0.00</rpm>
</extensions>
</trkpt>
<trkpt lat="64.127708435" lon="-21.774847031">
<ele>39.208008</ele>
<time>2012-07-18T13:02:55Z</time>
<speed>4.630000</speed>
<extensions>
<speed>4.6</speed>
<temp>0.00</temp>
<bpm>0</bpm>
<rpm>0.00</rpm>
</extensions>
</trkpt>
<trkpt lat="64.127845764" lon="-21.774480820">
<ele>39.426758</ele>
<time>2012-07-18T13:03:00Z</time>
<speed>4.700000</speed>
<extensions>
<speed>4.7</speed>
<temp>0.00</temp>
<bpm>0</bpm>
<rpm>0.00</rpm>
</extensions>
</trkpt>
<trkpt lat="64.127983093" lon="-21.774129868">
<ele>40.026367</ele>
<time>2012-07-18T13:03:05Z</time>
<speed>4.310000</speed>
<extensions>
<speed>4.3</speed>
<temp>0.00</temp>
<bpm>0</bpm>
<rpm>0.00</rpm>
</extensions>
</trkpt>
<trkpt lat="64.128074646" lon="-21.773817062">
<ele>40.754883</ele>
<time>2012-07-18T13:03:10Z</time>
<speed>3.310000</speed>
<extensions>
<speed>3.3</speed>
<temp>0.00</temp>
<bpm>0</bpm>
<rpm>0.00</rpm>
</extensions>
</trkpt>
<trkpt lat="64.128173828" lon="-21.773553848">
<ele>41.880859</ele>
<time>2012-07-18T13:03:15Z</time>
<speed>3.270000</speed>
<extensions>
<speed>3.3</speed>
<temp>0.00</temp>
<bpm>0</bpm>
<rpm>0.00</rpm>
</extensions>
</trkpt>
<trkpt lat="64.128280640" lon="-21.773256302">
<ele>41.819336</ele>
<time>2012-07-18T13:03:20Z</time>
<speed>4.000000</speed>
<extensions>
<speed>4.0</speed>
<temp>0.00</temp>
<bpm>0</bpm>
<rpm>0.00</rpm>
</extensions>
</trkpt>
<trkpt lat="64.128402710" lon="-21.772939682">
<ele>41.675781</ele>
<time>2012-07-18T13:03:25Z</time>
<speed>4.110000</speed>
<extensions>
<speed>4.1</speed>
<temp>0.00</temp>
<bpm>0</bpm>
<rpm>0.00</rpm>
</extensions>
</trkpt>
<trkpt lat="64.128532410" lon="-21.772626877">
<ele>41.941406</ele>
<time>2012-07-18T13:03:30Z</time>
<speed>4.200000</speed>
<extensions>
<speed>4.2</speed>
<temp>0.00</temp>
<bpm>0</bpm>
<rpm>0.00</rpm>
</extensions>
</trkpt>
<trkpt lat="64.128654480" lon="-21.772310257">
<ele>41.768555</ele>
<time>2012-07-18T13:03:35Z</time>
<speed>4.130000</speed>
<extensions>
<speed>4.1</speed>
<temp>0.00</temp>
<bpm>0</bpm>
<rpm>0.00</rpm>
</extensions>
</trkpt>
<trkpt lat="64.128776550" lon="-21.771999359">
<ele>41.893555</ele>
<time>2012-07-18T13:03:40Z</time>
<speed>4.190000</speed>
<extensions>
<speed>4.2</speed>
<temp>0.00</temp>
<bpm>0</bpm>
<rpm>0.00</rpm>
</extensions>
</trkpt>
<trkpt lat="64.128913879" lon="-21.771667480">
<ele>41.360352</ele>
<time>2012-07-18T13:03:45Z</time>
<speed>4.480000</speed>
<extensions>
<speed>4.5</speed>
<temp>0.00</temp>
<bpm>0</bpm>
<rpm>0.00</rpm>
</extensions>
</trkpt>
<trkpt lat="64.129013062" lon="-21.771352768">
<ele>41.800781</ele>
<time>2012-07-18T13:03:50Z</time>
<speed>3.600000</speed>
<extensions>
<speed>3.6</speed>
<temp>0.00</temp>
<bpm>0</bpm>
<rpm>0.00</rpm>
</extensions>
</trkpt>
<trkpt lat="64.129127502" lon="-21.771053314">
<ele>42.090820</ele>
<time>2012-07-18T13:03:55Z</time>
<speed>3.890000</speed>
<extensions>
<speed>3.9</speed>
<temp>0.00</temp>
<bpm>0</bpm>
<rpm>0.00</rpm>
</extensions>
</trkpt>
<trkpt lat="64.129249573" lon="-21.770769119">
<ele>41.294922</ele>
<time>2012-07-18T13:04:00Z</time>
<speed>3.890000</speed>
<extensions>
<speed>3.9</speed>
<temp>0.00</temp>
<bpm>0</bpm>
<rpm>0.00</rpm>
</extensions>
</trkpt>
<trkpt lat="64.129356384" lon="-21.770475388">
<ele>41.556641</ele>
<time>2012-07-18T13:04:05Z</time>
<speed>3.980000</speed>
<extensions>
<speed>4.0</speed>
<temp>0.00</temp>
<bpm>0</bpm>
<rpm>0.00</rpm>
</extensions>
</trkpt>
<trkpt lat="64.129470825" lon="-21.770170212">
<ele>41.121094</ele>
<time>2012-07-18T13:04:10Z</time>
<speed>4.160000</speed>
<extensions>
<speed>4.2</speed>
<temp>0.00</temp>
<bpm>0</bpm>
<rpm>0.00</rpm>
</extensions>
</trkpt>
<trkpt lat="64.129608154" lon="-21.769847870">
<ele>40.878906</ele>
<time>2012-07-18T13:04:15Z</time>
<speed>4.300000</speed>
<extensions>
<speed>4.3</speed>
<temp>0.00</temp>
<bpm>0</bpm>
<rpm>0.00</rpm>
</extensions>
</trkpt>
<trkpt lat="64.129730225" lon="-21.769495010">
<ele>42.040039</ele>
<time>2012-07-18T13:04:20Z</time>
<speed>4.390000</speed>
<extensions>
<speed>4.4</speed>
<temp>0.00</temp>
<bpm>0</bpm>
<rpm>0.00</rpm>
</extensions>
</trkpt>
<trkpt lat="64.129859924" lon="-21.769155502">
<ele>42.913086</ele>
<time>2012-07-18T13:04:25Z</time>
<speed>4.320000</speed>
<extensions>
<speed>4.3</speed>
<temp>0.00</temp>
<bpm>0</bpm>
<rpm>0.00</rpm>
</extensions>
</trkpt>
<trkpt lat="64.129981995" lon="-21.768840790">
<ele>43.297852</ele>
<time>2012-07-18T13:04:30Z</time>
<speed>3.950000</speed>
<extensions>
<speed>4.0</speed>
<temp>0.00</temp>
<bpm>0</bpm>
<rpm>0.00</rpm>
</extensions>
</trkpt>
<trkpt lat="64.130088806" lon="-21.768535614">
<ele>42.745117</ele>
<time>2012-07-18T13:04:35Z</time>
<speed>3.670000</speed>
<extensions>
<speed>3.7</speed>
<temp>0.00</temp>
<bpm>0</bpm>
<rpm>0.00</rpm>
</extensions>
</trkpt>
<trkpt lat="64.130203247" lon="-21.768249512">
<ele>42.586914</ele>
<time>2012-07-18T13:04:40Z</time>
<speed>3.830000</speed>
<extensions>
<speed>3.8</speed>
<temp>0.00</temp>
<bpm>0</bpm>
<rpm>0.00</rpm>
</extensions>
</trkpt>
<trkpt lat="64.130317688" lon="-21.768041611">
<ele>44.634766</ele>
<time>2012-07-18T13:04:45Z</time>
<speed>2.720000</speed>
<extensions>
<speed>2.7</speed>
<temp>0.00</temp>
<bpm>0</bpm>
<rpm>0.00</rpm>
</extensions>
</trkpt>
<trkpt lat="64.130401611" lon="-21.767808914">
<ele>45.334961</ele>
<time>2012-07-18T13:04:50Z</time>
<speed>3.150000</speed>
<extensions>
<speed>3.2</speed>
<temp>0.00</temp>
<bpm>0</bpm>
<rpm>0.00</rpm>
</extensions>
</trkpt>
<trkpt lat="64.130500793" lon="-21.767520905">
<ele>46.908203</ele>
<time>2012-07-18T13:04:55Z</time>
<speed>3.770000</speed>
<extensions>
<speed>3.8</speed>
<temp>0.00</temp>
<bpm>0</bpm>
<rpm>0.00</rpm>
</extensions>
</trkpt>
<trkpt lat="64.130622864" lon="-21.767221451">
<ele>47.888672</ele>
<time>2012-07-18T13:05:00Z</time>
<speed>3.920000</speed>
<extensions>
<speed>3.9</speed>
<temp>0.00</temp>
<bpm>0</bpm>
<rpm>0.00</rpm>
</extensions>
</trkpt>
<trkpt lat="64.130737305" lon="-21.766902924">
<ele>49.209961</ele>
<time>2012-07-18T13:05:05Z</time>
<speed>4.010000</speed>
<extensions>
<speed>4.0</speed>
<temp>0.00</temp>
<bpm>0</bpm>
<rpm>0.00</rpm>
</extensions>
</trkpt>
<trkpt lat="64.130867004" lon="-21.766603470">
<ele>48.508789</ele>
<time>2012-07-18T13:05:10Z</time>
<speed>4.300000</speed>
<extensions>
<speed>4.3</speed>
<temp>0.00</temp>
<bpm>0</bpm>
<rpm>0.00</rpm>
</extensions>
</trkpt>
<trkpt lat="64.131004333" lon="-21.766290665">
<ele>47.623047</ele>
<time>2012-07-18T13:05:15Z</time>
<speed>4.110000</speed>
<extensions>
<speed>4.1</speed>
<temp>0.00</temp>
<bpm>0</bpm>
<rpm>0.00</rpm>
</extensions>
</trkpt>
<trkpt lat="64.131134033" lon="-21.765991211">
<ele>46.001953</ele>
<time>2012-07-18T13:05:20Z</time>
<speed>4.290000</speed>
<extensions>
<speed>4.3</speed>
<temp>0.00</temp>
<bpm>0</bpm>
<rpm>0.00</rpm>
</extensions>
</trkpt>
<trkpt lat="64.131271362" lon="-21.765684128">
<ele>47.304688</ele>
<time>2012-07-18T13:05:25Z</time>
<speed>4.210000</speed>
<extensions>
<speed>4.2</speed>
<temp>0.00</temp>
<bpm>0</bpm>
<rpm>0.00</rpm>
</extensions>
</trkpt>
<trkpt lat="64.131408691" lon="-21.765382767">
<ele>47.825195</ele>
<time>2012-07-18T13:05:30Z</time>
<speed>4.260000</speed>
<extensions>
<speed>4.3</speed>
<temp>0.00</temp>
<bpm>0</bpm>
<rpm>0.00</rpm>
</extensions>
</trkpt>
<trkpt lat="64.131530762" lon="-21.765157700">
<ele>48.865234</ele>
<time>2012-07-18T13:05:35Z</time>
<speed>2.910000</speed>
<extensions>
<speed>2.9</speed>
<temp>0.00</temp>
<bpm>0</bpm>
<rpm>0.00</rpm>
</extensions>
</trkpt>
<trkpt lat="64.131645203" lon="-21.764925003">
<ele>51.587891</ele>
<time>2012-07-18T13:05:40Z</time>
<speed>3.700000</speed>
<extensions>
<speed>3.7</speed>
<temp>0.00</temp>
<bpm>0</bpm>
<rpm>0.00</rpm>
</extensions>
</trkpt>
<trkpt lat="64.131797791" lon="-21.764667511">
<ele>51.204102</ele>
<time>2012-07-18T13:05:45Z</time>
<speed>4.310000</speed>
<extensions>
<speed>4.3</speed>
<temp>0.00</temp>
<bpm>0</bpm>
<rpm>0.00</rpm>
</extensions>
</trkpt>
<trkpt lat="64.131942749" lon="-21.764423370">
<ele>50.450195</ele>
<time>2012-07-18T13:05:50Z</time>
<speed>3.510000</speed>
<extensions>
<speed>3.5</speed>
<temp>0.00</temp>
<bpm>0</bpm>
<rpm>0.00</rpm>
</extensions>
</trkpt>
<trkpt lat="64.132041931" lon="-21.764234543">
<ele>49.850586</ele>
<time>2012-07-18T13:05:55Z</time>
<speed>2.460000</speed>
<extensions>
<speed>2.5</speed>
<temp>0.00</temp>
<bpm>0</bpm>
<rpm>0.00</rpm>
</extensions>
</trkpt>
<trkpt lat="64.132118225" lon="-21.764097214">
<ele>48.302734</ele>
<time>2012-07-18T13:06:00Z</time>
<speed>2.250000</speed>
<extensions>
<speed>2.3</speed>
<temp>0.00</temp>
<bpm>0</bpm>
<rpm>0.00</rpm>
</extensions>
</trkpt>
<trkpt lat="64.132202148" lon="-21.763975143">
<ele>46.138672</ele>
<time>2012-07-18T13:06:05Z</time>
<speed>1.690000</speed>
<extensions>
<speed>1.7</speed>
<temp>0.00</temp>
<bpm>0</bpm>
<rpm>0.00</rpm>
</extensions>
</trkpt>
<trkpt lat="64.132270813" lon="-21.763885498">
<ele>47.731445</ele>
<time>2012-07-18T13:06:10Z</time>
<speed>1.990000</speed>
<extensions>
<speed>2.0</speed>
<temp>0.00</temp>
<bpm>0</bpm>
<rpm>0.00</rpm>
</extensions>
</trkpt>
<trkpt lat="64.132324219" lon="-21.763790131">
<ele>48.189453</ele>
<time>2012-07-18T13:06:15Z</time>
<speed>1.220000</speed>
<extensions>
<speed>1.2</speed>
<temp>0.00</temp>
<bpm>0</bpm>
<rpm>0.00</rpm>
</extensions>
</trkpt>
<trkpt lat="64.132385254" lon="-21.763662338">
<ele>50.467773</ele>
<time>2012-07-18T13:06:20Z</time>
<speed>2.180000</speed>
<extensions>
<speed>2.2</speed>
<temp>0.00</temp>
<bpm>0</bpm>
<rpm>0.00</rpm>
</extensions>
</trkpt>
<trkpt lat="64.132423401" lon="-21.763565063">
<ele>52.812500</ele>
<time>2012-07-18T13:06:25Z</time>
<speed>0.570000</speed>
<extensions>
<speed>0.6</speed>
<temp>0.00</temp>
<bpm>0</bpm>
<rpm>0.00</rpm>
</extensions>
</trkpt>
<trkpt lat="64.132446289" lon="-21.763530731">
<ele>54.212891</ele>
<time>2012-07-18T13:06:30Z</time>
<speed>0.520000</speed>
<extensions>
<speed>0.5</speed>
<temp>0.00</temp>
<bpm>0</bpm>
<rpm>0.00</rpm>
</extensions>
</trkpt>
<trkpt lat="64.132469177" lon="-21.763513565">
<ele>55.391602</ele>
<time>2012-07-18T13:06:35Z</time>
<speed>0.360000</speed>
<extensions>
<speed>0.4</speed>
<temp>0.00</temp>
<bpm>0</bpm>
<rpm>0.00</rpm>
</extensions>
</trkpt>
<trkpt lat="64.132476807" lon="-21.763490677">
<ele>56.353516</ele>
<time>2012-07-18T13:06:40Z</time>
<speed>0.280000</speed>
<extensions>
<speed>0.3</speed>
<temp>0.00</temp>
<bpm>0</bpm>
<rpm>0.00</rpm>
</extensions>
</trkpt>
<trkpt lat="64.132484436" lon="-21.763463974">
<ele>56.908203</ele>
<time>2012-07-18T13:06:45Z</time>
<speed>0.230000</speed>
<extensions>
<speed>0.2</speed>
<temp>0.00</temp>
<bpm>0</bpm>
<rpm>0.00</rpm>
</extensions>
</trkpt>
<trkpt lat="64.132484436" lon="-21.763444901">
<ele>57.207031</ele>
<time>2012-07-18T13:06:50Z</time>
<speed>0.190000</speed>
<extensions>
<speed>0.2</speed>
<temp>0.00</temp>
<bpm>0</bpm>
<rpm>0.00</rpm>
</extensions>
</trkpt>
<trkpt lat="64.132476807" lon="-21.763427734">
<ele>57.325195</ele>
<time>2012-07-18T13:06:55Z</time>
<speed>0.170000</speed>
<extensions>
<speed>0.2</speed>
<temp>0.00</temp>
<bpm>0</bpm>
<rpm>0.00</rpm>
</extensions>
</trkpt>
<trkpt lat="64.132476807" lon="-21.763414383">
<ele>57.369141</ele>
<time>2012-07-18T13:07:00Z</time>
<speed>0.080000</speed>
<extensions>
<speed>0.1</speed>
<temp>0.00</temp>
<bpm>0</bpm>
<rpm>0.00</rpm>
</extensions>
</trkpt>
<trkpt lat="64.132476807" lon="-21.763404846">
<ele>57.377930</ele>
<time>2012-07-18T13:07:05Z</time>
<speed>0.070000</speed>
<extensions>
<speed>0.1</speed>
<temp>0.00</temp>
<bpm>0</bpm>
<rpm>0.00</rpm>
</extensions>
</trkpt>
<trkpt lat="64.132476807" lon="-21.763401031">
<ele>57.391602</ele>
<time>2012-07-18T13:07:10Z</time>
<speed>0.160000</speed>
<extensions>
<speed>0.2</speed>
<temp>0.00</temp>
<bpm>0</bpm>
<rpm>0.00</rpm>
</extensions>
</trkpt>
<trkpt lat="64.132476807" lon="-21.763391495">
<ele>57.400391</ele>
<time>2012-07-18T13:07:15Z</time>
<speed>0.140000</speed>
<extensions>
<speed>0.1</speed>
<temp>0.00</temp>
<bpm>0</bpm>
<rpm>0.00</rpm>
</extensions>
</trkpt>
<trkpt lat="64.132469177" lon="-21.763381958">
<ele>57.401367</ele>
<time>2012-07-18T13:07:20Z</time>
<speed>0.100000</speed>
<extensions>
<speed>0.1</speed>
<temp>0.00</temp>
<bpm>0</bpm>
<rpm>0.00</rpm>
</extensions>
</trkpt>
<trkpt lat="64.132469177" lon="-21.763370514">
<ele>57.409180</ele>
<time>2012-07-18T13:07:25Z</time>
<speed>0.150000</speed>
<extensions>
<speed>0.2</speed>
<temp>0.00</temp>
<bpm>0</bpm>
<rpm>0.00</rpm>
</extensions>
</trkpt>
<trkpt lat="64.132469177" lon="-21.763370514">
<ele>57.416016</ele>
<time>2012-07-18T13:07:30Z</time>
<speed>0.190000</speed>
<extensions>
<speed>0.2</speed>
<temp>0.00</temp>
<bpm>0</bpm>
<rpm>0.00</rpm>
</extensions>
</trkpt>
<trkpt lat="64.132476807" lon="-21.763378143">
<ele>57.418945</ele>
<time>2012-07-18T13:07:35Z</time>
<speed>0.060000</speed>
<extensions>
<speed>0.1</speed>
<temp>0.00</temp>
<bpm>0</bpm>
<rpm>0.00</rpm>
</extensions>
</trkpt>
<trkpt lat="64.132484436" lon="-21.763383865">
<ele>57.416992</ele>
<time>2012-07-18T13:07:40Z</time>
<speed>0.230000</speed>
<extensions>
<speed>0.2</speed>
<temp>0.00</temp>
<bpm>0</bpm>
<rpm>0.00</rpm>
</extensions>
</trkpt>
<trkpt lat="64.132476807" lon="-21.763380051">
<ele>57.400391</ele>
<time>2012-07-18T13:07:45Z</time>
<speed>0.120000</speed>
<extensions>
<speed>0.1</speed>
<temp>0.00</temp>
<bpm>0</bpm>
<rpm>0.00</rpm>
</extensions>
</trkpt>
<trkpt lat="64.132476807" lon="-21.763402939">
<ele>57.348633</ele>
<time>2012-07-18T13:07:50Z</time>
<speed>0.410000</speed>
<extensions>
<speed>0.4</speed>
<temp>0.00</temp>
<bpm>0</bpm>
<rpm>0.00</rpm>
</extensions>
</trkpt>
<trkpt lat="64.132461548" lon="-21.763429642">
<ele>57.233398</ele>
<time>2012-07-18T13:07:55Z</time>
<speed>0.380000</speed>
<extensions>
<speed>0.4</speed>
<temp>0.00</temp>
<bpm>0</bpm>
<rpm>0.00</rpm>
</extensions>
</trkpt>
<trkpt lat="64.132453918" lon="-21.763463974">
<ele>57.053711</ele>
<time>2012-07-18T13:08:00Z</time>
<speed>0.240000</speed>
<extensions>
<speed>0.2</speed>
<temp>0.00</temp>
<bpm>0</bpm>
<rpm>0.00</rpm>
</extensions>
</trkpt>
<trkpt lat="64.132453918" lon="-21.763475418">
<ele>56.915039</ele>
<time>2012-07-18T13:08:05Z</time>
<speed>0.020000</speed>
<extensions>
<speed>0.0</speed>
<temp>0.00</temp>
<bpm>0</bpm>
<rpm>0.00</rpm>
</extensions>
</trkpt>
<trkpt lat="64.132461548" lon="-21.763473511">
<ele>56.856445</ele>
<time>2012-07-18T13:08:10Z</time>
<speed>0.250000</speed>
<extensions>
<speed>0.2</speed>
<temp>0.00</temp>
<bpm>0</bpm>
<rpm>0.00</rpm>
</extensions>
</trkpt>
<trkpt lat="64.132499695" lon="-21.763473511">
<ele>56.670898</ele>
<time>2012-07-18T13:08:15Z</time>
<speed>1.120000</speed>
<extensions>
<speed>1.1</speed>
<temp>0.00</temp>
<bpm>0</bpm>
<rpm>0.00</rpm>
</extensions>
</trkpt>
<trkpt lat="64.132530212" lon="-21.763492584">
<ele>56.772461</ele>
<time>2012-07-18T13:08:20Z</time>
<speed>0.180000</speed>
<extensions>
<speed>0.2</speed>
<temp>0.00</temp>
<bpm>0</bpm>
<rpm>0.00</rpm>
</extensions>
</trkpt>
<trkpt lat="64.132537842" lon="-21.763486862">
<ele>56.855469</ele>
<time>2012-07-18T13:08:25Z</time>
<speed>0.180000</speed>
<extensions>
<speed>0.2</speed>
<temp>0.00</temp>
<bpm>0</bpm>
<rpm>0.00</rpm>
</extensions>
</trkpt>
<trkpt lat="64.132545471" lon="-21.763481140">
<ele>56.935547</ele>
<time>2012-07-18T13:08:30Z</time>
<speed>0.140000</speed>
<extensions>
<speed>0.1</speed>
<temp>0.00</temp>
<bpm>0</bpm>
<rpm>0.00</rpm>
</extensions>
</trkpt>
<trkpt lat="64.132553101" lon="-21.763477325">
<ele>57.032227</ele>
<time>2012-07-18T13:08:35Z</time>
<speed>0.050000</speed>
<extensions>
<speed>0.1</speed>
<temp>0.00</temp>
<bpm>0</bpm>
<rpm>0.00</rpm>
</extensions>
</trkpt>
<trkpt lat="64.132553101" lon="-21.763475418">
<ele>57.075195</ele>
<time>2012-07-18T13:08:40Z</time>
<speed>0.020000</speed>
<extensions>
<speed>0.0</speed>
<temp>0.00</temp>
<bpm>0</bpm>
<rpm>0.00</rpm>
</extensions>
</trkpt>
<trkpt lat="64.132553101" lon="-21.763473511">
<ele>57.191406</ele>
<time>2012-07-18T13:08:45Z</time>
<speed>0.090000</speed>
<extensions>
<speed>0.1</speed>
<temp>0.00</temp>
<bpm>0</bpm>
<rpm>0.00</rpm>
</extensions>
</trkpt>
<trkpt lat="64.132568359" lon="-21.763431549">
<ele>56.072266</ele>
<time>2012-07-18T13:08:50Z</time>
<speed>0.900000</speed>
<extensions>
<speed>0.9</speed>
<temp>0.00</temp>
<bpm>0</bpm>
<rpm>0.00</rpm>
</extensions>
</trkpt>
<trkpt lat="64.132575989" lon="-21.763393402">
<ele>53.350586</ele>
<time>2012-07-18T13:08:55Z</time>
<speed>1.900000</speed>
<extensions>
<speed>1.9</speed>
<temp>0.00</temp>
<bpm>0</bpm>
<rpm>0.00</rpm>
</extensions>
</trkpt>
<trkpt lat="64.132705688" lon="-21.763357162">
<ele>51.224609</ele>
<time>2012-07-18T13:09:00Z</time>
<speed>3.380000</speed>
<extensions>
<speed>3.4</speed>
<temp>0.00</temp>
<bpm>0</bpm>
<rpm>0.00</rpm>
</extensions>
</trkpt>
<trkpt lat="64.132835388" lon="-21.763168335">
<ele>50.541016</ele>
<time>2012-07-18T13:09:05Z</time>
<speed>3.750000</speed>
<extensions>
<speed>3.8</speed>
<temp>0.00</temp>
<bpm>0</bpm>
<rpm>0.00</rpm>
</extensions>
</trkpt>
<trkpt lat="64.132980347" lon="-21.762956619">
<ele>49.875977</ele>
<time>2012-07-18T13:09:10Z</time>
<speed>4.030000</speed>
<extensions>
<speed>4.0</speed>
<temp>0.00</temp>
<bpm>0</bpm>
<rpm>0.00</rpm>
</extensions>
</trkpt>
<trkpt lat="64.133148193" lon="-21.762731552">
<ele>48.999023</ele>
<time>2012-07-18T13:09:15Z</time>
<speed>4.260000</speed>
<extensions>
<speed>4.3</speed>
<temp>0.00</temp>
<bpm>0</bpm>
<rpm>0.00</rpm>
</extensions>
</trkpt>
<trkpt lat="64.133323669" lon="-21.762540817">
<ele>48.804688</ele>
<time>2012-07-18T13:09:20Z</time>
<speed>4.590000</speed>
<extensions>
<speed>4.6</speed>
<temp>0.00</temp>
<bpm>0</bpm>
<rpm>0.00</rpm>
</extensions>
</trkpt>
<trkpt lat="64.133514404" lon="-21.762331009">
<ele>48.858398</ele>
<time>2012-07-18T13:09:25Z</time>
<speed>4.750000</speed>
<extensions>
<speed>4.8</speed>
<temp>0.00</temp>
<bpm>0</bpm>
<rpm>0.00</rpm>
</extensions>
</trkpt>
<trkpt lat="64.133705139" lon="-21.762132645">
<ele>49.501953</ele>
<time>2012-07-18T13:09:30Z</time>
<speed>4.780000</speed>
<extensions>
<speed>4.8</speed>
<temp>0.00</temp>
<bpm>0</bpm>
<rpm>0.00</rpm>
</extensions>
</trkpt>
<trkpt lat="64.133903503" lon="-21.761911392">
<ele>49.162109</ele>
<time>2012-07-18T13:09:35Z</time>
<speed>5.190000</speed>
<extensions>
<speed>5.2</speed>
<temp>0.00</temp>
<bpm>0</bpm>
<rpm>0.00</rpm>
</extensions>
</trkpt>
<trkpt lat="64.134132385" lon="-21.761676788">
<ele>49.285156</ele>
<time>2012-07-18T13:09:40Z</time>
<speed>5.550000</speed>
<extensions>
<speed>5.5</speed>
<temp>0.00</temp>
<bpm>0</bpm>
<rpm>0.00</rpm>
</extensions>
</trkpt>
<trkpt lat="64.134353638" lon="-21.761442184">
<ele>49.195313</ele>
<time>2012-07-18T13:09:45Z</time>
<speed>5.610000</speed>
<extensions>
<speed>5.6</speed>
<temp>0.00</temp>
<bpm>0</bpm>
<rpm>0.00</rpm>
</extensions>
</trkpt>
<trkpt lat="64.134597778" lon="-21.761215210">
<ele>49.165039</ele>
<time>2012-07-18T13:09:50Z</time>
<speed>5.830000</speed>
<extensions>
<speed>5.8</speed>
<temp>0.00</temp>
<bpm>0</bpm>
<rpm>0.00</rpm>
</extensions>
</trkpt>
<trkpt lat="64.134834290" lon="-21.760999680">
<ele>49.036133</ele>
<time>2012-07-18T13:09:55Z</time>
<speed>5.810000</speed>
<extensions>
<speed>5.8</speed>
<temp>0.00</temp>
<bpm>0</bpm>
<rpm>0.00</rpm>
</extensions>
</trkpt>
<trkpt lat="64.135078430" lon="-21.760770798">
<ele>49.125977</ele>
<time>2012-07-18T13:10:00Z</time>
<speed>5.880000</speed>
<extensions>
<speed>5.9</speed>
<temp>0.00</temp>
<bpm>0</bpm>
<rpm>0.00</rpm>
</extensions>
</trkpt>
<trkpt lat="64.135322571" lon="-21.760557175">
<ele>49.098633</ele>
<time>2012-07-18T13:10:05Z</time>
<speed>5.890000</speed>
<extensions>
<speed>5.9</speed>
<temp>0.00</temp>
<bpm>0</bpm>
<rpm>0.00</rpm>
</extensions>
</trkpt>
<trkpt lat="64.135574341" lon="-21.760345459">
<ele>49.208008</ele>
<time>2012-07-18T13:10:10Z</time>
<speed>5.790000</speed>
<extensions>
<speed>5.8</speed>
<temp>0.00</temp>
<bpm>0</bpm>
<rpm>0.00</rpm>
</extensions>
</trkpt>
<trkpt lat="64.135818481" lon="-21.760147095">
<ele>48.920898</ele>
<time>2012-07-18T13:10:15Z</time>
<speed>5.540000</speed>
<extensions>
<speed>5.5</speed>
<temp>0.00</temp>
<bpm>0</bpm>
<rpm>0.00</rpm>
</extensions>
</trkpt>
<trkpt lat="64.135971069" lon="-21.759897232">
<ele>48.496094</ele>
<time>2012-07-18T13:10:20Z</time>
<speed>2.260000</speed>
<extensions>
<speed>2.3</speed>
<temp>0.00</temp>
<bpm>0</bpm>
<rpm>0.00</rpm>
</extensions>
</trkpt>
<trkpt lat="64.136001587" lon="-21.759723663">
<ele>47.165039</ele>
<time>2012-07-18T13:10:25Z</time>
<speed>1.870000</speed>
<extensions>
<speed>1.9</speed>
<temp>0.00</temp>
<bpm>0</bpm>
<rpm>0.00</rpm>
</extensions>
</trkpt>
<trkpt lat="64.136001587" lon="-21.759511948">
<ele>47.086914</ele>
<time>2012-07-18T13:10:30Z</time>
<speed>2.030000</speed>
<extensions>
<speed>2.0</speed>
<temp>0.00</temp>
<bpm>0</bpm>
<rpm>0.00</rpm>
</extensions>
</trkpt>
<trkpt lat="64.136054993" lon="-21.759338379">
<ele>47.708984</ele>
<time>2012-07-18T13:10:35Z</time>
<speed>2.730000</speed>
<extensions>
<speed>2.7</speed>
<temp>0.00</temp>
<bpm>0</bpm>
<rpm>0.00</rpm>
</extensions>
</trkpt>
<trkpt lat="64.136169434" lon="-21.759286880">
<ele>47.976563</ele>
<time>2012-07-18T13:10:40Z</time>
<speed>3.150000</speed>
<extensions>
<speed>3.2</speed>
<temp>0.00</temp>
<bpm>0</bpm>
<rpm>0.00</rpm>
</extensions>
</trkpt>
<trkpt lat="64.136322021" lon="-21.759206772">
<ele>49.329102</ele>
<time>2012-07-18T13:10:45Z</time>
<speed>3.870000</speed>
<extensions>
<speed>3.9</speed>
<temp>0.00</temp>
<bpm>0</bpm>
<rpm>0.00</rpm>
</extensions>
</trkpt>
<trkpt lat="64.136497498" lon="-21.759124756">
<ele>49.480469</ele>
<time>2012-07-18T13:10:50Z</time>
<speed>3.880000</speed>
<extensions>
<speed>3.9</speed>
<temp>0.00</temp>
<bpm>0</bpm>
<rpm>0.00</rpm>
</extensions>
</trkpt>
<trkpt lat="64.136672974" lon="-21.759002686">
<ele>50.458008</ele>
<time>2012-07-18T13:10:55Z</time>
<speed>4.000000</speed>
<extensions>
<speed>4.0</speed>
<temp>0.00</temp>
<bpm>0</bpm>
<rpm>0.00</rpm>
</extensions>
</trkpt>
<trkpt lat="64.136856079" lon="-21.758888245">
<ele>51.290039</ele>
<time>2012-07-18T13:11:00Z</time>
<speed>4.340000</speed>
<extensions>
<speed>4.3</speed>
<temp>0.00</temp>
<bpm>0</bpm>
<rpm>0.00</rpm>
</extensions>
</trkpt>
<trkpt lat="64.137039185" lon="-21.758781433">
<ele>53.318359</ele>
<time>2012-07-18T13:11:05Z</time>
<speed>4.470000</speed>
<extensions>
<speed>4.5</speed>
<temp>0.00</temp>
<bpm>0</bpm>
<rpm>0.00</rpm>
</extensions>
</trkpt>
<trkpt lat="64.137245178" lon="-21.758668900">
<ele>51.837891</ele>
<time>2012-07-18T13:11:10Z</time>
<speed>4.780000</speed>
<extensions>
<speed>4.8</speed>
<temp>0.00</temp>
<bpm>0</bpm>
<rpm>0.00</rpm>
</extensions>
</trkpt>
<trkpt lat="64.137451172" lon="-21.758539200">
<ele>52.550781</ele>
<time>2012-07-18T13:11:15Z</time>
<speed>4.880000</speed>
<extensions>
<speed>4.9</speed>
<temp>0.00</temp>
<bpm>0</bpm>
<rpm>0.00</rpm>
</extensions>
</trkpt>
<trkpt lat="64.137672424" lon="-21.758394241">
<ele>55.815430</ele>
<time>2012-07-18T13:11:20Z</time>
<speed>5.080000</speed>
<extensions>
<speed>5.1</speed>
<temp>0.00</temp>
<bpm>0</bpm>
<rpm>0.00</rpm>
</extensions>
</trkpt>
<trkpt lat="64.137893677" lon="-21.758256912">
<ele>55.447266</ele>
<time>2012-07-18T13:11:25Z</time>
<speed>4.710000</speed>
<extensions>
<speed>4.7</speed>
<temp>0.00</temp>
<bpm>0</bpm>
<rpm>0.00</rpm>
</extensions>
</trkpt>
<trkpt lat="64.138099670" lon="-21.758102417">
<ele>56.594727</ele>
<time>2012-07-18T13:11:30Z</time>
<speed>4.830000</speed>
<extensions>
<speed>4.8</speed>
<temp>0.00</temp>
<bpm>0</bpm>
<rpm>0.00</rpm>
</extensions>
</trkpt>
<trkpt lat="64.138298035" lon="-21.757963181">
<ele>57.034180</ele>
<time>2012-07-18T13:11:35Z</time>
<speed>4.550000</speed>
<extensions>
<speed>4.5</speed>
<temp>0.00</temp>
<bpm>0</bpm>
<rpm>0.00</rpm>
</extensions>
</trkpt>
<trkpt lat="64.138473511" lon="-21.757884979">
<ele>53.466797</ele>
<time>2012-07-18T13:11:40Z</time>
<speed>3.880000</speed>
<extensions>
<speed>3.9</speed>
<temp>0.00</temp>
<bpm>0</bpm>
<rpm>0.00</rpm>
</extensions>
</trkpt>
<trkpt lat="64.138626099" lon="-21.757789612">
<ele>54.394531</ele>
<time>2012-07-18T13:11:45Z</time>
<speed>3.100000</speed>
<extensions>
<speed>3.1</speed>
<temp>0.00</temp>
<bpm>0</bpm>
<rpm>0.00</rpm>
</extensions>
</trkpt>
<trkpt lat="64.138725281" lon="-21.757642746">
<ele>56.050781</ele>
<time>2012-07-18T13:11:50Z</time>
<speed>2.960000</speed>
<extensions>
<speed>3.0</speed>
<temp>0.00</temp>
<bpm>0</bpm>
<rpm>0.00</rpm>
</extensions>
</trkpt>
<trkpt lat="64.138862610" lon="-21.757507324">
<ele>56.888672</ele>
<time>2012-07-18T13:11:55Z</time>
<speed>3.400000</speed>
<extensions>
<speed>3.4</speed>
<temp>0.00</temp>
<bpm>0</bpm>
<rpm>0.00</rpm>
</extensions>
</trkpt>
<trkpt lat="64.139022827" lon="-21.757373810">
<ele>55.782227</ele>
<time>2012-07-18T13:12:00Z</time>
<speed>3.530000</speed>
<extensions>
<speed>3.5</speed>
<temp>0.00</temp>
<bpm>0</bpm>
<rpm>0.00</rpm>
</extensions>
</trkpt>
<trkpt lat="64.139175415" lon="-21.757286072">
<ele>53.734375</ele>
<time>2012-07-18T13:12:05Z</time>
<speed>3.730000</speed>
<extensions>
<speed>3.7</speed>
<temp>0.00</temp>
<bpm>0</bpm>
<rpm>0.00</rpm>
</extensions>
</trkpt>
<trkpt lat="64.139358521" lon="-21.757200241">
<ele>51.846680</ele>
<time>2012-07-18T13:12:10Z</time>
<speed>4.270000</speed>
<extensions>
<speed>4.3</speed>
<temp>0.00</temp>
<bpm>0</bpm>
<rpm>0.00</rpm>
</extensions>
</trkpt>
<trkpt lat="64.139533997" lon="-21.757154465">
<ele>50.584961</ele>
<time>2012-07-18T13:12:15Z</time>
<speed>3.880000</speed>
<extensions>
<speed>3.9</speed>
<temp>0.00</temp>
<bpm>0</bpm>
<rpm>0.00</rpm>
</extensions>
</trkpt>
<trkpt lat="64.139724731" lon="-21.757078171">
<ele>50.366211</ele>
<time>2012-07-18T13:12:20Z</time>
<speed>4.760000</speed>
<extensions>
<speed>4.8</speed>
<temp>0.00</temp>
<bpm>0</bpm>
<rpm>0.00</rpm>
</extensions>
</trkpt>
<trkpt lat="64.139953613" lon="-21.757026672">
<ele>49.751953</ele>
<time>2012-07-18T13:12:25Z</time>
<speed>5.460000</speed>
<extensions>
<speed>5.5</speed>
<temp>0.00</temp>
<bpm>0</bpm>
<rpm>0.00</rpm>
</extensions>
</trkpt>
<trkpt lat="64.140190125" lon="-21.756895065">
<ele>49.087891</ele>
<time>2012-07-18T13:12:30Z</time>
<speed>5.230000</speed>
<extensions>
<speed>5.2</speed>
<temp>0.00</temp>
<bpm>0</bpm>
<rpm>0.00</rpm>
</extensions>
</trkpt>
<trkpt lat="64.140388489" lon="-21.756731033">
<ele>50.086914</ele>
<time>2012-07-18T13:12:35Z</time>
<speed>4.080000</speed>
<extensions>
<speed>4.1</speed>
<temp>0.00</temp>
<bpm>0</bpm>
<rpm>0.00</rpm>
</extensions>
</trkpt>
<trkpt lat="64.140541077" lon="-21.756561279">
<ele>50.252930</ele>
<time>2012-07-18T13:12:40Z</time>
<speed>3.440000</speed>
<extensions>
<speed>3.4</speed>
<temp>0.00</temp>
<bpm>0</bpm>
<rpm>0.00</rpm>
</extensions>
</trkpt>
<trkpt lat="64.140655518" lon="-21.756410599">
<ele>52.078125</ele>
<time>2012-07-18T13:12:45Z</time>
<speed>2.350000</speed>
<extensions>
<speed>2.4</speed>
<temp>0.00</temp>
<bpm>0</bpm>
<rpm>0.00</rpm>
</extensions>
</trkpt>
<trkpt lat="64.140739441" lon="-21.756265640">
<ele>52.856445</ele>
<time>2012-07-18T13:12:50Z</time>
<speed>2.060000</speed>
<extensions>
<speed>2.1</speed>
<temp>0.00</temp>
<bpm>0</bpm>
<rpm>0.00</rpm>
</extensions>
</trkpt>
<trkpt lat="64.140800476" lon="-21.756122589">
<ele>54.094727</ele>
<time>2012-07-18T13:12:55Z</time>
<speed>2.070000</speed>
<extensions>
<speed>2.1</speed>
<temp>0.00</temp>
<bpm>0</bpm>
<rpm>0.00</rpm>
</extensions>
</trkpt>
<trkpt lat="64.140869141" lon="-21.755987167">
<ele>54.454102</ele>
<time>2012-07-18T13:13:00Z</time>
<speed>2.120000</speed>
<extensions>
<speed>2.1</speed>
<temp>0.00</temp>
<bpm>0</bpm>
<rpm>0.00</rpm>
</extensions>
</trkpt>
<trkpt lat="64.140937805" lon="-21.755853653">
<ele>54.778320</ele>
<time>2012-07-18T13:13:05Z</time>
<speed>1.930000</speed>
<extensions>
<speed>1.9</speed>
<temp>0.00</temp>
<bpm>0</bpm>
<rpm>0.00</rpm>
</extensions>
</trkpt>
<trkpt lat="64.140960693" lon="-21.755819321">
<ele>54.284180</ele>
<time>2012-07-18T13:13:10Z</time>
<speed>0.010000</speed>
<extensions>
<speed>0.0</speed>
<temp>0.00</temp>
<bpm>0</bpm>
<rpm>0.00</rpm>
</extensions>
</trkpt>
<trkpt lat="64.140960693" lon="-21.755819321">
<ele>54.387695</ele>
<time>2012-07-18T13:13:15Z</time>
<speed>0.030000</speed>
<extensions>
<speed>0.0</speed>
<temp>0.00</temp>
<bpm>0</bpm>
<rpm>0.00</rpm>
</extensions>
</trkpt>
<trkpt lat="64.140960693" lon="-21.755821228">
<ele>54.378906</ele>
<time>2012-07-18T13:13:20Z</time>
<speed>0.050000</speed>
<extensions>
<speed>0.1</speed>
<temp>0.00</temp>
<bpm>0</bpm>
<rpm>0.00</rpm>
</extensions>
</trkpt>
<trkpt lat="64.141006470" lon="-21.755762100">
<ele>54.501953</ele>
<time>2012-07-18T13:13:25Z</time>
<speed>2.320000</speed>
<extensions>
<speed>2.3</speed>
<temp>0.00</temp>
<bpm>0</bpm>
<rpm>0.00</rpm>
</extensions>
</trkpt>
<trkpt lat="64.141067505" lon="-21.755578995">
<ele>53.692383</ele>
<time>2012-07-18T13:13:30Z</time>
<speed>3.030000</speed>
<extensions>
<speed>3.0</speed>
<temp>0.00</temp>
<bpm>0</bpm>
<rpm>0.00</rpm>
</extensions>
</trkpt>
<trkpt lat="64.141136169" lon="-21.755348206">
<ele>52.684570</ele>
<time>2012-07-18T13:13:35Z</time>
<speed>2.430000</speed>
<extensions>
<speed>2.4</speed>
<temp>0.00</temp>
<bpm>0</bpm>
<rpm>0.00</rpm>
</extensions>
</trkpt>
<trkpt lat="64.141181946" lon="-21.755146027">
<ele>53.087891</ele>
<time>2012-07-18T13:13:40Z</time>
<speed>1.570000</speed>
<extensions>
<speed>1.6</speed>
<temp>0.00</temp>
<bpm>0</bpm>
<rpm>0.00</rpm>
</extensions>
</trkpt>
<trkpt lat="64.141220093" lon="-21.754961014">
<ele>54.028320</ele>
<time>2012-07-18T13:13:45Z</time>
<speed>1.710000</speed>
<extensions>
<speed>1.7</speed>
<temp>0.00</temp>
<bpm>0</bpm>
<rpm>0.00</rpm>
</extensions>
</trkpt>
<trkpt lat="64.141265869" lon="-21.754793167">
<ele>56.284180</ele>
<time>2012-07-18T13:13:50Z</time>
<speed>1.940000</speed>
<extensions>
<speed>1.9</speed>
<temp>0.00</temp>
<bpm>0</bpm>
<rpm>0.00</rpm>
</extensions>
</trkpt>
<trkpt lat="64.141304016" lon="-21.754602432">
<ele>57.279297</ele>
<time>2012-07-18T13:13:55Z</time>
<speed>2.020000</speed>
<extensions>
<speed>2.0</speed>
<temp>0.00</temp>
<bpm>0</bpm>
<rpm>0.00</rpm>
</extensions>
</trkpt>
<trkpt lat="64.141342163" lon="-21.754405975">
<ele>59.708008</ele>
<time>2012-07-18T13:14:00Z</time>
<speed>2.080000</speed>
<extensions>
<speed>2.1</speed>
<temp>0.00</temp>
<bpm>0</bpm>
<rpm>0.00</rpm>
</extensions>
</trkpt>
<trkpt lat="64.141395569" lon="-21.754201889">
<ele>62.172852</ele>
<time>2012-07-18T13:14:05Z</time>
<speed>1.880000</speed>
<extensions>
<speed>1.9</speed>
<temp>0.00</temp>
<bpm>0</bpm>
<rpm>0.00</rpm>
</extensions>
</trkpt>
<trkpt lat="64.141448975" lon="-21.754022598">
<ele>65.822266</ele>
<time>2012-07-18T13:14:10Z</time>
<speed>2.170000</speed>
<extensions>
<speed>2.2</speed>
<temp>0.00</temp>
<bpm>0</bpm>
<rpm>0.00</rpm>
</extensions>
</trkpt>
<trkpt lat="64.141502380" lon="-21.753837585">
<ele>66.158203</ele>
<time>2012-07-18T13:14:15Z</time>
<speed>2.310000</speed>
<extensions>
<speed>2.3</speed>
<temp>0.00</temp>
<bpm>0</bpm>
<rpm>0.00</rpm>
</extensions>
</trkpt>
<trkpt lat="64.141555786" lon="-21.753625870">
<ele>66.925781</ele>
<time>2012-07-18T13:14:20Z</time>
<speed>2.290000</speed>
<extensions>
<speed>2.3</speed>
<temp>0.00</temp>
<bpm>0</bpm>
<rpm>0.00</rpm>
</extensions>
</trkpt>
<trkpt lat="64.141616821" lon="-21.753444672">
<ele>66.960938</ele>
<time>2012-07-18T13:14:25Z</time>
<speed>2.370000</speed>
<extensions>
<speed>2.4</speed>
<temp>0.00</temp>
<bpm>0</bpm>
<rpm>0.00</rpm>
</extensions>
</trkpt>
<trkpt lat="64.141677856" lon="-21.753238678">
<ele>65.720703</ele>
<time>2012-07-18T13:14:30Z</time>
<speed>2.490000</speed>
<extensions>
<speed>2.5</speed>
<temp>0.00</temp>
<bpm>0</bpm>
<rpm>0.00</rpm>
</extensions>
</trkpt>
<trkpt lat="64.141746521" lon="-21.753023148">
<ele>66.111328</ele>
<time>2012-07-18T13:14:35Z</time>
<speed>2.110000</speed>
<extensions>
<speed>2.1</speed>
<temp>0.00</temp>
<bpm>0</bpm>
<rpm>0.00</rpm>
</extensions>
</trkpt>
<trkpt lat="64.141792297" lon="-21.752882004">
<ele>64.695313</ele>
<time>2012-07-18T13:14:40Z</time>
<speed>1.960000</speed>
<extensions>
<speed>2.0</speed>
<temp>0.00</temp>
<bpm>0</bpm>
<rpm>0.00</rpm>
</extensions>
</trkpt>
<trkpt lat="64.141845703" lon="-21.752698898">
<ele>63.910156</ele>
<time>2012-07-18T13:14:45Z</time>
<speed>2.500000</speed>
<extensions>
<speed>2.5</speed>
<temp>0.00</temp>
<bpm>0</bpm>
<rpm>0.00</rpm>
</extensions>
</trkpt>
<trkpt lat="64.141891479" lon="-21.752443314">
<ele>64.535156</ele>
<time>2012-07-18T13:14:50Z</time>
<speed>2.680000</speed>
<extensions>
<speed>2.7</speed>
<temp>0.00</temp>
<bpm>0</bpm>
<rpm>0.00</rpm>
</extensions>
</trkpt>
<trkpt lat="64.141876221" lon="-21.752145767">
<ele>64.132813</ele>
<time>2012-07-18T13:14:55Z</time>
<speed>1.680000</speed>
<extensions>
<speed>1.7</speed>
<temp>0.00</temp>
<bpm>0</bpm>
<rpm>0.00</rpm>
</extensions>
</trkpt>
<trkpt lat="64.141868591" lon="-21.751857758">
<ele>62.741211</ele>
<time>2012-07-18T13:15:00Z</time>
<speed>3.080000</speed>
<extensions>
<speed>3.1</speed>
<temp>0.00</temp>
<bpm>0</bpm>
<rpm>0.00</rpm>
</extensions>
</trkpt>
<trkpt lat="64.141983032" lon="-21.751691818">
<ele>62.856445</ele>
<time>2012-07-18T13:15:05Z</time>
<speed>3.410000</speed>
<extensions>
<speed>3.4</speed>
<temp>0.00</temp>
<bpm>0</bpm>
<rpm>0.00</rpm>
</extensions>
</trkpt>
<trkpt lat="64.142143250" lon="-21.751667023">
<ele>62.936523</ele>
<time>2012-07-18T13:15:10Z</time>
<speed>3.610000</speed>
<extensions>
<speed>3.6</speed>
<temp>0.00</temp>
<bpm>0</bpm>
<rpm>0.00</rpm>
</extensions>
</trkpt>
<trkpt lat="64.142288208" lon="-21.751600266">
<ele>63.239258</ele>
<time>2012-07-18T13:15:15Z</time>
<speed>3.110000</speed>
<extensions>
<speed>3.1</speed>
<temp>0.00</temp>
<bpm>0</bpm>
<rpm>0.00</rpm>
</extensions>
</trkpt>
<trkpt lat="64.142349243" lon="-21.751405716">
<ele>62.255859</ele>
<time>2012-07-18T13:15:20Z</time>
<speed>2.440000</speed>
<extensions>
<speed>2.4</speed>
<temp>0.00</temp>
<bpm>0</bpm>
<rpm>0.00</rpm>
</extensions>
</trkpt>
<trkpt lat="64.142425537" lon="-21.751192093">
<ele>62.877930</ele>
<time>2012-07-18T13:15:25Z</time>
<speed>2.580000</speed>
<extensions>
<speed>2.6</speed>
<temp>0.00</temp>
<bpm>0</bpm>
<rpm>0.00</rpm>
</extensions>
</trkpt>
<trkpt lat="64.142486572" lon="-21.750970840">
<ele>63.126953</ele>
<time>2012-07-18T13:15:30Z</time>
<speed>2.530000</speed>
<extensions>
<speed>2.5</speed>
<temp>0.00</temp>
<bpm>0</bpm>
<rpm>0.00</rpm>
</extensions>
</trkpt>
<trkpt lat="64.142539978" lon="-21.750749588">
<ele>61.848633</ele>
<time>2012-07-18T13:15:35Z</time>
<speed>2.340000</speed>
<extensions>
<speed>2.3</speed>
<temp>0.00</temp>
<bpm>0</bpm>
<rpm>0.00</rpm>
</extensions>
</trkpt>
<trkpt lat="64.142585754" lon="-21.750516891">
<ele>61.319336</ele>
<time>2012-07-18T13:15:40Z</time>
<speed>2.620000</speed>
<extensions>
<speed>2.6</speed>
<temp>0.00</temp>
<bpm>0</bpm>
<rpm>0.00</rpm>
</extensions>
</trkpt>
<trkpt lat="64.142639160" lon="-21.750289917">
<ele>62.408203</ele>
<time>2012-07-18T13:15:45Z</time>
<speed>2.300000</speed>
<extensions>
<speed>2.3</speed>
<temp>0.00</temp>
<bpm>0</bpm>
<rpm>0.00</rpm>
</extensions>
</trkpt>
<trkpt lat="64.142677307" lon="-21.750093460">
<ele>63.959961</ele>
<time>2012-07-18T13:15:50Z</time>
<speed>1.880000</speed>
<extensions>
<speed>1.9</speed>
<temp>0.00</temp>
<bpm>0</bpm>
<rpm>0.00</rpm>
</extensions>
</trkpt>
<trkpt lat="64.142753601" lon="-21.750053406">
<ele>63.113281</ele>
<time>2012-07-18T13:15:55Z</time>
<speed>1.840000</speed>
<extensions>
<speed>1.8</speed>
<temp>0.00</temp>
<bpm>0</bpm>
<rpm>0.00</rpm>
</extensions>
</trkpt>
<trkpt lat="64.142822266" lon="-21.749979019">
<ele>62.360352</ele>
<time>2012-07-18T13:16:00Z</time>
<speed>1.690000</speed>
<extensions>
<speed>1.7</speed>
<temp>0.00</temp>
<bpm>0</bpm>
<rpm>0.00</rpm>
</extensions>
</trkpt>
<trkpt lat="64.142890930" lon="-21.749809265">
<ele>61.186523</ele>
<time>2012-07-18T13:16:05Z</time>
<speed>2.230000</speed>
<extensions>
<speed>2.2</speed>
<temp>0.00</temp>
<bpm>0</bpm>
<rpm>0.00</rpm>
</extensions>
</trkpt>
<trkpt lat="64.142951965" lon="-21.749597549">
<ele>63.020508</ele>
<time>2012-07-18T13:16:10Z</time>
<speed>2.420000</speed>
<extensions>
<speed>2.4</speed>
<temp>0.00</temp>
<bpm>0</bpm>
<rpm>0.00</rpm>
</extensions>
</trkpt>
<trkpt lat="64.143005371" lon="-21.749345779">
<ele>63.885742</ele>
<time>2012-07-18T13:16:15Z</time>
<speed>2.600000</speed>
<extensions>
<speed>2.6</speed>
<temp>0.00</temp>
<bpm>0</bpm>
<rpm>0.00</rpm>
</extensions>
</trkpt>
<trkpt lat="64.143066406" lon="-21.749103546">
<ele>66.742188</ele>
<time>2012-07-18T13:16:20Z</time>
<speed>2.710000</speed>
<extensions>
<speed>2.7</speed>
<temp>0.00</temp>
<bpm>0</bpm>
<rpm>0.00</rpm>
</extensions>
</trkpt>
<trkpt lat="64.143135071" lon="-21.748914719">
<ele>67.619141</ele>
<time>2012-07-18T13:16:25Z</time>
<speed>2.780000</speed>
<extensions>
<speed>2.8</speed>
<temp>0.00</temp>
<bpm>0</bpm>
<rpm>0.00</rpm>
</extensions>
</trkpt>
<trkpt lat="64.143211365" lon="-21.748743057">
<ele>67.312500</ele>
<time>2012-07-18T13:16:30Z</time>
<speed>2.680000</speed>
<extensions>
<speed>2.7</speed>
<temp>0.00</temp>
<bpm>0</bpm>
<rpm>0.00</rpm>
</extensions>
</trkpt>
<trkpt lat="64.143310547" lon="-21.748582840">
<ele>68.556641</ele>
<time>2012-07-18T13:16:35Z</time>
<speed>2.790000</speed>
<extensions>
<speed>2.8</speed>
<temp>0.00</temp>
<bpm>0</bpm>
<rpm>0.00</rpm>
</extensions>
</trkpt>
<trkpt lat="64.143417358" lon="-21.748458862">
<ele>68.992188</ele>
<time>2012-07-18T13:16:40Z</time>
<speed>2.410000</speed>
<extensions>
<speed>2.4</speed>
<temp>0.00</temp>
<bpm>0</bpm>
<rpm>0.00</rpm>
</extensions>
</trkpt>
<trkpt lat="64.143531799" lon="-21.748418808">
<ele>68.730469</ele>
<time>2012-07-18T13:16:45Z</time>
<speed>3.060000</speed>
<extensions>
<speed>3.1</speed>
<temp>0.00</temp>
<bpm>0</bpm>
<rpm>0.00</rpm>
</extensions>
</trkpt>
<trkpt lat="64.143630981" lon="-21.748529434">
<ele>67.101563</ele>
<time>2012-07-18T13:16:50Z</time>
<speed>2.240000</speed>
<extensions>
<speed>2.2</speed>
<temp>0.00</temp>
<bpm>0</bpm>
<rpm>0.00</rpm>
</extensions>
</trkpt>
<trkpt lat="64.143722534" lon="-21.748823166">
<ele>64.796875</ele>
<time>2012-07-18T13:16:55Z</time>
<speed>4.120000</speed>
<extensions>
<speed>4.1</speed>
<temp>0.00</temp>
<bpm>0</bpm>
<rpm>0.00</rpm>
</extensions>
</trkpt>
<trkpt lat="64.143821716" lon="-21.749162674">
<ele>62.000977</ele>
<time>2012-07-18T13:17:00Z</time>
<speed>3.660000</speed>
<extensions>
<speed>3.7</speed>
<temp>0.00</temp>
<bpm>0</bpm>
<rpm>0.00</rpm>
</extensions>
</trkpt>
<trkpt lat="64.143905640" lon="-21.749361038">
<ele>60.245117</ele>
<time>2012-07-18T13:17:05Z</time>
<speed>2.580000</speed>
<extensions>
<speed>2.6</speed>
<temp>0.00</temp>
<bpm>0</bpm>
<rpm>0.00</rpm>
</extensions>
</trkpt>
<trkpt lat="64.144004822" lon="-21.749443054">
<ele>61.377930</ele>
<time>2012-07-18T13:17:10Z</time>
<speed>2.260000</speed>
<extensions>
<speed>2.3</speed>
<temp>0.00</temp>
<bpm>0</bpm>
<rpm>0.00</rpm>
</extensions>
</trkpt>
<trkpt lat="64.144088745" lon="-21.749475479">
<ele>61.546875</ele>
<time>2012-07-18T13:17:15Z</time>
<speed>0.480000</speed>
<extensions>
<speed>0.5</speed>
<temp>0.00</temp>
<bpm>0</bpm>
<rpm>0.00</rpm>
</extensions>
</trkpt>
<trkpt lat="64.144088745" lon="-21.749481201">
<ele>61.692383</ele>
<time>2012-07-18T13:17:20Z</time>
<speed>0.020000</speed>
<extensions>
<speed>0.0</speed>
<temp>0.00</temp>
<bpm>0</bpm>
<rpm>0.00</rpm>
</extensions>
</trkpt>
<trkpt lat="64.144088745" lon="-21.749479294">
<ele>61.687500</ele>
<time>2012-07-18T13:17:25Z</time>
<extensions>
<speed>0.0</speed>
<temp>0.00</temp>
<bpm>0</bpm>
<rpm>0.00</rpm>
</extensions>
</trkpt>
<trkpt lat="64.144088745" lon="-21.749485016">
<ele>61.769531</ele>
<time>2012-07-18T13:17:30Z</time>
<speed>0.010000</speed>
<extensions>
<speed>0.0</speed>
<temp>0.00</temp>
<bpm>0</bpm>
<rpm>0.00</rpm>
</extensions>
</trkpt>
<trkpt lat="64.144088745" lon="-21.749483109">
<ele>61.795898</ele>
<time>2012-07-18T13:17:35Z</time>
<speed>0.010000</speed>
<extensions>
<speed>0.0</speed>
<temp>0.00</temp>
<bpm>0</bpm>
<rpm>0.00</rpm>
</extensions>
</trkpt>
<trkpt lat="64.144088745" lon="-21.749483109">
<ele>61.809570</ele>
<time>2012-07-18T13:17:40Z</time>
<speed>0.030000</speed>
<extensions>
<speed>0.0</speed>
<temp>0.00</temp>
<bpm>0</bpm>
<rpm>0.00</rpm>
</extensions>
</trkpt>
<trkpt lat="64.144088745" lon="-21.749483109">
<ele>61.833008</ele>
<time>2012-07-18T13:17:45Z</time>
<extensions>
<speed>0.0</speed>
<temp>0.00</temp>
<bpm>0</bpm>
<rpm>0.00</rpm>
</extensions>
</trkpt>
<trkpt lat="64.144088745" lon="-21.749483109">
<ele>61.887695</ele>
<time>2012-07-18T13:17:50Z</time>
<speed>0.020000</speed>
<extensions>
<speed>0.0</speed>
<temp>0.00</temp>
<bpm>0</bpm>
<rpm>0.00</rpm>
</extensions>
</trkpt>
<trkpt lat="64.144088745" lon="-21.749483109">
<ele>61.786133</ele>
<time>2012-07-18T13:17:55Z</time>
<extensions>
<speed>0.0</speed>
<temp>0.00</temp>
<bpm>0</bpm>
<rpm>0.00</rpm>
</extensions>
</trkpt>
<trkpt lat="64.144088745" lon="-21.749481201">
<ele>60.919922</ele>
<time>2012-07-18T13:18:00Z</time>
<extensions>
<speed>0.0</speed>
<temp>0.00</temp>
<bpm>0</bpm>
<rpm>0.00</rpm>
</extensions>
</trkpt>
<trkpt lat="64.144081116" lon="-21.749458313">
<ele>61.407227</ele>
<time>2012-07-18T13:18:05Z</time>
<speed>0.030000</speed>
<extensions>
<speed>0.0</speed>
<temp>0.00</temp>
<bpm>0</bpm>
<rpm>0.00</rpm>
</extensions>
</trkpt>
<trkpt lat="64.144081116" lon="-21.749452591">
<ele>61.358398</ele>
<time>2012-07-18T13:18:10Z</time>
<extensions>
<speed>0.0</speed>
<temp>0.00</temp>
<bpm>0</bpm>
<rpm>0.00</rpm>
</extensions>
</trkpt>
<trkpt lat="64.144081116" lon="-21.749448776">
<ele>60.687500</ele>
<time>2012-07-18T13:18:15Z</time>
<extensions>
<speed>0.0</speed>
<temp>0.00</temp>
<bpm>0</bpm>
<rpm>0.00</rpm>
</extensions>
</trkpt>
<trkpt lat="64.144073486" lon="-21.749460220">
<ele>61.475586</ele>
<time>2012-07-18T13:18:20Z</time>
<extensions>
<speed>0.0</speed>
<temp>0.00</temp>
<bpm>0</bpm>
<rpm>0.00</rpm>
</extensions>
</trkpt>
<trkpt lat="64.144065857" lon="-21.749460220">
<ele>61.213867</ele>
<time>2012-07-18T13:18:25Z</time>
<extensions>
<speed>0.0</speed>
<temp>0.00</temp>
<bpm>0</bpm>
<rpm>0.00</rpm>
</extensions>
</trkpt>
<trkpt lat="64.144065857" lon="-21.749462128">
<ele>60.438477</ele>
<time>2012-07-18T13:18:30Z</time>
<extensions>
<speed>0.0</speed>
<temp>0.00</temp>
<bpm>0</bpm>
<rpm>0.00</rpm>
</extensions>
</trkpt>
<trkpt lat="64.144073486" lon="-21.749454498">
<ele>61.054688</ele>
<time>2012-07-18T13:18:35Z</time>
<speed>0.150000</speed>
<extensions>
<speed>0.2</speed>
<temp>0.00</temp>
<bpm>0</bpm>
<rpm>0.00</rpm>
</extensions>
</trkpt>
<trkpt lat="64.144149780" lon="-21.749460220">
<ele>61.492188</ele>
<time>2012-07-18T13:18:40Z</time>
<speed>2.970000</speed>
<extensions>
<speed>3.0</speed>
<temp>0.00</temp>
<bpm>0</bpm>
<rpm>0.00</rpm>
</extensions>
</trkpt>
<trkpt lat="64.144355774" lon="-21.749515533">
<ele>58.055664</ele>
<time>2012-07-18T13:18:45Z</time>
<speed>6.470000</speed>
<extensions>
<speed>6.5</speed>
<temp>0.00</temp>
<bpm>0</bpm>
<rpm>0.00</rpm>
</extensions>
</trkpt>
<trkpt lat="64.144607544" lon="-21.749897003">
<ele>56.397461</ele>
<time>2012-07-18T13:18:50Z</time>
<speed>6.300000</speed>
<extensions>
<speed>6.3</speed>
<temp>0.00</temp>
<bpm>0</bpm>
<rpm>0.00</rpm>
</extensions>
</trkpt>
<trkpt lat="64.144813538" lon="-21.750295639">
<ele>55.251953</ele>
<time>2012-07-18T13:18:55Z</time>
<speed>5.370000</speed>
<extensions>
<speed>5.4</speed>
<temp>0.00</temp>
<bpm>0</bpm>
<rpm>0.00</rpm>
</extensions>
</trkpt>
<trkpt lat="64.144989014" lon="-21.750551224">
<ele>56.543945</ele>
<time>2012-07-18T13:19:00Z</time>
<speed>3.660000</speed>
<extensions>
<speed>3.7</speed>
<temp>0.00</temp>
<bpm>0</bpm>
<rpm>0.00</rpm>
</extensions>
</trkpt>
<trkpt lat="64.145133972" lon="-21.750631332">
<ele>56.916992</ele>
<time>2012-07-18T13:19:05Z</time>
<speed>2.700000</speed>
<extensions>
<speed>2.7</speed>
<temp>0.00</temp>
<bpm>0</bpm>
<rpm>0.00</rpm>
</extensions>
</trkpt>
<trkpt lat="64.145248413" lon="-21.750648499">
<ele>56.691406</ele>
<time>2012-07-18T13:19:10Z</time>
<speed>2.230000</speed>
<extensions>
<speed>2.2</speed>
<temp>0.00</temp>
<bpm>0</bpm>
<rpm>0.00</rpm>
</extensions>
</trkpt>
<trkpt lat="64.145332336" lon="-21.750625610">
<ele>58.752930</ele>
<time>2012-07-18T13:19:15Z</time>
<speed>0.320000</speed>
<extensions>
<speed>0.3</speed>
<temp>0.00</temp>
<bpm>0</bpm>
<rpm>0.00</rpm>
</extensions>
</trkpt>
<trkpt lat="64.145332336" lon="-21.750612259">
<ele>58.455078</ele>
<time>2012-07-18T13:19:20Z</time>
<speed>0.050000</speed>
<extensions>
<speed>0.1</speed>
<temp>0.00</temp>
<bpm>0</bpm>
<rpm>0.00</rpm>
</extensions>
</trkpt>
<trkpt lat="64.145332336" lon="-21.750614166">
<ele>58.546875</ele>
<time>2012-07-18T13:19:25Z</time>
<speed>0.020000</speed>
<extensions>
<speed>0.0</speed>
<temp>0.00</temp>
<bpm>0</bpm>
<rpm>0.00</rpm>
</extensions>
</trkpt>
<trkpt lat="64.145332336" lon="-21.750614166">
<ele>58.617188</ele>
<time>2012-07-18T13:19:30Z</time>
<speed>0.020000</speed>
<extensions>
<speed>0.0</speed>
<temp>0.00</temp>
<bpm>0</bpm>
<rpm>0.00</rpm>
</extensions>
</trkpt>
<trkpt lat="64.145332336" lon="-21.750614166">
<ele>58.637695</ele>
<time>2012-07-18T13:19:35Z</time>
<speed>0.040000</speed>
<extensions>
<speed>0.0</speed>
<temp>0.00</temp>
<bpm>0</bpm>
<rpm>0.00</rpm>
</extensions>
</trkpt>
<trkpt lat="64.145339966" lon="-21.750581741">
<ele>58.940430</ele>
<time>2012-07-18T13:19:40Z</time>
<speed>1.040000</speed>
<extensions>
<speed>1.0</speed>
<temp>0.00</temp>
<bpm>0</bpm>
<rpm>0.00</rpm>
</extensions>
</trkpt>
<trkpt lat="64.145378113" lon="-21.750507355">
<ele>59.053711</ele>
<time>2012-07-18T13:19:45Z</time>
<speed>0.020000</speed>
<extensions>
<speed>0.0</speed>
<temp>0.00</temp>
<bpm>0</bpm>
<rpm>0.00</rpm>
</extensions>
</trkpt>
<trkpt lat="64.145378113" lon="-21.750511169">
<ele>59.298828</ele>
<time>2012-07-18T13:19:50Z</time>
<speed>0.090000</speed>
<extensions>
<speed>0.1</speed>
<temp>0.00</temp>
<bpm>0</bpm>
<rpm>0.00</rpm>
</extensions>
</trkpt>
<trkpt lat="64.145378113" lon="-21.750509262">
<ele>59.293945</ele>
<time>2012-07-18T13:19:55Z</time>
<speed>0.120000</speed>
<extensions>
<speed>0.1</speed>
<temp>0.00</temp>
<bpm>0</bpm>
<rpm>0.00</rpm>
</extensions>
</trkpt>
<trkpt lat="64.145378113" lon="-21.750501633">
<ele>59.524414</ele>
<time>2012-07-18T13:20:00Z</time>
<speed>0.900000</speed>
<extensions>
<speed>0.9</speed>
<temp>0.00</temp>
<bpm>0</bpm>
<rpm>0.00</rpm>
</extensions>
</trkpt>
<trkpt lat="64.145446777" lon="-21.750370026">
<ele>59.732422</ele>
<time>2012-07-18T13:20:05Z</time>
<speed>2.690000</speed>
<extensions>
<speed>2.7</speed>
<temp>0.00</temp>
<bpm>0</bpm>
<rpm>0.00</rpm>
</extensions>
</trkpt>
<trkpt lat="64.145469666" lon="-21.750305176">
<ele>59.073242</ele>
<time>2012-07-18T13:20:10Z</time>
<speed>0.180000</speed>
<extensions>
<speed>0.2</speed>
<temp>0.00</temp>
<bpm>0</bpm>
<rpm>0.00</rpm>
</extensions>
</trkpt>
<trkpt lat="64.145515442" lon="-21.750200272">
<ele>58.766602</ele>
<time>2012-07-18T13:20:15Z</time>
<speed>2.560000</speed>
<extensions>
<speed>2.6</speed>
<temp>0.00</temp>
<bpm>0</bpm>
<rpm>0.00</rpm>
</extensions>
</trkpt>
<trkpt lat="64.145629883" lon="-21.749967575">
<ele>58.102539</ele>
<time>2012-07-18T13:20:20Z</time>
<speed>3.930000</speed>
<extensions>
<speed>3.9</speed>
<temp>0.00</temp>
<bpm>0</bpm>
<rpm>0.00</rpm>
</extensions>
</trkpt>
<trkpt lat="64.145774841" lon="-21.749679565">
<ele>57.153320</ele>
<time>2012-07-18T13:20:25Z</time>
<speed>4.290000</speed>
<extensions>
<speed>4.3</speed>
<temp>0.00</temp>
<bpm>0</bpm>
<rpm>0.00</rpm>
</extensions>
</trkpt>
<trkpt lat="64.145919800" lon="-21.749368668">
<ele>56.312500</ele>
<time>2012-07-18T13:20:30Z</time>
<speed>4.660000</speed>
<extensions>
<speed>4.7</speed>
<temp>0.00</temp>
<bpm>0</bpm>
<rpm>0.00</rpm>
</extensions>
</trkpt>
<trkpt lat="64.146049500" lon="-21.749118805">
<ele>55.352539</ele>
<time>2012-07-18T13:20:35Z</time>
<speed>3.350000</speed>
<extensions>
<speed>3.4</speed>
<temp>0.00</temp>
<bpm>0</bpm>
<rpm>0.00</rpm>
</extensions>
</trkpt>
<trkpt lat="64.146194458" lon="-21.748844147">
<ele>54.730469</ele>
<time>2012-07-18T13:20:40Z</time>
<speed>4.450000</speed>
<extensions>
<speed>4.5</speed>
<temp>0.00</temp>
<bpm>0</bpm>
<rpm>0.00</rpm>
</extensions>
</trkpt>
<trkpt lat="64.146362305" lon="-21.748516083">
<ele>53.170898</ele>
<time>2012-07-18T13:20:45Z</time>
<speed>5.280000</speed>
<extensions>
<speed>5.3</speed>
<temp>0.00</temp>
<bpm>0</bpm>
<rpm>0.00</rpm>
</extensions>
</trkpt>
<trkpt lat="64.146553040" lon="-21.748149872">
<ele>52.037109</ele>
<time>2012-07-18T13:20:50Z</time>
<speed>5.270000</speed>
<extensions>
<speed>5.3</speed>
<temp>0.00</temp>
<bpm>0</bpm>
<rpm>0.00</rpm>
</extensions>
</trkpt>
<trkpt lat="64.146697998" lon="-21.747875214">
<ele>51.281250</ele>
<time>2012-07-18T13:20:55Z</time>
<speed>2.650000</speed>
<extensions>
<speed>2.6</speed>
<temp>0.00</temp>
<bpm>0</bpm>
<rpm>0.00</rpm>
</extensions>
</trkpt>
<trkpt lat="64.146751404" lon="-21.747779846">
<ele>51.278320</ele>
<time>2012-07-18T13:21:00Z</time>
<speed>1.870000</speed>
<extensions>
<speed>1.9</speed>
<temp>0.00</temp>
<bpm>0</bpm>
<rpm>0.00</rpm>
</extensions>
</trkpt>
<trkpt lat="64.146781921" lon="-21.747732162">
<ele>51.137695</ele>
<time>2012-07-18T13:21:05Z</time>
<extensions>
<speed>0.0</speed>
<temp>0.00</temp>
<bpm>0</bpm>
<rpm>0.00</rpm>
</extensions>
</trkpt>
<trkpt lat="64.146812439" lon="-21.747674942">
<ele>50.953125</ele>
<time>2012-07-18T13:21:10Z</time>
<speed>2.420000</speed>
<extensions>
<speed>2.4</speed>
<temp>0.00</temp>
<bpm>0</bpm>
<rpm>0.00</rpm>
</extensions>
</trkpt>
<trkpt lat="64.146926880" lon="-21.747447968">
<ele>51.090820</ele>
<time>2012-07-18T13:21:15Z</time>
<speed>3.850000</speed>
<extensions>
<speed>3.8</speed>
<temp>0.00</temp>
<bpm>0</bpm>
<rpm>0.00</rpm>
</extensions>
</trkpt>
<trkpt lat="64.147071838" lon="-21.747175217">
<ele>51.134766</ele>
<time>2012-07-18T13:21:20Z</time>
<speed>4.150000</speed>
<extensions>
<speed>4.1</speed>
<temp>0.00</temp>
<bpm>0</bpm>
<rpm>0.00</rpm>
</extensions>
</trkpt>
<trkpt lat="64.147201538" lon="-21.746913910">
<ele>50.748047</ele>
<time>2012-07-18T13:21:25Z</time>
<speed>3.540000</speed>
<extensions>
<speed>3.5</speed>
<temp>0.00</temp>
<bpm>0</bpm>
<rpm>0.00</rpm>
</extensions>
</trkpt>
<trkpt lat="64.147308350" lon="-21.746692657">
<ele>51.143555</ele>
<time>2012-07-18T13:21:30Z</time>
<speed>2.940000</speed>
<extensions>
<speed>2.9</speed>
<temp>0.00</temp>
<bpm>0</bpm>
<rpm>0.00</rpm>
</extensions>
</trkpt>
<trkpt lat="64.147392273" lon="-21.746536255">
<ele>51.986328</ele>
<time>2012-07-18T13:21:35Z</time>
<speed>1.820000</speed>
<extensions>
<speed>1.8</speed>
<temp>0.00</temp>
<bpm>0</bpm>
<rpm>0.00</rpm>
</extensions>
</trkpt>
<trkpt lat="64.147476196" lon="-21.746341705">
<ele>53.012695</ele>
<time>2012-07-18T13:21:40Z</time>
<speed>3.400000</speed>
<extensions>
<speed>3.4</speed>
<temp>0.00</temp>
<bpm>0</bpm>
<rpm>0.00</rpm>
</extensions>
</trkpt>
<trkpt lat="64.147605896" lon="-21.746061325">
<ele>53.144531</ele>
<time>2012-07-18T13:21:45Z</time>
<speed>4.110000</speed>
<extensions>
<speed>4.1</speed>
<temp>0.00</temp>
<bpm>0</bpm>
<rpm>0.00</rpm>
</extensions>
</trkpt>
<trkpt lat="64.147743225" lon="-21.745773315">
<ele>53.736328</ele>
<time>2012-07-18T13:21:50Z</time>
<speed>4.250000</speed>
<extensions>
<speed>4.3</speed>
<temp>0.00</temp>
<bpm>0</bpm>
<rpm>0.00</rpm>
</extensions>
</trkpt>
<trkpt lat="64.147888184" lon="-21.745487213">
<ele>54.250000</ele>
<time>2012-07-18T13:21:55Z</time>
<speed>4.160000</speed>
<extensions>
<speed>4.2</speed>
<temp>0.00</temp>
<bpm>0</bpm>
<rpm>0.00</rpm>
</extensions>
</trkpt>
<trkpt lat="64.148017883" lon="-21.745237350">
<ele>54.402344</ele>
<time>2012-07-18T13:22:00Z</time>
<speed>3.010000</speed>
<extensions>
<speed>3.0</speed>
<temp>0.00</temp>
<bpm>0</bpm>
<rpm>0.00</rpm>
</extensions>
</trkpt>
<trkpt lat="64.148063660" lon="-21.745168686">
<ele>54.312500</ele>
<time>2012-07-18T13:22:05Z</time>
<speed>0.580000</speed>
<extensions>
<speed>0.6</speed>
<temp>0.00</temp>
<bpm>0</bpm>
<rpm>0.00</rpm>
</extensions>
</trkpt>
<trkpt lat="64.148071289" lon="-21.745149612">
<ele>54.192383</ele>
<time>2012-07-18T13:22:10Z</time>
<speed>1.070000</speed>
<extensions>
<speed>1.1</speed>
<temp>0.00</temp>
<bpm>0</bpm>
<rpm>0.00</rpm>
</extensions>
</trkpt>
<trkpt lat="64.148101807" lon="-21.745082855">
<ele>54.250977</ele>
<time>2012-07-18T13:22:15Z</time>
<speed>1.400000</speed>
<extensions>
<speed>1.4</speed>
<temp>0.00</temp>
<bpm>0</bpm>
<rpm>0.00</rpm>
</extensions>
</trkpt>
<trkpt lat="64.148185730" lon="-21.744932175">
<ele>54.889648</ele>
<time>2012-07-18T13:22:20Z</time>
<speed>3.210000</speed>
<extensions>
<speed>3.2</speed>
<temp>0.00</temp>
<bpm>0</bpm>
<rpm>0.00</rpm>
</extensions>
</trkpt>
<trkpt lat="64.148307800" lon="-21.744676590">
<ele>55.031250</ele>
<time>2012-07-18T13:22:25Z</time>
<speed>3.710000</speed>
<extensions>
<speed>3.7</speed>
<temp>0.00</temp>
<bpm>0</bpm>
<rpm>0.00</rpm>
</extensions>
</trkpt>
<trkpt lat="64.148414612" lon="-21.744470596">
<ele>55.500000</ele>
<time>2012-07-18T13:22:30Z</time>
<speed>2.690000</speed>
<extensions>
<speed>2.7</speed>
<temp>0.00</temp>
<bpm>0</bpm>
<rpm>0.00</rpm>
</extensions>
</trkpt>
<trkpt lat="64.148490906" lon="-21.744319916">
<ele>55.820313</ele>
<time>2012-07-18T13:22:35Z</time>
<speed>2.160000</speed>
<extensions>
<speed>2.2</speed>
<temp>0.00</temp>
<bpm>0</bpm>
<rpm>0.00</rpm>
</extensions>
</trkpt>
<trkpt lat="64.148559570" lon="-21.744123459">
<ele>56.753906</ele>
<time>2012-07-18T13:22:40Z</time>
<speed>1.250000</speed>
<extensions>
<speed>1.3</speed>
<temp>0.00</temp>
<bpm>0</bpm>
<rpm>0.00</rpm>
</extensions>
</trkpt>
<trkpt lat="64.148590088" lon="-21.744043350">
<ele>57.562500</ele>
<time>2012-07-18T13:22:45Z</time>
<speed>1.180000</speed>
<extensions>
<speed>1.2</speed>
<temp>0.00</temp>
<bpm>0</bpm>
<rpm>0.00</rpm>
</extensions>
</trkpt>
<trkpt lat="64.148635864" lon="-21.743928909">
<ele>57.930664</ele>
<time>2012-07-18T13:22:50Z</time>
<speed>2.820000</speed>
<extensions>
<speed>2.8</speed>
<temp>0.00</temp>
<bpm>0</bpm>
<rpm>0.00</rpm>
</extensions>
</trkpt>
<trkpt lat="64.148765564" lon="-21.743721008">
<ele>57.275391</ele>
<time>2012-07-18T13:22:55Z</time>
<speed>3.700000</speed>
<extensions>
<speed>3.7</speed>
<temp>0.00</temp>
<bpm>0</bpm>
<rpm>0.00</rpm>
</extensions>
</trkpt>
<trkpt lat="64.148918152" lon="-21.743539810">
<ele>57.082031</ele>
<time>2012-07-18T13:23:00Z</time>
<speed>3.840000</speed>
<extensions>
<speed>3.8</speed>
<temp>0.00</temp>
<bpm>0</bpm>
<rpm>0.00</rpm>
</extensions>
</trkpt>
<trkpt lat="64.149093628" lon="-21.743324280">
<ele>56.052734</ele>
<time>2012-07-18T13:23:05Z</time>
<speed>4.300000</speed>
<extensions>
<speed>4.3</speed>
<temp>0.00</temp>
<bpm>0</bpm>
<rpm>0.00</rpm>
</extensions>
</trkpt>
<trkpt lat="64.149246216" lon="-21.743101120">
<ele>56.173828</ele>
<time>2012-07-18T13:23:10Z</time>
<speed>3.790000</speed>
<extensions>
<speed>3.8</speed>
<temp>0.00</temp>
<bpm>0</bpm>
<rpm>0.00</rpm>
</extensions>
</trkpt>
<trkpt lat="64.149383545" lon="-21.742893219">
<ele>56.140625</ele>
<time>2012-07-18T13:23:15Z</time>
<speed>3.450000</speed>
<extensions>
<speed>3.5</speed>
<temp>0.00</temp>
<bpm>0</bpm>
<rpm>0.00</rpm>
</extensions>
</trkpt>
<trkpt lat="64.149505615" lon="-21.742729187">
<ele>56.172852</ele>
<time>2012-07-18T13:23:20Z</time>
<speed>2.040000</speed>
<extensions>
<speed>2.0</speed>
<temp>0.00</temp>
<bpm>0</bpm>
<rpm>0.00</rpm>
</extensions>
</trkpt>
<trkpt lat="64.149612427" lon="-21.742588043">
<ele>55.437500</ele>
<time>2012-07-18T13:23:25Z</time>
<speed>3.520000</speed>
<extensions>
<speed>3.5</speed>
<temp>0.00</temp>
<bpm>0</bpm>
<rpm>0.00</rpm>
</extensions>
</trkpt>
<trkpt lat="64.149765015" lon="-21.742349625">
<ele>55.041992</ele>
<time>2012-07-18T13:23:30Z</time>
<speed>4.350000</speed>
<extensions>
<speed>4.3</speed>
<temp>0.00</temp>
<bpm>0</bpm>
<rpm>0.00</rpm>
</extensions>
</trkpt>
<trkpt lat="64.149940491" lon="-21.742076874">
<ele>54.690430</ele>
<time>2012-07-18T13:23:35Z</time>
<speed>4.650000</speed>
<extensions>
<speed>4.6</speed>
<temp>0.00</temp>
<bpm>0</bpm>
<rpm>0.00</rpm>
</extensions>
</trkpt>
<trkpt lat="64.150108337" lon="-21.741806030">
<ele>54.694336</ele>
<time>2012-07-18T13:23:40Z</time>
<speed>4.280000</speed>
<extensions>
<speed>4.3</speed>
<temp>0.00</temp>
<bpm>0</bpm>
<rpm>0.00</rpm>
</extensions>
</trkpt>
<trkpt lat="64.150245667" lon="-21.741605759">
<ele>54.876953</ele>
<time>2012-07-18T13:23:45Z</time>
<speed>2.740000</speed>
<extensions>
<speed>2.7</speed>
<temp>0.00</temp>
<bpm>0</bpm>
<rpm>0.00</rpm>
</extensions>
</trkpt>
<trkpt lat="64.150337219" lon="-21.741462708">
<ele>54.638672</ele>
<time>2012-07-18T13:23:50Z</time>
<speed>2.910000</speed>
<extensions>
<speed>2.9</speed>
<temp>0.00</temp>
<bpm>0</bpm>
<rpm>0.00</rpm>
</extensions>
</trkpt>
<trkpt lat="64.150466919" lon="-21.741231918">
<ele>54.451172</ele>
<time>2012-07-18T13:23:55Z</time>
<speed>4.150000</speed>
<extensions>
<speed>4.1</speed>
<temp>0.00</temp>
<bpm>0</bpm>
<rpm>0.00</rpm>
</extensions>
</trkpt>
<trkpt lat="64.150634766" lon="-21.740978241">
<ele>54.464844</ele>
<time>2012-07-18T13:24:00Z</time>
<speed>4.400000</speed>
<extensions>
<speed>4.4</speed>
<temp>0.00</temp>
<bpm>0</bpm>
<rpm>0.00</rpm>
</extensions>
</trkpt>
<trkpt lat="64.150802612" lon="-21.740720749">
<ele>54.634766</ele>
<time>2012-07-18T13:24:05Z</time>
<speed>4.480000</speed>
<extensions>
<speed>4.5</speed>
<temp>0.00</temp>
<bpm>0</bpm>
<rpm>0.00</rpm>
</extensions>
</trkpt>
<trkpt lat="64.150924683" lon="-21.740489960">
<ele>54.602539</ele>
<time>2012-07-18T13:24:10Z</time>
<speed>2.440000</speed>
<extensions>
<speed>2.4</speed>
<temp>0.00</temp>
<bpm>0</bpm>
<rpm>0.00</rpm>
</extensions>
</trkpt>
<trkpt lat="64.151008606" lon="-21.740346909">
<ele>54.643555</ele>
<time>2012-07-18T13:24:15Z</time>
<speed>2.970000</speed>
<extensions>
<speed>3.0</speed>
<temp>0.00</temp>
<bpm>0</bpm>
<rpm>0.00</rpm>
</extensions>
</trkpt>
<trkpt lat="64.151130676" lon="-21.740167618">
<ele>54.862305</ele>
<time>2012-07-18T13:24:20Z</time>
<speed>3.300000</speed>
<extensions>
<speed>3.3</speed>
<temp>0.00</temp>
<bpm>0</bpm>
<rpm>0.00</rpm>
</extensions>
</trkpt>
<trkpt lat="64.151252747" lon="-21.739997864">
<ele>54.943359</ele>
<time>2012-07-18T13:24:25Z</time>
<speed>3.460000</speed>
<extensions>
<speed>3.5</speed>
<temp>0.00</temp>
<bpm>0</bpm>
<rpm>0.00</rpm>
</extensions>
</trkpt>
<trkpt lat="64.151405334" lon="-21.739805222">
<ele>53.617188</ele>
<time>2012-07-18T13:24:30Z</time>
<speed>4.100000</speed>
<extensions>
<speed>4.1</speed>
<temp>0.00</temp>
<bpm>0</bpm>
<rpm>0.00</rpm>
</extensions>
</trkpt>
<trkpt lat="64.151557922" lon="-21.739551544">
<ele>53.828125</ele>
<time>2012-07-18T13:24:35Z</time>
<speed>4.270000</speed>
<extensions>
<speed>4.3</speed>
<temp>0.00</temp>
<bpm>0</bpm>
<rpm>0.00</rpm>
</extensions>
</trkpt>
<trkpt lat="64.151718140" lon="-21.739315033">
<ele>53.581055</ele>
<time>2012-07-18T13:24:40Z</time>
<speed>2.440000</speed>
<extensions>
<speed>2.4</speed>
<temp>0.00</temp>
<bpm>0</bpm>
<rpm>0.00</rpm>
</extensions>
</trkpt>
<trkpt lat="64.151786804" lon="-21.739200592">
<ele>53.196289</ele>
<time>2012-07-18T13:24:45Z</time>
<speed>2.440000</speed>
<extensions>
<speed>2.4</speed>
<temp>0.00</temp>
<bpm>0</bpm>
<rpm>0.00</rpm>
</extensions>
</trkpt>
<trkpt lat="64.151832581" lon="-21.739162445">
<ele>52.747070</ele>
<time>2012-07-18T13:24:50Z</time>
<speed>0.110000</speed>
<extensions>
<speed>0.1</speed>
<temp>0.00</temp>
<bpm>0</bpm>
<rpm>0.00</rpm>
</extensions>
</trkpt>
<trkpt lat="64.151832581" lon="-21.739164352">
<ele>52.612305</ele>
<time>2012-07-18T13:24:55Z</time>
<speed>0.030000</speed>
<extensions>
<speed>0.0</speed>
<temp>0.00</temp>
<bpm>0</bpm>
<rpm>0.00</rpm>
</extensions>
</trkpt>
<trkpt lat="64.151824951" lon="-21.739164352">
<ele>52.571289</ele>
<time>2012-07-18T13:25:00Z</time>
<extensions>
<speed>0.0</speed>
<temp>0.00</temp>
<bpm>0</bpm>
<rpm>0.00</rpm>
</extensions>
</trkpt>
<trkpt lat="64.151824951" lon="-21.739164352">
<ele>52.559570</ele>
<time>2012-07-18T13:25:05Z</time>
<speed>0.010000</speed>
<extensions>
<speed>0.0</speed>
<temp>0.00</temp>
<bpm>0</bpm>
<rpm>0.00</rpm>
</extensions>
</trkpt>
<trkpt lat="64.151824951" lon="-21.739168167">
<ele>52.592773</ele>
<time>2012-07-18T13:25:10Z</time>
<speed>0.270000</speed>
<extensions>
<speed>0.3</speed>
<temp>0.00</temp>
<bpm>0</bpm>
<rpm>0.00</rpm>
</extensions>
</trkpt>
<trkpt lat="64.151855469" lon="-21.739131927">
<ele>53.019531</ele>
<time>2012-07-18T13:25:15Z</time>
<speed>1.790000</speed>
<extensions>
<speed>1.8</speed>
<temp>0.00</temp>
<bpm>0</bpm>
<rpm>0.00</rpm>
</extensions>
</trkpt>
<trkpt lat="64.151924133" lon="-21.739025116">
<ele>53.211914</ele>
<time>2012-07-18T13:25:20Z</time>
<speed>2.330000</speed>
<extensions>
<speed>2.3</speed>
<temp>0.00</temp>
<bpm>0</bpm>
<rpm>0.00</rpm>
</extensions>
</trkpt>
<trkpt lat="64.151992798" lon="-21.738901138">
<ele>53.405273</ele>
<time>2012-07-18T13:25:25Z</time>
<speed>1.510000</speed>
<extensions>
<speed>1.5</speed>
<temp>0.00</temp>
<bpm>0</bpm>
<rpm>0.00</rpm>
</extensions>
</trkpt>
<trkpt lat="64.152069092" lon="-21.738763809">
<ele>53.995117</ele>
<time>2012-07-18T13:25:30Z</time>
<speed>3.050000</speed>
<extensions>
<speed>3.0</speed>
<temp>0.00</temp>
<bpm>0</bpm>
<rpm>0.00</rpm>
</extensions>
</trkpt>
<trkpt lat="64.152206421" lon="-21.738552094">
<ele>54.067383</ele>
<time>2012-07-18T13:25:35Z</time>
<speed>3.990000</speed>
<extensions>
<speed>4.0</speed>
<temp>0.00</temp>
<bpm>0</bpm>
<rpm>0.00</rpm>
</extensions>
</trkpt>
<trkpt lat="64.152336121" lon="-21.738327026">
<ele>54.496094</ele>
<time>2012-07-18T13:25:40Z</time>
<speed>2.280000</speed>
<extensions>
<speed>2.3</speed>
<temp>0.00</temp>
<bpm>0</bpm>
<rpm>0.00</rpm>
</extensions>
</trkpt>
<trkpt lat="64.152442932" lon="-21.738170624">
<ele>54.599609</ele>
<time>2012-07-18T13:25:45Z</time>
<speed>3.370000</speed>
<extensions>
<speed>3.4</speed>
<temp>0.00</temp>
<bpm>0</bpm>
<rpm>0.00</rpm>
</extensions>
</trkpt>
<trkpt lat="64.152542114" lon="-21.738021851">
<ele>54.639648</ele>
<time>2012-07-18T13:25:50Z</time>
<speed>2.590000</speed>
<extensions>
<speed>2.6</speed>
<temp>0.00</temp>
<bpm>0</bpm>
<rpm>0.00</rpm>
</extensions>
</trkpt>
<trkpt lat="64.152671814" lon="-21.737810135">
<ele>54.599609</ele>
<time>2012-07-18T13:25:55Z</time>
<speed>3.910000</speed>
<extensions>
<speed>3.9</speed>
<temp>0.00</temp>
<bpm>0</bpm>
<rpm>0.00</rpm>
</extensions>
</trkpt>
<trkpt lat="64.152816772" lon="-21.737567902">
<ele>54.604492</ele>
<time>2012-07-18T13:26:00Z</time>
<speed>4.230000</speed>
<extensions>
<speed>4.2</speed>
<temp>0.00</temp>
<bpm>0</bpm>
<rpm>0.00</rpm>
</extensions>
</trkpt>
<trkpt lat="64.152984619" lon="-21.737333298">
<ele>54.171875</ele>
<time>2012-07-18T13:26:05Z</time>
<speed>4.290000</speed>
<extensions>
<speed>4.3</speed>
<temp>0.00</temp>
<bpm>0</bpm>
<rpm>0.00</rpm>
</extensions>
</trkpt>
<trkpt lat="64.153137207" lon="-21.737083435">
<ele>54.227539</ele>
<time>2012-07-18T13:26:10Z</time>
<speed>3.780000</speed>
<extensions>
<speed>3.8</speed>
<temp>0.00</temp>
<bpm>0</bpm>
<rpm>0.00</rpm>
</extensions>
</trkpt>
<trkpt lat="64.153266907" lon="-21.736896515">
<ele>54.593750</ele>
<time>2012-07-18T13:26:15Z</time>
<speed>3.000000</speed>
<extensions>
<speed>3.0</speed>
<temp>0.00</temp>
<bpm>0</bpm>
<rpm>0.00</rpm>
</extensions>
</trkpt>
<trkpt lat="64.153350830" lon="-21.736730576">
<ele>55.965820</ele>
<time>2012-07-18T13:26:20Z</time>
<speed>3.100000</speed>
<extensions>
<speed>3.1</speed>
<temp>0.00</temp>
<bpm>0</bpm>
<rpm>0.00</rpm>
</extensions>
</trkpt>
<trkpt lat="64.153419495" lon="-21.736631393">
<ele>57.174805</ele>
<time>2012-07-18T13:26:25Z</time>
<speed>0.900000</speed>
<extensions>
<speed>0.9</speed>
<temp>0.00</temp>
<bpm>0</bpm>
<rpm>0.00</rpm>
</extensions>
</trkpt>
<trkpt lat="64.153480530" lon="-21.736547470">
<ele>56.208984</ele>
<time>2012-07-18T13:26:30Z</time>
<speed>2.400000</speed>
<extensions>
<speed>2.4</speed>
<temp>0.00</temp>
<bpm>0</bpm>
<rpm>0.00</rpm>
</extensions>
</trkpt>
<trkpt lat="64.153579712" lon="-21.736408234">
<ele>56.317383</ele>
<time>2012-07-18T13:26:35Z</time>
<speed>3.450000</speed>
<extensions>
<speed>3.5</speed>
<temp>0.00</temp>
<bpm>0</bpm>
<rpm>0.00</rpm>
</extensions>
</trkpt>
<trkpt lat="64.153717041" lon="-21.736173630">
<ele>55.875977</ele>
<time>2012-07-18T13:26:40Z</time>
<speed>3.940000</speed>
<extensions>
<speed>3.9</speed>
<temp>0.00</temp>
<bpm>0</bpm>
<rpm>0.00</rpm>
</extensions>
</trkpt>
<trkpt lat="64.153839111" lon="-21.735919952">
<ele>56.341797</ele>
<time>2012-07-18T13:26:45Z</time>
<speed>2.430000</speed>
<extensions>
<speed>2.4</speed>
<temp>0.00</temp>
<bpm>0</bpm>
<rpm>0.00</rpm>
</extensions>
</trkpt>
<trkpt lat="64.153915405" lon="-21.735742569">
<ele>57.208984</ele>
<time>2012-07-18T13:26:50Z</time>
<speed>2.720000</speed>
<extensions>
<speed>2.7</speed>
<temp>0.00</temp>
<bpm>0</bpm>
<rpm>0.00</rpm>
</extensions>
</trkpt>
<trkpt lat="64.154060364" lon="-21.735534668">
<ele>56.742188</ele>
<time>2012-07-18T13:26:55Z</time>
<speed>4.370000</speed>
<extensions>
<speed>4.4</speed>
<temp>0.00</temp>
<bpm>0</bpm>
<rpm>0.00</rpm>
</extensions>
</trkpt>
<trkpt lat="64.154205322" lon="-21.735273361">
<ele>56.732422</ele>
<time>2012-07-18T13:27:00Z</time>
<speed>3.590000</speed>
<extensions>
<speed>3.6</speed>
<temp>0.00</temp>
<bpm>0</bpm>
<rpm>0.00</rpm>
</extensions>
</trkpt>
<trkpt lat="64.154319763" lon="-21.735076904">
<ele>56.657227</ele>
<time>2012-07-18T13:27:05Z</time>
<speed>3.480000</speed>
<extensions>
<speed>3.5</speed>
<temp>0.00</temp>
<bpm>0</bpm>
<rpm>0.00</rpm>
</extensions>
</trkpt>
<trkpt lat="64.154457092" lon="-21.734825134">
<ele>56.503906</ele>
<time>2012-07-18T13:27:10Z</time>
<speed>4.200000</speed>
<extensions>
<speed>4.2</speed>
<temp>0.00</temp>
<bpm>0</bpm>
<rpm>0.00</rpm>
</extensions>
</trkpt>
<trkpt lat="64.154602051" lon="-21.734537125">
<ele>56.387695</ele>
<time>2012-07-18T13:27:15Z</time>
<speed>4.350000</speed>
<extensions>
<speed>4.3</speed>
<temp>0.00</temp>
<bpm>0</bpm>
<rpm>0.00</rpm>
</extensions>
</trkpt>
<trkpt lat="64.154731750" lon="-21.734243393">
<ele>56.301758</ele>
<time>2012-07-18T13:27:20Z</time>
<speed>3.740000</speed>
<extensions>
<speed>3.7</speed>
<temp>0.00</temp>
<bpm>0</bpm>
<rpm>0.00</rpm>
</extensions>
</trkpt>
<trkpt lat="64.154838562" lon="-21.733905792">
<ele>56.609375</ele>
<time>2012-07-18T13:27:25Z</time>
<speed>4.390000</speed>
<extensions>
<speed>4.4</speed>
<temp>0.00</temp>
<bpm>0</bpm>
<rpm>0.00</rpm>
</extensions>
</trkpt>
<trkpt lat="64.154998779" lon="-21.733591080">
<ele>56.559570</ele>
<time>2012-07-18T13:27:30Z</time>
<speed>4.850000</speed>
<extensions>
<speed>4.8</speed>
<temp>0.00</temp>
<bpm>0</bpm>
<rpm>0.00</rpm>
</extensions>
</trkpt>
<trkpt lat="64.155174255" lon="-21.733318329">
<ele>56.301758</ele>
<time>2012-07-18T13:27:35Z</time>
<speed>4.720000</speed>
<extensions>
<speed>4.7</speed>
<temp>0.00</temp>
<bpm>0</bpm>
<rpm>0.00</rpm>
</extensions>
</trkpt>
<trkpt lat="64.155342102" lon="-21.732995987">
<ele>56.327148</ele>
<time>2012-07-18T13:27:40Z</time>
<speed>4.740000</speed>
<extensions>
<speed>4.7</speed>
<temp>0.00</temp>
<bpm>0</bpm>
<rpm>0.00</rpm>
</extensions>
</trkpt>
<trkpt lat="64.155494690" lon="-21.732667923">
<ele>56.895508</ele>
<time>2012-07-18T13:27:45Z</time>
<speed>4.700000</speed>
<extensions>
<speed>4.7</speed>
<temp>0.00</temp>
<bpm>0</bpm>
<rpm>0.00</rpm>
</extensions>
</trkpt>
<trkpt lat="64.155639648" lon="-21.732316971">
<ele>57.010742</ele>
<time>2012-07-18T13:27:50Z</time>
<speed>4.890000</speed>
<extensions>
<speed>4.9</speed>
<temp>0.00</temp>
<bpm>0</bpm>
<rpm>0.00</rpm>
</extensions>
</trkpt>
<trkpt lat="64.155792236" lon="-21.731964111">
<ele>57.696289</ele>
<time>2012-07-18T13:27:55Z</time>
<speed>4.530000</speed>
<extensions>
<speed>4.5</speed>
<temp>0.00</temp>
<bpm>0</bpm>
<rpm>0.00</rpm>
</extensions>
</trkpt>
<trkpt lat="64.155937195" lon="-21.731588364">
<ele>57.429688</ele>
<time>2012-07-18T13:28:00Z</time>
<speed>5.050000</speed>
<extensions>
<speed>5.1</speed>
<temp>0.00</temp>
<bpm>0</bpm>
<rpm>0.00</rpm>
</extensions>
</trkpt>
<trkpt lat="64.156097412" lon="-21.731159210">
<ele>57.470703</ele>
<time>2012-07-18T13:28:05Z</time>
<speed>5.400000</speed>
<extensions>
<speed>5.4</speed>
<temp>0.00</temp>
<bpm>0</bpm>
<rpm>0.00</rpm>
</extensions>
</trkpt>
<trkpt lat="64.156250000" lon="-21.730716705">
<ele>57.192383</ele>
<time>2012-07-18T13:28:10Z</time>
<speed>5.480000</speed>
<extensions>
<speed>5.5</speed>
<temp>0.00</temp>
<bpm>0</bpm>
<rpm>0.00</rpm>
</extensions>
</trkpt>
<trkpt lat="64.156410217" lon="-21.730251312">
<ele>56.621094</ele>
<time>2012-07-18T13:28:15Z</time>
<speed>5.660000</speed>
<extensions>
<speed>5.7</speed>
<temp>0.00</temp>
<bpm>0</bpm>
<rpm>0.00</rpm>
</extensions>
</trkpt>
<trkpt lat="64.156555176" lon="-21.729845047">
<ele>56.283203</ele>
<time>2012-07-18T13:28:20Z</time>
<speed>4.930000</speed>
<extensions>
<speed>4.9</speed>
<temp>0.00</temp>
<bpm>0</bpm>
<rpm>0.00</rpm>
</extensions>
</trkpt>
<trkpt lat="64.156692505" lon="-21.729404449">
<ele>55.219727</ele>
<time>2012-07-18T13:28:25Z</time>
<speed>5.450000</speed>
<extensions>
<speed>5.5</speed>
<temp>0.00</temp>
<bpm>0</bpm>
<rpm>0.00</rpm>
</extensions>
</trkpt>
<trkpt lat="64.156806946" lon="-21.728906631">
<ele>54.154297</ele>
<time>2012-07-18T13:28:30Z</time>
<speed>5.580000</speed>
<extensions>
<speed>5.6</speed>
<temp>0.00</temp>
<bpm>0</bpm>
<rpm>0.00</rpm>
</extensions>
</trkpt>
<trkpt lat="64.156974792" lon="-21.728448868">
<ele>53.079102</ele>
<time>2012-07-18T13:28:35Z</time>
<speed>6.440000</speed>
<extensions>
<speed>6.4</speed>
<temp>0.00</temp>
<bpm>0</bpm>
<rpm>0.00</rpm>
</extensions>
</trkpt>
<trkpt lat="64.157203674" lon="-21.727981567">
<ele>51.386719</ele>
<time>2012-07-18T13:28:40Z</time>
<speed>6.950000</speed>
<extensions>
<speed>7.0</speed>
<temp>0.00</temp>
<bpm>0</bpm>
<rpm>0.00</rpm>
</extensions>
</trkpt>
<trkpt lat="64.157417297" lon="-21.727491379">
<ele>50.699219</ele>
<time>2012-07-18T13:28:45Z</time>
<speed>6.450000</speed>
<extensions>
<speed>6.4</speed>
<temp>0.00</temp>
<bpm>0</bpm>
<rpm>0.00</rpm>
</extensions>
</trkpt>
<trkpt lat="64.157585144" lon="-21.727024078">
<ele>49.909180</ele>
<time>2012-07-18T13:28:50Z</time>
<speed>5.760000</speed>
<extensions>
<speed>5.8</speed>
<temp>0.00</temp>
<bpm>0</bpm>
<rpm>0.00</rpm>
</extensions>
</trkpt>
<trkpt lat="64.157745361" lon="-21.726585388">
<ele>49.908203</ele>
<time>2012-07-18T13:28:55Z</time>
<speed>5.360000</speed>
<extensions>
<speed>5.4</speed>
<temp>0.00</temp>
<bpm>0</bpm>
<rpm>0.00</rpm>
</extensions>
</trkpt>
<trkpt lat="64.157905579" lon="-21.726144791">
<ele>49.991211</ele>
<time>2012-07-18T13:29:00Z</time>
<speed>5.760000</speed>
<extensions>
<speed>5.8</speed>
<temp>0.00</temp>
<bpm>0</bpm>
<rpm>0.00</rpm>
</extensions>
</trkpt>
<trkpt lat="64.158058167" lon="-21.725690842">
<ele>50.143555</ele>
<time>2012-07-18T13:29:05Z</time>
<speed>5.320000</speed>
<extensions>
<speed>5.3</speed>
<temp>0.00</temp>
<bpm>0</bpm>
<rpm>0.00</rpm>
</extensions>
</trkpt>
<trkpt lat="64.158195496" lon="-21.725303650">
<ele>50.033203</ele>
<time>2012-07-18T13:29:10Z</time>
<speed>4.360000</speed>
<extensions>
<speed>4.4</speed>
<temp>0.00</temp>
<bpm>0</bpm>
<rpm>0.00</rpm>
</extensions>
</trkpt>
<trkpt lat="64.158294678" lon="-21.724954605">
<ele>50.131836</ele>
<time>2012-07-18T13:29:15Z</time>
<speed>3.600000</speed>
<extensions>
<speed>3.6</speed>
<temp>0.00</temp>
<bpm>0</bpm>
<rpm>0.00</rpm>
</extensions>
</trkpt>
<trkpt lat="64.158348083" lon="-21.724679947">
<ele>50.379883</ele>
<time>2012-07-18T13:29:20Z</time>
<speed>2.750000</speed>
<extensions>
<speed>2.7</speed>
<temp>0.00</temp>
<bpm>0</bpm>
<rpm>0.00</rpm>
</extensions>
</trkpt>
<trkpt lat="64.158355713" lon="-21.724401474">
<ele>50.466797</ele>
<time>2012-07-18T13:29:25Z</time>
<speed>2.270000</speed>
<extensions>
<speed>2.3</speed>
<temp>0.00</temp>
<bpm>0</bpm>
<rpm>0.00</rpm>
</extensions>
</trkpt>
<trkpt lat="64.158370972" lon="-21.724260330">
<ele>50.597656</ele>
<time>2012-07-18T13:29:30Z</time>
<speed>0.820000</speed>
<extensions>
<speed>0.8</speed>
<temp>0.00</temp>
<bpm>0</bpm>
<rpm>0.00</rpm>
</extensions>
</trkpt>
<trkpt lat="64.158409119" lon="-21.724201202">
<ele>50.940430</ele>
<time>2012-07-18T13:29:35Z</time>
<speed>1.650000</speed>
<extensions>
<speed>1.7</speed>
<temp>0.00</temp>
<bpm>0</bpm>
<rpm>0.00</rpm>
</extensions>
</trkpt>
<trkpt lat="64.158454895" lon="-21.724082947">
<ele>51.434570</ele>
<time>2012-07-18T13:29:40Z</time>
<speed>1.940000</speed>
<extensions>
<speed>1.9</speed>
<temp>0.00</temp>
<bpm>0</bpm>
<rpm>0.00</rpm>
</extensions>
</trkpt>
<trkpt lat="64.158531189" lon="-21.723834991">
<ele>51.536133</ele>
<time>2012-07-18T13:29:45Z</time>
<speed>3.070000</speed>
<extensions>
<speed>3.1</speed>
<temp>0.00</temp>
<bpm>0</bpm>
<rpm>0.00</rpm>
</extensions>
</trkpt>
<trkpt lat="64.158546448" lon="-21.723754883">
<ele>51.424805</ele>
<time>2012-07-18T13:29:50Z</time>
<speed>0.120000</speed>
<extensions>
<speed>0.1</speed>
<temp>0.00</temp>
<bpm>0</bpm>
<rpm>0.00</rpm>
</extensions>
</trkpt>
<trkpt lat="64.158546448" lon="-21.723749161">
<ele>50.606445</ele>
<time>2012-07-18T13:29:55Z</time>
<extensions>
<speed>0.0</speed>
<temp>0.00</temp>
<bpm>0</bpm>
<rpm>0.00</rpm>
</extensions>
</trkpt>
<trkpt lat="64.158546448" lon="-21.723752975">
<ele>50.304688</ele>
<time>2012-07-18T13:30:00Z</time>
<speed>0.010000</speed>
<extensions>
<speed>0.0</speed>
<temp>0.00</temp>
<bpm>0</bpm>
<rpm>0.00</rpm>
</extensions>
</trkpt>
<trkpt lat="64.158546448" lon="-21.723751068">
<ele>50.330078</ele>
<time>2012-07-18T13:30:05Z</time>
<extensions>
<speed>0.0</speed>
<temp>0.00</temp>
<bpm>0</bpm>
<rpm>0.00</rpm>
</extensions>
</trkpt>
<trkpt lat="64.158546448" lon="-21.723751068">
<ele>50.422852</ele>
<time>2012-07-18T13:30:10Z</time>
<speed>0.020000</speed>
<extensions>
<speed>0.0</speed>
<temp>0.00</temp>
<bpm>0</bpm>
<rpm>0.00</rpm>
</extensions>
</trkpt>
<trkpt lat="64.158546448" lon="-21.723751068">
<ele>50.541992</ele>
<time>2012-07-18T13:30:15Z</time>
<speed>0.030000</speed>
<extensions>
<speed>0.0</speed>
<temp>0.00</temp>
<bpm>0</bpm>
<rpm>0.00</rpm>
</extensions>
</trkpt>
<trkpt lat="64.158546448" lon="-21.723751068">
<ele>50.487305</ele>
<time>2012-07-18T13:30:20Z</time>
<speed>0.010000</speed>
<extensions>
<speed>0.0</speed>
<temp>0.00</temp>
<bpm>0</bpm>
<rpm>0.00</rpm>
</extensions>
</trkpt>
<trkpt lat="64.158546448" lon="-21.723751068">
<ele>50.491211</ele>
<time>2012-07-18T13:30:25Z</time>
<speed>0.010000</speed>
<extensions>
<speed>0.0</speed>
<temp>0.00</temp>
<bpm>0</bpm>
<rpm>0.00</rpm>
</extensions>
</trkpt>
<trkpt lat="64.158546448" lon="-21.723751068">
<ele>50.494141</ele>
<time>2012-07-18T13:30:30Z</time>
<speed>0.020000</speed>
<extensions>
<speed>0.0</speed>
<temp>0.00</temp>
<bpm>0</bpm>
<rpm>0.00</rpm>
</extensions>
</trkpt>
<trkpt lat="64.158546448" lon="-21.723751068">
<ele>50.499023</ele>
<time>2012-07-18T13:30:35Z</time>
<speed>0.010000</speed>
<extensions>
<speed>0.0</speed>
<temp>0.00</temp>
<bpm>0</bpm>
<rpm>0.00</rpm>
</extensions>
</trkpt>
<trkpt lat="64.158546448" lon="-21.723751068">
<ele>50.510742</ele>
<time>2012-07-18T13:30:40Z</time>
<extensions>
<speed>0.0</speed>
<temp>0.00</temp>
<bpm>0</bpm>
<rpm>0.00</rpm>
</extensions>
</trkpt>
<trkpt lat="64.158546448" lon="-21.723751068">
<ele>50.512695</ele>
<time>2012-07-18T13:30:45Z</time>
<speed>0.010000</speed>
<extensions>
<speed>0.0</speed>
<temp>0.00</temp>
<bpm>0</bpm>
<rpm>0.00</rpm>
</extensions>
</trkpt>
<trkpt lat="64.158546448" lon="-21.723751068">
<ele>50.514648</ele>
<time>2012-07-18T13:30:50Z</time>
<extensions>
<speed>0.0</speed>
<temp>0.00</temp>
<bpm>0</bpm>
<rpm>0.00</rpm>
</extensions>
</trkpt>
<trkpt lat="64.158546448" lon="-21.723752975">
<ele>50.518555</ele>
<time>2012-07-18T13:30:55Z</time>
<extensions>
<speed>0.0</speed>
<temp>0.00</temp>
<bpm>0</bpm>
<rpm>0.00</rpm>
</extensions>
</trkpt>
<trkpt lat="64.158546448" lon="-21.723752975">
<ele>50.524414</ele>
<time>2012-07-18T13:31:00Z</time>
<speed>0.010000</speed>
<extensions>
<speed>0.0</speed>
<temp>0.00</temp>
<bpm>0</bpm>
<rpm>0.00</rpm>
</extensions>
</trkpt>
<trkpt lat="64.158546448" lon="-21.723752975">
<ele>50.541992</ele>
<time>2012-07-18T13:31:05Z</time>
<extensions>
<speed>0.0</speed>
<temp>0.00</temp>
<bpm>0</bpm>
<rpm>0.00</rpm>
</extensions>
</trkpt>
<trkpt lat="64.158546448" lon="-21.723752975">
<ele>50.554688</ele>
<time>2012-07-18T13:31:10Z</time>
<speed>0.010000</speed>
<extensions>
<speed>0.0</speed>
<temp>0.00</temp>
<bpm>0</bpm>
<rpm>0.00</rpm>
</extensions>
</trkpt>
<trkpt lat="64.158546448" lon="-21.723752975">
<ele>50.559570</ele>
<time>2012-07-18T13:31:15Z</time>
<extensions>
<speed>0.0</speed>
<temp>0.00</temp>
<bpm>0</bpm>
<rpm>0.00</rpm>
</extensions>
</trkpt>
<trkpt lat="64.158546448" lon="-21.723752975">
<ele>50.565430</ele>
<time>2012-07-18T13:31:20Z</time>
<speed>0.010000</speed>
<extensions>
<speed>0.0</speed>
<temp>0.00</temp>
<bpm>0</bpm>
<rpm>0.00</rpm>
</extensions>
</trkpt>
<trkpt lat="64.158546448" lon="-21.723754883">
<ele>50.569336</ele>
<time>2012-07-18T13:31:25Z</time>
<speed>0.010000</speed>
<extensions>
<speed>0.0</speed>
<temp>0.00</temp>
<bpm>0</bpm>
<rpm>0.00</rpm>
</extensions>
</trkpt>
<trkpt lat="64.158546448" lon="-21.723754883">
<ele>50.579102</ele>
<time>2012-07-18T13:31:30Z</time>
<extensions>
<speed>0.0</speed>
<temp>0.00</temp>
<bpm>0</bpm>
<rpm>0.00</rpm>
</extensions>
</trkpt>
<trkpt lat="64.158546448" lon="-21.723754883">
<ele>50.581055</ele>
<time>2012-07-18T13:31:35Z</time>
<extensions>
<speed>0.0</speed>
<temp>0.00</temp>
<bpm>0</bpm>
<rpm>0.00</rpm>
</extensions>
</trkpt>
<trkpt lat="64.158546448" lon="-21.723754883">
<ele>50.584961</ele>
<time>2012-07-18T13:31:40Z</time>
<extensions>
<speed>0.0</speed>
<temp>0.00</temp>
<bpm>0</bpm>
<rpm>0.00</rpm>
</extensions>
</trkpt>
<trkpt lat="64.158546448" lon="-21.723754883">
<ele>50.593750</ele>
<time>2012-07-18T13:31:45Z</time>
<extensions>
<speed>0.0</speed>
<temp>0.00</temp>
<bpm>0</bpm>
<rpm>0.00</rpm>
</extensions>
</trkpt>
<trkpt lat="64.158546448" lon="-21.723756790">
<ele>50.600586</ele>
<time>2012-07-18T13:31:50Z</time>
<extensions>
<speed>0.0</speed>
<temp>0.00</temp>
<bpm>0</bpm>
<rpm>0.00</rpm>
</extensions>
</trkpt>
<trkpt lat="64.158546448" lon="-21.723756790">
<ele>50.620117</ele>
<time>2012-07-18T13:31:55Z</time>
<speed>0.010000</speed>
<extensions>
<speed>0.0</speed>
<temp>0.00</temp>
<bpm>0</bpm>
<rpm>0.00</rpm>
</extensions>
</trkpt>
<trkpt lat="64.158546448" lon="-21.723756790">
<ele>50.621094</ele>
<time>2012-07-18T13:32:00Z</time>
<extensions>
<speed>0.0</speed>
<temp>0.00</temp>
<bpm>0</bpm>
<rpm>0.00</rpm>
</extensions>
</trkpt>
<trkpt lat="64.158546448" lon="-21.723756790">
<ele>50.618164</ele>
<time>2012-07-18T13:32:05Z</time>
<speed>0.010000</speed>
<extensions>
<speed>0.0</speed>
<temp>0.00</temp>
<bpm>0</bpm>
<rpm>0.00</rpm>
</extensions>
</trkpt>
<trkpt lat="64.158546448" lon="-21.723756790">
<ele>50.621094</ele>
<time>2012-07-18T13:32:10Z</time>
<extensions>
<speed>0.0</speed>
<temp>0.00</temp>
<bpm>0</bpm>
<rpm>0.00</rpm>
</extensions>
</trkpt>
<trkpt lat="64.158546448" lon="-21.723756790">
<ele>50.666016</ele>
<time>2012-07-18T13:32:15Z</time>
<speed>0.490000</speed>
<extensions>
<speed>0.5</speed>
<temp>0.00</temp>
<bpm>0</bpm>
<rpm>0.00</rpm>
</extensions>
</trkpt>
<trkpt lat="64.158554077" lon="-21.723745346">
<ele>50.725586</ele>
<time>2012-07-18T13:32:20Z</time>
<speed>1.150000</speed>
<extensions>
<speed>1.1</speed>
<temp>0.00</temp>
<bpm>0</bpm>
<rpm>0.00</rpm>
</extensions>
</trkpt>
<trkpt lat="64.158645630" lon="-21.723623276">
<ele>50.482422</ele>
<time>2012-07-18T13:32:25Z</time>
<speed>3.260000</speed>
<extensions>
<speed>3.3</speed>
<temp>0.00</temp>
<bpm>0</bpm>
<rpm>0.00</rpm>
</extensions>
</trkpt>
<trkpt lat="64.158798218" lon="-21.723449707">
<ele>50.119141</ele>
<time>2012-07-18T13:32:30Z</time>
<speed>3.710000</speed>
<extensions>
<speed>3.7</speed>
<temp>0.00</temp>
<bpm>0</bpm>
<rpm>0.00</rpm>
</extensions>
</trkpt>
<trkpt lat="64.158943176" lon="-21.723278046">
<ele>50.340820</ele>
<time>2012-07-18T13:32:35Z</time>
<speed>3.450000</speed>
<extensions>
<speed>3.5</speed>
<temp>0.00</temp>
<bpm>0</bpm>
<rpm>0.00</rpm>
</extensions>
</trkpt>
<trkpt lat="64.159080505" lon="-21.723094940">
<ele>50.215820</ele>
<time>2012-07-18T13:32:40Z</time>
<speed>3.560000</speed>
<extensions>
<speed>3.6</speed>
<temp>0.00</temp>
<bpm>0</bpm>
<rpm>0.00</rpm>
</extensions>
</trkpt>
<trkpt lat="64.159187317" lon="-21.722824097">
<ele>50.451172</ele>
<time>2012-07-18T13:32:45Z</time>
<speed>3.480000</speed>
<extensions>
<speed>3.5</speed>
<temp>0.00</temp>
<bpm>0</bpm>
<rpm>0.00</rpm>
</extensions>
</trkpt>
<trkpt lat="64.159278870" lon="-21.722578049">
<ele>50.593750</ele>
<time>2012-07-18T13:32:50Z</time>
<speed>3.120000</speed>
<extensions>
<speed>3.1</speed>
<temp>0.00</temp>
<bpm>0</bpm>
<rpm>0.00</rpm>
</extensions>
</trkpt>
<trkpt lat="64.159355164" lon="-21.722309113">
<ele>50.051758</ele>
<time>2012-07-18T13:32:55Z</time>
<speed>3.420000</speed>
<extensions>
<speed>3.4</speed>
<temp>0.00</temp>
<bpm>0</bpm>
<rpm>0.00</rpm>
</extensions>
</trkpt>
<trkpt lat="64.159408569" lon="-21.722122192">
<ele>50.340820</ele>
<time>2012-07-18T13:33:00Z</time>
<speed>0.110000</speed>
<extensions>
<speed>0.1</speed>
<temp>0.00</temp>
<bpm>0</bpm>
<rpm>0.00</rpm>
</extensions>
</trkpt>
<trkpt lat="64.159454346" lon="-21.722009659">
<ele>50.790039</ele>
<time>2012-07-18T13:33:05Z</time>
<speed>2.210000</speed>
<extensions>
<speed>2.2</speed>
<temp>0.00</temp>
<bpm>0</bpm>
<rpm>0.00</rpm>
</extensions>
</trkpt>
<trkpt lat="64.159538269" lon="-21.721815109">
<ele>51.704102</ele>
<time>2012-07-18T13:33:10Z</time>
<speed>3.340000</speed>
<extensions>
<speed>3.3</speed>
<temp>0.00</temp>
<bpm>0</bpm>
<rpm>0.00</rpm>
</extensions>
</trkpt>
<trkpt lat="64.159660339" lon="-21.721494675">
<ele>51.452148</ele>
<time>2012-07-18T13:33:15Z</time>
<speed>4.000000</speed>
<extensions>
<speed>4.0</speed>
<temp>0.00</temp>
<bpm>0</bpm>
<rpm>0.00</rpm>
</extensions>
</trkpt>
<trkpt lat="64.159759521" lon="-21.721179962">
<ele>51.482422</ele>
<time>2012-07-18T13:33:20Z</time>
<speed>3.480000</speed>
<extensions>
<speed>3.5</speed>
<temp>0.00</temp>
<bpm>0</bpm>
<rpm>0.00</rpm>
</extensions>
</trkpt>
<trkpt lat="64.159866333" lon="-21.720880508">
<ele>51.554688</ele>
<time>2012-07-18T13:33:25Z</time>
<speed>3.840000</speed>
<extensions>
<speed>3.8</speed>
<temp>0.00</temp>
<bpm>0</bpm>
<rpm>0.00</rpm>
</extensions>
</trkpt>
<trkpt lat="64.159980774" lon="-21.720579147">
<ele>51.630859</ele>
<time>2012-07-18T13:33:30Z</time>
<speed>3.750000</speed>
<extensions>
<speed>3.8</speed>
<temp>0.00</temp>
<bpm>0</bpm>
<rpm>0.00</rpm>
</extensions>
</trkpt>
<trkpt lat="64.160079956" lon="-21.720224380">
<ele>50.912109</ele>
<time>2012-07-18T13:33:35Z</time>
<speed>4.520000</speed>
<extensions>
<speed>4.5</speed>
<temp>0.00</temp>
<bpm>0</bpm>
<rpm>0.00</rpm>
</extensions>
</trkpt>
<trkpt lat="64.160278320" lon="-21.719964981">
<ele>50.488281</ele>
<time>2012-07-18T13:33:40Z</time>
<speed>4.540000</speed>
<extensions>
<speed>4.5</speed>
<temp>0.00</temp>
<bpm>0</bpm>
<rpm>0.00</rpm>
</extensions>
</trkpt>
<trkpt lat="64.160385132" lon="-21.719879150">
<ele>51.078125</ele>
<time>2012-07-18T13:33:45Z</time>
<speed>2.280000</speed>
<extensions>
<speed>2.3</speed>
<temp>0.00</temp>
<bpm>0</bpm>
<rpm>0.00</rpm>
</extensions>
</trkpt>
<trkpt lat="64.160484314" lon="-21.719699860">
<ele>52.335938</ele>
<time>2012-07-18T13:33:50Z</time>
<speed>2.650000</speed>
<extensions>
<speed>2.6</speed>
<temp>0.00</temp>
<bpm>0</bpm>
<rpm>0.00</rpm>
</extensions>
</trkpt>
<trkpt lat="64.160552979" lon="-21.719568253">
<ele>52.904297</ele>
<time>2012-07-18T13:33:55Z</time>
<speed>1.550000</speed>
<extensions>
<speed>1.5</speed>
<temp>0.00</temp>
<bpm>0</bpm>
<rpm>0.00</rpm>
</extensions>
</trkpt>
<trkpt lat="64.160621643" lon="-21.719490051">
<ele>54.212891</ele>
<time>2012-07-18T13:34:00Z</time>
<speed>2.310000</speed>
<extensions>
<speed>2.3</speed>
<temp>0.00</temp>
<bpm>0</bpm>
<rpm>0.00</rpm>
</extensions>
</trkpt>
<trkpt lat="64.160720825" lon="-21.719381332">
<ele>54.240234</ele>
<time>2012-07-18T13:34:05Z</time>
<speed>2.880000</speed>
<extensions>
<speed>2.9</speed>
<temp>0.00</temp>
<bpm>0</bpm>
<rpm>0.00</rpm>
</extensions>
</trkpt>
<trkpt lat="64.160865784" lon="-21.719234467">
<ele>53.391602</ele>
<time>2012-07-18T13:34:10Z</time>
<speed>3.540000</speed>
<extensions>
<speed>3.5</speed>
<temp>0.00</temp>
<bpm>0</bpm>
<rpm>0.00</rpm>
</extensions>
</trkpt>
<trkpt lat="64.161018372" lon="-21.719060898">
<ele>53.191406</ele>
<time>2012-07-18T13:34:15Z</time>
<speed>3.400000</speed>
<extensions>
<speed>3.4</speed>
<temp>0.00</temp>
<bpm>0</bpm>
<rpm>0.00</rpm>
</extensions>
</trkpt>
<trkpt lat="64.161155701" lon="-21.718925476">
<ele>53.111328</ele>
<time>2012-07-18T13:34:20Z</time>
<speed>3.080000</speed>
<extensions>
<speed>3.1</speed>
<temp>0.00</temp>
<bpm>0</bpm>
<rpm>0.00</rpm>
</extensions>
</trkpt>
<trkpt lat="64.161277771" lon="-21.718793869">
<ele>53.540039</ele>
<time>2012-07-18T13:34:25Z</time>
<speed>3.290000</speed>
<extensions>
<speed>3.3</speed>
<temp>0.00</temp>
<bpm>0</bpm>
<rpm>0.00</rpm>
</extensions>
</trkpt>
<trkpt lat="64.161415100" lon="-21.718641281">
<ele>53.564453</ele>
<time>2012-07-18T13:34:30Z</time>
<speed>3.510000</speed>
<extensions>
<speed>3.5</speed>
<temp>0.00</temp>
<bpm>0</bpm>
<rpm>0.00</rpm>
</extensions>
</trkpt>
<trkpt lat="64.161560059" lon="-21.718488693">
<ele>53.436523</ele>
<time>2012-07-18T13:34:35Z</time>
<speed>3.630000</speed>
<extensions>
<speed>3.6</speed>
<temp>0.00</temp>
<bpm>0</bpm>
<rpm>0.00</rpm>
</extensions>
</trkpt>
<trkpt lat="64.161705017" lon="-21.718341827">
<ele>53.456055</ele>
<time>2012-07-18T13:34:40Z</time>
<speed>3.420000</speed>
<extensions>
<speed>3.4</speed>
<temp>0.00</temp>
<bpm>0</bpm>
<rpm>0.00</rpm>
</extensions>
</trkpt>
<trkpt lat="64.161811829" lon="-21.718252182">
<ele>53.166016</ele>
<time>2012-07-18T13:34:45Z</time>
<speed>2.120000</speed>
<extensions>
<speed>2.1</speed>
<temp>0.00</temp>
<bpm>0</bpm>
<rpm>0.00</rpm>
</extensions>
</trkpt>
<trkpt lat="64.161933899" lon="-21.718124390">
<ele>53.193359</ele>
<time>2012-07-18T13:34:50Z</time>
<speed>2.830000</speed>
<extensions>
<speed>2.8</speed>
<temp>0.00</temp>
<bpm>0</bpm>
<rpm>0.00</rpm>
</extensions>
</trkpt>
<trkpt lat="64.162033081" lon="-21.718023300">
<ele>53.654297</ele>
<time>2012-07-18T13:34:55Z</time>
<speed>2.590000</speed>
<extensions>
<speed>2.6</speed>
<temp>0.00</temp>
<bpm>0</bpm>
<rpm>0.00</rpm>
</extensions>
</trkpt>
<trkpt lat="64.162147522" lon="-21.717910767">
<ele>53.692383</ele>
<time>2012-07-18T13:35:00Z</time>
<speed>2.810000</speed>
<extensions>
<speed>2.8</speed>
<temp>0.00</temp>
<bpm>0</bpm>
<rpm>0.00</rpm>
</extensions>
</trkpt>
<trkpt lat="64.162254333" lon="-21.717775345">
<ele>54.475586</ele>
<time>2012-07-18T13:35:05Z</time>
<speed>2.700000</speed>
<extensions>
<speed>2.7</speed>
<temp>0.00</temp>
<bpm>0</bpm>
<rpm>0.00</rpm>
</extensions>
</trkpt>
<trkpt lat="64.162361145" lon="-21.717641830">
<ele>54.749023</ele>
<time>2012-07-18T13:35:10Z</time>
<speed>2.750000</speed>
<extensions>
<speed>2.7</speed>
<temp>0.00</temp>
<bpm>0</bpm>
<rpm>0.00</rpm>
</extensions>
</trkpt>
<trkpt lat="64.162467957" lon="-21.717523575">
<ele>55.037109</ele>
<time>2012-07-18T13:35:15Z</time>
<speed>2.170000</speed>
<extensions>
<speed>2.2</speed>
<temp>0.00</temp>
<bpm>0</bpm>
<rpm>0.00</rpm>
</extensions>
</trkpt>
<trkpt lat="64.162551880" lon="-21.717426300">
<ele>55.840820</ele>
<time>2012-07-18T13:35:20Z</time>
<speed>2.080000</speed>
<extensions>
<speed>2.1</speed>
<temp>0.00</temp>
<bpm>0</bpm>
<rpm>0.00</rpm>
</extensions>
</trkpt>
<trkpt lat="64.162635803" lon="-21.717332840">
<ele>57.313477</ele>
<time>2012-07-18T13:35:25Z</time>
<speed>2.050000</speed>
<extensions>
<speed>2.1</speed>
<temp>0.00</temp>
<bpm>0</bpm>
<rpm>0.00</rpm>
</extensions>
</trkpt>
<trkpt lat="64.162734985" lon="-21.717218399">
<ele>58.064453</ele>
<time>2012-07-18T13:35:30Z</time>
<speed>2.260000</speed>
<extensions>
<speed>2.3</speed>
<temp>0.00</temp>
<bpm>0</bpm>
<rpm>0.00</rpm>
</extensions>
</trkpt>
<trkpt lat="64.162841797" lon="-21.717092514">
<ele>58.751953</ele>
<time>2012-07-18T13:35:35Z</time>
<speed>2.520000</speed>
<extensions>
<speed>2.5</speed>
<temp>0.00</temp>
<bpm>0</bpm>
<rpm>0.00</rpm>
</extensions>
</trkpt>
<trkpt lat="64.162933350" lon="-21.716917038">
<ele>59.421875</ele>
<time>2012-07-18T13:35:40Z</time>
<speed>2.920000</speed>
<extensions>
<speed>2.9</speed>
<temp>0.00</temp>
<bpm>0</bpm>
<rpm>0.00</rpm>
</extensions>
</trkpt>
<trkpt lat="64.163047791" lon="-21.716737747">
<ele>60.473633</ele>
<time>2012-07-18T13:35:45Z</time>
<speed>2.840000</speed>
<extensions>
<speed>2.8</speed>
<temp>0.00</temp>
<bpm>0</bpm>
<rpm>0.00</rpm>
</extensions>
</trkpt>
<trkpt lat="64.163154602" lon="-21.716529846">
<ele>60.978516</ele>
<time>2012-07-18T13:35:50Z</time>
<speed>2.970000</speed>
<extensions>
<speed>3.0</speed>
<temp>0.00</temp>
<bpm>0</bpm>
<rpm>0.00</rpm>
</extensions>
</trkpt>
<trkpt lat="64.163269043" lon="-21.716321945">
<ele>61.458008</ele>
<time>2012-07-18T13:35:55Z</time>
<speed>3.050000</speed>
<extensions>
<speed>3.0</speed>
<temp>0.00</temp>
<bpm>0</bpm>
<rpm>0.00</rpm>
</extensions>
</trkpt>
<trkpt lat="64.163360596" lon="-21.716123581">
<ele>62.022461</ele>
<time>2012-07-18T13:36:00Z</time>
<speed>2.810000</speed>
<extensions>
<speed>2.8</speed>
<temp>0.00</temp>
<bpm>0</bpm>
<rpm>0.00</rpm>
</extensions>
</trkpt>
<trkpt lat="64.163452148" lon="-21.715913773">
<ele>62.506836</ele>
<time>2012-07-18T13:36:05Z</time>
<speed>2.820000</speed>
<extensions>
<speed>2.8</speed>
<temp>0.00</temp>
<bpm>0</bpm>
<rpm>0.00</rpm>
</extensions>
</trkpt>
<trkpt lat="64.163536072" lon="-21.715677261">
<ele>62.584961</ele>
<time>2012-07-18T13:36:10Z</time>
<speed>3.120000</speed>
<extensions>
<speed>3.1</speed>
<temp>0.00</temp>
<bpm>0</bpm>
<rpm>0.00</rpm>
</extensions>
</trkpt>
<trkpt lat="64.163612366" lon="-21.715394974">
<ele>62.401367</ele>
<time>2012-07-18T13:36:15Z</time>
<speed>3.320000</speed>
<extensions>
<speed>3.3</speed>
<temp>0.00</temp>
<bpm>0</bpm>
<rpm>0.00</rpm>
</extensions>
</trkpt>
<trkpt lat="64.163688660" lon="-21.715120316">
<ele>62.974609</ele>
<time>2012-07-18T13:36:20Z</time>
<speed>3.370000</speed>
<extensions>
<speed>3.4</speed>
<temp>0.00</temp>
<bpm>0</bpm>
<rpm>0.00</rpm>
</extensions>
</trkpt>
<trkpt lat="64.163764954" lon="-21.714836121">
<ele>63.130859</ele>
<time>2012-07-18T13:36:25Z</time>
<speed>3.390000</speed>
<extensions>
<speed>3.4</speed>
<temp>0.00</temp>
<bpm>0</bpm>
<rpm>0.00</rpm>
</extensions>
</trkpt>
<trkpt lat="64.163848877" lon="-21.714548111">
<ele>64.037109</ele>
<time>2012-07-18T13:36:30Z</time>
<speed>3.020000</speed>
<extensions>
<speed>3.0</speed>
<temp>0.00</temp>
<bpm>0</bpm>
<rpm>0.00</rpm>
</extensions>
</trkpt>
<trkpt lat="64.163948059" lon="-21.714317322">
<ele>64.613281</ele>
<time>2012-07-18T13:36:35Z</time>
<speed>3.680000</speed>
<extensions>
<speed>3.7</speed>
<temp>0.00</temp>
<bpm>0</bpm>
<rpm>0.00</rpm>
</extensions>
</trkpt>
<trkpt lat="64.164054871" lon="-21.714036942">
<ele>64.193359</ele>
<time>2012-07-18T13:36:40Z</time>
<speed>3.360000</speed>
<extensions>
<speed>3.4</speed>
<temp>0.00</temp>
<bpm>0</bpm>
<rpm>0.00</rpm>
</extensions>
</trkpt>
<trkpt lat="64.164138794" lon="-21.713724136">
<ele>64.542969</ele>
<time>2012-07-18T13:36:45Z</time>
<speed>3.650000</speed>
<extensions>
<speed>3.7</speed>
<temp>0.00</temp>
<bpm>0</bpm>
<rpm>0.00</rpm>
</extensions>
</trkpt>
<trkpt lat="64.164237976" lon="-21.713407516">
<ele>65.046875</ele>
<time>2012-07-18T13:36:50Z</time>
<speed>3.670000</speed>
<extensions>
<speed>3.7</speed>
<temp>0.00</temp>
<bpm>0</bpm>
<rpm>0.00</rpm>
</extensions>
</trkpt>
<trkpt lat="64.164314270" lon="-21.713117599">
<ele>65.623047</ele>
<time>2012-07-18T13:36:55Z</time>
<speed>3.230000</speed>
<extensions>
<speed>3.2</speed>
<temp>0.00</temp>
<bpm>0</bpm>
<rpm>0.00</rpm>
</extensions>
</trkpt>
<trkpt lat="64.164398193" lon="-21.712825775">
<ele>65.994141</ele>
<time>2012-07-18T13:37:00Z</time>
<speed>3.590000</speed>
<extensions>
<speed>3.6</speed>
<temp>0.00</temp>
<bpm>0</bpm>
<rpm>0.00</rpm>
</extensions>
</trkpt>
<trkpt lat="64.164482117" lon="-21.712507248">
<ele>66.261719</ele>
<time>2012-07-18T13:37:05Z</time>
<speed>3.690000</speed>
<extensions>
<speed>3.7</speed>
<temp>0.00</temp>
<bpm>0</bpm>
<rpm>0.00</rpm>
</extensions>
</trkpt>
<trkpt lat="64.164573669" lon="-21.712154388">
<ele>66.445313</ele>
<time>2012-07-18T13:37:10Z</time>
<speed>3.860000</speed>
<extensions>
<speed>3.9</speed>
<temp>0.00</temp>
<bpm>0</bpm>
<rpm>0.00</rpm>
</extensions>
</trkpt>
<trkpt lat="64.164642334" lon="-21.711793900">
<ele>66.294922</ele>
<time>2012-07-18T13:37:15Z</time>
<speed>3.960000</speed>
<extensions>
<speed>4.0</speed>
<temp>0.00</temp>
<bpm>0</bpm>
<rpm>0.00</rpm>
</extensions>
</trkpt>
<trkpt lat="64.164710999" lon="-21.711437225">
<ele>66.251953</ele>
<time>2012-07-18T13:37:20Z</time>
<speed>4.020000</speed>
<extensions>
<speed>4.0</speed>
<temp>0.00</temp>
<bpm>0</bpm>
<rpm>0.00</rpm>
</extensions>
</trkpt>
<trkpt lat="64.164764404" lon="-21.711030960">
<ele>66.332031</ele>
<time>2012-07-18T13:37:25Z</time>
<speed>3.620000</speed>
<extensions>
<speed>3.6</speed>
<temp>0.00</temp>
<bpm>0</bpm>
<rpm>0.00</rpm>
</extensions>
</trkpt>
<trkpt lat="64.164810181" lon="-21.710668564">
<ele>66.042969</ele>
<time>2012-07-18T13:37:30Z</time>
<speed>3.370000</speed>
<extensions>
<speed>3.4</speed>
<temp>0.00</temp>
<bpm>0</bpm>
<rpm>0.00</rpm>
</extensions>
</trkpt>
<trkpt lat="64.164840698" lon="-21.710390091">
<ele>65.929688</ele>
<time>2012-07-18T13:37:35Z</time>
<speed>2.460000</speed>
<extensions>
<speed>2.5</speed>
<temp>0.00</temp>
<bpm>0</bpm>
<rpm>0.00</rpm>
</extensions>
</trkpt>
<trkpt lat="64.164863586" lon="-21.710084915">
<ele>65.390625</ele>
<time>2012-07-18T13:37:40Z</time>
<speed>3.970000</speed>
<extensions>
<speed>4.0</speed>
<temp>0.00</temp>
<bpm>0</bpm>
<rpm>0.00</rpm>
</extensions>
</trkpt>
<trkpt lat="64.164863586" lon="-21.709623337">
<ele>64.324219</ele>
<time>2012-07-18T13:37:45Z</time>
<speed>4.240000</speed>
<extensions>
<speed>4.2</speed>
<temp>0.00</temp>
<bpm>0</bpm>
<rpm>0.00</rpm>
</extensions>
</trkpt>
<trkpt lat="64.164840698" lon="-21.709283829">
<ele>63.998047</ele>
<time>2012-07-18T13:37:50Z</time>
<speed>3.060000</speed>
<extensions>
<speed>3.1</speed>
<temp>0.00</temp>
<bpm>0</bpm>
<rpm>0.00</rpm>
</extensions>
</trkpt>
<trkpt lat="64.164802551" lon="-21.708929062">
<ele>62.402344</ele>
<time>2012-07-18T13:37:55Z</time>
<speed>3.810000</speed>
<extensions>
<speed>3.8</speed>
<temp>0.00</temp>
<bpm>0</bpm>
<rpm>0.00</rpm>
</extensions>
</trkpt>
<trkpt lat="64.164764404" lon="-21.708501816">
<ele>60.058594</ele>
<time>2012-07-18T13:38:00Z</time>
<speed>4.520000</speed>
<extensions>
<speed>4.5</speed>
<temp>0.00</temp>
<bpm>0</bpm>
<rpm>0.00</rpm>
</extensions>
</trkpt>
<trkpt lat="64.164764404" lon="-21.708040237">
<ele>58.524414</ele>
<time>2012-07-18T13:38:05Z</time>
<speed>4.820000</speed>
<extensions>
<speed>4.8</speed>
<temp>0.00</temp>
<bpm>0</bpm>
<rpm>0.00</rpm>
</extensions>
</trkpt>
<trkpt lat="64.164924622" lon="-21.707729340">
<ele>57.008789</ele>
<time>2012-07-18T13:38:10Z</time>
<speed>4.530000</speed>
<extensions>
<speed>4.5</speed>
<temp>0.00</temp>
<bpm>0</bpm>
<rpm>0.00</rpm>
</extensions>
</trkpt>
<trkpt lat="64.165069580" lon="-21.707408905">
<ele>55.661133</ele>
<time>2012-07-18T13:38:15Z</time>
<speed>4.510000</speed>
<extensions>
<speed>4.5</speed>
<temp>0.00</temp>
<bpm>0</bpm>
<rpm>0.00</rpm>
</extensions>
</trkpt>
<trkpt lat="64.165168762" lon="-21.707382202">
<ele>55.483398</ele>
<time>2012-07-18T13:38:20Z</time>
<speed>3.240000</speed>
<extensions>
<speed>3.2</speed>
<temp>0.00</temp>
<bpm>0</bpm>
<rpm>0.00</rpm>
</extensions>
</trkpt>
<trkpt lat="64.165267944" lon="-21.707122803">
<ele>56.776367</ele>
<time>2012-07-18T13:38:25Z</time>
<speed>3.810000</speed>
<extensions>
<speed>3.8</speed>
<temp>0.00</temp>
<bpm>0</bpm>
<rpm>0.00</rpm>
</extensions>
</trkpt>
<trkpt lat="64.165412903" lon="-21.706811905">
<ele>57.277344</ele>
<time>2012-07-18T13:38:30Z</time>
<speed>3.480000</speed>
<extensions>
<speed>3.5</speed>
<temp>0.00</temp>
<bpm>0</bpm>
<rpm>0.00</rpm>
</extensions>
</trkpt>
<trkpt lat="64.165512085" lon="-21.706621170">
<ele>57.907227</ele>
<time>2012-07-18T13:38:35Z</time>
<speed>2.940000</speed>
<extensions>
<speed>2.9</speed>
<temp>0.00</temp>
<bpm>0</bpm>
<rpm>0.00</rpm>
</extensions>
</trkpt>
<trkpt lat="64.165618896" lon="-21.706487656">
<ele>58.958008</ele>
<time>2012-07-18T13:38:40Z</time>
<speed>2.670000</speed>
<extensions>
<speed>2.7</speed>
<temp>0.00</temp>
<bpm>0</bpm>
<rpm>0.00</rpm>
</extensions>
</trkpt>
<trkpt lat="64.165695190" lon="-21.706483841">
<ele>60.698242</ele>
<time>2012-07-18T13:38:45Z</time>
<speed>1.600000</speed>
<extensions>
<speed>1.6</speed>
<temp>0.00</temp>
<bpm>0</bpm>
<rpm>0.00</rpm>
</extensions>
</trkpt>
<trkpt lat="64.165771484" lon="-21.706615448">
<ele>61.499023</ele>
<time>2012-07-18T13:38:50Z</time>
<speed>2.830000</speed>
<extensions>
<speed>2.8</speed>
<temp>0.00</temp>
<bpm>0</bpm>
<rpm>0.00</rpm>
</extensions>
</trkpt>
<trkpt lat="64.165786743" lon="-21.706939697">
<ele>60.695313</ele>
<time>2012-07-18T13:38:55Z</time>
<speed>3.020000</speed>
<extensions>
<speed>3.0</speed>
<temp>0.00</temp>
<bpm>0</bpm>
<rpm>0.00</rpm>
</extensions>
</trkpt>
<trkpt lat="64.165779114" lon="-21.707193375">
<ele>60.660156</ele>
<time>2012-07-18T13:39:00Z</time>
<speed>1.920000</speed>
<extensions>
<speed>1.9</speed>
<temp>0.00</temp>
<bpm>0</bpm>
<rpm>0.00</rpm>
</extensions>
</trkpt>
<trkpt lat="64.165809631" lon="-21.707275391">
<ele>61.911133</ele>
<time>2012-07-18T13:39:05Z</time>
<speed>0.180000</speed>
<extensions>
<speed>0.2</speed>
<temp>0.00</temp>
<bpm>0</bpm>
<rpm>0.00</rpm>
</extensions>
</trkpt>
<trkpt lat="64.165809631" lon="-21.707265854">
<ele>62.166992</ele>
<time>2012-07-18T13:39:10Z</time>
<speed>0.040000</speed>
<extensions>
<speed>0.0</speed>
<temp>0.00</temp>
<bpm>0</bpm>
<rpm>0.00</rpm>
</extensions>
</trkpt>
<trkpt lat="64.165809631" lon="-21.707262039">
<ele>62.314453</ele>
<time>2012-07-18T13:39:15Z</time>
<speed>0.050000</speed>
<extensions>
<speed>0.1</speed>
<temp>0.00</temp>
<bpm>0</bpm>
<rpm>0.00</rpm>
</extensions>
</trkpt>
<trkpt lat="64.165809631" lon="-21.707258224">
<ele>62.370117</ele>
<time>2012-07-18T13:39:20Z</time>
<extensions>
<speed>0.0</speed>
<temp>0.00</temp>
<bpm>0</bpm>
<rpm>0.00</rpm>
</extensions>
</trkpt>
<trkpt lat="64.165809631" lon="-21.707258224">
<ele>62.374023</ele>
<time>2012-07-18T13:39:25Z</time>
<speed>0.020000</speed>
<extensions>
<speed>0.0</speed>
<temp>0.00</temp>
<bpm>0</bpm>
<rpm>0.00</rpm>
</extensions>
</trkpt>
<trkpt lat="64.165809631" lon="-21.707256317">
<ele>62.378906</ele>
<time>2012-07-18T13:39:30Z</time>
<speed>0.020000</speed>
<extensions>
<speed>0.0</speed>
<temp>0.00</temp>
<bpm>0</bpm>
<rpm>0.00</rpm>
</extensions>
</trkpt>
<trkpt lat="64.165809631" lon="-21.707254410">
<ele>62.356445</ele>
<time>2012-07-18T13:39:35Z</time>
<speed>0.020000</speed>
<extensions>
<speed>0.0</speed>
<temp>0.00</temp>
<bpm>0</bpm>
<rpm>0.00</rpm>
</extensions>
</trkpt>
<trkpt lat="64.165809631" lon="-21.707252502">
<ele>62.259766</ele>
<time>2012-07-18T13:39:40Z</time>
<speed>0.030000</speed>
<extensions>
<speed>0.0</speed>
<temp>0.00</temp>
<bpm>0</bpm>
<rpm>0.00</rpm>
</extensions>
</trkpt>
<trkpt lat="64.165802002" lon="-21.707248688">
<ele>61.988281</ele>
<time>2012-07-18T13:39:45Z</time>
<speed>0.070000</speed>
<extensions>
<speed>0.1</speed>
<temp>0.00</temp>
<bpm>0</bpm>
<rpm>0.00</rpm>
</extensions>
</trkpt>
<trkpt lat="64.165802002" lon="-21.707241058">
<ele>61.474609</ele>
<time>2012-07-18T13:39:50Z</time>
<speed>0.100000</speed>
<extensions>
<speed>0.1</speed>
<temp>0.00</temp>
<bpm>0</bpm>
<rpm>0.00</rpm>
</extensions>
</trkpt>
<trkpt lat="64.165794373" lon="-21.707231522">
<ele>60.700195</ele>
<time>2012-07-18T13:39:55Z</time>
<speed>0.130000</speed>
<extensions>
<speed>0.1</speed>
<temp>0.00</temp>
<bpm>0</bpm>
<rpm>0.00</rpm>
</extensions>
</trkpt>
<trkpt lat="64.165794373" lon="-21.707221985">
<ele>59.640625</ele>
<time>2012-07-18T13:40:00Z</time>
<speed>0.160000</speed>
<extensions>
<speed>0.2</speed>
<temp>0.00</temp>
<bpm>0</bpm>
<rpm>0.00</rpm>
</extensions>
</trkpt>
<trkpt lat="64.165786743" lon="-21.707212448">
<ele>58.273438</ele>
<time>2012-07-18T13:40:05Z</time>
<speed>0.160000</speed>
<extensions>
<speed>0.2</speed>
<temp>0.00</temp>
<bpm>0</bpm>
<rpm>0.00</rpm>
</extensions>
</trkpt>
<trkpt lat="64.165779114" lon="-21.707204819">
<ele>56.735352</ele>
<time>2012-07-18T13:40:10Z</time>
<speed>0.140000</speed>
<extensions>
<speed>0.1</speed>
<temp>0.00</temp>
<bpm>0</bpm>
<rpm>0.00</rpm>
</extensions>
</trkpt>
<trkpt lat="64.165771484" lon="-21.707197189">
<ele>55.005859</ele>
<time>2012-07-18T13:40:15Z</time>
<speed>0.120000</speed>
<extensions>
<speed>0.1</speed>
<temp>0.00</temp>
<bpm>0</bpm>
<rpm>0.00</rpm>
</extensions>
</trkpt>
<trkpt lat="64.165763855" lon="-21.707187653">
<ele>53.044922</ele>
<time>2012-07-18T13:40:20Z</time>
<speed>0.070000</speed>
<extensions>
<speed>0.1</speed>
<temp>0.00</temp>
<bpm>0</bpm>
<rpm>0.00</rpm>
</extensions>
</trkpt>
<trkpt lat="64.165763855" lon="-21.707185745">
<ele>52.010742</ele>
<time>2012-07-18T13:40:25Z</time>
<speed>0.020000</speed>
<extensions>
<speed>0.0</speed>
<temp>0.00</temp>
<bpm>0</bpm>
<rpm>0.00</rpm>
</extensions>
</trkpt>
<trkpt lat="64.165763855" lon="-21.707183838">
<ele>51.685547</ele>
<time>2012-07-18T13:40:30Z</time>
<extensions>
<speed>0.0</speed>
<temp>0.00</temp>
<bpm>0</bpm>
<rpm>0.00</rpm>
</extensions>
</trkpt>
<trkpt lat="64.165763855" lon="-21.707183838">
<ele>51.570313</ele>
<time>2012-07-18T13:40:35Z</time>
<speed>0.010000</speed>
<extensions>
<speed>0.0</speed>
<temp>0.00</temp>
<bpm>0</bpm>
<rpm>0.00</rpm>
</extensions>
</trkpt>
<trkpt lat="64.165763855" lon="-21.707181931">
<ele>51.520508</ele>
<time>2012-07-18T13:40:40Z</time>
<speed>0.050000</speed>
<extensions>
<speed>0.1</speed>
<temp>0.00</temp>
<bpm>0</bpm>
<rpm>0.00</rpm>
</extensions>
</trkpt>
<trkpt lat="64.165763855" lon="-21.707181931">
<ele>51.529297</ele>
<time>2012-07-18T13:40:45Z</time>
<speed>0.020000</speed>
<extensions>
<speed>0.0</speed>
<temp>0.00</temp>
<bpm>0</bpm>
<rpm>0.00</rpm>
</extensions>
</trkpt>
<trkpt lat="64.165763855" lon="-21.707180023">
<ele>51.540039</ele>
<time>2012-07-18T13:40:50Z</time>
<speed>0.030000</speed>
<extensions>
<speed>0.0</speed>
<temp>0.00</temp>
<bpm>0</bpm>
<rpm>0.00</rpm>
</extensions>
</trkpt>
<trkpt lat="64.165763855" lon="-21.707178116">
<ele>51.551758</ele>
<time>2012-07-18T13:40:55Z</time>
<speed>0.020000</speed>
<extensions>
<speed>0.0</speed>
<temp>0.00</temp>
<bpm>0</bpm>
<rpm>0.00</rpm>
</extensions>
</trkpt>
<trkpt lat="64.165763855" lon="-21.707176208">
<ele>51.580078</ele>
<time>2012-07-18T13:41:00Z</time>
<extensions>
<speed>0.0</speed>
<temp>0.00</temp>
<bpm>0</bpm>
<rpm>0.00</rpm>
</extensions>
</trkpt>
<trkpt lat="64.165763855" lon="-21.707176208">
<ele>51.629883</ele>
<time>2012-07-18T13:41:05Z</time>
<speed>0.010000</speed>
<extensions>
<speed>0.0</speed>
<temp>0.00</temp>
<bpm>0</bpm>
<rpm>0.00</rpm>
</extensions>
</trkpt>
<trkpt lat="64.165763855" lon="-21.707176208">
<ele>51.670898</ele>
<time>2012-07-18T13:41:10Z</time>
<speed>0.010000</speed>
<extensions>
<speed>0.0</speed>
<temp>0.00</temp>
<bpm>0</bpm>
<rpm>0.00</rpm>
</extensions>
</trkpt>
<trkpt lat="64.165763855" lon="-21.707176208">
<ele>51.712891</ele>
<time>2012-07-18T13:41:15Z</time>
<extensions>
<speed>0.0</speed>
<temp>0.00</temp>
<bpm>0</bpm>
<rpm>0.00</rpm>
</extensions>
</trkpt>
<trkpt lat="64.165763855" lon="-21.707176208">
<ele>51.740234</ele>
<time>2012-07-18T13:41:20Z</time>
<extensions>
<speed>0.0</speed>
<temp>0.00</temp>
<bpm>0</bpm>
<rpm>0.00</rpm>
</extensions>
</trkpt>
<trkpt lat="64.165763855" lon="-21.707176208">
<ele>51.712891</ele>
<time>2012-07-18T13:41:25Z</time>
<speed>0.010000</speed>
<extensions>
<speed>0.0</speed>
<temp>0.00</temp>
<bpm>0</bpm>
<rpm>0.00</rpm>
</extensions>
</trkpt>
<trkpt lat="64.165763855" lon="-21.707176208">
<ele>51.749023</ele>
<time>2012-07-18T13:41:30Z</time>
<extensions>
<speed>0.0</speed>
<temp>0.00</temp>
<bpm>0</bpm>
<rpm>0.00</rpm>
</extensions>
</trkpt>
<trkpt lat="64.165763855" lon="-21.707176208">
<ele>51.749023</ele>
<time>2012-07-18T13:41:35Z</time>
<extensions>
<speed>0.0</speed>
<temp>0.00</temp>
<bpm>0</bpm>
<rpm>0.00</rpm>
</extensions>
</trkpt>
<trkpt lat="64.165763855" lon="-21.707176208">
<ele>51.774414</ele>
<time>2012-07-18T13:41:40Z</time>
<speed>0.060000</speed>
<extensions>
<speed>0.1</speed>
<temp>0.00</temp>
<bpm>0</bpm>
<rpm>0.00</rpm>
</extensions>
</trkpt>
<trkpt lat="64.165763855" lon="-21.707178116">
<ele>51.802734</ele>
<time>2012-07-18T13:41:45Z</time>
<speed>0.030000</speed>
<extensions>
<speed>0.0</speed>
<temp>0.00</temp>
<bpm>0</bpm>
<rpm>0.00</rpm>
</extensions>
</trkpt>
<trkpt lat="64.165771484" lon="-21.707181931">
<ele>51.751953</ele>
<time>2012-07-18T13:41:50Z</time>
<speed>0.660000</speed>
<extensions>
<speed>0.7</speed>
<temp>0.00</temp>
<bpm>0</bpm>
<rpm>0.00</rpm>
</extensions>
</trkpt>
<trkpt lat="64.165756226" lon="-21.707141876">
<ele>51.092773</ele>
<time>2012-07-18T13:41:55Z</time>
<speed>0.630000</speed>
<extensions>
<speed>0.6</speed>
<temp>0.00</temp>
<bpm>0</bpm>
<rpm>0.00</rpm>
</extensions>
</trkpt>
<trkpt lat="64.165740967" lon="-21.707157135">
<ele>50.389648</ele>
<time>2012-07-18T13:42:00Z</time>
<speed>0.520000</speed>
<extensions>
<speed>0.5</speed>
<temp>0.00</temp>
<bpm>0</bpm>
<rpm>0.00</rpm>
</extensions>
</trkpt>
<trkpt lat="64.165725708" lon="-21.707134247">
<ele>49.650391</ele>
<time>2012-07-18T13:42:05Z</time>
<speed>0.290000</speed>
<extensions>
<speed>0.3</speed>
<temp>0.00</temp>
<bpm>0</bpm>
<rpm>0.00</rpm>
</extensions>
</trkpt>
<trkpt lat="64.165718079" lon="-21.707115173">
<ele>48.909180</ele>
<time>2012-07-18T13:42:10Z</time>
<speed>0.100000</speed>
<extensions>
<speed>0.1</speed>
<temp>0.00</temp>
<bpm>0</bpm>
<rpm>0.00</rpm>
</extensions>
</trkpt>
<trkpt lat="64.165710449" lon="-21.707117081">
<ele>48.335938</ele>
<time>2012-07-18T13:42:15Z</time>
<speed>0.100000</speed>
<extensions>
<speed>0.1</speed>
<temp>0.00</temp>
<bpm>0</bpm>
<rpm>0.00</rpm>
</extensions>
</trkpt>
<trkpt lat="64.165710449" lon="-21.707117081">
<ele>47.791992</ele>
<time>2012-07-18T13:42:20Z</time>
<speed>0.040000</speed>
<extensions>
<speed>0.0</speed>
<temp>0.00</temp>
<bpm>0</bpm>
<rpm>0.00</rpm>
</extensions>
</trkpt>
<trkpt lat="64.165710449" lon="-21.707113266">
<ele>47.235352</ele>
<time>2012-07-18T13:42:25Z</time>
<speed>0.050000</speed>
<extensions>
<speed>0.1</speed>
<temp>0.00</temp>
<bpm>0</bpm>
<rpm>0.00</rpm>
</extensions>
</trkpt>
<trkpt lat="64.165710449" lon="-21.707115173">
<ele>46.612305</ele>
<time>2012-07-18T13:42:30Z</time>
<speed>0.010000</speed>
<extensions>
<speed>0.0</speed>
<temp>0.00</temp>
<bpm>0</bpm>
<rpm>0.00</rpm>
</extensions>
</trkpt>
<trkpt lat="64.165710449" lon="-21.707113266">
<ele>45.997070</ele>
<time>2012-07-18T13:42:35Z</time>
<speed>0.020000</speed>
<extensions>
<speed>0.0</speed>
<temp>0.00</temp>
<bpm>0</bpm>
<rpm>0.00</rpm>
</extensions>
</trkpt>
<trkpt lat="64.165702820" lon="-21.707103729">
<ele>45.390625</ele>
<time>2012-07-18T13:42:40Z</time>
<speed>0.390000</speed>
<extensions>
<speed>0.4</speed>
<temp>0.00</temp>
<bpm>0</bpm>
<rpm>0.00</rpm>
</extensions>
</trkpt>
<trkpt lat="64.165702820" lon="-21.707063675">
<ele>45.907227</ele>
<time>2012-07-18T13:42:45Z</time>
<speed>1.260000</speed>
<extensions>
<speed>1.3</speed>
<temp>0.00</temp>
<bpm>0</bpm>
<rpm>0.00</rpm>
</extensions>
</trkpt>
<trkpt lat="64.165718079" lon="-21.706918716">
<ele>47.077148</ele>
<time>2012-07-18T13:42:50Z</time>
<speed>1.900000</speed>
<extensions>
<speed>1.9</speed>
<temp>0.00</temp>
<bpm>0</bpm>
<rpm>0.00</rpm>
</extensions>
</trkpt>
<trkpt lat="64.165695190" lon="-21.706727982">
<ele>47.776367</ele>
<time>2012-07-18T13:42:55Z</time>
<speed>1.870000</speed>
<extensions>
<speed>1.9</speed>
<temp>0.00</temp>
<bpm>0</bpm>
<rpm>0.00</rpm>
</extensions>
</trkpt>
<trkpt lat="64.165725708" lon="-21.706586838">
<ele>51.249023</ele>
<time>2012-07-18T13:43:00Z</time>
<speed>1.290000</speed>
<extensions>
<speed>1.3</speed>
<temp>0.00</temp>
<bpm>0</bpm>
<rpm>0.00</rpm>
</extensions>
</trkpt>
<trkpt lat="64.165710449" lon="-21.706548691">
<ele>51.863281</ele>
<time>2012-07-18T13:43:05Z</time>
<speed>0.400000</speed>
<extensions>
<speed>0.4</speed>
<temp>0.00</temp>
<bpm>0</bpm>
<rpm>0.00</rpm>
</extensions>
</trkpt>
<trkpt lat="64.165695190" lon="-21.706487656">
<ele>52.311523</ele>
<time>2012-07-18T13:43:10Z</time>
<speed>0.940000</speed>
<extensions>
<speed>0.9</speed>
<temp>0.00</temp>
<bpm>0</bpm>
<rpm>0.00</rpm>
</extensions>
</trkpt>
<trkpt lat="64.165626526" lon="-21.706401825">
<ele>52.602539</ele>
<time>2012-07-18T13:43:15Z</time>
<speed>1.970000</speed>
<extensions>
<speed>2.0</speed>
<temp>0.00</temp>
<bpm>0</bpm>
<rpm>0.00</rpm>
</extensions>
</trkpt>
<trkpt lat="64.165527344" lon="-21.706357956">
<ele>53.573242</ele>
<time>2012-07-18T13:43:20Z</time>
<speed>2.190000</speed>
<extensions>
<speed>2.2</speed>
<temp>0.00</temp>
<bpm>0</bpm>
<rpm>0.00</rpm>
</extensions>
</trkpt>
<trkpt lat="64.165420532" lon="-21.706342697">
<ele>55.075195</ele>
<time>2012-07-18T13:43:25Z</time>
<speed>2.310000</speed>
<extensions>
<speed>2.3</speed>
<temp>0.00</temp>
<bpm>0</bpm>
<rpm>0.00</rpm>
</extensions>
</trkpt>
<trkpt lat="64.165336609" lon="-21.706333160">
<ele>55.972656</ele>
<time>2012-07-18T13:43:30Z</time>
<speed>1.140000</speed>
<extensions>
<speed>1.1</speed>
<temp>0.00</temp>
<bpm>0</bpm>
<rpm>0.00</rpm>
</extensions>
</trkpt>
<trkpt lat="64.165222168" lon="-21.706371307">
<ele>56.367188</ele>
<time>2012-07-18T13:43:35Z</time>
<speed>3.480000</speed>
<extensions>
<speed>3.5</speed>
<temp>0.00</temp>
<bpm>0</bpm>
<rpm>0.00</rpm>
</extensions>
</trkpt>
<trkpt lat="64.165084839" lon="-21.706626892">
<ele>57.444336</ele>
<time>2012-07-18T13:43:40Z</time>
<speed>4.070000</speed>
<extensions>
<speed>4.1</speed>
<temp>0.00</temp>
<bpm>0</bpm>
<rpm>0.00</rpm>
</extensions>
</trkpt>
<trkpt lat="64.164932251" lon="-21.706892014">
<ele>57.983398</ele>
<time>2012-07-18T13:43:45Z</time>
<speed>4.350000</speed>
<extensions>
<speed>4.3</speed>
<temp>0.00</temp>
<bpm>0</bpm>
<rpm>0.00</rpm>
</extensions>
</trkpt>
<trkpt lat="64.164741516" lon="-21.706798553">
<ele>59.079102</ele>
<time>2012-07-18T13:43:50Z</time>
<speed>4.130000</speed>
<extensions>
<speed>4.1</speed>
<temp>0.00</temp>
<bpm>0</bpm>
<rpm>0.00</rpm>
</extensions>
</trkpt>
<trkpt lat="64.164642334" lon="-21.706512451">
<ele>58.286133</ele>
<time>2012-07-18T13:43:55Z</time>
<speed>2.930000</speed>
<extensions>
<speed>2.9</speed>
<temp>0.00</temp>
<bpm>0</bpm>
<rpm>0.00</rpm>
</extensions>
</trkpt>
<trkpt lat="64.164627075" lon="-21.706249237">
<ele>57.926758</ele>
<time>2012-07-18T13:44:00Z</time>
<speed>2.430000</speed>
<extensions>
<speed>2.4</speed>
<temp>0.00</temp>
<bpm>0</bpm>
<rpm>0.00</rpm>
</extensions>
</trkpt>
<trkpt lat="64.164649963" lon="-21.705980301">
<ele>58.040039</ele>
<time>2012-07-18T13:44:05Z</time>
<speed>2.520000</speed>
<extensions>
<speed>2.5</speed>
<temp>0.00</temp>
<bpm>0</bpm>
<rpm>0.00</rpm>
</extensions>
</trkpt>
<trkpt lat="64.164657593" lon="-21.705644608">
<ele>55.965820</ele>
<time>2012-07-18T13:44:10Z</time>
<speed>3.630000</speed>
<extensions>
<speed>3.6</speed>
<temp>0.00</temp>
<bpm>0</bpm>
<rpm>0.00</rpm>
</extensions>
</trkpt>
<trkpt lat="64.164642334" lon="-21.705280304">
<ele>55.548828</ele>
<time>2012-07-18T13:44:15Z</time>
<speed>2.970000</speed>
<extensions>
<speed>3.0</speed>
<temp>0.00</temp>
<bpm>0</bpm>
<rpm>0.00</rpm>
</extensions>
</trkpt>
<trkpt lat="64.164627075" lon="-21.705028534">
<ele>55.209961</ele>
<time>2012-07-18T13:44:20Z</time>
<speed>2.200000</speed>
<extensions>
<speed>2.2</speed>
<temp>0.00</temp>
<bpm>0</bpm>
<rpm>0.00</rpm>
</extensions>
</trkpt>
<trkpt lat="64.164627075" lon="-21.704837799">
<ele>55.682617</ele>
<time>2012-07-18T13:44:25Z</time>
<speed>1.510000</speed>
<extensions>
<speed>1.5</speed>
<temp>0.00</temp>
<bpm>0</bpm>
<rpm>0.00</rpm>
</extensions>
</trkpt>
<trkpt lat="64.164611816" lon="-21.704687119">
<ele>56.679688</ele>
<time>2012-07-18T13:44:30Z</time>
<speed>1.870000</speed>
<extensions>
<speed>1.9</speed>
<temp>0.00</temp>
<bpm>0</bpm>
<rpm>0.00</rpm>
</extensions>
</trkpt>
<trkpt lat="64.164596558" lon="-21.704481125">
<ele>56.303711</ele>
<time>2012-07-18T13:44:35Z</time>
<speed>2.050000</speed>
<extensions>
<speed>2.1</speed>
<temp>0.00</temp>
<bpm>0</bpm>
<rpm>0.00</rpm>
</extensions>
</trkpt>
<trkpt lat="64.164596558" lon="-21.704252243">
<ele>56.433594</ele>
<time>2012-07-18T13:44:40Z</time>
<speed>1.970000</speed>
<extensions>
<speed>2.0</speed>
<temp>0.00</temp>
<bpm>0</bpm>
<rpm>0.00</rpm>
</extensions>
</trkpt>
<trkpt lat="64.164588928" lon="-21.704055786">
<ele>56.184570</ele>
<time>2012-07-18T13:44:45Z</time>
<speed>2.100000</speed>
<extensions>
<speed>2.1</speed>
<temp>0.00</temp>
<bpm>0</bpm>
<rpm>0.00</rpm>
</extensions>
</trkpt>
<trkpt lat="64.164581299" lon="-21.703874588">
<ele>55.685547</ele>
<time>2012-07-18T13:44:50Z</time>
<speed>1.840000</speed>
<extensions>
<speed>1.8</speed>
<temp>0.00</temp>
<bpm>0</bpm>
<rpm>0.00</rpm>
</extensions>
</trkpt>
<trkpt lat="64.164558411" lon="-21.703687668">
<ele>55.676758</ele>
<time>2012-07-18T13:44:55Z</time>
<speed>1.990000</speed>
<extensions>
<speed>2.0</speed>
<temp>0.00</temp>
<bpm>0</bpm>
<rpm>0.00</rpm>
</extensions>
</trkpt>
<trkpt lat="64.164543152" lon="-21.703464508">
<ele>55.966797</ele>
<time>2012-07-18T13:45:00Z</time>
<speed>2.320000</speed>
<extensions>
<speed>2.3</speed>
<temp>0.00</temp>
<bpm>0</bpm>
<rpm>0.00</rpm>
</extensions>
</trkpt>
<trkpt lat="64.164535522" lon="-21.703243256">
<ele>55.928711</ele>
<time>2012-07-18T13:45:05Z</time>
<speed>1.980000</speed>
<extensions>
<speed>2.0</speed>
<temp>0.00</temp>
<bpm>0</bpm>
<rpm>0.00</rpm>
</extensions>
</trkpt>
<trkpt lat="64.164527893" lon="-21.703044891">
<ele>55.477539</ele>
<time>2012-07-18T13:45:10Z</time>
<speed>2.250000</speed>
<extensions>
<speed>2.3</speed>
<temp>0.00</temp>
<bpm>0</bpm>
<rpm>0.00</rpm>
</extensions>
</trkpt>
<trkpt lat="64.164520264" lon="-21.702800751">
<ele>56.338867</ele>
<time>2012-07-18T13:45:15Z</time>
<speed>2.440000</speed>
<extensions>
<speed>2.4</speed>
<temp>0.00</temp>
<bpm>0</bpm>
<rpm>0.00</rpm>
</extensions>
</trkpt>
<trkpt lat="64.164512634" lon="-21.702482224">
<ele>56.133789</ele>
<time>2012-07-18T13:45:20Z</time>
<speed>3.020000</speed>
<extensions>
<speed>3.0</speed>
<temp>0.00</temp>
<bpm>0</bpm>
<rpm>0.00</rpm>
</extensions>
</trkpt>
<trkpt lat="64.164497375" lon="-21.702178955">
<ele>56.295898</ele>
<time>2012-07-18T13:45:25Z</time>
<speed>2.990000</speed>
<extensions>
<speed>3.0</speed>
<temp>0.00</temp>
<bpm>0</bpm>
<rpm>0.00</rpm>
</extensions>
</trkpt>
<trkpt lat="64.164489746" lon="-21.701858521">
<ele>55.630859</ele>
<time>2012-07-18T13:45:30Z</time>
<speed>3.200000</speed>
<extensions>
<speed>3.2</speed>
<temp>0.00</temp>
<bpm>0</bpm>
<rpm>0.00</rpm>
</extensions>
</trkpt>
<trkpt lat="64.164459229" lon="-21.701507568">
<ele>54.733398</ele>
<time>2012-07-18T13:45:35Z</time>
<speed>3.560000</speed>
<extensions>
<speed>3.6</speed>
<temp>0.00</temp>
<bpm>0</bpm>
<rpm>0.00</rpm>
</extensions>
</trkpt>
<trkpt lat="64.164451599" lon="-21.701112747">
<ele>53.976563</ele>
<time>2012-07-18T13:45:40Z</time>
<speed>3.870000</speed>
<extensions>
<speed>3.9</speed>
<temp>0.00</temp>
<bpm>0</bpm>
<rpm>0.00</rpm>
</extensions>
</trkpt>
<trkpt lat="64.164436340" lon="-21.700700760">
<ele>53.789063</ele>
<time>2012-07-18T13:45:45Z</time>
<speed>4.120000</speed>
<extensions>
<speed>4.1</speed>
<temp>0.00</temp>
<bpm>0</bpm>
<rpm>0.00</rpm>
</extensions>
</trkpt>
<trkpt lat="64.164428711" lon="-21.700237274">
<ele>52.657227</ele>
<time>2012-07-18T13:45:50Z</time>
<speed>4.880000</speed>
<extensions>
<speed>4.9</speed>
<temp>0.00</temp>
<bpm>0</bpm>
<rpm>0.00</rpm>
</extensions>
</trkpt>
<trkpt lat="64.164413452" lon="-21.699699402">
<ele>51.587891</ele>
<time>2012-07-18T13:45:55Z</time>
<speed>5.590000</speed>
<extensions>
<speed>5.6</speed>
<temp>0.00</temp>
<bpm>0</bpm>
<rpm>0.00</rpm>
</extensions>
</trkpt>
<trkpt lat="64.164413452" lon="-21.699062347">
<ele>50.129883</ele>
<time>2012-07-18T13:46:00Z</time>
<speed>6.460000</speed>
<extensions>
<speed>6.5</speed>
<temp>0.00</temp>
<bpm>0</bpm>
<rpm>0.00</rpm>
</extensions>
</trkpt>
<trkpt lat="64.164428711" lon="-21.698339462">
<ele>48.422852</ele>
<time>2012-07-18T13:46:05Z</time>
<speed>7.220000</speed>
<extensions>
<speed>7.2</speed>
<temp>0.00</temp>
<bpm>0</bpm>
<rpm>0.00</rpm>
</extensions>
</trkpt>
<trkpt lat="64.164474487" lon="-21.697546005">
<ele>46.249023</ele>
<time>2012-07-18T13:46:10Z</time>
<speed>7.940000</speed>
<extensions>
<speed>7.9</speed>
<temp>0.00</temp>
<bpm>0</bpm>
<rpm>0.00</rpm>
</extensions>
</trkpt>
<trkpt lat="64.164535522" lon="-21.696699142">
<ele>44.107422</ele>
<time>2012-07-18T13:46:15Z</time>
<speed>8.450000</speed>
<extensions>
<speed>8.5</speed>
<temp>0.00</temp>
<bpm>0</bpm>
<rpm>0.00</rpm>
</extensions>
</trkpt>
<trkpt lat="64.164627075" lon="-21.695842743">
<ele>40.473633</ele>
<time>2012-07-18T13:46:20Z</time>
<speed>8.600000</speed>
<extensions>
<speed>8.6</speed>
<temp>0.00</temp>
<bpm>0</bpm>
<rpm>0.00</rpm>
</extensions>
</trkpt>
<trkpt lat="64.164764404" lon="-21.695026398">
<ele>37.440430</ele>
<time>2012-07-18T13:46:25Z</time>
<speed>8.300000</speed>
<extensions>
<speed>8.3</speed>
<temp>0.00</temp>
<bpm>0</bpm>
<rpm>0.00</rpm>
</extensions>
</trkpt>
<trkpt lat="64.164932251" lon="-21.694305420">
<ele>38.063477</ele>
<time>2012-07-18T13:46:30Z</time>
<speed>7.890000</speed>
<extensions>
<speed>7.9</speed>
<temp>0.00</temp>
<bpm>0</bpm>
<rpm>0.00</rpm>
</extensions>
</trkpt>
<trkpt lat="64.165145874" lon="-21.693685532">
<ele>41.545898</ele>
<time>2012-07-18T13:46:35Z</time>
<speed>7.460000</speed>
<extensions>
<speed>7.5</speed>
<temp>0.00</temp>
<bpm>0</bpm>
<rpm>0.00</rpm>
</extensions>
</trkpt>
<trkpt lat="64.165306091" lon="-21.693038940">
<ele>41.925781</ele>
<time>2012-07-18T13:46:40Z</time>
<speed>7.140000</speed>
<extensions>
<speed>7.1</speed>
<temp>0.00</temp>
<bpm>0</bpm>
<rpm>0.00</rpm>
</extensions>
</trkpt>
<trkpt lat="64.165504456" lon="-21.692554474">
<ele>42.105469</ele>
<time>2012-07-18T13:46:45Z</time>
<speed>6.530000</speed>
<extensions>
<speed>6.5</speed>
<temp>0.00</temp>
<bpm>0</bpm>
<rpm>0.00</rpm>
</extensions>
</trkpt>
<trkpt lat="64.165756226" lon="-21.692201614">
<ele>41.724609</ele>
<time>2012-07-18T13:46:50Z</time>
<speed>6.690000</speed>
<extensions>
<speed>6.7</speed>
<temp>0.00</temp>
<bpm>0</bpm>
<rpm>0.00</rpm>
</extensions>
</trkpt>
<trkpt lat="64.166023254" lon="-21.691841125">
<ele>41.011719</ele>
<time>2012-07-18T13:46:55Z</time>
<speed>7.080000</speed>
<extensions>
<speed>7.1</speed>
<temp>0.00</temp>
<bpm>0</bpm>
<rpm>0.00</rpm>
</extensions>
</trkpt>
<trkpt lat="64.166305542" lon="-21.691474915">
<ele>41.022461</ele>
<time>2012-07-18T13:47:00Z</time>
<speed>7.540000</speed>
<extensions>
<speed>7.5</speed>
<temp>0.00</temp>
<bpm>0</bpm>
<rpm>0.00</rpm>
</extensions>
</trkpt>
<trkpt lat="64.166595459" lon="-21.690986633">
<ele>39.319336</ele>
<time>2012-07-18T13:47:05Z</time>
<speed>8.500000</speed>
<extensions>
<speed>8.5</speed>
<temp>0.00</temp>
<bpm>0</bpm>
<rpm>0.00</rpm>
</extensions>
</trkpt>
<trkpt lat="64.166900635" lon="-21.690340042">
<ele>37.027344</ele>
<time>2012-07-18T13:47:10Z</time>
<speed>9.790000</speed>
<extensions>
<speed>9.8</speed>
<temp>0.00</temp>
<bpm>0</bpm>
<rpm>0.00</rpm>
</extensions>
</trkpt>
<trkpt lat="64.167182922" lon="-21.689517975">
<ele>34.585938</ele>
<time>2012-07-18T13:47:15Z</time>
<speed>10.710000</speed>
<extensions>
<speed>10.7</speed>
<temp>0.00</temp>
<bpm>0</bpm>
<rpm>0.00</rpm>
</extensions>
</trkpt>
<trkpt lat="64.167411804" lon="-21.688499451">
<ele>31.830078</ele>
<time>2012-07-18T13:47:20Z</time>
<speed>11.140000</speed>
<extensions>
<speed>11.1</speed>
<temp>0.00</temp>
<bpm>0</bpm>
<rpm>0.00</rpm>
</extensions>
</trkpt>
<trkpt lat="64.167549133" lon="-21.687358856">
<ele>27.975586</ele>
<time>2012-07-18T13:47:25Z</time>
<speed>11.610000</speed>
<extensions>
<speed>11.6</speed>
<temp>0.00</temp>
<bpm>0</bpm>
<rpm>0.00</rpm>
</extensions>
</trkpt>
<trkpt lat="64.167594910" lon="-21.686147690">
<ele>25.768555</ele>
<time>2012-07-18T13:47:30Z</time>
<speed>11.020000</speed>
<extensions>
<speed>11.0</speed>
<temp>0.00</temp>
<bpm>0</bpm>
<rpm>0.00</rpm>
</extensions>
</trkpt>
<trkpt lat="64.167648315" lon="-21.685054779">
<ele>24.223633</ele>
<time>2012-07-18T13:47:35Z</time>
<speed>9.880000</speed>
<extensions>
<speed>9.9</speed>
<temp>0.00</temp>
<bpm>0</bpm>
<rpm>0.00</rpm>
</extensions>
</trkpt>
<trkpt lat="64.167762756" lon="-21.684257507">
<ele>23.989258</ele>
<time>2012-07-18T13:47:40Z</time>
<speed>7.080000</speed>
<extensions>
<speed>7.1</speed>
<temp>0.00</temp>
<bpm>0</bpm>
<rpm>0.00</rpm>
</extensions>
</trkpt>
<trkpt lat="64.167770386" lon="-21.683580399">
<ele>21.931152</ele>
<time>2012-07-18T13:47:45Z</time>
<speed>5.980000</speed>
<extensions>
<speed>6.0</speed>
<temp>0.00</temp>
<bpm>0</bpm>
<rpm>0.00</rpm>
</extensions>
</trkpt>
<trkpt lat="64.167655945" lon="-21.683097839">
<ele>20.937988</ele>
<time>2012-07-18T13:47:50Z</time>
<speed>4.830000</speed>
<extensions>
<speed>4.8</speed>
<temp>0.00</temp>
<bpm>0</bpm>
<rpm>0.00</rpm>
</extensions>
</trkpt>
<trkpt lat="64.167556763" lon="-21.682804108">
<ele>19.956543</ele>
<time>2012-07-18T13:47:55Z</time>
<speed>2.450000</speed>
<extensions>
<speed>2.4</speed>
<temp>0.00</temp>
<bpm>0</bpm>
<rpm>0.00</rpm>
</extensions>
</trkpt>
<trkpt lat="64.167503357" lon="-21.682638168">
<ele>19.009766</ele>
<time>2012-07-18T13:48:00Z</time>
<speed>2.010000</speed>
<extensions>
<speed>2.0</speed>
<temp>0.00</temp>
<bpm>0</bpm>
<rpm>0.00</rpm>
</extensions>
</trkpt>
<trkpt lat="64.167533875" lon="-21.682506561">
<ele>19.600586</ele>
<time>2012-07-18T13:48:05Z</time>
<speed>3.410000</speed>
<extensions>
<speed>3.4</speed>
<temp>0.00</temp>
<bpm>0</bpm>
<rpm>0.00</rpm>
</extensions>
</trkpt>
<trkpt lat="64.167648315" lon="-21.682809830">
<ele>18.039063</ele>
<time>2012-07-18T13:48:10Z</time>
<speed>4.350000</speed>
<extensions>
<speed>4.3</speed>
<temp>0.00</temp>
<bpm>0</bpm>
<rpm>0.00</rpm>
</extensions>
</trkpt>
<trkpt lat="64.167770386" lon="-21.683109283">
<ele>18.217285</ele>
<time>2012-07-18T13:48:15Z</time>
<speed>3.080000</speed>
<extensions>
<speed>3.1</speed>
<temp>0.00</temp>
<bpm>0</bpm>
<rpm>0.00</rpm>
</extensions>
</trkpt>
<trkpt lat="64.167793274" lon="-21.683162689">
<ele>18.605469</ele>
<time>2012-07-18T13:48:20Z</time>
<speed>0.160000</speed>
<extensions>
<speed>0.2</speed>
<temp>0.00</temp>
<bpm>0</bpm>
<rpm>0.00</rpm>
</extensions>
</trkpt>
<trkpt lat="64.167808533" lon="-21.683122635">
<ele>18.889648</ele>
<time>2012-07-18T13:48:25Z</time>
<speed>1.140000</speed>
<extensions>
<speed>1.1</speed>
<temp>0.00</temp>
<bpm>0</bpm>
<rpm>0.00</rpm>
</extensions>
</trkpt>
<trkpt lat="64.167755127" lon="-21.682964325">
<ele>19.479980</ele>
<time>2012-07-18T13:48:30Z</time>
<speed>2.130000</speed>
<extensions>
<speed>2.1</speed>
<temp>0.00</temp>
<bpm>0</bpm>
<rpm>0.00</rpm>
</extensions>
</trkpt>
<trkpt lat="64.167816162" lon="-21.682786942">
<ele>20.446777</ele>
<time>2012-07-18T13:48:35Z</time>
<speed>2.200000</speed>
<extensions>
<speed>2.2</speed>
<temp>0.00</temp>
<bpm>0</bpm>
<rpm>0.00</rpm>
</extensions>
</trkpt>
<trkpt lat="64.167922974" lon="-21.682693481">
<ele>21.362793</ele>
<time>2012-07-18T13:48:40Z</time>
<speed>2.370000</speed>
<extensions>
<speed>2.4</speed>
<temp>0.00</temp>
<bpm>0</bpm>
<rpm>0.00</rpm>
</extensions>
</trkpt>
<trkpt lat="64.167991638" lon="-21.682611465">
<ele>22.249023</ele>
<time>2012-07-18T13:48:45Z</time>
<speed>0.930000</speed>
<extensions>
<speed>0.9</speed>
<temp>0.00</temp>
<bpm>0</bpm>
<rpm>0.00</rpm>
</extensions>
</trkpt>
<trkpt lat="64.168045044" lon="-21.682523727">
<ele>23.167969</ele>
<time>2012-07-18T13:48:50Z</time>
<speed>1.830000</speed>
<extensions>
<speed>1.8</speed>
<temp>0.00</temp>
<bpm>0</bpm>
<rpm>0.00</rpm>
</extensions>
</trkpt>
<trkpt lat="64.168128967" lon="-21.682378769">
<ele>24.367188</ele>
<time>2012-07-18T13:48:55Z</time>
<speed>2.820000</speed>
<extensions>
<speed>2.8</speed>
<temp>0.00</temp>
<bpm>0</bpm>
<rpm>0.00</rpm>
</extensions>
</trkpt>
<trkpt lat="64.168228149" lon="-21.682210922">
<ele>25.911621</ele>
<time>2012-07-18T13:49:00Z</time>
<speed>2.770000</speed>
<extensions>
<speed>2.8</speed>
<temp>0.00</temp>
<bpm>0</bpm>
<rpm>0.00</rpm>
</extensions>
</trkpt>
<trkpt lat="64.168342590" lon="-21.681980133">
<ele>26.910645</ele>
<time>2012-07-18T13:49:05Z</time>
<speed>3.530000</speed>
<extensions>
<speed>3.5</speed>
<temp>0.00</temp>
<bpm>0</bpm>
<rpm>0.00</rpm>
</extensions>
</trkpt>
<trkpt lat="64.168426514" lon="-21.681804657">
<ele>28.156738</ele>
<time>2012-07-18T13:49:10Z</time>
<speed>1.630000</speed>
<extensions>
<speed>1.6</speed>
<temp>0.00</temp>
<bpm>0</bpm>
<rpm>0.00</rpm>
</extensions>
</trkpt>
<trkpt lat="64.168495178" lon="-21.681686401">
<ele>28.854980</ele>
<time>2012-07-18T13:49:15Z</time>
<speed>2.000000</speed>
<extensions>
<speed>2.0</speed>
<temp>0.00</temp>
<bpm>0</bpm>
<rpm>0.00</rpm>
</extensions>
</trkpt>
<trkpt lat="64.168571472" lon="-21.681554794">
<ele>28.905273</ele>
<time>2012-07-18T13:49:20Z</time>
<speed>2.420000</speed>
<extensions>
<speed>2.4</speed>
<temp>0.00</temp>
<bpm>0</bpm>
<rpm>0.00</rpm>
</extensions>
</trkpt>
<trkpt lat="64.168670654" lon="-21.681409836">
<ele>28.241211</ele>
<time>2012-07-18T13:49:25Z</time>
<speed>2.550000</speed>
<extensions>
<speed>2.6</speed>
<temp>0.00</temp>
<bpm>0</bpm>
<rpm>0.00</rpm>
</extensions>
</trkpt>
<trkpt lat="64.168777466" lon="-21.681247711">
<ele>28.702148</ele>
<time>2012-07-18T13:49:30Z</time>
<speed>2.070000</speed>
<extensions>
<speed>2.1</speed>
<temp>0.00</temp>
<bpm>0</bpm>
<rpm>0.00</rpm>
</extensions>
</trkpt>
<trkpt lat="64.168807983" lon="-21.681186676">
<ele>28.273438</ele>
<time>2012-07-18T13:49:35Z</time>
<speed>0.060000</speed>
<extensions>
<speed>0.1</speed>
<temp>0.00</temp>
<bpm>0</bpm>
<rpm>0.00</rpm>
</extensions>
</trkpt>
<trkpt lat="64.168807983" lon="-21.681173325">
<ele>28.090332</ele>
<time>2012-07-18T13:49:40Z</time>
<speed>0.070000</speed>
<extensions>
<speed>0.1</speed>
<temp>0.00</temp>
<bpm>0</bpm>
<rpm>0.00</rpm>
</extensions>
</trkpt>
<trkpt lat="64.168807983" lon="-21.681171417">
<ele>28.060547</ele>
<time>2012-07-18T13:49:45Z</time>
<speed>0.020000</speed>
<extensions>
<speed>0.0</speed>
<temp>0.00</temp>
<bpm>0</bpm>
<rpm>0.00</rpm>
</extensions>
</trkpt>
<trkpt lat="64.168807983" lon="-21.681169510">
<ele>28.019043</ele>
<time>2012-07-18T13:49:50Z</time>
<speed>0.040000</speed>
<extensions>
<speed>0.0</speed>
<temp>0.00</temp>
<bpm>0</bpm>
<rpm>0.00</rpm>
</extensions>
</trkpt>
<trkpt lat="64.168807983" lon="-21.681169510">
<ele>28.036621</ele>
<time>2012-07-18T13:49:55Z</time>
<speed>0.010000</speed>
<extensions>
<speed>0.0</speed>
<temp>0.00</temp>
<bpm>0</bpm>
<rpm>0.00</rpm>
</extensions>
</trkpt>
<trkpt lat="64.168807983" lon="-21.681169510">
<ele>28.028809</ele>
<time>2012-07-18T13:50:00Z</time>
<extensions>
<speed>0.0</speed>
<temp>0.00</temp>
<bpm>0</bpm>
<rpm>0.00</rpm>
</extensions>
</trkpt>
<trkpt lat="64.168815613" lon="-21.681169510">
<ele>28.020508</ele>
<time>2012-07-18T13:50:05Z</time>
<extensions>
<speed>0.0</speed>
<temp>0.00</temp>
<bpm>0</bpm>
<rpm>0.00</rpm>
</extensions>
</trkpt>
<trkpt lat="64.168815613" lon="-21.681169510">
<ele>28.009766</ele>
<time>2012-07-18T13:50:10Z</time>
<extensions>
<speed>0.0</speed>
<temp>0.00</temp>
<bpm>0</bpm>
<rpm>0.00</rpm>
</extensions>
</trkpt>
<trkpt lat="64.168815613" lon="-21.681169510">
<ele>28.016602</ele>
<time>2012-07-18T13:50:15Z</time>
<speed>0.010000</speed>
<extensions>
<speed>0.0</speed>
<temp>0.00</temp>
<bpm>0</bpm>
<rpm>0.00</rpm>
</extensions>
</trkpt>
<trkpt lat="64.168815613" lon="-21.681169510">
<ele>27.986816</ele>
<time>2012-07-18T13:50:20Z</time>
<extensions>
<speed>0.0</speed>
<temp>0.00</temp>
<bpm>0</bpm>
<rpm>0.00</rpm>
</extensions>
</trkpt>
<trkpt lat="64.168815613" lon="-21.681169510">
<ele>27.975586</ele>
<time>2012-07-18T13:50:25Z</time>
<extensions>
<speed>0.0</speed>
<temp>0.00</temp>
<bpm>0</bpm>
<rpm>0.00</rpm>
</extensions>
</trkpt>
<trkpt lat="64.168815613" lon="-21.681171417">
<ele>27.946289</ele>
<time>2012-07-18T13:50:30Z</time>
<speed>0.010000</speed>
<extensions>
<speed>0.0</speed>
<temp>0.00</temp>
<bpm>0</bpm>
<rpm>0.00</rpm>
</extensions>
</trkpt>
<trkpt lat="64.168815613" lon="-21.681171417">
<ele>27.912598</ele>
<time>2012-07-18T13:50:35Z</time>
<extensions>
<speed>0.0</speed>
<temp>0.00</temp>
<bpm>0</bpm>
<rpm>0.00</rpm>
</extensions>
</trkpt>
<trkpt lat="64.168815613" lon="-21.681171417">
<ele>27.903320</ele>
<time>2012-07-18T13:50:40Z</time>
<speed>0.010000</speed>
<extensions>
<speed>0.0</speed>
<temp>0.00</temp>
<bpm>0</bpm>
<rpm>0.00</rpm>
</extensions>
</trkpt>
<trkpt lat="64.168815613" lon="-21.681171417">
<ele>27.903809</ele>
<time>2012-07-18T13:50:45Z</time>
<speed>0.010000</speed>
<extensions>
<speed>0.0</speed>
<temp>0.00</temp>
<bpm>0</bpm>
<rpm>0.00</rpm>
</extensions>
</trkpt>
<trkpt lat="64.168815613" lon="-21.681171417">
<ele>27.899414</ele>
<time>2012-07-18T13:50:50Z</time>
<speed>0.020000</speed>
<extensions>
<speed>0.0</speed>
<temp>0.00</temp>
<bpm>0</bpm>
<rpm>0.00</rpm>
</extensions>
</trkpt>
<trkpt lat="64.168815613" lon="-21.681171417">
<ele>27.902832</ele>
<time>2012-07-18T13:50:55Z</time>
<speed>0.010000</speed>
<extensions>
<speed>0.0</speed>
<temp>0.00</temp>
<bpm>0</bpm>
<rpm>0.00</rpm>
</extensions>
</trkpt>
<trkpt lat="64.168815613" lon="-21.681173325">
<ele>27.905273</ele>
<time>2012-07-18T13:51:00Z</time>
<speed>0.030000</speed>
<extensions>
<speed>0.0</speed>
<temp>0.00</temp>
<bpm>0</bpm>
<rpm>0.00</rpm>
</extensions>
</trkpt>
<trkpt lat="64.168815613" lon="-21.681173325">
<ele>27.900879</ele>
<time>2012-07-18T13:51:05Z</time>
<extensions>
<speed>0.0</speed>
<temp>0.00</temp>
<bpm>0</bpm>
<rpm>0.00</rpm>
</extensions>
</trkpt>
<trkpt lat="64.168815613" lon="-21.681171417">
<ele>27.884277</ele>
<time>2012-07-18T13:51:10Z</time>
<speed>0.720000</speed>
<extensions>
<speed>0.7</speed>
<temp>0.00</temp>
<bpm>0</bpm>
<rpm>0.00</rpm>
</extensions>
</trkpt>
<trkpt lat="64.168876648" lon="-21.681085587">
<ele>27.209961</ele>
<time>2012-07-18T13:51:15Z</time>
<speed>2.020000</speed>
<extensions>
<speed>2.0</speed>
<temp>0.00</temp>
<bpm>0</bpm>
<rpm>0.00</rpm>
</extensions>
</trkpt>
<trkpt lat="64.168945313" lon="-21.680946350">
<ele>26.827637</ele>
<time>2012-07-18T13:51:20Z</time>
<speed>2.150000</speed>
<extensions>
<speed>2.1</speed>
<temp>0.00</temp>
<bpm>0</bpm>
<rpm>0.00</rpm>
</extensions>
</trkpt>
<trkpt lat="64.169029236" lon="-21.680833817">
<ele>27.131836</ele>
<time>2012-07-18T13:51:25Z</time>
<speed>2.320000</speed>
<extensions>
<speed>2.3</speed>
<temp>0.00</temp>
<bpm>0</bpm>
<rpm>0.00</rpm>
</extensions>
</trkpt>
<trkpt lat="64.169105530" lon="-21.680707932">
<ele>29.148926</ele>
<time>2012-07-18T13:51:30Z</time>
<speed>2.420000</speed>
<extensions>
<speed>2.4</speed>
<temp>0.00</temp>
<bpm>0</bpm>
<rpm>0.00</rpm>
</extensions>
</trkpt>
<trkpt lat="64.169197083" lon="-21.680564880">
<ele>30.268066</ele>
<time>2012-07-18T13:51:35Z</time>
<speed>1.580000</speed>
<extensions>
<speed>1.6</speed>
<temp>0.00</temp>
<bpm>0</bpm>
<rpm>0.00</rpm>
</extensions>
</trkpt>
<trkpt lat="64.169250488" lon="-21.680477142">
<ele>31.830078</ele>
<time>2012-07-18T13:51:40Z</time>
<speed>1.230000</speed>
<extensions>
<speed>1.2</speed>
<temp>0.00</temp>
<bpm>0</bpm>
<rpm>0.00</rpm>
</extensions>
</trkpt>
<trkpt lat="64.169311523" lon="-21.680412292">
<ele>33.014648</ele>
<time>2012-07-18T13:51:45Z</time>
<speed>1.550000</speed>
<extensions>
<speed>1.5</speed>
<temp>0.00</temp>
<bpm>0</bpm>
<rpm>0.00</rpm>
</extensions>
</trkpt>
<trkpt lat="64.169395447" lon="-21.680292130">
<ele>34.050781</ele>
<time>2012-07-18T13:51:50Z</time>
<speed>1.890000</speed>
<extensions>
<speed>1.9</speed>
<temp>0.00</temp>
<bpm>0</bpm>
<rpm>0.00</rpm>
</extensions>
</trkpt>
<trkpt lat="64.169487000" lon="-21.680154800">
<ele>35.455078</ele>
<time>2012-07-18T13:51:55Z</time>
<speed>2.060000</speed>
<extensions>
<speed>2.1</speed>
<temp>0.00</temp>
<bpm>0</bpm>
<rpm>0.00</rpm>
</extensions>
</trkpt>
<trkpt lat="64.169563293" lon="-21.680023193">
<ele>36.242188</ele>
<time>2012-07-18T13:52:00Z</time>
<speed>1.240000</speed>
<extensions>
<speed>1.2</speed>
<temp>0.00</temp>
<bpm>0</bpm>
<rpm>0.00</rpm>
</extensions>
</trkpt>
<trkpt lat="64.169631958" lon="-21.679901123">
<ele>36.786133</ele>
<time>2012-07-18T13:52:05Z</time>
<speed>1.790000</speed>
<extensions>
<speed>1.8</speed>
<temp>0.00</temp>
<bpm>0</bpm>
<rpm>0.00</rpm>
</extensions>
</trkpt>
<trkpt lat="64.169700623" lon="-21.679817200">
<ele>37.331055</ele>
<time>2012-07-18T13:52:10Z</time>
<speed>1.560000</speed>
<extensions>
<speed>1.6</speed>
<temp>0.00</temp>
<bpm>0</bpm>
<rpm>0.00</rpm>
</extensions>
</trkpt>
<trkpt lat="64.169754028" lon="-21.679716110">
<ele>37.413086</ele>
<time>2012-07-18T13:52:15Z</time>
<speed>1.620000</speed>
<extensions>
<speed>1.6</speed>
<temp>0.00</temp>
<bpm>0</bpm>
<rpm>0.00</rpm>
</extensions>
</trkpt>
<trkpt lat="64.169815063" lon="-21.679620743">
<ele>37.952148</ele>
<time>2012-07-18T13:52:20Z</time>
<speed>1.480000</speed>
<extensions>
<speed>1.5</speed>
<temp>0.00</temp>
<bpm>0</bpm>
<rpm>0.00</rpm>
</extensions>
</trkpt>
<trkpt lat="64.169868469" lon="-21.679536819">
<ele>37.336914</ele>
<time>2012-07-18T13:52:25Z</time>
<speed>1.570000</speed>
<extensions>
<speed>1.6</speed>
<temp>0.00</temp>
<bpm>0</bpm>
<rpm>0.00</rpm>
</extensions>
</trkpt>
<trkpt lat="64.169937134" lon="-21.679441452">
<ele>37.649414</ele>
<time>2012-07-18T13:52:30Z</time>
<speed>1.890000</speed>
<extensions>
<speed>1.9</speed>
<temp>0.00</temp>
<bpm>0</bpm>
<rpm>0.00</rpm>
</extensions>
</trkpt>
<trkpt lat="64.169998169" lon="-21.679334641">
<ele>37.711914</ele>
<time>2012-07-18T13:52:35Z</time>
<speed>1.510000</speed>
<extensions>
<speed>1.5</speed>
<temp>0.00</temp>
<bpm>0</bpm>
<rpm>0.00</rpm>
</extensions>
</trkpt>
<trkpt lat="64.170082092" lon="-21.679290771">
<ele>39.704102</ele>
<time>2012-07-18T13:52:40Z</time>
<speed>2.210000</speed>
<extensions>
<speed>2.2</speed>
<temp>0.00</temp>
<bpm>0</bpm>
<rpm>0.00</rpm>
</extensions>
</trkpt>
<trkpt lat="64.170173645" lon="-21.679155350">
<ele>39.193359</ele>
<time>2012-07-18T13:52:45Z</time>
<speed>1.950000</speed>
<extensions>
<speed>1.9</speed>
<temp>0.00</temp>
<bpm>0</bpm>
<rpm>0.00</rpm>
</extensions>
</trkpt>
<trkpt lat="64.170257568" lon="-21.679023743">
<ele>39.485352</ele>
<time>2012-07-18T13:52:50Z</time>
<speed>2.930000</speed>
<extensions>
<speed>2.9</speed>
<temp>0.00</temp>
<bpm>0</bpm>
<rpm>0.00</rpm>
</extensions>
</trkpt>
<trkpt lat="64.170364380" lon="-21.678869247">
<ele>39.358398</ele>
<time>2012-07-18T13:52:55Z</time>
<speed>2.460000</speed>
<extensions>
<speed>2.5</speed>
<temp>0.00</temp>
<bpm>0</bpm>
<rpm>0.00</rpm>
</extensions>
</trkpt>
<trkpt lat="64.170448303" lon="-21.678697586">
<ele>39.296875</ele>
<time>2012-07-18T13:53:00Z</time>
<speed>2.530000</speed>
<extensions>
<speed>2.5</speed>
<temp>0.00</temp>
<bpm>0</bpm>
<rpm>0.00</rpm>
</extensions>
</trkpt>
<trkpt lat="64.170516968" lon="-21.678569794">
<ele>40.021484</ele>
<time>2012-07-18T13:53:05Z</time>
<speed>2.020000</speed>
<extensions>
<speed>2.0</speed>
<temp>0.00</temp>
<bpm>0</bpm>
<rpm>0.00</rpm>
</extensions>
</trkpt>
<trkpt lat="64.170608521" lon="-21.678432465">
<ele>40.608398</ele>
<time>2012-07-18T13:53:10Z</time>
<speed>2.600000</speed>
<extensions>
<speed>2.6</speed>
<temp>0.00</temp>
<bpm>0</bpm>
<rpm>0.00</rpm>
</extensions>
</trkpt>
<trkpt lat="64.170707703" lon="-21.678283691">
<ele>41.572266</ele>
<time>2012-07-18T13:53:15Z</time>
<speed>2.320000</speed>
<extensions>
<speed>2.3</speed>
<temp>0.00</temp>
<bpm>0</bpm>
<rpm>0.00</rpm>
</extensions>
</trkpt>
<trkpt lat="64.170783997" lon="-21.678174973">
<ele>41.963867</ele>
<time>2012-07-18T13:53:20Z</time>
<speed>2.720000</speed>
<extensions>
<speed>2.7</speed>
<temp>0.00</temp>
<bpm>0</bpm>
<rpm>0.00</rpm>
</extensions>
</trkpt>
<trkpt lat="64.170890808" lon="-21.678066254">
<ele>42.070313</ele>
<time>2012-07-18T13:53:25Z</time>
<speed>2.560000</speed>
<extensions>
<speed>2.6</speed>
<temp>0.00</temp>
<bpm>0</bpm>
<rpm>0.00</rpm>
</extensions>
</trkpt>
<trkpt lat="64.171012878" lon="-21.677907944">
<ele>42.268555</ele>
<time>2012-07-18T13:53:30Z</time>
<speed>2.970000</speed>
<extensions>
<speed>3.0</speed>
<temp>0.00</temp>
<bpm>0</bpm>
<rpm>0.00</rpm>
</extensions>
</trkpt>
<trkpt lat="64.171104431" lon="-21.677764893">
<ele>42.602539</ele>
<time>2012-07-18T13:53:35Z</time>
<speed>2.150000</speed>
<extensions>
<speed>2.1</speed>
<temp>0.00</temp>
<bpm>0</bpm>
<rpm>0.00</rpm>
</extensions>
</trkpt>
<trkpt lat="64.171173096" lon="-21.677646637">
<ele>42.411133</ele>
<time>2012-07-18T13:53:40Z</time>
<speed>2.060000</speed>
<extensions>
<speed>2.1</speed>
<temp>0.00</temp>
<bpm>0</bpm>
<rpm>0.00</rpm>
</extensions>
</trkpt>
<trkpt lat="64.171272278" lon="-21.677532196">
<ele>44.286133</ele>
<time>2012-07-18T13:53:45Z</time>
<speed>2.250000</speed>
<extensions>
<speed>2.3</speed>
<temp>0.00</temp>
<bpm>0</bpm>
<rpm>0.00</rpm>
</extensions>
</trkpt>
<trkpt lat="64.171348572" lon="-21.677421570">
<ele>46.544922</ele>
<time>2012-07-18T13:53:50Z</time>
<speed>1.690000</speed>
<extensions>
<speed>1.7</speed>
<temp>0.00</temp>
<bpm>0</bpm>
<rpm>0.00</rpm>
</extensions>
</trkpt>
<trkpt lat="64.171440125" lon="-21.677303314">
<ele>48.604492</ele>
<time>2012-07-18T13:53:55Z</time>
<speed>2.760000</speed>
<extensions>
<speed>2.8</speed>
<temp>0.00</temp>
<bpm>0</bpm>
<rpm>0.00</rpm>
</extensions>
</trkpt>
<trkpt lat="64.171539307" lon="-21.677146912">
<ele>49.106445</ele>
<time>2012-07-18T13:54:00Z</time>
<speed>2.410000</speed>
<extensions>
<speed>2.4</speed>
<temp>0.00</temp>
<bpm>0</bpm>
<rpm>0.00</rpm>
</extensions>
</trkpt>
<trkpt lat="64.171646118" lon="-21.676996231">
<ele>46.803711</ele>
<time>2012-07-18T13:54:05Z</time>
<speed>2.590000</speed>
<extensions>
<speed>2.6</speed>
<temp>0.00</temp>
<bpm>0</bpm>
<rpm>0.00</rpm>
</extensions>
</trkpt>
<trkpt lat="64.171745300" lon="-21.676866531">
<ele>46.219727</ele>
<time>2012-07-18T13:54:10Z</time>
<speed>2.100000</speed>
<extensions>
<speed>2.1</speed>
<temp>0.00</temp>
<bpm>0</bpm>
<rpm>0.00</rpm>
</extensions>
</trkpt>
<trkpt lat="64.171829224" lon="-21.676811218">
<ele>46.394531</ele>
<time>2012-07-18T13:54:15Z</time>
<speed>2.560000</speed>
<extensions>
<speed>2.6</speed>
<temp>0.00</temp>
<bpm>0</bpm>
<rpm>0.00</rpm>
</extensions>
</trkpt>
<trkpt lat="64.171958923" lon="-21.676704407">
<ele>47.776367</ele>
<time>2012-07-18T13:54:20Z</time>
<speed>3.040000</speed>
<extensions>
<speed>3.0</speed>
<temp>0.00</temp>
<bpm>0</bpm>
<rpm>0.00</rpm>
</extensions>
</trkpt>
<trkpt lat="64.172096252" lon="-21.676593781">
<ele>48.313477</ele>
<time>2012-07-18T13:54:25Z</time>
<speed>3.260000</speed>
<extensions>
<speed>3.3</speed>
<temp>0.00</temp>
<bpm>0</bpm>
<rpm>0.00</rpm>
</extensions>
</trkpt>
<trkpt lat="64.172218323" lon="-21.676509857">
<ele>48.676758</ele>
<time>2012-07-18T13:54:30Z</time>
<speed>2.700000</speed>
<extensions>
<speed>2.7</speed>
<temp>0.00</temp>
<bpm>0</bpm>
<rpm>0.00</rpm>
</extensions>
</trkpt>
<trkpt lat="64.172332764" lon="-21.676460266">
<ele>50.330078</ele>
<time>2012-07-18T13:54:35Z</time>
<speed>2.620000</speed>
<extensions>
<speed>2.6</speed>
<temp>0.00</temp>
<bpm>0</bpm>
<rpm>0.00</rpm>
</extensions>
</trkpt>
<trkpt lat="64.172462463" lon="-21.676374435">
<ele>50.679688</ele>
<time>2012-07-18T13:54:40Z</time>
<speed>3.010000</speed>
<extensions>
<speed>3.0</speed>
<temp>0.00</temp>
<bpm>0</bpm>
<rpm>0.00</rpm>
</extensions>
</trkpt>
<trkpt lat="64.172607422" lon="-21.676282883">
<ele>49.215820</ele>
<time>2012-07-18T13:54:45Z</time>
<speed>3.150000</speed>
<extensions>
<speed>3.2</speed>
<temp>0.00</temp>
<bpm>0</bpm>
<rpm>0.00</rpm>
</extensions>
</trkpt>
<trkpt lat="64.172760010" lon="-21.676174164">
<ele>49.015625</ele>
<time>2012-07-18T13:54:50Z</time>
<speed>2.930000</speed>
<extensions>
<speed>2.9</speed>
<temp>0.00</temp>
<bpm>0</bpm>
<rpm>0.00</rpm>
</extensions>
</trkpt>
<trkpt lat="64.172912598" lon="-21.676073074">
<ele>47.472656</ele>
<time>2012-07-18T13:54:55Z</time>
<speed>2.980000</speed>
<extensions>
<speed>3.0</speed>
<temp>0.00</temp>
<bpm>0</bpm>
<rpm>0.00</rpm>
</extensions>
</trkpt>
<trkpt lat="64.173049927" lon="-21.676050186">
<ele>49.987305</ele>
<time>2012-07-18T13:55:00Z</time>
<speed>2.730000</speed>
<extensions>
<speed>2.7</speed>
<temp>0.00</temp>
<bpm>0</bpm>
<rpm>0.00</rpm>
</extensions>
</trkpt>
<trkpt lat="64.173202515" lon="-21.676021576">
<ele>52.968750</ele>
<time>2012-07-18T13:55:05Z</time>
<speed>3.450000</speed>
<extensions>
<speed>3.5</speed>
<temp>0.00</temp>
<bpm>0</bpm>
<rpm>0.00</rpm>
</extensions>
</trkpt>
<trkpt lat="64.173377991" lon="-21.675977707">
<ele>54.686523</ele>
<time>2012-07-18T13:55:10Z</time>
<speed>3.270000</speed>
<extensions>
<speed>3.3</speed>
<temp>0.00</temp>
<bpm>0</bpm>
<rpm>0.00</rpm>
</extensions>
</trkpt>
<trkpt lat="64.173515320" lon="-21.675931931">
<ele>51.827148</ele>
<time>2012-07-18T13:55:15Z</time>
<speed>2.980000</speed>
<extensions>
<speed>3.0</speed>
<temp>0.00</temp>
<bpm>0</bpm>
<rpm>0.00</rpm>
</extensions>
</trkpt>
<trkpt lat="64.173675537" lon="-21.675901413">
<ele>51.832031</ele>
<time>2012-07-18T13:55:20Z</time>
<speed>3.790000</speed>
<extensions>
<speed>3.8</speed>
<temp>0.00</temp>
<bpm>0</bpm>
<rpm>0.00</rpm>
</extensions>
</trkpt>
<trkpt lat="64.173843384" lon="-21.675880432">
<ele>51.342773</ele>
<time>2012-07-18T13:55:25Z</time>
<speed>3.760000</speed>
<extensions>
<speed>3.8</speed>
<temp>0.00</temp>
<bpm>0</bpm>
<rpm>0.00</rpm>
</extensions>
</trkpt>
<trkpt lat="64.173995972" lon="-21.675855637">
<ele>50.353516</ele>
<time>2012-07-18T13:55:30Z</time>
<speed>3.140000</speed>
<extensions>
<speed>3.1</speed>
<temp>0.00</temp>
<bpm>0</bpm>
<rpm>0.00</rpm>
</extensions>
</trkpt>
<trkpt lat="64.174125671" lon="-21.675853729">
<ele>50.078125</ele>
<time>2012-07-18T13:55:35Z</time>
<speed>2.320000</speed>
<extensions>
<speed>2.3</speed>
<temp>0.00</temp>
<bpm>0</bpm>
<rpm>0.00</rpm>
</extensions>
</trkpt>
<trkpt lat="64.174255371" lon="-21.675851822">
<ele>50.497070</ele>
<time>2012-07-18T13:55:40Z</time>
<speed>2.750000</speed>
<extensions>
<speed>2.7</speed>
<temp>0.00</temp>
<bpm>0</bpm>
<rpm>0.00</rpm>
</extensions>
</trkpt>
<trkpt lat="64.174385071" lon="-21.675884247">
<ele>50.410156</ele>
<time>2012-07-18T13:55:45Z</time>
<speed>2.830000</speed>
<extensions>
<speed>2.8</speed>
<temp>0.00</temp>
<bpm>0</bpm>
<rpm>0.00</rpm>
</extensions>
</trkpt>
<trkpt lat="64.174507141" lon="-21.675903320">
<ele>50.470703</ele>
<time>2012-07-18T13:55:50Z</time>
<speed>2.830000</speed>
<extensions>
<speed>2.8</speed>
<temp>0.00</temp>
<bpm>0</bpm>
<rpm>0.00</rpm>
</extensions>
</trkpt>
<trkpt lat="64.174621582" lon="-21.675918579">
<ele>50.815430</ele>
<time>2012-07-18T13:55:55Z</time>
<speed>2.460000</speed>
<extensions>
<speed>2.5</speed>
<temp>0.00</temp>
<bpm>0</bpm>
<rpm>0.00</rpm>
</extensions>
</trkpt>
<trkpt lat="64.174728394" lon="-21.675914764">
<ele>51.533203</ele>
<time>2012-07-18T13:56:00Z</time>
<speed>2.290000</speed>
<extensions>
<speed>2.3</speed>
<temp>0.00</temp>
<bpm>0</bpm>
<rpm>0.00</rpm>
</extensions>
</trkpt>
<trkpt lat="64.174827576" lon="-21.675931931">
<ele>50.545898</ele>
<time>2012-07-18T13:56:05Z</time>
<speed>2.450000</speed>
<extensions>
<speed>2.4</speed>
<temp>0.00</temp>
<bpm>0</bpm>
<rpm>0.00</rpm>
</extensions>
</trkpt>
<trkpt lat="64.174957275" lon="-21.675958633">
<ele>50.030273</ele>
<time>2012-07-18T13:56:10Z</time>
<speed>3.010000</speed>
<extensions>
<speed>3.0</speed>
<temp>0.00</temp>
<bpm>0</bpm>
<rpm>0.00</rpm>
</extensions>
</trkpt>
<trkpt lat="64.175094604" lon="-21.675964355">
<ele>49.652344</ele>
<time>2012-07-18T13:56:15Z</time>
<speed>2.890000</speed>
<extensions>
<speed>2.9</speed>
<temp>0.00</temp>
<bpm>0</bpm>
<rpm>0.00</rpm>
</extensions>
</trkpt>
<trkpt lat="64.175231934" lon="-21.675930023">
<ele>48.284180</ele>
<time>2012-07-18T13:56:20Z</time>
<speed>3.410000</speed>
<extensions>
<speed>3.4</speed>
<temp>0.00</temp>
<bpm>0</bpm>
<rpm>0.00</rpm>
</extensions>
</trkpt>
<trkpt lat="64.175399780" lon="-21.675838470">
<ele>49.400391</ele>
<time>2012-07-18T13:56:25Z</time>
<speed>3.860000</speed>
<extensions>
<speed>3.9</speed>
<temp>0.00</temp>
<bpm>0</bpm>
<rpm>0.00</rpm>
</extensions>
</trkpt>
<trkpt lat="64.175567627" lon="-21.675737381">
<ele>50.899414</ele>
<time>2012-07-18T13:56:30Z</time>
<speed>3.950000</speed>
<extensions>
<speed>4.0</speed>
<temp>0.00</temp>
<bpm>0</bpm>
<rpm>0.00</rpm>
</extensions>
</trkpt>
<trkpt lat="64.175735474" lon="-21.675645828">
<ele>50.242188</ele>
<time>2012-07-18T13:56:35Z</time>
<speed>3.940000</speed>
<extensions>
<speed>3.9</speed>
<temp>0.00</temp>
<bpm>0</bpm>
<rpm>0.00</rpm>
</extensions>
</trkpt>
<trkpt lat="64.175903320" lon="-21.675563812">
<ele>49.864258</ele>
<time>2012-07-18T13:56:40Z</time>
<speed>3.920000</speed>
<extensions>
<speed>3.9</speed>
<temp>0.00</temp>
<bpm>0</bpm>
<rpm>0.00</rpm>
</extensions>
</trkpt>
<trkpt lat="64.176063538" lon="-21.675470352">
<ele>52.562500</ele>
<time>2012-07-18T13:56:45Z</time>
<speed>3.190000</speed>
<extensions>
<speed>3.2</speed>
<temp>0.00</temp>
<bpm>0</bpm>
<rpm>0.00</rpm>
</extensions>
</trkpt>
<trkpt lat="64.176162720" lon="-21.675315857">
<ele>53.816406</ele>
<time>2012-07-18T13:56:50Z</time>
<speed>1.960000</speed>
<extensions>
<speed>2.0</speed>
<temp>0.00</temp>
<bpm>0</bpm>
<rpm>0.00</rpm>
</extensions>
</trkpt>
<trkpt lat="64.176208496" lon="-21.675182343">
<ele>53.500000</ele>
<time>2012-07-18T13:56:55Z</time>
<speed>1.330000</speed>
<extensions>
<speed>1.3</speed>
<temp>0.00</temp>
<bpm>0</bpm>
<rpm>0.00</rpm>
</extensions>
</trkpt>
<trkpt lat="64.176208496" lon="-21.675170898">
<ele>53.430664</ele>
<time>2012-07-18T13:57:00Z</time>
<speed>0.010000</speed>
<extensions>
<speed>0.0</speed>
<temp>0.00</temp>
<bpm>0</bpm>
<rpm>0.00</rpm>
</extensions>
</trkpt>
<trkpt lat="64.176208496" lon="-21.675170898">
<ele>53.448242</ele>
<time>2012-07-18T13:57:05Z</time>
<extensions>
<speed>0.0</speed>
<temp>0.00</temp>
<bpm>0</bpm>
<rpm>0.00</rpm>
</extensions>
</trkpt>
<trkpt lat="64.176208496" lon="-21.675170898">
<ele>53.451172</ele>
<time>2012-07-18T13:57:10Z</time>
<extensions>
<speed>0.0</speed>
<temp>0.00</temp>
<bpm>0</bpm>
<rpm>0.00</rpm>
</extensions>
</trkpt>
<trkpt lat="64.176208496" lon="-21.675178528">
<ele>53.414063</ele>
<time>2012-07-18T13:57:15Z</time>
<extensions>
<speed>0.0</speed>
<temp>0.00</temp>
<bpm>0</bpm>
<rpm>0.00</rpm>
</extensions>
</trkpt>
<trkpt lat="64.176216125" lon="-21.675189972">
<ele>53.365234</ele>
<time>2012-07-18T13:57:20Z</time>
<speed>0.010000</speed>
<extensions>
<speed>0.0</speed>
<temp>0.00</temp>
<bpm>0</bpm>
<rpm>0.00</rpm>
</extensions>
</trkpt>
<trkpt lat="64.176216125" lon="-21.675195694">
<ele>52.900391</ele>
<time>2012-07-18T13:57:25Z</time>
<speed>0.010000</speed>
<extensions>
<speed>0.0</speed>
<temp>0.00</temp>
<bpm>0</bpm>
<rpm>0.00</rpm>
</extensions>
</trkpt>
<trkpt lat="64.176208496" lon="-21.675191879">
<ele>52.829102</ele>
<time>2012-07-18T13:57:30Z</time>
<extensions>
<speed>0.0</speed>
<temp>0.00</temp>
<bpm>0</bpm>
<rpm>0.00</rpm>
</extensions>
</trkpt>
<trkpt lat="64.176208496" lon="-21.675199509">
<ele>52.580078</ele>
<time>2012-07-18T13:57:35Z</time>
<speed>0.020000</speed>
<extensions>
<speed>0.0</speed>
<temp>0.00</temp>
<bpm>0</bpm>
<rpm>0.00</rpm>
</extensions>
</trkpt>
<trkpt lat="64.176208496" lon="-21.675199509">
<ele>52.361328</ele>
<time>2012-07-18T13:57:40Z</time>
<extensions>
<speed>0.0</speed>
<temp>0.00</temp>
<bpm>0</bpm>
<rpm>0.00</rpm>
</extensions>
</trkpt>
<trkpt lat="64.176216125" lon="-21.675184250">
<ele>52.649414</ele>
<time>2012-07-18T13:57:45Z</time>
<speed>0.050000</speed>
<extensions>
<speed>0.1</speed>
<temp>0.00</temp>
<bpm>0</bpm>
<rpm>0.00</rpm>
</extensions>
</trkpt>
<trkpt lat="64.176208496" lon="-21.675189972">
<ele>52.138672</ele>
<time>2012-07-18T13:57:50Z</time>
<extensions>
<speed>0.0</speed>
<temp>0.00</temp>
<bpm>0</bpm>
<rpm>0.00</rpm>
</extensions>
</trkpt>
<trkpt lat="64.176208496" lon="-21.675191879">
<ele>52.487305</ele>
<time>2012-07-18T13:57:55Z</time>
<extensions>
<speed>0.0</speed>
<temp>0.00</temp>
<bpm>0</bpm>
<rpm>0.00</rpm>
</extensions>
</trkpt>
<trkpt lat="64.176208496" lon="-21.675191879">
<ele>52.476563</ele>
<time>2012-07-18T13:58:00Z</time>
<extensions>
<speed>0.0</speed>
<temp>0.00</temp>
<bpm>0</bpm>
<rpm>0.00</rpm>
</extensions>
</trkpt>
<trkpt lat="64.176208496" lon="-21.675191879">
<ele>52.460938</ele>
<time>2012-07-18T13:58:05Z</time>
<speed>0.010000</speed>
<extensions>
<speed>0.0</speed>
<temp>0.00</temp>
<bpm>0</bpm>
<rpm>0.00</rpm>
</extensions>
</trkpt>
<trkpt lat="64.176208496" lon="-21.675191879">
<ele>52.450195</ele>
<time>2012-07-18T13:58:10Z</time>
<speed>0.010000</speed>
<extensions>
<speed>0.0</speed>
<temp>0.00</temp>
<bpm>0</bpm>
<rpm>0.00</rpm>
</extensions>
</trkpt>
<trkpt lat="64.176208496" lon="-21.675191879">
<ele>52.438477</ele>
<time>2012-07-18T13:58:15Z</time>
<speed>0.010000</speed>
<extensions>
<speed>0.0</speed>
<temp>0.00</temp>
<bpm>0</bpm>
<rpm>0.00</rpm>
</extensions>
</trkpt>
<trkpt lat="64.176208496" lon="-21.675191879">
<ele>52.424805</ele>
<time>2012-07-18T13:58:20Z</time>
<extensions>
<speed>0.0</speed>
<temp>0.00</temp>
<bpm>0</bpm>
<rpm>0.00</rpm>
</extensions>
</trkpt>
<trkpt lat="64.176208496" lon="-21.675191879">
<ele>52.419922</ele>
<time>2012-07-18T13:58:25Z</time>
<extensions>
<speed>0.0</speed>
<temp>0.00</temp>
<bpm>0</bpm>
<rpm>0.00</rpm>
</extensions>
</trkpt>
<trkpt lat="64.176208496" lon="-21.675191879">
<ele>52.408203</ele>
<time>2012-07-18T13:58:30Z</time>
<speed>0.040000</speed>
<extensions>
<speed>0.0</speed>
<temp>0.00</temp>
<bpm>0</bpm>
<rpm>0.00</rpm>
</extensions>
</trkpt>
<trkpt lat="64.176208496" lon="-21.675191879">
<ele>52.389648</ele>
<time>2012-07-18T13:58:35Z</time>
<extensions>
<speed>0.0</speed>
<temp>0.00</temp>
<bpm>0</bpm>
<rpm>0.00</rpm>
</extensions>
</trkpt>
<trkpt lat="64.176208496" lon="-21.675191879">
<ele>52.378906</ele>
<time>2012-07-18T13:58:40Z</time>
<extensions>
<speed>0.0</speed>
<temp>0.00</temp>
<bpm>0</bpm>
<rpm>0.00</rpm>
</extensions>
</trkpt>
<trkpt lat="64.176208496" lon="-21.675191879">
<ele>52.373047</ele>
<time>2012-07-18T13:58:45Z</time>
<extensions>
<speed>0.0</speed>
<temp>0.00</temp>
<bpm>0</bpm>
<rpm>0.00</rpm>
</extensions>
</trkpt>
<trkpt lat="64.176208496" lon="-21.675191879">
<ele>52.364258</ele>
<time>2012-07-18T13:58:50Z</time>
<extensions>
<speed>0.0</speed>
<temp>0.00</temp>
<bpm>0</bpm>
<rpm>0.00</rpm>
</extensions>
</trkpt>
<trkpt lat="64.176208496" lon="-21.675191879">
<ele>52.356445</ele>
<time>2012-07-18T13:58:55Z</time>
<extensions>
<speed>0.0</speed>
<temp>0.00</temp>
<bpm>0</bpm>
<rpm>0.00</rpm>
</extensions>
</trkpt>
<trkpt lat="64.176208496" lon="-21.675191879">
<ele>52.345703</ele>
<time>2012-07-18T13:59:00Z</time>
<extensions>
<speed>0.0</speed>
<temp>0.00</temp>
<bpm>0</bpm>
<rpm>0.00</rpm>
</extensions>
</trkpt>
<trkpt lat="64.176208496" lon="-21.675191879">
<ele>52.342773</ele>
<time>2012-07-18T13:59:05Z</time>
<extensions>
<speed>0.0</speed>
<temp>0.00</temp>
<bpm>0</bpm>
<rpm>0.00</rpm>
</extensions>
</trkpt>
<trkpt lat="64.176208496" lon="-21.675191879">
<ele>52.336914</ele>
<time>2012-07-18T13:59:10Z</time>
<speed>0.010000</speed>
<extensions>
<speed>0.0</speed>
<temp>0.00</temp>
<bpm>0</bpm>
<rpm>0.00</rpm>
</extensions>
</trkpt>
<trkpt lat="64.176208496" lon="-21.675191879">
<ele>52.328125</ele>
<time>2012-07-18T13:59:15Z</time>
<extensions>
<speed>0.0</speed>
<temp>0.00</temp>
<bpm>0</bpm>
<rpm>0.00</rpm>
</extensions>
</trkpt>
<trkpt lat="64.176208496" lon="-21.675191879">
<ele>52.315430</ele>
<time>2012-07-18T13:59:20Z</time>
<speed>0.010000</speed>
<extensions>
<speed>0.0</speed>
<temp>0.00</temp>
<bpm>0</bpm>
<rpm>0.00</rpm>
</extensions>
</trkpt>
<trkpt lat="64.176208496" lon="-21.675191879">
<ele>52.306641</ele>
<time>2012-07-18T13:59:25Z</time>
<speed>0.010000</speed>
<extensions>
<speed>0.0</speed>
<temp>0.00</temp>
<bpm>0</bpm>
<rpm>0.00</rpm>
</extensions>
</trkpt>
<trkpt lat="64.176208496" lon="-21.675191879">
<ele>52.286133</ele>
<time>2012-07-18T13:59:30Z</time>
<speed>0.010000</speed>
<extensions>
<speed>0.0</speed>
<temp>0.00</temp>
<bpm>0</bpm>
<rpm>0.00</rpm>
</extensions>
</trkpt>
<trkpt lat="64.176208496" lon="-21.675189972">
<ele>52.281250</ele>
<time>2012-07-18T13:59:35Z</time>
<speed>0.600000</speed>
<extensions>
<speed>0.6</speed>
<temp>0.00</temp>
<bpm>0</bpm>
<rpm>0.00</rpm>
</extensions>
</trkpt>
<trkpt lat="64.176277161" lon="-21.675083160">
<ele>52.650391</ele>
<time>2012-07-18T13:59:40Z</time>
<speed>2.120000</speed>
<extensions>
<speed>2.1</speed>
<temp>0.00</temp>
<bpm>0</bpm>
<rpm>0.00</rpm>
</extensions>
</trkpt>
<trkpt lat="64.176361084" lon="-21.674936295">
<ele>52.328125</ele>
<time>2012-07-18T13:59:45Z</time>
<speed>2.430000</speed>
<extensions>
<speed>2.4</speed>
<temp>0.00</temp>
<bpm>0</bpm>
<rpm>0.00</rpm>
</extensions>
</trkpt>
<trkpt lat="64.176467896" lon="-21.674764633">
<ele>52.131836</ele>
<time>2012-07-18T13:59:50Z</time>
<speed>2.910000</speed>
<extensions>
<speed>2.9</speed>
<temp>0.00</temp>
<bpm>0</bpm>
<rpm>0.00</rpm>
</extensions>
</trkpt>
<trkpt lat="64.176589966" lon="-21.674592972">
<ele>52.594727</ele>
<time>2012-07-18T13:59:55Z</time>
<speed>3.230000</speed>
<extensions>
<speed>3.2</speed>
<temp>0.00</temp>
<bpm>0</bpm>
<rpm>0.00</rpm>
</extensions>
</trkpt>
<trkpt lat="64.176696777" lon="-21.674453735">
<ele>52.155273</ele>
<time>2012-07-18T14:00:00Z</time>
<speed>3.110000</speed>
<extensions>
<speed>3.1</speed>
<temp>0.00</temp>
<bpm>0</bpm>
<rpm>0.00</rpm>
</extensions>
</trkpt>
<trkpt lat="64.176826477" lon="-21.674293518">
<ele>52.723633</ele>
<time>2012-07-18T14:00:05Z</time>
<speed>2.910000</speed>
<extensions>
<speed>2.9</speed>
<temp>0.00</temp>
<bpm>0</bpm>
<rpm>0.00</rpm>
</extensions>
</trkpt>
<trkpt lat="64.176963806" lon="-21.674110413">
<ele>53.051758</ele>
<time>2012-07-18T14:00:10Z</time>
<speed>3.560000</speed>
<extensions>
<speed>3.6</speed>
<temp>0.00</temp>
<bpm>0</bpm>
<rpm>0.00</rpm>
</extensions>
</trkpt>
<trkpt lat="64.177085876" lon="-21.673961639">
<ele>53.324219</ele>
<time>2012-07-18T14:00:15Z</time>
<speed>3.130000</speed>
<extensions>
<speed>3.1</speed>
<temp>0.00</temp>
<bpm>0</bpm>
<rpm>0.00</rpm>
</extensions>
</trkpt>
<trkpt lat="64.177185059" lon="-21.673856735">
<ele>52.191406</ele>
<time>2012-07-18T14:00:20Z</time>
<speed>2.000000</speed>
<extensions>
<speed>2.0</speed>
<temp>0.00</temp>
<bpm>0</bpm>
<rpm>0.00</rpm>
</extensions>
</trkpt>
<trkpt lat="64.177291870" lon="-21.673694611">
<ele>50.387695</ele>
<time>2012-07-18T14:00:25Z</time>
<speed>3.130000</speed>
<extensions>
<speed>3.1</speed>
<temp>0.00</temp>
<bpm>0</bpm>
<rpm>0.00</rpm>
</extensions>
</trkpt>
<trkpt lat="64.177398682" lon="-21.673561096">
<ele>50.305664</ele>
<time>2012-07-18T14:00:30Z</time>
<speed>1.790000</speed>
<extensions>
<speed>1.8</speed>
<temp>0.00</temp>
<bpm>0</bpm>
<rpm>0.00</rpm>
</extensions>
</trkpt>
<trkpt lat="64.177459717" lon="-21.673498154">
<ele>51.672852</ele>
<time>2012-07-18T14:00:35Z</time>
<speed>1.420000</speed>
<extensions>
<speed>1.4</speed>
<temp>0.00</temp>
<bpm>0</bpm>
<rpm>0.00</rpm>
</extensions>
</trkpt>
<trkpt lat="64.177536011" lon="-21.673374176">
<ele>52.244141</ele>
<time>2012-07-18T14:00:40Z</time>
<speed>2.140000</speed>
<extensions>
<speed>2.1</speed>
<temp>0.00</temp>
<bpm>0</bpm>
<rpm>0.00</rpm>
</extensions>
</trkpt>
<trkpt lat="64.177604675" lon="-21.673217773">
<ele>53.213867</ele>
<time>2012-07-18T14:00:45Z</time>
<speed>2.590000</speed>
<extensions>
<speed>2.6</speed>
<temp>0.00</temp>
<bpm>0</bpm>
<rpm>0.00</rpm>
</extensions>
</trkpt>
<trkpt lat="64.177680969" lon="-21.673015594">
<ele>53.594727</ele>
<time>2012-07-18T14:00:50Z</time>
<speed>2.400000</speed>
<extensions>
<speed>2.4</speed>
<temp>0.00</temp>
<bpm>0</bpm>
<rpm>0.00</rpm>
</extensions>
</trkpt>
<trkpt lat="64.177742004" lon="-21.672817230">
<ele>55.552734</ele>
<time>2012-07-18T14:00:55Z</time>
<speed>2.570000</speed>
<extensions>
<speed>2.6</speed>
<temp>0.00</temp>
<bpm>0</bpm>
<rpm>0.00</rpm>
</extensions>
</trkpt>
<trkpt lat="64.177803040" lon="-21.672588348">
<ele>55.279297</ele>
<time>2012-07-18T14:01:00Z</time>
<speed>2.280000</speed>
<extensions>
<speed>2.3</speed>
<temp>0.00</temp>
<bpm>0</bpm>
<rpm>0.00</rpm>
</extensions>
</trkpt>
<trkpt lat="64.177879333" lon="-21.672353745">
<ele>55.679688</ele>
<time>2012-07-18T14:01:05Z</time>
<speed>3.050000</speed>
<extensions>
<speed>3.0</speed>
<temp>0.00</temp>
<bpm>0</bpm>
<rpm>0.00</rpm>
</extensions>
</trkpt>
<trkpt lat="64.177955627" lon="-21.672115326">
<ele>56.233398</ele>
<time>2012-07-18T14:01:10Z</time>
<speed>2.970000</speed>
<extensions>
<speed>3.0</speed>
<temp>0.00</temp>
<bpm>0</bpm>
<rpm>0.00</rpm>
</extensions>
</trkpt>
<trkpt lat="64.178031921" lon="-21.671827316">
<ele>57.918945</ele>
<time>2012-07-18T14:01:15Z</time>
<speed>3.620000</speed>
<extensions>
<speed>3.6</speed>
<temp>0.00</temp>
<bpm>0</bpm>
<rpm>0.00</rpm>
</extensions>
</trkpt>
<trkpt lat="64.178100586" lon="-21.671464920">
<ele>56.916016</ele>
<time>2012-07-18T14:01:20Z</time>
<speed>3.720000</speed>
<extensions>
<speed>3.7</speed>
<temp>0.00</temp>
<bpm>0</bpm>
<rpm>0.00</rpm>
</extensions>
</trkpt>
<trkpt lat="64.178115845" lon="-21.671157837">
<ele>57.907227</ele>
<time>2012-07-18T14:01:25Z</time>
<speed>3.160000</speed>
<extensions>
<speed>3.2</speed>
<temp>0.00</temp>
<bpm>0</bpm>
<rpm>0.00</rpm>
</extensions>
</trkpt>
<trkpt lat="64.178138733" lon="-21.670806885">
<ele>57.780273</ele>
<time>2012-07-18T14:01:30Z</time>
<speed>3.420000</speed>
<extensions>
<speed>3.4</speed>
<temp>0.00</temp>
<bpm>0</bpm>
<rpm>0.00</rpm>
</extensions>
</trkpt>
<trkpt lat="64.178138733" lon="-21.670497894">
<ele>56.202148</ele>
<time>2012-07-18T14:01:35Z</time>
<speed>1.760000</speed>
<extensions>
<speed>1.8</speed>
<temp>0.00</temp>
<bpm>0</bpm>
<rpm>0.00</rpm>
</extensions>
</trkpt>
<trkpt lat="64.178146362" lon="-21.670280457">
<ele>55.100586</ele>
<time>2012-07-18T14:01:40Z</time>
<speed>2.430000</speed>
<extensions>
<speed>2.4</speed>
<temp>0.00</temp>
<bpm>0</bpm>
<rpm>0.00</rpm>
</extensions>
</trkpt>
<trkpt lat="64.178146362" lon="-21.669973373">
<ele>54.901367</ele>
<time>2012-07-18T14:01:45Z</time>
<speed>3.620000</speed>
<extensions>
<speed>3.6</speed>
<temp>0.00</temp>
<bpm>0</bpm>
<rpm>0.00</rpm>
</extensions>
</trkpt>
<trkpt lat="64.178161621" lon="-21.669603348">
<ele>56.011719</ele>
<time>2012-07-18T14:01:50Z</time>
<speed>3.200000</speed>
<extensions>
<speed>3.2</speed>
<temp>0.00</temp>
<bpm>0</bpm>
<rpm>0.00</rpm>
</extensions>
</trkpt>
<trkpt lat="64.178176880" lon="-21.669370651">
<ele>56.413086</ele>
<time>2012-07-18T14:01:55Z</time>
<speed>2.110000</speed>
<extensions>
<speed>2.1</speed>
<temp>0.00</temp>
<bpm>0</bpm>
<rpm>0.00</rpm>
</extensions>
</trkpt>
<trkpt lat="64.178199768" lon="-21.669118881">
<ele>56.003906</ele>
<time>2012-07-18T14:02:00Z</time>
<speed>1.850000</speed>
<extensions>
<speed>1.8</speed>
<temp>0.00</temp>
<bpm>0</bpm>
<rpm>0.00</rpm>
</extensions>
</trkpt>
<trkpt lat="64.178230286" lon="-21.668970108">
<ele>58.210938</ele>
<time>2012-07-18T14:02:05Z</time>
<speed>2.210000</speed>
<extensions>
<speed>2.2</speed>
<temp>0.00</temp>
<bpm>0</bpm>
<rpm>0.00</rpm>
</extensions>
</trkpt>
<trkpt lat="64.178253174" lon="-21.668775558">
<ele>57.541992</ele>
<time>2012-07-18T14:02:10Z</time>
<speed>1.650000</speed>
<extensions>
<speed>1.7</speed>
<temp>0.00</temp>
<bpm>0</bpm>
<rpm>0.00</rpm>
</extensions>
</trkpt>
<trkpt lat="64.178268433" lon="-21.668718338">
<ele>57.729492</ele>
<time>2012-07-18T14:02:15Z</time>
<speed>0.060000</speed>
<extensions>
<speed>0.1</speed>
<temp>0.00</temp>
<bpm>0</bpm>
<rpm>0.00</rpm>
</extensions>
</trkpt>
<trkpt lat="64.178268433" lon="-21.668718338">
<ele>57.800781</ele>
<time>2012-07-18T14:02:20Z</time>
<speed>0.150000</speed>
<extensions>
<speed>0.2</speed>
<temp>0.00</temp>
<bpm>0</bpm>
<rpm>0.00</rpm>
</extensions>
</trkpt>
<trkpt lat="64.178260803" lon="-21.668672562">
<ele>58.659180</ele>
<time>2012-07-18T14:02:25Z</time>
<speed>0.020000</speed>
<extensions>
<speed>0.0</speed>
<temp>0.00</temp>
<bpm>0</bpm>
<rpm>0.00</rpm>
</extensions>
</trkpt>
<trkpt lat="64.178260803" lon="-21.668666840">
<ele>59.193359</ele>
<time>2012-07-18T14:02:30Z</time>
<speed>0.040000</speed>
<extensions>
<speed>0.0</speed>
<temp>0.00</temp>
<bpm>0</bpm>
<rpm>0.00</rpm>
</extensions>
</trkpt>
<trkpt lat="64.178260803" lon="-21.668666840">
<ele>59.240234</ele>
<time>2012-07-18T14:02:35Z</time>
<extensions>
<speed>0.0</speed>
<temp>0.00</temp>
<bpm>0</bpm>
<rpm>0.00</rpm>
</extensions>
</trkpt>
<trkpt lat="64.178260803" lon="-21.668668747">
<ele>59.243164</ele>
<time>2012-07-18T14:02:40Z</time>
<speed>0.060000</speed>
<extensions>
<speed>0.1</speed>
<temp>0.00</temp>
<bpm>0</bpm>
<rpm>0.00</rpm>
</extensions>
</trkpt>
<trkpt lat="64.178260803" lon="-21.668668747">
<ele>59.332031</ele>
<time>2012-07-18T14:02:45Z</time>
<speed>0.050000</speed>
<extensions>
<speed>0.1</speed>
<temp>0.00</temp>
<bpm>0</bpm>
<rpm>0.00</rpm>
</extensions>
</trkpt>
<trkpt lat="64.178260803" lon="-21.668663025">
<ele>59.454102</ele>
<time>2012-07-18T14:02:50Z</time>
<speed>0.140000</speed>
<extensions>
<speed>0.1</speed>
<temp>0.00</temp>
<bpm>0</bpm>
<rpm>0.00</rpm>
</extensions>
</trkpt>
<trkpt lat="64.178253174" lon="-21.668630600">
<ele>60.174805</ele>
<time>2012-07-18T14:02:55Z</time>
<speed>0.290000</speed>
<extensions>
<speed>0.3</speed>
<temp>0.00</temp>
<bpm>0</bpm>
<rpm>0.00</rpm>
</extensions>
</trkpt>
<trkpt lat="64.178268433" lon="-21.668592453">
<ele>60.729492</ele>
<time>2012-07-18T14:03:00Z</time>
<speed>0.140000</speed>
<extensions>
<speed>0.1</speed>
<temp>0.00</temp>
<bpm>0</bpm>
<rpm>0.00</rpm>
</extensions>
</trkpt>
<trkpt lat="64.178268433" lon="-21.668594360">
<ele>60.865234</ele>
<time>2012-07-18T14:03:05Z</time>
<speed>0.020000</speed>
<extensions>
<speed>0.0</speed>
<temp>0.00</temp>
<bpm>0</bpm>
<rpm>0.00</rpm>
</extensions>
</trkpt>
<trkpt lat="64.178268433" lon="-21.668596268">
<ele>60.940430</ele>
<time>2012-07-18T14:03:10Z</time>
<speed>0.630000</speed>
<extensions>
<speed>0.6</speed>
<temp>0.00</temp>
<bpm>0</bpm>
<rpm>0.00</rpm>
</extensions>
</trkpt>
<trkpt lat="64.178298950" lon="-21.668582916">
<ele>60.720703</ele>
<time>2012-07-18T14:03:15Z</time>
<speed>0.600000</speed>
<extensions>
<speed>0.6</speed>
<temp>0.00</temp>
<bpm>0</bpm>
<rpm>0.00</rpm>
</extensions>
</trkpt>
<trkpt lat="64.178283691" lon="-21.668724060">
<ele>59.906250</ele>
<time>2012-07-18T14:03:20Z</time>
<speed>2.240000</speed>
<extensions>
<speed>2.2</speed>
<temp>0.00</temp>
<bpm>0</bpm>
<rpm>0.00</rpm>
</extensions>
</trkpt>
<trkpt lat="64.178215027" lon="-21.668952942">
<ele>59.088867</ele>
<time>2012-07-18T14:03:25Z</time>
<speed>2.140000</speed>
<extensions>
<speed>2.1</speed>
<temp>0.00</temp>
<bpm>0</bpm>
<rpm>0.00</rpm>
</extensions>
</trkpt>
<trkpt lat="64.178123474" lon="-21.669038773">
<ele>59.606445</ele>
<time>2012-07-18T14:03:30Z</time>
<speed>2.200000</speed>
<extensions>
<speed>2.2</speed>
<temp>0.00</temp>
<bpm>0</bpm>
<rpm>0.00</rpm>
</extensions>
</trkpt>
<trkpt lat="64.178016663" lon="-21.669059753">
<ele>59.916992</ele>
<time>2012-07-18T14:03:35Z</time>
<speed>2.070000</speed>
<extensions>
<speed>2.1</speed>
<temp>0.00</temp>
<bpm>0</bpm>
<rpm>0.00</rpm>
</extensions>
</trkpt>
<trkpt lat="64.177947998" lon="-21.669107437">
<ele>61.206055</ele>
<time>2012-07-18T14:03:40Z</time>
<speed>1.010000</speed>
<extensions>
<speed>1.0</speed>
<temp>0.00</temp>
<bpm>0</bpm>
<rpm>0.00</rpm>
</extensions>
</trkpt>
<trkpt lat="64.177886963" lon="-21.669105530">
<ele>61.888672</ele>
<time>2012-07-18T14:03:45Z</time>
<speed>1.130000</speed>
<extensions>
<speed>1.1</speed>
<temp>0.00</temp>
<bpm>0</bpm>
<rpm>0.00</rpm>
</extensions>
</trkpt>
<trkpt lat="64.177833557" lon="-21.669094086">
<ele>63.215820</ele>
<time>2012-07-18T14:03:50Z</time>
<speed>1.270000</speed>
<extensions>
<speed>1.3</speed>
<temp>0.00</temp>
<bpm>0</bpm>
<rpm>0.00</rpm>
</extensions>
</trkpt>
<trkpt lat="64.177772522" lon="-21.669095993">
<ele>63.291992</ele>
<time>2012-07-18T14:03:55Z</time>
<speed>0.900000</speed>
<extensions>
<speed>0.9</speed>
<temp>0.00</temp>
<bpm>0</bpm>
<rpm>0.00</rpm>
</extensions>
</trkpt>
<trkpt lat="64.177734375" lon="-21.669120789">
<ele>63.374023</ele>
<time>2012-07-18T14:04:00Z</time>
<speed>1.090000</speed>
<extensions>
<speed>1.1</speed>
<temp>0.00</temp>
<bpm>0</bpm>
<rpm>0.00</rpm>
</extensions>
</trkpt>
<trkpt lat="64.177696228" lon="-21.669149399">
<ele>64.140625</ele>
<time>2012-07-18T14:04:05Z</time>
<speed>1.040000</speed>
<extensions>
<speed>1.0</speed>
<temp>0.00</temp>
<bpm>0</bpm>
<rpm>0.00</rpm>
</extensions>
</trkpt>
<trkpt lat="64.177642822" lon="-21.669092178">
<ele>65.230469</ele>
<time>2012-07-18T14:04:10Z</time>
<speed>1.480000</speed>
<extensions>
<speed>1.5</speed>
<temp>0.00</temp>
<bpm>0</bpm>
<rpm>0.00</rpm>
</extensions>
</trkpt>
<trkpt lat="64.177574158" lon="-21.669120789">
<ele>65.812500</ele>
<time>2012-07-18T14:04:15Z</time>
<speed>1.830000</speed>
<extensions>
<speed>1.8</speed>
<temp>0.00</temp>
<bpm>0</bpm>
<rpm>0.00</rpm>
</extensions>
</trkpt>
<trkpt lat="64.177497864" lon="-21.669109344">
<ele>67.181641</ele>
<time>2012-07-18T14:04:20Z</time>
<speed>1.640000</speed>
<extensions>
<speed>1.6</speed>
<temp>0.00</temp>
<bpm>0</bpm>
<rpm>0.00</rpm>
</extensions>
</trkpt>
<trkpt lat="64.177421570" lon="-21.669113159">
<ele>67.960938</ele>
<time>2012-07-18T14:04:25Z</time>
<speed>1.600000</speed>
<extensions>
<speed>1.6</speed>
<temp>0.00</temp>
<bpm>0</bpm>
<rpm>0.00</rpm>
</extensions>
</trkpt>
<trkpt lat="64.177337646" lon="-21.669105530">
<ele>68.986328</ele>
<time>2012-07-18T14:04:30Z</time>
<speed>1.300000</speed>
<extensions>
<speed>1.3</speed>
<temp>0.00</temp>
<bpm>0</bpm>
<rpm>0.00</rpm>
</extensions>
</trkpt>
<trkpt lat="64.177276611" lon="-21.669103622">
<ele>69.925781</ele>
<time>2012-07-18T14:04:35Z</time>
<speed>1.410000</speed>
<extensions>
<speed>1.4</speed>
<temp>0.00</temp>
<bpm>0</bpm>
<rpm>0.00</rpm>
</extensions>
</trkpt>
<trkpt lat="64.177223206" lon="-21.669090271">
<ele>70.554688</ele>
<time>2012-07-18T14:04:40Z</time>
<speed>1.030000</speed>
<extensions>
<speed>1.0</speed>
<temp>0.00</temp>
<bpm>0</bpm>
<rpm>0.00</rpm>
</extensions>
</trkpt>
<trkpt lat="64.177146912" lon="-21.669088364">
<ele>70.968750</ele>
<time>2012-07-18T14:04:45Z</time>
<speed>1.140000</speed>
<extensions>
<speed>1.1</speed>
<temp>0.00</temp>
<bpm>0</bpm>
<rpm>0.00</rpm>
</extensions>
</trkpt>
<trkpt lat="64.177101135" lon="-21.669059753">
<ele>71.130859</ele>
<time>2012-07-18T14:04:50Z</time>
<speed>1.610000</speed>
<extensions>
<speed>1.6</speed>
<temp>0.00</temp>
<bpm>0</bpm>
<rpm>0.00</rpm>
</extensions>
</trkpt>
<trkpt lat="64.177055359" lon="-21.669019699">
<ele>70.814453</ele>
<time>2012-07-18T14:04:55Z</time>
<speed>1.650000</speed>
<extensions>
<speed>1.7</speed>
<temp>0.00</temp>
<bpm>0</bpm>
<rpm>0.00</rpm>
</extensions>
</trkpt>
<trkpt lat="64.176971436" lon="-21.668966293">
<ele>71.199219</ele>
<time>2012-07-18T14:05:00Z</time>
<speed>2.190000</speed>
<extensions>
<speed>2.2</speed>
<temp>0.00</temp>
<bpm>0</bpm>
<rpm>0.00</rpm>
</extensions>
</trkpt>
<trkpt lat="64.176887512" lon="-21.668876648">
<ele>71.689453</ele>
<time>2012-07-18T14:05:05Z</time>
<speed>2.050000</speed>
<extensions>
<speed>2.1</speed>
<temp>0.00</temp>
<bpm>0</bpm>
<rpm>0.00</rpm>
</extensions>
</trkpt>
<trkpt lat="64.176811218" lon="-21.668802261">
<ele>72.134766</ele>
<time>2012-07-18T14:05:10Z</time>
<speed>1.960000</speed>
<extensions>
<speed>2.0</speed>
<temp>0.00</temp>
<bpm>0</bpm>
<rpm>0.00</rpm>
</extensions>
</trkpt>
<trkpt lat="64.176719666" lon="-21.668699265">
<ele>71.701172</ele>
<time>2012-07-18T14:05:15Z</time>
<speed>1.980000</speed>
<extensions>
<speed>2.0</speed>
<temp>0.00</temp>
<bpm>0</bpm>
<rpm>0.00</rpm>
</extensions>
</trkpt>
<trkpt lat="64.176635742" lon="-21.668588638">
<ele>71.595703</ele>
<time>2012-07-18T14:05:20Z</time>
<speed>2.050000</speed>
<extensions>
<speed>2.1</speed>
<temp>0.00</temp>
<bpm>0</bpm>
<rpm>0.00</rpm>
</extensions>
</trkpt>
<trkpt lat="64.176551819" lon="-21.668478012">
<ele>72.841797</ele>
<time>2012-07-18T14:05:25Z</time>
<speed>2.000000</speed>
<extensions>
<speed>2.0</speed>
<temp>0.00</temp>
<bpm>0</bpm>
<rpm>0.00</rpm>
</extensions>
</trkpt>
<trkpt lat="64.176467896" lon="-21.668397903">
<ele>74.259766</ele>
<time>2012-07-18T14:05:30Z</time>
<speed>1.650000</speed>
<extensions>
<speed>1.7</speed>
<temp>0.00</temp>
<bpm>0</bpm>
<rpm>0.00</rpm>
</extensions>
</trkpt>
<trkpt lat="64.176391602" lon="-21.668298721">
<ele>74.371094</ele>
<time>2012-07-18T14:05:35Z</time>
<speed>1.820000</speed>
<extensions>
<speed>1.8</speed>
<temp>0.00</temp>
<bpm>0</bpm>
<rpm>0.00</rpm>
</extensions>
</trkpt>
<trkpt lat="64.176315308" lon="-21.668216705">
<ele>75.617188</ele>
<time>2012-07-18T14:05:40Z</time>
<speed>1.790000</speed>
<extensions>
<speed>1.8</speed>
<temp>0.00</temp>
<bpm>0</bpm>
<rpm>0.00</rpm>
</extensions>
</trkpt>
<trkpt lat="64.176246643" lon="-21.668123245">
<ele>77.720703</ele>
<time>2012-07-18T14:05:45Z</time>
<speed>1.920000</speed>
<extensions>
<speed>1.9</speed>
<temp>0.00</temp>
<bpm>0</bpm>
<rpm>0.00</rpm>
</extensions>
</trkpt>
<trkpt lat="64.176185608" lon="-21.668025970">
<ele>79.968750</ele>
<time>2012-07-18T14:05:50Z</time>
<speed>1.750000</speed>
<extensions>
<speed>1.8</speed>
<temp>0.00</temp>
<bpm>0</bpm>
<rpm>0.00</rpm>
</extensions>
</trkpt>
<trkpt lat="64.176109314" lon="-21.667936325">
<ele>81.097656</ele>
<time>2012-07-18T14:05:55Z</time>
<speed>1.890000</speed>
<extensions>
<speed>1.9</speed>
<temp>0.00</temp>
<bpm>0</bpm>
<rpm>0.00</rpm>
</extensions>
</trkpt>
<trkpt lat="64.176040649" lon="-21.667848587">
<ele>82.648438</ele>
<time>2012-07-18T14:06:00Z</time>
<speed>1.710000</speed>
<extensions>
<speed>1.7</speed>
<temp>0.00</temp>
<bpm>0</bpm>
<rpm>0.00</rpm>
</extensions>
</trkpt>
<trkpt lat="64.175971985" lon="-21.667751312">
<ele>84.199219</ele>
<time>2012-07-18T14:06:05Z</time>
<speed>1.830000</speed>
<extensions>
<speed>1.8</speed>
<temp>0.00</temp>
<bpm>0</bpm>
<rpm>0.00</rpm>
</extensions>
</trkpt>
<trkpt lat="64.175910950" lon="-21.667715073">
<ele>85.306641</ele>
<time>2012-07-18T14:06:10Z</time>
<speed>1.140000</speed>
<extensions>
<speed>1.1</speed>
<temp>0.00</temp>
<bpm>0</bpm>
<rpm>0.00</rpm>
</extensions>
</trkpt>
<trkpt lat="64.175857544" lon="-21.667671204">
<ele>85.537109</ele>
<time>2012-07-18T14:06:15Z</time>
<speed>1.350000</speed>
<extensions>
<speed>1.4</speed>
<temp>0.00</temp>
<bpm>0</bpm>
<rpm>0.00</rpm>
</extensions>
</trkpt>
<trkpt lat="64.175796509" lon="-21.667640686">
<ele>86.607422</ele>
<time>2012-07-18T14:06:20Z</time>
<speed>0.860000</speed>
<extensions>
<speed>0.9</speed>
<temp>0.00</temp>
<bpm>0</bpm>
<rpm>0.00</rpm>
</extensions>
</trkpt>
<trkpt lat="64.175750732" lon="-21.667612076">
<ele>86.623047</ele>
<time>2012-07-18T14:06:25Z</time>
<speed>1.300000</speed>
<extensions>
<speed>1.3</speed>
<temp>0.00</temp>
<bpm>0</bpm>
<rpm>0.00</rpm>
</extensions>
</trkpt>
<trkpt lat="64.175727844" lon="-21.667572021">
<ele>86.972656</ele>
<time>2012-07-18T14:06:30Z</time>
<speed>0.120000</speed>
<extensions>
<speed>0.1</speed>
<temp>0.00</temp>
<bpm>0</bpm>
<rpm>0.00</rpm>
</extensions>
</trkpt>
<trkpt lat="64.175727844" lon="-21.667575836">
<ele>86.898438</ele>
<time>2012-07-18T14:06:35Z</time>
<speed>0.050000</speed>
<extensions>
<speed>0.1</speed>
<temp>0.00</temp>
<bpm>0</bpm>
<rpm>0.00</rpm>
</extensions>
</trkpt>
<trkpt lat="64.175727844" lon="-21.667577744">
<ele>86.929688</ele>
<time>2012-07-18T14:06:40Z</time>
<speed>0.010000</speed>
<extensions>
<speed>0.0</speed>
<temp>0.00</temp>
<bpm>0</bpm>
<rpm>0.00</rpm>
</extensions>
</trkpt>
<trkpt lat="64.175727844" lon="-21.667577744">
<ele>86.906250</ele>
<time>2012-07-18T14:06:45Z</time>
<extensions>
<speed>0.0</speed>
<temp>0.00</temp>
<bpm>0</bpm>
<rpm>0.00</rpm>
</extensions>
</trkpt>
<trkpt lat="64.175727844" lon="-21.667577744">
<ele>86.896484</ele>
<time>2012-07-18T14:06:50Z</time>
<extensions>
<speed>0.0</speed>
<temp>0.00</temp>
<bpm>0</bpm>
<rpm>0.00</rpm>
</extensions>
</trkpt>
<trkpt lat="64.175727844" lon="-21.667577744">
<ele>86.888672</ele>
<time>2012-07-18T14:06:55Z</time>
<extensions>
<speed>0.0</speed>
<temp>0.00</temp>
<bpm>0</bpm>
<rpm>0.00</rpm>
</extensions>
</trkpt>
<trkpt lat="64.175727844" lon="-21.667577744">
<ele>86.876953</ele>
<time>2012-07-18T14:07:00Z</time>
<extensions>
<speed>0.0</speed>
<temp>0.00</temp>
<bpm>0</bpm>
<rpm>0.00</rpm>
</extensions>
</trkpt>
<trkpt lat="64.175727844" lon="-21.667577744">
<ele>86.875000</ele>
<time>2012-07-18T14:07:05Z</time>
<speed>0.010000</speed>
<extensions>
<speed>0.0</speed>
<temp>0.00</temp>
<bpm>0</bpm>
<rpm>0.00</rpm>
</extensions>
</trkpt>
<trkpt lat="64.175712585" lon="-21.667507172">
<ele>87.373047</ele>
<time>2012-07-18T14:07:10Z</time>
<speed>1.720000</speed>
<extensions>
<speed>1.7</speed>
<temp>0.00</temp>
<bpm>0</bpm>
<rpm>0.00</rpm>
</extensions>
</trkpt>
<trkpt lat="64.175720215" lon="-21.667308807">
<ele>86.734375</ele>
<time>2012-07-18T14:07:15Z</time>
<speed>1.970000</speed>
<extensions>
<speed>2.0</speed>
<temp>0.00</temp>
<bpm>0</bpm>
<rpm>0.00</rpm>
</extensions>
</trkpt>
<trkpt lat="64.175765991" lon="-21.667106628">
<ele>89.316406</ele>
<time>2012-07-18T14:07:20Z</time>
<speed>2.100000</speed>
<extensions>
<speed>2.1</speed>
<temp>0.00</temp>
<bpm>0</bpm>
<rpm>0.00</rpm>
</extensions>
</trkpt>
<trkpt lat="64.175819397" lon="-21.666889191">
<ele>89.242188</ele>
<time>2012-07-18T14:07:25Z</time>
<speed>2.490000</speed>
<extensions>
<speed>2.5</speed>
<temp>0.00</temp>
<bpm>0</bpm>
<rpm>0.00</rpm>
</extensions>
</trkpt>
<trkpt lat="64.175872803" lon="-21.666677475">
<ele>89.699219</ele>
<time>2012-07-18T14:07:30Z</time>
<speed>2.630000</speed>
<extensions>
<speed>2.6</speed>
<temp>0.00</temp>
<bpm>0</bpm>
<rpm>0.00</rpm>
</extensions>
</trkpt>
<trkpt lat="64.175910950" lon="-21.666578293">
<ele>89.001953</ele>
<time>2012-07-18T14:07:35Z</time>
<speed>0.030000</speed>
<extensions>
<speed>0.0</speed>
<temp>0.00</temp>
<bpm>0</bpm>
<rpm>0.00</rpm>
</extensions>
</trkpt>
<trkpt lat="64.175910950" lon="-21.666589737">
<ele>88.345703</ele>
<time>2012-07-18T14:07:40Z</time>
<speed>0.080000</speed>
<extensions>
<speed>0.1</speed>
<temp>0.00</temp>
<bpm>0</bpm>
<rpm>0.00</rpm>
</extensions>
</trkpt>
<trkpt lat="64.175903320" lon="-21.666597366">
<ele>87.980469</ele>
<time>2012-07-18T14:07:45Z</time>
<speed>0.310000</speed>
<extensions>
<speed>0.3</speed>
<temp>0.00</temp>
<bpm>0</bpm>
<rpm>0.00</rpm>
</extensions>
</trkpt>
<trkpt lat="64.175903320" lon="-21.666601181">
<ele>87.343750</ele>
<time>2012-07-18T14:07:50Z</time>
<speed>0.030000</speed>
<extensions>
<speed>0.0</speed>
<temp>0.00</temp>
<bpm>0</bpm>
<rpm>0.00</rpm>
</extensions>
</trkpt>
<trkpt lat="64.175880432" lon="-21.666677475">
<ele>85.884766</ele>
<time>2012-07-18T14:07:55Z</time>
<speed>1.660000</speed>
<extensions>
<speed>1.7</speed>
<temp>0.00</temp>
<bpm>0</bpm>
<rpm>0.00</rpm>
</extensions>
</trkpt>
<trkpt lat="64.175834656" lon="-21.666885376">
<ele>84.210938</ele>
<time>2012-07-18T14:08:00Z</time>
<speed>1.850000</speed>
<extensions>
<speed>1.8</speed>
<temp>0.00</temp>
<bpm>0</bpm>
<rpm>0.00</rpm>
</extensions>
</trkpt>
<trkpt lat="64.175796509" lon="-21.667068481">
<ele>84.080078</ele>
<time>2012-07-18T14:08:05Z</time>
<speed>1.750000</speed>
<extensions>
<speed>1.8</speed>
<temp>0.00</temp>
<bpm>0</bpm>
<rpm>0.00</rpm>
</extensions>
</trkpt>
<trkpt lat="64.175758362" lon="-21.667266846">
<ele>83.332031</ele>
<time>2012-07-18T14:08:10Z</time>
<speed>2.710000</speed>
<extensions>
<speed>2.7</speed>
<temp>0.00</temp>
<bpm>0</bpm>
<rpm>0.00</rpm>
</extensions>
</trkpt>
<trkpt lat="64.175689697" lon="-21.667478561">
<ele>82.562500</ele>
<time>2012-07-18T14:08:15Z</time>
<speed>2.130000</speed>
<extensions>
<speed>2.1</speed>
<temp>0.00</temp>
<bpm>0</bpm>
<rpm>0.00</rpm>
</extensions>
</trkpt>
<trkpt lat="64.175590515" lon="-21.667612076">
<ele>81.406250</ele>
<time>2012-07-18T14:08:20Z</time>
<speed>2.960000</speed>
<extensions>
<speed>3.0</speed>
<temp>0.00</temp>
<bpm>0</bpm>
<rpm>0.00</rpm>
</extensions>
</trkpt>
<trkpt lat="64.175460815" lon="-21.667695999">
<ele>80.035156</ele>
<time>2012-07-18T14:08:25Z</time>
<speed>2.630000</speed>
<extensions>
<speed>2.6</speed>
<temp>0.00</temp>
<bpm>0</bpm>
<rpm>0.00</rpm>
</extensions>
</trkpt>
<trkpt lat="64.175331116" lon="-21.667795181">
<ele>80.232422</ele>
<time>2012-07-18T14:08:30Z</time>
<speed>2.890000</speed>
<extensions>
<speed>2.9</speed>
<temp>0.00</temp>
<bpm>0</bpm>
<rpm>0.00</rpm>
</extensions>
</trkpt>
<trkpt lat="64.175201416" lon="-21.667882919">
<ele>81.281250</ele>
<time>2012-07-18T14:08:35Z</time>
<speed>3.420000</speed>
<extensions>
<speed>3.4</speed>
<temp>0.00</temp>
<bpm>0</bpm>
<rpm>0.00</rpm>
</extensions>
</trkpt>
<trkpt lat="64.175056458" lon="-21.667972565">
<ele>82.416016</ele>
<time>2012-07-18T14:08:40Z</time>
<speed>3.010000</speed>
<extensions>
<speed>3.0</speed>
<temp>0.00</temp>
<bpm>0</bpm>
<rpm>0.00</rpm>
</extensions>
</trkpt>
<trkpt lat="64.174942017" lon="-21.668079376">
<ele>82.189453</ele>
<time>2012-07-18T14:08:45Z</time>
<speed>2.770000</speed>
<extensions>
<speed>2.8</speed>
<temp>0.00</temp>
<bpm>0</bpm>
<rpm>0.00</rpm>
</extensions>
</trkpt>
<trkpt lat="64.174797058" lon="-21.668161392">
<ele>79.449219</ele>
<time>2012-07-18T14:08:50Z</time>
<speed>3.810000</speed>
<extensions>
<speed>3.8</speed>
<temp>0.00</temp>
<bpm>0</bpm>
<rpm>0.00</rpm>
</extensions>
</trkpt>
<trkpt lat="64.174568176" lon="-21.668331146">
<ele>77.523438</ele>
<time>2012-07-18T14:08:55Z</time>
<speed>6.020000</speed>
<extensions>
<speed>6.0</speed>
<temp>0.00</temp>
<bpm>0</bpm>
<rpm>0.00</rpm>
</extensions>
</trkpt>
<trkpt lat="64.174278259" lon="-21.668579102">
<ele>75.498047</ele>
<time>2012-07-18T14:09:00Z</time>
<speed>6.920000</speed>
<extensions>
<speed>6.9</speed>
<temp>0.00</temp>
<bpm>0</bpm>
<rpm>0.00</rpm>
</extensions>
</trkpt>
<trkpt lat="64.174003601" lon="-21.668842316">
<ele>73.902344</ele>
<time>2012-07-18T14:09:05Z</time>
<speed>6.160000</speed>
<extensions>
<speed>6.2</speed>
<temp>0.00</temp>
<bpm>0</bpm>
<rpm>0.00</rpm>
</extensions>
</trkpt>
<trkpt lat="64.173774719" lon="-21.669015884">
<ele>75.457031</ele>
<time>2012-07-18T14:09:10Z</time>
<speed>4.400000</speed>
<extensions>
<speed>4.4</speed>
<temp>0.00</temp>
<bpm>0</bpm>
<rpm>0.00</rpm>
</extensions>
</trkpt>
<trkpt lat="64.173606873" lon="-21.669229507">
<ele>75.417969</ele>
<time>2012-07-18T14:09:15Z</time>
<speed>4.330000</speed>
<extensions>
<speed>4.3</speed>
<temp>0.00</temp>
<bpm>0</bpm>
<rpm>0.00</rpm>
</extensions>
</trkpt>
<trkpt lat="64.173454285" lon="-21.669519424">
<ele>75.605469</ele>
<time>2012-07-18T14:09:20Z</time>
<speed>4.590000</speed>
<extensions>
<speed>4.6</speed>
<temp>0.00</temp>
<bpm>0</bpm>
<rpm>0.00</rpm>
</extensions>
</trkpt>
<trkpt lat="64.173301697" lon="-21.669868469">
<ele>73.425781</ele>
<time>2012-07-18T14:09:25Z</time>
<speed>4.910000</speed>
<extensions>
<speed>4.9</speed>
<temp>0.00</temp>
<bpm>0</bpm>
<rpm>0.00</rpm>
</extensions>
</trkpt>
<trkpt lat="64.173164368" lon="-21.670257568">
<ele>72.330078</ele>
<time>2012-07-18T14:09:30Z</time>
<speed>4.880000</speed>
<extensions>
<speed>4.9</speed>
<temp>0.00</temp>
<bpm>0</bpm>
<rpm>0.00</rpm>
</extensions>
</trkpt>
<trkpt lat="64.173011780" lon="-21.670635223">
<ele>70.904297</ele>
<time>2012-07-18T14:09:35Z</time>
<speed>4.240000</speed>
<extensions>
<speed>4.2</speed>
<temp>0.00</temp>
<bpm>0</bpm>
<rpm>0.00</rpm>
</extensions>
</trkpt>
<trkpt lat="64.172866821" lon="-21.670906067">
<ele>68.228516</ele>
<time>2012-07-18T14:09:40Z</time>
<speed>4.250000</speed>
<extensions>
<speed>4.3</speed>
<temp>0.00</temp>
<bpm>0</bpm>
<rpm>0.00</rpm>
</extensions>
</trkpt>
<trkpt lat="64.172706604" lon="-21.671167374">
<ele>67.728516</ele>
<time>2012-07-18T14:09:45Z</time>
<speed>4.030000</speed>
<extensions>
<speed>4.0</speed>
<temp>0.00</temp>
<bpm>0</bpm>
<rpm>0.00</rpm>
</extensions>
</trkpt>
<trkpt lat="64.172554016" lon="-21.671304703">
<ele>66.710938</ele>
<time>2012-07-18T14:09:50Z</time>
<speed>3.440000</speed>
<extensions>
<speed>3.4</speed>
<temp>0.00</temp>
<bpm>0</bpm>
<rpm>0.00</rpm>
</extensions>
</trkpt>
<trkpt lat="64.172401428" lon="-21.671415329">
<ele>66.126953</ele>
<time>2012-07-18T14:09:55Z</time>
<speed>3.350000</speed>
<extensions>
<speed>3.4</speed>
<temp>0.00</temp>
<bpm>0</bpm>
<rpm>0.00</rpm>
</extensions>
</trkpt>
<trkpt lat="64.172294617" lon="-21.671503067">
<ele>67.371094</ele>
<time>2012-07-18T14:10:00Z</time>
<speed>2.380000</speed>
<extensions>
<speed>2.4</speed>
<temp>0.00</temp>
<bpm>0</bpm>
<rpm>0.00</rpm>
</extensions>
</trkpt>
<trkpt lat="64.172180176" lon="-21.671588898">
<ele>68.564453</ele>
<time>2012-07-18T14:10:05Z</time>
<speed>2.920000</speed>
<extensions>
<speed>2.9</speed>
<temp>0.00</temp>
<bpm>0</bpm>
<rpm>0.00</rpm>
</extensions>
</trkpt>
<trkpt lat="64.172050476" lon="-21.671701431">
<ele>69.406250</ele>
<time>2012-07-18T14:10:10Z</time>
<speed>3.030000</speed>
<extensions>
<speed>3.0</speed>
<temp>0.00</temp>
<bpm>0</bpm>
<rpm>0.00</rpm>
</extensions>
</trkpt>
<trkpt lat="64.171928406" lon="-21.671792984">
<ele>69.626953</ele>
<time>2012-07-18T14:10:15Z</time>
<speed>2.300000</speed>
<extensions>
<speed>2.3</speed>
<temp>0.00</temp>
<bpm>0</bpm>
<rpm>0.00</rpm>
</extensions>
</trkpt>
<trkpt lat="64.171783447" lon="-21.671897888">
<ele>68.820313</ele>
<time>2012-07-18T14:10:20Z</time>
<speed>4.730000</speed>
<extensions>
<speed>4.7</speed>
<temp>0.00</temp>
<bpm>0</bpm>
<rpm>0.00</rpm>
</extensions>
</trkpt>
<trkpt lat="64.171539307" lon="-21.672075272">
<ele>66.900391</ele>
<time>2012-07-18T14:10:25Z</time>
<speed>5.880000</speed>
<extensions>
<speed>5.9</speed>
<temp>0.00</temp>
<bpm>0</bpm>
<rpm>0.00</rpm>
</extensions>
</trkpt>
<trkpt lat="64.171302795" lon="-21.672214508">
<ele>65.150391</ele>
<time>2012-07-18T14:10:30Z</time>
<speed>4.600000</speed>
<extensions>
<speed>4.6</speed>
<temp>0.00</temp>
<bpm>0</bpm>
<rpm>0.00</rpm>
</extensions>
</trkpt>
<trkpt lat="64.171173096" lon="-21.672052383">
<ele>64.408203</ele>
<time>2012-07-18T14:10:35Z</time>
<speed>3.390000</speed>
<extensions>
<speed>3.4</speed>
<temp>0.00</temp>
<bpm>0</bpm>
<rpm>0.00</rpm>
</extensions>
</trkpt>
<trkpt lat="64.171134949" lon="-21.671741486">
<ele>65.208984</ele>
<time>2012-07-18T14:10:40Z</time>
<speed>2.940000</speed>
<extensions>
<speed>2.9</speed>
<temp>0.00</temp>
<bpm>0</bpm>
<rpm>0.00</rpm>
</extensions>
</trkpt>
<trkpt lat="64.171096802" lon="-21.671478271">
<ele>64.771484</ele>
<time>2012-07-18T14:10:45Z</time>
<speed>3.100000</speed>
<extensions>
<speed>3.1</speed>
<temp>0.00</temp>
<bpm>0</bpm>
<rpm>0.00</rpm>
</extensions>
</trkpt>
<trkpt lat="64.171073914" lon="-21.671180725">
<ele>65.730469</ele>
<time>2012-07-18T14:10:50Z</time>
<speed>2.880000</speed>
<extensions>
<speed>2.9</speed>
<temp>0.00</temp>
<bpm>0</bpm>
<rpm>0.00</rpm>
</extensions>
</trkpt>
<trkpt lat="64.171043396" lon="-21.670850754">
<ele>65.076172</ele>
<time>2012-07-18T14:10:55Z</time>
<speed>3.230000</speed>
<extensions>
<speed>3.2</speed>
<temp>0.00</temp>
<bpm>0</bpm>
<rpm>0.00</rpm>
</extensions>
</trkpt>
<trkpt lat="64.171005249" lon="-21.670560837">
<ele>64.048828</ele>
<time>2012-07-18T14:11:00Z</time>
<speed>2.160000</speed>
<extensions>
<speed>2.2</speed>
<temp>0.00</temp>
<bpm>0</bpm>
<rpm>0.00</rpm>
</extensions>
</trkpt>
<trkpt lat="64.170982361" lon="-21.670328140">
<ele>64.781250</ele>
<time>2012-07-18T14:11:05Z</time>
<speed>2.090000</speed>
<extensions>
<speed>2.1</speed>
<temp>0.00</temp>
<bpm>0</bpm>
<rpm>0.00</rpm>
</extensions>
</trkpt>
<trkpt lat="64.170951843" lon="-21.670089722">
<ele>64.748047</ele>
<time>2012-07-18T14:11:10Z</time>
<speed>2.180000</speed>
<extensions>
<speed>2.2</speed>
<temp>0.00</temp>
<bpm>0</bpm>
<rpm>0.00</rpm>
</extensions>
</trkpt>
<trkpt lat="64.170928955" lon="-21.669910431">
<ele>66.513672</ele>
<time>2012-07-18T14:11:15Z</time>
<speed>1.930000</speed>
<extensions>
<speed>1.9</speed>
<temp>0.00</temp>
<bpm>0</bpm>
<rpm>0.00</rpm>
</extensions>
</trkpt>
<trkpt lat="64.170906067" lon="-21.669744492">
<ele>69.000000</ele>
<time>2012-07-18T14:11:20Z</time>
<speed>2.020000</speed>
<extensions>
<speed>2.0</speed>
<temp>0.00</temp>
<bpm>0</bpm>
<rpm>0.00</rpm>
</extensions>
</trkpt>
<trkpt lat="64.170875549" lon="-21.669544220">
<ele>70.798828</ele>
<time>2012-07-18T14:11:25Z</time>
<speed>2.640000</speed>
<extensions>
<speed>2.6</speed>
<temp>0.00</temp>
<bpm>0</bpm>
<rpm>0.00</rpm>
</extensions>
</trkpt>
<trkpt lat="64.170845032" lon="-21.669389725">
<ele>70.501953</ele>
<time>2012-07-18T14:11:30Z</time>
<speed>1.630000</speed>
<extensions>
<speed>1.6</speed>
<temp>0.00</temp>
<bpm>0</bpm>
<rpm>0.00</rpm>
</extensions>
</trkpt>
<trkpt lat="64.170814514" lon="-21.669200897">
<ele>69.910156</ele>
<time>2012-07-18T14:11:35Z</time>
<speed>2.050000</speed>
<extensions>
<speed>2.1</speed>
<temp>0.00</temp>
<bpm>0</bpm>
<rpm>0.00</rpm>
</extensions>
</trkpt>
<trkpt lat="64.170776367" lon="-21.668977737">
<ele>69.005859</ele>
<time>2012-07-18T14:11:40Z</time>
<speed>2.300000</speed>
<extensions>
<speed>2.3</speed>
<temp>0.00</temp>
<bpm>0</bpm>
<rpm>0.00</rpm>
</extensions>
</trkpt>
<trkpt lat="64.170745850" lon="-21.668754578">
<ele>69.906250</ele>
<time>2012-07-18T14:11:45Z</time>
<speed>3.120000</speed>
<extensions>
<speed>3.1</speed>
<temp>0.00</temp>
<bpm>0</bpm>
<rpm>0.00</rpm>
</extensions>
</trkpt>
<trkpt lat="64.170684814" lon="-21.668397903">
<ele>70.314453</ele>
<time>2012-07-18T14:11:50Z</time>
<speed>3.410000</speed>
<extensions>
<speed>3.4</speed>
<temp>0.00</temp>
<bpm>0</bpm>
<rpm>0.00</rpm>
</extensions>
</trkpt>
<trkpt lat="64.170631409" lon="-21.668094635">
<ele>71.244141</ele>
<time>2012-07-18T14:11:55Z</time>
<speed>3.260000</speed>
<extensions>
<speed>3.3</speed>
<temp>0.00</temp>
<bpm>0</bpm>
<rpm>0.00</rpm>
</extensions>
</trkpt>
<trkpt lat="64.170555115" lon="-21.667770386">
<ele>71.671875</ele>
<time>2012-07-18T14:12:00Z</time>
<speed>3.410000</speed>
<extensions>
<speed>3.4</speed>
<temp>0.00</temp>
<bpm>0</bpm>
<rpm>0.00</rpm>
</extensions>
</trkpt>
<trkpt lat="64.170509338" lon="-21.667449951">
<ele>70.822266</ele>
<time>2012-07-18T14:12:05Z</time>
<speed>3.530000</speed>
<extensions>
<speed>3.5</speed>
<temp>0.00</temp>
<bpm>0</bpm>
<rpm>0.00</rpm>
</extensions>
</trkpt>
<trkpt lat="64.170440674" lon="-21.667102814">
<ele>73.023438</ele>
<time>2012-07-18T14:12:10Z</time>
<speed>3.910000</speed>
<extensions>
<speed>3.9</speed>
<temp>0.00</temp>
<bpm>0</bpm>
<rpm>0.00</rpm>
</extensions>
</trkpt>
<trkpt lat="64.170410156" lon="-21.666702271">
<ele>75.400391</ele>
<time>2012-07-18T14:12:15Z</time>
<speed>3.380000</speed>
<extensions>
<speed>3.4</speed>
<temp>0.00</temp>
<bpm>0</bpm>
<rpm>0.00</rpm>
</extensions>
</trkpt>
<trkpt lat="64.170417786" lon="-21.666419983">
<ele>79.162109</ele>
<time>2012-07-18T14:12:20Z</time>
<speed>2.680000</speed>
<extensions>
<speed>2.7</speed>
<temp>0.00</temp>
<bpm>0</bpm>
<rpm>0.00</rpm>
</extensions>
</trkpt>
<trkpt lat="64.170440674" lon="-21.666118622">
<ele>78.029297</ele>
<time>2012-07-18T14:12:25Z</time>
<speed>2.820000</speed>
<extensions>
<speed>2.8</speed>
<temp>0.00</temp>
<bpm>0</bpm>
<rpm>0.00</rpm>
</extensions>
</trkpt>
<trkpt lat="64.170448303" lon="-21.665889740">
<ele>78.513672</ele>
<time>2012-07-18T14:12:30Z</time>
<speed>2.570000</speed>
<extensions>
<speed>2.6</speed>
<temp>0.00</temp>
<bpm>0</bpm>
<rpm>0.00</rpm>
</extensions>
</trkpt>
<trkpt lat="64.170410156" lon="-21.665687561">
<ele>81.814453</ele>
<time>2012-07-18T14:12:35Z</time>
<speed>2.440000</speed>
<extensions>
<speed>2.4</speed>
<temp>0.00</temp>
<bpm>0</bpm>
<rpm>0.00</rpm>
</extensions>
</trkpt>
<trkpt lat="64.170364380" lon="-21.665466309">
<ele>82.384766</ele>
<time>2012-07-18T14:12:40Z</time>
<speed>2.550000</speed>
<extensions>
<speed>2.6</speed>
<temp>0.00</temp>
<bpm>0</bpm>
<rpm>0.00</rpm>
</extensions>
</trkpt>
<trkpt lat="64.170326233" lon="-21.665220261">
<ele>81.990234</ele>
<time>2012-07-18T14:12:45Z</time>
<speed>2.370000</speed>
<extensions>
<speed>2.4</speed>
<temp>0.00</temp>
<bpm>0</bpm>
<rpm>0.00</rpm>
</extensions>
</trkpt>
<trkpt lat="64.170333862" lon="-21.664947510">
<ele>83.128906</ele>
<time>2012-07-18T14:12:50Z</time>
<speed>2.120000</speed>
<extensions>
<speed>2.1</speed>
<temp>0.00</temp>
<bpm>0</bpm>
<rpm>0.00</rpm>
</extensions>
</trkpt>
<trkpt lat="64.170303345" lon="-21.664669037">
<ele>82.468750</ele>
<time>2012-07-18T14:12:55Z</time>
<speed>2.470000</speed>
<extensions>
<speed>2.5</speed>
<temp>0.00</temp>
<bpm>0</bpm>
<rpm>0.00</rpm>
</extensions>
</trkpt>
<trkpt lat="64.170272827" lon="-21.664367676">
<ele>79.050781</ele>
<time>2012-07-18T14:13:00Z</time>
<speed>2.700000</speed>
<extensions>
<speed>2.7</speed>
<temp>0.00</temp>
<bpm>0</bpm>
<rpm>0.00</rpm>
</extensions>
</trkpt>
<trkpt lat="64.170234680" lon="-21.664094925">
<ele>76.285156</ele>
<time>2012-07-18T14:13:05Z</time>
<speed>3.140000</speed>
<extensions>
<speed>3.1</speed>
<temp>0.00</temp>
<bpm>0</bpm>
<rpm>0.00</rpm>
</extensions>
</trkpt>
<trkpt lat="64.170181274" lon="-21.663780212">
<ele>74.054688</ele>
<time>2012-07-18T14:13:10Z</time>
<speed>3.200000</speed>
<extensions>
<speed>3.2</speed>
<temp>0.00</temp>
<bpm>0</bpm>
<rpm>0.00</rpm>
</extensions>
</trkpt>
<trkpt lat="64.170127869" lon="-21.663480759">
<ele>72.990234</ele>
<time>2012-07-18T14:13:15Z</time>
<speed>3.060000</speed>
<extensions>
<speed>3.1</speed>
<temp>0.00</temp>
<bpm>0</bpm>
<rpm>0.00</rpm>
</extensions>
</trkpt>
<trkpt lat="64.170082092" lon="-21.663249969">
<ele>71.046875</ele>
<time>2012-07-18T14:13:20Z</time>
<speed>2.630000</speed>
<extensions>
<speed>2.6</speed>
<temp>0.00</temp>
<bpm>0</bpm>
<rpm>0.00</rpm>
</extensions>
</trkpt>
<trkpt lat="64.170036316" lon="-21.662998199">
<ele>74.484375</ele>
<time>2012-07-18T14:13:25Z</time>
<speed>2.870000</speed>
<extensions>
<speed>2.9</speed>
<temp>0.00</temp>
<bpm>0</bpm>
<rpm>0.00</rpm>
</extensions>
</trkpt>
<trkpt lat="64.169982910" lon="-21.662744522">
<ele>76.996094</ele>
<time>2012-07-18T14:13:30Z</time>
<speed>2.390000</speed>
<extensions>
<speed>2.4</speed>
<temp>0.00</temp>
<bpm>0</bpm>
<rpm>0.00</rpm>
</extensions>
</trkpt>
<trkpt lat="64.169952393" lon="-21.662561417">
<ele>79.814453</ele>
<time>2012-07-18T14:13:35Z</time>
<speed>2.530000</speed>
<extensions>
<speed>2.5</speed>
<temp>0.00</temp>
<bpm>0</bpm>
<rpm>0.00</rpm>
</extensions>
</trkpt>
<trkpt lat="64.169906616" lon="-21.662281036">
<ele>82.539063</ele>
<time>2012-07-18T14:13:40Z</time>
<speed>2.720000</speed>
<extensions>
<speed>2.7</speed>
<temp>0.00</temp>
<bpm>0</bpm>
<rpm>0.00</rpm>
</extensions>
</trkpt>
<trkpt lat="64.169853210" lon="-21.661993027">
<ele>83.382813</ele>
<time>2012-07-18T14:13:45Z</time>
<speed>2.630000</speed>
<extensions>
<speed>2.6</speed>
<temp>0.00</temp>
<bpm>0</bpm>
<rpm>0.00</rpm>
</extensions>
</trkpt>
<trkpt lat="64.169830322" lon="-21.661790848">
<ele>82.951172</ele>
<time>2012-07-18T14:13:50Z</time>
<speed>1.830000</speed>
<extensions>
<speed>1.8</speed>
<temp>0.00</temp>
<bpm>0</bpm>
<rpm>0.00</rpm>
</extensions>
</trkpt>
<trkpt lat="64.169776917" lon="-21.661554337">
<ele>83.025391</ele>
<time>2012-07-18T14:13:55Z</time>
<speed>2.490000</speed>
<extensions>
<speed>2.5</speed>
<temp>0.00</temp>
<bpm>0</bpm>
<rpm>0.00</rpm>
</extensions>
</trkpt>
<trkpt lat="64.169761658" lon="-21.661243439">
<ele>82.656250</ele>
<time>2012-07-18T14:14:00Z</time>
<speed>3.080000</speed>
<extensions>
<speed>3.1</speed>
<temp>0.00</temp>
<bpm>0</bpm>
<rpm>0.00</rpm>
</extensions>
</trkpt>
<trkpt lat="64.169754028" lon="-21.660926819">
<ele>85.900391</ele>
<time>2012-07-18T14:14:05Z</time>
<speed>2.480000</speed>
<extensions>
<speed>2.5</speed>
<temp>0.00</temp>
<bpm>0</bpm>
<rpm>0.00</rpm>
</extensions>
</trkpt>
<trkpt lat="64.169731140" lon="-21.660648346">
<ele>85.388672</ele>
<time>2012-07-18T14:14:10Z</time>
<speed>2.790000</speed>
<extensions>
<speed>2.8</speed>
<temp>0.00</temp>
<bpm>0</bpm>
<rpm>0.00</rpm>
</extensions>
</trkpt>
<trkpt lat="64.169700623" lon="-21.660396576">
<ele>88.673828</ele>
<time>2012-07-18T14:14:15Z</time>
<speed>2.740000</speed>
<extensions>
<speed>2.7</speed>
<temp>0.00</temp>
<bpm>0</bpm>
<rpm>0.00</rpm>
</extensions>
</trkpt>
<trkpt lat="64.169631958" lon="-21.660169601">
<ele>89.271484</ele>
<time>2012-07-18T14:14:20Z</time>
<speed>2.540000</speed>
<extensions>
<speed>2.5</speed>
<temp>0.00</temp>
<bpm>0</bpm>
<rpm>0.00</rpm>
</extensions>
</trkpt>
<trkpt lat="64.169586182" lon="-21.659915924">
<ele>89.849609</ele>
<time>2012-07-18T14:14:25Z</time>
<speed>1.710000</speed>
<extensions>
<speed>1.7</speed>
<temp>0.00</temp>
<bpm>0</bpm>
<rpm>0.00</rpm>
</extensions>
</trkpt>
<trkpt lat="64.169563293" lon="-21.659742355">
<ele>89.585938</ele>
<time>2012-07-18T14:14:30Z</time>
<speed>1.210000</speed>
<extensions>
<speed>1.2</speed>
<temp>0.00</temp>
<bpm>0</bpm>
<rpm>0.00</rpm>
</extensions>
</trkpt>
<trkpt lat="64.169540405" lon="-21.659603119">
<ele>90.570313</ele>
<time>2012-07-18T14:14:35Z</time>
<speed>1.690000</speed>
<extensions>
<speed>1.7</speed>
<temp>0.00</temp>
<bpm>0</bpm>
<rpm>0.00</rpm>
</extensions>
</trkpt>
<trkpt lat="64.169525146" lon="-21.659404755">
<ele>92.269531</ele>
<time>2012-07-18T14:14:40Z</time>
<speed>1.980000</speed>
<extensions>
<speed>2.0</speed>
<temp>0.00</temp>
<bpm>0</bpm>
<rpm>0.00</rpm>
</extensions>
</trkpt>
<trkpt lat="64.169487000" lon="-21.659229279">
<ele>94.517578</ele>
<time>2012-07-18T14:14:45Z</time>
<speed>1.860000</speed>
<extensions>
<speed>1.9</speed>
<temp>0.00</temp>
<bpm>0</bpm>
<rpm>0.00</rpm>
</extensions>
</trkpt>
<trkpt lat="64.169441223" lon="-21.659019470">
<ele>95.705078</ele>
<time>2012-07-18T14:14:50Z</time>
<speed>2.300000</speed>
<extensions>
<speed>2.3</speed>
<temp>0.00</temp>
<bpm>0</bpm>
<rpm>0.00</rpm>
</extensions>
</trkpt>
<trkpt lat="64.169433594" lon="-21.658887863">
<ele>95.771484</ele>
<time>2012-07-18T14:14:55Z</time>
<speed>0.990000</speed>
<extensions>
<speed>1.0</speed>
<temp>0.00</temp>
<bpm>0</bpm>
<rpm>0.00</rpm>
</extensions>
</trkpt>
<trkpt lat="64.169425964" lon="-21.658718109">
<ele>94.847656</ele>
<time>2012-07-18T14:15:00Z</time>
<speed>2.220000</speed>
<extensions>
<speed>2.2</speed>
<temp>0.00</temp>
<bpm>0</bpm>
<rpm>0.00</rpm>
</extensions>
</trkpt>
<trkpt lat="64.169380188" lon="-21.658514023">
<ele>94.789063</ele>
<time>2012-07-18T14:15:05Z</time>
<speed>2.230000</speed>
<extensions>
<speed>2.2</speed>
<temp>0.00</temp>
<bpm>0</bpm>
<rpm>0.00</rpm>
</extensions>
</trkpt>
<trkpt lat="64.169364929" lon="-21.658290863">
<ele>96.066406</ele>
<time>2012-07-18T14:15:10Z</time>
<speed>2.790000</speed>
<extensions>
<speed>2.8</speed>
<temp>0.00</temp>
<bpm>0</bpm>
<rpm>0.00</rpm>
</extensions>
</trkpt>
<trkpt lat="64.169319153" lon="-21.658025742">
<ele>97.041016</ele>
<time>2012-07-18T14:15:15Z</time>
<speed>2.760000</speed>
<extensions>
<speed>2.8</speed>
<temp>0.00</temp>
<bpm>0</bpm>
<rpm>0.00</rpm>
</extensions>
</trkpt>
<trkpt lat="64.169288635" lon="-21.657762527">
<ele>97.929688</ele>
<time>2012-07-18T14:15:20Z</time>
<speed>2.320000</speed>
<extensions>
<speed>2.3</speed>
<temp>0.00</temp>
<bpm>0</bpm>
<rpm>0.00</rpm>
</extensions>
</trkpt>
<trkpt lat="64.169250488" lon="-21.657545090">
<ele>97.466797</ele>
<time>2012-07-18T14:15:25Z</time>
<speed>2.410000</speed>
<extensions>
<speed>2.4</speed>
<temp>0.00</temp>
<bpm>0</bpm>
<rpm>0.00</rpm>
</extensions>
</trkpt>
<trkpt lat="64.169204712" lon="-21.657293320">
<ele>96.824219</ele>
<time>2012-07-18T14:15:30Z</time>
<speed>2.210000</speed>
<extensions>
<speed>2.2</speed>
<temp>0.00</temp>
<bpm>0</bpm>
<rpm>0.00</rpm>
</extensions>
</trkpt>
<trkpt lat="64.169174194" lon="-21.657096863">
<ele>94.994141</ele>
<time>2012-07-18T14:15:35Z</time>
<speed>1.920000</speed>
<extensions>
<speed>1.9</speed>
<temp>0.00</temp>
<bpm>0</bpm>
<rpm>0.00</rpm>
</extensions>
</trkpt>
<trkpt lat="64.169151306" lon="-21.656911850">
<ele>93.775391</ele>
<time>2012-07-18T14:15:40Z</time>
<speed>1.700000</speed>
<extensions>
<speed>1.7</speed>
<temp>0.00</temp>
<bpm>0</bpm>
<rpm>0.00</rpm>
</extensions>
</trkpt>
<trkpt lat="64.169136047" lon="-21.656757355">
<ele>96.099609</ele>
<time>2012-07-18T14:15:45Z</time>
<speed>1.310000</speed>
<extensions>
<speed>1.3</speed>
<temp>0.00</temp>
<bpm>0</bpm>
<rpm>0.00</rpm>
</extensions>
</trkpt>
<trkpt lat="64.169120789" lon="-21.656625748">
<ele>97.867188</ele>
<time>2012-07-18T14:15:50Z</time>
<speed>1.450000</speed>
<extensions>
<speed>1.4</speed>
<temp>0.00</temp>
<bpm>0</bpm>
<rpm>0.00</rpm>
</extensions>
</trkpt>
<trkpt lat="64.169120789" lon="-21.656505585">
<ele>100.326172</ele>
<time>2012-07-18T14:15:55Z</time>
<speed>1.620000</speed>
<extensions>
<speed>1.6</speed>
<temp>0.00</temp>
<bpm>0</bpm>
<rpm>0.00</rpm>
</extensions>
</trkpt>
<trkpt lat="64.169097900" lon="-21.656301498">
<ele>100.431641</ele>
<time>2012-07-18T14:16:00Z</time>
<speed>2.240000</speed>
<extensions>
<speed>2.2</speed>
<temp>0.00</temp>
<bpm>0</bpm>
<rpm>0.00</rpm>
</extensions>
</trkpt>
<trkpt lat="64.169067383" lon="-21.656047821">
<ele>99.886719</ele>
<time>2012-07-18T14:16:05Z</time>
<speed>2.410000</speed>
<extensions>
<speed>2.4</speed>
<temp>0.00</temp>
<bpm>0</bpm>
<rpm>0.00</rpm>
</extensions>
</trkpt>
<trkpt lat="64.169036865" lon="-21.655813217">
<ele>101.697266</ele>
<time>2012-07-18T14:16:10Z</time>
<speed>2.780000</speed>
<extensions>
<speed>2.8</speed>
<temp>0.00</temp>
<bpm>0</bpm>
<rpm>0.00</rpm>
</extensions>
</trkpt>
<trkpt lat="64.169006348" lon="-21.655626297">
<ele>103.447266</ele>
<time>2012-07-18T14:16:15Z</time>
<speed>1.590000</speed>
<extensions>
<speed>1.6</speed>
<temp>0.00</temp>
<bpm>0</bpm>
<rpm>0.00</rpm>
</extensions>
</trkpt>
<trkpt lat="64.168960571" lon="-21.655525208">
<ele>103.472656</ele>
<time>2012-07-18T14:16:20Z</time>
<speed>1.310000</speed>
<extensions>
<speed>1.3</speed>
<temp>0.00</temp>
<bpm>0</bpm>
<rpm>0.00</rpm>
</extensions>
</trkpt>
<trkpt lat="64.168945313" lon="-21.655509949">
<ele>103.078125</ele>
<time>2012-07-18T14:16:25Z</time>
<speed>0.120000</speed>
<extensions>
<speed>0.1</speed>
<temp>0.00</temp>
<bpm>0</bpm>
<rpm>0.00</rpm>
</extensions>
</trkpt>
<trkpt lat="64.168945313" lon="-21.655530930">
<ele>102.541016</ele>
<time>2012-07-18T14:16:30Z</time>
<speed>0.020000</speed>
<extensions>
<speed>0.0</speed>
<temp>0.00</temp>
<bpm>0</bpm>
<rpm>0.00</rpm>
</extensions>
</trkpt>
<trkpt lat="64.168945313" lon="-21.655530930">
<ele>102.605469</ele>
<time>2012-07-18T14:16:35Z</time>
<speed>0.050000</speed>
<extensions>
<speed>0.1</speed>
<temp>0.00</temp>
<bpm>0</bpm>
<rpm>0.00</rpm>
</extensions>
</trkpt>
<trkpt lat="64.168945313" lon="-21.655529022">
<ele>102.597656</ele>
<time>2012-07-18T14:16:40Z</time>
<extensions>
<speed>0.0</speed>
<temp>0.00</temp>
<bpm>0</bpm>
<rpm>0.00</rpm>
</extensions>
</trkpt>
<trkpt lat="64.168945313" lon="-21.655529022">
<ele>102.599609</ele>
<time>2012-07-18T14:16:45Z</time>
<extensions>
<speed>0.0</speed>
<temp>0.00</temp>
<bpm>0</bpm>
<rpm>0.00</rpm>
</extensions>
</trkpt>
<trkpt lat="64.168945313" lon="-21.655529022">
<ele>102.593750</ele>
<time>2012-07-18T14:16:50Z</time>
<speed>0.020000</speed>
<extensions>
<speed>0.0</speed>
<temp>0.00</temp>
<bpm>0</bpm>
<rpm>0.00</rpm>
</extensions>
</trkpt>
<trkpt lat="64.168945313" lon="-21.655529022">
<ele>102.587891</ele>
<time>2012-07-18T14:16:55Z</time>
<extensions>
<speed>0.0</speed>
<temp>0.00</temp>
<bpm>0</bpm>
<rpm>0.00</rpm>
</extensions>
</trkpt>
<trkpt lat="64.168945313" lon="-21.655529022">
<ele>102.574219</ele>
<time>2012-07-18T14:17:00Z</time>
<extensions>
<speed>0.0</speed>
<temp>0.00</temp>
<bpm>0</bpm>
<rpm>0.00</rpm>
</extensions>
</trkpt>
<trkpt lat="64.168945313" lon="-21.655529022">
<ele>102.570313</ele>
<time>2012-07-18T14:17:05Z</time>
<extensions>
<speed>0.0</speed>
<temp>0.00</temp>
<bpm>0</bpm>
<rpm>0.00</rpm>
</extensions>
</trkpt>
<trkpt lat="64.168945313" lon="-21.655527115">
<ele>102.568359</ele>
<time>2012-07-18T14:17:10Z</time>
<extensions>
<speed>0.0</speed>
<temp>0.00</temp>
<bpm>0</bpm>
<rpm>0.00</rpm>
</extensions>
</trkpt>
<trkpt lat="64.168945313" lon="-21.655527115">
<ele>102.568359</ele>
<time>2012-07-18T14:17:15Z</time>
<extensions>
<speed>0.0</speed>
<temp>0.00</temp>
<bpm>0</bpm>
<rpm>0.00</rpm>
</extensions>
</trkpt>
<trkpt lat="64.168945313" lon="-21.655527115">
<ele>102.566406</ele>
<time>2012-07-18T14:17:20Z</time>
<extensions>
<speed>0.0</speed>
<temp>0.00</temp>
<bpm>0</bpm>
<rpm>0.00</rpm>
</extensions>
</trkpt>
<trkpt lat="64.168945313" lon="-21.655527115">
<ele>102.566406</ele>
<time>2012-07-18T14:17:25Z</time>
<speed>0.010000</speed>
<extensions>
<speed>0.0</speed>
<temp>0.00</temp>
<bpm>0</bpm>
<rpm>0.00</rpm>
</extensions>
</trkpt>
<trkpt lat="64.168945313" lon="-21.655527115">
<ele>102.570313</ele>
<time>2012-07-18T14:17:30Z</time>
<extensions>
<speed>0.0</speed>
<temp>0.00</temp>
<bpm>0</bpm>
<rpm>0.00</rpm>
</extensions>
</trkpt>
<trkpt lat="64.168945313" lon="-21.655527115">
<ele>102.574219</ele>
<time>2012-07-18T14:17:35Z</time>
<extensions>
<speed>0.0</speed>
<temp>0.00</temp>
<bpm>0</bpm>
<rpm>0.00</rpm>
</extensions>
</trkpt>
<trkpt lat="64.168945313" lon="-21.655525208">
<ele>102.582031</ele>
<time>2012-07-18T14:17:40Z</time>
<extensions>
<speed>0.0</speed>
<temp>0.00</temp>
<bpm>0</bpm>
<rpm>0.00</rpm>
</extensions>
</trkpt>
<trkpt lat="64.168945313" lon="-21.655525208">
<ele>102.587891</ele>
<time>2012-07-18T14:17:45Z</time>
<extensions>
<speed>0.0</speed>
<temp>0.00</temp>
<bpm>0</bpm>
<rpm>0.00</rpm>
</extensions>
</trkpt>
<trkpt lat="64.168945313" lon="-21.655525208">
<ele>102.591797</ele>
<time>2012-07-18T14:17:50Z</time>
<extensions>
<speed>0.0</speed>
<temp>0.00</temp>
<bpm>0</bpm>
<rpm>0.00</rpm>
</extensions>
</trkpt>
<trkpt lat="64.168945313" lon="-21.655525208">
<ele>102.585938</ele>
<time>2012-07-18T14:17:55Z</time>
<speed>0.020000</speed>
<extensions>
<speed>0.0</speed>
<temp>0.00</temp>
<bpm>0</bpm>
<rpm>0.00</rpm>
</extensions>
</trkpt>
<trkpt lat="64.168945313" lon="-21.655525208">
<ele>102.576172</ele>
<time>2012-07-18T14:18:00Z</time>
<extensions>
<speed>0.0</speed>
<temp>0.00</temp>
<bpm>0</bpm>
<rpm>0.00</rpm>
</extensions>
</trkpt>
<trkpt lat="64.168945313" lon="-21.655525208">
<ele>102.568359</ele>
<time>2012-07-18T14:18:05Z</time>
<extensions>
<speed>0.0</speed>
<temp>0.00</temp>
<bpm>0</bpm>
<rpm>0.00</rpm>
</extensions>
</trkpt>
<trkpt lat="64.168945313" lon="-21.655525208">
<ele>102.562500</ele>
<time>2012-07-18T14:18:10Z</time>
<extensions>
<speed>0.0</speed>
<temp>0.00</temp>
<bpm>0</bpm>
<rpm>0.00</rpm>
</extensions>
</trkpt>
<trkpt lat="64.168945313" lon="-21.655525208">
<ele>102.552734</ele>
<time>2012-07-18T14:18:15Z</time>
<extensions>
<speed>0.0</speed>
<temp>0.00</temp>
<bpm>0</bpm>
<rpm>0.00</rpm>
</extensions>
</trkpt>
<trkpt lat="64.168945313" lon="-21.655525208">
<ele>102.541016</ele>
<time>2012-07-18T14:18:20Z</time>
<extensions>
<speed>0.0</speed>
<temp>0.00</temp>
<bpm>0</bpm>
<rpm>0.00</rpm>
</extensions>
</trkpt>
<trkpt lat="64.168945313" lon="-21.655525208">
<ele>102.531250</ele>
<time>2012-07-18T14:18:25Z</time>
<extensions>
<speed>0.0</speed>
<temp>0.00</temp>
<bpm>0</bpm>
<rpm>0.00</rpm>
</extensions>
</trkpt>
<trkpt lat="64.168945313" lon="-21.655525208">
<ele>102.521484</ele>
<time>2012-07-18T14:18:30Z</time>
<extensions>
<speed>0.0</speed>
<temp>0.00</temp>
<bpm>0</bpm>
<rpm>0.00</rpm>
</extensions>
</trkpt>
<trkpt lat="64.168945313" lon="-21.655525208">
<ele>102.517578</ele>
<time>2012-07-18T14:18:35Z</time>
<extensions>
<speed>0.0</speed>
<temp>0.00</temp>
<bpm>0</bpm>
<rpm>0.00</rpm>
</extensions>
</trkpt>
<trkpt lat="64.168945313" lon="-21.655525208">
<ele>102.519531</ele>
<time>2012-07-18T14:18:40Z</time>
<extensions>
<speed>0.0</speed>
<temp>0.00</temp>
<bpm>0</bpm>
<rpm>0.00</rpm>
</extensions>
</trkpt>
<trkpt lat="64.168945313" lon="-21.655525208">
<ele>102.517578</ele>
<time>2012-07-18T14:18:45Z</time>
<extensions>
<speed>0.0</speed>
<temp>0.00</temp>
<bpm>0</bpm>
<rpm>0.00</rpm>
</extensions>
</trkpt>
<trkpt lat="64.168945313" lon="-21.655525208">
<ele>102.519531</ele>
<time>2012-07-18T14:18:50Z</time>
<extensions>
<speed>0.0</speed>
<temp>0.00</temp>
<bpm>0</bpm>
<rpm>0.00</rpm>
</extensions>
</trkpt>
<trkpt lat="64.168945313" lon="-21.655525208">
<ele>102.513672</ele>
<time>2012-07-18T14:18:55Z</time>
<speed>0.130000</speed>
<extensions>
<speed>0.1</speed>
<temp>0.00</temp>
<bpm>0</bpm>
<rpm>0.00</rpm>
</extensions>
</trkpt>
<trkpt lat="64.168960571" lon="-21.655475616">
<ele>102.451172</ele>
<time>2012-07-18T14:19:00Z</time>
<speed>0.720000</speed>
<extensions>
<speed>0.7</speed>
<temp>0.00</temp>
<bpm>0</bpm>
<rpm>0.00</rpm>
</extensions>
</trkpt>
<trkpt lat="64.168991089" lon="-21.655433655">
<ele>102.949219</ele>
<time>2012-07-18T14:19:05Z</time>
<speed>0.250000</speed>
<extensions>
<speed>0.2</speed>
<temp>0.00</temp>
<bpm>0</bpm>
<rpm>0.00</rpm>
</extensions>
</trkpt>
<trkpt lat="64.169006348" lon="-21.655443192">
<ele>103.496094</ele>
<time>2012-07-18T14:19:10Z</time>
<speed>0.270000</speed>
<extensions>
<speed>0.3</speed>
<temp>0.00</temp>
<bpm>0</bpm>
<rpm>0.00</rpm>
</extensions>
</trkpt>
<trkpt lat="64.169006348" lon="-21.655458450">
<ele>103.291016</ele>
<time>2012-07-18T14:19:15Z</time>
<speed>0.150000</speed>
<extensions>
<speed>0.2</speed>
<temp>0.00</temp>
<bpm>0</bpm>
<rpm>0.00</rpm>
</extensions>
</trkpt>
<trkpt lat="64.168998718" lon="-21.655471802">
<ele>103.470703</ele>
<time>2012-07-18T14:19:20Z</time>
<speed>0.210000</speed>
<extensions>
<speed>0.2</speed>
<temp>0.00</temp>
<bpm>0</bpm>
<rpm>0.00</rpm>
</extensions>
</trkpt>
<trkpt lat="64.168998718" lon="-21.655481339">
<ele>103.544922</ele>
<time>2012-07-18T14:19:25Z</time>
<speed>0.030000</speed>
<extensions>
<speed>0.0</speed>
<temp>0.00</temp>
<bpm>0</bpm>
<rpm>0.00</rpm>
</extensions>
</trkpt>
<trkpt lat="64.168998718" lon="-21.655483246">
<ele>103.582031</ele>
<time>2012-07-18T14:19:30Z</time>
<speed>0.090000</speed>
<extensions>
<speed>0.1</speed>
<temp>0.00</temp>
<bpm>0</bpm>
<rpm>0.00</rpm>
</extensions>
</trkpt>
<trkpt lat="64.168991089" lon="-21.655479431">
<ele>103.589844</ele>
<time>2012-07-18T14:19:35Z</time>
<speed>0.110000</speed>
<extensions>
<speed>0.1</speed>
<temp>0.00</temp>
<bpm>0</bpm>
<rpm>0.00</rpm>
</extensions>
</trkpt>
<trkpt lat="64.168991089" lon="-21.655467987">
<ele>103.578125</ele>
<time>2012-07-18T14:19:40Z</time>
<speed>0.160000</speed>
<extensions>
<speed>0.2</speed>
<temp>0.00</temp>
<bpm>0</bpm>
<rpm>0.00</rpm>
</extensions>
</trkpt>
<trkpt lat="64.168991089" lon="-21.655454636">
<ele>103.544922</ele>
<time>2012-07-18T14:19:45Z</time>
<speed>0.150000</speed>
<extensions>
<speed>0.2</speed>
<temp>0.00</temp>
<bpm>0</bpm>
<rpm>0.00</rpm>
</extensions>
</trkpt>
<trkpt lat="64.168991089" lon="-21.655435562">
<ele>103.488281</ele>
<time>2012-07-18T14:19:50Z</time>
<speed>0.150000</speed>
<extensions>
<speed>0.2</speed>
<temp>0.00</temp>
<bpm>0</bpm>
<rpm>0.00</rpm>
</extensions>
</trkpt>
<trkpt lat="64.168998718" lon="-21.655429840">
<ele>103.457031</ele>
<time>2012-07-18T14:19:55Z</time>
<speed>0.020000</speed>
<extensions>
<speed>0.0</speed>
<temp>0.00</temp>
<bpm>0</bpm>
<rpm>0.00</rpm>
</extensions>
</trkpt>
<trkpt lat="64.168998718" lon="-21.655429840">
<ele>103.460938</ele>
<time>2012-07-18T14:20:00Z</time>
<speed>0.070000</speed>
<extensions>
<speed>0.1</speed>
<temp>0.00</temp>
<bpm>0</bpm>
<rpm>0.00</rpm>
</extensions>
</trkpt>
<trkpt lat="64.168998718" lon="-21.655431747">
<ele>103.458984</ele>
<time>2012-07-18T14:20:05Z</time>
<speed>0.080000</speed>
<extensions>
<speed>0.1</speed>
<temp>0.00</temp>
<bpm>0</bpm>
<rpm>0.00</rpm>
</extensions>
</trkpt>
<trkpt lat="64.168998718" lon="-21.655437469">
<ele>103.449219</ele>
<time>2012-07-18T14:20:10Z</time>
<speed>0.100000</speed>
<extensions>
<speed>0.1</speed>
<temp>0.00</temp>
<bpm>0</bpm>
<rpm>0.00</rpm>
</extensions>
</trkpt>
<trkpt lat="64.168998718" lon="-21.655437469">
<ele>103.435547</ele>
<time>2012-07-18T14:20:15Z</time>
<speed>0.020000</speed>
<extensions>
<speed>0.0</speed>
<temp>0.00</temp>
<bpm>0</bpm>
<rpm>0.00</rpm>
</extensions>
</trkpt>
<trkpt lat="64.168998718" lon="-21.655441284">
<ele>103.414063</ele>
<time>2012-07-18T14:20:20Z</time>
<speed>0.090000</speed>
<extensions>
<speed>0.1</speed>
<temp>0.00</temp>
<bpm>0</bpm>
<rpm>0.00</rpm>
</extensions>
</trkpt>
<trkpt lat="64.168998718" lon="-21.655445099">
<ele>103.394531</ele>
<time>2012-07-18T14:20:25Z</time>
<speed>0.080000</speed>
<extensions>
<speed>0.1</speed>
<temp>0.00</temp>
<bpm>0</bpm>
<rpm>0.00</rpm>
</extensions>
</trkpt>
<trkpt lat="64.168991089" lon="-21.655447006">
<ele>103.376953</ele>
<time>2012-07-18T14:20:30Z</time>
<speed>0.160000</speed>
<extensions>
<speed>0.2</speed>
<temp>0.00</temp>
<bpm>0</bpm>
<rpm>0.00</rpm>
</extensions>
</trkpt>
<trkpt lat="64.168991089" lon="-21.655447006">
<ele>103.353516</ele>
<time>2012-07-18T14:20:35Z</time>
<speed>0.150000</speed>
<extensions>
<speed>0.2</speed>
<temp>0.00</temp>
<bpm>0</bpm>
<rpm>0.00</rpm>
</extensions>
</trkpt>
<trkpt lat="64.168991089" lon="-21.655458450">
<ele>103.349609</ele>
<time>2012-07-18T14:20:40Z</time>
<speed>0.170000</speed>
<extensions>
<speed>0.2</speed>
<temp>0.00</temp>
<bpm>0</bpm>
<rpm>0.00</rpm>
</extensions>
</trkpt>
<trkpt lat="64.168991089" lon="-21.655469894">
<ele>103.339844</ele>
<time>2012-07-18T14:20:45Z</time>
<speed>0.280000</speed>
<extensions>
<speed>0.3</speed>
<temp>0.00</temp>
<bpm>0</bpm>
<rpm>0.00</rpm>
</extensions>
</trkpt>
<trkpt lat="64.168975830" lon="-21.655456543">
<ele>103.404297</ele>
<time>2012-07-18T14:20:50Z</time>
<speed>0.350000</speed>
<extensions>
<speed>0.3</speed>
<temp>0.00</temp>
<bpm>0</bpm>
<rpm>0.00</rpm>
</extensions>
</trkpt>
<trkpt lat="64.168968201" lon="-21.655456543">
<ele>103.277344</ele>
<time>2012-07-18T14:20:55Z</time>
<speed>0.180000</speed>
<extensions>
<speed>0.2</speed>
<temp>0.00</temp>
<bpm>0</bpm>
<rpm>0.00</rpm>
</extensions>
</trkpt>
<trkpt lat="64.168968201" lon="-21.655454636">
<ele>103.392578</ele>
<time>2012-07-18T14:21:00Z</time>
<speed>0.090000</speed>
<extensions>
<speed>0.1</speed>
<temp>0.00</temp>
<bpm>0</bpm>
<rpm>0.00</rpm>
</extensions>
</trkpt>
<trkpt lat="64.168968201" lon="-21.655460358">
<ele>103.431641</ele>
<time>2012-07-18T14:21:05Z</time>
<speed>0.040000</speed>
<extensions>
<speed>0.0</speed>
<temp>0.00</temp>
<bpm>0</bpm>
<rpm>0.00</rpm>
</extensions>
</trkpt>
<trkpt lat="64.168968201" lon="-21.655450821">
<ele>103.945313</ele>
<time>2012-07-18T14:21:10Z</time>
<speed>0.050000</speed>
<extensions>
<speed>0.1</speed>
<temp>0.00</temp>
<bpm>0</bpm>
<rpm>0.00</rpm>
</extensions>
</trkpt>
<trkpt lat="64.168968201" lon="-21.655427933">
<ele>103.925781</ele>
<time>2012-07-18T14:21:15Z</time>
<speed>0.190000</speed>
<extensions>
<speed>0.2</speed>
<temp>0.00</temp>
<bpm>0</bpm>
<rpm>0.00</rpm>
</extensions>
</trkpt>
<trkpt lat="64.168968201" lon="-21.655422211">
<ele>104.818359</ele>
<time>2012-07-18T14:21:20Z</time>
<speed>0.620000</speed>
<extensions>
<speed>0.6</speed>
<temp>0.00</temp>
<bpm>0</bpm>
<rpm>0.00</rpm>
</extensions>
</trkpt>
<trkpt lat="64.168975830" lon="-21.655374527">
<ele>105.158203</ele>
<time>2012-07-18T14:21:25Z</time>
<speed>0.410000</speed>
<extensions>
<speed>0.4</speed>
<temp>0.00</temp>
<bpm>0</bpm>
<rpm>0.00</rpm>
</extensions>
</trkpt>
<trkpt lat="64.168983459" lon="-21.655368805">
<ele>105.248047</ele>
<time>2012-07-18T14:21:30Z</time>
<speed>0.270000</speed>
<extensions>
<speed>0.3</speed>
<temp>0.00</temp>
<bpm>0</bpm>
<rpm>0.00</rpm>
</extensions>
</trkpt>
<trkpt lat="64.168998718" lon="-21.655405045">
<ele>105.064453</ele>
<time>2012-07-18T14:21:35Z</time>
<speed>0.180000</speed>
<extensions>
<speed>0.2</speed>
<temp>0.00</temp>
<bpm>0</bpm>
<rpm>0.00</rpm>
</extensions>
</trkpt>
<trkpt lat="64.168991089" lon="-21.655410767">
<ele>104.710938</ele>
<time>2012-07-18T14:21:40Z</time>
<speed>0.550000</speed>
<extensions>
<speed>0.6</speed>
<temp>0.00</temp>
<bpm>0</bpm>
<rpm>0.00</rpm>
</extensions>
</trkpt>
<trkpt lat="64.168968201" lon="-21.655364990">
<ele>104.267578</ele>
<time>2012-07-18T14:21:45Z</time>
<speed>0.390000</speed>
<extensions>
<speed>0.4</speed>
<temp>0.00</temp>
<bpm>0</bpm>
<rpm>0.00</rpm>
</extensions>
</trkpt>
<trkpt lat="64.168960571" lon="-21.655307770">
<ele>103.787109</ele>
<time>2012-07-18T14:21:50Z</time>
<speed>1.120000</speed>
<extensions>
<speed>1.1</speed>
<temp>0.00</temp>
<bpm>0</bpm>
<rpm>0.00</rpm>
</extensions>
</trkpt>
<trkpt lat="64.168952942" lon="-21.655210495">
<ele>104.273438</ele>
<time>2012-07-18T14:21:55Z</time>
<speed>0.730000</speed>
<extensions>
<speed>0.7</speed>
<temp>0.00</temp>
<bpm>0</bpm>
<rpm>0.00</rpm>
</extensions>
</trkpt>
<trkpt lat="64.168945313" lon="-21.655111313">
<ele>103.777344</ele>
<time>2012-07-18T14:22:00Z</time>
<speed>1.170000</speed>
<extensions>
<speed>1.2</speed>
<temp>0.00</temp>
<bpm>0</bpm>
<rpm>0.00</rpm>
</extensions>
</trkpt>
<trkpt lat="64.168937683" lon="-21.655017853">
<ele>103.189453</ele>
<time>2012-07-18T14:22:05Z</time>
<speed>0.610000</speed>
<extensions>
<speed>0.6</speed>
<temp>0.00</temp>
<bpm>0</bpm>
<rpm>0.00</rpm>
</extensions>
</trkpt>
<trkpt lat="64.168930054" lon="-21.654987335">
<ele>103.232422</ele>
<time>2012-07-18T14:22:10Z</time>
<speed>0.110000</speed>
<extensions>
<speed>0.1</speed>
<temp>0.00</temp>
<bpm>0</bpm>
<rpm>0.00</rpm>
</extensions>
</trkpt>
<trkpt lat="64.168922424" lon="-21.654960632">
<ele>102.841797</ele>
<time>2012-07-18T14:22:15Z</time>
<speed>0.490000</speed>
<extensions>
<speed>0.5</speed>
<temp>0.00</temp>
<bpm>0</bpm>
<rpm>0.00</rpm>
</extensions>
</trkpt>
<trkpt lat="64.168922424" lon="-21.654973984">
<ele>102.585938</ele>
<time>2012-07-18T14:22:20Z</time>
<speed>0.030000</speed>
<extensions>
<speed>0.0</speed>
<temp>0.00</temp>
<bpm>0</bpm>
<rpm>0.00</rpm>
</extensions>
</trkpt>
<trkpt lat="64.168922424" lon="-21.654941559">
<ele>103.019531</ele>
<time>2012-07-18T14:22:25Z</time>
<speed>1.340000</speed>
<extensions>
<speed>1.3</speed>
<temp>0.00</temp>
<bpm>0</bpm>
<rpm>0.00</rpm>
</extensions>
</trkpt>
<trkpt lat="64.168930054" lon="-21.654773712">
<ele>103.298828</ele>
<time>2012-07-18T14:22:30Z</time>
<speed>1.740000</speed>
<extensions>
<speed>1.7</speed>
<temp>0.00</temp>
<bpm>0</bpm>
<rpm>0.00</rpm>
</extensions>
</trkpt>
<trkpt lat="64.168930054" lon="-21.654584885">
<ele>102.800781</ele>
<time>2012-07-18T14:22:35Z</time>
<speed>1.520000</speed>
<extensions>
<speed>1.5</speed>
<temp>0.00</temp>
<bpm>0</bpm>
<rpm>0.00</rpm>
</extensions>
</trkpt>
<trkpt lat="64.168907166" lon="-21.654441833">
<ele>102.039063</ele>
<time>2012-07-18T14:22:40Z</time>
<speed>1.440000</speed>
<extensions>
<speed>1.4</speed>
<temp>0.00</temp>
<bpm>0</bpm>
<rpm>0.00</rpm>
</extensions>
</trkpt>
<trkpt lat="64.168907166" lon="-21.654293060">
<ele>102.109375</ele>
<time>2012-07-18T14:22:45Z</time>
<speed>1.190000</speed>
<extensions>
<speed>1.2</speed>
<temp>0.00</temp>
<bpm>0</bpm>
<rpm>0.00</rpm>
</extensions>
</trkpt>
<trkpt lat="64.168899536" lon="-21.654130936">
<ele>102.871094</ele>
<time>2012-07-18T14:22:50Z</time>
<speed>1.330000</speed>
<extensions>
<speed>1.3</speed>
<temp>0.00</temp>
<bpm>0</bpm>
<rpm>0.00</rpm>
</extensions>
</trkpt>
<trkpt lat="64.168907166" lon="-21.653984070">
<ele>104.289063</ele>
<time>2012-07-18T14:22:55Z</time>
<speed>1.450000</speed>
<extensions>
<speed>1.4</speed>
<temp>0.00</temp>
<bpm>0</bpm>
<rpm>0.00</rpm>
</extensions>
</trkpt>
<trkpt lat="64.168899536" lon="-21.653854370">
<ele>104.607422</ele>
<time>2012-07-18T14:23:00Z</time>
<speed>1.290000</speed>
<extensions>
<speed>1.3</speed>
<temp>0.00</temp>
<bpm>0</bpm>
<rpm>0.00</rpm>
</extensions>
</trkpt>
<trkpt lat="64.168899536" lon="-21.653734207">
<ele>105.244141</ele>
<time>2012-07-18T14:23:05Z</time>
<speed>0.380000</speed>
<extensions>
<speed>0.4</speed>
<temp>0.00</temp>
<bpm>0</bpm>
<rpm>0.00</rpm>
</extensions>
</trkpt>
<trkpt lat="64.168899536" lon="-21.653701782">
<ele>105.138672</ele>
<time>2012-07-18T14:23:10Z</time>
<speed>0.060000</speed>
<extensions>
<speed>0.1</speed>
<temp>0.00</temp>
<bpm>0</bpm>
<rpm>0.00</rpm>
</extensions>
</trkpt>
<trkpt lat="64.168899536" lon="-21.653707504">
<ele>105.017578</ele>
<time>2012-07-18T14:23:15Z</time>
<speed>0.050000</speed>
<extensions>
<speed>0.1</speed>
<temp>0.00</temp>
<bpm>0</bpm>
<rpm>0.00</rpm>
</extensions>
</trkpt>
<trkpt lat="64.168899536" lon="-21.653705597">
<ele>104.945313</ele>
<time>2012-07-18T14:23:20Z</time>
<speed>0.040000</speed>
<extensions>
<speed>0.0</speed>
<temp>0.00</temp>
<bpm>0</bpm>
<rpm>0.00</rpm>
</extensions>
</trkpt>
<trkpt lat="64.168899536" lon="-21.653709412">
<ele>105.054688</ele>
<time>2012-07-18T14:23:25Z</time>
<extensions>
<speed>0.0</speed>
<temp>0.00</temp>
<bpm>0</bpm>
<rpm>0.00</rpm>
</extensions>
</trkpt>
<trkpt lat="64.168899536" lon="-21.653709412">
<ele>105.060547</ele>
<time>2012-07-18T14:23:30Z</time>
<speed>0.040000</speed>
<extensions>
<speed>0.0</speed>
<temp>0.00</temp>
<bpm>0</bpm>
<rpm>0.00</rpm>
</extensions>
</trkpt>
<trkpt lat="64.168899536" lon="-21.653686523">
<ele>105.392578</ele>
<time>2012-07-18T14:23:35Z</time>
<speed>0.610000</speed>
<extensions>
<speed>0.6</speed>
<temp>0.00</temp>
<bpm>0</bpm>
<rpm>0.00</rpm>
</extensions>
</trkpt>
<trkpt lat="64.168914795" lon="-21.653709412">
<ele>105.691406</ele>
<time>2012-07-18T14:23:40Z</time>
<speed>0.090000</speed>
<extensions>
<speed>0.1</speed>
<temp>0.00</temp>
<bpm>0</bpm>
<rpm>0.00</rpm>
</extensions>
</trkpt>
<trkpt lat="64.168914795" lon="-21.653711319">
<ele>105.833984</ele>
<time>2012-07-18T14:23:45Z</time>
<speed>0.550000</speed>
<extensions>
<speed>0.6</speed>
<temp>0.00</temp>
<bpm>0</bpm>
<rpm>0.00</rpm>
</extensions>
</trkpt>
<trkpt lat="64.168975830" lon="-21.653713226">
<ele>106.166016</ele>
<time>2012-07-18T14:23:50Z</time>
<speed>1.370000</speed>
<extensions>
<speed>1.4</speed>
<temp>0.00</temp>
<bpm>0</bpm>
<rpm>0.00</rpm>
</extensions>
</trkpt>
<trkpt lat="64.169029236" lon="-21.653718948">
<ele>107.384766</ele>
<time>2012-07-18T14:23:55Z</time>
<speed>1.050000</speed>
<extensions>
<speed>1.0</speed>
<temp>0.00</temp>
<bpm>0</bpm>
<rpm>0.00</rpm>
</extensions>
</trkpt>
<trkpt lat="64.169052124" lon="-21.653711319">
<ele>107.173828</ele>
<time>2012-07-18T14:24:00Z</time>
<speed>0.630000</speed>
<extensions>
<speed>0.6</speed>
<temp>0.00</temp>
<bpm>0</bpm>
<rpm>0.00</rpm>
</extensions>
</trkpt>
<trkpt lat="64.169090271" lon="-21.653705597">
<ele>107.595703</ele>
<time>2012-07-18T14:24:05Z</time>
<speed>0.830000</speed>
<extensions>
<speed>0.8</speed>
<temp>0.00</temp>
<bpm>0</bpm>
<rpm>0.00</rpm>
</extensions>
</trkpt>
<trkpt lat="64.169128418" lon="-21.653720856">
<ele>108.933594</ele>
<time>2012-07-18T14:24:10Z</time>
<speed>0.810000</speed>
<extensions>
<speed>0.8</speed>
<temp>0.00</temp>
<bpm>0</bpm>
<rpm>0.00</rpm>
</extensions>
</trkpt>
<trkpt lat="64.169158936" lon="-21.653766632">
<ele>111.111328</ele>
<time>2012-07-18T14:24:15Z</time>
<speed>0.940000</speed>
<extensions>
<speed>0.9</speed>
<temp>0.00</temp>
<bpm>0</bpm>
<rpm>0.00</rpm>
</extensions>
</trkpt>
<trkpt lat="64.169197083" lon="-21.653833389">
<ele>113.265625</ele>
<time>2012-07-18T14:24:20Z</time>
<speed>0.850000</speed>
<extensions>
<speed>0.8</speed>
<temp>0.00</temp>
<bpm>0</bpm>
<rpm>0.00</rpm>
</extensions>
</trkpt>
<trkpt lat="64.169227600" lon="-21.653869629">
<ele>114.787109</ele>
<time>2012-07-18T14:24:25Z</time>
<speed>0.690000</speed>
<extensions>
<speed>0.7</speed>
<temp>0.00</temp>
<bpm>0</bpm>
<rpm>0.00</rpm>
</extensions>
</trkpt>
<trkpt lat="64.169250488" lon="-21.653888702">
<ele>115.736328</ele>
<time>2012-07-18T14:24:30Z</time>
<speed>0.510000</speed>
<extensions>
<speed>0.5</speed>
<temp>0.00</temp>
<bpm>0</bpm>
<rpm>0.00</rpm>
</extensions>
</trkpt>
<trkpt lat="64.169273376" lon="-21.653921127">
<ele>117.031250</ele>
<time>2012-07-18T14:24:35Z</time>
<speed>0.800000</speed>
<extensions>
<speed>0.8</speed>
<temp>0.00</temp>
<bpm>0</bpm>
<rpm>0.00</rpm>
</extensions>
</trkpt>
<trkpt lat="64.169311523" lon="-21.653944016">
<ele>118.136719</ele>
<time>2012-07-18T14:24:40Z</time>
<speed>0.900000</speed>
<extensions>
<speed>0.9</speed>
<temp>0.00</temp>
<bpm>0</bpm>
<rpm>0.00</rpm>
</extensions>
</trkpt>
<trkpt lat="64.169334412" lon="-21.653997421">
<ele>120.125000</ele>
<time>2012-07-18T14:24:45Z</time>
<speed>0.480000</speed>
<extensions>
<speed>0.5</speed>
<temp>0.00</temp>
<bpm>0</bpm>
<rpm>0.00</rpm>
</extensions>
</trkpt>
<trkpt lat="64.169380188" lon="-21.654039383">
<ele>121.054688</ele>
<time>2012-07-18T14:24:50Z</time>
<speed>1.120000</speed>
<extensions>
<speed>1.1</speed>
<temp>0.00</temp>
<bpm>0</bpm>
<rpm>0.00</rpm>
</extensions>
</trkpt>
<trkpt lat="64.169403076" lon="-21.654045105">
<ele>121.802734</ele>
<time>2012-07-18T14:24:55Z</time>
<speed>0.330000</speed>
<extensions>
<speed>0.3</speed>
<temp>0.00</temp>
<bpm>0</bpm>
<rpm>0.00</rpm>
</extensions>
</trkpt>
<trkpt lat="64.169425964" lon="-21.654026031">
<ele>122.710938</ele>
<time>2012-07-18T14:25:00Z</time>
<speed>0.550000</speed>
<extensions>
<speed>0.6</speed>
<temp>0.00</temp>
<bpm>0</bpm>
<rpm>0.00</rpm>
</extensions>
</trkpt>
<trkpt lat="64.169471741" lon="-21.654041290">
<ele>123.044922</ele>
<time>2012-07-18T14:25:05Z</time>
<speed>0.950000</speed>
<extensions>
<speed>1.0</speed>
<temp>0.00</temp>
<bpm>0</bpm>
<rpm>0.00</rpm>
</extensions>
</trkpt>
<trkpt lat="64.169509888" lon="-21.654119492">
<ele>124.492188</ele>
<time>2012-07-18T14:25:10Z</time>
<speed>0.590000</speed>
<extensions>
<speed>0.6</speed>
<temp>0.00</temp>
<bpm>0</bpm>
<rpm>0.00</rpm>
</extensions>
</trkpt>
<trkpt lat="64.169540405" lon="-21.654150009">
<ele>125.046875</ele>
<time>2012-07-18T14:25:15Z</time>
<speed>1.160000</speed>
<extensions>
<speed>1.2</speed>
<temp>0.00</temp>
<bpm>0</bpm>
<rpm>0.00</rpm>
</extensions>
</trkpt>
<trkpt lat="64.169570923" lon="-21.654205322">
<ele>125.472656</ele>
<time>2012-07-18T14:25:20Z</time>
<speed>0.340000</speed>
<extensions>
<speed>0.3</speed>
<temp>0.00</temp>
<bpm>0</bpm>
<rpm>0.00</rpm>
</extensions>
</trkpt>
<trkpt lat="64.169593811" lon="-21.654220581">
<ele>126.953125</ele>
<time>2012-07-18T14:25:25Z</time>
<speed>0.770000</speed>
<extensions>
<speed>0.8</speed>
<temp>0.00</temp>
<bpm>0</bpm>
<rpm>0.00</rpm>
</extensions>
</trkpt>
<trkpt lat="64.169624329" lon="-21.654264450">
<ele>127.146484</ele>
<time>2012-07-18T14:25:30Z</time>
<speed>0.980000</speed>
<extensions>
<speed>1.0</speed>
<temp>0.00</temp>
<bpm>0</bpm>
<rpm>0.00</rpm>
</extensions>
</trkpt>
<trkpt lat="64.169670105" lon="-21.654304504">
<ele>126.396484</ele>
<time>2012-07-18T14:25:35Z</time>
<speed>0.840000</speed>
<extensions>
<speed>0.8</speed>
<temp>0.00</temp>
<bpm>0</bpm>
<rpm>0.00</rpm>
</extensions>
</trkpt>
<trkpt lat="64.169708252" lon="-21.654321671">
<ele>125.320313</ele>
<time>2012-07-18T14:25:40Z</time>
<speed>0.770000</speed>
<extensions>
<speed>0.8</speed>
<temp>0.00</temp>
<bpm>0</bpm>
<rpm>0.00</rpm>
</extensions>
</trkpt>
<trkpt lat="64.169738770" lon="-21.654367447">
<ele>125.232422</ele>
<time>2012-07-18T14:25:45Z</time>
<speed>0.910000</speed>
<extensions>
<speed>0.9</speed>
<temp>0.00</temp>
<bpm>0</bpm>
<rpm>0.00</rpm>
</extensions>
</trkpt>
<trkpt lat="64.169776917" lon="-21.654430389">
<ele>125.929688</ele>
<time>2012-07-18T14:25:50Z</time>
<speed>0.790000</speed>
<extensions>
<speed>0.8</speed>
<temp>0.00</temp>
<bpm>0</bpm>
<rpm>0.00</rpm>
</extensions>
</trkpt>
<trkpt lat="64.169807434" lon="-21.654483795">
<ele>126.882813</ele>
<time>2012-07-18T14:25:55Z</time>
<speed>1.060000</speed>
<extensions>
<speed>1.1</speed>
<temp>0.00</temp>
<bpm>0</bpm>
<rpm>0.00</rpm>
</extensions>
</trkpt>
<trkpt lat="64.169837952" lon="-21.654558182">
<ele>128.753906</ele>
<time>2012-07-18T14:26:00Z</time>
<speed>1.270000</speed>
<extensions>
<speed>1.3</speed>
<temp>0.00</temp>
<bpm>0</bpm>
<rpm>0.00</rpm>
</extensions>
</trkpt>
<trkpt lat="64.169883728" lon="-21.654623032">
<ele>130.464844</ele>
<time>2012-07-18T14:26:05Z</time>
<speed>1.000000</speed>
<extensions>
<speed>1.0</speed>
<temp>0.00</temp>
<bpm>0</bpm>
<rpm>0.00</rpm>
</extensions>
</trkpt>
<trkpt lat="64.169914246" lon="-21.654651642">
<ele>131.656250</ele>
<time>2012-07-18T14:26:10Z</time>
<speed>0.750000</speed>
<extensions>
<speed>0.8</speed>
<temp>0.00</temp>
<bpm>0</bpm>
<rpm>0.00</rpm>
</extensions>
</trkpt>
<trkpt lat="64.169929504" lon="-21.654649734">
<ele>132.507813</ele>
<time>2012-07-18T14:26:15Z</time>
<speed>0.050000</speed>
<extensions>
<speed>0.1</speed>
<temp>0.00</temp>
<bpm>0</bpm>
<rpm>0.00</rpm>
</extensions>
</trkpt>
<trkpt lat="64.169944763" lon="-21.654663086">
<ele>132.882813</ele>
<time>2012-07-18T14:26:20Z</time>
<speed>0.920000</speed>
<extensions>
<speed>0.9</speed>
<temp>0.00</temp>
<bpm>0</bpm>
<rpm>0.00</rpm>
</extensions>
</trkpt>
<trkpt lat="64.169982910" lon="-21.654674530">
<ele>133.421875</ele>
<time>2012-07-18T14:26:25Z</time>
<speed>0.810000</speed>
<extensions>
<speed>0.8</speed>
<temp>0.00</temp>
<bpm>0</bpm>
<rpm>0.00</rpm>
</extensions>
</trkpt>
<trkpt lat="64.170021057" lon="-21.654727936">
<ele>133.886719</ele>
<time>2012-07-18T14:26:30Z</time>
<speed>0.750000</speed>
<extensions>
<speed>0.8</speed>
<temp>0.00</temp>
<bpm>0</bpm>
<rpm>0.00</rpm>
</extensions>
</trkpt>
<trkpt lat="64.170043945" lon="-21.654796600">
<ele>135.730469</ele>
<time>2012-07-18T14:26:35Z</time>
<speed>1.100000</speed>
<extensions>
<speed>1.1</speed>
<temp>0.00</temp>
<bpm>0</bpm>
<rpm>0.00</rpm>
</extensions>
</trkpt>
<trkpt lat="64.170059204" lon="-21.654798508">
<ele>135.867188</ele>
<time>2012-07-18T14:26:40Z</time>
<speed>0.530000</speed>
<extensions>
<speed>0.5</speed>
<temp>0.00</temp>
<bpm>0</bpm>
<rpm>0.00</rpm>
</extensions>
</trkpt>
<trkpt lat="64.170082092" lon="-21.654802322">
<ele>136.742188</ele>
<time>2012-07-18T14:26:45Z</time>
<speed>0.590000</speed>
<extensions>
<speed>0.6</speed>
<temp>0.00</temp>
<bpm>0</bpm>
<rpm>0.00</rpm>
</extensions>
</trkpt>
<trkpt lat="64.170112610" lon="-21.654823303">
<ele>137.835938</ele>
<time>2012-07-18T14:26:50Z</time>
<speed>0.860000</speed>
<extensions>
<speed>0.9</speed>
<temp>0.00</temp>
<bpm>0</bpm>
<rpm>0.00</rpm>
</extensions>
</trkpt>
<trkpt lat="64.170135498" lon="-21.654811859">
<ele>138.648438</ele>
<time>2012-07-18T14:26:55Z</time>
<speed>0.600000</speed>
<extensions>
<speed>0.6</speed>
<temp>0.00</temp>
<bpm>0</bpm>
<rpm>0.00</rpm>
</extensions>
</trkpt>
<trkpt lat="64.170173645" lon="-21.654844284">
<ele>139.421875</ele>
<time>2012-07-18T14:27:00Z</time>
<speed>0.750000</speed>
<extensions>
<speed>0.8</speed>
<temp>0.00</temp>
<bpm>0</bpm>
<rpm>0.00</rpm>
</extensions>
</trkpt>
<trkpt lat="64.170219421" lon="-21.654909134">
<ele>140.335938</ele>
<time>2012-07-18T14:27:05Z</time>
<speed>1.520000</speed>
<extensions>
<speed>1.5</speed>
<temp>0.00</temp>
<bpm>0</bpm>
<rpm>0.00</rpm>
</extensions>
</trkpt>
<trkpt lat="64.170257568" lon="-21.654964447">
<ele>141.332031</ele>
<time>2012-07-18T14:27:10Z</time>
<speed>1.040000</speed>
<extensions>
<speed>1.0</speed>
<temp>0.00</temp>
<bpm>0</bpm>
<rpm>0.00</rpm>
</extensions>
</trkpt>
<trkpt lat="64.170288086" lon="-21.655027390">
<ele>142.085938</ele>
<time>2012-07-18T14:27:15Z</time>
<speed>1.080000</speed>
<extensions>
<speed>1.1</speed>
<temp>0.00</temp>
<bpm>0</bpm>
<rpm>0.00</rpm>
</extensions>
</trkpt>
<trkpt lat="64.170333862" lon="-21.655082703">
<ele>142.449219</ele>
<time>2012-07-18T14:27:20Z</time>
<speed>0.970000</speed>
<extensions>
<speed>1.0</speed>
<temp>0.00</temp>
<bpm>0</bpm>
<rpm>0.00</rpm>
</extensions>
</trkpt>
<trkpt lat="64.170379639" lon="-21.655139923">
<ele>144.980469</ele>
<time>2012-07-18T14:27:25Z</time>
<speed>0.900000</speed>
<extensions>
<speed>0.9</speed>
<temp>0.00</temp>
<bpm>0</bpm>
<rpm>0.00</rpm>
</extensions>
</trkpt>
<trkpt lat="64.170417786" lon="-21.655141830">
<ele>145.273438</ele>
<time>2012-07-18T14:27:30Z</time>
<speed>0.850000</speed>
<extensions>
<speed>0.8</speed>
<temp>0.00</temp>
<bpm>0</bpm>
<rpm>0.00</rpm>
</extensions>
</trkpt>
<trkpt lat="64.170455933" lon="-21.655145645">
<ele>146.335938</ele>
<time>2012-07-18T14:27:35Z</time>
<speed>0.740000</speed>
<extensions>
<speed>0.7</speed>
<temp>0.00</temp>
<bpm>0</bpm>
<rpm>0.00</rpm>
</extensions>
</trkpt>
<trkpt lat="64.170486450" lon="-21.655206680">
<ele>146.480469</ele>
<time>2012-07-18T14:27:40Z</time>
<speed>0.660000</speed>
<extensions>
<speed>0.7</speed>
<temp>0.00</temp>
<bpm>0</bpm>
<rpm>0.00</rpm>
</extensions>
</trkpt>
<trkpt lat="64.170501709" lon="-21.655250549">
<ele>148.273438</ele>
<time>2012-07-18T14:27:45Z</time>
<speed>0.500000</speed>
<extensions>
<speed>0.5</speed>
<temp>0.00</temp>
<bpm>0</bpm>
<rpm>0.00</rpm>
</extensions>
</trkpt>
<trkpt lat="64.170532227" lon="-21.655328751">
<ele>149.386719</ele>
<time>2012-07-18T14:27:50Z</time>
<speed>0.180000</speed>
<extensions>
<speed>0.2</speed>
<temp>0.00</temp>
<bpm>0</bpm>
<rpm>0.00</rpm>
</extensions>
</trkpt>
<trkpt lat="64.170539856" lon="-21.655336380">
<ele>149.777344</ele>
<time>2012-07-18T14:27:55Z</time>
<speed>0.720000</speed>
<extensions>
<speed>0.7</speed>
<temp>0.00</temp>
<bpm>0</bpm>
<rpm>0.00</rpm>
</extensions>
</trkpt>
<trkpt lat="64.170562744" lon="-21.655376434">
<ele>150.910156</ele>
<time>2012-07-18T14:28:00Z</time>
<speed>0.550000</speed>
<extensions>
<speed>0.6</speed>
<temp>0.00</temp>
<bpm>0</bpm>
<rpm>0.00</rpm>
</extensions>
</trkpt>
<trkpt lat="64.170585632" lon="-21.655370712">
<ele>151.949219</ele>
<time>2012-07-18T14:28:05Z</time>
<speed>0.520000</speed>
<extensions>
<speed>0.5</speed>
<temp>0.00</temp>
<bpm>0</bpm>
<rpm>0.00</rpm>
</extensions>
</trkpt>
<trkpt lat="64.170616150" lon="-21.655349731">
<ele>152.578125</ele>
<time>2012-07-18T14:28:10Z</time>
<speed>0.880000</speed>
<extensions>
<speed>0.9</speed>
<temp>0.00</temp>
<bpm>0</bpm>
<rpm>0.00</rpm>
</extensions>
</trkpt>
<trkpt lat="64.170654297" lon="-21.655372620">
<ele>153.449219</ele>
<time>2012-07-18T14:28:15Z</time>
<speed>0.920000</speed>
<extensions>
<speed>0.9</speed>
<temp>0.00</temp>
<bpm>0</bpm>
<rpm>0.00</rpm>
</extensions>
</trkpt>
<trkpt lat="64.170684814" lon="-21.655361176">
<ele>154.375000</ele>
<time>2012-07-18T14:28:20Z</time>
<speed>0.780000</speed>
<extensions>
<speed>0.8</speed>
<temp>0.00</temp>
<bpm>0</bpm>
<rpm>0.00</rpm>
</extensions>
</trkpt>
<trkpt lat="64.170722961" lon="-21.655389786">
<ele>155.242188</ele>
<time>2012-07-18T14:28:25Z</time>
<speed>0.600000</speed>
<extensions>
<speed>0.6</speed>
<temp>0.00</temp>
<bpm>0</bpm>
<rpm>0.00</rpm>
</extensions>
</trkpt>
<trkpt lat="64.170761108" lon="-21.655443192">
<ele>155.691406</ele>
<time>2012-07-18T14:28:30Z</time>
<speed>0.820000</speed>
<extensions>
<speed>0.8</speed>
<temp>0.00</temp>
<bpm>0</bpm>
<rpm>0.00</rpm>
</extensions>
</trkpt>
<trkpt lat="64.170822144" lon="-21.655529022">
<ele>157.371094</ele>
<time>2012-07-18T14:28:35Z</time>
<speed>0.140000</speed>
<extensions>
<speed>0.1</speed>
<temp>0.00</temp>
<bpm>0</bpm>
<rpm>0.00</rpm>
</extensions>
</trkpt>
<trkpt lat="64.170837402" lon="-21.655538559">
<ele>158.304688</ele>
<time>2012-07-18T14:28:40Z</time>
<speed>0.150000</speed>
<extensions>
<speed>0.2</speed>
<temp>0.00</temp>
<bpm>0</bpm>
<rpm>0.00</rpm>
</extensions>
</trkpt>
<trkpt lat="64.170860291" lon="-21.655548096">
<ele>159.027344</ele>
<time>2012-07-18T14:28:45Z</time>
<speed>1.390000</speed>
<extensions>
<speed>1.4</speed>
<temp>0.00</temp>
<bpm>0</bpm>
<rpm>0.00</rpm>
</extensions>
</trkpt>
<trkpt lat="64.170898438" lon="-21.655542374">
<ele>160.472656</ele>
<time>2012-07-18T14:28:50Z</time>
<speed>1.070000</speed>
<extensions>
<speed>1.1</speed>
<temp>0.00</temp>
<bpm>0</bpm>
<rpm>0.00</rpm>
</extensions>
</trkpt>
<trkpt lat="64.170944214" lon="-21.655498505">
<ele>160.621094</ele>
<time>2012-07-18T14:28:55Z</time>
<speed>1.360000</speed>
<extensions>
<speed>1.4</speed>
<temp>0.00</temp>
<bpm>0</bpm>
<rpm>0.00</rpm>
</extensions>
</trkpt>
<trkpt lat="64.170997620" lon="-21.655481339">
<ele>161.136719</ele>
<time>2012-07-18T14:29:00Z</time>
<speed>1.190000</speed>
<extensions>
<speed>1.2</speed>
<temp>0.00</temp>
<bpm>0</bpm>
<rpm>0.00</rpm>
</extensions>
</trkpt>
<trkpt lat="64.171051025" lon="-21.655479431">
<ele>162.925781</ele>
<time>2012-07-18T14:29:05Z</time>
<speed>1.360000</speed>
<extensions>
<speed>1.4</speed>
<temp>0.00</temp>
<bpm>0</bpm>
<rpm>0.00</rpm>
</extensions>
</trkpt>
<trkpt lat="64.171104431" lon="-21.655452728">
<ele>163.621094</ele>
<time>2012-07-18T14:29:10Z</time>
<speed>1.320000</speed>
<extensions>
<speed>1.3</speed>
<temp>0.00</temp>
<bpm>0</bpm>
<rpm>0.00</rpm>
</extensions>
</trkpt>
<trkpt lat="64.171150208" lon="-21.655414581">
<ele>164.902344</ele>
<time>2012-07-18T14:29:15Z</time>
<speed>1.120000</speed>
<extensions>
<speed>1.1</speed>
<temp>0.00</temp>
<bpm>0</bpm>
<rpm>0.00</rpm>
</extensions>
</trkpt>
<trkpt lat="64.171188354" lon="-21.655403137">
<ele>166.656250</ele>
<time>2012-07-18T14:29:20Z</time>
<speed>1.130000</speed>
<extensions>
<speed>1.1</speed>
<temp>0.00</temp>
<bpm>0</bpm>
<rpm>0.00</rpm>
</extensions>
</trkpt>
<trkpt lat="64.171226501" lon="-21.655378342">
<ele>167.136719</ele>
<time>2012-07-18T14:29:25Z</time>
<speed>0.770000</speed>
<extensions>
<speed>0.8</speed>
<temp>0.00</temp>
<bpm>0</bpm>
<rpm>0.00</rpm>
</extensions>
</trkpt>
<trkpt lat="64.171257019" lon="-21.655380249">
<ele>167.445313</ele>
<time>2012-07-18T14:29:30Z</time>
<speed>0.560000</speed>
<extensions>
<speed>0.6</speed>
<temp>0.00</temp>
<bpm>0</bpm>
<rpm>0.00</rpm>
</extensions>
</trkpt>
<trkpt lat="64.171295166" lon="-21.655441284">
<ele>167.921875</ele>
<time>2012-07-18T14:29:35Z</time>
<speed>1.100000</speed>
<extensions>
<speed>1.1</speed>
<temp>0.00</temp>
<bpm>0</bpm>
<rpm>0.00</rpm>
</extensions>
</trkpt>
<trkpt lat="64.171325684" lon="-21.655450821">
<ele>167.917969</ele>
<time>2012-07-18T14:29:40Z</time>
<speed>1.060000</speed>
<extensions>
<speed>1.1</speed>
<temp>0.00</temp>
<bpm>0</bpm>
<rpm>0.00</rpm>
</extensions>
</trkpt>
<trkpt lat="64.171371460" lon="-21.655473709">
<ele>169.214844</ele>
<time>2012-07-18T14:29:45Z</time>
<speed>0.730000</speed>
<extensions>
<speed>0.7</speed>
<temp>0.00</temp>
<bpm>0</bpm>
<rpm>0.00</rpm>
</extensions>
</trkpt>
<trkpt lat="64.171401978" lon="-21.655494690">
<ele>170.601563</ele>
<time>2012-07-18T14:29:50Z</time>
<speed>0.770000</speed>
<extensions>
<speed>0.8</speed>
<temp>0.00</temp>
<bpm>0</bpm>
<rpm>0.00</rpm>
</extensions>
</trkpt>
<trkpt lat="64.171440125" lon="-21.655517578">
<ele>172.078125</ele>
<time>2012-07-18T14:29:55Z</time>
<speed>0.890000</speed>
<extensions>
<speed>0.9</speed>
<temp>0.00</temp>
<bpm>0</bpm>
<rpm>0.00</rpm>
</extensions>
</trkpt>
<trkpt lat="64.171478271" lon="-21.655538559">
<ele>173.648438</ele>
<time>2012-07-18T14:30:00Z</time>
<speed>0.920000</speed>
<extensions>
<speed>0.9</speed>
<temp>0.00</temp>
<bpm>0</bpm>
<rpm>0.00</rpm>
</extensions>
</trkpt>
<trkpt lat="64.171508789" lon="-21.655546188">
<ele>175.085938</ele>
<time>2012-07-18T14:30:05Z</time>
<speed>0.690000</speed>
<extensions>
<speed>0.7</speed>
<temp>0.00</temp>
<bpm>0</bpm>
<rpm>0.00</rpm>
</extensions>
</trkpt>
<trkpt lat="64.171539307" lon="-21.655534744">
<ele>176.675781</ele>
<time>2012-07-18T14:30:10Z</time>
<speed>0.880000</speed>
<extensions>
<speed>0.9</speed>
<temp>0.00</temp>
<bpm>0</bpm>
<rpm>0.00</rpm>
</extensions>
</trkpt>
<trkpt lat="64.171577454" lon="-21.655523300">
<ele>178.328125</ele>
<time>2012-07-18T14:30:15Z</time>
<speed>0.900000</speed>
<extensions>
<speed>0.9</speed>
<temp>0.00</temp>
<bpm>0</bpm>
<rpm>0.00</rpm>
</extensions>
</trkpt>
<trkpt lat="64.171607971" lon="-21.655521393">
<ele>179.988281</ele>
<time>2012-07-18T14:30:20Z</time>
<speed>0.700000</speed>
<extensions>
<speed>0.7</speed>
<temp>0.00</temp>
<bpm>0</bpm>
<rpm>0.00</rpm>
</extensions>
</trkpt>
<trkpt lat="64.171638489" lon="-21.655557632">
<ele>181.519531</ele>
<time>2012-07-18T14:30:25Z</time>
<speed>0.780000</speed>
<extensions>
<speed>0.8</speed>
<temp>0.00</temp>
<bpm>0</bpm>
<rpm>0.00</rpm>
</extensions>
</trkpt>
<trkpt lat="64.171676636" lon="-21.655593872">
<ele>182.902344</ele>
<time>2012-07-18T14:30:30Z</time>
<speed>0.680000</speed>
<extensions>
<speed>0.7</speed>
<temp>0.00</temp>
<bpm>0</bpm>
<rpm>0.00</rpm>
</extensions>
</trkpt>
<trkpt lat="64.171699524" lon="-21.655593872">
<ele>184.566406</ele>
<time>2012-07-18T14:30:35Z</time>
<speed>0.320000</speed>
<extensions>
<speed>0.3</speed>
<temp>0.00</temp>
<bpm>0</bpm>
<rpm>0.00</rpm>
</extensions>
</trkpt>
<trkpt lat="64.171714783" lon="-21.655618668">
<ele>185.277344</ele>
<time>2012-07-18T14:30:40Z</time>
<speed>0.850000</speed>
<extensions>
<speed>0.8</speed>
<temp>0.00</temp>
<bpm>0</bpm>
<rpm>0.00</rpm>
</extensions>
</trkpt>
<trkpt lat="64.171745300" lon="-21.655651093">
<ele>186.605469</ele>
<time>2012-07-18T14:30:45Z</time>
<speed>0.840000</speed>
<extensions>
<speed>0.8</speed>
<temp>0.00</temp>
<bpm>0</bpm>
<rpm>0.00</rpm>
</extensions>
</trkpt>
<trkpt lat="64.171775818" lon="-21.655635834">
<ele>187.792969</ele>
<time>2012-07-18T14:30:50Z</time>
<speed>0.780000</speed>
<extensions>
<speed>0.8</speed>
<temp>0.00</temp>
<bpm>0</bpm>
<rpm>0.00</rpm>
</extensions>
</trkpt>
<trkpt lat="64.171806335" lon="-21.655628204">
<ele>188.710938</ele>
<time>2012-07-18T14:30:55Z</time>
<speed>0.670000</speed>
<extensions>
<speed>0.7</speed>
<temp>0.00</temp>
<bpm>0</bpm>
<rpm>0.00</rpm>
</extensions>
</trkpt>
<trkpt lat="64.171844482" lon="-21.655595779">
<ele>190.468750</ele>
<time>2012-07-18T14:31:00Z</time>
<speed>0.730000</speed>
<extensions>
<speed>0.7</speed>
<temp>0.00</temp>
<bpm>0</bpm>
<rpm>0.00</rpm>
</extensions>
</trkpt>
<trkpt lat="64.171882629" lon="-21.655569077">
<ele>191.988281</ele>
<time>2012-07-18T14:31:05Z</time>
<speed>1.080000</speed>
<extensions>
<speed>1.1</speed>
<temp>0.00</temp>
<bpm>0</bpm>
<rpm>0.00</rpm>
</extensions>
</trkpt>
<trkpt lat="64.171928406" lon="-21.655588150">
<ele>193.335938</ele>
<time>2012-07-18T14:31:10Z</time>
<speed>1.150000</speed>
<extensions>
<speed>1.1</speed>
<temp>0.00</temp>
<bpm>0</bpm>
<rpm>0.00</rpm>
</extensions>
</trkpt>
<trkpt lat="64.171989441" lon="-21.655599594">
<ele>194.550781</ele>
<time>2012-07-18T14:31:15Z</time>
<speed>1.170000</speed>
<extensions>
<speed>1.2</speed>
<temp>0.00</temp>
<bpm>0</bpm>
<rpm>0.00</rpm>
</extensions>
</trkpt>
<trkpt lat="64.172035217" lon="-21.655551910">
<ele>195.628906</ele>
<time>2012-07-18T14:31:20Z</time>
<speed>1.000000</speed>
<extensions>
<speed>1.0</speed>
<temp>0.00</temp>
<bpm>0</bpm>
<rpm>0.00</rpm>
</extensions>
</trkpt>
<trkpt lat="64.172096252" lon="-21.655525208">
<ele>196.378906</ele>
<time>2012-07-18T14:31:25Z</time>
<speed>1.080000</speed>
<extensions>
<speed>1.1</speed>
<temp>0.00</temp>
<bpm>0</bpm>
<rpm>0.00</rpm>
</extensions>
</trkpt>
<trkpt lat="64.172134399" lon="-21.655456543">
<ele>196.667969</ele>
<time>2012-07-18T14:31:30Z</time>
<speed>1.310000</speed>
<extensions>
<speed>1.3</speed>
<temp>0.00</temp>
<bpm>0</bpm>
<rpm>0.00</rpm>
</extensions>
</trkpt>
<trkpt lat="64.172172546" lon="-21.655353546">
<ele>196.640625</ele>
<time>2012-07-18T14:31:35Z</time>
<speed>1.270000</speed>
<extensions>
<speed>1.3</speed>
<temp>0.00</temp>
<bpm>0</bpm>
<rpm>0.00</rpm>
</extensions>
</trkpt>
<trkpt lat="64.172225952" lon="-21.655256271">
<ele>196.574219</ele>
<time>2012-07-18T14:31:40Z</time>
<speed>1.830000</speed>
<extensions>
<speed>1.8</speed>
<temp>0.00</temp>
<bpm>0</bpm>
<rpm>0.00</rpm>
</extensions>
</trkpt>
<trkpt lat="64.172271729" lon="-21.655151367">
<ele>196.808594</ele>
<time>2012-07-18T14:31:45Z</time>
<speed>1.440000</speed>
<extensions>
<speed>1.4</speed>
<temp>0.00</temp>
<bpm>0</bpm>
<rpm>0.00</rpm>
</extensions>
</trkpt>
<trkpt lat="64.172317505" lon="-21.655061722">
<ele>197.011719</ele>
<time>2012-07-18T14:31:50Z</time>
<speed>1.970000</speed>
<extensions>
<speed>2.0</speed>
<temp>0.00</temp>
<bpm>0</bpm>
<rpm>0.00</rpm>
</extensions>
</trkpt>
<trkpt lat="64.172370911" lon="-21.654985428">
<ele>197.281250</ele>
<time>2012-07-18T14:31:55Z</time>
<speed>1.440000</speed>
<extensions>
<speed>1.4</speed>
<temp>0.00</temp>
<bpm>0</bpm>
<rpm>0.00</rpm>
</extensions>
</trkpt>
<trkpt lat="64.172431946" lon="-21.654895782">
<ele>197.667969</ele>
<time>2012-07-18T14:32:00Z</time>
<speed>1.390000</speed>
<extensions>
<speed>1.4</speed>
<temp>0.00</temp>
<bpm>0</bpm>
<rpm>0.00</rpm>
</extensions>
</trkpt>
<trkpt lat="64.172485352" lon="-21.654819489">
<ele>197.816406</ele>
<time>2012-07-18T14:32:05Z</time>
<speed>1.300000</speed>
<extensions>
<speed>1.3</speed>
<temp>0.00</temp>
<bpm>0</bpm>
<rpm>0.00</rpm>
</extensions>
</trkpt>
<trkpt lat="64.172561646" lon="-21.654729843">
<ele>197.941406</ele>
<time>2012-07-18T14:32:10Z</time>
<speed>1.440000</speed>
<extensions>
<speed>1.4</speed>
<temp>0.00</temp>
<bpm>0</bpm>
<rpm>0.00</rpm>
</extensions>
</trkpt>
<trkpt lat="64.172584534" lon="-21.654695511">
<ele>197.035156</ele>
<time>2012-07-18T14:32:15Z</time>
<speed>1.410000</speed>
<extensions>
<speed>1.4</speed>
<temp>0.00</temp>
<bpm>0</bpm>
<rpm>0.00</rpm>
</extensions>
</trkpt>
<trkpt lat="64.172607422" lon="-21.654649734">
<ele>196.070313</ele>
<time>2012-07-18T14:32:20Z</time>
<speed>1.180000</speed>
<extensions>
<speed>1.2</speed>
<temp>0.00</temp>
<bpm>0</bpm>
<rpm>0.00</rpm>
</extensions>
</trkpt>
<trkpt lat="64.172653198" lon="-21.654603958">
<ele>195.765625</ele>
<time>2012-07-18T14:32:25Z</time>
<speed>0.610000</speed>
<extensions>
<speed>0.6</speed>
<temp>0.00</temp>
<bpm>0</bpm>
<rpm>0.00</rpm>
</extensions>
</trkpt>
<trkpt lat="64.172706604" lon="-21.654560089">
<ele>196.398438</ele>
<time>2012-07-18T14:32:30Z</time>
<speed>1.170000</speed>
<extensions>
<speed>1.2</speed>
<temp>0.00</temp>
<bpm>0</bpm>
<rpm>0.00</rpm>
</extensions>
</trkpt>
<trkpt lat="64.172752380" lon="-21.654527664">
<ele>196.515625</ele>
<time>2012-07-18T14:32:35Z</time>
<speed>0.670000</speed>
<extensions>
<speed>0.7</speed>
<temp>0.00</temp>
<bpm>0</bpm>
<rpm>0.00</rpm>
</extensions>
</trkpt>
<trkpt lat="64.172760010" lon="-21.654508591">
<ele>196.863281</ele>
<time>2012-07-18T14:32:40Z</time>
<speed>0.270000</speed>
<extensions>
<speed>0.3</speed>
<temp>0.00</temp>
<bpm>0</bpm>
<rpm>0.00</rpm>
</extensions>
</trkpt>
<trkpt lat="64.172760010" lon="-21.654499054">
<ele>196.656250</ele>
<time>2012-07-18T14:32:45Z</time>
<speed>0.090000</speed>
<extensions>
<speed>0.1</speed>
<temp>0.00</temp>
<bpm>0</bpm>
<rpm>0.00</rpm>
</extensions>
</trkpt>
<trkpt lat="64.172760010" lon="-21.654521942">
<ele>196.511719</ele>
<time>2012-07-18T14:32:50Z</time>
<speed>0.710000</speed>
<extensions>
<speed>0.7</speed>
<temp>0.00</temp>
<bpm>0</bpm>
<rpm>0.00</rpm>
</extensions>
</trkpt>
<trkpt lat="64.172752380" lon="-21.654596329">
<ele>196.371094</ele>
<time>2012-07-18T14:32:55Z</time>
<speed>0.730000</speed>
<extensions>
<speed>0.7</speed>
<temp>0.00</temp>
<bpm>0</bpm>
<rpm>0.00</rpm>
</extensions>
</trkpt>
<trkpt lat="64.172782898" lon="-21.654684067">
<ele>195.800781</ele>
<time>2012-07-18T14:33:00Z</time>
<speed>1.110000</speed>
<extensions>
<speed>1.1</speed>
<temp>0.00</temp>
<bpm>0</bpm>
<rpm>0.00</rpm>
</extensions>
</trkpt>
<trkpt lat="64.172828674" lon="-21.654790878">
<ele>195.511719</ele>
<time>2012-07-18T14:33:05Z</time>
<speed>1.200000</speed>
<extensions>
<speed>1.2</speed>
<temp>0.00</temp>
<bpm>0</bpm>
<rpm>0.00</rpm>
</extensions>
</trkpt>
<trkpt lat="64.172866821" lon="-21.654869080">
<ele>196.222656</ele>
<time>2012-07-18T14:33:10Z</time>
<speed>1.440000</speed>
<extensions>
<speed>1.4</speed>
<temp>0.00</temp>
<bpm>0</bpm>
<rpm>0.00</rpm>
</extensions>
</trkpt>
<trkpt lat="64.172904968" lon="-21.654905319">
<ele>196.324219</ele>
<time>2012-07-18T14:33:15Z</time>
<speed>0.340000</speed>
<extensions>
<speed>0.3</speed>
<temp>0.00</temp>
<bpm>0</bpm>
<rpm>0.00</rpm>
</extensions>
</trkpt>
<trkpt lat="64.172889709" lon="-21.654865265">
<ele>195.941406</ele>
<time>2012-07-18T14:33:20Z</time>
<speed>0.640000</speed>
<extensions>
<speed>0.6</speed>
<temp>0.00</temp>
<bpm>0</bpm>
<rpm>0.00</rpm>
</extensions>
</trkpt>
<trkpt lat="64.172912598" lon="-21.654773712">
<ele>195.449219</ele>
<time>2012-07-18T14:33:25Z</time>
<speed>1.050000</speed>
<extensions>
<speed>1.0</speed>
<temp>0.00</temp>
<bpm>0</bpm>
<rpm>0.00</rpm>
</extensions>
</trkpt>
<trkpt lat="64.172935486" lon="-21.654678345">
<ele>195.164063</ele>
<time>2012-07-18T14:33:30Z</time>
<speed>1.250000</speed>
<extensions>
<speed>1.3</speed>
<temp>0.00</temp>
<bpm>0</bpm>
<rpm>0.00</rpm>
</extensions>
</trkpt>
<trkpt lat="64.172981262" lon="-21.654537201">
<ele>194.886719</ele>
<time>2012-07-18T14:33:35Z</time>
<speed>1.320000</speed>
<extensions>
<speed>1.3</speed>
<temp>0.00</temp>
<bpm>0</bpm>
<rpm>0.00</rpm>
</extensions>
</trkpt>
<trkpt lat="64.172988892" lon="-21.654417038">
<ele>193.691406</ele>
<time>2012-07-18T14:33:40Z</time>
<speed>1.540000</speed>
<extensions>
<speed>1.5</speed>
<temp>0.00</temp>
<bpm>0</bpm>
<rpm>0.00</rpm>
</extensions>
</trkpt>
<trkpt lat="64.173011780" lon="-21.654336929">
<ele>193.398438</ele>
<time>2012-07-18T14:33:45Z</time>
<speed>1.080000</speed>
<extensions>
<speed>1.1</speed>
<temp>0.00</temp>
<bpm>0</bpm>
<rpm>0.00</rpm>
</extensions>
</trkpt>
<trkpt lat="64.173049927" lon="-21.654254913">
<ele>194.281250</ele>
<time>2012-07-18T14:33:50Z</time>
<speed>0.880000</speed>
<extensions>
<speed>0.9</speed>
<temp>0.00</temp>
<bpm>0</bpm>
<rpm>0.00</rpm>
</extensions>
</trkpt>
<trkpt lat="64.173103333" lon="-21.654182434">
<ele>195.351563</ele>
<time>2012-07-18T14:33:55Z</time>
<speed>1.350000</speed>
<extensions>
<speed>1.4</speed>
<temp>0.00</temp>
<bpm>0</bpm>
<rpm>0.00</rpm>
</extensions>
</trkpt>
<trkpt lat="64.173149109" lon="-21.654098511">
<ele>196.355469</ele>
<time>2012-07-18T14:34:00Z</time>
<speed>1.200000</speed>
<extensions>
<speed>1.2</speed>
<temp>0.00</temp>
<bpm>0</bpm>
<rpm>0.00</rpm>
</extensions>
</trkpt>
<trkpt lat="64.173171997" lon="-21.653985977">
<ele>197.941406</ele>
<time>2012-07-18T14:34:05Z</time>
<speed>1.700000</speed>
<extensions>
<speed>1.7</speed>
<temp>0.00</temp>
<bpm>0</bpm>
<rpm>0.00</rpm>
</extensions>
</trkpt>
<trkpt lat="64.173217773" lon="-21.653907776">
<ele>200.089844</ele>
<time>2012-07-18T14:34:10Z</time>
<speed>1.000000</speed>
<extensions>
<speed>1.0</speed>
<temp>0.00</temp>
<bpm>0</bpm>
<rpm>0.00</rpm>
</extensions>
</trkpt>
<trkpt lat="64.173278809" lon="-21.653871536">
<ele>201.492188</ele>
<time>2012-07-18T14:34:15Z</time>
<speed>1.570000</speed>
<extensions>
<speed>1.6</speed>
<temp>0.00</temp>
<bpm>0</bpm>
<rpm>0.00</rpm>
</extensions>
</trkpt>
<trkpt lat="64.173309326" lon="-21.653789520">
<ele>203.027344</ele>
<time>2012-07-18T14:34:20Z</time>
<speed>1.320000</speed>
<extensions>
<speed>1.3</speed>
<temp>0.00</temp>
<bpm>0</bpm>
<rpm>0.00</rpm>
</extensions>
</trkpt>
<trkpt lat="64.173339844" lon="-21.653781891">
<ele>203.734375</ele>
<time>2012-07-18T14:34:25Z</time>
<speed>0.810000</speed>
<extensions>
<speed>0.8</speed>
<temp>0.00</temp>
<bpm>0</bpm>
<rpm>0.00</rpm>
</extensions>
</trkpt>
<trkpt lat="64.173355103" lon="-21.653745651">
<ele>203.085938</ele>
<time>2012-07-18T14:34:30Z</time>
<speed>0.200000</speed>
<extensions>
<speed>0.2</speed>
<temp>0.00</temp>
<bpm>0</bpm>
<rpm>0.00</rpm>
</extensions>
</trkpt>
<trkpt lat="64.173362732" lon="-21.653732300">
<ele>202.570313</ele>
<time>2012-07-18T14:34:35Z</time>
<extensions>
<speed>0.0</speed>
<temp>0.00</temp>
<bpm>0</bpm>
<rpm>0.00</rpm>
</extensions>
</trkpt>
<trkpt lat="64.173362732" lon="-21.653736115">
<ele>202.558594</ele>
<time>2012-07-18T14:34:40Z</time>
<speed>0.190000</speed>
<extensions>
<speed>0.2</speed>
<temp>0.00</temp>
<bpm>0</bpm>
<rpm>0.00</rpm>
</extensions>
</trkpt>
<trkpt lat="64.173362732" lon="-21.653728485">
<ele>202.437500</ele>
<time>2012-07-18T14:34:45Z</time>
<speed>0.110000</speed>
<extensions>
<speed>0.1</speed>
<temp>0.00</temp>
<bpm>0</bpm>
<rpm>0.00</rpm>
</extensions>
</trkpt>
<trkpt lat="64.173362732" lon="-21.653728485">
<ele>202.343750</ele>
<time>2012-07-18T14:34:50Z</time>
<speed>0.030000</speed>
<extensions>
<speed>0.0</speed>
<temp>0.00</temp>
<bpm>0</bpm>
<rpm>0.00</rpm>
</extensions>
</trkpt>
<trkpt lat="64.173362732" lon="-21.653728485">
<ele>202.300781</ele>
<time>2012-07-18T14:34:55Z</time>
<speed>0.080000</speed>
<extensions>
<speed>0.1</speed>
<temp>0.00</temp>
<bpm>0</bpm>
<rpm>0.00</rpm>
</extensions>
</trkpt>
<trkpt lat="64.173362732" lon="-21.653728485">
<ele>202.296875</ele>
<time>2012-07-18T14:35:00Z</time>
<extensions>
<speed>0.0</speed>
<temp>0.00</temp>
<bpm>0</bpm>
<rpm>0.00</rpm>
</extensions>
</trkpt>
<trkpt lat="64.173362732" lon="-21.653730392">
<ele>202.296875</ele>
<time>2012-07-18T14:35:05Z</time>
<speed>0.010000</speed>
<extensions>
<speed>0.0</speed>
<temp>0.00</temp>
<bpm>0</bpm>
<rpm>0.00</rpm>
</extensions>
</trkpt>
<trkpt lat="64.173362732" lon="-21.653730392">
<ele>202.300781</ele>
<time>2012-07-18T14:35:10Z</time>
<speed>0.010000</speed>
<extensions>
<speed>0.0</speed>
<temp>0.00</temp>
<bpm>0</bpm>
<rpm>0.00</rpm>
</extensions>
</trkpt>
<trkpt lat="64.173362732" lon="-21.653730392">
<ele>202.335938</ele>
<time>2012-07-18T14:35:15Z</time>
<speed>0.240000</speed>
<extensions>
<speed>0.2</speed>
<temp>0.00</temp>
<bpm>0</bpm>
<rpm>0.00</rpm>
</extensions>
</trkpt>
<trkpt lat="64.173339844" lon="-21.653760910">
<ele>202.429688</ele>
<time>2012-07-18T14:35:20Z</time>
<speed>0.460000</speed>
<extensions>
<speed>0.5</speed>
<temp>0.00</temp>
<bpm>0</bpm>
<rpm>0.00</rpm>
</extensions>
</trkpt>
<trkpt lat="64.173301697" lon="-21.653827667">
<ele>202.171875</ele>
<time>2012-07-18T14:35:25Z</time>
<speed>0.320000</speed>
<extensions>
<speed>0.3</speed>
<temp>0.00</temp>
<bpm>0</bpm>
<rpm>0.00</rpm>
</extensions>
</trkpt>
<trkpt lat="64.173255920" lon="-21.653860092">
<ele>202.050781</ele>
<time>2012-07-18T14:35:30Z</time>
<speed>1.150000</speed>
<extensions>
<speed>1.1</speed>
<temp>0.00</temp>
<bpm>0</bpm>
<rpm>0.00</rpm>
</extensions>
</trkpt>
<trkpt lat="64.173225403" lon="-21.653894424">
<ele>203.289063</ele>
<time>2012-07-18T14:35:35Z</time>
<speed>0.500000</speed>
<extensions>
<speed>0.5</speed>
<temp>0.00</temp>
<bpm>0</bpm>
<rpm>0.00</rpm>
</extensions>
</trkpt>
<trkpt lat="64.173233032" lon="-21.653892517">
<ele>203.050781</ele>
<time>2012-07-18T14:35:40Z</time>
<speed>0.030000</speed>
<extensions>
<speed>0.0</speed>
<temp>0.00</temp>
<bpm>0</bpm>
<rpm>0.00</rpm>
</extensions>
</trkpt>
<trkpt lat="64.173233032" lon="-21.653884888">
<ele>203.082031</ele>
<time>2012-07-18T14:35:45Z</time>
<speed>0.470000</speed>
<extensions>
<speed>0.5</speed>
<temp>0.00</temp>
<bpm>0</bpm>
<rpm>0.00</rpm>
</extensions>
</trkpt>
<trkpt lat="64.173171997" lon="-21.653924942">
<ele>202.304688</ele>
<time>2012-07-18T14:35:50Z</time>
<speed>0.510000</speed>
<extensions>
<speed>0.5</speed>
<temp>0.00</temp>
<bpm>0</bpm>
<rpm>0.00</rpm>
</extensions>
</trkpt>
<trkpt lat="64.173171997" lon="-21.653932571">
<ele>202.285156</ele>
<time>2012-07-18T14:35:55Z</time>
<speed>0.220000</speed>
<extensions>
<speed>0.2</speed>
<temp>0.00</temp>
<bpm>0</bpm>
<rpm>0.00</rpm>
</extensions>
</trkpt>
<trkpt lat="64.173171997" lon="-21.653928757">
<ele>202.375000</ele>
<time>2012-07-18T14:36:00Z</time>
<speed>0.410000</speed>
<extensions>
<speed>0.4</speed>
<temp>0.00</temp>
<bpm>0</bpm>
<rpm>0.00</rpm>
</extensions>
</trkpt>
<trkpt lat="64.173133850" lon="-21.653944016">
<ele>201.984375</ele>
<time>2012-07-18T14:36:05Z</time>
<speed>0.660000</speed>
<extensions>
<speed>0.7</speed>
<temp>0.00</temp>
<bpm>0</bpm>
<rpm>0.00</rpm>
</extensions>
</trkpt>
<trkpt lat="64.173088074" lon="-21.654020309">
<ele>201.953125</ele>
<time>2012-07-18T14:36:10Z</time>
<speed>0.710000</speed>
<extensions>
<speed>0.7</speed>
<temp>0.00</temp>
<bpm>0</bpm>
<rpm>0.00</rpm>
</extensions>
</trkpt>
<trkpt lat="64.173042297" lon="-21.654077530">
<ele>201.789063</ele>
<time>2012-07-18T14:36:15Z</time>
<speed>1.170000</speed>
<extensions>
<speed>1.2</speed>
<temp>0.00</temp>
<bpm>0</bpm>
<rpm>0.00</rpm>
</extensions>
</trkpt>
<trkpt lat="64.172996521" lon="-21.654132843">
<ele>201.511719</ele>
<time>2012-07-18T14:36:20Z</time>
<speed>1.600000</speed>
<extensions>
<speed>1.6</speed>
<temp>0.00</temp>
<bpm>0</bpm>
<rpm>0.00</rpm>
</extensions>
</trkpt>
<trkpt lat="64.172950745" lon="-21.654214859">
<ele>201.300781</ele>
<time>2012-07-18T14:36:25Z</time>
<speed>0.920000</speed>
<extensions>
<speed>0.9</speed>
<temp>0.00</temp>
<bpm>0</bpm>
<rpm>0.00</rpm>
</extensions>
</trkpt>
<trkpt lat="64.172897339" lon="-21.654260635">
<ele>199.472656</ele>
<time>2012-07-18T14:36:30Z</time>
<speed>0.900000</speed>
<extensions>
<speed>0.9</speed>
<temp>0.00</temp>
<bpm>0</bpm>
<rpm>0.00</rpm>
</extensions>
</trkpt>
<trkpt lat="64.172859192" lon="-21.654323578">
<ele>198.078125</ele>
<time>2012-07-18T14:36:35Z</time>
<speed>1.190000</speed>
<extensions>
<speed>1.2</speed>
<temp>0.00</temp>
<bpm>0</bpm>
<rpm>0.00</rpm>
</extensions>
</trkpt>
<trkpt lat="64.172821045" lon="-21.654357910">
<ele>196.707031</ele>
<time>2012-07-18T14:36:40Z</time>
<speed>1.340000</speed>
<extensions>
<speed>1.3</speed>
<temp>0.00</temp>
<bpm>0</bpm>
<rpm>0.00</rpm>
</extensions>
</trkpt>
<trkpt lat="64.172790527" lon="-21.654426575">
<ele>196.632813</ele>
<time>2012-07-18T14:36:45Z</time>
<speed>0.720000</speed>
<extensions>
<speed>0.7</speed>
<temp>0.00</temp>
<bpm>0</bpm>
<rpm>0.00</rpm>
</extensions>
</trkpt>
<trkpt lat="64.172752380" lon="-21.654487610">
<ele>196.281250</ele>
<time>2012-07-18T14:36:50Z</time>
<speed>1.420000</speed>
<extensions>
<speed>1.4</speed>
<temp>0.00</temp>
<bpm>0</bpm>
<rpm>0.00</rpm>
</extensions>
</trkpt>
<trkpt lat="64.172729492" lon="-21.654539108">
<ele>197.019531</ele>
<time>2012-07-18T14:36:55Z</time>
<speed>0.620000</speed>
<extensions>
<speed>0.6</speed>
<temp>0.00</temp>
<bpm>0</bpm>
<rpm>0.00</rpm>
</extensions>
</trkpt>
<trkpt lat="64.172676086" lon="-21.654558182">
<ele>195.449219</ele>
<time>2012-07-18T14:37:00Z</time>
<speed>0.830000</speed>
<extensions>
<speed>0.8</speed>
<temp>0.00</temp>
<bpm>0</bpm>
<rpm>0.00</rpm>
</extensions>
</trkpt>
<trkpt lat="64.172645569" lon="-21.654607773">
<ele>194.765625</ele>
<time>2012-07-18T14:37:05Z</time>
<speed>0.910000</speed>
<extensions>
<speed>0.9</speed>
<temp>0.00</temp>
<bpm>0</bpm>
<rpm>0.00</rpm>
</extensions>
</trkpt>
<trkpt lat="64.172615051" lon="-21.654678345">
<ele>194.035156</ele>
<time>2012-07-18T14:37:10Z</time>
<speed>1.210000</speed>
<extensions>
<speed>1.2</speed>
<temp>0.00</temp>
<bpm>0</bpm>
<rpm>0.00</rpm>
</extensions>
</trkpt>
<trkpt lat="64.172576904" lon="-21.654777527">
<ele>193.671875</ele>
<time>2012-07-18T14:37:15Z</time>
<speed>1.460000</speed>
<extensions>
<speed>1.5</speed>
<temp>0.00</temp>
<bpm>0</bpm>
<rpm>0.00</rpm>
</extensions>
</trkpt>
<trkpt lat="64.172538757" lon="-21.654876709">
<ele>193.121094</ele>
<time>2012-07-18T14:37:20Z</time>
<speed>1.120000</speed>
<extensions>
<speed>1.1</speed>
<temp>0.00</temp>
<bpm>0</bpm>
<rpm>0.00</rpm>
</extensions>
</trkpt>
<trkpt lat="64.172500610" lon="-21.654996872">
<ele>192.207031</ele>
<time>2012-07-18T14:37:25Z</time>
<speed>1.570000</speed>
<extensions>
<speed>1.6</speed>
<temp>0.00</temp>
<bpm>0</bpm>
<rpm>0.00</rpm>
</extensions>
</trkpt>
<trkpt lat="64.172470093" lon="-21.655111313">
<ele>191.617188</ele>
<time>2012-07-18T14:37:30Z</time>
<speed>1.310000</speed>
<extensions>
<speed>1.3</speed>
<temp>0.00</temp>
<bpm>0</bpm>
<rpm>0.00</rpm>
</extensions>
</trkpt>
<trkpt lat="64.172454834" lon="-21.655239105">
<ele>190.832031</ele>
<time>2012-07-18T14:37:35Z</time>
<speed>1.430000</speed>
<extensions>
<speed>1.4</speed>
<temp>0.00</temp>
<bpm>0</bpm>
<rpm>0.00</rpm>
</extensions>
</trkpt>
<trkpt lat="64.172416687" lon="-21.655366898">
<ele>190.214844</ele>
<time>2012-07-18T14:37:40Z</time>
<speed>1.520000</speed>
<extensions>
<speed>1.5</speed>
<temp>0.00</temp>
<bpm>0</bpm>
<rpm>0.00</rpm>
</extensions>
</trkpt>
<trkpt lat="64.172393799" lon="-21.655494690">
<ele>189.562500</ele>
<time>2012-07-18T14:37:45Z</time>
<speed>1.330000</speed>
<extensions>
<speed>1.3</speed>
<temp>0.00</temp>
<bpm>0</bpm>
<rpm>0.00</rpm>
</extensions>
</trkpt>
<trkpt lat="64.172363281" lon="-21.655586243">
<ele>189.429688</ele>
<time>2012-07-18T14:37:50Z</time>
<speed>1.180000</speed>
<extensions>
<speed>1.2</speed>
<temp>0.00</temp>
<bpm>0</bpm>
<rpm>0.00</rpm>
</extensions>
</trkpt>
<trkpt lat="64.172302246" lon="-21.655639648">
<ele>188.820313</ele>
<time>2012-07-18T14:37:55Z</time>
<speed>1.050000</speed>
<extensions>
<speed>1.0</speed>
<temp>0.00</temp>
<bpm>0</bpm>
<rpm>0.00</rpm>
</extensions>
</trkpt>
<trkpt lat="64.172279358" lon="-21.655735016">
<ele>189.785156</ele>
<time>2012-07-18T14:38:00Z</time>
<speed>1.280000</speed>
<extensions>
<speed>1.3</speed>
<temp>0.00</temp>
<bpm>0</bpm>
<rpm>0.00</rpm>
</extensions>
</trkpt>
<trkpt lat="64.172241211" lon="-21.655757904">
<ele>189.757813</ele>
<time>2012-07-18T14:38:05Z</time>
<speed>1.300000</speed>
<extensions>
<speed>1.3</speed>
<temp>0.00</temp>
<bpm>0</bpm>
<rpm>0.00</rpm>
</extensions>
</trkpt>
<trkpt lat="64.172180176" lon="-21.655769348">
<ele>190.785156</ele>
<time>2012-07-18T14:38:10Z</time>
<speed>1.150000</speed>
<extensions>
<speed>1.1</speed>
<temp>0.00</temp>
<bpm>0</bpm>
<rpm>0.00</rpm>
</extensions>
</trkpt>
<trkpt lat="64.172126770" lon="-21.655744553">
<ele>191.742188</ele>
<time>2012-07-18T14:38:15Z</time>
<speed>0.990000</speed>
<extensions>
<speed>1.0</speed>
<temp>0.00</temp>
<bpm>0</bpm>
<rpm>0.00</rpm>
</extensions>
</trkpt>
<trkpt lat="64.172065735" lon="-21.655731201">
<ele>193.464844</ele>
<time>2012-07-18T14:38:20Z</time>
<speed>1.400000</speed>
<extensions>
<speed>1.4</speed>
<temp>0.00</temp>
<bpm>0</bpm>
<rpm>0.00</rpm>
</extensions>
</trkpt>
<trkpt lat="64.171997070" lon="-21.655752182">
<ele>193.839844</ele>
<time>2012-07-18T14:38:25Z</time>
<speed>0.940000</speed>
<extensions>
<speed>0.9</speed>
<temp>0.00</temp>
<bpm>0</bpm>
<rpm>0.00</rpm>
</extensions>
</trkpt>
<trkpt lat="64.171951294" lon="-21.655813217">
<ele>194.054688</ele>
<time>2012-07-18T14:38:30Z</time>
<speed>1.280000</speed>
<extensions>
<speed>1.3</speed>
<temp>0.00</temp>
<bpm>0</bpm>
<rpm>0.00</rpm>
</extensions>
</trkpt>
<trkpt lat="64.171890259" lon="-21.655874252">
<ele>192.863281</ele>
<time>2012-07-18T14:38:35Z</time>
<speed>1.510000</speed>
<extensions>
<speed>1.5</speed>
<temp>0.00</temp>
<bpm>0</bpm>
<rpm>0.00</rpm>
</extensions>
</trkpt>
<trkpt lat="64.171836853" lon="-21.655920029">
<ele>191.828125</ele>
<time>2012-07-18T14:38:40Z</time>
<speed>1.050000</speed>
<extensions>
<speed>1.0</speed>
<temp>0.00</temp>
<bpm>0</bpm>
<rpm>0.00</rpm>
</extensions>
</trkpt>
<trkpt lat="64.171791077" lon="-21.655975342">
<ele>191.050781</ele>
<time>2012-07-18T14:38:45Z</time>
<speed>0.830000</speed>
<extensions>
<speed>0.8</speed>
<temp>0.00</temp>
<bpm>0</bpm>
<rpm>0.00</rpm>
</extensions>
</trkpt>
<trkpt lat="64.171760559" lon="-21.656021118">
<ele>190.363281</ele>
<time>2012-07-18T14:38:50Z</time>
<speed>0.910000</speed>
<extensions>
<speed>0.9</speed>
<temp>0.00</temp>
<bpm>0</bpm>
<rpm>0.00</rpm>
</extensions>
</trkpt>
<trkpt lat="64.171707153" lon="-21.656068802">
<ele>189.343750</ele>
<time>2012-07-18T14:38:55Z</time>
<speed>0.810000</speed>
<extensions>
<speed>0.8</speed>
<temp>0.00</temp>
<bpm>0</bpm>
<rpm>0.00</rpm>
</extensions>
</trkpt>
<trkpt lat="64.171638489" lon="-21.656122208">
<ele>187.617188</ele>
<time>2012-07-18T14:39:00Z</time>
<speed>1.380000</speed>
<extensions>
<speed>1.4</speed>
<temp>0.00</temp>
<bpm>0</bpm>
<rpm>0.00</rpm>
</extensions>
</trkpt>
<trkpt lat="64.171592712" lon="-21.656150818">
<ele>187.078125</ele>
<time>2012-07-18T14:39:05Z</time>
<speed>0.810000</speed>
<extensions>
<speed>0.8</speed>
<temp>0.00</temp>
<bpm>0</bpm>
<rpm>0.00</rpm>
</extensions>
</trkpt>
<trkpt lat="64.171569824" lon="-21.656166077">
<ele>185.707031</ele>
<time>2012-07-18T14:39:10Z</time>
<speed>0.640000</speed>
<extensions>
<speed>0.6</speed>
<temp>0.00</temp>
<bpm>0</bpm>
<rpm>0.00</rpm>
</extensions>
</trkpt>
<trkpt lat="64.171516418" lon="-21.656145096">
<ele>185.160156</ele>
<time>2012-07-18T14:39:15Z</time>
<speed>1.030000</speed>
<extensions>
<speed>1.0</speed>
<temp>0.00</temp>
<bpm>0</bpm>
<rpm>0.00</rpm>
</extensions>
</trkpt>
<trkpt lat="64.171485901" lon="-21.656192780">
<ele>183.449219</ele>
<time>2012-07-18T14:39:20Z</time>
<speed>0.860000</speed>
<extensions>
<speed>0.9</speed>
<temp>0.00</temp>
<bpm>0</bpm>
<rpm>0.00</rpm>
</extensions>
</trkpt>
<trkpt lat="64.171455383" lon="-21.656181335">
<ele>183.257813</ele>
<time>2012-07-18T14:39:25Z</time>
<speed>0.580000</speed>
<extensions>
<speed>0.6</speed>
<temp>0.00</temp>
<bpm>0</bpm>
<rpm>0.00</rpm>
</extensions>
</trkpt>
<trkpt lat="64.171417236" lon="-21.656190872">
<ele>182.007813</ele>
<time>2012-07-18T14:39:30Z</time>
<speed>0.880000</speed>
<extensions>
<speed>0.9</speed>
<temp>0.00</temp>
<bpm>0</bpm>
<rpm>0.00</rpm>
</extensions>
</trkpt>
<trkpt lat="64.171371460" lon="-21.656200409">
<ele>181.492188</ele>
<time>2012-07-18T14:39:35Z</time>
<speed>0.470000</speed>
<extensions>
<speed>0.5</speed>
<temp>0.00</temp>
<bpm>0</bpm>
<rpm>0.00</rpm>
</extensions>
</trkpt>
<trkpt lat="64.171333313" lon="-21.656232834">
<ele>180.363281</ele>
<time>2012-07-18T14:39:40Z</time>
<speed>0.760000</speed>
<extensions>
<speed>0.8</speed>
<temp>0.00</temp>
<bpm>0</bpm>
<rpm>0.00</rpm>
</extensions>
</trkpt>
<trkpt lat="64.171333313" lon="-21.656248093">
<ele>179.339844</ele>
<time>2012-07-18T14:39:45Z</time>
<speed>0.410000</speed>
<extensions>
<speed>0.4</speed>
<temp>0.00</temp>
<bpm>0</bpm>
<rpm>0.00</rpm>
</extensions>
</trkpt>
<trkpt lat="64.171310425" lon="-21.656253815">
<ele>179.039063</ele>
<time>2012-07-18T14:39:50Z</time>
<speed>0.420000</speed>
<extensions>
<speed>0.4</speed>
<temp>0.00</temp>
<bpm>0</bpm>
<rpm>0.00</rpm>
</extensions>
</trkpt>
<trkpt lat="64.171295166" lon="-21.656255722">
<ele>178.015625</ele>
<time>2012-07-18T14:39:55Z</time>
<speed>0.290000</speed>
<extensions>
<speed>0.3</speed>
<temp>0.00</temp>
<bpm>0</bpm>
<rpm>0.00</rpm>
</extensions>
</trkpt>
<trkpt lat="64.171287537" lon="-21.656250000">
<ele>176.656250</ele>
<time>2012-07-18T14:40:00Z</time>
<speed>0.250000</speed>
<extensions>
<speed>0.2</speed>
<temp>0.00</temp>
<bpm>0</bpm>
<rpm>0.00</rpm>
</extensions>
</trkpt>
<trkpt lat="64.171264648" lon="-21.656250000">
<ele>176.132813</ele>
<time>2012-07-18T14:40:05Z</time>
<speed>0.450000</speed>
<extensions>
<speed>0.5</speed>
<temp>0.00</temp>
<bpm>0</bpm>
<rpm>0.00</rpm>
</extensions>
</trkpt>
<trkpt lat="64.171234131" lon="-21.656232834">
<ele>176.847656</ele>
<time>2012-07-18T14:40:10Z</time>
<speed>0.370000</speed>
<extensions>
<speed>0.4</speed>
<temp>0.00</temp>
<bpm>0</bpm>
<rpm>0.00</rpm>
</extensions>
</trkpt>
<trkpt lat="64.171218872" lon="-21.656221390">
<ele>177.710938</ele>
<time>2012-07-18T14:40:15Z</time>
<speed>0.300000</speed>
<extensions>
<speed>0.3</speed>
<temp>0.00</temp>
<bpm>0</bpm>
<rpm>0.00</rpm>
</extensions>
</trkpt>
<trkpt lat="64.171211243" lon="-21.656229019">
<ele>178.113281</ele>
<time>2012-07-18T14:40:20Z</time>
<speed>0.450000</speed>
<extensions>
<speed>0.5</speed>
<temp>0.00</temp>
<bpm>0</bpm>
<rpm>0.00</rpm>
</extensions>
</trkpt>
<trkpt lat="64.171211243" lon="-21.656303406">
<ele>178.515625</ele>
<time>2012-07-18T14:40:25Z</time>
<speed>0.790000</speed>
<extensions>
<speed>0.8</speed>
<temp>0.00</temp>
<bpm>0</bpm>
<rpm>0.00</rpm>
</extensions>
</trkpt>
<trkpt lat="64.171203613" lon="-21.656312943">
<ele>178.042969</ele>
<time>2012-07-18T14:40:30Z</time>
<speed>0.630000</speed>
<extensions>
<speed>0.6</speed>
<temp>0.00</temp>
<bpm>0</bpm>
<rpm>0.00</rpm>
</extensions>
</trkpt>
<trkpt lat="64.171195984" lon="-21.656211853">
<ele>177.402344</ele>
<time>2012-07-18T14:40:35Z</time>
<speed>1.310000</speed>
<extensions>
<speed>1.3</speed>
<temp>0.00</temp>
<bpm>0</bpm>
<rpm>0.00</rpm>
</extensions>
</trkpt>
<trkpt lat="64.171180725" lon="-21.656110764">
<ele>175.960938</ele>
<time>2012-07-18T14:40:40Z</time>
<speed>0.890000</speed>
<extensions>
<speed>0.9</speed>
<temp>0.00</temp>
<bpm>0</bpm>
<rpm>0.00</rpm>
</extensions>
</trkpt>
<trkpt lat="64.171180725" lon="-21.656009674">
<ele>175.460938</ele>
<time>2012-07-18T14:40:45Z</time>
<speed>0.940000</speed>
<extensions>
<speed>0.9</speed>
<temp>0.00</temp>
<bpm>0</bpm>
<rpm>0.00</rpm>
</extensions>
</trkpt>
<trkpt lat="64.171157837" lon="-21.655950546">
<ele>174.371094</ele>
<time>2012-07-18T14:40:50Z</time>
<speed>0.570000</speed>
<extensions>
<speed>0.6</speed>
<temp>0.00</temp>
<bpm>0</bpm>
<rpm>0.00</rpm>
</extensions>
</trkpt>
<trkpt lat="64.171157837" lon="-21.655889511">
<ele>173.574219</ele>
<time>2012-07-18T14:40:55Z</time>
<speed>0.690000</speed>
<extensions>
<speed>0.7</speed>
<temp>0.00</temp>
<bpm>0</bpm>
<rpm>0.00</rpm>
</extensions>
</trkpt>
<trkpt lat="64.171142578" lon="-21.655864716">
<ele>172.582031</ele>
<time>2012-07-18T14:41:00Z</time>
<speed>0.340000</speed>
<extensions>
<speed>0.3</speed>
<temp>0.00</temp>
<bpm>0</bpm>
<rpm>0.00</rpm>
</extensions>
</trkpt>
<trkpt lat="64.171127319" lon="-21.655818939">
<ele>171.203125</ele>
<time>2012-07-18T14:41:05Z</time>
<speed>0.840000</speed>
<extensions>
<speed>0.8</speed>
<temp>0.00</temp>
<bpm>0</bpm>
<rpm>0.00</rpm>
</extensions>
</trkpt>
<trkpt lat="64.171104431" lon="-21.655759811">
<ele>170.175781</ele>
<time>2012-07-18T14:41:10Z</time>
<speed>0.780000</speed>
<extensions>
<speed>0.8</speed>
<temp>0.00</temp>
<bpm>0</bpm>
<rpm>0.00</rpm>
</extensions>
</trkpt>
<trkpt lat="64.171073914" lon="-21.655729294">
<ele>169.171875</ele>
<time>2012-07-18T14:41:15Z</time>
<speed>0.580000</speed>
<extensions>
<speed>0.6</speed>
<temp>0.00</temp>
<bpm>0</bpm>
<rpm>0.00</rpm>
</extensions>
</trkpt>
<trkpt lat="64.171051025" lon="-21.655719757">
<ele>168.152344</ele>
<time>2012-07-18T14:41:20Z</time>
<speed>0.520000</speed>
<extensions>
<speed>0.5</speed>
<temp>0.00</temp>
<bpm>0</bpm>
<rpm>0.00</rpm>
</extensions>
</trkpt>
<trkpt lat="64.171012878" lon="-21.655656815">
<ele>167.503906</ele>
<time>2012-07-18T14:41:25Z</time>
<speed>1.210000</speed>
<extensions>
<speed>1.2</speed>
<temp>0.00</temp>
<bpm>0</bpm>
<rpm>0.00</rpm>
</extensions>
</trkpt>
<trkpt lat="64.170974731" lon="-21.655570984">
<ele>166.640625</ele>
<time>2012-07-18T14:41:30Z</time>
<speed>1.230000</speed>
<extensions>
<speed>1.2</speed>
<temp>0.00</temp>
<bpm>0</bpm>
<rpm>0.00</rpm>
</extensions>
</trkpt>
<trkpt lat="64.170936584" lon="-21.655502319">
<ele>165.480469</ele>
<time>2012-07-18T14:41:35Z</time>
<speed>1.170000</speed>
<extensions>
<speed>1.2</speed>
<temp>0.00</temp>
<bpm>0</bpm>
<rpm>0.00</rpm>
</extensions>
</trkpt>
<trkpt lat="64.170883179" lon="-21.655418396">
<ele>165.062500</ele>
<time>2012-07-18T14:41:40Z</time>
<speed>0.910000</speed>
<extensions>
<speed>0.9</speed>
<temp>0.00</temp>
<bpm>0</bpm>
<rpm>0.00</rpm>
</extensions>
</trkpt>
<trkpt lat="64.170860291" lon="-21.655334473">
<ele>165.113281</ele>
<time>2012-07-18T14:41:45Z</time>
<speed>0.880000</speed>
<extensions>
<speed>0.9</speed>
<temp>0.00</temp>
<bpm>0</bpm>
<rpm>0.00</rpm>
</extensions>
</trkpt>
<trkpt lat="64.170822144" lon="-21.655303955">
<ele>165.375000</ele>
<time>2012-07-18T14:41:50Z</time>
<speed>0.710000</speed>
<extensions>
<speed>0.7</speed>
<temp>0.00</temp>
<bpm>0</bpm>
<rpm>0.00</rpm>
</extensions>
</trkpt>
<trkpt lat="64.170799255" lon="-21.655277252">
<ele>164.085938</ele>
<time>2012-07-18T14:41:55Z</time>
<speed>0.550000</speed>
<extensions>
<speed>0.6</speed>
<temp>0.00</temp>
<bpm>0</bpm>
<rpm>0.00</rpm>
</extensions>
</trkpt>
<trkpt lat="64.170776367" lon="-21.655244827">
<ele>164.140625</ele>
<time>2012-07-18T14:42:00Z</time>
<speed>0.560000</speed>
<extensions>
<speed>0.6</speed>
<temp>0.00</temp>
<bpm>0</bpm>
<rpm>0.00</rpm>
</extensions>
</trkpt>
<trkpt lat="64.170753479" lon="-21.655221939">
<ele>163.449219</ele>
<time>2012-07-18T14:42:05Z</time>
<speed>0.580000</speed>
<extensions>
<speed>0.6</speed>
<temp>0.00</temp>
<bpm>0</bpm>
<rpm>0.00</rpm>
</extensions>
</trkpt>
<trkpt lat="64.170722961" lon="-21.655204773">
<ele>161.734375</ele>
<time>2012-07-18T14:42:10Z</time>
<speed>0.520000</speed>
<extensions>
<speed>0.5</speed>
<temp>0.00</temp>
<bpm>0</bpm>
<rpm>0.00</rpm>
</extensions>
</trkpt>
<trkpt lat="64.170707703" lon="-21.655153275">
<ele>160.605469</ele>
<time>2012-07-18T14:42:15Z</time>
<speed>0.520000</speed>
<extensions>
<speed>0.5</speed>
<temp>0.00</temp>
<bpm>0</bpm>
<rpm>0.00</rpm>
</extensions>
</trkpt>
<trkpt lat="64.170684814" lon="-21.655115128">
<ele>160.109375</ele>
<time>2012-07-18T14:42:20Z</time>
<speed>0.370000</speed>
<extensions>
<speed>0.4</speed>
<temp>0.00</temp>
<bpm>0</bpm>
<rpm>0.00</rpm>
</extensions>
</trkpt>
<trkpt lat="64.170661926" lon="-21.655101776">
<ele>159.222656</ele>
<time>2012-07-18T14:42:25Z</time>
<speed>0.470000</speed>
<extensions>
<speed>0.5</speed>
<temp>0.00</temp>
<bpm>0</bpm>
<rpm>0.00</rpm>
</extensions>
</trkpt>
<trkpt lat="64.170646667" lon="-21.655084610">
<ele>158.683594</ele>
<time>2012-07-18T14:42:30Z</time>
<speed>0.250000</speed>
<extensions>
<speed>0.2</speed>
<temp>0.00</temp>
<bpm>0</bpm>
<rpm>0.00</rpm>
</extensions>
</trkpt>
<trkpt lat="64.170623779" lon="-21.655040741">
<ele>158.117188</ele>
<time>2012-07-18T14:42:35Z</time>
<speed>0.460000</speed>
<extensions>
<speed>0.5</speed>
<temp>0.00</temp>
<bpm>0</bpm>
<rpm>0.00</rpm>
</extensions>
</trkpt>
<trkpt lat="64.170616150" lon="-21.655040741">
<ele>157.546875</ele>
<time>2012-07-18T14:42:40Z</time>
<speed>0.260000</speed>
<extensions>
<speed>0.3</speed>
<temp>0.00</temp>
<bpm>0</bpm>
<rpm>0.00</rpm>
</extensions>
</trkpt>
<trkpt lat="64.170608521" lon="-21.655027390">
<ele>157.218750</ele>
<time>2012-07-18T14:42:45Z</time>
<speed>0.220000</speed>
<extensions>
<speed>0.2</speed>
<temp>0.00</temp>
<bpm>0</bpm>
<rpm>0.00</rpm>
</extensions>
</trkpt>
<trkpt lat="64.170608521" lon="-21.654979706">
<ele>157.085938</ele>
<time>2012-07-18T14:42:50Z</time>
<speed>0.460000</speed>
<extensions>
<speed>0.5</speed>
<temp>0.00</temp>
<bpm>0</bpm>
<rpm>0.00</rpm>
</extensions>
</trkpt>
<trkpt lat="64.170608521" lon="-21.654930115">
<ele>156.253906</ele>
<time>2012-07-18T14:42:55Z</time>
<speed>0.580000</speed>
<extensions>
<speed>0.6</speed>
<temp>0.00</temp>
<bpm>0</bpm>
<rpm>0.00</rpm>
</extensions>
</trkpt>
<trkpt lat="64.170593262" lon="-21.654834747">
<ele>155.390625</ele>
<time>2012-07-18T14:43:00Z</time>
<speed>0.940000</speed>
<extensions>
<speed>0.9</speed>
<temp>0.00</temp>
<bpm>0</bpm>
<rpm>0.00</rpm>
</extensions>
</trkpt>
<trkpt lat="64.170585632" lon="-21.654735565">
<ele>154.742188</ele>
<time>2012-07-18T14:43:05Z</time>
<speed>0.990000</speed>
<extensions>
<speed>1.0</speed>
<temp>0.00</temp>
<bpm>0</bpm>
<rpm>0.00</rpm>
</extensions>
</trkpt>
<trkpt lat="64.170585632" lon="-21.654664993">
<ele>154.031250</ele>
<time>2012-07-18T14:43:10Z</time>
<speed>0.640000</speed>
<extensions>
<speed>0.6</speed>
<temp>0.00</temp>
<bpm>0</bpm>
<rpm>0.00</rpm>
</extensions>
</trkpt>
<trkpt lat="64.170555115" lon="-21.654645920">
<ele>152.742188</ele>
<time>2012-07-18T14:43:15Z</time>
<speed>0.780000</speed>
<extensions>
<speed>0.8</speed>
<temp>0.00</temp>
<bpm>0</bpm>
<rpm>0.00</rpm>
</extensions>
</trkpt>
<trkpt lat="64.170509338" lon="-21.654657364">
<ele>151.464844</ele>
<time>2012-07-18T14:43:20Z</time>
<speed>1.050000</speed>
<extensions>
<speed>1.0</speed>
<temp>0.00</temp>
<bpm>0</bpm>
<rpm>0.00</rpm>
</extensions>
</trkpt>
<trkpt lat="64.170455933" lon="-21.654663086">
<ele>150.191406</ele>
<time>2012-07-18T14:43:25Z</time>
<speed>1.270000</speed>
<extensions>
<speed>1.3</speed>
<temp>0.00</temp>
<bpm>0</bpm>
<rpm>0.00</rpm>
</extensions>
</trkpt>
<trkpt lat="64.170402527" lon="-21.654685974">
<ele>148.980469</ele>
<time>2012-07-18T14:43:30Z</time>
<speed>1.200000</speed>
<extensions>
<speed>1.2</speed>
<temp>0.00</temp>
<bpm>0</bpm>
<rpm>0.00</rpm>
</extensions>
</trkpt>
<trkpt lat="64.170349121" lon="-21.654758453">
<ele>147.824219</ele>
<time>2012-07-18T14:43:35Z</time>
<speed>1.070000</speed>
<extensions>
<speed>1.1</speed>
<temp>0.00</temp>
<bpm>0</bpm>
<rpm>0.00</rpm>
</extensions>
</trkpt>
<trkpt lat="64.170318604" lon="-21.654775620">
<ele>147.574219</ele>
<time>2012-07-18T14:43:40Z</time>
<speed>1.230000</speed>
<extensions>
<speed>1.2</speed>
<temp>0.00</temp>
<bpm>0</bpm>
<rpm>0.00</rpm>
</extensions>
</trkpt>
<trkpt lat="64.170272827" lon="-21.654775620">
<ele>146.671875</ele>
<time>2012-07-18T14:43:45Z</time>
<speed>1.070000</speed>
<extensions>
<speed>1.1</speed>
<temp>0.00</temp>
<bpm>0</bpm>
<rpm>0.00</rpm>
</extensions>
</trkpt>
<trkpt lat="64.170219421" lon="-21.654821396">
<ele>146.300781</ele>
<time>2012-07-18T14:43:50Z</time>
<speed>1.180000</speed>
<extensions>
<speed>1.2</speed>
<temp>0.00</temp>
<bpm>0</bpm>
<rpm>0.00</rpm>
</extensions>
</trkpt>
<trkpt lat="64.170166016" lon="-21.654817581">
<ele>145.816406</ele>
<time>2012-07-18T14:43:55Z</time>
<speed>0.900000</speed>
<extensions>
<speed>0.9</speed>
<temp>0.00</temp>
<bpm>0</bpm>
<rpm>0.00</rpm>
</extensions>
</trkpt>
<trkpt lat="64.170166016" lon="-21.654819489">
<ele>146.031250</ele>
<time>2012-07-18T14:44:00Z</time>
<speed>0.230000</speed>
<extensions>
<speed>0.2</speed>
<temp>0.00</temp>
<bpm>0</bpm>
<rpm>0.00</rpm>
</extensions>
</trkpt>
<trkpt lat="64.170173645" lon="-21.654817581">
<ele>145.898438</ele>
<time>2012-07-18T14:44:05Z</time>
<extensions>
<speed>0.0</speed>
<temp>0.00</temp>
<bpm>0</bpm>
<rpm>0.00</rpm>
</extensions>
</trkpt>
<trkpt lat="64.170173645" lon="-21.654819489">
<ele>145.292969</ele>
<time>2012-07-18T14:44:10Z</time>
<speed>0.030000</speed>
<extensions>
<speed>0.0</speed>
<temp>0.00</temp>
<bpm>0</bpm>
<rpm>0.00</rpm>
</extensions>
</trkpt>
<trkpt lat="64.170173645" lon="-21.654819489">
<ele>144.765625</ele>
<time>2012-07-18T14:44:15Z</time>
<speed>0.030000</speed>
<extensions>
<speed>0.0</speed>
<temp>0.00</temp>
<bpm>0</bpm>
<rpm>0.00</rpm>
</extensions>
</trkpt>
<trkpt lat="64.170166016" lon="-21.654819489">
<ele>144.316406</ele>
<time>2012-07-18T14:44:20Z</time>
<speed>0.020000</speed>
<extensions>
<speed>0.0</speed>
<temp>0.00</temp>
<bpm>0</bpm>
<rpm>0.00</rpm>
</extensions>
</trkpt>
<trkpt lat="64.170166016" lon="-21.654821396">
<ele>143.937500</ele>
<time>2012-07-18T14:44:25Z</time>
<speed>0.020000</speed>
<extensions>
<speed>0.0</speed>
<temp>0.00</temp>
<bpm>0</bpm>
<rpm>0.00</rpm>
</extensions>
</trkpt>
<trkpt lat="64.170166016" lon="-21.654821396">
<ele>143.812500</ele>
<time>2012-07-18T14:44:30Z</time>
<extensions>
<speed>0.0</speed>
<temp>0.00</temp>
<bpm>0</bpm>
<rpm>0.00</rpm>
</extensions>
</trkpt>
<trkpt lat="64.170166016" lon="-21.654821396">
<ele>143.835938</ele>
<time>2012-07-18T14:44:35Z</time>
<extensions>
<speed>0.0</speed>
<temp>0.00</temp>
<bpm>0</bpm>
<rpm>0.00</rpm>
</extensions>
</trkpt>
<trkpt lat="64.170166016" lon="-21.654821396">
<ele>143.847656</ele>
<time>2012-07-18T14:44:40Z</time>
<extensions>
<speed>0.0</speed>
<temp>0.00</temp>
<bpm>0</bpm>
<rpm>0.00</rpm>
</extensions>
</trkpt>
<trkpt lat="64.170166016" lon="-21.654813766">
<ele>143.988281</ele>
<time>2012-07-18T14:44:45Z</time>
<speed>0.280000</speed>
<extensions>
<speed>0.3</speed>
<temp>0.00</temp>
<bpm>0</bpm>
<rpm>0.00</rpm>
</extensions>
</trkpt>
<trkpt lat="64.170135498" lon="-21.654825211">
<ele>144.882813</ele>
<time>2012-07-18T14:44:50Z</time>
<speed>0.790000</speed>
<extensions>
<speed>0.8</speed>
<temp>0.00</temp>
<bpm>0</bpm>
<rpm>0.00</rpm>
</extensions>
</trkpt>
<trkpt lat="64.170104980" lon="-21.654838562">
<ele>144.882813</ele>
<time>2012-07-18T14:44:55Z</time>
<speed>0.690000</speed>
<extensions>
<speed>0.7</speed>
<temp>0.00</temp>
<bpm>0</bpm>
<rpm>0.00</rpm>
</extensions>
</trkpt>
<trkpt lat="64.170066833" lon="-21.654834747">
<ele>144.871094</ele>
<time>2012-07-18T14:45:00Z</time>
<speed>0.520000</speed>
<extensions>
<speed>0.5</speed>
<temp>0.00</temp>
<bpm>0</bpm>
<rpm>0.00</rpm>
</extensions>
</trkpt>
<trkpt lat="64.170043945" lon="-21.654844284">
<ele>144.617188</ele>
<time>2012-07-18T14:45:05Z</time>
<speed>0.740000</speed>
<extensions>
<speed>0.7</speed>
<temp>0.00</temp>
<bpm>0</bpm>
<rpm>0.00</rpm>
</extensions>
</trkpt>
<trkpt lat="64.170021057" lon="-21.654869080">
<ele>143.578125</ele>
<time>2012-07-18T14:45:10Z</time>
<speed>0.320000</speed>
<extensions>
<speed>0.3</speed>
<temp>0.00</temp>
<bpm>0</bpm>
<rpm>0.00</rpm>
</extensions>
</trkpt>
<trkpt lat="64.169982910" lon="-21.654888153">
<ele>143.042969</ele>
<time>2012-07-18T14:45:15Z</time>
<speed>0.690000</speed>
<extensions>
<speed>0.7</speed>
<temp>0.00</temp>
<bpm>0</bpm>
<rpm>0.00</rpm>
</extensions>
</trkpt>
<trkpt lat="64.169960022" lon="-21.654907227">
<ele>142.140625</ele>
<time>2012-07-18T14:45:20Z</time>
<speed>1.130000</speed>
<extensions>
<speed>1.1</speed>
<temp>0.00</temp>
<bpm>0</bpm>
<rpm>0.00</rpm>
</extensions>
</trkpt>
<trkpt lat="64.169929504" lon="-21.654922485">
<ele>141.449219</ele>
<time>2012-07-18T14:45:25Z</time>
<speed>0.370000</speed>
<extensions>
<speed>0.4</speed>
<temp>0.00</temp>
<bpm>0</bpm>
<rpm>0.00</rpm>
</extensions>
</trkpt>
<trkpt lat="64.169898987" lon="-21.654922485">
<ele>140.843750</ele>
<time>2012-07-18T14:45:30Z</time>
<speed>0.960000</speed>
<extensions>
<speed>1.0</speed>
<temp>0.00</temp>
<bpm>0</bpm>
<rpm>0.00</rpm>
</extensions>
</trkpt>
<trkpt lat="64.169860840" lon="-21.654941559">
<ele>139.921875</ele>
<time>2012-07-18T14:45:35Z</time>
<speed>0.830000</speed>
<extensions>
<speed>0.8</speed>
<temp>0.00</temp>
<bpm>0</bpm>
<rpm>0.00</rpm>
</extensions>
</trkpt>
<trkpt lat="64.169830322" lon="-21.654912949">
<ele>139.625000</ele>
<time>2012-07-18T14:45:40Z</time>
<speed>0.790000</speed>
<extensions>
<speed>0.8</speed>
<temp>0.00</temp>
<bpm>0</bpm>
<rpm>0.00</rpm>
</extensions>
</trkpt>
<trkpt lat="64.169799805" lon="-21.654891968">
<ele>138.945313</ele>
<time>2012-07-18T14:45:45Z</time>
<speed>0.570000</speed>
<extensions>
<speed>0.6</speed>
<temp>0.00</temp>
<bpm>0</bpm>
<rpm>0.00</rpm>
</extensions>
</trkpt>
<trkpt lat="64.169769287" lon="-21.654912949">
<ele>138.496094</ele>
<time>2012-07-18T14:45:50Z</time>
<speed>0.620000</speed>
<extensions>
<speed>0.6</speed>
<temp>0.00</temp>
<bpm>0</bpm>
<rpm>0.00</rpm>
</extensions>
</trkpt>
<trkpt lat="64.169738770" lon="-21.654928207">
<ele>137.976563</ele>
<time>2012-07-18T14:45:55Z</time>
<speed>0.470000</speed>
<extensions>
<speed>0.5</speed>
<temp>0.00</temp>
<bpm>0</bpm>
<rpm>0.00</rpm>
</extensions>
</trkpt>
<trkpt lat="64.169708252" lon="-21.654916763">
<ele>137.687500</ele>
<time>2012-07-18T14:46:00Z</time>
<speed>0.880000</speed>
<extensions>
<speed>0.9</speed>
<temp>0.00</temp>
<bpm>0</bpm>
<rpm>0.00</rpm>
</extensions>
</trkpt>
<trkpt lat="64.169677734" lon="-21.654901505">
<ele>137.128906</ele>
<time>2012-07-18T14:46:05Z</time>
<speed>0.860000</speed>
<extensions>
<speed>0.9</speed>
<temp>0.00</temp>
<bpm>0</bpm>
<rpm>0.00</rpm>
</extensions>
</trkpt>
<trkpt lat="64.169647217" lon="-21.654901505">
<ele>135.800781</ele>
<time>2012-07-18T14:46:10Z</time>
<speed>0.460000</speed>
<extensions>
<speed>0.5</speed>
<temp>0.00</temp>
<bpm>0</bpm>
<rpm>0.00</rpm>
</extensions>
</trkpt>
<trkpt lat="64.169616699" lon="-21.654874802">
<ele>134.957031</ele>
<time>2012-07-18T14:46:15Z</time>
<speed>0.790000</speed>
<extensions>
<speed>0.8</speed>
<temp>0.00</temp>
<bpm>0</bpm>
<rpm>0.00</rpm>
</extensions>
</trkpt>
<trkpt lat="64.169586182" lon="-21.654861450">
<ele>133.984375</ele>
<time>2012-07-18T14:46:20Z</time>
<speed>0.490000</speed>
<extensions>
<speed>0.5</speed>
<temp>0.00</temp>
<bpm>0</bpm>
<rpm>0.00</rpm>
</extensions>
</trkpt>
<trkpt lat="64.169570923" lon="-21.654827118">
<ele>133.257813</ele>
<time>2012-07-18T14:46:25Z</time>
<speed>0.790000</speed>
<extensions>
<speed>0.8</speed>
<temp>0.00</temp>
<bpm>0</bpm>
<rpm>0.00</rpm>
</extensions>
</trkpt>
<trkpt lat="64.169540405" lon="-21.654813766">
<ele>132.578125</ele>
<time>2012-07-18T14:46:30Z</time>
<speed>0.730000</speed>
<extensions>
<speed>0.7</speed>
<temp>0.00</temp>
<bpm>0</bpm>
<rpm>0.00</rpm>
</extensions>
</trkpt>
<trkpt lat="64.169509888" lon="-21.654798508">
<ele>131.800781</ele>
<time>2012-07-18T14:46:35Z</time>
<speed>0.810000</speed>
<extensions>
<speed>0.8</speed>
<temp>0.00</temp>
<bpm>0</bpm>
<rpm>0.00</rpm>
</extensions>
</trkpt>
<trkpt lat="64.169471741" lon="-21.654787064">
<ele>131.140625</ele>
<time>2012-07-18T14:46:40Z</time>
<speed>0.980000</speed>
<extensions>
<speed>1.0</speed>
<temp>0.00</temp>
<bpm>0</bpm>
<rpm>0.00</rpm>
</extensions>
</trkpt>
<trkpt lat="64.169441223" lon="-21.654764175">
<ele>130.476563</ele>
<time>2012-07-18T14:46:45Z</time>
<speed>1.040000</speed>
<extensions>
<speed>1.0</speed>
<temp>0.00</temp>
<bpm>0</bpm>
<rpm>0.00</rpm>
</extensions>
</trkpt>
<trkpt lat="64.169403076" lon="-21.654729843">
<ele>130.136719</ele>
<time>2012-07-18T14:46:50Z</time>
<speed>0.800000</speed>
<extensions>
<speed>0.8</speed>
<temp>0.00</temp>
<bpm>0</bpm>
<rpm>0.00</rpm>
</extensions>
</trkpt>
<trkpt lat="64.169372559" lon="-21.654716492">
<ele>129.816406</ele>
<time>2012-07-18T14:46:55Z</time>
<speed>0.760000</speed>
<extensions>
<speed>0.8</speed>
<temp>0.00</temp>
<bpm>0</bpm>
<rpm>0.00</rpm>
</extensions>
</trkpt>
<trkpt lat="64.169342041" lon="-21.654722214">
<ele>129.351563</ele>
<time>2012-07-18T14:47:00Z</time>
<speed>0.650000</speed>
<extensions>
<speed>0.6</speed>
<temp>0.00</temp>
<bpm>0</bpm>
<rpm>0.00</rpm>
</extensions>
</trkpt>
<trkpt lat="64.169319153" lon="-21.654716492">
<ele>128.230469</ele>
<time>2012-07-18T14:47:05Z</time>
<speed>0.570000</speed>
<extensions>
<speed>0.6</speed>
<temp>0.00</temp>
<bpm>0</bpm>
<rpm>0.00</rpm>
</extensions>
</trkpt>
<trkpt lat="64.169296265" lon="-21.654676437">
<ele>126.326172</ele>
<time>2012-07-18T14:47:10Z</time>
<speed>0.790000</speed>
<extensions>
<speed>0.8</speed>
<temp>0.00</temp>
<bpm>0</bpm>
<rpm>0.00</rpm>
</extensions>
</trkpt>
<trkpt lat="64.169265747" lon="-21.654659271">
<ele>125.007813</ele>
<time>2012-07-18T14:47:15Z</time>
<speed>0.610000</speed>
<extensions>
<speed>0.6</speed>
<temp>0.00</temp>
<bpm>0</bpm>
<rpm>0.00</rpm>
</extensions>
</trkpt>
<trkpt lat="64.169235229" lon="-21.654663086">
<ele>124.392578</ele>
<time>2012-07-18T14:47:20Z</time>
<speed>0.440000</speed>
<extensions>
<speed>0.4</speed>
<temp>0.00</temp>
<bpm>0</bpm>
<rpm>0.00</rpm>
</extensions>
</trkpt>
<trkpt lat="64.169204712" lon="-21.654659271">
<ele>123.035156</ele>
<time>2012-07-18T14:47:25Z</time>
<speed>0.650000</speed>
<extensions>
<speed>0.6</speed>
<temp>0.00</temp>
<bpm>0</bpm>
<rpm>0.00</rpm>
</extensions>
</trkpt>
<trkpt lat="64.169174194" lon="-21.654611588">
<ele>121.792969</ele>
<time>2012-07-18T14:47:30Z</time>
<speed>1.310000</speed>
<extensions>
<speed>1.3</speed>
<temp>0.00</temp>
<bpm>0</bpm>
<rpm>0.00</rpm>
</extensions>
</trkpt>
<trkpt lat="64.169120789" lon="-21.654611588">
<ele>119.810547</ele>
<time>2012-07-18T14:47:35Z</time>
<speed>0.930000</speed>
<extensions>
<speed>0.9</speed>
<temp>0.00</temp>
<bpm>0</bpm>
<rpm>0.00</rpm>
</extensions>
</trkpt>
<trkpt lat="64.169097900" lon="-21.654668808">
<ele>118.531250</ele>
<time>2012-07-18T14:47:40Z</time>
<speed>0.350000</speed>
<extensions>
<speed>0.3</speed>
<temp>0.00</temp>
<bpm>0</bpm>
<rpm>0.00</rpm>
</extensions>
</trkpt>
<trkpt lat="64.169075012" lon="-21.654695511">
<ele>117.435547</ele>
<time>2012-07-18T14:47:45Z</time>
<speed>0.900000</speed>
<extensions>
<speed>0.9</speed>
<temp>0.00</temp>
<bpm>0</bpm>
<rpm>0.00</rpm>
</extensions>
</trkpt>
<trkpt lat="64.169052124" lon="-21.654655457">
<ele>115.779297</ele>
<time>2012-07-18T14:47:50Z</time>
<speed>0.500000</speed>
<extensions>
<speed>0.5</speed>
<temp>0.00</temp>
<bpm>0</bpm>
<rpm>0.00</rpm>
</extensions>
</trkpt>
<trkpt lat="64.169052124" lon="-21.654760361">
<ele>114.462891</ele>
<time>2012-07-18T14:47:55Z</time>
<speed>0.960000</speed>
<extensions>
<speed>1.0</speed>
<temp>0.00</temp>
<bpm>0</bpm>
<rpm>0.00</rpm>
</extensions>
</trkpt>
<trkpt lat="64.169029236" lon="-21.654836655">
<ele>114.228516</ele>
<time>2012-07-18T14:48:00Z</time>
<speed>0.930000</speed>
<extensions>
<speed>0.9</speed>
<temp>0.00</temp>
<bpm>0</bpm>
<rpm>0.00</rpm>
</extensions>
</trkpt>
<trkpt lat="64.169006348" lon="-21.654891968">
<ele>113.304688</ele>
<time>2012-07-18T14:48:05Z</time>
<speed>0.490000</speed>
<extensions>
<speed>0.5</speed>
<temp>0.00</temp>
<bpm>0</bpm>
<rpm>0.00</rpm>
</extensions>
</trkpt>
<trkpt lat="64.168998718" lon="-21.654794693">
<ele>112.664063</ele>
<time>2012-07-18T14:48:10Z</time>
<speed>1.240000</speed>
<extensions>
<speed>1.2</speed>
<temp>0.00</temp>
<bpm>0</bpm>
<rpm>0.00</rpm>
</extensions>
</trkpt>
<trkpt lat="64.168983459" lon="-21.654699326">
<ele>111.962891</ele>
<time>2012-07-18T14:48:15Z</time>
<speed>0.840000</speed>
<extensions>
<speed>0.8</speed>
<temp>0.00</temp>
<bpm>0</bpm>
<rpm>0.00</rpm>
</extensions>
</trkpt>
<trkpt lat="64.168960571" lon="-21.654745102">
<ele>111.220703</ele>
<time>2012-07-18T14:48:20Z</time>
<speed>0.870000</speed>
<extensions>
<speed>0.9</speed>
<temp>0.00</temp>
<bpm>0</bpm>
<rpm>0.00</rpm>
</extensions>
</trkpt>
<trkpt lat="64.168975830" lon="-21.654827118">
<ele>110.625000</ele>
<time>2012-07-18T14:48:25Z</time>
<speed>1.180000</speed>
<extensions>
<speed>1.2</speed>
<temp>0.00</temp>
<bpm>0</bpm>
<rpm>0.00</rpm>
</extensions>
</trkpt>
<trkpt lat="64.168975830" lon="-21.654941559">
<ele>109.355469</ele>
<time>2012-07-18T14:48:30Z</time>
<speed>1.050000</speed>
<extensions>
<speed>1.0</speed>
<temp>0.00</temp>
<bpm>0</bpm>
<rpm>0.00</rpm>
</extensions>
</trkpt>
<trkpt lat="64.168960571" lon="-21.654989243">
<ele>109.134766</ele>
<time>2012-07-18T14:48:35Z</time>
<speed>0.090000</speed>
<extensions>
<speed>0.1</speed>
<temp>0.00</temp>
<bpm>0</bpm>
<rpm>0.00</rpm>
</extensions>
</trkpt>
<trkpt lat="64.168960571" lon="-21.654985428">
<ele>108.931641</ele>
<time>2012-07-18T14:48:40Z</time>
<speed>0.460000</speed>
<extensions>
<speed>0.5</speed>
<temp>0.00</temp>
<bpm>0</bpm>
<rpm>0.00</rpm>
</extensions>
</trkpt>
<trkpt lat="64.168952942" lon="-21.654981613">
<ele>108.656250</ele>
<time>2012-07-18T14:48:45Z</time>
<speed>0.140000</speed>
<extensions>
<speed>0.1</speed>
<temp>0.00</temp>
<bpm>0</bpm>
<rpm>0.00</rpm>
</extensions>
</trkpt>
<trkpt lat="64.168952942" lon="-21.654983521">
<ele>108.609375</ele>
<time>2012-07-18T14:48:50Z</time>
<speed>0.060000</speed>
<extensions>
<speed>0.1</speed>
<temp>0.00</temp>
<bpm>0</bpm>
<rpm>0.00</rpm>
</extensions>
</trkpt>
<trkpt lat="64.168952942" lon="-21.654983521">
<ele>108.619141</ele>
<time>2012-07-18T14:48:55Z</time>
<speed>0.020000</speed>
<extensions>
<speed>0.0</speed>
<temp>0.00</temp>
<bpm>0</bpm>
<rpm>0.00</rpm>
</extensions>
</trkpt>
<trkpt lat="64.168952942" lon="-21.654983521">
<ele>108.642578</ele>
<time>2012-07-18T14:49:00Z</time>
<extensions>
<speed>0.0</speed>
<temp>0.00</temp>
<bpm>0</bpm>
<rpm>0.00</rpm>
</extensions>
</trkpt>
<trkpt lat="64.168952942" lon="-21.654983521">
<ele>108.652344</ele>
<time>2012-07-18T14:49:05Z</time>
<speed>0.020000</speed>
<extensions>
<speed>0.0</speed>
<temp>0.00</temp>
<bpm>0</bpm>
<rpm>0.00</rpm>
</extensions>
</trkpt>
<trkpt lat="64.168952942" lon="-21.654983521">
<ele>108.666016</ele>
<time>2012-07-18T14:49:10Z</time>
<speed>0.030000</speed>
<extensions>
<speed>0.0</speed>
<temp>0.00</temp>
<bpm>0</bpm>
<rpm>0.00</rpm>
</extensions>
</trkpt>
<trkpt lat="64.168952942" lon="-21.654983521">
<ele>108.662109</ele>
<time>2012-07-18T14:49:15Z</time>
<speed>0.040000</speed>
<extensions>
<speed>0.0</speed>
<temp>0.00</temp>
<bpm>0</bpm>
<rpm>0.00</rpm>
</extensions>
</trkpt>
<trkpt lat="64.168952942" lon="-21.654983521">
<ele>108.675781</ele>
<time>2012-07-18T14:49:20Z</time>
<speed>0.020000</speed>
<extensions>
<speed>0.0</speed>
<temp>0.00</temp>
<bpm>0</bpm>
<rpm>0.00</rpm>
</extensions>
</trkpt>
<trkpt lat="64.168952942" lon="-21.654983521">
<ele>108.697266</ele>
<time>2012-07-18T14:49:25Z</time>
<speed>0.020000</speed>
<extensions>
<speed>0.0</speed>
<temp>0.00</temp>
<bpm>0</bpm>
<rpm>0.00</rpm>
</extensions>
</trkpt>
<trkpt lat="64.168952942" lon="-21.654983521">
<ele>108.716797</ele>
<time>2012-07-18T14:49:30Z</time>
<extensions>
<speed>0.0</speed>
<temp>0.00</temp>
<bpm>0</bpm>
<rpm>0.00</rpm>
</extensions>
</trkpt>
<trkpt lat="64.168952942" lon="-21.654983521">
<ele>108.724609</ele>
<time>2012-07-18T14:49:35Z</time>
<speed>0.010000</speed>
<extensions>
<speed>0.0</speed>
<temp>0.00</temp>
<bpm>0</bpm>
<rpm>0.00</rpm>
</extensions>
</trkpt>
<trkpt lat="64.168952942" lon="-21.654985428">
<ele>108.720703</ele>
<time>2012-07-18T14:49:40Z</time>
<speed>0.300000</speed>
<extensions>
<speed>0.3</speed>
<temp>0.00</temp>
<bpm>0</bpm>
<rpm>0.00</rpm>
</extensions>
</trkpt>
<trkpt lat="64.168968201" lon="-21.655008316">
<ele>108.792969</ele>
<time>2012-07-18T14:49:45Z</time>
<speed>0.150000</speed>
<extensions>
<speed>0.2</speed>
<temp>0.00</temp>
<bpm>0</bpm>
<rpm>0.00</rpm>
</extensions>
</trkpt>
<trkpt lat="64.168968201" lon="-21.655038834">
<ele>108.521484</ele>
<time>2012-07-18T14:49:50Z</time>
<speed>0.270000</speed>
<extensions>
<speed>0.3</speed>
<temp>0.00</temp>
<bpm>0</bpm>
<rpm>0.00</rpm>
</extensions>
</trkpt>
<trkpt lat="64.168968201" lon="-21.655042648">
<ele>108.525391</ele>
<time>2012-07-18T14:49:55Z</time>
<speed>0.020000</speed>
<extensions>
<speed>0.0</speed>
<temp>0.00</temp>
<bpm>0</bpm>
<rpm>0.00</rpm>
</extensions>
</trkpt>
<trkpt lat="64.168968201" lon="-21.655050278">
<ele>108.322266</ele>
<time>2012-07-18T14:50:00Z</time>
<speed>0.650000</speed>
<extensions>
<speed>0.6</speed>
<temp>0.00</temp>
<bpm>0</bpm>
<rpm>0.00</rpm>
</extensions>
</trkpt>
<trkpt lat="64.168998718" lon="-21.655242920">
<ele>107.285156</ele>
<time>2012-07-18T14:50:05Z</time>
<speed>2.410000</speed>
<extensions>
<speed>2.4</speed>
<temp>0.00</temp>
<bpm>0</bpm>
<rpm>0.00</rpm>
</extensions>
</trkpt>
<trkpt lat="64.169013977" lon="-21.655494690">
<ele>106.476563</ele>
<time>2012-07-18T14:50:10Z</time>
<speed>1.430000</speed>
<extensions>
<speed>1.4</speed>
<temp>0.00</temp>
<bpm>0</bpm>
<rpm>0.00</rpm>
</extensions>
</trkpt>
<trkpt lat="64.169006348" lon="-21.655551910">
<ele>106.097656</ele>
<time>2012-07-18T14:50:15Z</time>
<speed>0.040000</speed>
<extensions>
<speed>0.0</speed>
<temp>0.00</temp>
<bpm>0</bpm>
<rpm>0.00</rpm>
</extensions>
</trkpt>
<trkpt lat="64.169006348" lon="-21.655561447">
<ele>105.800781</ele>
<time>2012-07-18T14:50:20Z</time>
<extensions>
<speed>0.0</speed>
<temp>0.00</temp>
<bpm>0</bpm>
<rpm>0.00</rpm>
</extensions>
</trkpt>
<trkpt lat="64.169006348" lon="-21.655561447">
<ele>105.777344</ele>
<time>2012-07-18T14:50:25Z</time>
<extensions>
<speed>0.0</speed>
<temp>0.00</temp>
<bpm>0</bpm>
<rpm>0.00</rpm>
</extensions>
</trkpt>
<trkpt lat="64.169006348" lon="-21.655561447">
<ele>105.779297</ele>
<time>2012-07-18T14:50:30Z</time>
<speed>0.030000</speed>
<extensions>
<speed>0.0</speed>
<temp>0.00</temp>
<bpm>0</bpm>
<rpm>0.00</rpm>
</extensions>
</trkpt>
<trkpt lat="64.169006348" lon="-21.655561447">
<ele>105.769531</ele>
<time>2012-07-18T14:50:35Z</time>
<speed>0.010000</speed>
<extensions>
<speed>0.0</speed>
<temp>0.00</temp>
<bpm>0</bpm>
<rpm>0.00</rpm>
</extensions>
</trkpt>
<trkpt lat="64.169006348" lon="-21.655561447">
<ele>105.759766</ele>
<time>2012-07-18T14:50:40Z</time>
<speed>0.120000</speed>
<extensions>
<speed>0.1</speed>
<temp>0.00</temp>
<bpm>0</bpm>
<rpm>0.00</rpm>
</extensions>
</trkpt>
<trkpt lat="64.169006348" lon="-21.655561447">
<ele>105.794922</ele>
<time>2012-07-18T14:50:45Z</time>
<speed>1.610000</speed>
<extensions>
<speed>1.6</speed>
<temp>0.00</temp>
<bpm>0</bpm>
<rpm>0.00</rpm>
</extensions>
</trkpt>
<trkpt lat="64.168914795" lon="-21.655487061">
<ele>105.830078</ele>
<time>2012-07-18T14:50:50Z</time>
<speed>2.090000</speed>
<extensions>
<speed>2.1</speed>
<temp>0.00</temp>
<bpm>0</bpm>
<rpm>0.00</rpm>
</extensions>
</trkpt>
<trkpt lat="64.168815613" lon="-21.655467987">
<ele>105.119141</ele>
<time>2012-07-18T14:50:55Z</time>
<speed>1.770000</speed>
<extensions>
<speed>1.8</speed>
<temp>0.00</temp>
<bpm>0</bpm>
<rpm>0.00</rpm>
</extensions>
</trkpt>
<trkpt lat="64.168731689" lon="-21.655450821">
<ele>105.097656</ele>
<time>2012-07-18T14:51:00Z</time>
<speed>0.790000</speed>
<extensions>
<speed>0.8</speed>
<temp>0.00</temp>
<bpm>0</bpm>
<rpm>0.00</rpm>
</extensions>
</trkpt>
<trkpt lat="64.168693542" lon="-21.655464172">
<ele>104.476563</ele>
<time>2012-07-18T14:51:05Z</time>
<speed>0.850000</speed>
<extensions>
<speed>0.8</speed>
<temp>0.00</temp>
<bpm>0</bpm>
<rpm>0.00</rpm>
</extensions>
</trkpt>
<trkpt lat="64.168731689" lon="-21.655513763">
<ele>104.341797</ele>
<time>2012-07-18T14:51:10Z</time>
<speed>1.710000</speed>
<extensions>
<speed>1.7</speed>
<temp>0.00</temp>
<bpm>0</bpm>
<rpm>0.00</rpm>
</extensions>
</trkpt>
<trkpt lat="64.168777466" lon="-21.655475616">
<ele>104.568359</ele>
<time>2012-07-18T14:51:15Z</time>
<speed>0.860000</speed>
<extensions>
<speed>0.9</speed>
<temp>0.00</temp>
<bpm>0</bpm>
<rpm>0.00</rpm>
</extensions>
</trkpt>
<trkpt lat="64.168846130" lon="-21.655485153">
<ele>105.080078</ele>
<time>2012-07-18T14:51:20Z</time>
<speed>1.850000</speed>
<extensions>
<speed>1.8</speed>
<temp>0.00</temp>
<bpm>0</bpm>
<rpm>0.00</rpm>
</extensions>
</trkpt>
<trkpt lat="64.168922424" lon="-21.655494690">
<ele>108.312500</ele>
<time>2012-07-18T14:51:25Z</time>
<speed>1.210000</speed>
<extensions>
<speed>1.2</speed>
<temp>0.00</temp>
<bpm>0</bpm>
<rpm>0.00</rpm>
</extensions>
</trkpt>
<trkpt lat="64.168975830" lon="-21.655572891">
<ele>109.607422</ele>
<time>2012-07-18T14:51:30Z</time>
<speed>1.410000</speed>
<extensions>
<speed>1.4</speed>
<temp>0.00</temp>
<bpm>0</bpm>
<rpm>0.00</rpm>
</extensions>
</trkpt>
<trkpt lat="64.169021606" lon="-21.655641556">
<ele>110.935547</ele>
<time>2012-07-18T14:51:35Z</time>
<speed>1.120000</speed>
<extensions>
<speed>1.1</speed>
<temp>0.00</temp>
<bpm>0</bpm>
<rpm>0.00</rpm>
</extensions>
</trkpt>
<trkpt lat="64.169067383" lon="-21.655782700">
<ele>108.880859</ele>
<time>2012-07-18T14:51:40Z</time>
<speed>1.890000</speed>
<extensions>
<speed>1.9</speed>
<temp>0.00</temp>
<bpm>0</bpm>
<rpm>0.00</rpm>
</extensions>
</trkpt>
<trkpt lat="64.169097900" lon="-21.656007767">
<ele>106.970703</ele>
<time>2012-07-18T14:51:45Z</time>
<speed>2.880000</speed>
<extensions>
<speed>2.9</speed>
<temp>0.00</temp>
<bpm>0</bpm>
<rpm>0.00</rpm>
</extensions>
</trkpt>
<trkpt lat="64.169136047" lon="-21.656354904">
<ele>106.025391</ele>
<time>2012-07-18T14:51:50Z</time>
<speed>3.160000</speed>
<extensions>
<speed>3.2</speed>
<temp>0.00</temp>
<bpm>0</bpm>
<rpm>0.00</rpm>
</extensions>
</trkpt>
<trkpt lat="64.169158936" lon="-21.656728745">
<ele>103.968750</ele>
<time>2012-07-18T14:51:55Z</time>
<speed>4.470000</speed>
<extensions>
<speed>4.5</speed>
<temp>0.00</temp>
<bpm>0</bpm>
<rpm>0.00</rpm>
</extensions>
</trkpt>
<trkpt lat="64.169197083" lon="-21.657192230">
<ele>101.064453</ele>
<time>2012-07-18T14:52:00Z</time>
<speed>3.090000</speed>
<extensions>
<speed>3.1</speed>
<temp>0.00</temp>
<bpm>0</bpm>
<rpm>0.00</rpm>
</extensions>
</trkpt>
<trkpt lat="64.169212341" lon="-21.657440186">
<ele>100.335938</ele>
<time>2012-07-18T14:52:05Z</time>
<speed>1.550000</speed>
<extensions>
<speed>1.5</speed>
<temp>0.00</temp>
<bpm>0</bpm>
<rpm>0.00</rpm>
</extensions>
</trkpt>
<trkpt lat="64.169219971" lon="-21.657463074">
<ele>99.308594</ele>
<time>2012-07-18T14:52:10Z</time>
<speed>0.010000</speed>
<extensions>
<speed>0.0</speed>
<temp>0.00</temp>
<bpm>0</bpm>
<rpm>0.00</rpm>
</extensions>
</trkpt>
<trkpt lat="64.169219971" lon="-21.657463074">
<ele>99.376953</ele>
<time>2012-07-18T14:52:15Z</time>
<speed>0.040000</speed>
<extensions>
<speed>0.0</speed>
<temp>0.00</temp>
<bpm>0</bpm>
<rpm>0.00</rpm>
</extensions>
</trkpt>
<trkpt lat="64.169219971" lon="-21.657466888">
<ele>99.482422</ele>
<time>2012-07-18T14:52:20Z</time>
<speed>0.020000</speed>
<extensions>
<speed>0.0</speed>
<temp>0.00</temp>
<bpm>0</bpm>
<rpm>0.00</rpm>
</extensions>
</trkpt>
<trkpt lat="64.169219971" lon="-21.657468796">
<ele>99.515625</ele>
<time>2012-07-18T14:52:25Z</time>
<speed>0.010000</speed>
<extensions>
<speed>0.0</speed>
<temp>0.00</temp>
<bpm>0</bpm>
<rpm>0.00</rpm>
</extensions>
</trkpt>
<trkpt lat="64.169219971" lon="-21.657470703">
<ele>99.527344</ele>
<time>2012-07-18T14:52:30Z</time>
<speed>0.020000</speed>
<extensions>
<speed>0.0</speed>
<temp>0.00</temp>
<bpm>0</bpm>
<rpm>0.00</rpm>
</extensions>
</trkpt>
<trkpt lat="64.169219971" lon="-21.657476425">
<ele>99.511719</ele>
<time>2012-07-18T14:52:35Z</time>
<speed>0.080000</speed>
<extensions>
<speed>0.1</speed>
<temp>0.00</temp>
<bpm>0</bpm>
<rpm>0.00</rpm>
</extensions>
</trkpt>
<trkpt lat="64.169227600" lon="-21.657474518">
<ele>99.416016</ele>
<time>2012-07-18T14:52:40Z</time>
<speed>0.010000</speed>
<extensions>
<speed>0.0</speed>
<temp>0.00</temp>
<bpm>0</bpm>
<rpm>0.00</rpm>
</extensions>
</trkpt>
<trkpt lat="64.169219971" lon="-21.657472610">
<ele>99.496094</ele>
<time>2012-07-18T14:52:45Z</time>
<speed>0.080000</speed>
<extensions>
<speed>0.1</speed>
<temp>0.00</temp>
<bpm>0</bpm>
<rpm>0.00</rpm>
</extensions>
</trkpt>
<trkpt lat="64.169227600" lon="-21.657470703">
<ele>99.509766</ele>
<time>2012-07-18T14:52:50Z</time>
<speed>0.010000</speed>
<extensions>
<speed>0.0</speed>
<temp>0.00</temp>
<bpm>0</bpm>
<rpm>0.00</rpm>
</extensions>
</trkpt>
<trkpt lat="64.169227600" lon="-21.657470703">
<ele>99.500000</ele>
<time>2012-07-18T14:52:55Z</time>
<speed>0.010000</speed>
<extensions>
<speed>0.0</speed>
<temp>0.00</temp>
<bpm>0</bpm>
<rpm>0.00</rpm>
</extensions>
</trkpt>
<trkpt lat="64.169227600" lon="-21.657470703">
<ele>99.482422</ele>
<time>2012-07-18T14:53:00Z</time>
<speed>0.010000</speed>
<extensions>
<speed>0.0</speed>
<temp>0.00</temp>
<bpm>0</bpm>
<rpm>0.00</rpm>
</extensions>
</trkpt>
<trkpt lat="64.169227600" lon="-21.657470703">
<ele>99.480469</ele>
<time>2012-07-18T14:53:05Z</time>
<extensions>
<speed>0.0</speed>
<temp>0.00</temp>
<bpm>0</bpm>
<rpm>0.00</rpm>
</extensions>
</trkpt>
<trkpt lat="64.169227600" lon="-21.657489777">
<ele>99.470703</ele>
<time>2012-07-18T14:53:10Z</time>
<speed>1.570000</speed>
<extensions>
<speed>1.6</speed>
<temp>0.00</temp>
<bpm>0</bpm>
<rpm>0.00</rpm>
</extensions>
</trkpt>
<trkpt lat="64.169258118" lon="-21.657735825">
<ele>98.783203</ele>
<time>2012-07-18T14:53:15Z</time>
<speed>2.890000</speed>
<extensions>
<speed>2.9</speed>
<temp>0.00</temp>
<bpm>0</bpm>
<rpm>0.00</rpm>
</extensions>
</trkpt>
<trkpt lat="64.169311523" lon="-21.658008575">
<ele>98.375000</ele>
<time>2012-07-18T14:53:20Z</time>
<speed>3.060000</speed>
<extensions>
<speed>3.1</speed>
<temp>0.00</temp>
<bpm>0</bpm>
<rpm>0.00</rpm>
</extensions>
</trkpt>
<trkpt lat="64.169364929" lon="-21.658380508">
<ele>97.326172</ele>
<time>2012-07-18T14:53:25Z</time>
<speed>3.880000</speed>
<extensions>
<speed>3.9</speed>
<temp>0.00</temp>
<bpm>0</bpm>
<rpm>0.00</rpm>
</extensions>
</trkpt>
<trkpt lat="64.169418335" lon="-21.658748627">
<ele>96.488281</ele>
<time>2012-07-18T14:53:30Z</time>
<speed>3.410000</speed>
<extensions>
<speed>3.4</speed>
<temp>0.00</temp>
<bpm>0</bpm>
<rpm>0.00</rpm>
</extensions>
</trkpt>
<trkpt lat="64.169456482" lon="-21.659112930">
<ele>94.814453</ele>
<time>2012-07-18T14:53:35Z</time>
<speed>4.110000</speed>
<extensions>
<speed>4.1</speed>
<temp>0.00</temp>
<bpm>0</bpm>
<rpm>0.00</rpm>
</extensions>
</trkpt>
<trkpt lat="64.169555664" lon="-21.659643173">
<ele>92.693359</ele>
<time>2012-07-18T14:53:40Z</time>
<speed>4.890000</speed>
<extensions>
<speed>4.9</speed>
<temp>0.00</temp>
<bpm>0</bpm>
<rpm>0.00</rpm>
</extensions>
</trkpt>
<trkpt lat="64.169563293" lon="-21.659908295">
<ele>90.740234</ele>
<time>2012-07-18T14:53:45Z</time>
<speed>1.560000</speed>
<extensions>
<speed>1.6</speed>
<temp>0.00</temp>
<bpm>0</bpm>
<rpm>0.00</rpm>
</extensions>
</trkpt>
<trkpt lat="64.169601440" lon="-21.660108566">
<ele>89.248047</ele>
<time>2012-07-18T14:53:50Z</time>
<speed>2.220000</speed>
<extensions>
<speed>2.2</speed>
<temp>0.00</temp>
<bpm>0</bpm>
<rpm>0.00</rpm>
</extensions>
</trkpt>
<trkpt lat="64.169662476" lon="-21.660284042">
<ele>88.445313</ele>
<time>2012-07-18T14:53:55Z</time>
<speed>2.600000</speed>
<extensions>
<speed>2.6</speed>
<temp>0.00</temp>
<bpm>0</bpm>
<rpm>0.00</rpm>
</extensions>
</trkpt>
<trkpt lat="64.169723511" lon="-21.660625458">
<ele>87.207031</ele>
<time>2012-07-18T14:54:00Z</time>
<speed>4.220000</speed>
<extensions>
<speed>4.2</speed>
<temp>0.00</temp>
<bpm>0</bpm>
<rpm>0.00</rpm>
</extensions>
</trkpt>
<trkpt lat="64.169746399" lon="-21.661056519">
<ele>85.832031</ele>
<time>2012-07-18T14:54:05Z</time>
<speed>4.400000</speed>
<extensions>
<speed>4.4</speed>
<temp>0.00</temp>
<bpm>0</bpm>
<rpm>0.00</rpm>
</extensions>
</trkpt>
<trkpt lat="64.169784546" lon="-21.661483765">
<ele>84.917969</ele>
<time>2012-07-18T14:54:10Z</time>
<speed>4.050000</speed>
<extensions>
<speed>4.0</speed>
<temp>0.00</temp>
<bpm>0</bpm>
<rpm>0.00</rpm>
</extensions>
</trkpt>
<trkpt lat="64.169830322" lon="-21.661931992">
<ele>83.833984</ele>
<time>2012-07-18T14:54:15Z</time>
<speed>5.090000</speed>
<extensions>
<speed>5.1</speed>
<temp>0.00</temp>
<bpm>0</bpm>
<rpm>0.00</rpm>
</extensions>
</trkpt>
<trkpt lat="64.169937134" lon="-21.662490845">
<ele>82.468750</ele>
<time>2012-07-18T14:54:20Z</time>
<speed>6.410000</speed>
<extensions>
<speed>6.4</speed>
<temp>0.00</temp>
<bpm>0</bpm>
<rpm>0.00</rpm>
</extensions>
</trkpt>
<trkpt lat="64.170082092" lon="-21.663202286">
<ele>80.908203</ele>
<time>2012-07-18T14:54:25Z</time>
<speed>7.740000</speed>
<extensions>
<speed>7.7</speed>
<temp>0.00</temp>
<bpm>0</bpm>
<rpm>0.00</rpm>
</extensions>
</trkpt>
<trkpt lat="64.170188904" lon="-21.663927078">
<ele>79.226563</ele>
<time>2012-07-18T14:54:30Z</time>
<speed>6.700000</speed>
<extensions>
<speed>6.7</speed>
<temp>0.00</temp>
<bpm>0</bpm>
<rpm>0.00</rpm>
</extensions>
</trkpt>
<trkpt lat="64.170272827" lon="-21.664527893">
<ele>78.042969</ele>
<time>2012-07-18T14:54:35Z</time>
<speed>5.060000</speed>
<extensions>
<speed>5.1</speed>
<temp>0.00</temp>
<bpm>0</bpm>
<rpm>0.00</rpm>
</extensions>
</trkpt>
<trkpt lat="64.170303345" lon="-21.665018082">
<ele>77.244141</ele>
<time>2012-07-18T14:54:40Z</time>
<speed>5.480000</speed>
<extensions>
<speed>5.5</speed>
<temp>0.00</temp>
<bpm>0</bpm>
<rpm>0.00</rpm>
</extensions>
</trkpt>
<trkpt lat="64.170356750" lon="-21.665590286">
<ele>77.326172</ele>
<time>2012-07-18T14:54:45Z</time>
<speed>5.100000</speed>
<extensions>
<speed>5.1</speed>
<temp>0.00</temp>
<bpm>0</bpm>
<rpm>0.00</rpm>
</extensions>
</trkpt>
<trkpt lat="64.170433044" lon="-21.666118622">
<ele>75.746094</ele>
<time>2012-07-18T14:54:50Z</time>
<speed>6.000000</speed>
<extensions>
<speed>6.0</speed>
<temp>0.00</temp>
<bpm>0</bpm>
<rpm>0.00</rpm>
</extensions>
</trkpt>
<trkpt lat="64.170394897" lon="-21.666814804">
<ele>72.324219</ele>
<time>2012-07-18T14:54:55Z</time>
<speed>7.190000</speed>
<extensions>
<speed>7.2</speed>
<temp>0.00</temp>
<bpm>0</bpm>
<rpm>0.00</rpm>
</extensions>
</trkpt>
<trkpt lat="64.170478821" lon="-21.667465210">
<ele>72.152344</ele>
<time>2012-07-18T14:55:00Z</time>
<speed>5.950000</speed>
<extensions>
<speed>6.0</speed>
<temp>0.00</temp>
<bpm>0</bpm>
<rpm>0.00</rpm>
</extensions>
</trkpt>
<trkpt lat="64.170585632" lon="-21.667968750">
<ele>72.437500</ele>
<time>2012-07-18T14:55:05Z</time>
<speed>5.120000</speed>
<extensions>
<speed>5.1</speed>
<temp>0.00</temp>
<bpm>0</bpm>
<rpm>0.00</rpm>
</extensions>
</trkpt>
<trkpt lat="64.170677185" lon="-21.668567657">
<ele>73.070313</ele>
<time>2012-07-18T14:55:10Z</time>
<speed>5.330000</speed>
<extensions>
<speed>5.3</speed>
<temp>0.00</temp>
<bpm>0</bpm>
<rpm>0.00</rpm>
</extensions>
</trkpt>
<trkpt lat="64.170745850" lon="-21.668991089">
<ele>73.878906</ele>
<time>2012-07-18T14:55:15Z</time>
<speed>3.890000</speed>
<extensions>
<speed>3.9</speed>
<temp>0.00</temp>
<bpm>0</bpm>
<rpm>0.00</rpm>
</extensions>
</trkpt>
<trkpt lat="64.170799255" lon="-21.669338226">
<ele>74.611328</ele>
<time>2012-07-18T14:55:20Z</time>
<speed>2.770000</speed>
<extensions>
<speed>2.8</speed>
<temp>0.00</temp>
<bpm>0</bpm>
<rpm>0.00</rpm>
</extensions>
</trkpt>
<trkpt lat="64.170845032" lon="-21.669595718">
<ele>74.181641</ele>
<time>2012-07-18T14:55:25Z</time>
<speed>3.390000</speed>
<extensions>
<speed>3.4</speed>
<temp>0.00</temp>
<bpm>0</bpm>
<rpm>0.00</rpm>
</extensions>
</trkpt>
<trkpt lat="64.170936584" lon="-21.670040131">
<ele>73.070313</ele>
<time>2012-07-18T14:55:30Z</time>
<speed>6.350000</speed>
<extensions>
<speed>6.4</speed>
<temp>0.00</temp>
<bpm>0</bpm>
<rpm>0.00</rpm>
</extensions>
</trkpt>
<trkpt lat="64.171035767" lon="-21.670703888">
<ele>70.412109</ele>
<time>2012-07-18T14:55:35Z</time>
<speed>7.300000</speed>
<extensions>
<speed>7.3</speed>
<temp>0.00</temp>
<bpm>0</bpm>
<rpm>0.00</rpm>
</extensions>
</trkpt>
<trkpt lat="64.171096802" lon="-21.671379089">
<ele>67.667969</ele>
<time>2012-07-18T14:55:40Z</time>
<speed>5.810000</speed>
<extensions>
<speed>5.8</speed>
<temp>0.00</temp>
<bpm>0</bpm>
<rpm>0.00</rpm>
</extensions>
</trkpt>
<trkpt lat="64.171150208" lon="-21.671937943">
<ele>66.687500</ele>
<time>2012-07-18T14:55:45Z</time>
<speed>4.690000</speed>
<extensions>
<speed>4.7</speed>
<temp>0.00</temp>
<bpm>0</bpm>
<rpm>0.00</rpm>
</extensions>
</trkpt>
<trkpt lat="64.171195984" lon="-21.672348022">
<ele>65.355469</ele>
<time>2012-07-18T14:55:50Z</time>
<speed>3.170000</speed>
<extensions>
<speed>3.2</speed>
<temp>0.00</temp>
<bpm>0</bpm>
<rpm>0.00</rpm>
</extensions>
</trkpt>
<trkpt lat="64.171257019" lon="-21.672437668">
<ele>67.593750</ele>
<time>2012-07-18T14:55:55Z</time>
<speed>2.020000</speed>
<extensions>
<speed>2.0</speed>
<temp>0.00</temp>
<bpm>0</bpm>
<rpm>0.00</rpm>
</extensions>
</trkpt>
<trkpt lat="64.171325684" lon="-21.672342300">
<ele>69.847656</ele>
<time>2012-07-18T14:56:00Z</time>
<speed>1.640000</speed>
<extensions>
<speed>1.6</speed>
<temp>0.00</temp>
<bpm>0</bpm>
<rpm>0.00</rpm>
</extensions>
</trkpt>
<trkpt lat="64.171386719" lon="-21.672267914">
<ele>71.119141</ele>
<time>2012-07-18T14:56:05Z</time>
<speed>1.370000</speed>
<extensions>
<speed>1.4</speed>
<temp>0.00</temp>
<bpm>0</bpm>
<rpm>0.00</rpm>
</extensions>
</trkpt>
<trkpt lat="64.171463013" lon="-21.672174454">
<ele>73.773438</ele>
<time>2012-07-18T14:56:10Z</time>
<speed>2.070000</speed>
<extensions>
<speed>2.1</speed>
<temp>0.00</temp>
<bpm>0</bpm>
<rpm>0.00</rpm>
</extensions>
</trkpt>
<trkpt lat="64.171539307" lon="-21.672126770">
<ele>76.275391</ele>
<time>2012-07-18T14:56:15Z</time>
<speed>1.760000</speed>
<extensions>
<speed>1.8</speed>
<temp>0.00</temp>
<bpm>0</bpm>
<rpm>0.00</rpm>
</extensions>
</trkpt>
<trkpt lat="64.171615601" lon="-21.672075272">
<ele>78.916016</ele>
<time>2012-07-18T14:56:20Z</time>
<speed>2.090000</speed>
<extensions>
<speed>2.1</speed>
<temp>0.00</temp>
<bpm>0</bpm>
<rpm>0.00</rpm>
</extensions>
</trkpt>
<trkpt lat="64.171699524" lon="-21.672014236">
<ele>80.263672</ele>
<time>2012-07-18T14:56:25Z</time>
<speed>2.010000</speed>
<extensions>
<speed>2.0</speed>
<temp>0.00</temp>
<bpm>0</bpm>
<rpm>0.00</rpm>
</extensions>
</trkpt>
<trkpt lat="64.171806335" lon="-21.671945572">
<ele>81.861328</ele>
<time>2012-07-18T14:56:30Z</time>
<speed>2.670000</speed>
<extensions>
<speed>2.7</speed>
<temp>0.00</temp>
<bpm>0</bpm>
<rpm>0.00</rpm>
</extensions>
</trkpt>
<trkpt lat="64.171928406" lon="-21.671873093">
<ele>83.761719</ele>
<time>2012-07-18T14:56:35Z</time>
<speed>2.470000</speed>
<extensions>
<speed>2.5</speed>
<temp>0.00</temp>
<bpm>0</bpm>
<rpm>0.00</rpm>
</extensions>
</trkpt>
<trkpt lat="64.172019958" lon="-21.671804428">
<ele>84.464844</ele>
<time>2012-07-18T14:56:40Z</time>
<speed>2.570000</speed>
<extensions>
<speed>2.6</speed>
<temp>0.00</temp>
<bpm>0</bpm>
<rpm>0.00</rpm>
</extensions>
</trkpt>
<trkpt lat="64.172142029" lon="-21.671751022">
<ele>84.962891</ele>
<time>2012-07-18T14:56:45Z</time>
<speed>2.900000</speed>
<extensions>
<speed>2.9</speed>
<temp>0.00</temp>
<bpm>0</bpm>
<rpm>0.00</rpm>
</extensions>
</trkpt>
<trkpt lat="64.172271729" lon="-21.671623230">
<ele>84.638672</ele>
<time>2012-07-18T14:56:50Z</time>
<speed>3.190000</speed>
<extensions>
<speed>3.2</speed>
<temp>0.00</temp>
<bpm>0</bpm>
<rpm>0.00</rpm>
</extensions>
</trkpt>
<trkpt lat="64.172416687" lon="-21.671489716">
<ele>85.185547</ele>
<time>2012-07-18T14:56:55Z</time>
<speed>3.920000</speed>
<extensions>
<speed>3.9</speed>
<temp>0.00</temp>
<bpm>0</bpm>
<rpm>0.00</rpm>
</extensions>
</trkpt>
<trkpt lat="64.172569275" lon="-21.671316147">
<ele>85.671875</ele>
<time>2012-07-18T14:57:00Z</time>
<speed>3.950000</speed>
<extensions>
<speed>4.0</speed>
<temp>0.00</temp>
<bpm>0</bpm>
<rpm>0.00</rpm>
</extensions>
</trkpt>
<trkpt lat="64.172706604" lon="-21.671134949">
<ele>85.085938</ele>
<time>2012-07-18T14:57:05Z</time>
<speed>3.290000</speed>
<extensions>
<speed>3.3</speed>
<temp>0.00</temp>
<bpm>0</bpm>
<rpm>0.00</rpm>
</extensions>
</trkpt>
<trkpt lat="64.172843933" lon="-21.670934677">
<ele>84.849609</ele>
<time>2012-07-18T14:57:10Z</time>
<speed>3.790000</speed>
<extensions>
<speed>3.8</speed>
<temp>0.00</temp>
<bpm>0</bpm>
<rpm>0.00</rpm>
</extensions>
</trkpt>
<trkpt lat="64.172981262" lon="-21.670642853">
<ele>86.642578</ele>
<time>2012-07-18T14:57:15Z</time>
<speed>3.840000</speed>
<extensions>
<speed>3.8</speed>
<temp>0.00</temp>
<bpm>0</bpm>
<rpm>0.00</rpm>
</extensions>
</trkpt>
<trkpt lat="64.173103333" lon="-21.670358658">
<ele>88.585938</ele>
<time>2012-07-18T14:57:20Z</time>
<speed>4.100000</speed>
<extensions>
<speed>4.1</speed>
<temp>0.00</temp>
<bpm>0</bpm>
<rpm>0.00</rpm>
</extensions>
</trkpt>
<trkpt lat="64.173240662" lon="-21.670076370">
<ele>89.734375</ele>
<time>2012-07-18T14:57:25Z</time>
<speed>3.660000</speed>
<extensions>
<speed>3.7</speed>
<temp>0.00</temp>
<bpm>0</bpm>
<rpm>0.00</rpm>
</extensions>
</trkpt>
<trkpt lat="64.173355103" lon="-21.669809341">
<ele>89.929688</ele>
<time>2012-07-18T14:57:30Z</time>
<speed>3.510000</speed>
<extensions>
<speed>3.5</speed>
<temp>0.00</temp>
<bpm>0</bpm>
<rpm>0.00</rpm>
</extensions>
</trkpt>
<trkpt lat="64.173461914" lon="-21.669538498">
<ele>88.361328</ele>
<time>2012-07-18T14:57:35Z</time>
<speed>3.490000</speed>
<extensions>
<speed>3.5</speed>
<temp>0.00</temp>
<bpm>0</bpm>
<rpm>0.00</rpm>
</extensions>
</trkpt>
<trkpt lat="64.173561096" lon="-21.669330597">
<ele>87.990234</ele>
<time>2012-07-18T14:57:40Z</time>
<speed>3.120000</speed>
<extensions>
<speed>3.1</speed>
<temp>0.00</temp>
<bpm>0</bpm>
<rpm>0.00</rpm>
</extensions>
</trkpt>
<trkpt lat="64.173645020" lon="-21.669160843">
<ele>87.291016</ele>
<time>2012-07-18T14:57:45Z</time>
<speed>2.090000</speed>
<extensions>
<speed>2.1</speed>
<temp>0.00</temp>
<bpm>0</bpm>
<rpm>0.00</rpm>
</extensions>
</trkpt>
<trkpt lat="64.173774719" lon="-21.669044495">
<ele>87.945313</ele>
<time>2012-07-18T14:57:50Z</time>
<speed>3.040000</speed>
<extensions>
<speed>3.0</speed>
<temp>0.00</temp>
<bpm>0</bpm>
<rpm>0.00</rpm>
</extensions>
</trkpt>
<trkpt lat="64.173919678" lon="-21.668895721">
<ele>87.720703</ele>
<time>2012-07-18T14:57:55Z</time>
<speed>3.730000</speed>
<extensions>
<speed>3.7</speed>
<temp>0.00</temp>
<bpm>0</bpm>
<rpm>0.00</rpm>
</extensions>
</trkpt>
<trkpt lat="64.174064636" lon="-21.668725967">
<ele>87.214844</ele>
<time>2012-07-18T14:58:00Z</time>
<speed>3.880000</speed>
<extensions>
<speed>3.9</speed>
<temp>0.00</temp>
<bpm>0</bpm>
<rpm>0.00</rpm>
</extensions>
</trkpt>
<trkpt lat="64.174217224" lon="-21.668621063">
<ele>88.376953</ele>
<time>2012-07-18T14:58:05Z</time>
<speed>3.130000</speed>
<extensions>
<speed>3.1</speed>
<temp>0.00</temp>
<bpm>0</bpm>
<rpm>0.00</rpm>
</extensions>
</trkpt>
<trkpt lat="64.174331665" lon="-21.668518066">
<ele>89.320313</ele>
<time>2012-07-18T14:58:10Z</time>
<speed>2.780000</speed>
<extensions>
<speed>2.8</speed>
<temp>0.00</temp>
<bpm>0</bpm>
<rpm>0.00</rpm>
</extensions>
</trkpt>
<trkpt lat="64.174446106" lon="-21.668436050">
<ele>88.304688</ele>
<time>2012-07-18T14:58:15Z</time>
<speed>2.190000</speed>
<extensions>
<speed>2.2</speed>
<temp>0.00</temp>
<bpm>0</bpm>
<rpm>0.00</rpm>
</extensions>
</trkpt>
<trkpt lat="64.174560547" lon="-21.668378830">
<ele>87.863281</ele>
<time>2012-07-18T14:58:20Z</time>
<speed>2.510000</speed>
<extensions>
<speed>2.5</speed>
<temp>0.00</temp>
<bpm>0</bpm>
<rpm>0.00</rpm>
</extensions>
</trkpt>
<trkpt lat="64.174720764" lon="-21.668287277">
<ele>91.687500</ele>
<time>2012-07-18T14:58:25Z</time>
<speed>3.030000</speed>
<extensions>
<speed>3.0</speed>
<temp>0.00</temp>
<bpm>0</bpm>
<rpm>0.00</rpm>
</extensions>
</trkpt>
<trkpt lat="64.174850464" lon="-21.668178558">
<ele>94.492188</ele>
<time>2012-07-18T14:58:30Z</time>
<speed>3.120000</speed>
<extensions>
<speed>3.1</speed>
<temp>0.00</temp>
<bpm>0</bpm>
<rpm>0.00</rpm>
</extensions>
</trkpt>
<trkpt lat="64.174972534" lon="-21.668066025">
<ele>94.945313</ele>
<time>2012-07-18T14:58:35Z</time>
<speed>2.710000</speed>
<extensions>
<speed>2.7</speed>
<temp>0.00</temp>
<bpm>0</bpm>
<rpm>0.00</rpm>
</extensions>
</trkpt>
<trkpt lat="64.175109863" lon="-21.667970657">
<ele>95.574219</ele>
<time>2012-07-18T14:58:40Z</time>
<speed>3.100000</speed>
<extensions>
<speed>3.1</speed>
<temp>0.00</temp>
<bpm>0</bpm>
<rpm>0.00</rpm>
</extensions>
</trkpt>
<trkpt lat="64.175239563" lon="-21.667827606">
<ele>96.355469</ele>
<time>2012-07-18T14:58:45Z</time>
<speed>3.380000</speed>
<extensions>
<speed>3.4</speed>
<temp>0.00</temp>
<bpm>0</bpm>
<rpm>0.00</rpm>
</extensions>
</trkpt>
<trkpt lat="64.175399780" lon="-21.667694092">
<ele>96.062500</ele>
<time>2012-07-18T14:58:50Z</time>
<speed>3.470000</speed>
<extensions>
<speed>3.5</speed>
<temp>0.00</temp>
<bpm>0</bpm>
<rpm>0.00</rpm>
</extensions>
</trkpt>
<trkpt lat="64.175575256" lon="-21.667600632">
<ele>96.767578</ele>
<time>2012-07-18T14:58:55Z</time>
<speed>4.060000</speed>
<extensions>
<speed>4.1</speed>
<temp>0.00</temp>
<bpm>0</bpm>
<rpm>0.00</rpm>
</extensions>
</trkpt>
<trkpt lat="64.175758362" lon="-21.667547226">
<ele>97.943359</ele>
<time>2012-07-18T14:59:00Z</time>
<speed>3.860000</speed>
<extensions>
<speed>3.9</speed>
<temp>0.00</temp>
<bpm>0</bpm>
<rpm>0.00</rpm>
</extensions>
</trkpt>
<trkpt lat="64.175910950" lon="-21.667573929">
<ele>98.808594</ele>
<time>2012-07-18T14:59:05Z</time>
<speed>3.220000</speed>
<extensions>
<speed>3.2</speed>
<temp>0.00</temp>
<bpm>0</bpm>
<rpm>0.00</rpm>
</extensions>
</trkpt>
<trkpt lat="64.175987244" lon="-21.667680740">
<ele>96.419922</ele>
<time>2012-07-18T14:59:10Z</time>
<speed>1.270000</speed>
<extensions>
<speed>1.3</speed>
<temp>0.00</temp>
<bpm>0</bpm>
<rpm>0.00</rpm>
</extensions>
</trkpt>
<trkpt lat="64.176002502" lon="-21.667697906">
<ele>96.623047</ele>
<time>2012-07-18T14:59:15Z</time>
<speed>0.020000</speed>
<extensions>
<speed>0.0</speed>
<temp>0.00</temp>
<bpm>0</bpm>
<rpm>0.00</rpm>
</extensions>
</trkpt>
<trkpt lat="64.176002502" lon="-21.667697906">
<ele>96.660156</ele>
<time>2012-07-18T14:59:20Z</time>
<extensions>
<speed>0.0</speed>
<temp>0.00</temp>
<bpm>0</bpm>
<rpm>0.00</rpm>
</extensions>
</trkpt>
<trkpt lat="64.176002502" lon="-21.667697906">
<ele>96.648438</ele>
<time>2012-07-18T14:59:25Z</time>
<extensions>
<speed>0.0</speed>
<temp>0.00</temp>
<bpm>0</bpm>
<rpm>0.00</rpm>
</extensions>
</trkpt>
<trkpt lat="64.176002502" lon="-21.667695999">
<ele>96.613281</ele>
<time>2012-07-18T14:59:30Z</time>
<speed>0.010000</speed>
<extensions>
<speed>0.0</speed>
<temp>0.00</temp>
<bpm>0</bpm>
<rpm>0.00</rpm>
</extensions>
</trkpt>
<trkpt lat="64.176002502" lon="-21.667695999">
<ele>96.583984</ele>
<time>2012-07-18T14:59:35Z</time>
<extensions>
<speed>0.0</speed>
<temp>0.00</temp>
<bpm>0</bpm>
<rpm>0.00</rpm>
</extensions>
</trkpt>
<trkpt lat="64.176002502" lon="-21.667695999">
<ele>96.509766</ele>
<time>2012-07-18T14:59:40Z</time>
<speed>0.010000</speed>
<extensions>
<speed>0.0</speed>
<temp>0.00</temp>
<bpm>0</bpm>
<rpm>0.00</rpm>
</extensions>
</trkpt>
<trkpt lat="64.176002502" lon="-21.667695999">
<ele>96.572266</ele>
<time>2012-07-18T14:59:45Z</time>
<speed>0.050000</speed>
<extensions>
<speed>0.1</speed>
<temp>0.00</temp>
<bpm>0</bpm>
<rpm>0.00</rpm>
</extensions>
</trkpt>
<trkpt lat="64.176002502" lon="-21.667697906">
<ele>96.578125</ele>
<time>2012-07-18T14:59:50Z</time>
<speed>0.010000</speed>
<extensions>
<speed>0.0</speed>
<temp>0.00</temp>
<bpm>0</bpm>
<rpm>0.00</rpm>
</extensions>
</trkpt>
<trkpt lat="64.176002502" lon="-21.667697906">
<ele>96.546875</ele>
<time>2012-07-18T14:59:55Z</time>
<speed>0.010000</speed>
<extensions>
<speed>0.0</speed>
<temp>0.00</temp>
<bpm>0</bpm>
<rpm>0.00</rpm>
</extensions>
</trkpt>
<trkpt lat="64.176002502" lon="-21.667697906">
<ele>96.523438</ele>
<time>2012-07-18T15:00:00Z</time>
<extensions>
<speed>0.0</speed>
<temp>0.00</temp>
<bpm>0</bpm>
<rpm>0.00</rpm>
</extensions>
</trkpt>
<trkpt lat="64.176002502" lon="-21.667697906">
<ele>96.505859</ele>
<time>2012-07-18T15:00:05Z</time>
<speed>0.010000</speed>
<extensions>
<speed>0.0</speed>
<temp>0.00</temp>
<bpm>0</bpm>
<rpm>0.00</rpm>
</extensions>
</trkpt>
<trkpt lat="64.176002502" lon="-21.667697906">
<ele>96.476563</ele>
<time>2012-07-18T15:00:10Z</time>
<speed>0.020000</speed>
<extensions>
<speed>0.0</speed>
<temp>0.00</temp>
<bpm>0</bpm>
<rpm>0.00</rpm>
</extensions>
</trkpt>
<trkpt lat="64.176025391" lon="-21.667745590">
<ele>96.041016</ele>
<time>2012-07-18T15:00:15Z</time>
<speed>2.050000</speed>
<extensions>
<speed>2.1</speed>
<temp>0.00</temp>
<bpm>0</bpm>
<rpm>0.00</rpm>
</extensions>
</trkpt>
<trkpt lat="64.176177979" lon="-21.667919159">
<ele>94.300781</ele>
<time>2012-07-18T15:00:20Z</time>
<speed>5.560000</speed>
<extensions>
<speed>5.6</speed>
<temp>0.00</temp>
<bpm>0</bpm>
<rpm>0.00</rpm>
</extensions>
</trkpt>
<trkpt lat="64.176460266" lon="-21.668298721">
<ele>91.287109</ele>
<time>2012-07-18T15:00:25Z</time>
<speed>7.730000</speed>
<extensions>
<speed>7.7</speed>
<temp>0.00</temp>
<bpm>0</bpm>
<rpm>0.00</rpm>
</extensions>
</trkpt>
<trkpt lat="64.176773071" lon="-21.668685913">
<ele>87.195313</ele>
<time>2012-07-18T15:00:30Z</time>
<speed>8.010000</speed>
<extensions>
<speed>8.0</speed>
<temp>0.00</temp>
<bpm>0</bpm>
<rpm>0.00</rpm>
</extensions>
</trkpt>
<trkpt lat="64.177093506" lon="-21.669002533">
<ele>84.429688</ele>
<time>2012-07-18T15:00:35Z</time>
<speed>6.850000</speed>
<extensions>
<speed>6.8</speed>
<temp>0.00</temp>
<bpm>0</bpm>
<rpm>0.00</rpm>
</extensions>
</trkpt>
<trkpt lat="64.177337646" lon="-21.669170380">
<ele>81.042969</ele>
<time>2012-07-18T15:00:40Z</time>
<speed>5.150000</speed>
<extensions>
<speed>5.2</speed>
<temp>0.00</temp>
<bpm>0</bpm>
<rpm>0.00</rpm>
</extensions>
</trkpt>
<trkpt lat="64.177543640" lon="-21.669218063">
<ele>78.531250</ele>
<time>2012-07-18T15:00:45Z</time>
<speed>3.530000</speed>
<extensions>
<speed>3.5</speed>
<temp>0.00</temp>
<bpm>0</bpm>
<rpm>0.00</rpm>
</extensions>
</trkpt>
<trkpt lat="64.177734375" lon="-21.669191360">
<ele>77.050781</ele>
<time>2012-07-18T15:00:50Z</time>
<speed>5.100000</speed>
<extensions>
<speed>5.1</speed>
<temp>0.00</temp>
<bpm>0</bpm>
<rpm>0.00</rpm>
</extensions>
</trkpt>
<trkpt lat="64.177970886" lon="-21.669155121">
<ele>74.076172</ele>
<time>2012-07-18T15:00:55Z</time>
<speed>5.310000</speed>
<extensions>
<speed>5.3</speed>
<temp>0.00</temp>
<bpm>0</bpm>
<rpm>0.00</rpm>
</extensions>
</trkpt>
<trkpt lat="64.178192139" lon="-21.669113159">
<ele>71.832031</ele>
<time>2012-07-18T15:01:00Z</time>
<speed>4.320000</speed>
<extensions>
<speed>4.3</speed>
<temp>0.00</temp>
<bpm>0</bpm>
<rpm>0.00</rpm>
</extensions>
</trkpt>
<trkpt lat="64.178314209" lon="-21.668859482">
<ele>70.035156</ele>
<time>2012-07-18T15:01:05Z</time>
<speed>3.720000</speed>
<extensions>
<speed>3.7</speed>
<temp>0.00</temp>
<bpm>0</bpm>
<rpm>0.00</rpm>
</extensions>
</trkpt>
<trkpt lat="64.178352356" lon="-21.668613434">
<ele>69.890625</ele>
<time>2012-07-18T15:01:10Z</time>
<speed>2.650000</speed>
<extensions>
<speed>2.6</speed>
<temp>0.00</temp>
<bpm>0</bpm>
<rpm>0.00</rpm>
</extensions>
</trkpt>
<trkpt lat="64.178398132" lon="-21.668357849">
<ele>69.357422</ele>
<time>2012-07-18T15:01:15Z</time>
<speed>1.840000</speed>
<extensions>
<speed>1.8</speed>
<temp>0.00</temp>
<bpm>0</bpm>
<rpm>0.00</rpm>
</extensions>
</trkpt>
<trkpt lat="64.178405762" lon="-21.668331146">
<ele>69.173828</ele>
<time>2012-07-18T15:01:20Z</time>
<speed>0.070000</speed>
<extensions>
<speed>0.1</speed>
<temp>0.00</temp>
<bpm>0</bpm>
<rpm>0.00</rpm>
</extensions>
</trkpt>
<trkpt lat="64.178405762" lon="-21.668329239">
<ele>69.185547</ele>
<time>2012-07-18T15:01:25Z</time>
<speed>0.060000</speed>
<extensions>
<speed>0.1</speed>
<temp>0.00</temp>
<bpm>0</bpm>
<rpm>0.00</rpm>
</extensions>
</trkpt>
<trkpt lat="64.178405762" lon="-21.668321609">
<ele>69.158203</ele>
<time>2012-07-18T15:01:30Z</time>
<speed>1.170000</speed>
<extensions>
<speed>1.2</speed>
<temp>0.00</temp>
<bpm>0</bpm>
<rpm>0.00</rpm>
</extensions>
</trkpt>
<trkpt lat="64.178428650" lon="-21.668090820">
<ele>68.728516</ele>
<time>2012-07-18T15:01:35Z</time>
<speed>3.110000</speed>
<extensions>
<speed>3.1</speed>
<temp>0.00</temp>
<bpm>0</bpm>
<rpm>0.00</rpm>
</extensions>
</trkpt>
<trkpt lat="64.178466797" lon="-21.667673111">
<ele>67.751953</ele>
<time>2012-07-18T15:01:40Z</time>
<speed>4.870000</speed>
<extensions>
<speed>4.9</speed>
<temp>0.00</temp>
<bpm>0</bpm>
<rpm>0.00</rpm>
</extensions>
</trkpt>
<trkpt lat="64.178497314" lon="-21.667154312">
<ele>65.218750</ele>
<time>2012-07-18T15:01:45Z</time>
<speed>5.370000</speed>
<extensions>
<speed>5.4</speed>
<temp>0.00</temp>
<bpm>0</bpm>
<rpm>0.00</rpm>
</extensions>
</trkpt>
<trkpt lat="64.178535461" lon="-21.666603088">
<ele>64.597656</ele>
<time>2012-07-18T15:01:50Z</time>
<speed>5.190000</speed>
<extensions>
<speed>5.2</speed>
<temp>0.00</temp>
<bpm>0</bpm>
<rpm>0.00</rpm>
</extensions>
</trkpt>
<trkpt lat="64.178565979" lon="-21.666078568">
<ele>63.666016</ele>
<time>2012-07-18T15:01:55Z</time>
<speed>5.110000</speed>
<extensions>
<speed>5.1</speed>
<temp>0.00</temp>
<bpm>0</bpm>
<rpm>0.00</rpm>
</extensions>
</trkpt>
<trkpt lat="64.178604126" lon="-21.665588379">
<ele>62.683594</ele>
<time>2012-07-18T15:02:00Z</time>
<speed>4.820000</speed>
<extensions>
<speed>4.8</speed>
<temp>0.00</temp>
<bpm>0</bpm>
<rpm>0.00</rpm>
</extensions>
</trkpt>
<trkpt lat="64.178642273" lon="-21.665060043">
<ele>62.090820</ele>
<time>2012-07-18T15:02:05Z</time>
<speed>5.140000</speed>
<extensions>
<speed>5.1</speed>
<temp>0.00</temp>
<bpm>0</bpm>
<rpm>0.00</rpm>
</extensions>
</trkpt>
<trkpt lat="64.178688049" lon="-21.664569855">
<ele>62.267578</ele>
<time>2012-07-18T15:02:10Z</time>
<speed>4.330000</speed>
<extensions>
<speed>4.3</speed>
<temp>0.00</temp>
<bpm>0</bpm>
<rpm>0.00</rpm>
</extensions>
</trkpt>
<trkpt lat="64.178733826" lon="-21.664142609">
<ele>62.899414</ele>
<time>2012-07-18T15:02:15Z</time>
<speed>4.660000</speed>
<extensions>
<speed>4.7</speed>
<temp>0.00</temp>
<bpm>0</bpm>
<rpm>0.00</rpm>
</extensions>
</trkpt>
<trkpt lat="64.178787231" lon="-21.663677216">
<ele>63.727539</ele>
<time>2012-07-18T15:02:20Z</time>
<speed>5.100000</speed>
<extensions>
<speed>5.1</speed>
<temp>0.00</temp>
<bpm>0</bpm>
<rpm>0.00</rpm>
</extensions>
</trkpt>
<trkpt lat="64.178840637" lon="-21.663129807">
<ele>64.265625</ele>
<time>2012-07-18T15:02:25Z</time>
<speed>5.800000</speed>
<extensions>
<speed>5.8</speed>
<temp>0.00</temp>
<bpm>0</bpm>
<rpm>0.00</rpm>
</extensions>
</trkpt>
<trkpt lat="64.178894043" lon="-21.662544250">
<ele>64.033203</ele>
<time>2012-07-18T15:02:30Z</time>
<speed>5.910000</speed>
<extensions>
<speed>5.9</speed>
<temp>0.00</temp>
<bpm>0</bpm>
<rpm>0.00</rpm>
</extensions>
</trkpt>
<trkpt lat="64.178962708" lon="-21.661903381">
<ele>64.808594</ele>
<time>2012-07-18T15:02:35Z</time>
<speed>6.090000</speed>
<extensions>
<speed>6.1</speed>
<temp>0.00</temp>
<bpm>0</bpm>
<rpm>0.00</rpm>
</extensions>
</trkpt>
<trkpt lat="64.179016113" lon="-21.661352158">
<ele>65.042969</ele>
<time>2012-07-18T15:02:40Z</time>
<speed>4.800000</speed>
<extensions>
<speed>4.8</speed>
<temp>0.00</temp>
<bpm>0</bpm>
<rpm>0.00</rpm>
</extensions>
</trkpt>
<trkpt lat="64.179061890" lon="-21.660907745">
<ele>65.496094</ele>
<time>2012-07-18T15:02:45Z</time>
<speed>4.350000</speed>
<extensions>
<speed>4.3</speed>
<temp>0.00</temp>
<bpm>0</bpm>
<rpm>0.00</rpm>
</extensions>
</trkpt>
<trkpt lat="64.179107666" lon="-21.660476685">
<ele>64.716797</ele>
<time>2012-07-18T15:02:50Z</time>
<speed>4.330000</speed>
<extensions>
<speed>4.3</speed>
<temp>0.00</temp>
<bpm>0</bpm>
<rpm>0.00</rpm>
</extensions>
</trkpt>
<trkpt lat="64.179145813" lon="-21.660045624">
<ele>64.843750</ele>
<time>2012-07-18T15:02:55Z</time>
<speed>4.210000</speed>
<extensions>
<speed>4.2</speed>
<temp>0.00</temp>
<bpm>0</bpm>
<rpm>0.00</rpm>
</extensions>
</trkpt>
<trkpt lat="64.179183960" lon="-21.659633636">
<ele>64.599609</ele>
<time>2012-07-18T15:03:00Z</time>
<speed>3.890000</speed>
<extensions>
<speed>3.9</speed>
<temp>0.00</temp>
<bpm>0</bpm>
<rpm>0.00</rpm>
</extensions>
</trkpt>
<trkpt lat="64.179214478" lon="-21.659246445">
<ele>64.486328</ele>
<time>2012-07-18T15:03:05Z</time>
<speed>3.780000</speed>
<extensions>
<speed>3.8</speed>
<temp>0.00</temp>
<bpm>0</bpm>
<rpm>0.00</rpm>
</extensions>
</trkpt>
<trkpt lat="64.179244995" lon="-21.658887863">
<ele>64.480469</ele>
<time>2012-07-18T15:03:10Z</time>
<speed>4.140000</speed>
<extensions>
<speed>4.1</speed>
<temp>0.00</temp>
<bpm>0</bpm>
<rpm>0.00</rpm>
</extensions>
</trkpt>
<trkpt lat="64.179290771" lon="-21.658466339">
<ele>64.878906</ele>
<time>2012-07-18T15:03:15Z</time>
<speed>4.210000</speed>
<extensions>
<speed>4.2</speed>
<temp>0.00</temp>
<bpm>0</bpm>
<rpm>0.00</rpm>
</extensions>
</trkpt>
<trkpt lat="64.179321289" lon="-21.658039093">
<ele>64.785156</ele>
<time>2012-07-18T15:03:20Z</time>
<speed>4.120000</speed>
<extensions>
<speed>4.1</speed>
<temp>0.00</temp>
<bpm>0</bpm>
<rpm>0.00</rpm>
</extensions>
</trkpt>
<trkpt lat="64.179374695" lon="-21.657602310">
<ele>65.431641</ele>
<time>2012-07-18T15:03:25Z</time>
<speed>4.410000</speed>
<extensions>
<speed>4.4</speed>
<temp>0.00</temp>
<bpm>0</bpm>
<rpm>0.00</rpm>
</extensions>
</trkpt>
<trkpt lat="64.179420471" lon="-21.657159805">
<ele>65.974609</ele>
<time>2012-07-18T15:03:30Z</time>
<speed>4.190000</speed>
<extensions>
<speed>4.2</speed>
<temp>0.00</temp>
<bpm>0</bpm>
<rpm>0.00</rpm>
</extensions>
</trkpt>
<trkpt lat="64.179458618" lon="-21.656780243">
<ele>66.158203</ele>
<time>2012-07-18T15:03:35Z</time>
<speed>3.640000</speed>
<extensions>
<speed>3.6</speed>
<temp>0.00</temp>
<bpm>0</bpm>
<rpm>0.00</rpm>
</extensions>
</trkpt>
<trkpt lat="64.179481506" lon="-21.656406403">
<ele>65.789063</ele>
<time>2012-07-18T15:03:40Z</time>
<speed>3.660000</speed>
<extensions>
<speed>3.7</speed>
<temp>0.00</temp>
<bpm>0</bpm>
<rpm>0.00</rpm>
</extensions>
</trkpt>
<trkpt lat="64.179512024" lon="-21.656026840">
<ele>65.091797</ele>
<time>2012-07-18T15:03:45Z</time>
<speed>3.780000</speed>
<extensions>
<speed>3.8</speed>
<temp>0.00</temp>
<bpm>0</bpm>
<rpm>0.00</rpm>
</extensions>
</trkpt>
<trkpt lat="64.179542542" lon="-21.655632019">
<ele>63.821289</ele>
<time>2012-07-18T15:03:50Z</time>
<speed>3.480000</speed>
<extensions>
<speed>3.5</speed>
<temp>0.00</temp>
<bpm>0</bpm>
<rpm>0.00</rpm>
</extensions>
</trkpt>
<trkpt lat="64.179565430" lon="-21.655286789">
<ele>63.121094</ele>
<time>2012-07-18T15:03:55Z</time>
<speed>2.310000</speed>
<extensions>
<speed>2.3</speed>
<temp>0.00</temp>
<bpm>0</bpm>
<rpm>0.00</rpm>
</extensions>
</trkpt>
<trkpt lat="64.179573059" lon="-21.655176163">
<ele>63.388672</ele>
<time>2012-07-18T15:04:00Z</time>
<speed>0.250000</speed>
<extensions>
<speed>0.2</speed>
<temp>0.00</temp>
<bpm>0</bpm>
<rpm>0.00</rpm>
</extensions>
</trkpt>
<trkpt lat="64.179573059" lon="-21.655172348">
<ele>63.382813</ele>
<time>2012-07-18T15:04:05Z</time>
<speed>0.020000</speed>
<extensions>
<speed>0.0</speed>
<temp>0.00</temp>
<bpm>0</bpm>
<rpm>0.00</rpm>
</extensions>
</trkpt>
<trkpt lat="64.179573059" lon="-21.655170441">
<ele>63.479492</ele>
<time>2012-07-18T15:04:10Z</time>
<speed>0.010000</speed>
<extensions>
<speed>0.0</speed>
<temp>0.00</temp>
<bpm>0</bpm>
<rpm>0.00</rpm>
</extensions>
</trkpt>
<trkpt lat="64.179565430" lon="-21.655170441">
<ele>63.458984</ele>
<time>2012-07-18T15:04:15Z</time>
<speed>0.030000</speed>
<extensions>
<speed>0.0</speed>
<temp>0.00</temp>
<bpm>0</bpm>
<rpm>0.00</rpm>
</extensions>
</trkpt>
<trkpt lat="64.179565430" lon="-21.655172348">
<ele>63.413086</ele>
<time>2012-07-18T15:04:20Z</time>
<speed>0.160000</speed>
<extensions>
<speed>0.2</speed>
<temp>0.00</temp>
<bpm>0</bpm>
<rpm>0.00</rpm>
</extensions>
</trkpt>
<trkpt lat="64.179573059" lon="-21.655174255">
<ele>63.291992</ele>
<time>2012-07-18T15:04:25Z</time>
<speed>0.020000</speed>
<extensions>
<speed>0.0</speed>
<temp>0.00</temp>
<bpm>0</bpm>
<rpm>0.00</rpm>
</extensions>
</trkpt>
<trkpt lat="64.179565430" lon="-21.655181885">
<ele>62.958008</ele>
<time>2012-07-18T15:04:30Z</time>
<speed>0.130000</speed>
<extensions>
<speed>0.1</speed>
<temp>0.00</temp>
<bpm>0</bpm>
<rpm>0.00</rpm>
</extensions>
</trkpt>
<trkpt lat="64.179565430" lon="-21.655185699">
<ele>62.794922</ele>
<time>2012-07-18T15:04:35Z</time>
<speed>0.030000</speed>
<extensions>
<speed>0.0</speed>
<temp>0.00</temp>
<bpm>0</bpm>
<rpm>0.00</rpm>
</extensions>
</trkpt>
<trkpt lat="64.179565430" lon="-21.655185699">
<ele>62.750977</ele>
<time>2012-07-18T15:04:40Z</time>
<speed>0.030000</speed>
<extensions>
<speed>0.0</speed>
<temp>0.00</temp>
<bpm>0</bpm>
<rpm>0.00</rpm>
</extensions>
</trkpt>
<trkpt lat="64.179565430" lon="-21.655185699">
<ele>62.812500</ele>
<time>2012-07-18T15:04:45Z</time>
<speed>0.020000</speed>
<extensions>
<speed>0.0</speed>
<temp>0.00</temp>
<bpm>0</bpm>
<rpm>0.00</rpm>
</extensions>
</trkpt>
<trkpt lat="64.179565430" lon="-21.655185699">
<ele>62.816406</ele>
<time>2012-07-18T15:04:50Z</time>
<extensions>
<speed>0.0</speed>
<temp>0.00</temp>
<bpm>0</bpm>
<rpm>0.00</rpm>
</extensions>
</trkpt>
<trkpt lat="64.179565430" lon="-21.655185699">
<ele>62.809570</ele>
<time>2012-07-18T15:04:55Z</time>
<speed>0.010000</speed>
<extensions>
<speed>0.0</speed>
<temp>0.00</temp>
<bpm>0</bpm>
<rpm>0.00</rpm>
</extensions>
</trkpt>
<trkpt lat="64.179565430" lon="-21.655185699">
<ele>62.791016</ele>
<time>2012-07-18T15:05:00Z</time>
<speed>0.020000</speed>
<extensions>
<speed>0.0</speed>
<temp>0.00</temp>
<bpm>0</bpm>
<rpm>0.00</rpm>
</extensions>
</trkpt>
<trkpt lat="64.179565430" lon="-21.655185699">
<ele>62.782227</ele>
<time>2012-07-18T15:05:05Z</time>
<speed>0.010000</speed>
<extensions>
<speed>0.0</speed>
<temp>0.00</temp>
<bpm>0</bpm>
<rpm>0.00</rpm>
</extensions>
</trkpt>
<trkpt lat="64.179565430" lon="-21.655185699">
<ele>62.762695</ele>
<time>2012-07-18T15:05:10Z</time>
<speed>0.010000</speed>
<extensions>
<speed>0.0</speed>
<temp>0.00</temp>
<bpm>0</bpm>
<rpm>0.00</rpm>
</extensions>
</trkpt>
<trkpt lat="64.179565430" lon="-21.655185699">
<ele>62.734375</ele>
<time>2012-07-18T15:05:15Z</time>
<speed>0.030000</speed>
<extensions>
<speed>0.0</speed>
<temp>0.00</temp>
<bpm>0</bpm>
<rpm>0.00</rpm>
</extensions>
</trkpt>
<trkpt lat="64.179565430" lon="-21.655185699">
<ele>62.719727</ele>
<time>2012-07-18T15:05:20Z</time>
<speed>0.180000</speed>
<extensions>
<speed>0.2</speed>
<temp>0.00</temp>
<bpm>0</bpm>
<rpm>0.00</rpm>
</extensions>
</trkpt>
<trkpt lat="64.179565430" lon="-21.655183792">
<ele>62.762695</ele>
<time>2012-07-18T15:05:25Z</time>
<speed>0.020000</speed>
<extensions>
<speed>0.0</speed>
<temp>0.00</temp>
<bpm>0</bpm>
<rpm>0.00</rpm>
</extensions>
</trkpt>
<trkpt lat="64.179565430" lon="-21.655183792">
<ele>62.724609</ele>
<time>2012-07-18T15:05:30Z</time>
<speed>0.010000</speed>
<extensions>
<speed>0.0</speed>
<temp>0.00</temp>
<bpm>0</bpm>
<rpm>0.00</rpm>
</extensions>
</trkpt>
<trkpt lat="64.179565430" lon="-21.655168533">
<ele>62.701172</ele>
<time>2012-07-18T15:05:35Z</time>
<speed>1.320000</speed>
<extensions>
<speed>1.3</speed>
<temp>0.00</temp>
<bpm>0</bpm>
<rpm>0.00</rpm>
</extensions>
</trkpt>
<trkpt lat="64.179573059" lon="-21.654998779">
<ele>61.690430</ele>
<time>2012-07-18T15:05:40Z</time>
<speed>2.180000</speed>
<extensions>
<speed>2.2</speed>
<temp>0.00</temp>
<bpm>0</bpm>
<rpm>0.00</rpm>
</extensions>
</trkpt>
<trkpt lat="64.179588318" lon="-21.654745102">
<ele>60.796875</ele>
<time>2012-07-18T15:05:45Z</time>
<speed>2.180000</speed>
<extensions>
<speed>2.2</speed>
<temp>0.00</temp>
<bpm>0</bpm>
<rpm>0.00</rpm>
</extensions>
</trkpt>
<trkpt lat="64.179603577" lon="-21.654449463">
<ele>60.449219</ele>
<time>2012-07-18T15:05:50Z</time>
<speed>3.240000</speed>
<extensions>
<speed>3.2</speed>
<temp>0.00</temp>
<bpm>0</bpm>
<rpm>0.00</rpm>
</extensions>
</trkpt>
<trkpt lat="64.179611206" lon="-21.654067993">
<ele>59.695313</ele>
<time>2012-07-18T15:05:55Z</time>
<speed>4.000000</speed>
<extensions>
<speed>4.0</speed>
<temp>0.00</temp>
<bpm>0</bpm>
<rpm>0.00</rpm>
</extensions>
</trkpt>
<trkpt lat="64.179618835" lon="-21.653619766">
<ele>59.115234</ele>
<time>2012-07-18T15:06:00Z</time>
<speed>4.430000</speed>
<extensions>
<speed>4.4</speed>
<temp>0.00</temp>
<bpm>0</bpm>
<rpm>0.00</rpm>
</extensions>
</trkpt>
<trkpt lat="64.179626465" lon="-21.653144836">
<ele>58.731445</ele>
<time>2012-07-18T15:06:05Z</time>
<speed>4.490000</speed>
<extensions>
<speed>4.5</speed>
<temp>0.00</temp>
<bpm>0</bpm>
<rpm>0.00</rpm>
</extensions>
</trkpt>
<trkpt lat="64.179634094" lon="-21.652803421">
<ele>59.765625</ele>
<time>2012-07-18T15:06:10Z</time>
<speed>3.010000</speed>
<extensions>
<speed>3.0</speed>
<temp>0.00</temp>
<bpm>0</bpm>
<rpm>0.00</rpm>
</extensions>
</trkpt>
<trkpt lat="64.179634094" lon="-21.652494431">
<ele>61.155273</ele>
<time>2012-07-18T15:06:15Z</time>
<speed>3.220000</speed>
<extensions>
<speed>3.2</speed>
<temp>0.00</temp>
<bpm>0</bpm>
<rpm>0.00</rpm>
</extensions>
</trkpt>
<trkpt lat="64.179641724" lon="-21.652166367">
<ele>61.748047</ele>
<time>2012-07-18T15:06:20Z</time>
<speed>3.560000</speed>
<extensions>
<speed>3.6</speed>
<temp>0.00</temp>
<bpm>0</bpm>
<rpm>0.00</rpm>
</extensions>
</trkpt>
<trkpt lat="64.179664612" lon="-21.651731491">
<ele>59.619141</ele>
<time>2012-07-18T15:06:25Z</time>
<speed>4.600000</speed>
<extensions>
<speed>4.6</speed>
<temp>0.00</temp>
<bpm>0</bpm>
<rpm>0.00</rpm>
</extensions>
</trkpt>
<trkpt lat="64.179679871" lon="-21.651264191">
<ele>58.273438</ele>
<time>2012-07-18T15:06:30Z</time>
<speed>4.960000</speed>
<extensions>
<speed>5.0</speed>
<temp>0.00</temp>
<bpm>0</bpm>
<rpm>0.00</rpm>
</extensions>
</trkpt>
<trkpt lat="64.179687500" lon="-21.650730133">
<ele>56.531250</ele>
<time>2012-07-18T15:06:35Z</time>
<speed>4.950000</speed>
<extensions>
<speed>4.9</speed>
<temp>0.00</temp>
<bpm>0</bpm>
<rpm>0.00</rpm>
</extensions>
</trkpt>
<trkpt lat="64.179695129" lon="-21.650228500">
<ele>55.447266</ele>
<time>2012-07-18T15:06:40Z</time>
<speed>4.710000</speed>
<extensions>
<speed>4.7</speed>
<temp>0.00</temp>
<bpm>0</bpm>
<rpm>0.00</rpm>
</extensions>
</trkpt>
<trkpt lat="64.179687500" lon="-21.649726868">
<ele>54.525391</ele>
<time>2012-07-18T15:06:45Z</time>
<speed>5.120000</speed>
<extensions>
<speed>5.1</speed>
<temp>0.00</temp>
<bpm>0</bpm>
<rpm>0.00</rpm>
</extensions>
</trkpt>
<trkpt lat="64.179702759" lon="-21.649122238">
<ele>53.304688</ele>
<time>2012-07-18T15:06:50Z</time>
<speed>6.140000</speed>
<extensions>
<speed>6.1</speed>
<temp>0.00</temp>
<bpm>0</bpm>
<rpm>0.00</rpm>
</extensions>
</trkpt>
<trkpt lat="64.179756165" lon="-21.648403168">
<ele>51.865234</ele>
<time>2012-07-18T15:06:55Z</time>
<speed>7.790000</speed>
<extensions>
<speed>7.8</speed>
<temp>0.00</temp>
<bpm>0</bpm>
<rpm>0.00</rpm>
</extensions>
</trkpt>
<trkpt lat="64.179786682" lon="-21.647531509">
<ele>50.094727</ele>
<time>2012-07-18T15:07:00Z</time>
<speed>9.120000</speed>
<extensions>
<speed>9.1</speed>
<temp>0.00</temp>
<bpm>0</bpm>
<rpm>0.00</rpm>
</extensions>
</trkpt>
<trkpt lat="64.179809570" lon="-21.646636963">
<ele>47.043945</ele>
<time>2012-07-18T15:07:05Z</time>
<speed>8.650000</speed>
<extensions>
<speed>8.6</speed>
<temp>0.00</temp>
<bpm>0</bpm>
<rpm>0.00</rpm>
</extensions>
</trkpt>
<trkpt lat="64.179840088" lon="-21.645919800">
<ele>45.514648</ele>
<time>2012-07-18T15:07:10Z</time>
<speed>4.910000</speed>
<extensions>
<speed>4.9</speed>
<temp>0.00</temp>
<bpm>0</bpm>
<rpm>0.00</rpm>
</extensions>
</trkpt>
<trkpt lat="64.179840088" lon="-21.645498276">
<ele>43.378906</ele>
<time>2012-07-18T15:07:15Z</time>
<speed>3.580000</speed>
<extensions>
<speed>3.6</speed>
<temp>0.00</temp>
<bpm>0</bpm>
<rpm>0.00</rpm>
</extensions>
</trkpt>
<trkpt lat="64.179855347" lon="-21.645204544">
<ele>44.922852</ele>
<time>2012-07-18T15:07:20Z</time>
<speed>2.620000</speed>
<extensions>
<speed>2.6</speed>
<temp>0.00</temp>
<bpm>0</bpm>
<rpm>0.00</rpm>
</extensions>
</trkpt>
<trkpt lat="64.179862976" lon="-21.644910812">
<ele>46.253906</ele>
<time>2012-07-18T15:07:25Z</time>
<speed>3.970000</speed>
<extensions>
<speed>4.0</speed>
<temp>0.00</temp>
<bpm>0</bpm>
<rpm>0.00</rpm>
</extensions>
</trkpt>
<trkpt lat="64.179840088" lon="-21.644392014">
<ele>44.774414</ele>
<time>2012-07-18T15:07:30Z</time>
<speed>5.580000</speed>
<extensions>
<speed>5.6</speed>
<temp>0.00</temp>
<bpm>0</bpm>
<rpm>0.00</rpm>
</extensions>
</trkpt>
<trkpt lat="64.179878235" lon="-21.644138336">
<ele>45.761719</ele>
<time>2012-07-18T15:07:35Z</time>
<speed>0.080000</speed>
<extensions>
<speed>0.1</speed>
<temp>0.00</temp>
<bpm>0</bpm>
<rpm>0.00</rpm>
</extensions>
</trkpt>
<trkpt lat="64.179885864" lon="-21.644132614">
<ele>45.816406</ele>
<time>2012-07-18T15:07:40Z</time>
<speed>0.050000</speed>
<extensions>
<speed>0.1</speed>
<temp>0.00</temp>
<bpm>0</bpm>
<rpm>0.00</rpm>
</extensions>
</trkpt>
<trkpt lat="64.179885864" lon="-21.644132614">
<ele>46.013672</ele>
<time>2012-07-18T15:07:45Z</time>
<speed>0.040000</speed>
<extensions>
<speed>0.0</speed>
<temp>0.00</temp>
<bpm>0</bpm>
<rpm>0.00</rpm>
</extensions>
</trkpt>
<trkpt lat="64.179885864" lon="-21.644130707">
<ele>46.051758</ele>
<time>2012-07-18T15:07:50Z</time>
<extensions>
<speed>0.0</speed>
<temp>0.00</temp>
<bpm>0</bpm>
<rpm>0.00</rpm>
</extensions>
</trkpt>
<trkpt lat="64.179885864" lon="-21.644130707">
<ele>46.053711</ele>
<time>2012-07-18T15:07:55Z</time>
<speed>0.010000</speed>
<extensions>
<speed>0.0</speed>
<temp>0.00</temp>
<bpm>0</bpm>
<rpm>0.00</rpm>
</extensions>
</trkpt>
<trkpt lat="64.179885864" lon="-21.644130707">
<ele>46.043945</ele>
<time>2012-07-18T15:08:00Z</time>
<extensions>
<speed>0.0</speed>
<temp>0.00</temp>
<bpm>0</bpm>
<rpm>0.00</rpm>
</extensions>
</trkpt>
<trkpt lat="64.179885864" lon="-21.644128799">
<ele>46.064453</ele>
<time>2012-07-18T15:08:05Z</time>
<speed>0.020000</speed>
<extensions>
<speed>0.0</speed>
<temp>0.00</temp>
<bpm>0</bpm>
<rpm>0.00</rpm>
</extensions>
</trkpt>
<trkpt lat="64.179885864" lon="-21.644132614">
<ele>46.114258</ele>
<time>2012-07-18T15:08:10Z</time>
<speed>0.020000</speed>
<extensions>
<speed>0.0</speed>
<temp>0.00</temp>
<bpm>0</bpm>
<rpm>0.00</rpm>
</extensions>
</trkpt>
<trkpt lat="64.179885864" lon="-21.644132614">
<ele>46.122070</ele>
<time>2012-07-18T15:08:15Z</time>
<speed>0.270000</speed>
<extensions>
<speed>0.3</speed>
<temp>0.00</temp>
<bpm>0</bpm>
<rpm>0.00</rpm>
</extensions>
</trkpt>
<trkpt lat="64.179908752" lon="-21.644042969">
<ele>45.705078</ele>
<time>2012-07-18T15:08:20Z</time>
<speed>2.260000</speed>
<extensions>
<speed>2.3</speed>
<temp>0.00</temp>
<bpm>0</bpm>
<rpm>0.00</rpm>
</extensions>
</trkpt>
<trkpt lat="64.179954529" lon="-21.643875122">
<ele>45.591797</ele>
<time>2012-07-18T15:08:25Z</time>
<speed>0.310000</speed>
<extensions>
<speed>0.3</speed>
<temp>0.00</temp>
<bpm>0</bpm>
<rpm>0.00</rpm>
</extensions>
</trkpt>
<trkpt lat="64.179954529" lon="-21.643878937">
<ele>45.998047</ele>
<time>2012-07-18T15:08:30Z</time>
<speed>0.060000</speed>
<extensions>
<speed>0.1</speed>
<temp>0.00</temp>
<bpm>0</bpm>
<rpm>0.00</rpm>
</extensions>
</trkpt>
<trkpt lat="64.179962158" lon="-21.643878937">
<ele>46.195313</ele>
<time>2012-07-18T15:08:35Z</time>
<extensions>
<speed>0.0</speed>
<temp>0.00</temp>
<bpm>0</bpm>
<rpm>0.00</rpm>
</extensions>
</trkpt>
<trkpt lat="64.179962158" lon="-21.643878937">
<ele>46.262695</ele>
<time>2012-07-18T15:08:40Z</time>
<speed>0.030000</speed>
<extensions>
<speed>0.0</speed>
<temp>0.00</temp>
<bpm>0</bpm>
<rpm>0.00</rpm>
</extensions>
</trkpt>
<trkpt lat="64.179962158" lon="-21.643878937">
<ele>46.276367</ele>
<time>2012-07-18T15:08:45Z</time>
<speed>0.010000</speed>
<extensions>
<speed>0.0</speed>
<temp>0.00</temp>
<bpm>0</bpm>
<rpm>0.00</rpm>
</extensions>
</trkpt>
<trkpt lat="64.179962158" lon="-21.643878937">
<ele>46.282227</ele>
<time>2012-07-18T15:08:50Z</time>
<speed>0.010000</speed>
<extensions>
<speed>0.0</speed>
<temp>0.00</temp>
<bpm>0</bpm>
<rpm>0.00</rpm>
</extensions>
</trkpt>
<trkpt lat="64.179962158" lon="-21.643878937">
<ele>46.300781</ele>
<time>2012-07-18T15:08:55Z</time>
<extensions>
<speed>0.0</speed>
<temp>0.00</temp>
<bpm>0</bpm>
<rpm>0.00</rpm>
</extensions>
</trkpt>
<trkpt lat="64.179962158" lon="-21.643878937">
<ele>46.291992</ele>
<time>2012-07-18T15:09:00Z</time>
<speed>0.030000</speed>
<extensions>
<speed>0.0</speed>
<temp>0.00</temp>
<bpm>0</bpm>
<rpm>0.00</rpm>
</extensions>
</trkpt>
<trkpt lat="64.179954529" lon="-21.643880844">
<ele>46.269531</ele>
<time>2012-07-18T15:09:05Z</time>
<speed>0.010000</speed>
<extensions>
<speed>0.0</speed>
<temp>0.00</temp>
<bpm>0</bpm>
<rpm>0.00</rpm>
</extensions>
</trkpt>
<trkpt lat="64.179954529" lon="-21.643871307">
<ele>46.067383</ele>
<time>2012-07-18T15:09:10Z</time>
<speed>0.220000</speed>
<extensions>
<speed>0.2</speed>
<temp>0.00</temp>
<bpm>0</bpm>
<rpm>0.00</rpm>
</extensions>
</trkpt>
<trkpt lat="64.179962158" lon="-21.643863678">
<ele>45.963867</ele>
<time>2012-07-18T15:09:15Z</time>
<speed>0.280000</speed>
<extensions>
<speed>0.3</speed>
<temp>0.00</temp>
<bpm>0</bpm>
<rpm>0.00</rpm>
</extensions>
</trkpt>
<trkpt lat="64.179954529" lon="-21.643869400">
<ele>45.548828</ele>
<time>2012-07-18T15:09:20Z</time>
<speed>0.030000</speed>
<extensions>
<speed>0.0</speed>
<temp>0.00</temp>
<bpm>0</bpm>
<rpm>0.00</rpm>
</extensions>
</trkpt>
<trkpt lat="64.179954529" lon="-21.643869400">
<ele>45.337891</ele>
<time>2012-07-18T15:09:25Z</time>
<speed>0.080000</speed>
<extensions>
<speed>0.1</speed>
<temp>0.00</temp>
<bpm>0</bpm>
<rpm>0.00</rpm>
</extensions>
</trkpt>
<trkpt lat="64.179954529" lon="-21.643871307">
<ele>45.277344</ele>
<time>2012-07-18T15:09:30Z</time>
<speed>0.050000</speed>
<extensions>
<speed>0.1</speed>
<temp>0.00</temp>
<bpm>0</bpm>
<rpm>0.00</rpm>
</extensions>
</trkpt>
<trkpt lat="64.179954529" lon="-21.643871307">
<ele>45.284180</ele>
<time>2012-07-18T15:09:35Z</time>
<extensions>
<speed>0.0</speed>
<temp>0.00</temp>
<bpm>0</bpm>
<rpm>0.00</rpm>
</extensions>
</trkpt>
<trkpt lat="64.179954529" lon="-21.643871307">
<ele>45.301758</ele>
<time>2012-07-18T15:09:40Z</time>
<extensions>
<speed>0.0</speed>
<temp>0.00</temp>
<bpm>0</bpm>
<rpm>0.00</rpm>
</extensions>
</trkpt>
<trkpt lat="64.179954529" lon="-21.643871307">
<ele>45.305664</ele>
<time>2012-07-18T15:09:45Z</time>
<speed>0.410000</speed>
<extensions>
<speed>0.4</speed>
<temp>0.00</temp>
<bpm>0</bpm>
<rpm>0.00</rpm>
</extensions>
</trkpt>
<trkpt lat="64.179969788" lon="-21.643785477">
<ele>46.032227</ele>
<time>2012-07-18T15:09:50Z</time>
<speed>0.720000</speed>
<extensions>
<speed>0.7</speed>
<temp>0.00</temp>
<bpm>0</bpm>
<rpm>0.00</rpm>
</extensions>
</trkpt>
<trkpt lat="64.179985046" lon="-21.643659592">
<ele>45.120117</ele>
<time>2012-07-18T15:09:55Z</time>
<speed>1.580000</speed>
<extensions>
<speed>1.6</speed>
<temp>0.00</temp>
<bpm>0</bpm>
<rpm>0.00</rpm>
</extensions>
</trkpt>
<trkpt lat="64.180007935" lon="-21.643470764">
<ele>44.539063</ele>
<time>2012-07-18T15:10:00Z</time>
<speed>2.500000</speed>
<extensions>
<speed>2.5</speed>
<temp>0.00</temp>
<bpm>0</bpm>
<rpm>0.00</rpm>
</extensions>
</trkpt>
<trkpt lat="64.180030823" lon="-21.643196106">
<ele>44.205078</ele>
<time>2012-07-18T15:10:05Z</time>
<speed>3.110000</speed>
<extensions>
<speed>3.1</speed>
<temp>0.00</temp>
<bpm>0</bpm>
<rpm>0.00</rpm>
</extensions>
</trkpt>
<trkpt lat="64.180068970" lon="-21.642875671">
<ele>43.921875</ele>
<time>2012-07-18T15:10:10Z</time>
<speed>3.490000</speed>
<extensions>
<speed>3.5</speed>
<temp>0.00</temp>
<bpm>0</bpm>
<rpm>0.00</rpm>
</extensions>
</trkpt>
<trkpt lat="64.180114746" lon="-21.642534256">
<ele>43.772461</ele>
<time>2012-07-18T15:10:15Z</time>
<speed>3.700000</speed>
<extensions>
<speed>3.7</speed>
<temp>0.00</temp>
<bpm>0</bpm>
<rpm>0.00</rpm>
</extensions>
</trkpt>
<trkpt lat="64.180160522" lon="-21.642160416">
<ele>43.817383</ele>
<time>2012-07-18T15:10:20Z</time>
<speed>3.960000</speed>
<extensions>
<speed>4.0</speed>
<temp>0.00</temp>
<bpm>0</bpm>
<rpm>0.00</rpm>
</extensions>
</trkpt>
<trkpt lat="64.180175781" lon="-21.641744614">
<ele>42.684570</ele>
<time>2012-07-18T15:10:25Z</time>
<speed>4.170000</speed>
<extensions>
<speed>4.2</speed>
<temp>0.00</temp>
<bpm>0</bpm>
<rpm>0.00</rpm>
</extensions>
</trkpt>
<trkpt lat="64.180175781" lon="-21.641445160">
<ele>43.623047</ele>
<time>2012-07-18T15:10:30Z</time>
<speed>2.650000</speed>
<extensions>
<speed>2.6</speed>
<temp>0.00</temp>
<bpm>0</bpm>
<rpm>0.00</rpm>
</extensions>
</trkpt>
<trkpt lat="64.180183411" lon="-21.641201019">
<ele>43.925781</ele>
<time>2012-07-18T15:10:35Z</time>
<speed>1.920000</speed>
<extensions>
<speed>1.9</speed>
<temp>0.00</temp>
<bpm>0</bpm>
<rpm>0.00</rpm>
</extensions>
</trkpt>
<trkpt lat="64.180183411" lon="-21.640989304">
<ele>43.333008</ele>
<time>2012-07-18T15:10:40Z</time>
<speed>2.440000</speed>
<extensions>
<speed>2.4</speed>
<temp>0.00</temp>
<bpm>0</bpm>
<rpm>0.00</rpm>
</extensions>
</trkpt>
<trkpt lat="64.180183411" lon="-21.640689850">
<ele>44.621094</ele>
<time>2012-07-18T15:10:45Z</time>
<speed>2.830000</speed>
<extensions>
<speed>2.8</speed>
<temp>0.00</temp>
<bpm>0</bpm>
<rpm>0.00</rpm>
</extensions>
</trkpt>
<trkpt lat="64.180191040" lon="-21.640386581">
<ele>44.920898</ele>
<time>2012-07-18T15:10:50Z</time>
<speed>3.190000</speed>
<extensions>
<speed>3.2</speed>
<temp>0.00</temp>
<bpm>0</bpm>
<rpm>0.00</rpm>
</extensions>
</trkpt>
<trkpt lat="64.180198669" lon="-21.640058517">
<ele>45.144531</ele>
<time>2012-07-18T15:10:55Z</time>
<speed>2.850000</speed>
<extensions>
<speed>2.9</speed>
<temp>0.00</temp>
<bpm>0</bpm>
<rpm>0.00</rpm>
</extensions>
</trkpt>
<trkpt lat="64.180198669" lon="-21.639772415">
<ele>44.692383</ele>
<time>2012-07-18T15:11:00Z</time>
<speed>2.580000</speed>
<extensions>
<speed>2.6</speed>
<temp>0.00</temp>
<bpm>0</bpm>
<rpm>0.00</rpm>
</extensions>
</trkpt>
<trkpt lat="64.180206299" lon="-21.639488220">
<ele>44.568359</ele>
<time>2012-07-18T15:11:05Z</time>
<speed>2.760000</speed>
<extensions>
<speed>2.8</speed>
<temp>0.00</temp>
<bpm>0</bpm>
<rpm>0.00</rpm>
</extensions>
</trkpt>
<trkpt lat="64.180213928" lon="-21.639177322">
<ele>45.050781</ele>
<time>2012-07-18T15:11:10Z</time>
<speed>2.950000</speed>
<extensions>
<speed>2.9</speed>
<temp>0.00</temp>
<bpm>0</bpm>
<rpm>0.00</rpm>
</extensions>
</trkpt>
<trkpt lat="64.180221558" lon="-21.638860703">
<ele>45.070313</ele>
<time>2012-07-18T15:11:15Z</time>
<speed>2.890000</speed>
<extensions>
<speed>2.9</speed>
<temp>0.00</temp>
<bpm>0</bpm>
<rpm>0.00</rpm>
</extensions>
</trkpt>
<trkpt lat="64.180221558" lon="-21.638525009">
<ele>44.710938</ele>
<time>2012-07-18T15:11:20Z</time>
<speed>3.230000</speed>
<extensions>
<speed>3.2</speed>
<temp>0.00</temp>
<bpm>0</bpm>
<rpm>0.00</rpm>
</extensions>
</trkpt>
<trkpt lat="64.180221558" lon="-21.638145447">
<ele>45.088867</ele>
<time>2012-07-18T15:11:25Z</time>
<speed>4.190000</speed>
<extensions>
<speed>4.2</speed>
<temp>0.00</temp>
<bpm>0</bpm>
<rpm>0.00</rpm>
</extensions>
</trkpt>
<trkpt lat="64.180229187" lon="-21.637670517">
<ele>45.293945</ele>
<time>2012-07-18T15:11:30Z</time>
<speed>4.850000</speed>
<extensions>
<speed>4.8</speed>
<temp>0.00</temp>
<bpm>0</bpm>
<rpm>0.00</rpm>
</extensions>
</trkpt>
<trkpt lat="64.180236816" lon="-21.637199402">
<ele>45.087891</ele>
<time>2012-07-18T15:11:35Z</time>
<speed>4.110000</speed>
<extensions>
<speed>4.1</speed>
<temp>0.00</temp>
<bpm>0</bpm>
<rpm>0.00</rpm>
</extensions>
</trkpt>
<trkpt lat="64.180252075" lon="-21.636823654">
<ele>45.132813</ele>
<time>2012-07-18T15:11:40Z</time>
<speed>3.640000</speed>
<extensions>
<speed>3.6</speed>
<temp>0.00</temp>
<bpm>0</bpm>
<rpm>0.00</rpm>
</extensions>
</trkpt>
<trkpt lat="64.180267334" lon="-21.636383057">
<ele>46.593750</ele>
<time>2012-07-18T15:11:45Z</time>
<speed>4.560000</speed>
<extensions>
<speed>4.6</speed>
<temp>0.00</temp>
<bpm>0</bpm>
<rpm>0.00</rpm>
</extensions>
</trkpt>
<trkpt lat="64.180274963" lon="-21.635868073">
<ele>46.508789</ele>
<time>2012-07-18T15:11:50Z</time>
<speed>4.920000</speed>
<extensions>
<speed>4.9</speed>
<temp>0.00</temp>
<bpm>0</bpm>
<rpm>0.00</rpm>
</extensions>
</trkpt>
<trkpt lat="64.180282593" lon="-21.635286331">
<ele>46.165039</ele>
<time>2012-07-18T15:11:55Z</time>
<speed>5.340000</speed>
<extensions>
<speed>5.3</speed>
<temp>0.00</temp>
<bpm>0</bpm>
<rpm>0.00</rpm>
</extensions>
</trkpt>
<trkpt lat="64.180290222" lon="-21.634695053">
<ele>45.858398</ele>
<time>2012-07-18T15:12:00Z</time>
<speed>5.490000</speed>
<extensions>
<speed>5.5</speed>
<temp>0.00</temp>
<bpm>0</bpm>
<rpm>0.00</rpm>
</extensions>
</trkpt>
<trkpt lat="64.180290222" lon="-21.634126663">
<ele>46.182617</ele>
<time>2012-07-18T15:12:05Z</time>
<speed>5.610000</speed>
<extensions>
<speed>5.6</speed>
<temp>0.00</temp>
<bpm>0</bpm>
<rpm>0.00</rpm>
</extensions>
</trkpt>
<trkpt lat="64.180305481" lon="-21.633548737">
<ele>46.752930</ele>
<time>2012-07-18T15:12:10Z</time>
<speed>5.050000</speed>
<extensions>
<speed>5.1</speed>
<temp>0.00</temp>
<bpm>0</bpm>
<rpm>0.00</rpm>
</extensions>
</trkpt>
<trkpt lat="64.180313110" lon="-21.632972717">
<ele>47.094727</ele>
<time>2012-07-18T15:12:15Z</time>
<speed>5.590000</speed>
<extensions>
<speed>5.6</speed>
<temp>0.00</temp>
<bpm>0</bpm>
<rpm>0.00</rpm>
</extensions>
</trkpt>
<trkpt lat="64.180328369" lon="-21.632362366">
<ele>48.326172</ele>
<time>2012-07-18T15:12:20Z</time>
<speed>5.350000</speed>
<extensions>
<speed>5.4</speed>
<temp>0.00</temp>
<bpm>0</bpm>
<rpm>0.00</rpm>
</extensions>
</trkpt>
<trkpt lat="64.180335999" lon="-21.631866455">
<ele>48.566406</ele>
<time>2012-07-18T15:12:25Z</time>
<speed>5.040000</speed>
<extensions>
<speed>5.0</speed>
<temp>0.00</temp>
<bpm>0</bpm>
<rpm>0.00</rpm>
</extensions>
</trkpt>
<trkpt lat="64.180351257" lon="-21.631336212">
<ele>49.272461</ele>
<time>2012-07-18T15:12:30Z</time>
<speed>5.310000</speed>
<extensions>
<speed>5.3</speed>
<temp>0.00</temp>
<bpm>0</bpm>
<rpm>0.00</rpm>
</extensions>
</trkpt>
<trkpt lat="64.180358887" lon="-21.630767822">
<ele>49.599609</ele>
<time>2012-07-18T15:12:35Z</time>
<speed>5.060000</speed>
<extensions>
<speed>5.1</speed>
<temp>0.00</temp>
<bpm>0</bpm>
<rpm>0.00</rpm>
</extensions>
</trkpt>
<trkpt lat="64.180366516" lon="-21.630277634">
<ele>50.052734</ele>
<time>2012-07-18T15:12:40Z</time>
<speed>4.390000</speed>
<extensions>
<speed>4.4</speed>
<temp>0.00</temp>
<bpm>0</bpm>
<rpm>0.00</rpm>
</extensions>
</trkpt>
<trkpt lat="64.180366516" lon="-21.629831314">
<ele>50.349609</ele>
<time>2012-07-18T15:12:45Z</time>
<speed>4.680000</speed>
<extensions>
<speed>4.7</speed>
<temp>0.00</temp>
<bpm>0</bpm>
<rpm>0.00</rpm>
</extensions>
</trkpt>
<trkpt lat="64.180381775" lon="-21.629314423">
<ele>50.552734</ele>
<time>2012-07-18T15:12:50Z</time>
<speed>5.080000</speed>
<extensions>
<speed>5.1</speed>
<temp>0.00</temp>
<bpm>0</bpm>
<rpm>0.00</rpm>
</extensions>
</trkpt>
<trkpt lat="64.180389404" lon="-21.628824234">
<ele>50.169922</ele>
<time>2012-07-18T15:12:55Z</time>
<speed>4.280000</speed>
<extensions>
<speed>4.3</speed>
<temp>0.00</temp>
<bpm>0</bpm>
<rpm>0.00</rpm>
</extensions>
</trkpt>
<trkpt lat="64.180397034" lon="-21.628414154">
<ele>49.854492</ele>
<time>2012-07-18T15:13:00Z</time>
<speed>4.450000</speed>
<extensions>
<speed>4.5</speed>
<temp>0.00</temp>
<bpm>0</bpm>
<rpm>0.00</rpm>
</extensions>
</trkpt>
<trkpt lat="64.180404663" lon="-21.628005981">
<ele>49.413086</ele>
<time>2012-07-18T15:13:05Z</time>
<speed>3.720000</speed>
<extensions>
<speed>3.7</speed>
<temp>0.00</temp>
<bpm>0</bpm>
<rpm>0.00</rpm>
</extensions>
</trkpt>
<trkpt lat="64.180404663" lon="-21.627622604">
<ele>49.139648</ele>
<time>2012-07-18T15:13:10Z</time>
<speed>4.060000</speed>
<extensions>
<speed>4.1</speed>
<temp>0.00</temp>
<bpm>0</bpm>
<rpm>0.00</rpm>
</extensions>
</trkpt>
<trkpt lat="64.180412292" lon="-21.627183914">
<ele>49.780273</ele>
<time>2012-07-18T15:13:15Z</time>
<speed>3.850000</speed>
<extensions>
<speed>3.8</speed>
<temp>0.00</temp>
<bpm>0</bpm>
<rpm>0.00</rpm>
</extensions>
</trkpt>
<trkpt lat="64.180412292" lon="-21.626773834">
<ele>49.615234</ele>
<time>2012-07-18T15:13:20Z</time>
<speed>4.410000</speed>
<extensions>
<speed>4.4</speed>
<temp>0.00</temp>
<bpm>0</bpm>
<rpm>0.00</rpm>
</extensions>
</trkpt>
<trkpt lat="64.180412292" lon="-21.626283646">
<ele>49.200195</ele>
<time>2012-07-18T15:13:25Z</time>
<speed>4.590000</speed>
<extensions>
<speed>4.6</speed>
<temp>0.00</temp>
<bpm>0</bpm>
<rpm>0.00</rpm>
</extensions>
</trkpt>
<trkpt lat="64.180419922" lon="-21.625816345">
<ele>48.440430</ele>
<time>2012-07-18T15:13:30Z</time>
<speed>4.730000</speed>
<extensions>
<speed>4.7</speed>
<temp>0.00</temp>
<bpm>0</bpm>
<rpm>0.00</rpm>
</extensions>
</trkpt>
<trkpt lat="64.180427551" lon="-21.625312805">
<ele>48.336914</ele>
<time>2012-07-18T15:13:35Z</time>
<speed>4.940000</speed>
<extensions>
<speed>4.9</speed>
<temp>0.00</temp>
<bpm>0</bpm>
<rpm>0.00</rpm>
</extensions>
</trkpt>
<trkpt lat="64.180435181" lon="-21.624795914">
<ele>48.278320</ele>
<time>2012-07-18T15:13:40Z</time>
<speed>5.020000</speed>
<extensions>
<speed>5.0</speed>
<temp>0.00</temp>
<bpm>0</bpm>
<rpm>0.00</rpm>
</extensions>
</trkpt>
<trkpt lat="64.180435181" lon="-21.624275208">
<ele>47.620117</ele>
<time>2012-07-18T15:13:45Z</time>
<speed>5.220000</speed>
<extensions>
<speed>5.2</speed>
<temp>0.00</temp>
<bpm>0</bpm>
<rpm>0.00</rpm>
</extensions>
</trkpt>
<trkpt lat="64.180442810" lon="-21.623727798">
<ele>47.746094</ele>
<time>2012-07-18T15:13:50Z</time>
<speed>5.280000</speed>
<extensions>
<speed>5.3</speed>
<temp>0.00</temp>
<bpm>0</bpm>
<rpm>0.00</rpm>
</extensions>
</trkpt>
<trkpt lat="64.180458069" lon="-21.623201370">
<ele>48.311523</ele>
<time>2012-07-18T15:13:55Z</time>
<speed>4.640000</speed>
<extensions>
<speed>4.6</speed>
<temp>0.00</temp>
<bpm>0</bpm>
<rpm>0.00</rpm>
</extensions>
</trkpt>
<trkpt lat="64.180458069" lon="-21.622758865">
<ele>48.611328</ele>
<time>2012-07-18T15:14:00Z</time>
<speed>4.360000</speed>
<extensions>
<speed>4.4</speed>
<temp>0.00</temp>
<bpm>0</bpm>
<rpm>0.00</rpm>
</extensions>
</trkpt>
<trkpt lat="64.180465698" lon="-21.622278214">
<ele>49.663086</ele>
<time>2012-07-18T15:14:05Z</time>
<speed>4.820000</speed>
<extensions>
<speed>4.8</speed>
<temp>0.00</temp>
<bpm>0</bpm>
<rpm>0.00</rpm>
</extensions>
</trkpt>
<trkpt lat="64.180473328" lon="-21.621765137">
<ele>49.493164</ele>
<time>2012-07-18T15:14:10Z</time>
<speed>5.120000</speed>
<extensions>
<speed>5.1</speed>
<temp>0.00</temp>
<bpm>0</bpm>
<rpm>0.00</rpm>
</extensions>
</trkpt>
<trkpt lat="64.180480957" lon="-21.621246338">
<ele>48.858398</ele>
<time>2012-07-18T15:14:15Z</time>
<speed>5.170000</speed>
<extensions>
<speed>5.2</speed>
<temp>0.00</temp>
<bpm>0</bpm>
<rpm>0.00</rpm>
</extensions>
</trkpt>
<trkpt lat="64.180480957" lon="-21.620676041">
<ele>48.742188</ele>
<time>2012-07-18T15:14:20Z</time>
<speed>5.420000</speed>
<extensions>
<speed>5.4</speed>
<temp>0.00</temp>
<bpm>0</bpm>
<rpm>0.00</rpm>
</extensions>
</trkpt>
<trkpt lat="64.180480957" lon="-21.620201111">
<ele>49.241211</ele>
<time>2012-07-18T15:14:25Z</time>
<speed>4.780000</speed>
<extensions>
<speed>4.8</speed>
<temp>0.00</temp>
<bpm>0</bpm>
<rpm>0.00</rpm>
</extensions>
</trkpt>
<trkpt lat="64.180488586" lon="-21.619737625">
<ele>49.698242</ele>
<time>2012-07-18T15:14:30Z</time>
<speed>4.650000</speed>
<extensions>
<speed>4.6</speed>
<temp>0.00</temp>
<bpm>0</bpm>
<rpm>0.00</rpm>
</extensions>
</trkpt>
<trkpt lat="64.180503845" lon="-21.619237900">
<ele>51.038086</ele>
<time>2012-07-18T15:14:35Z</time>
<speed>5.060000</speed>
<extensions>
<speed>5.1</speed>
<temp>0.00</temp>
<bpm>0</bpm>
<rpm>0.00</rpm>
</extensions>
</trkpt>
<trkpt lat="64.180519104" lon="-21.618705750">
<ele>51.080078</ele>
<time>2012-07-18T15:14:40Z</time>
<speed>5.200000</speed>
<extensions>
<speed>5.2</speed>
<temp>0.00</temp>
<bpm>0</bpm>
<rpm>0.00</rpm>
</extensions>
</trkpt>
<trkpt lat="64.180519104" lon="-21.618200302">
<ele>50.674805</ele>
<time>2012-07-18T15:14:45Z</time>
<speed>4.650000</speed>
<extensions>
<speed>4.6</speed>
<temp>0.00</temp>
<bpm>0</bpm>
<rpm>0.00</rpm>
</extensions>
</trkpt>
<trkpt lat="64.180526733" lon="-21.617727280">
<ele>50.676758</ele>
<time>2012-07-18T15:14:50Z</time>
<speed>5.030000</speed>
<extensions>
<speed>5.0</speed>
<temp>0.00</temp>
<bpm>0</bpm>
<rpm>0.00</rpm>
</extensions>
</trkpt>
<trkpt lat="64.180526733" lon="-21.617195129">
<ele>50.563477</ele>
<time>2012-07-18T15:14:55Z</time>
<speed>5.720000</speed>
<extensions>
<speed>5.7</speed>
<temp>0.00</temp>
<bpm>0</bpm>
<rpm>0.00</rpm>
</extensions>
</trkpt>
<trkpt lat="64.180526733" lon="-21.616674423">
<ele>49.940430</ele>
<time>2012-07-18T15:15:00Z</time>
<speed>5.350000</speed>
<extensions>
<speed>5.4</speed>
<temp>0.00</temp>
<bpm>0</bpm>
<rpm>0.00</rpm>
</extensions>
</trkpt>
<trkpt lat="64.180541992" lon="-21.616096497">
<ele>49.914063</ele>
<time>2012-07-18T15:15:05Z</time>
<speed>5.690000</speed>
<extensions>
<speed>5.7</speed>
<temp>0.00</temp>
<bpm>0</bpm>
<rpm>0.00</rpm>
</extensions>
</trkpt>
<trkpt lat="64.180557251" lon="-21.615520477">
<ele>50.035156</ele>
<time>2012-07-18T15:15:10Z</time>
<speed>5.240000</speed>
<extensions>
<speed>5.2</speed>
<temp>0.00</temp>
<bpm>0</bpm>
<rpm>0.00</rpm>
</extensions>
</trkpt>
<trkpt lat="64.180564880" lon="-21.615030289">
<ele>49.763672</ele>
<time>2012-07-18T15:15:15Z</time>
<speed>4.320000</speed>
<extensions>
<speed>4.3</speed>
<temp>0.00</temp>
<bpm>0</bpm>
<rpm>0.00</rpm>
</extensions>
</trkpt>
<trkpt lat="64.180572510" lon="-21.614589691">
<ele>50.668945</ele>
<time>2012-07-18T15:15:20Z</time>
<speed>4.180000</speed>
<extensions>
<speed>4.2</speed>
<temp>0.00</temp>
<bpm>0</bpm>
<rpm>0.00</rpm>
</extensions>
</trkpt>
<trkpt lat="64.180580139" lon="-21.614152908">
<ele>50.753906</ele>
<time>2012-07-18T15:15:25Z</time>
<speed>4.280000</speed>
<extensions>
<speed>4.3</speed>
<temp>0.00</temp>
<bpm>0</bpm>
<rpm>0.00</rpm>
</extensions>
</trkpt>
<trkpt lat="64.180587769" lon="-21.613695145">
<ele>51.132813</ele>
<time>2012-07-18T15:15:30Z</time>
<speed>4.690000</speed>
<extensions>
<speed>4.7</speed>
<temp>0.00</temp>
<bpm>0</bpm>
<rpm>0.00</rpm>
</extensions>
</trkpt>
<trkpt lat="64.180595398" lon="-21.613204956">
<ele>50.757813</ele>
<time>2012-07-18T15:15:35Z</time>
<speed>4.880000</speed>
<extensions>
<speed>4.9</speed>
<temp>0.00</temp>
<bpm>0</bpm>
<rpm>0.00</rpm>
</extensions>
</trkpt>
<trkpt lat="64.180603027" lon="-21.612703323">
<ele>50.486328</ele>
<time>2012-07-18T15:15:40Z</time>
<speed>4.960000</speed>
<extensions>
<speed>5.0</speed>
<temp>0.00</temp>
<bpm>0</bpm>
<rpm>0.00</rpm>
</extensions>
</trkpt>
<trkpt lat="64.180610657" lon="-21.612173080">
<ele>50.176758</ele>
<time>2012-07-18T15:15:45Z</time>
<speed>5.040000</speed>
<extensions>
<speed>5.0</speed>
<temp>0.00</temp>
<bpm>0</bpm>
<rpm>0.00</rpm>
</extensions>
</trkpt>
<trkpt lat="64.180625916" lon="-21.611646652">
<ele>49.806641</ele>
<time>2012-07-18T15:15:50Z</time>
<speed>4.530000</speed>
<extensions>
<speed>4.5</speed>
<temp>0.00</temp>
<bpm>0</bpm>
<rpm>0.00</rpm>
</extensions>
</trkpt>
<trkpt lat="64.180633545" lon="-21.611230850">
<ele>50.311523</ele>
<time>2012-07-18T15:15:55Z</time>
<speed>4.140000</speed>
<extensions>
<speed>4.1</speed>
<temp>0.00</temp>
<bpm>0</bpm>
<rpm>0.00</rpm>
</extensions>
</trkpt>
<trkpt lat="64.180641174" lon="-21.610774994">
<ele>49.797852</ele>
<time>2012-07-18T15:16:00Z</time>
<speed>5.080000</speed>
<extensions>
<speed>5.1</speed>
<temp>0.00</temp>
<bpm>0</bpm>
<rpm>0.00</rpm>
</extensions>
</trkpt>
<trkpt lat="64.180641174" lon="-21.610258102">
<ele>49.461914</ele>
<time>2012-07-18T15:16:05Z</time>
<speed>5.280000</speed>
<extensions>
<speed>5.3</speed>
<temp>0.00</temp>
<bpm>0</bpm>
<rpm>0.00</rpm>
</extensions>
</trkpt>
<trkpt lat="64.180664063" lon="-21.609718323">
<ele>49.027344</ele>
<time>2012-07-18T15:16:10Z</time>
<speed>4.780000</speed>
<extensions>
<speed>4.8</speed>
<temp>0.00</temp>
<bpm>0</bpm>
<rpm>0.00</rpm>
</extensions>
</trkpt>
<trkpt lat="64.180671692" lon="-21.609241486">
<ele>49.538086</ele>
<time>2012-07-18T15:16:15Z</time>
<speed>4.530000</speed>
<extensions>
<speed>4.5</speed>
<temp>0.00</temp>
<bpm>0</bpm>
<rpm>0.00</rpm>
</extensions>
</trkpt>
<trkpt lat="64.180671692" lon="-21.608802795">
<ele>49.416016</ele>
<time>2012-07-18T15:16:20Z</time>
<speed>4.370000</speed>
<extensions>
<speed>4.4</speed>
<temp>0.00</temp>
<bpm>0</bpm>
<rpm>0.00</rpm>
</extensions>
</trkpt>
<trkpt lat="64.180686951" lon="-21.608386993">
<ele>49.419922</ele>
<time>2012-07-18T15:16:25Z</time>
<speed>3.820000</speed>
<extensions>
<speed>3.8</speed>
<temp>0.00</temp>
<bpm>0</bpm>
<rpm>0.00</rpm>
</extensions>
</trkpt>
<trkpt lat="64.180694580" lon="-21.608043671">
<ele>49.222656</ele>
<time>2012-07-18T15:16:30Z</time>
<speed>2.910000</speed>
<extensions>
<speed>2.9</speed>
<temp>0.00</temp>
<bpm>0</bpm>
<rpm>0.00</rpm>
</extensions>
</trkpt>
<trkpt lat="64.180702209" lon="-21.607757568">
<ele>50.421875</ele>
<time>2012-07-18T15:16:35Z</time>
<speed>3.380000</speed>
<extensions>
<speed>3.4</speed>
<temp>0.00</temp>
<bpm>0</bpm>
<rpm>0.00</rpm>
</extensions>
</trkpt>
<trkpt lat="64.180702209" lon="-21.607387543">
<ele>52.232422</ele>
<time>2012-07-18T15:16:40Z</time>
<speed>3.420000</speed>
<extensions>
<speed>3.4</speed>
<temp>0.00</temp>
<bpm>0</bpm>
<rpm>0.00</rpm>
</extensions>
</trkpt>
<trkpt lat="64.180717468" lon="-21.607025146">
<ele>52.621094</ele>
<time>2012-07-18T15:16:45Z</time>
<speed>3.410000</speed>
<extensions>
<speed>3.4</speed>
<temp>0.00</temp>
<bpm>0</bpm>
<rpm>0.00</rpm>
</extensions>
</trkpt>
<trkpt lat="64.180725098" lon="-21.606613159">
<ele>53.342773</ele>
<time>2012-07-18T15:16:50Z</time>
<speed>4.070000</speed>
<extensions>
<speed>4.1</speed>
<temp>0.00</temp>
<bpm>0</bpm>
<rpm>0.00</rpm>
</extensions>
</trkpt>
<trkpt lat="64.180725098" lon="-21.606184006">
<ele>53.376953</ele>
<time>2012-07-18T15:16:55Z</time>
<speed>4.340000</speed>
<extensions>
<speed>4.3</speed>
<temp>0.00</temp>
<bpm>0</bpm>
<rpm>0.00</rpm>
</extensions>
</trkpt>
<trkpt lat="64.180732727" lon="-21.605798721">
<ele>53.135742</ele>
<time>2012-07-18T15:17:00Z</time>
<speed>3.120000</speed>
<extensions>
<speed>3.1</speed>
<temp>0.00</temp>
<bpm>0</bpm>
<rpm>0.00</rpm>
</extensions>
</trkpt>
<trkpt lat="64.180725098" lon="-21.605493546">
<ele>52.392578</ele>
<time>2012-07-18T15:17:05Z</time>
<speed>2.640000</speed>
<extensions>
<speed>2.6</speed>
<temp>0.00</temp>
<bpm>0</bpm>
<rpm>0.00</rpm>
</extensions>
</trkpt>
<trkpt lat="64.180740356" lon="-21.605232239">
<ele>51.708008</ele>
<time>2012-07-18T15:17:10Z</time>
<speed>2.950000</speed>
<extensions>
<speed>2.9</speed>
<temp>0.00</temp>
<bpm>0</bpm>
<rpm>0.00</rpm>
</extensions>
</trkpt>
<trkpt lat="64.180747986" lon="-21.604890823">
<ele>51.765625</ele>
<time>2012-07-18T15:17:15Z</time>
<speed>3.420000</speed>
<extensions>
<speed>3.4</speed>
<temp>0.00</temp>
<bpm>0</bpm>
<rpm>0.00</rpm>
</extensions>
</trkpt>
<trkpt lat="64.180747986" lon="-21.604543686">
<ele>52.076172</ele>
<time>2012-07-18T15:17:20Z</time>
<speed>3.190000</speed>
<extensions>
<speed>3.2</speed>
<temp>0.00</temp>
<bpm>0</bpm>
<rpm>0.00</rpm>
</extensions>
</trkpt>
<trkpt lat="64.180755615" lon="-21.604244232">
<ele>52.074219</ele>
<time>2012-07-18T15:17:25Z</time>
<speed>2.690000</speed>
<extensions>
<speed>2.7</speed>
<temp>0.00</temp>
<bpm>0</bpm>
<rpm>0.00</rpm>
</extensions>
</trkpt>
<trkpt lat="64.180763245" lon="-21.604009628">
<ele>52.400391</ele>
<time>2012-07-18T15:17:30Z</time>
<speed>2.600000</speed>
<extensions>
<speed>2.6</speed>
<temp>0.00</temp>
<bpm>0</bpm>
<rpm>0.00</rpm>
</extensions>
</trkpt>
<trkpt lat="64.180763245" lon="-21.603704453">
<ele>52.736328</ele>
<time>2012-07-18T15:17:35Z</time>
<speed>2.800000</speed>
<extensions>
<speed>2.8</speed>
<temp>0.00</temp>
<bpm>0</bpm>
<rpm>0.00</rpm>
</extensions>
</trkpt>
<trkpt lat="64.180763245" lon="-21.603477478">
<ele>53.032227</ele>
<time>2012-07-18T15:17:40Z</time>
<speed>2.150000</speed>
<extensions>
<speed>2.1</speed>
<temp>0.00</temp>
<bpm>0</bpm>
<rpm>0.00</rpm>
</extensions>
</trkpt>
<trkpt lat="64.180770874" lon="-21.603218079">
<ele>52.881836</ele>
<time>2012-07-18T15:17:45Z</time>
<speed>2.770000</speed>
<extensions>
<speed>2.8</speed>
<temp>0.00</temp>
<bpm>0</bpm>
<rpm>0.00</rpm>
</extensions>
</trkpt>
<trkpt lat="64.180763245" lon="-21.602945328">
<ele>52.507813</ele>
<time>2012-07-18T15:17:50Z</time>
<speed>2.750000</speed>
<extensions>
<speed>2.7</speed>
<temp>0.00</temp>
<bpm>0</bpm>
<rpm>0.00</rpm>
</extensions>
</trkpt>
<trkpt lat="64.180778503" lon="-21.602674484">
<ele>52.399414</ele>
<time>2012-07-18T15:17:55Z</time>
<speed>2.450000</speed>
<extensions>
<speed>2.4</speed>
<temp>0.00</temp>
<bpm>0</bpm>
<rpm>0.00</rpm>
</extensions>
</trkpt>
<trkpt lat="64.180778503" lon="-21.602403641">
<ele>51.858398</ele>
<time>2012-07-18T15:18:00Z</time>
<speed>2.950000</speed>
<extensions>
<speed>2.9</speed>
<temp>0.00</temp>
<bpm>0</bpm>
<rpm>0.00</rpm>
</extensions>
</trkpt>
<trkpt lat="64.180778503" lon="-21.602081299">
<ele>51.713867</ele>
<time>2012-07-18T15:18:05Z</time>
<speed>3.640000</speed>
<extensions>
<speed>3.6</speed>
<temp>0.00</temp>
<bpm>0</bpm>
<rpm>0.00</rpm>
</extensions>
</trkpt>
<trkpt lat="64.180786133" lon="-21.601722717">
<ele>52.154297</ele>
<time>2012-07-18T15:18:10Z</time>
<speed>2.930000</speed>
<extensions>
<speed>2.9</speed>
<temp>0.00</temp>
<bpm>0</bpm>
<rpm>0.00</rpm>
</extensions>
</trkpt>
<trkpt lat="64.180793762" lon="-21.601476669">
<ele>51.848633</ele>
<time>2012-07-18T15:18:15Z</time>
<speed>2.130000</speed>
<extensions>
<speed>2.1</speed>
<temp>0.00</temp>
<bpm>0</bpm>
<rpm>0.00</rpm>
</extensions>
</trkpt>
<trkpt lat="64.180793762" lon="-21.601190567">
<ele>51.664063</ele>
<time>2012-07-18T15:18:20Z</time>
<speed>3.210000</speed>
<extensions>
<speed>3.2</speed>
<temp>0.00</temp>
<bpm>0</bpm>
<rpm>0.00</rpm>
</extensions>
</trkpt>
<trkpt lat="64.180793762" lon="-21.600833893">
<ele>52.125977</ele>
<time>2012-07-18T15:18:25Z</time>
<speed>3.740000</speed>
<extensions>
<speed>3.7</speed>
<temp>0.00</temp>
<bpm>0</bpm>
<rpm>0.00</rpm>
</extensions>
</trkpt>
<trkpt lat="64.180793762" lon="-21.600444794">
<ele>52.426758</ele>
<time>2012-07-18T15:18:30Z</time>
<speed>4.180000</speed>
<extensions>
<speed>4.2</speed>
<temp>0.00</temp>
<bpm>0</bpm>
<rpm>0.00</rpm>
</extensions>
</trkpt>
<trkpt lat="64.180786133" lon="-21.600009918">
<ele>53.361328</ele>
<time>2012-07-18T15:18:35Z</time>
<speed>4.230000</speed>
<extensions>
<speed>4.2</speed>
<temp>0.00</temp>
<bpm>0</bpm>
<rpm>0.00</rpm>
</extensions>
</trkpt>
<trkpt lat="64.180793762" lon="-21.599563599">
<ele>53.223633</ele>
<time>2012-07-18T15:18:40Z</time>
<speed>4.610000</speed>
<extensions>
<speed>4.6</speed>
<temp>0.00</temp>
<bpm>0</bpm>
<rpm>0.00</rpm>
</extensions>
</trkpt>
<trkpt lat="64.180786133" lon="-21.599084854">
<ele>53.988281</ele>
<time>2012-07-18T15:18:45Z</time>
<speed>4.520000</speed>
<extensions>
<speed>4.5</speed>
<temp>0.00</temp>
<bpm>0</bpm>
<rpm>0.00</rpm>
</extensions>
</trkpt>
<trkpt lat="64.180778503" lon="-21.598596573">
<ele>54.254883</ele>
<time>2012-07-18T15:18:50Z</time>
<speed>4.720000</speed>
<extensions>
<speed>4.7</speed>
<temp>0.00</temp>
<bpm>0</bpm>
<rpm>0.00</rpm>
</extensions>
</trkpt>
<trkpt lat="64.180763245" lon="-21.598091125">
<ele>54.567383</ele>
<time>2012-07-18T15:18:55Z</time>
<speed>4.930000</speed>
<extensions>
<speed>4.9</speed>
<temp>0.00</temp>
<bpm>0</bpm>
<rpm>0.00</rpm>
</extensions>
</trkpt>
<trkpt lat="64.180740356" lon="-21.597591400">
<ele>54.242188</ele>
<time>2012-07-18T15:19:00Z</time>
<speed>5.110000</speed>
<extensions>
<speed>5.1</speed>
<temp>0.00</temp>
<bpm>0</bpm>
<rpm>0.00</rpm>
</extensions>
</trkpt>
<trkpt lat="64.180709839" lon="-21.597059250">
<ele>54.078125</ele>
<time>2012-07-18T15:19:05Z</time>
<speed>5.380000</speed>
<extensions>
<speed>5.4</speed>
<temp>0.00</temp>
<bpm>0</bpm>
<rpm>0.00</rpm>
</extensions>
</trkpt>
<trkpt lat="64.180671692" lon="-21.596532822">
<ele>55.111328</ele>
<time>2012-07-18T15:19:10Z</time>
<speed>4.970000</speed>
<extensions>
<speed>5.0</speed>
<temp>0.00</temp>
<bpm>0</bpm>
<rpm>0.00</rpm>
</extensions>
</trkpt>
<trkpt lat="64.180656433" lon="-21.596033096">
<ele>55.716797</ele>
<time>2012-07-18T15:19:15Z</time>
<speed>4.840000</speed>
<extensions>
<speed>4.8</speed>
<temp>0.00</temp>
<bpm>0</bpm>
<rpm>0.00</rpm>
</extensions>
</trkpt>
<trkpt lat="64.180625916" lon="-21.595569611">
<ele>56.195313</ele>
<time>2012-07-18T15:19:20Z</time>
<speed>3.960000</speed>
<extensions>
<speed>4.0</speed>
<temp>0.00</temp>
<bpm>0</bpm>
<rpm>0.00</rpm>
</extensions>
</trkpt>
<trkpt lat="64.180603027" lon="-21.595201492">
<ele>57.247070</ele>
<time>2012-07-18T15:19:25Z</time>
<speed>3.370000</speed>
<extensions>
<speed>3.4</speed>
<temp>0.00</temp>
<bpm>0</bpm>
<rpm>0.00</rpm>
</extensions>
</trkpt>
<trkpt lat="64.180587769" lon="-21.594835281">
<ele>57.925781</ele>
<time>2012-07-18T15:19:30Z</time>
<speed>3.790000</speed>
<extensions>
<speed>3.8</speed>
<temp>0.00</temp>
<bpm>0</bpm>
<rpm>0.00</rpm>
</extensions>
</trkpt>
<trkpt lat="64.180557251" lon="-21.594423294">
<ele>58.271484</ele>
<time>2012-07-18T15:19:35Z</time>
<speed>3.750000</speed>
<extensions>
<speed>3.8</speed>
<temp>0.00</temp>
<bpm>0</bpm>
<rpm>0.00</rpm>
</extensions>
</trkpt>
<trkpt lat="64.180541992" lon="-21.594091415">
<ele>59.107422</ele>
<time>2012-07-18T15:19:40Z</time>
<speed>3.070000</speed>
<extensions>
<speed>3.1</speed>
<temp>0.00</temp>
<bpm>0</bpm>
<rpm>0.00</rpm>
</extensions>
</trkpt>
<trkpt lat="64.180534363" lon="-21.593812943">
<ele>59.967773</ele>
<time>2012-07-18T15:19:45Z</time>
<speed>2.760000</speed>
<extensions>
<speed>2.8</speed>
<temp>0.00</temp>
<bpm>0</bpm>
<rpm>0.00</rpm>
</extensions>
</trkpt>
<trkpt lat="64.180519104" lon="-21.593517303">
<ele>60.917969</ele>
<time>2012-07-18T15:19:50Z</time>
<speed>2.760000</speed>
<extensions>
<speed>2.8</speed>
<temp>0.00</temp>
<bpm>0</bpm>
<rpm>0.00</rpm>
</extensions>
</trkpt>
<trkpt lat="64.180496216" lon="-21.593236923">
<ele>61.688477</ele>
<time>2012-07-18T15:19:55Z</time>
<speed>2.520000</speed>
<extensions>
<speed>2.5</speed>
<temp>0.00</temp>
<bpm>0</bpm>
<rpm>0.00</rpm>
</extensions>
</trkpt>
<trkpt lat="64.180480957" lon="-21.592979431">
<ele>62.704102</ele>
<time>2012-07-18T15:20:00Z</time>
<speed>2.580000</speed>
<extensions>
<speed>2.6</speed>
<temp>0.00</temp>
<bpm>0</bpm>
<rpm>0.00</rpm>
</extensions>
</trkpt>
<trkpt lat="64.180473328" lon="-21.592710495">
<ele>63.650391</ele>
<time>2012-07-18T15:20:05Z</time>
<speed>2.680000</speed>
<extensions>
<speed>2.7</speed>
<temp>0.00</temp>
<bpm>0</bpm>
<rpm>0.00</rpm>
</extensions>
</trkpt>
<trkpt lat="64.180458069" lon="-21.592412949">
<ele>64.552734</ele>
<time>2012-07-18T15:20:10Z</time>
<speed>2.770000</speed>
<extensions>
<speed>2.8</speed>
<temp>0.00</temp>
<bpm>0</bpm>
<rpm>0.00</rpm>
</extensions>
</trkpt>
<trkpt lat="64.180458069" lon="-21.592109680">
<ele>65.462891</ele>
<time>2012-07-18T15:20:15Z</time>
<speed>2.830000</speed>
<extensions>
<speed>2.8</speed>
<temp>0.00</temp>
<bpm>0</bpm>
<rpm>0.00</rpm>
</extensions>
</trkpt>
<trkpt lat="64.180458069" lon="-21.591777802">
<ele>66.375000</ele>
<time>2012-07-18T15:20:20Z</time>
<speed>3.660000</speed>
<extensions>
<speed>3.7</speed>
<temp>0.00</temp>
<bpm>0</bpm>
<rpm>0.00</rpm>
</extensions>
</trkpt>
<trkpt lat="64.180450439" lon="-21.591543198">
<ele>66.822266</ele>
<time>2012-07-18T15:20:25Z</time>
<speed>1.750000</speed>
<extensions>
<speed>1.8</speed>
<temp>0.00</temp>
<bpm>0</bpm>
<rpm>0.00</rpm>
</extensions>
</trkpt>
<trkpt lat="64.180442810" lon="-21.591291428">
<ele>66.923828</ele>
<time>2012-07-18T15:20:30Z</time>
<speed>2.920000</speed>
<extensions>
<speed>2.9</speed>
<temp>0.00</temp>
<bpm>0</bpm>
<rpm>0.00</rpm>
</extensions>
</trkpt>
<trkpt lat="64.180442810" lon="-21.591037750">
<ele>67.785156</ele>
<time>2012-07-18T15:20:35Z</time>
<speed>1.930000</speed>
<extensions>
<speed>1.9</speed>
<temp>0.00</temp>
<bpm>0</bpm>
<rpm>0.00</rpm>
</extensions>
</trkpt>
<trkpt lat="64.180450439" lon="-21.590877533">
<ele>67.646484</ele>
<time>2012-07-18T15:20:40Z</time>
<speed>1.330000</speed>
<extensions>
<speed>1.3</speed>
<temp>0.00</temp>
<bpm>0</bpm>
<rpm>0.00</rpm>
</extensions>
</trkpt>
<trkpt lat="64.180435181" lon="-21.590801239">
<ele>67.767578</ele>
<time>2012-07-18T15:20:45Z</time>
<speed>0.130000</speed>
<extensions>
<speed>0.1</speed>
<temp>0.00</temp>
<bpm>0</bpm>
<rpm>0.00</rpm>
</extensions>
</trkpt>
<trkpt lat="64.180442810" lon="-21.590784073">
<ele>67.884766</ele>
<time>2012-07-18T15:20:50Z</time>
<speed>0.520000</speed>
<extensions>
<speed>0.5</speed>
<temp>0.00</temp>
<bpm>0</bpm>
<rpm>0.00</rpm>
</extensions>
</trkpt>
<trkpt lat="64.180458069" lon="-21.590723038">
<ele>67.017578</ele>
<time>2012-07-18T15:20:55Z</time>
<speed>0.770000</speed>
<extensions>
<speed>0.8</speed>
<temp>0.00</temp>
<bpm>0</bpm>
<rpm>0.00</rpm>
</extensions>
</trkpt>
<trkpt lat="64.180480957" lon="-21.590559006">
<ele>65.472656</ele>
<time>2012-07-18T15:21:00Z</time>
<speed>2.540000</speed>
<extensions>
<speed>2.5</speed>
<temp>0.00</temp>
<bpm>0</bpm>
<rpm>0.00</rpm>
</extensions>
</trkpt>
<trkpt lat="64.180488586" lon="-21.590253830">
<ele>65.458984</ele>
<time>2012-07-18T15:21:05Z</time>
<speed>3.170000</speed>
<extensions>
<speed>3.2</speed>
<temp>0.00</temp>
<bpm>0</bpm>
<rpm>0.00</rpm>
</extensions>
</trkpt>
<trkpt lat="64.180496216" lon="-21.589916229">
<ele>65.005859</ele>
<time>2012-07-18T15:21:10Z</time>
<speed>3.640000</speed>
<extensions>
<speed>3.6</speed>
<temp>0.00</temp>
<bpm>0</bpm>
<rpm>0.00</rpm>
</extensions>
</trkpt>
<trkpt lat="64.180503845" lon="-21.589530945">
<ele>64.574219</ele>
<time>2012-07-18T15:21:15Z</time>
<speed>4.030000</speed>
<extensions>
<speed>4.0</speed>
<temp>0.00</temp>
<bpm>0</bpm>
<rpm>0.00</rpm>
</extensions>
</trkpt>
<trkpt lat="64.180526733" lon="-21.589113235">
<ele>64.375000</ele>
<time>2012-07-18T15:21:20Z</time>
<speed>3.730000</speed>
<extensions>
<speed>3.7</speed>
<temp>0.00</temp>
<bpm>0</bpm>
<rpm>0.00</rpm>
</extensions>
</trkpt>
<trkpt lat="64.180541992" lon="-21.588745117">
<ele>64.626953</ele>
<time>2012-07-18T15:21:25Z</time>
<speed>3.680000</speed>
<extensions>
<speed>3.7</speed>
<temp>0.00</temp>
<bpm>0</bpm>
<rpm>0.00</rpm>
</extensions>
</trkpt>
<trkpt lat="64.180564880" lon="-21.588333130">
<ele>65.179688</ele>
<time>2012-07-18T15:21:30Z</time>
<speed>4.070000</speed>
<extensions>
<speed>4.1</speed>
<temp>0.00</temp>
<bpm>0</bpm>
<rpm>0.00</rpm>
</extensions>
</trkpt>
<trkpt lat="64.180595398" lon="-21.587945938">
<ele>65.507813</ele>
<time>2012-07-18T15:21:35Z</time>
<speed>3.310000</speed>
<extensions>
<speed>3.3</speed>
<temp>0.00</temp>
<bpm>0</bpm>
<rpm>0.00</rpm>
</extensions>
</trkpt>
<trkpt lat="64.180625916" lon="-21.587587357">
<ele>66.937500</ele>
<time>2012-07-18T15:21:40Z</time>
<speed>3.030000</speed>
<extensions>
<speed>3.0</speed>
<temp>0.00</temp>
<bpm>0</bpm>
<rpm>0.00</rpm>
</extensions>
</trkpt>
<trkpt lat="64.180656433" lon="-21.587251663">
<ele>67.761719</ele>
<time>2012-07-18T15:21:45Z</time>
<speed>3.160000</speed>
<extensions>
<speed>3.2</speed>
<temp>0.00</temp>
<bpm>0</bpm>
<rpm>0.00</rpm>
</extensions>
</trkpt>
<trkpt lat="64.180694580" lon="-21.586942673">
<ele>68.576172</ele>
<time>2012-07-18T15:21:50Z</time>
<speed>2.970000</speed>
<extensions>
<speed>3.0</speed>
<temp>0.00</temp>
<bpm>0</bpm>
<rpm>0.00</rpm>
</extensions>
</trkpt>
<trkpt lat="64.180725098" lon="-21.586637497">
<ele>69.445313</ele>
<time>2012-07-18T15:21:55Z</time>
<speed>2.960000</speed>
<extensions>
<speed>3.0</speed>
<temp>0.00</temp>
<bpm>0</bpm>
<rpm>0.00</rpm>
</extensions>
</trkpt>
<trkpt lat="64.180755615" lon="-21.586345673">
<ele>70.353516</ele>
<time>2012-07-18T15:22:00Z</time>
<speed>2.950000</speed>
<extensions>
<speed>2.9</speed>
<temp>0.00</temp>
<bpm>0</bpm>
<rpm>0.00</rpm>
</extensions>
</trkpt>
<trkpt lat="64.180793762" lon="-21.586042404">
<ele>70.894531</ele>
<time>2012-07-18T15:22:05Z</time>
<speed>2.970000</speed>
<extensions>
<speed>3.0</speed>
<temp>0.00</temp>
<bpm>0</bpm>
<rpm>0.00</rpm>
</extensions>
</trkpt>
<trkpt lat="64.180839539" lon="-21.585750580">
<ele>71.736328</ele>
<time>2012-07-18T15:22:10Z</time>
<speed>2.940000</speed>
<extensions>
<speed>2.9</speed>
<temp>0.00</temp>
<bpm>0</bpm>
<rpm>0.00</rpm>
</extensions>
</trkpt>
<trkpt lat="64.180877686" lon="-21.585472107">
<ele>72.900391</ele>
<time>2012-07-18T15:22:15Z</time>
<speed>2.880000</speed>
<extensions>
<speed>2.9</speed>
<temp>0.00</temp>
<bpm>0</bpm>
<rpm>0.00</rpm>
</extensions>
</trkpt>
<trkpt lat="64.180923462" lon="-21.585191727">
<ele>73.583984</ele>
<time>2012-07-18T15:22:20Z</time>
<speed>2.970000</speed>
<extensions>
<speed>3.0</speed>
<temp>0.00</temp>
<bpm>0</bpm>
<rpm>0.00</rpm>
</extensions>
</trkpt>
<trkpt lat="64.180969238" lon="-21.584901810">
<ele>74.742188</ele>
<time>2012-07-18T15:22:25Z</time>
<speed>3.010000</speed>
<extensions>
<speed>3.0</speed>
<temp>0.00</temp>
<bpm>0</bpm>
<rpm>0.00</rpm>
</extensions>
</trkpt>
<trkpt lat="64.181022644" lon="-21.584615707">
<ele>75.933594</ele>
<time>2012-07-18T15:22:30Z</time>
<speed>2.690000</speed>
<extensions>
<speed>2.7</speed>
<temp>0.00</temp>
<bpm>0</bpm>
<rpm>0.00</rpm>
</extensions>
</trkpt>
<trkpt lat="64.181068420" lon="-21.584360123">
<ele>76.587891</ele>
<time>2012-07-18T15:22:35Z</time>
<speed>2.850000</speed>
<extensions>
<speed>2.9</speed>
<temp>0.00</temp>
<bpm>0</bpm>
<rpm>0.00</rpm>
</extensions>
</trkpt>
<trkpt lat="64.181114197" lon="-21.584081650">
<ele>76.955078</ele>
<time>2012-07-18T15:22:40Z</time>
<speed>3.060000</speed>
<extensions>
<speed>3.1</speed>
<temp>0.00</temp>
<bpm>0</bpm>
<rpm>0.00</rpm>
</extensions>
</trkpt>
<trkpt lat="64.181144714" lon="-21.583881378">
<ele>76.888672</ele>
<time>2012-07-18T15:22:45Z</time>
<speed>1.310000</speed>
<extensions>
<speed>1.3</speed>
<temp>0.00</temp>
<bpm>0</bpm>
<rpm>0.00</rpm>
</extensions>
</trkpt>
<trkpt lat="64.181167603" lon="-21.583730698">
<ele>77.312500</ele>
<time>2012-07-18T15:22:50Z</time>
<speed>1.840000</speed>
<extensions>
<speed>1.8</speed>
<temp>0.00</temp>
<bpm>0</bpm>
<rpm>0.00</rpm>
</extensions>
</trkpt>
<trkpt lat="64.181213379" lon="-21.583503723">
<ele>77.546875</ele>
<time>2012-07-18T15:22:55Z</time>
<speed>2.520000</speed>
<extensions>
<speed>2.5</speed>
<temp>0.00</temp>
<bpm>0</bpm>
<rpm>0.00</rpm>
</extensions>
</trkpt>
<trkpt lat="64.181266785" lon="-21.583255768">
<ele>77.767578</ele>
<time>2012-07-18T15:23:00Z</time>
<speed>3.030000</speed>
<extensions>
<speed>3.0</speed>
<temp>0.00</temp>
<bpm>0</bpm>
<rpm>0.00</rpm>
</extensions>
</trkpt>
<trkpt lat="64.181243896" lon="-21.582986832">
<ele>78.240234</ele>
<time>2012-07-18T15:23:05Z</time>
<speed>2.880000</speed>
<extensions>
<speed>2.9</speed>
<temp>0.00</temp>
<bpm>0</bpm>
<rpm>0.00</rpm>
</extensions>
</trkpt>
<trkpt lat="64.181175232" lon="-21.583152771">
<ele>78.064453</ele>
<time>2012-07-18T15:23:10Z</time>
<speed>2.650000</speed>
<extensions>
<speed>2.6</speed>
<temp>0.00</temp>
<bpm>0</bpm>
<rpm>0.00</rpm>
</extensions>
</trkpt>
<trkpt lat="64.181137085" lon="-21.583229065">
<ele>77.882813</ele>
<time>2012-07-18T15:23:15Z</time>
<speed>0.020000</speed>
<extensions>
<speed>0.0</speed>
<temp>0.00</temp>
<bpm>0</bpm>
<rpm>0.00</rpm>
</extensions>
</trkpt>
<trkpt lat="64.181137085" lon="-21.583229065">
<ele>77.951172</ele>
<time>2012-07-18T15:23:20Z</time>
<speed>0.030000</speed>
<extensions>
<speed>0.0</speed>
<temp>0.00</temp>
<bpm>0</bpm>
<rpm>0.00</rpm>
</extensions>
</trkpt>
<trkpt lat="64.181137085" lon="-21.583232880">
<ele>78.011719</ele>
<time>2012-07-18T15:23:25Z</time>
<speed>0.030000</speed>
<extensions>
<speed>0.0</speed>
<temp>0.00</temp>
<bpm>0</bpm>
<rpm>0.00</rpm>
</extensions>
</trkpt>
<trkpt lat="64.181137085" lon="-21.583232880">
<ele>78.027344</ele>
<time>2012-07-18T15:23:30Z</time>
<speed>0.080000</speed>
<extensions>
<speed>0.1</speed>
<temp>0.00</temp>
<bpm>0</bpm>
<rpm>0.00</rpm>
</extensions>
</trkpt>
<trkpt lat="64.181137085" lon="-21.583234787">
<ele>78.099609</ele>
<time>2012-07-18T15:23:35Z</time>
<speed>0.640000</speed>
<extensions>
<speed>0.6</speed>
<temp>0.00</temp>
<bpm>0</bpm>
<rpm>0.00</rpm>
</extensions>
</trkpt>
<trkpt lat="64.181129456" lon="-21.583276749">
<ele>78.003906</ele>
<time>2012-07-18T15:23:40Z</time>
<speed>0.700000</speed>
<extensions>
<speed>0.7</speed>
<temp>0.00</temp>
<bpm>0</bpm>
<rpm>0.00</rpm>
</extensions>
</trkpt>
<trkpt lat="64.181167603" lon="-21.583335876">
<ele>77.724609</ele>
<time>2012-07-18T15:23:45Z</time>
<speed>0.270000</speed>
<extensions>
<speed>0.3</speed>
<temp>0.00</temp>
<bpm>0</bpm>
<rpm>0.00</rpm>
</extensions>
</trkpt>
<trkpt lat="64.181167603" lon="-21.583330154">
<ele>77.316406</ele>
<time>2012-07-18T15:23:50Z</time>
<speed>1.100000</speed>
<extensions>
<speed>1.1</speed>
<temp>0.00</temp>
<bpm>0</bpm>
<rpm>0.00</rpm>
</extensions>
</trkpt>
<trkpt lat="64.181175232" lon="-21.583330154">
<ele>77.099609</ele>
<time>2012-07-18T15:23:55Z</time>
<speed>0.010000</speed>
<extensions>
<speed>0.0</speed>
<temp>0.00</temp>
<bpm>0</bpm>
<rpm>0.00</rpm>
</extensions>
</trkpt>
<trkpt lat="64.181175232" lon="-21.583330154">
<ele>77.134766</ele>
<time>2012-07-18T15:24:00Z</time>
<extensions>
<speed>0.0</speed>
<temp>0.00</temp>
<bpm>0</bpm>
<rpm>0.00</rpm>
</extensions>
</trkpt>
<trkpt lat="64.181175232" lon="-21.583330154">
<ele>77.093750</ele>
<time>2012-07-18T15:24:05Z</time>
<extensions>
<speed>0.0</speed>
<temp>0.00</temp>
<bpm>0</bpm>
<rpm>0.00</rpm>
</extensions>
</trkpt>
<trkpt lat="64.181175232" lon="-21.583332062">
<ele>77.089844</ele>
<time>2012-07-18T15:24:10Z</time>
<speed>0.410000</speed>
<extensions>
<speed>0.4</speed>
<temp>0.00</temp>
<bpm>0</bpm>
<rpm>0.00</rpm>
</extensions>
</trkpt>
<trkpt lat="64.181175232" lon="-21.583337784">
<ele>77.322266</ele>
<time>2012-07-18T15:24:15Z</time>
<speed>0.070000</speed>
<extensions>
<speed>0.1</speed>
<temp>0.00</temp>
<bpm>0</bpm>
<rpm>0.00</rpm>
</extensions>
</trkpt>
<trkpt lat="64.181190491" lon="-21.583303452">
<ele>77.990234</ele>
<time>2012-07-18T15:24:20Z</time>
<speed>0.740000</speed>
<extensions>
<speed>0.7</speed>
<temp>0.00</temp>
<bpm>0</bpm>
<rpm>0.00</rpm>
</extensions>
</trkpt>
<trkpt lat="64.181152344" lon="-21.583269119">
<ele>76.283203</ele>
<time>2012-07-18T15:24:25Z</time>
<speed>0.500000</speed>
<extensions>
<speed>0.5</speed>
<temp>0.00</temp>
<bpm>0</bpm>
<rpm>0.00</rpm>
</extensions>
</trkpt>
<trkpt lat="64.181137085" lon="-21.583227158">
<ele>75.958984</ele>
<time>2012-07-18T15:24:30Z</time>
<speed>0.020000</speed>
<extensions>
<speed>0.0</speed>
<temp>0.00</temp>
<bpm>0</bpm>
<rpm>0.00</rpm>
</extensions>
</trkpt>
<trkpt lat="64.181137085" lon="-21.583227158">
<ele>75.679688</ele>
<time>2012-07-18T15:24:35Z</time>
<speed>0.030000</speed>
<extensions>
<speed>0.0</speed>
<temp>0.00</temp>
<bpm>0</bpm>
<rpm>0.00</rpm>
</extensions>
</trkpt>
<trkpt lat="64.181129456" lon="-21.583227158">
<ele>75.644531</ele>
<time>2012-07-18T15:24:40Z</time>
<speed>0.010000</speed>
<extensions>
<speed>0.0</speed>
<temp>0.00</temp>
<bpm>0</bpm>
<rpm>0.00</rpm>
</extensions>
</trkpt>
<trkpt lat="64.181129456" lon="-21.583225250">
<ele>75.673828</ele>
<time>2012-07-18T15:24:45Z</time>
<speed>0.010000</speed>
<extensions>
<speed>0.0</speed>
<temp>0.00</temp>
<bpm>0</bpm>
<rpm>0.00</rpm>
</extensions>
</trkpt>
<trkpt lat="64.181129456" lon="-21.583225250">
<ele>75.673828</ele>
<time>2012-07-18T15:24:50Z</time>
<extensions>
<speed>0.0</speed>
<temp>0.00</temp>
<bpm>0</bpm>
<rpm>0.00</rpm>
</extensions>
</trkpt>
<trkpt lat="64.181129456" lon="-21.583225250">
<ele>75.666016</ele>
<time>2012-07-18T15:24:55Z</time>
<extensions>
<speed>0.0</speed>
<temp>0.00</temp>
<bpm>0</bpm>
<rpm>0.00</rpm>
</extensions>
</trkpt>
<trkpt lat="64.181129456" lon="-21.583225250">
<ele>75.671875</ele>
<time>2012-07-18T15:25:00Z</time>
<speed>0.010000</speed>
<extensions>
<speed>0.0</speed>
<temp>0.00</temp>
<bpm>0</bpm>
<rpm>0.00</rpm>
</extensions>
</trkpt>
<trkpt lat="64.181129456" lon="-21.583225250">
<ele>75.677734</ele>
<time>2012-07-18T15:25:05Z</time>
<extensions>
<speed>0.0</speed>
<temp>0.00</temp>
<bpm>0</bpm>
<rpm>0.00</rpm>
</extensions>
</trkpt>
<trkpt lat="64.181129456" lon="-21.583225250">
<ele>75.673828</ele>
<time>2012-07-18T15:25:10Z</time>
<extensions>
<speed>0.0</speed>
<temp>0.00</temp>
<bpm>0</bpm>
<rpm>0.00</rpm>
</extensions>
</trkpt>
<trkpt lat="64.181129456" lon="-21.583225250">
<ele>75.666016</ele>
<time>2012-07-18T15:25:15Z</time>
<extensions>
<speed>0.0</speed>
<temp>0.00</temp>
<bpm>0</bpm>
<rpm>0.00</rpm>
</extensions>
</trkpt>
<trkpt lat="64.181129456" lon="-21.583225250">
<ele>75.662109</ele>
<time>2012-07-18T15:25:20Z</time>
<speed>0.030000</speed>
<extensions>
<speed>0.0</speed>
<temp>0.00</temp>
<bpm>0</bpm>
<rpm>0.00</rpm>
</extensions>
</trkpt>
<trkpt lat="64.181129456" lon="-21.583227158">
<ele>75.646484</ele>
<time>2012-07-18T15:25:25Z</time>
<extensions>
<speed>0.0</speed>
<temp>0.00</temp>
<bpm>0</bpm>
<rpm>0.00</rpm>
</extensions>
</trkpt>
<trkpt lat="64.181129456" lon="-21.583227158">
<ele>75.626953</ele>
<time>2012-07-18T15:25:30Z</time>
<extensions>
<speed>0.0</speed>
<temp>0.00</temp>
<bpm>0</bpm>
<rpm>0.00</rpm>
</extensions>
</trkpt>
<trkpt lat="64.181129456" lon="-21.583227158">
<ele>75.601563</ele>
<time>2012-07-18T15:25:35Z</time>
<extensions>
<speed>0.0</speed>
<temp>0.00</temp>
<bpm>0</bpm>
<rpm>0.00</rpm>
</extensions>
</trkpt>
<trkpt lat="64.181129456" lon="-21.583227158">
<ele>75.580078</ele>
<time>2012-07-18T15:25:40Z</time>
<speed>0.010000</speed>
<extensions>
<speed>0.0</speed>
<temp>0.00</temp>
<bpm>0</bpm>
<rpm>0.00</rpm>
</extensions>
</trkpt>
<trkpt lat="64.181129456" lon="-21.583227158">
<ele>75.574219</ele>
<time>2012-07-18T15:25:45Z</time>
<extensions>
<speed>0.0</speed>
<temp>0.00</temp>
<bpm>0</bpm>
<rpm>0.00</rpm>
</extensions>
</trkpt>
<trkpt lat="64.181129456" lon="-21.583227158">
<ele>75.558594</ele>
<time>2012-07-18T15:25:50Z</time>
<extensions>
<speed>0.0</speed>
<temp>0.00</temp>
<bpm>0</bpm>
<rpm>0.00</rpm>
</extensions>
</trkpt>
<trkpt lat="64.181129456" lon="-21.583227158">
<ele>75.544922</ele>
<time>2012-07-18T15:25:55Z</time>
<extensions>
<speed>0.0</speed>
<temp>0.00</temp>
<bpm>0</bpm>
<rpm>0.00</rpm>
</extensions>
</trkpt>
<trkpt lat="64.181129456" lon="-21.583227158">
<ele>75.533203</ele>
<time>2012-07-18T15:26:00Z</time>
<extensions>
<speed>0.0</speed>
<temp>0.00</temp>
<bpm>0</bpm>
<rpm>0.00</rpm>
</extensions>
</trkpt>
<trkpt lat="64.181129456" lon="-21.583227158">
<ele>75.541016</ele>
<time>2012-07-18T15:26:05Z</time>
<extensions>
<speed>0.0</speed>
<temp>0.00</temp>
<bpm>0</bpm>
<rpm>0.00</rpm>
</extensions>
</trkpt>
<trkpt lat="64.181129456" lon="-21.583227158">
<ele>75.539063</ele>
<time>2012-07-18T15:26:10Z</time>
<speed>0.010000</speed>
<extensions>
<speed>0.0</speed>
<temp>0.00</temp>
<bpm>0</bpm>
<rpm>0.00</rpm>
</extensions>
</trkpt>
<trkpt lat="64.181129456" lon="-21.583227158">
<ele>75.541016</ele>
<time>2012-07-18T15:26:15Z</time>
<extensions>
<speed>0.0</speed>
<temp>0.00</temp>
<bpm>0</bpm>
<rpm>0.00</rpm>
</extensions>
</trkpt>
<trkpt lat="64.181129456" lon="-21.583227158">
<ele>75.550781</ele>
<time>2012-07-18T15:26:20Z</time>
<extensions>
<speed>0.0</speed>
<temp>0.00</temp>
<bpm>0</bpm>
<rpm>0.00</rpm>
</extensions>
</trkpt>
<trkpt lat="64.181129456" lon="-21.583227158">
<ele>75.558594</ele>
<time>2012-07-18T15:26:25Z</time>
<extensions>
<speed>0.0</speed>
<temp>0.00</temp>
<bpm>0</bpm>
<rpm>0.00</rpm>
</extensions>
</trkpt>
<trkpt lat="64.181129456" lon="-21.583227158">
<ele>75.568359</ele>
<time>2012-07-18T15:26:30Z</time>
<speed>0.010000</speed>
<extensions>
<speed>0.0</speed>
<temp>0.00</temp>
<bpm>0</bpm>
<rpm>0.00</rpm>
</extensions>
</trkpt>
<trkpt lat="64.181129456" lon="-21.583227158">
<ele>75.572266</ele>
<time>2012-07-18T15:26:35Z</time>
<extensions>
<speed>0.0</speed>
<temp>0.00</temp>
<bpm>0</bpm>
<rpm>0.00</rpm>
</extensions>
</trkpt>
<trkpt lat="64.181129456" lon="-21.583227158">
<ele>75.583984</ele>
<time>2012-07-18T15:26:40Z</time>
<extensions>
<speed>0.0</speed>
<temp>0.00</temp>
<bpm>0</bpm>
<rpm>0.00</rpm>
</extensions>
</trkpt>
<trkpt lat="64.181129456" lon="-21.583227158">
<ele>75.595703</ele>
<time>2012-07-18T15:26:45Z</time>
<speed>0.020000</speed>
<extensions>
<speed>0.0</speed>
<temp>0.00</temp>
<bpm>0</bpm>
<rpm>0.00</rpm>
</extensions>
</trkpt>
<trkpt lat="64.181129456" lon="-21.583227158">
<ele>75.605469</ele>
<time>2012-07-18T15:26:50Z</time>
<extensions>
<speed>0.0</speed>
<temp>0.00</temp>
<bpm>0</bpm>
<rpm>0.00</rpm>
</extensions>
</trkpt>
<trkpt lat="64.181129456" lon="-21.583227158">
<ele>75.613281</ele>
<time>2012-07-18T15:26:55Z</time>
<speed>0.010000</speed>
<extensions>
<speed>0.0</speed>
<temp>0.00</temp>
<bpm>0</bpm>
<rpm>0.00</rpm>
</extensions>
</trkpt>
<trkpt lat="64.181129456" lon="-21.583227158">
<ele>75.628906</ele>
<time>2012-07-18T15:27:00Z</time>
<speed>0.010000</speed>
<extensions>
<speed>0.0</speed>
<temp>0.00</temp>
<bpm>0</bpm>
<rpm>0.00</rpm>
</extensions>
</trkpt>
<trkpt lat="64.181129456" lon="-21.583227158">
<ele>75.630859</ele>
<time>2012-07-18T15:27:05Z</time>
<speed>0.010000</speed>
<extensions>
<speed>0.0</speed>
<temp>0.00</temp>
<bpm>0</bpm>
<rpm>0.00</rpm>
</extensions>
</trkpt>
<trkpt lat="64.181129456" lon="-21.583227158">
<ele>75.640625</ele>
<time>2012-07-18T15:27:10Z</time>
<extensions>
<speed>0.0</speed>
<temp>0.00</temp>
<bpm>0</bpm>
<rpm>0.00</rpm>
</extensions>
</trkpt>
<trkpt lat="64.181129456" lon="-21.583227158">
<ele>75.646484</ele>
<time>2012-07-18T15:27:15Z</time>
<extensions>
<speed>0.0</speed>
<temp>0.00</temp>
<bpm>0</bpm>
<rpm>0.00</rpm>
</extensions>
</trkpt>
<trkpt lat="64.181129456" lon="-21.583227158">
<ele>75.648438</ele>
<time>2012-07-18T15:27:20Z</time>
<speed>0.010000</speed>
<extensions>
<speed>0.0</speed>
<temp>0.00</temp>
<bpm>0</bpm>
<rpm>0.00</rpm>
</extensions>
</trkpt>
<trkpt lat="64.181129456" lon="-21.583227158">
<ele>75.640625</ele>
<time>2012-07-18T15:27:25Z</time>
<speed>0.020000</speed>
<extensions>
<speed>0.0</speed>
<temp>0.00</temp>
<bpm>0</bpm>
<rpm>0.00</rpm>
</extensions>
</trkpt>
<trkpt lat="64.181129456" lon="-21.583225250">
<ele>75.666016</ele>
<time>2012-07-18T15:27:30Z</time>
<extensions>
<speed>0.0</speed>
<temp>0.00</temp>
<bpm>0</bpm>
<rpm>0.00</rpm>
</extensions>
</trkpt>
<trkpt lat="64.181129456" lon="-21.583227158">
<ele>75.666016</ele>
<time>2012-07-18T15:27:35Z</time>
<speed>0.010000</speed>
<extensions>
<speed>0.0</speed>
<temp>0.00</temp>
<bpm>0</bpm>
<rpm>0.00</rpm>
</extensions>
</trkpt>
<trkpt lat="64.181129456" lon="-21.583227158">
<ele>75.656250</ele>
<time>2012-07-18T15:27:40Z</time>
<extensions>
<speed>0.0</speed>
<temp>0.00</temp>
<bpm>0</bpm>
<rpm>0.00</rpm>
</extensions>
</trkpt>
<trkpt lat="64.181129456" lon="-21.583227158">
<ele>75.636719</ele>
<time>2012-07-18T15:27:45Z</time>
<speed>0.020000</speed>
<extensions>
<speed>0.0</speed>
<temp>0.00</temp>
<bpm>0</bpm>
<rpm>0.00</rpm>
</extensions>
</trkpt>
<trkpt lat="64.181129456" lon="-21.583227158">
<ele>75.648438</ele>
<time>2012-07-18T15:27:50Z</time>
<speed>0.010000</speed>
<extensions>
<speed>0.0</speed>
<temp>0.00</temp>
<bpm>0</bpm>
<rpm>0.00</rpm>
</extensions>
</trkpt>
<trkpt lat="64.181129456" lon="-21.583227158">
<ele>75.679688</ele>
<time>2012-07-18T15:27:55Z</time>
<speed>0.020000</speed>
<extensions>
<speed>0.0</speed>
<temp>0.00</temp>
<bpm>0</bpm>
<rpm>0.00</rpm>
</extensions>
</trkpt>
<trkpt lat="64.181129456" lon="-21.583227158">
<ele>75.697266</ele>
<time>2012-07-18T15:28:00Z</time>
<speed>0.010000</speed>
<extensions>
<speed>0.0</speed>
<temp>0.00</temp>
<bpm>0</bpm>
<rpm>0.00</rpm>
</extensions>
</trkpt>
<trkpt lat="64.181129456" lon="-21.583227158">
<ele>75.703125</ele>
<time>2012-07-18T15:28:05Z</time>
<speed>0.060000</speed>
<extensions>
<speed>0.1</speed>
<temp>0.00</temp>
<bpm>0</bpm>
<rpm>0.00</rpm>
</extensions>
</trkpt>
<trkpt lat="64.181137085" lon="-21.583204269">
<ele>75.916016</ele>
<time>2012-07-18T15:28:10Z</time>
<speed>1.290000</speed>
<extensions>
<speed>1.3</speed>
<temp>0.00</temp>
<bpm>0</bpm>
<rpm>0.00</rpm>
</extensions>
</trkpt>
<trkpt lat="64.181182861" lon="-21.583053589">
<ele>77.230469</ele>
<time>2012-07-18T15:28:15Z</time>
<speed>2.090000</speed>
<extensions>
<speed>2.1</speed>
<temp>0.00</temp>
<bpm>0</bpm>
<rpm>0.00</rpm>
</extensions>
</trkpt>
<trkpt lat="64.181221008" lon="-21.582881927">
<ele>78.546875</ele>
<time>2012-07-18T15:28:20Z</time>
<speed>1.640000</speed>
<extensions>
<speed>1.6</speed>
<temp>0.00</temp>
<bpm>0</bpm>
<rpm>0.00</rpm>
</extensions>
</trkpt>
<trkpt lat="64.181251526" lon="-21.582818985">
<ele>78.062500</ele>
<time>2012-07-18T15:28:25Z</time>
<speed>1.040000</speed>
<extensions>
<speed>1.0</speed>
<temp>0.00</temp>
<bpm>0</bpm>
<rpm>0.00</rpm>
</extensions>
</trkpt>
<trkpt lat="64.181236267" lon="-21.582681656">
<ele>77.578125</ele>
<time>2012-07-18T15:28:30Z</time>
<speed>3.330000</speed>
<extensions>
<speed>3.3</speed>
<temp>0.00</temp>
<bpm>0</bpm>
<rpm>0.00</rpm>
</extensions>
</trkpt>
<trkpt lat="64.181167603" lon="-21.582357407">
<ele>79.396484</ele>
<time>2012-07-18T15:28:35Z</time>
<speed>2.650000</speed>
<extensions>
<speed>2.6</speed>
<temp>0.00</temp>
<bpm>0</bpm>
<rpm>0.00</rpm>
</extensions>
</trkpt>
<trkpt lat="64.181121826" lon="-21.582153320">
<ele>80.480469</ele>
<time>2012-07-18T15:28:40Z</time>
<speed>1.570000</speed>
<extensions>
<speed>1.6</speed>
<temp>0.00</temp>
<bpm>0</bpm>
<rpm>0.00</rpm>
</extensions>
</trkpt>
<trkpt lat="64.181076050" lon="-21.582109451">
<ele>80.876953</ele>
<time>2012-07-18T15:28:45Z</time>
<speed>1.160000</speed>
<extensions>
<speed>1.2</speed>
<temp>0.00</temp>
<bpm>0</bpm>
<rpm>0.00</rpm>
</extensions>
</trkpt>
<trkpt lat="64.181121826" lon="-21.582164764">
<ele>80.562500</ele>
<time>2012-07-18T15:28:50Z</time>
<speed>2.200000</speed>
<extensions>
<speed>2.2</speed>
<temp>0.00</temp>
<bpm>0</bpm>
<rpm>0.00</rpm>
</extensions>
</trkpt>
<trkpt lat="64.181190491" lon="-21.582490921">
<ele>79.136719</ele>
<time>2012-07-18T15:28:55Z</time>
<speed>4.830000</speed>
<extensions>
<speed>4.8</speed>
<temp>0.00</temp>
<bpm>0</bpm>
<rpm>0.00</rpm>
</extensions>
</trkpt>
<trkpt lat="64.181266785" lon="-21.582769394">
<ele>78.154297</ele>
<time>2012-07-18T15:29:00Z</time>
<speed>0.410000</speed>
<extensions>
<speed>0.4</speed>
<temp>0.00</temp>
<bpm>0</bpm>
<rpm>0.00</rpm>
</extensions>
</trkpt>
<trkpt lat="64.181266785" lon="-21.582752228">
<ele>77.744141</ele>
<time>2012-07-18T15:29:05Z</time>
<speed>0.010000</speed>
<extensions>
<speed>0.0</speed>
<temp>0.00</temp>
<bpm>0</bpm>
<rpm>0.00</rpm>
</extensions>
</trkpt>
<trkpt lat="64.181266785" lon="-21.582756042">
<ele>77.822266</ele>
<time>2012-07-18T15:29:10Z</time>
<speed>0.010000</speed>
<extensions>
<speed>0.0</speed>
<temp>0.00</temp>
<bpm>0</bpm>
<rpm>0.00</rpm>
</extensions>
</trkpt>
<trkpt lat="64.181274414" lon="-21.582771301">
<ele>77.945313</ele>
<time>2012-07-18T15:29:15Z</time>
<speed>0.620000</speed>
<extensions>
<speed>0.6</speed>
<temp>0.00</temp>
<bpm>0</bpm>
<rpm>0.00</rpm>
</extensions>
</trkpt>
<trkpt lat="64.181289673" lon="-21.582866669">
<ele>78.283203</ele>
<time>2012-07-18T15:29:20Z</time>
<speed>1.250000</speed>
<extensions>
<speed>1.3</speed>
<temp>0.00</temp>
<bpm>0</bpm>
<rpm>0.00</rpm>
</extensions>
</trkpt>
<trkpt lat="64.181335449" lon="-21.582921982">
<ele>77.623047</ele>
<time>2012-07-18T15:29:25Z</time>
<speed>1.560000</speed>
<extensions>
<speed>1.6</speed>
<temp>0.00</temp>
<bpm>0</bpm>
<rpm>0.00</rpm>
</extensions>
</trkpt>
<trkpt lat="64.181373596" lon="-21.582761765">
<ele>77.382813</ele>
<time>2012-07-18T15:29:30Z</time>
<speed>1.850000</speed>
<extensions>
<speed>1.8</speed>
<temp>0.00</temp>
<bpm>0</bpm>
<rpm>0.00</rpm>
</extensions>
</trkpt>
<trkpt lat="64.181404114" lon="-21.582569122">
<ele>77.376953</ele>
<time>2012-07-18T15:29:35Z</time>
<speed>1.880000</speed>
<extensions>
<speed>1.9</speed>
<temp>0.00</temp>
<bpm>0</bpm>
<rpm>0.00</rpm>
</extensions>
</trkpt>
<trkpt lat="64.181434631" lon="-21.582393646">
<ele>77.468750</ele>
<time>2012-07-18T15:29:40Z</time>
<speed>1.840000</speed>
<extensions>
<speed>1.8</speed>
<temp>0.00</temp>
<bpm>0</bpm>
<rpm>0.00</rpm>
</extensions>
</trkpt>
<trkpt lat="64.181465149" lon="-21.582231522">
<ele>78.111328</ele>
<time>2012-07-18T15:29:45Z</time>
<speed>1.740000</speed>
<extensions>
<speed>1.7</speed>
<temp>0.00</temp>
<bpm>0</bpm>
<rpm>0.00</rpm>
</extensions>
</trkpt>
<trkpt lat="64.181503296" lon="-21.582109451">
<ele>78.808594</ele>
<time>2012-07-18T15:29:50Z</time>
<speed>1.450000</speed>
<extensions>
<speed>1.4</speed>
<temp>0.00</temp>
<bpm>0</bpm>
<rpm>0.00</rpm>
</extensions>
</trkpt>
<trkpt lat="64.181533813" lon="-21.581939697">
<ele>79.289063</ele>
<time>2012-07-18T15:29:55Z</time>
<speed>1.740000</speed>
<extensions>
<speed>1.7</speed>
<temp>0.00</temp>
<bpm>0</bpm>
<rpm>0.00</rpm>
</extensions>
</trkpt>
<trkpt lat="64.181556702" lon="-21.581790924">
<ele>80.630859</ele>
<time>2012-07-18T15:30:00Z</time>
<speed>1.590000</speed>
<extensions>
<speed>1.6</speed>
<temp>0.00</temp>
<bpm>0</bpm>
<rpm>0.00</rpm>
</extensions>
</trkpt>
<trkpt lat="64.181594849" lon="-21.581598282">
<ele>82.787109</ele>
<time>2012-07-18T15:30:05Z</time>
<speed>1.350000</speed>
<extensions>
<speed>1.4</speed>
<temp>0.00</temp>
<bpm>0</bpm>
<rpm>0.00</rpm>
</extensions>
</trkpt>
<trkpt lat="64.181617737" lon="-21.581493378">
<ele>83.531250</ele>
<time>2012-07-18T15:30:10Z</time>
<speed>1.150000</speed>
<extensions>
<speed>1.1</speed>
<temp>0.00</temp>
<bpm>0</bpm>
<rpm>0.00</rpm>
</extensions>
</trkpt>
<trkpt lat="64.181648254" lon="-21.581361771">
<ele>84.458984</ele>
<time>2012-07-18T15:30:15Z</time>
<speed>1.730000</speed>
<extensions>
<speed>1.7</speed>
<temp>0.00</temp>
<bpm>0</bpm>
<rpm>0.00</rpm>
</extensions>
</trkpt>
<trkpt lat="64.181678772" lon="-21.581180573">
<ele>85.308594</ele>
<time>2012-07-18T15:30:20Z</time>
<speed>1.710000</speed>
<extensions>
<speed>1.7</speed>
<temp>0.00</temp>
<bpm>0</bpm>
<rpm>0.00</rpm>
</extensions>
</trkpt>
<trkpt lat="64.181709290" lon="-21.581054688">
<ele>85.935547</ele>
<time>2012-07-18T15:30:25Z</time>
<speed>1.280000</speed>
<extensions>
<speed>1.3</speed>
<temp>0.00</temp>
<bpm>0</bpm>
<rpm>0.00</rpm>
</extensions>
</trkpt>
<trkpt lat="64.181732178" lon="-21.580924988">
<ele>86.265625</ele>
<time>2012-07-18T15:30:30Z</time>
<speed>1.510000</speed>
<extensions>
<speed>1.5</speed>
<temp>0.00</temp>
<bpm>0</bpm>
<rpm>0.00</rpm>
</extensions>
</trkpt>
<trkpt lat="64.181755066" lon="-21.580753326">
<ele>86.580078</ele>
<time>2012-07-18T15:30:35Z</time>
<speed>1.960000</speed>
<extensions>
<speed>2.0</speed>
<temp>0.00</temp>
<bpm>0</bpm>
<rpm>0.00</rpm>
</extensions>
</trkpt>
<trkpt lat="64.181785583" lon="-21.580615997">
<ele>87.011719</ele>
<time>2012-07-18T15:30:40Z</time>
<speed>1.400000</speed>
<extensions>
<speed>1.4</speed>
<temp>0.00</temp>
<bpm>0</bpm>
<rpm>0.00</rpm>
</extensions>
</trkpt>
<trkpt lat="64.181808472" lon="-21.580450058">
<ele>87.263672</ele>
<time>2012-07-18T15:30:45Z</time>
<speed>1.900000</speed>
<extensions>
<speed>1.9</speed>
<temp>0.00</temp>
<bpm>0</bpm>
<rpm>0.00</rpm>
</extensions>
</trkpt>
<trkpt lat="64.181838989" lon="-21.580293655">
<ele>87.863281</ele>
<time>2012-07-18T15:30:50Z</time>
<speed>1.780000</speed>
<extensions>
<speed>1.8</speed>
<temp>0.00</temp>
<bpm>0</bpm>
<rpm>0.00</rpm>
</extensions>
</trkpt>
<trkpt lat="64.181861877" lon="-21.580118179">
<ele>88.103516</ele>
<time>2012-07-18T15:30:55Z</time>
<speed>1.870000</speed>
<extensions>
<speed>1.9</speed>
<temp>0.00</temp>
<bpm>0</bpm>
<rpm>0.00</rpm>
</extensions>
</trkpt>
<trkpt lat="64.181884766" lon="-21.579916000">
<ele>88.396484</ele>
<time>2012-07-18T15:31:00Z</time>
<speed>2.640000</speed>
<extensions>
<speed>2.6</speed>
<temp>0.00</temp>
<bpm>0</bpm>
<rpm>0.00</rpm>
</extensions>
</trkpt>
<trkpt lat="64.181915283" lon="-21.579669952">
<ele>89.142578</ele>
<time>2012-07-18T15:31:05Z</time>
<speed>2.520000</speed>
<extensions>
<speed>2.5</speed>
<temp>0.00</temp>
<bpm>0</bpm>
<rpm>0.00</rpm>
</extensions>
</trkpt>
<trkpt lat="64.181945801" lon="-21.579410553">
<ele>90.232422</ele>
<time>2012-07-18T15:31:10Z</time>
<speed>2.810000</speed>
<extensions>
<speed>2.8</speed>
<temp>0.00</temp>
<bpm>0</bpm>
<rpm>0.00</rpm>
</extensions>
</trkpt>
<trkpt lat="64.181983948" lon="-21.579133987">
<ele>91.097656</ele>
<time>2012-07-18T15:31:15Z</time>
<speed>2.770000</speed>
<extensions>
<speed>2.8</speed>
<temp>0.00</temp>
<bpm>0</bpm>
<rpm>0.00</rpm>
</extensions>
</trkpt>
<trkpt lat="64.182022095" lon="-21.578857422">
<ele>91.849609</ele>
<time>2012-07-18T15:31:20Z</time>
<speed>2.730000</speed>
<extensions>
<speed>2.7</speed>
<temp>0.00</temp>
<bpm>0</bpm>
<rpm>0.00</rpm>
</extensions>
</trkpt>
<trkpt lat="64.182052612" lon="-21.578573227">
<ele>92.472656</ele>
<time>2012-07-18T15:31:25Z</time>
<speed>2.830000</speed>
<extensions>
<speed>2.8</speed>
<temp>0.00</temp>
<bpm>0</bpm>
<rpm>0.00</rpm>
</extensions>
</trkpt>
<trkpt lat="64.182090759" lon="-21.578252792">
<ele>93.318359</ele>
<time>2012-07-18T15:31:30Z</time>
<speed>2.700000</speed>
<extensions>
<speed>2.7</speed>
<temp>0.00</temp>
<bpm>0</bpm>
<rpm>0.00</rpm>
</extensions>
</trkpt>
<trkpt lat="64.182113647" lon="-21.578010559">
<ele>93.789063</ele>
<time>2012-07-18T15:31:35Z</time>
<speed>2.880000</speed>
<extensions>
<speed>2.9</speed>
<temp>0.00</temp>
<bpm>0</bpm>
<rpm>0.00</rpm>
</extensions>
</trkpt>
<trkpt lat="64.182144165" lon="-21.577688217">
<ele>94.857422</ele>
<time>2012-07-18T15:31:40Z</time>
<speed>3.310000</speed>
<extensions>
<speed>3.3</speed>
<temp>0.00</temp>
<bpm>0</bpm>
<rpm>0.00</rpm>
</extensions>
</trkpt>
<trkpt lat="64.182167053" lon="-21.577363968">
<ele>95.841797</ele>
<time>2012-07-18T15:31:45Z</time>
<speed>3.330000</speed>
<extensions>
<speed>3.3</speed>
<temp>0.00</temp>
<bpm>0</bpm>
<rpm>0.00</rpm>
</extensions>
</trkpt>
<trkpt lat="64.182197571" lon="-21.577022552">
<ele>96.896484</ele>
<time>2012-07-18T15:31:50Z</time>
<speed>3.570000</speed>
<extensions>
<speed>3.6</speed>
<temp>0.00</temp>
<bpm>0</bpm>
<rpm>0.00</rpm>
</extensions>
</trkpt>
<trkpt lat="64.182220459" lon="-21.576688766">
<ele>97.003906</ele>
<time>2012-07-18T15:31:55Z</time>
<speed>2.940000</speed>
<extensions>
<speed>2.9</speed>
<temp>0.00</temp>
<bpm>0</bpm>
<rpm>0.00</rpm>
</extensions>
</trkpt>
<trkpt lat="64.182250977" lon="-21.576360703">
<ele>97.734375</ele>
<time>2012-07-18T15:32:00Z</time>
<speed>3.320000</speed>
<extensions>
<speed>3.3</speed>
<temp>0.00</temp>
<bpm>0</bpm>
<rpm>0.00</rpm>
</extensions>
</trkpt>
<trkpt lat="64.182281494" lon="-21.576030731">
<ele>98.470703</ele>
<time>2012-07-18T15:32:05Z</time>
<speed>3.370000</speed>
<extensions>
<speed>3.4</speed>
<temp>0.00</temp>
<bpm>0</bpm>
<rpm>0.00</rpm>
</extensions>
</trkpt>
<trkpt lat="64.182312012" lon="-21.575683594">
<ele>99.361328</ele>
<time>2012-07-18T15:32:10Z</time>
<speed>3.250000</speed>
<extensions>
<speed>3.2</speed>
<temp>0.00</temp>
<bpm>0</bpm>
<rpm>0.00</rpm>
</extensions>
</trkpt>
<trkpt lat="64.182334900" lon="-21.575469971">
<ele>99.078125</ele>
<time>2012-07-18T15:32:15Z</time>
<speed>1.180000</speed>
<extensions>
<speed>1.2</speed>
<temp>0.00</temp>
<bpm>0</bpm>
<rpm>0.00</rpm>
</extensions>
</trkpt>
<trkpt lat="64.182342529" lon="-21.575353622">
<ele>99.138672</ele>
<time>2012-07-18T15:32:20Z</time>
<speed>2.240000</speed>
<extensions>
<speed>2.2</speed>
<temp>0.00</temp>
<bpm>0</bpm>
<rpm>0.00</rpm>
</extensions>
</trkpt>
<trkpt lat="64.182373047" lon="-21.575084686">
<ele>99.281250</ele>
<time>2012-07-18T15:32:25Z</time>
<speed>3.020000</speed>
<extensions>
<speed>3.0</speed>
<temp>0.00</temp>
<bpm>0</bpm>
<rpm>0.00</rpm>
</extensions>
</trkpt>
<trkpt lat="64.182411194" lon="-21.574762344">
<ele>99.900391</ele>
<time>2012-07-18T15:32:30Z</time>
<speed>3.170000</speed>
<extensions>
<speed>3.2</speed>
<temp>0.00</temp>
<bpm>0</bpm>
<rpm>0.00</rpm>
</extensions>
</trkpt>
<trkpt lat="64.182449341" lon="-21.574447632">
<ele>100.667969</ele>
<time>2012-07-18T15:32:35Z</time>
<speed>3.120000</speed>
<extensions>
<speed>3.1</speed>
<temp>0.00</temp>
<bpm>0</bpm>
<rpm>0.00</rpm>
</extensions>
</trkpt>
<trkpt lat="64.182479858" lon="-21.574131012">
<ele>101.015625</ele>
<time>2012-07-18T15:32:40Z</time>
<speed>3.320000</speed>
<extensions>
<speed>3.3</speed>
<temp>0.00</temp>
<bpm>0</bpm>
<rpm>0.00</rpm>
</extensions>
</trkpt>
<trkpt lat="64.182525635" lon="-21.573808670">
<ele>101.453125</ele>
<time>2012-07-18T15:32:45Z</time>
<speed>3.240000</speed>
<extensions>
<speed>3.2</speed>
<temp>0.00</temp>
<bpm>0</bpm>
<rpm>0.00</rpm>
</extensions>
</trkpt>
<trkpt lat="64.182571411" lon="-21.573482513">
<ele>101.417969</ele>
<time>2012-07-18T15:32:50Z</time>
<speed>3.540000</speed>
<extensions>
<speed>3.5</speed>
<temp>0.00</temp>
<bpm>0</bpm>
<rpm>0.00</rpm>
</extensions>
</trkpt>
<trkpt lat="64.182617188" lon="-21.573135376">
<ele>101.390625</ele>
<time>2012-07-18T15:32:55Z</time>
<speed>3.660000</speed>
<extensions>
<speed>3.7</speed>
<temp>0.00</temp>
<bpm>0</bpm>
<rpm>0.00</rpm>
</extensions>
</trkpt>
<trkpt lat="64.182670593" lon="-21.572784424">
<ele>101.412109</ele>
<time>2012-07-18T15:33:00Z</time>
<speed>3.340000</speed>
<extensions>
<speed>3.3</speed>
<temp>0.00</temp>
<bpm>0</bpm>
<rpm>0.00</rpm>
</extensions>
</trkpt>
<trkpt lat="64.182708740" lon="-21.572519302">
<ele>101.388672</ele>
<time>2012-07-18T15:33:05Z</time>
<speed>2.500000</speed>
<extensions>
<speed>2.5</speed>
<temp>0.00</temp>
<bpm>0</bpm>
<rpm>0.00</rpm>
</extensions>
</trkpt>
<trkpt lat="64.182777405" lon="-21.572229385">
<ele>102.486328</ele>
<time>2012-07-18T15:33:10Z</time>
<speed>3.340000</speed>
<extensions>
<speed>3.3</speed>
<temp>0.00</temp>
<bpm>0</bpm>
<rpm>0.00</rpm>
</extensions>
</trkpt>
<trkpt lat="64.182823181" lon="-21.571889877">
<ele>102.939453</ele>
<time>2012-07-18T15:33:15Z</time>
<speed>3.750000</speed>
<extensions>
<speed>3.8</speed>
<temp>0.00</temp>
<bpm>0</bpm>
<rpm>0.00</rpm>
</extensions>
</trkpt>
<trkpt lat="64.182891846" lon="-21.571533203">
<ele>103.519531</ele>
<time>2012-07-18T15:33:20Z</time>
<speed>3.970000</speed>
<extensions>
<speed>4.0</speed>
<temp>0.00</temp>
<bpm>0</bpm>
<rpm>0.00</rpm>
</extensions>
</trkpt>
<trkpt lat="64.182960510" lon="-21.571165085">
<ele>103.820313</ele>
<time>2012-07-18T15:33:25Z</time>
<speed>3.430000</speed>
<extensions>
<speed>3.4</speed>
<temp>0.00</temp>
<bpm>0</bpm>
<rpm>0.00</rpm>
</extensions>
</trkpt>
<trkpt lat="64.183029175" lon="-21.570858002">
<ele>104.302734</ele>
<time>2012-07-18T15:33:30Z</time>
<speed>3.700000</speed>
<extensions>
<speed>3.7</speed>
<temp>0.00</temp>
<bpm>0</bpm>
<rpm>0.00</rpm>
</extensions>
</trkpt>
<trkpt lat="64.183113098" lon="-21.570495605">
<ele>104.544922</ele>
<time>2012-07-18T15:33:35Z</time>
<speed>3.940000</speed>
<extensions>
<speed>3.9</speed>
<temp>0.00</temp>
<bpm>0</bpm>
<rpm>0.00</rpm>
</extensions>
</trkpt>
<trkpt lat="64.183197021" lon="-21.570138931">
<ele>104.935547</ele>
<time>2012-07-18T15:33:40Z</time>
<speed>3.850000</speed>
<extensions>
<speed>3.8</speed>
<temp>0.00</temp>
<bpm>0</bpm>
<rpm>0.00</rpm>
</extensions>
</trkpt>
<trkpt lat="64.183273315" lon="-21.569829941">
<ele>104.945313</ele>
<time>2012-07-18T15:33:45Z</time>
<speed>3.530000</speed>
<extensions>
<speed>3.5</speed>
<temp>0.00</temp>
<bpm>0</bpm>
<rpm>0.00</rpm>
</extensions>
</trkpt>
<trkpt lat="64.183357239" lon="-21.569488525">
<ele>105.253906</ele>
<time>2012-07-18T15:33:50Z</time>
<speed>4.090000</speed>
<extensions>
<speed>4.1</speed>
<temp>0.00</temp>
<bpm>0</bpm>
<rpm>0.00</rpm>
</extensions>
</trkpt>
<trkpt lat="64.183456421" lon="-21.569126129">
<ele>105.664063</ele>
<time>2012-07-18T15:33:55Z</time>
<speed>4.150000</speed>
<extensions>
<speed>4.1</speed>
<temp>0.00</temp>
<bpm>0</bpm>
<rpm>0.00</rpm>
</extensions>
</trkpt>
<trkpt lat="64.183547974" lon="-21.568801880">
<ele>105.968750</ele>
<time>2012-07-18T15:34:00Z</time>
<speed>3.370000</speed>
<extensions>
<speed>3.4</speed>
<temp>0.00</temp>
<bpm>0</bpm>
<rpm>0.00</rpm>
</extensions>
</trkpt>
<trkpt lat="64.183639526" lon="-21.568481445">
<ele>106.537109</ele>
<time>2012-07-18T15:34:05Z</time>
<speed>4.140000</speed>
<extensions>
<speed>4.1</speed>
<temp>0.00</temp>
<bpm>0</bpm>
<rpm>0.00</rpm>
</extensions>
</trkpt>
<trkpt lat="64.183731079" lon="-21.568119049">
<ele>106.953125</ele>
<time>2012-07-18T15:34:10Z</time>
<speed>3.750000</speed>
<extensions>
<speed>3.8</speed>
<temp>0.00</temp>
<bpm>0</bpm>
<rpm>0.00</rpm>
</extensions>
</trkpt>
<trkpt lat="64.183807373" lon="-21.567829132">
<ele>107.419922</ele>
<time>2012-07-18T15:34:15Z</time>
<speed>2.920000</speed>
<extensions>
<speed>2.9</speed>
<temp>0.00</temp>
<bpm>0</bpm>
<rpm>0.00</rpm>
</extensions>
</trkpt>
<trkpt lat="64.183891296" lon="-21.567504883">
<ele>107.457031</ele>
<time>2012-07-18T15:34:20Z</time>
<speed>3.850000</speed>
<extensions>
<speed>3.8</speed>
<temp>0.00</temp>
<bpm>0</bpm>
<rpm>0.00</rpm>
</extensions>
</trkpt>
<trkpt lat="64.183990479" lon="-21.567153931">
<ele>107.345703</ele>
<time>2012-07-18T15:34:25Z</time>
<speed>4.050000</speed>
<extensions>
<speed>4.0</speed>
<temp>0.00</temp>
<bpm>0</bpm>
<rpm>0.00</rpm>
</extensions>
</trkpt>
<trkpt lat="64.184082031" lon="-21.566818237">
<ele>107.857422</ele>
<time>2012-07-18T15:34:30Z</time>
<speed>3.930000</speed>
<extensions>
<speed>3.9</speed>
<temp>0.00</temp>
<bpm>0</bpm>
<rpm>0.00</rpm>
</extensions>
</trkpt>
<trkpt lat="64.184173584" lon="-21.566459656">
<ele>107.935547</ele>
<time>2012-07-18T15:34:35Z</time>
<speed>4.170000</speed>
<extensions>
<speed>4.2</speed>
<temp>0.00</temp>
<bpm>0</bpm>
<rpm>0.00</rpm>
</extensions>
</trkpt>
<trkpt lat="64.184265137" lon="-21.566104889">
<ele>108.060547</ele>
<time>2012-07-18T15:34:40Z</time>
<speed>3.750000</speed>
<extensions>
<speed>3.8</speed>
<temp>0.00</temp>
<bpm>0</bpm>
<rpm>0.00</rpm>
</extensions>
</trkpt>
<trkpt lat="64.184333801" lon="-21.565816879">
<ele>108.582031</ele>
<time>2012-07-18T15:34:45Z</time>
<speed>2.810000</speed>
<extensions>
<speed>2.8</speed>
<temp>0.00</temp>
<bpm>0</bpm>
<rpm>0.00</rpm>
</extensions>
</trkpt>
<trkpt lat="64.184387207" lon="-21.565612793">
<ele>109.005859</ele>
<time>2012-07-18T15:34:50Z</time>
<speed>2.390000</speed>
<extensions>
<speed>2.4</speed>
<temp>0.00</temp>
<bpm>0</bpm>
<rpm>0.00</rpm>
</extensions>
</trkpt>
<trkpt lat="64.184455872" lon="-21.565332413">
<ele>108.882813</ele>
<time>2012-07-18T15:34:55Z</time>
<speed>3.220000</speed>
<extensions>
<speed>3.2</speed>
<temp>0.00</temp>
<bpm>0</bpm>
<rpm>0.00</rpm>
</extensions>
</trkpt>
<trkpt lat="64.184532166" lon="-21.565011978">
<ele>108.847656</ele>
<time>2012-07-18T15:35:00Z</time>
<speed>3.430000</speed>
<extensions>
<speed>3.4</speed>
<temp>0.00</temp>
<bpm>0</bpm>
<rpm>0.00</rpm>
</extensions>
</trkpt>
<trkpt lat="64.184600830" lon="-21.564685822">
<ele>108.902344</ele>
<time>2012-07-18T15:35:05Z</time>
<speed>3.440000</speed>
<extensions>
<speed>3.4</speed>
<temp>0.00</temp>
<bpm>0</bpm>
<rpm>0.00</rpm>
</extensions>
</trkpt>
<trkpt lat="64.184669495" lon="-21.564367294">
<ele>109.285156</ele>
<time>2012-07-18T15:35:10Z</time>
<speed>3.350000</speed>
<extensions>
<speed>3.4</speed>
<temp>0.00</temp>
<bpm>0</bpm>
<rpm>0.00</rpm>
</extensions>
</trkpt>
<trkpt lat="64.184730530" lon="-21.564050674">
<ele>109.642578</ele>
<time>2012-07-18T15:35:15Z</time>
<speed>3.240000</speed>
<extensions>
<speed>3.2</speed>
<temp>0.00</temp>
<bpm>0</bpm>
<rpm>0.00</rpm>
</extensions>
</trkpt>
<trkpt lat="64.184791565" lon="-21.563739777">
<ele>109.837891</ele>
<time>2012-07-18T15:35:20Z</time>
<speed>3.330000</speed>
<extensions>
<speed>3.3</speed>
<temp>0.00</temp>
<bpm>0</bpm>
<rpm>0.00</rpm>
</extensions>
</trkpt>
<trkpt lat="64.184852600" lon="-21.563425064">
<ele>110.208984</ele>
<time>2012-07-18T15:35:25Z</time>
<speed>3.320000</speed>
<extensions>
<speed>3.3</speed>
<temp>0.00</temp>
<bpm>0</bpm>
<rpm>0.00</rpm>
</extensions>
</trkpt>
<trkpt lat="64.184913635" lon="-21.563098907">
<ele>110.863281</ele>
<time>2012-07-18T15:35:30Z</time>
<speed>3.440000</speed>
<extensions>
<speed>3.4</speed>
<temp>0.00</temp>
<bpm>0</bpm>
<rpm>0.00</rpm>
</extensions>
</trkpt>
<trkpt lat="64.184959412" lon="-21.562805176">
<ele>111.066406</ele>
<time>2012-07-18T15:35:35Z</time>
<speed>2.030000</speed>
<extensions>
<speed>2.0</speed>
<temp>0.00</temp>
<bpm>0</bpm>
<rpm>0.00</rpm>
</extensions>
</trkpt>
<trkpt lat="64.184982300" lon="-21.562681198">
<ele>111.207031</ele>
<time>2012-07-18T15:35:40Z</time>
<speed>1.320000</speed>
<extensions>
<speed>1.3</speed>
<temp>0.00</temp>
<bpm>0</bpm>
<rpm>0.00</rpm>
</extensions>
</trkpt>
<trkpt lat="64.185012817" lon="-21.562538147">
<ele>111.109375</ele>
<time>2012-07-18T15:35:45Z</time>
<speed>2.100000</speed>
<extensions>
<speed>2.1</speed>
<temp>0.00</temp>
<bpm>0</bpm>
<rpm>0.00</rpm>
</extensions>
</trkpt>
<trkpt lat="64.185043335" lon="-21.562299728">
<ele>111.052734</ele>
<time>2012-07-18T15:35:50Z</time>
<speed>2.760000</speed>
<extensions>
<speed>2.8</speed>
<temp>0.00</temp>
<bpm>0</bpm>
<rpm>0.00</rpm>
</extensions>
</trkpt>
<trkpt lat="64.185081482" lon="-21.562021255">
<ele>111.246094</ele>
<time>2012-07-18T15:35:55Z</time>
<speed>3.070000</speed>
<extensions>
<speed>3.1</speed>
<temp>0.00</temp>
<bpm>0</bpm>
<rpm>0.00</rpm>
</extensions>
</trkpt>
<trkpt lat="64.185119629" lon="-21.561708450">
<ele>111.296875</ele>
<time>2012-07-18T15:36:00Z</time>
<speed>3.120000</speed>
<extensions>
<speed>3.1</speed>
<temp>0.00</temp>
<bpm>0</bpm>
<rpm>0.00</rpm>
</extensions>
</trkpt>
<trkpt lat="64.185165405" lon="-21.561405182">
<ele>111.791016</ele>
<time>2012-07-18T15:36:05Z</time>
<speed>2.480000</speed>
<extensions>
<speed>2.5</speed>
<temp>0.00</temp>
<bpm>0</bpm>
<rpm>0.00</rpm>
</extensions>
</trkpt>
<trkpt lat="64.185195923" lon="-21.561203003">
<ele>112.126953</ele>
<time>2012-07-18T15:36:10Z</time>
<speed>2.210000</speed>
<extensions>
<speed>2.2</speed>
<temp>0.00</temp>
<bpm>0</bpm>
<rpm>0.00</rpm>
</extensions>
</trkpt>
<trkpt lat="64.185218811" lon="-21.560977936">
<ele>112.767578</ele>
<time>2012-07-18T15:36:15Z</time>
<speed>2.360000</speed>
<extensions>
<speed>2.4</speed>
<temp>0.00</temp>
<bpm>0</bpm>
<rpm>0.00</rpm>
</extensions>
</trkpt>
<trkpt lat="64.185249329" lon="-21.560743332">
<ele>113.468750</ele>
<time>2012-07-18T15:36:20Z</time>
<speed>2.360000</speed>
<extensions>
<speed>2.4</speed>
<temp>0.00</temp>
<bpm>0</bpm>
<rpm>0.00</rpm>
</extensions>
</trkpt>
<trkpt lat="64.185272217" lon="-21.560504913">
<ele>114.142578</ele>
<time>2012-07-18T15:36:25Z</time>
<speed>2.460000</speed>
<extensions>
<speed>2.5</speed>
<temp>0.00</temp>
<bpm>0</bpm>
<rpm>0.00</rpm>
</extensions>
</trkpt>
<trkpt lat="64.185302734" lon="-21.560253143">
<ele>114.976563</ele>
<time>2012-07-18T15:36:30Z</time>
<speed>2.670000</speed>
<extensions>
<speed>2.7</speed>
<temp>0.00</temp>
<bpm>0</bpm>
<rpm>0.00</rpm>
</extensions>
</trkpt>
<trkpt lat="64.185325623" lon="-21.559974670">
<ele>115.390625</ele>
<time>2012-07-18T15:36:35Z</time>
<speed>2.750000</speed>
<extensions>
<speed>2.7</speed>
<temp>0.00</temp>
<bpm>0</bpm>
<rpm>0.00</rpm>
</extensions>
</trkpt>
<trkpt lat="64.185340881" lon="-21.559703827">
<ele>116.167969</ele>
<time>2012-07-18T15:36:40Z</time>
<speed>2.730000</speed>
<extensions>
<speed>2.7</speed>
<temp>0.00</temp>
<bpm>0</bpm>
<rpm>0.00</rpm>
</extensions>
</trkpt>
<trkpt lat="64.185371399" lon="-21.559431076">
<ele>116.751953</ele>
<time>2012-07-18T15:36:45Z</time>
<speed>2.690000</speed>
<extensions>
<speed>2.7</speed>
<temp>0.00</temp>
<bpm>0</bpm>
<rpm>0.00</rpm>
</extensions>
</trkpt>
<trkpt lat="64.185386658" lon="-21.559154510">
<ele>117.111328</ele>
<time>2012-07-18T15:36:50Z</time>
<speed>2.740000</speed>
<extensions>
<speed>2.7</speed>
<temp>0.00</temp>
<bpm>0</bpm>
<rpm>0.00</rpm>
</extensions>
</trkpt>
<trkpt lat="64.185417175" lon="-21.558874130">
<ele>117.300781</ele>
<time>2012-07-18T15:36:55Z</time>
<speed>2.890000</speed>
<extensions>
<speed>2.9</speed>
<temp>0.00</temp>
<bpm>0</bpm>
<rpm>0.00</rpm>
</extensions>
</trkpt>
<trkpt lat="64.185432434" lon="-21.558612823">
<ele>117.591797</ele>
<time>2012-07-18T15:37:00Z</time>
<speed>1.730000</speed>
<extensions>
<speed>1.7</speed>
<temp>0.00</temp>
<bpm>0</bpm>
<rpm>0.00</rpm>
</extensions>
</trkpt>
<trkpt lat="64.185447693" lon="-21.558435440">
<ele>117.761719</ele>
<time>2012-07-18T15:37:05Z</time>
<speed>1.740000</speed>
<extensions>
<speed>1.7</speed>
<temp>0.00</temp>
<bpm>0</bpm>
<rpm>0.00</rpm>
</extensions>
</trkpt>
<trkpt lat="64.185470581" lon="-21.558284760">
<ele>117.222656</ele>
<time>2012-07-18T15:37:10Z</time>
<speed>1.930000</speed>
<extensions>
<speed>1.9</speed>
<temp>0.00</temp>
<bpm>0</bpm>
<rpm>0.00</rpm>
</extensions>
</trkpt>
<trkpt lat="64.185478210" lon="-21.558076859">
<ele>117.789063</ele>
<time>2012-07-18T15:37:15Z</time>
<speed>2.010000</speed>
<extensions>
<speed>2.0</speed>
<temp>0.00</temp>
<bpm>0</bpm>
<rpm>0.00</rpm>
</extensions>
</trkpt>
<trkpt lat="64.185485840" lon="-21.557893753">
<ele>118.191406</ele>
<time>2012-07-18T15:37:20Z</time>
<speed>1.580000</speed>
<extensions>
<speed>1.6</speed>
<temp>0.00</temp>
<bpm>0</bpm>
<rpm>0.00</rpm>
</extensions>
</trkpt>
<trkpt lat="64.185501099" lon="-21.557718277">
<ele>118.779297</ele>
<time>2012-07-18T15:37:25Z</time>
<speed>1.680000</speed>
<extensions>
<speed>1.7</speed>
<temp>0.00</temp>
<bpm>0</bpm>
<rpm>0.00</rpm>
</extensions>
</trkpt>
<trkpt lat="64.185508728" lon="-21.557527542">
<ele>119.226563</ele>
<time>2012-07-18T15:37:30Z</time>
<speed>2.070000</speed>
<extensions>
<speed>2.1</speed>
<temp>0.00</temp>
<bpm>0</bpm>
<rpm>0.00</rpm>
</extensions>
</trkpt>
<trkpt lat="64.185523987" lon="-21.557300568">
<ele>119.769531</ele>
<time>2012-07-18T15:37:35Z</time>
<speed>2.200000</speed>
<extensions>
<speed>2.2</speed>
<temp>0.00</temp>
<bpm>0</bpm>
<rpm>0.00</rpm>
</extensions>
</trkpt>
<trkpt lat="64.185539246" lon="-21.557073593">
<ele>120.427734</ele>
<time>2012-07-18T15:37:40Z</time>
<speed>2.340000</speed>
<extensions>
<speed>2.3</speed>
<temp>0.00</temp>
<bpm>0</bpm>
<rpm>0.00</rpm>
</extensions>
</trkpt>
<trkpt lat="64.185546875" lon="-21.556829453">
<ele>120.984375</ele>
<time>2012-07-18T15:37:45Z</time>
<speed>2.330000</speed>
<extensions>
<speed>2.3</speed>
<temp>0.00</temp>
<bpm>0</bpm>
<rpm>0.00</rpm>
</extensions>
</trkpt>
<trkpt lat="64.185562134" lon="-21.556589127">
<ele>121.845703</ele>
<time>2012-07-18T15:37:50Z</time>
<speed>2.530000</speed>
<extensions>
<speed>2.5</speed>
<temp>0.00</temp>
<bpm>0</bpm>
<rpm>0.00</rpm>
</extensions>
</trkpt>
<trkpt lat="64.185585022" lon="-21.556322098">
<ele>122.523438</ele>
<time>2012-07-18T15:37:55Z</time>
<speed>2.750000</speed>
<extensions>
<speed>2.7</speed>
<temp>0.00</temp>
<bpm>0</bpm>
<rpm>0.00</rpm>
</extensions>
</trkpt>
<trkpt lat="64.185607910" lon="-21.556037903">
<ele>123.164063</ele>
<time>2012-07-18T15:38:00Z</time>
<speed>2.810000</speed>
<extensions>
<speed>2.8</speed>
<temp>0.00</temp>
<bpm>0</bpm>
<rpm>0.00</rpm>
</extensions>
</trkpt>
<trkpt lat="64.185630798" lon="-21.555751801">
<ele>123.660156</ele>
<time>2012-07-18T15:38:05Z</time>
<speed>2.870000</speed>
<extensions>
<speed>2.9</speed>
<temp>0.00</temp>
<bpm>0</bpm>
<rpm>0.00</rpm>
</extensions>
</trkpt>
<trkpt lat="64.185646057" lon="-21.555450439">
<ele>124.113281</ele>
<time>2012-07-18T15:38:10Z</time>
<speed>2.910000</speed>
<extensions>
<speed>2.9</speed>
<temp>0.00</temp>
<bpm>0</bpm>
<rpm>0.00</rpm>
</extensions>
</trkpt>
<trkpt lat="64.185668945" lon="-21.555166245">
<ele>124.521484</ele>
<time>2012-07-18T15:38:15Z</time>
<speed>2.850000</speed>
<extensions>
<speed>2.9</speed>
<temp>0.00</temp>
<bpm>0</bpm>
<rpm>0.00</rpm>
</extensions>
</trkpt>
<trkpt lat="64.185684204" lon="-21.554891586">
<ele>125.085938</ele>
<time>2012-07-18T15:38:20Z</time>
<speed>2.900000</speed>
<extensions>
<speed>2.9</speed>
<temp>0.00</temp>
<bpm>0</bpm>
<rpm>0.00</rpm>
</extensions>
</trkpt>
<trkpt lat="64.185707092" lon="-21.554607391">
<ele>125.626953</ele>
<time>2012-07-18T15:38:25Z</time>
<speed>2.680000</speed>
<extensions>
<speed>2.7</speed>
<temp>0.00</temp>
<bpm>0</bpm>
<rpm>0.00</rpm>
</extensions>
</trkpt>
<trkpt lat="64.185722351" lon="-21.554367065">
<ele>126.052734</ele>
<time>2012-07-18T15:38:30Z</time>
<speed>2.570000</speed>
<extensions>
<speed>2.6</speed>
<temp>0.00</temp>
<bpm>0</bpm>
<rpm>0.00</rpm>
</extensions>
</trkpt>
<trkpt lat="64.185729980" lon="-21.554134369">
<ele>126.472656</ele>
<time>2012-07-18T15:38:35Z</time>
<speed>1.690000</speed>
<extensions>
<speed>1.7</speed>
<temp>0.00</temp>
<bpm>0</bpm>
<rpm>0.00</rpm>
</extensions>
</trkpt>
<trkpt lat="64.185729980" lon="-21.554107666">
<ele>126.103516</ele>
<time>2012-07-18T15:38:40Z</time>
<speed>0.100000</speed>
<extensions>
<speed>0.1</speed>
<temp>0.00</temp>
<bpm>0</bpm>
<rpm>0.00</rpm>
</extensions>
</trkpt>
<trkpt lat="64.185729980" lon="-21.554117203">
<ele>125.904297</ele>
<time>2012-07-18T15:38:45Z</time>
<speed>0.100000</speed>
<extensions>
<speed>0.1</speed>
<temp>0.00</temp>
<bpm>0</bpm>
<rpm>0.00</rpm>
</extensions>
</trkpt>
<trkpt lat="64.185729980" lon="-21.554121017">
<ele>125.812500</ele>
<time>2012-07-18T15:38:50Z</time>
<speed>0.020000</speed>
<extensions>
<speed>0.0</speed>
<temp>0.00</temp>
<bpm>0</bpm>
<rpm>0.00</rpm>
</extensions>
</trkpt>
<trkpt lat="64.185729980" lon="-21.554122925">
<ele>125.742188</ele>
<time>2012-07-18T15:38:55Z</time>
<speed>0.010000</speed>
<extensions>
<speed>0.0</speed>
<temp>0.00</temp>
<bpm>0</bpm>
<rpm>0.00</rpm>
</extensions>
</trkpt>
<trkpt lat="64.185729980" lon="-21.554122925">
<ele>125.718750</ele>
<time>2012-07-18T15:39:00Z</time>
<speed>0.020000</speed>
<extensions>
<speed>0.0</speed>
<temp>0.00</temp>
<bpm>0</bpm>
<rpm>0.00</rpm>
</extensions>
</trkpt>
<trkpt lat="64.185729980" lon="-21.554121017">
<ele>125.763672</ele>
<time>2012-07-18T15:39:05Z</time>
<speed>0.040000</speed>
<extensions>
<speed>0.0</speed>
<temp>0.00</temp>
<bpm>0</bpm>
<rpm>0.00</rpm>
</extensions>
</trkpt>
<trkpt lat="64.185729980" lon="-21.554119110">
<ele>125.851563</ele>
<time>2012-07-18T15:39:10Z</time>
<speed>0.110000</speed>
<extensions>
<speed>0.1</speed>
<temp>0.00</temp>
<bpm>0</bpm>
<rpm>0.00</rpm>
</extensions>
</trkpt>
<trkpt lat="64.185737610" lon="-21.554096222">
<ele>125.548828</ele>
<time>2012-07-18T15:39:15Z</time>
<speed>0.050000</speed>
<extensions>
<speed>0.1</speed>
<temp>0.00</temp>
<bpm>0</bpm>
<rpm>0.00</rpm>
</extensions>
</trkpt>
<trkpt lat="64.185729980" lon="-21.554096222">
<ele>124.847656</ele>
<time>2012-07-18T15:39:20Z</time>
<speed>0.030000</speed>
<extensions>
<speed>0.0</speed>
<temp>0.00</temp>
<bpm>0</bpm>
<rpm>0.00</rpm>
</extensions>
</trkpt>
<trkpt lat="64.185737610" lon="-21.554094315">
<ele>124.789063</ele>
<time>2012-07-18T15:39:25Z</time>
<speed>0.050000</speed>
<extensions>
<speed>0.1</speed>
<temp>0.00</temp>
<bpm>0</bpm>
<rpm>0.00</rpm>
</extensions>
</trkpt>
<trkpt lat="64.185745239" lon="-21.554059982">
<ele>124.783203</ele>
<time>2012-07-18T15:39:30Z</time>
<speed>1.240000</speed>
<extensions>
<speed>1.2</speed>
<temp>0.00</temp>
<bpm>0</bpm>
<rpm>0.00</rpm>
</extensions>
</trkpt>
<trkpt lat="64.185752869" lon="-21.553878784">
<ele>125.568359</ele>
<time>2012-07-18T15:39:35Z</time>
<speed>1.890000</speed>
<extensions>
<speed>1.9</speed>
<temp>0.00</temp>
<bpm>0</bpm>
<rpm>0.00</rpm>
</extensions>
</trkpt>
<trkpt lat="64.185775757" lon="-21.553649902">
<ele>126.451172</ele>
<time>2012-07-18T15:39:40Z</time>
<speed>2.500000</speed>
<extensions>
<speed>2.5</speed>
<temp>0.00</temp>
<bpm>0</bpm>
<rpm>0.00</rpm>
</extensions>
</trkpt>
<trkpt lat="64.185798645" lon="-21.553388596">
<ele>127.740234</ele>
<time>2012-07-18T15:39:45Z</time>
<speed>2.620000</speed>
<extensions>
<speed>2.6</speed>
<temp>0.00</temp>
<bpm>0</bpm>
<rpm>0.00</rpm>
</extensions>
</trkpt>
<trkpt lat="64.185821533" lon="-21.553117752">
<ele>128.847656</ele>
<time>2012-07-18T15:39:50Z</time>
<speed>2.730000</speed>
<extensions>
<speed>2.7</speed>
<temp>0.00</temp>
<bpm>0</bpm>
<rpm>0.00</rpm>
</extensions>
</trkpt>
<trkpt lat="64.185844421" lon="-21.552843094">
<ele>130.011719</ele>
<time>2012-07-18T15:39:55Z</time>
<speed>2.800000</speed>
<extensions>
<speed>2.8</speed>
<temp>0.00</temp>
<bpm>0</bpm>
<rpm>0.00</rpm>
</extensions>
</trkpt>
<trkpt lat="64.185867310" lon="-21.552547455">
<ele>130.976563</ele>
<time>2012-07-18T15:40:00Z</time>
<speed>2.950000</speed>
<extensions>
<speed>2.9</speed>
<temp>0.00</temp>
<bpm>0</bpm>
<rpm>0.00</rpm>
</extensions>
</trkpt>
<trkpt lat="64.185882568" lon="-21.552261353">
<ele>131.769531</ele>
<time>2012-07-18T15:40:05Z</time>
<speed>2.440000</speed>
<extensions>
<speed>2.4</speed>
<temp>0.00</temp>
<bpm>0</bpm>
<rpm>0.00</rpm>
</extensions>
</trkpt>
<trkpt lat="64.185897827" lon="-21.551975250">
<ele>132.527344</ele>
<time>2012-07-18T15:40:10Z</time>
<speed>2.900000</speed>
<extensions>
<speed>2.9</speed>
<temp>0.00</temp>
<bpm>0</bpm>
<rpm>0.00</rpm>
</extensions>
</trkpt>
<trkpt lat="64.185920715" lon="-21.551685333">
<ele>133.597656</ele>
<time>2012-07-18T15:40:15Z</time>
<speed>2.980000</speed>
<extensions>
<speed>3.0</speed>
<temp>0.00</temp>
<bpm>0</bpm>
<rpm>0.00</rpm>
</extensions>
</trkpt>
<trkpt lat="64.185943604" lon="-21.551387787">
<ele>134.714844</ele>
<time>2012-07-18T15:40:20Z</time>
<speed>2.950000</speed>
<extensions>
<speed>2.9</speed>
<temp>0.00</temp>
<bpm>0</bpm>
<rpm>0.00</rpm>
</extensions>
</trkpt>
<trkpt lat="64.185958862" lon="-21.551082611">
<ele>135.609375</ele>
<time>2012-07-18T15:40:25Z</time>
<speed>2.970000</speed>
<extensions>
<speed>3.0</speed>
<temp>0.00</temp>
<bpm>0</bpm>
<rpm>0.00</rpm>
</extensions>
</trkpt>
<trkpt lat="64.185981750" lon="-21.550792694">
<ele>136.210938</ele>
<time>2012-07-18T15:40:30Z</time>
<speed>2.140000</speed>
<extensions>
<speed>2.1</speed>
<temp>0.00</temp>
<bpm>0</bpm>
<rpm>0.00</rpm>
</extensions>
</trkpt>
<trkpt lat="64.185997009" lon="-21.550531387">
<ele>136.640625</ele>
<time>2012-07-18T15:40:35Z</time>
<speed>2.750000</speed>
<extensions>
<speed>2.7</speed>
<temp>0.00</temp>
<bpm>0</bpm>
<rpm>0.00</rpm>
</extensions>
</trkpt>
<trkpt lat="64.186012268" lon="-21.550249100">
<ele>137.476563</ele>
<time>2012-07-18T15:40:40Z</time>
<speed>2.800000</speed>
<extensions>
<speed>2.8</speed>
<temp>0.00</temp>
<bpm>0</bpm>
<rpm>0.00</rpm>
</extensions>
</trkpt>
<trkpt lat="64.186035156" lon="-21.549947739">
<ele>138.003906</ele>
<time>2012-07-18T15:40:45Z</time>
<speed>2.990000</speed>
<extensions>
<speed>3.0</speed>
<temp>0.00</temp>
<bpm>0</bpm>
<rpm>0.00</rpm>
</extensions>
</trkpt>
<trkpt lat="64.186058044" lon="-21.549678802">
<ele>138.742188</ele>
<time>2012-07-18T15:40:50Z</time>
<speed>2.440000</speed>
<extensions>
<speed>2.4</speed>
<temp>0.00</temp>
<bpm>0</bpm>
<rpm>0.00</rpm>
</extensions>
</trkpt>
<trkpt lat="64.186080933" lon="-21.549385071">
<ele>139.054688</ele>
<time>2012-07-18T15:40:55Z</time>
<speed>3.010000</speed>
<extensions>
<speed>3.0</speed>
<temp>0.00</temp>
<bpm>0</bpm>
<rpm>0.00</rpm>
</extensions>
</trkpt>
<trkpt lat="64.186111450" lon="-21.549074173">
<ele>139.558594</ele>
<time>2012-07-18T15:41:00Z</time>
<speed>3.010000</speed>
<extensions>
<speed>3.0</speed>
<temp>0.00</temp>
<bpm>0</bpm>
<rpm>0.00</rpm>
</extensions>
</trkpt>
<trkpt lat="64.186134338" lon="-21.548770905">
<ele>140.144531</ele>
<time>2012-07-18T15:41:05Z</time>
<speed>2.970000</speed>
<extensions>
<speed>3.0</speed>
<temp>0.00</temp>
<bpm>0</bpm>
<rpm>0.00</rpm>
</extensions>
</trkpt>
<trkpt lat="64.186157227" lon="-21.548458099">
<ele>140.308594</ele>
<time>2012-07-18T15:41:10Z</time>
<speed>2.970000</speed>
<extensions>
<speed>3.0</speed>
<temp>0.00</temp>
<bpm>0</bpm>
<rpm>0.00</rpm>
</extensions>
</trkpt>
<trkpt lat="64.186187744" lon="-21.548162460">
<ele>141.113281</ele>
<time>2012-07-18T15:41:15Z</time>
<speed>3.020000</speed>
<extensions>
<speed>3.0</speed>
<temp>0.00</temp>
<bpm>0</bpm>
<rpm>0.00</rpm>
</extensions>
</trkpt>
<trkpt lat="64.186218262" lon="-21.547864914">
<ele>141.558594</ele>
<time>2012-07-18T15:41:20Z</time>
<speed>2.850000</speed>
<extensions>
<speed>2.9</speed>
<temp>0.00</temp>
<bpm>0</bpm>
<rpm>0.00</rpm>
</extensions>
</trkpt>
<trkpt lat="64.186248779" lon="-21.547571182">
<ele>142.074219</ele>
<time>2012-07-18T15:41:25Z</time>
<speed>2.920000</speed>
<extensions>
<speed>2.9</speed>
<temp>0.00</temp>
<bpm>0</bpm>
<rpm>0.00</rpm>
</extensions>
</trkpt>
<trkpt lat="64.186286926" lon="-21.547285080">
<ele>142.562500</ele>
<time>2012-07-18T15:41:30Z</time>
<speed>2.830000</speed>
<extensions>
<speed>2.8</speed>
<temp>0.00</temp>
<bpm>0</bpm>
<rpm>0.00</rpm>
</extensions>
</trkpt>
<trkpt lat="64.186317444" lon="-21.547006607">
<ele>142.992188</ele>
<time>2012-07-18T15:41:35Z</time>
<speed>2.820000</speed>
<extensions>
<speed>2.8</speed>
<temp>0.00</temp>
<bpm>0</bpm>
<rpm>0.00</rpm>
</extensions>
</trkpt>
<trkpt lat="64.186340332" lon="-21.546813965">
<ele>143.570313</ele>
<time>2012-07-18T15:41:40Z</time>
<speed>1.690000</speed>
<extensions>
<speed>1.7</speed>
<temp>0.00</temp>
<bpm>0</bpm>
<rpm>0.00</rpm>
</extensions>
</trkpt>
<trkpt lat="64.186363220" lon="-21.546634674">
<ele>143.734375</ele>
<time>2012-07-18T15:41:45Z</time>
<speed>2.550000</speed>
<extensions>
<speed>2.6</speed>
<temp>0.00</temp>
<bpm>0</bpm>
<rpm>0.00</rpm>
</extensions>
</trkpt>
<trkpt lat="64.186401367" lon="-21.546388626">
<ele>143.691406</ele>
<time>2012-07-18T15:41:50Z</time>
<speed>2.760000</speed>
<extensions>
<speed>2.8</speed>
<temp>0.00</temp>
<bpm>0</bpm>
<rpm>0.00</rpm>
</extensions>
</trkpt>
<trkpt lat="64.186431885" lon="-21.546138763">
<ele>144.335938</ele>
<time>2012-07-18T15:41:55Z</time>
<speed>2.690000</speed>
<extensions>
<speed>2.7</speed>
<temp>0.00</temp>
<bpm>0</bpm>
<rpm>0.00</rpm>
</extensions>
</trkpt>
<trkpt lat="64.186477661" lon="-21.545888901">
<ele>145.191406</ele>
<time>2012-07-18T15:42:00Z</time>
<speed>2.720000</speed>
<extensions>
<speed>2.7</speed>
<temp>0.00</temp>
<bpm>0</bpm>
<rpm>0.00</rpm>
</extensions>
</trkpt>
<trkpt lat="64.186515808" lon="-21.545627594">
<ele>145.660156</ele>
<time>2012-07-18T15:42:05Z</time>
<speed>2.780000</speed>
<extensions>
<speed>2.8</speed>
<temp>0.00</temp>
<bpm>0</bpm>
<rpm>0.00</rpm>
</extensions>
</trkpt>
<trkpt lat="64.186561584" lon="-21.545375824">
<ele>145.832031</ele>
<time>2012-07-18T15:42:10Z</time>
<speed>2.600000</speed>
<extensions>
<speed>2.6</speed>
<temp>0.00</temp>
<bpm>0</bpm>
<rpm>0.00</rpm>
</extensions>
</trkpt>
<trkpt lat="64.186614990" lon="-21.545135498">
<ele>146.527344</ele>
<time>2012-07-18T15:42:15Z</time>
<speed>2.930000</speed>
<extensions>
<speed>2.9</speed>
<temp>0.00</temp>
<bpm>0</bpm>
<rpm>0.00</rpm>
</extensions>
</trkpt>
<trkpt lat="64.186668396" lon="-21.544866562">
<ele>147.093750</ele>
<time>2012-07-18T15:42:20Z</time>
<speed>2.790000</speed>
<extensions>
<speed>2.8</speed>
<temp>0.00</temp>
<bpm>0</bpm>
<rpm>0.00</rpm>
</extensions>
</trkpt>
<trkpt lat="64.186698914" lon="-21.544698715">
<ele>148.171875</ele>
<time>2012-07-18T15:42:25Z</time>
<speed>1.170000</speed>
<extensions>
<speed>1.2</speed>
<temp>0.00</temp>
<bpm>0</bpm>
<rpm>0.00</rpm>
</extensions>
</trkpt>
<trkpt lat="64.186737061" lon="-21.544521332">
<ele>149.363281</ele>
<time>2012-07-18T15:42:30Z</time>
<speed>2.330000</speed>
<extensions>
<speed>2.3</speed>
<temp>0.00</temp>
<bpm>0</bpm>
<rpm>0.00</rpm>
</extensions>
</trkpt>
<trkpt lat="64.186790466" lon="-21.544315338">
<ele>149.445313</ele>
<time>2012-07-18T15:42:35Z</time>
<speed>2.470000</speed>
<extensions>
<speed>2.5</speed>
<temp>0.00</temp>
<bpm>0</bpm>
<rpm>0.00</rpm>
</extensions>
</trkpt>
<trkpt lat="64.186843872" lon="-21.544080734">
<ele>149.957031</ele>
<time>2012-07-18T15:42:40Z</time>
<speed>2.810000</speed>
<extensions>
<speed>2.8</speed>
<temp>0.00</temp>
<bpm>0</bpm>
<rpm>0.00</rpm>
</extensions>
</trkpt>
<trkpt lat="64.186889648" lon="-21.543853760">
<ele>150.199219</ele>
<time>2012-07-18T15:42:45Z</time>
<speed>2.780000</speed>
<extensions>
<speed>2.8</speed>
<temp>0.00</temp>
<bpm>0</bpm>
<rpm>0.00</rpm>
</extensions>
</trkpt>
<trkpt lat="64.186950684" lon="-21.543630600">
<ele>148.683594</ele>
<time>2012-07-18T15:42:50Z</time>
<speed>2.730000</speed>
<extensions>
<speed>2.7</speed>
<temp>0.00</temp>
<bpm>0</bpm>
<rpm>0.00</rpm>
</extensions>
</trkpt>
<trkpt lat="64.187011719" lon="-21.543378830">
<ele>148.320313</ele>
<time>2012-07-18T15:42:55Z</time>
<speed>3.210000</speed>
<extensions>
<speed>3.2</speed>
<temp>0.00</temp>
<bpm>0</bpm>
<rpm>0.00</rpm>
</extensions>
</trkpt>
<trkpt lat="64.187065125" lon="-21.543151855">
<ele>149.765625</ele>
<time>2012-07-18T15:43:00Z</time>
<speed>2.310000</speed>
<extensions>
<speed>2.3</speed>
<temp>0.00</temp>
<bpm>0</bpm>
<rpm>0.00</rpm>
</extensions>
</trkpt>
<trkpt lat="64.187126160" lon="-21.542926788">
<ele>150.062500</ele>
<time>2012-07-18T15:43:05Z</time>
<speed>2.680000</speed>
<extensions>
<speed>2.7</speed>
<temp>0.00</temp>
<bpm>0</bpm>
<rpm>0.00</rpm>
</extensions>
</trkpt>
<trkpt lat="64.187194824" lon="-21.542688370">
<ele>150.675781</ele>
<time>2012-07-18T15:43:10Z</time>
<speed>2.800000</speed>
<extensions>
<speed>2.8</speed>
<temp>0.00</temp>
<bpm>0</bpm>
<rpm>0.00</rpm>
</extensions>
</trkpt>
<trkpt lat="64.187248230" lon="-21.542499542">
<ele>150.644531</ele>
<time>2012-07-18T15:43:15Z</time>
<speed>1.050000</speed>
<extensions>
<speed>1.0</speed>
<temp>0.00</temp>
<bpm>0</bpm>
<rpm>0.00</rpm>
</extensions>
</trkpt>
<trkpt lat="64.187286377" lon="-21.542390823">
<ele>150.574219</ele>
<time>2012-07-18T15:43:20Z</time>
<speed>1.960000</speed>
<extensions>
<speed>2.0</speed>
<temp>0.00</temp>
<bpm>0</bpm>
<rpm>0.00</rpm>
</extensions>
</trkpt>
<trkpt lat="64.187316895" lon="-21.542219162">
<ele>151.964844</ele>
<time>2012-07-18T15:43:25Z</time>
<speed>2.230000</speed>
<extensions>
<speed>2.2</speed>
<temp>0.00</temp>
<bpm>0</bpm>
<rpm>0.00</rpm>
</extensions>
</trkpt>
<trkpt lat="64.187370300" lon="-21.542028427">
<ele>153.925781</ele>
<time>2012-07-18T15:43:30Z</time>
<speed>2.280000</speed>
<extensions>
<speed>2.3</speed>
<temp>0.00</temp>
<bpm>0</bpm>
<rpm>0.00</rpm>
</extensions>
</trkpt>
<trkpt lat="64.187423706" lon="-21.541833878">
<ele>155.933594</ele>
<time>2012-07-18T15:43:35Z</time>
<speed>2.210000</speed>
<extensions>
<speed>2.2</speed>
<temp>0.00</temp>
<bpm>0</bpm>
<rpm>0.00</rpm>
</extensions>
</trkpt>
<trkpt lat="64.187469482" lon="-21.541635513">
<ele>155.402344</ele>
<time>2012-07-18T15:43:40Z</time>
<speed>2.390000</speed>
<extensions>
<speed>2.4</speed>
<temp>0.00</temp>
<bpm>0</bpm>
<rpm>0.00</rpm>
</extensions>
</trkpt>
<trkpt lat="64.187515259" lon="-21.541482925">
<ele>156.296875</ele>
<time>2012-07-18T15:43:45Z</time>
<speed>1.080000</speed>
<extensions>
<speed>1.1</speed>
<temp>0.00</temp>
<bpm>0</bpm>
<rpm>0.00</rpm>
</extensions>
</trkpt>
<trkpt lat="64.187561035" lon="-21.541322708">
<ele>157.273438</ele>
<time>2012-07-18T15:43:50Z</time>
<speed>1.610000</speed>
<extensions>
<speed>1.6</speed>
<temp>0.00</temp>
<bpm>0</bpm>
<rpm>0.00</rpm>
</extensions>
</trkpt>
<trkpt lat="64.187591553" lon="-21.541200638">
<ele>157.800781</ele>
<time>2012-07-18T15:43:55Z</time>
<speed>1.610000</speed>
<extensions>
<speed>1.6</speed>
<temp>0.00</temp>
<bpm>0</bpm>
<rpm>0.00</rpm>
</extensions>
</trkpt>
<trkpt lat="64.187637329" lon="-21.540992737">
<ele>157.476563</ele>
<time>2012-07-18T15:44:00Z</time>
<speed>2.530000</speed>
<extensions>
<speed>2.5</speed>
<temp>0.00</temp>
<bpm>0</bpm>
<rpm>0.00</rpm>
</extensions>
</trkpt>
<trkpt lat="64.187705994" lon="-21.540765762">
<ele>158.023438</ele>
<time>2012-07-18T15:44:05Z</time>
<speed>2.280000</speed>
<extensions>
<speed>2.3</speed>
<temp>0.00</temp>
<bpm>0</bpm>
<rpm>0.00</rpm>
</extensions>
</trkpt>
<trkpt lat="64.187767029" lon="-21.540544510">
<ele>159.066406</ele>
<time>2012-07-18T15:44:10Z</time>
<speed>2.890000</speed>
<extensions>
<speed>2.9</speed>
<temp>0.00</temp>
<bpm>0</bpm>
<rpm>0.00</rpm>
</extensions>
</trkpt>
<trkpt lat="64.187828064" lon="-21.540321350">
<ele>159.679688</ele>
<time>2012-07-18T15:44:15Z</time>
<speed>2.690000</speed>
<extensions>
<speed>2.7</speed>
<temp>0.00</temp>
<bpm>0</bpm>
<rpm>0.00</rpm>
</extensions>
</trkpt>
<trkpt lat="64.187873840" lon="-21.540098190">
<ele>161.355469</ele>
<time>2012-07-18T15:44:20Z</time>
<speed>1.610000</speed>
<extensions>
<speed>1.6</speed>
<temp>0.00</temp>
<bpm>0</bpm>
<rpm>0.00</rpm>
</extensions>
</trkpt>
<trkpt lat="64.187904358" lon="-21.540014267">
<ele>161.757813</ele>
<time>2012-07-18T15:44:25Z</time>
<speed>1.410000</speed>
<extensions>
<speed>1.4</speed>
<temp>0.00</temp>
<bpm>0</bpm>
<rpm>0.00</rpm>
</extensions>
</trkpt>
<trkpt lat="64.187950134" lon="-21.539827347">
<ele>162.804688</ele>
<time>2012-07-18T15:44:30Z</time>
<speed>2.650000</speed>
<extensions>
<speed>2.6</speed>
<temp>0.00</temp>
<bpm>0</bpm>
<rpm>0.00</rpm>
</extensions>
</trkpt>
<trkpt lat="64.188011169" lon="-21.539592743">
<ele>163.867188</ele>
<time>2012-07-18T15:44:35Z</time>
<speed>1.710000</speed>
<extensions>
<speed>1.7</speed>
<temp>0.00</temp>
<bpm>0</bpm>
<rpm>0.00</rpm>
</extensions>
</trkpt>
<trkpt lat="64.188049316" lon="-21.539442062">
<ele>164.261719</ele>
<time>2012-07-18T15:44:40Z</time>
<speed>2.230000</speed>
<extensions>
<speed>2.2</speed>
<temp>0.00</temp>
<bpm>0</bpm>
<rpm>0.00</rpm>
</extensions>
</trkpt>
<trkpt lat="64.188102722" lon="-21.539241791">
<ele>165.363281</ele>
<time>2012-07-18T15:44:45Z</time>
<speed>2.520000</speed>
<extensions>
<speed>2.5</speed>
<temp>0.00</temp>
<bpm>0</bpm>
<rpm>0.00</rpm>
</extensions>
</trkpt>
<trkpt lat="64.188163757" lon="-21.539022446">
<ele>165.906250</ele>
<time>2012-07-18T15:44:50Z</time>
<speed>2.600000</speed>
<extensions>
<speed>2.6</speed>
<temp>0.00</temp>
<bpm>0</bpm>
<rpm>0.00</rpm>
</extensions>
</trkpt>
<trkpt lat="64.188224792" lon="-21.538793564">
<ele>167.140625</ele>
<time>2012-07-18T15:44:55Z</time>
<speed>2.700000</speed>
<extensions>
<speed>2.7</speed>
<temp>0.00</temp>
<bpm>0</bpm>
<rpm>0.00</rpm>
</extensions>
</trkpt>
<trkpt lat="64.188285828" lon="-21.538587570">
<ele>168.472656</ele>
<time>2012-07-18T15:45:00Z</time>
<speed>1.500000</speed>
<extensions>
<speed>1.5</speed>
<temp>0.00</temp>
<bpm>0</bpm>
<rpm>0.00</rpm>
</extensions>
</trkpt>
<trkpt lat="64.188323975" lon="-21.538450241">
<ele>169.710938</ele>
<time>2012-07-18T15:45:05Z</time>
<speed>1.770000</speed>
<extensions>
<speed>1.8</speed>
<temp>0.00</temp>
<bpm>0</bpm>
<rpm>0.00</rpm>
</extensions>
</trkpt>
<trkpt lat="64.188369751" lon="-21.538263321">
<ele>171.253906</ele>
<time>2012-07-18T15:45:10Z</time>
<speed>2.380000</speed>
<extensions>
<speed>2.4</speed>
<temp>0.00</temp>
<bpm>0</bpm>
<rpm>0.00</rpm>
</extensions>
</trkpt>
<trkpt lat="64.188438416" lon="-21.538042068">
<ele>171.414063</ele>
<time>2012-07-18T15:45:15Z</time>
<speed>2.640000</speed>
<extensions>
<speed>2.6</speed>
<temp>0.00</temp>
<bpm>0</bpm>
<rpm>0.00</rpm>
</extensions>
</trkpt>
<trkpt lat="64.188507080" lon="-21.537799835">
<ele>171.726563</ele>
<time>2012-07-18T15:45:20Z</time>
<speed>2.850000</speed>
<extensions>
<speed>2.9</speed>
<temp>0.00</temp>
<bpm>0</bpm>
<rpm>0.00</rpm>
</extensions>
</trkpt>
<trkpt lat="64.188568115" lon="-21.537530899">
<ele>172.402344</ele>
<time>2012-07-18T15:45:25Z</time>
<speed>3.170000</speed>
<extensions>
<speed>3.2</speed>
<temp>0.00</temp>
<bpm>0</bpm>
<rpm>0.00</rpm>
</extensions>
</trkpt>
<trkpt lat="64.188644409" lon="-21.537254333">
<ele>173.855469</ele>
<time>2012-07-18T15:45:30Z</time>
<speed>2.450000</speed>
<extensions>
<speed>2.4</speed>
<temp>0.00</temp>
<bpm>0</bpm>
<rpm>0.00</rpm>
</extensions>
</trkpt>
<trkpt lat="64.188713074" lon="-21.537012100">
<ele>175.328125</ele>
<time>2012-07-18T15:45:35Z</time>
<speed>2.760000</speed>
<extensions>
<speed>2.8</speed>
<temp>0.00</temp>
<bpm>0</bpm>
<rpm>0.00</rpm>
</extensions>
</trkpt>
<trkpt lat="64.188789368" lon="-21.536741257">
<ele>176.031250</ele>
<time>2012-07-18T15:45:40Z</time>
<speed>3.080000</speed>
<extensions>
<speed>3.1</speed>
<temp>0.00</temp>
<bpm>0</bpm>
<rpm>0.00</rpm>
</extensions>
</trkpt>
<trkpt lat="64.188873291" lon="-21.536447525">
<ele>175.890625</ele>
<time>2012-07-18T15:45:45Z</time>
<speed>3.140000</speed>
<extensions>
<speed>3.1</speed>
<temp>0.00</temp>
<bpm>0</bpm>
<rpm>0.00</rpm>
</extensions>
</trkpt>
<trkpt lat="64.188919067" lon="-21.536266327">
<ele>176.460938</ele>
<time>2012-07-18T15:45:50Z</time>
<speed>2.020000</speed>
<extensions>
<speed>2.0</speed>
<temp>0.00</temp>
<bpm>0</bpm>
<rpm>0.00</rpm>
</extensions>
</trkpt>
<trkpt lat="64.188980103" lon="-21.536056519">
<ele>176.281250</ele>
<time>2012-07-18T15:45:55Z</time>
<speed>2.710000</speed>
<extensions>
<speed>2.7</speed>
<temp>0.00</temp>
<bpm>0</bpm>
<rpm>0.00</rpm>
</extensions>
</trkpt>
<trkpt lat="64.189025879" lon="-21.535915375">
<ele>176.214844</ele>
<time>2012-07-18T15:46:00Z</time>
<speed>0.760000</speed>
<extensions>
<speed>0.8</speed>
<temp>0.00</temp>
<bpm>0</bpm>
<rpm>0.00</rpm>
</extensions>
</trkpt>
<trkpt lat="64.189064026" lon="-21.535781860">
<ele>175.492188</ele>
<time>2012-07-18T15:46:05Z</time>
<speed>1.770000</speed>
<extensions>
<speed>1.8</speed>
<temp>0.00</temp>
<bpm>0</bpm>
<rpm>0.00</rpm>
</extensions>
</trkpt>
<trkpt lat="64.189109802" lon="-21.535604477">
<ele>175.640625</ele>
<time>2012-07-18T15:46:10Z</time>
<speed>2.300000</speed>
<extensions>
<speed>2.3</speed>
<temp>0.00</temp>
<bpm>0</bpm>
<rpm>0.00</rpm>
</extensions>
</trkpt>
<trkpt lat="64.189170837" lon="-21.535354614">
<ele>176.750000</ele>
<time>2012-07-18T15:46:15Z</time>
<speed>2.840000</speed>
<extensions>
<speed>2.8</speed>
<temp>0.00</temp>
<bpm>0</bpm>
<rpm>0.00</rpm>
</extensions>
</trkpt>
<trkpt lat="64.189239502" lon="-21.535131454">
<ele>177.746094</ele>
<time>2012-07-18T15:46:20Z</time>
<speed>1.760000</speed>
<extensions>
<speed>1.8</speed>
<temp>0.00</temp>
<bpm>0</bpm>
<rpm>0.00</rpm>
</extensions>
</trkpt>
<trkpt lat="64.189292908" lon="-21.534944534">
<ele>178.585938</ele>
<time>2012-07-18T15:46:25Z</time>
<speed>2.680000</speed>
<extensions>
<speed>2.7</speed>
<temp>0.00</temp>
<bpm>0</bpm>
<rpm>0.00</rpm>
</extensions>
</trkpt>
<trkpt lat="64.189361572" lon="-21.534687042">
<ele>178.625000</ele>
<time>2012-07-18T15:46:30Z</time>
<speed>3.130000</speed>
<extensions>
<speed>3.1</speed>
<temp>0.00</temp>
<bpm>0</bpm>
<rpm>0.00</rpm>
</extensions>
</trkpt>
<trkpt lat="64.189437866" lon="-21.534410477">
<ele>176.609375</ele>
<time>2012-07-18T15:46:35Z</time>
<speed>2.480000</speed>
<extensions>
<speed>2.5</speed>
<temp>0.00</temp>
<bpm>0</bpm>
<rpm>0.00</rpm>
</extensions>
</trkpt>
<trkpt lat="64.189491272" lon="-21.534210205">
<ele>177.175781</ele>
<time>2012-07-18T15:46:40Z</time>
<speed>2.890000</speed>
<extensions>
<speed>2.9</speed>
<temp>0.00</temp>
<bpm>0</bpm>
<rpm>0.00</rpm>
</extensions>
</trkpt>
<trkpt lat="64.189567566" lon="-21.533943176">
<ele>177.632813</ele>
<time>2012-07-18T15:46:45Z</time>
<speed>2.830000</speed>
<extensions>
<speed>2.8</speed>
<temp>0.00</temp>
<bpm>0</bpm>
<rpm>0.00</rpm>
</extensions>
</trkpt>
<trkpt lat="64.189636230" lon="-21.533689499">
<ele>178.128906</ele>
<time>2012-07-18T15:46:50Z</time>
<speed>3.230000</speed>
<extensions>
<speed>3.2</speed>
<temp>0.00</temp>
<bpm>0</bpm>
<rpm>0.00</rpm>
</extensions>
</trkpt>
<trkpt lat="64.189712524" lon="-21.533405304">
<ele>178.691406</ele>
<time>2012-07-18T15:46:55Z</time>
<speed>3.420000</speed>
<extensions>
<speed>3.4</speed>
<temp>0.00</temp>
<bpm>0</bpm>
<rpm>0.00</rpm>
</extensions>
</trkpt>
<trkpt lat="64.189788818" lon="-21.533105850">
<ele>179.476563</ele>
<time>2012-07-18T15:47:00Z</time>
<speed>3.510000</speed>
<extensions>
<speed>3.5</speed>
<temp>0.00</temp>
<bpm>0</bpm>
<rpm>0.00</rpm>
</extensions>
</trkpt>
<trkpt lat="64.189872742" lon="-21.532789230">
<ele>179.480469</ele>
<time>2012-07-18T15:47:05Z</time>
<speed>3.590000</speed>
<extensions>
<speed>3.6</speed>
<temp>0.00</temp>
<bpm>0</bpm>
<rpm>0.00</rpm>
</extensions>
</trkpt>
<trkpt lat="64.189964294" lon="-21.532461166">
<ele>179.984375</ele>
<time>2012-07-18T15:47:10Z</time>
<speed>3.930000</speed>
<extensions>
<speed>3.9</speed>
<temp>0.00</temp>
<bpm>0</bpm>
<rpm>0.00</rpm>
</extensions>
</trkpt>
<trkpt lat="64.190055847" lon="-21.532115936">
<ele>180.410156</ele>
<time>2012-07-18T15:47:15Z</time>
<speed>3.430000</speed>
<extensions>
<speed>3.4</speed>
<temp>0.00</temp>
<bpm>0</bpm>
<rpm>0.00</rpm>
</extensions>
</trkpt>
<trkpt lat="64.190124512" lon="-21.531829834">
<ele>180.554688</ele>
<time>2012-07-18T15:47:20Z</time>
<speed>3.590000</speed>
<extensions>
<speed>3.6</speed>
<temp>0.00</temp>
<bpm>0</bpm>
<rpm>0.00</rpm>
</extensions>
</trkpt>
<trkpt lat="64.190216064" lon="-21.531534195">
<ele>180.371094</ele>
<time>2012-07-18T15:47:25Z</time>
<speed>3.040000</speed>
<extensions>
<speed>3.0</speed>
<temp>0.00</temp>
<bpm>0</bpm>
<rpm>0.00</rpm>
</extensions>
</trkpt>
<trkpt lat="64.190284729" lon="-21.531257629">
<ele>180.191406</ele>
<time>2012-07-18T15:47:30Z</time>
<speed>3.590000</speed>
<extensions>
<speed>3.6</speed>
<temp>0.00</temp>
<bpm>0</bpm>
<rpm>0.00</rpm>
</extensions>
</trkpt>
<trkpt lat="64.190376282" lon="-21.530941010">
<ele>180.250000</ele>
<time>2012-07-18T15:47:35Z</time>
<speed>3.730000</speed>
<extensions>
<speed>3.7</speed>
<temp>0.00</temp>
<bpm>0</bpm>
<rpm>0.00</rpm>
</extensions>
</trkpt>
<trkpt lat="64.190460205" lon="-21.530641556">
<ele>180.425781</ele>
<time>2012-07-18T15:47:40Z</time>
<speed>3.120000</speed>
<extensions>
<speed>3.1</speed>
<temp>0.00</temp>
<bpm>0</bpm>
<rpm>0.00</rpm>
</extensions>
</trkpt>
<trkpt lat="64.190528870" lon="-21.530389786">
<ele>180.765625</ele>
<time>2012-07-18T15:47:45Z</time>
<speed>3.100000</speed>
<extensions>
<speed>3.1</speed>
<temp>0.00</temp>
<bpm>0</bpm>
<rpm>0.00</rpm>
</extensions>
</trkpt>
<trkpt lat="64.190612793" lon="-21.530078888">
<ele>181.289063</ele>
<time>2012-07-18T15:47:50Z</time>
<speed>3.870000</speed>
<extensions>
<speed>3.9</speed>
<temp>0.00</temp>
<bpm>0</bpm>
<rpm>0.00</rpm>
</extensions>
</trkpt>
<trkpt lat="64.190711975" lon="-21.529710770">
<ele>180.992188</ele>
<time>2012-07-18T15:47:55Z</time>
<speed>4.250000</speed>
<extensions>
<speed>4.3</speed>
<temp>0.00</temp>
<bpm>0</bpm>
<rpm>0.00</rpm>
</extensions>
</trkpt>
<trkpt lat="64.190818787" lon="-21.529323578">
<ele>180.753906</ele>
<time>2012-07-18T15:48:00Z</time>
<speed>4.390000</speed>
<extensions>
<speed>4.4</speed>
<temp>0.00</temp>
<bpm>0</bpm>
<rpm>0.00</rpm>
</extensions>
</trkpt>
<trkpt lat="64.190917969" lon="-21.528934479">
<ele>180.570313</ele>
<time>2012-07-18T15:48:05Z</time>
<speed>4.150000</speed>
<extensions>
<speed>4.1</speed>
<temp>0.00</temp>
<bpm>0</bpm>
<rpm>0.00</rpm>
</extensions>
</trkpt>
<trkpt lat="64.191009521" lon="-21.528608322">
<ele>180.511719</ele>
<time>2012-07-18T15:48:10Z</time>
<speed>3.360000</speed>
<extensions>
<speed>3.4</speed>
<temp>0.00</temp>
<bpm>0</bpm>
<rpm>0.00</rpm>
</extensions>
</trkpt>
<trkpt lat="64.191093445" lon="-21.528280258">
<ele>181.015625</ele>
<time>2012-07-18T15:48:15Z</time>
<speed>3.870000</speed>
<extensions>
<speed>3.9</speed>
<temp>0.00</temp>
<bpm>0</bpm>
<rpm>0.00</rpm>
</extensions>
</trkpt>
<trkpt lat="64.191192627" lon="-21.527942657">
<ele>180.152344</ele>
<time>2012-07-18T15:48:20Z</time>
<speed>3.570000</speed>
<extensions>
<speed>3.6</speed>
<temp>0.00</temp>
<bpm>0</bpm>
<rpm>0.00</rpm>
</extensions>
</trkpt>
<trkpt lat="64.191276550" lon="-21.527626038">
<ele>180.187500</ele>
<time>2012-07-18T15:48:25Z</time>
<speed>3.810000</speed>
<extensions>
<speed>3.8</speed>
<temp>0.00</temp>
<bpm>0</bpm>
<rpm>0.00</rpm>
</extensions>
</trkpt>
<trkpt lat="64.191368103" lon="-21.527280807">
<ele>180.156250</ele>
<time>2012-07-18T15:48:30Z</time>
<speed>3.900000</speed>
<extensions>
<speed>3.9</speed>
<temp>0.00</temp>
<bpm>0</bpm>
<rpm>0.00</rpm>
</extensions>
</trkpt>
<trkpt lat="64.191452026" lon="-21.526945114">
<ele>180.863281</ele>
<time>2012-07-18T15:48:35Z</time>
<speed>3.880000</speed>
<extensions>
<speed>3.9</speed>
<temp>0.00</temp>
<bpm>0</bpm>
<rpm>0.00</rpm>
</extensions>
</trkpt>
<trkpt lat="64.191543579" lon="-21.526620865">
<ele>181.113281</ele>
<time>2012-07-18T15:48:40Z</time>
<speed>3.680000</speed>
<extensions>
<speed>3.7</speed>
<temp>0.00</temp>
<bpm>0</bpm>
<rpm>0.00</rpm>
</extensions>
</trkpt>
<trkpt lat="64.191627502" lon="-21.526315689">
<ele>181.976563</ele>
<time>2012-07-18T15:48:45Z</time>
<speed>3.520000</speed>
<extensions>
<speed>3.5</speed>
<temp>0.00</temp>
<bpm>0</bpm>
<rpm>0.00</rpm>
</extensions>
</trkpt>
<trkpt lat="64.191711426" lon="-21.526027679">
<ele>182.050781</ele>
<time>2012-07-18T15:48:50Z</time>
<speed>2.600000</speed>
<extensions>
<speed>2.6</speed>
<temp>0.00</temp>
<bpm>0</bpm>
<rpm>0.00</rpm>
</extensions>
</trkpt>
<trkpt lat="64.191749573" lon="-21.525857925">
<ele>182.667969</ele>
<time>2012-07-18T15:48:55Z</time>
<speed>2.090000</speed>
<extensions>
<speed>2.1</speed>
<temp>0.00</temp>
<bpm>0</bpm>
<rpm>0.00</rpm>
</extensions>
</trkpt>
<trkpt lat="64.191810608" lon="-21.525665283">
<ele>183.464844</ele>
<time>2012-07-18T15:49:00Z</time>
<speed>2.210000</speed>
<extensions>
<speed>2.2</speed>
<temp>0.00</temp>
<bpm>0</bpm>
<rpm>0.00</rpm>
</extensions>
</trkpt>
<trkpt lat="64.191848755" lon="-21.525463104">
<ele>184.386719</ele>
<time>2012-07-18T15:49:05Z</time>
<speed>2.210000</speed>
<extensions>
<speed>2.2</speed>
<temp>0.00</temp>
<bpm>0</bpm>
<rpm>0.00</rpm>
</extensions>
</trkpt>
<trkpt lat="64.191917419" lon="-21.525243759">
<ele>184.886719</ele>
<time>2012-07-18T15:49:10Z</time>
<speed>2.470000</speed>
<extensions>
<speed>2.5</speed>
<temp>0.00</temp>
<bpm>0</bpm>
<rpm>0.00</rpm>
</extensions>
</trkpt>
<trkpt lat="64.191978455" lon="-21.525001526">
<ele>185.535156</ele>
<time>2012-07-18T15:49:15Z</time>
<speed>2.510000</speed>
<extensions>
<speed>2.5</speed>
<temp>0.00</temp>
<bpm>0</bpm>
<rpm>0.00</rpm>
</extensions>
</trkpt>
<trkpt lat="64.192024231" lon="-21.524770737">
<ele>185.496094</ele>
<time>2012-07-18T15:49:20Z</time>
<speed>2.500000</speed>
<extensions>
<speed>2.5</speed>
<temp>0.00</temp>
<bpm>0</bpm>
<rpm>0.00</rpm>
</extensions>
</trkpt>
<trkpt lat="64.192092896" lon="-21.524580002">
<ele>187.628906</ele>
<time>2012-07-18T15:49:25Z</time>
<speed>2.110000</speed>
<extensions>
<speed>2.1</speed>
<temp>0.00</temp>
<bpm>0</bpm>
<rpm>0.00</rpm>
</extensions>
</trkpt>
<trkpt lat="64.192153931" lon="-21.524353027">
<ele>188.195313</ele>
<time>2012-07-18T15:49:30Z</time>
<speed>2.760000</speed>
<extensions>
<speed>2.8</speed>
<temp>0.00</temp>
<bpm>0</bpm>
<rpm>0.00</rpm>
</extensions>
</trkpt>
<trkpt lat="64.192222595" lon="-21.524103165">
<ele>189.593750</ele>
<time>2012-07-18T15:49:35Z</time>
<speed>2.960000</speed>
<extensions>
<speed>3.0</speed>
<temp>0.00</temp>
<bpm>0</bpm>
<rpm>0.00</rpm>
</extensions>
</trkpt>
<trkpt lat="64.192298889" lon="-21.523820877">
<ele>189.738281</ele>
<time>2012-07-18T15:49:40Z</time>
<speed>3.760000</speed>
<extensions>
<speed>3.8</speed>
<temp>0.00</temp>
<bpm>0</bpm>
<rpm>0.00</rpm>
</extensions>
</trkpt>
<trkpt lat="64.192375183" lon="-21.523551941">
<ele>190.667969</ele>
<time>2012-07-18T15:49:45Z</time>
<speed>2.840000</speed>
<extensions>
<speed>2.8</speed>
<temp>0.00</temp>
<bpm>0</bpm>
<rpm>0.00</rpm>
</extensions>
</trkpt>
<trkpt lat="64.192436218" lon="-21.523342133">
<ele>191.046875</ele>
<time>2012-07-18T15:49:50Z</time>
<speed>2.180000</speed>
<extensions>
<speed>2.2</speed>
<temp>0.00</temp>
<bpm>0</bpm>
<rpm>0.00</rpm>
</extensions>
</trkpt>
<trkpt lat="64.192481995" lon="-21.523162842">
<ele>192.070313</ele>
<time>2012-07-18T15:49:55Z</time>
<speed>2.090000</speed>
<extensions>
<speed>2.1</speed>
<temp>0.00</temp>
<bpm>0</bpm>
<rpm>0.00</rpm>
</extensions>
</trkpt>
<trkpt lat="64.192527771" lon="-21.522994995">
<ele>192.726563</ele>
<time>2012-07-18T15:50:00Z</time>
<speed>2.130000</speed>
<extensions>
<speed>2.1</speed>
<temp>0.00</temp>
<bpm>0</bpm>
<rpm>0.00</rpm>
</extensions>
</trkpt>
<trkpt lat="64.192581177" lon="-21.522804260">
<ele>193.269531</ele>
<time>2012-07-18T15:50:05Z</time>
<speed>1.900000</speed>
<extensions>
<speed>1.9</speed>
<temp>0.00</temp>
<bpm>0</bpm>
<rpm>0.00</rpm>
</extensions>
</trkpt>
<trkpt lat="64.192619324" lon="-21.522674561">
<ele>194.039063</ele>
<time>2012-07-18T15:50:10Z</time>
<speed>1.460000</speed>
<extensions>
<speed>1.5</speed>
<temp>0.00</temp>
<bpm>0</bpm>
<rpm>0.00</rpm>
</extensions>
</trkpt>
<trkpt lat="64.192657471" lon="-21.522542953">
<ele>194.632813</ele>
<time>2012-07-18T15:50:15Z</time>
<speed>1.840000</speed>
<extensions>
<speed>1.8</speed>
<temp>0.00</temp>
<bpm>0</bpm>
<rpm>0.00</rpm>
</extensions>
</trkpt>
<trkpt lat="64.192710876" lon="-21.522380829">
<ele>195.363281</ele>
<time>2012-07-18T15:50:20Z</time>
<speed>1.650000</speed>
<extensions>
<speed>1.7</speed>
<temp>0.00</temp>
<bpm>0</bpm>
<rpm>0.00</rpm>
</extensions>
</trkpt>
<trkpt lat="64.192741394" lon="-21.522258759">
<ele>195.718750</ele>
<time>2012-07-18T15:50:25Z</time>
<speed>1.280000</speed>
<extensions>
<speed>1.3</speed>
<temp>0.00</temp>
<bpm>0</bpm>
<rpm>0.00</rpm>
</extensions>
</trkpt>
<trkpt lat="64.192764282" lon="-21.522142410">
<ele>195.636719</ele>
<time>2012-07-18T15:50:30Z</time>
<speed>1.090000</speed>
<extensions>
<speed>1.1</speed>
<temp>0.00</temp>
<bpm>0</bpm>
<rpm>0.00</rpm>
</extensions>
</trkpt>
<trkpt lat="64.192794800" lon="-21.522026062">
<ele>195.984375</ele>
<time>2012-07-18T15:50:35Z</time>
<speed>1.500000</speed>
<extensions>
<speed>1.5</speed>
<temp>0.00</temp>
<bpm>0</bpm>
<rpm>0.00</rpm>
</extensions>
</trkpt>
<trkpt lat="64.192832947" lon="-21.521888733">
<ele>196.410156</ele>
<time>2012-07-18T15:50:40Z</time>
<speed>1.790000</speed>
<extensions>
<speed>1.8</speed>
<temp>0.00</temp>
<bpm>0</bpm>
<rpm>0.00</rpm>
</extensions>
</trkpt>
<trkpt lat="64.192878723" lon="-21.521751404">
<ele>197.238281</ele>
<time>2012-07-18T15:50:45Z</time>
<speed>1.840000</speed>
<extensions>
<speed>1.8</speed>
<temp>0.00</temp>
<bpm>0</bpm>
<rpm>0.00</rpm>
</extensions>
</trkpt>
<trkpt lat="64.192916870" lon="-21.521566391">
<ele>198.050781</ele>
<time>2012-07-18T15:50:50Z</time>
<speed>2.060000</speed>
<extensions>
<speed>2.1</speed>
<temp>0.00</temp>
<bpm>0</bpm>
<rpm>0.00</rpm>
</extensions>
</trkpt>
<trkpt lat="64.192955017" lon="-21.521396637">
<ele>198.980469</ele>
<time>2012-07-18T15:50:55Z</time>
<speed>1.680000</speed>
<extensions>
<speed>1.7</speed>
<temp>0.00</temp>
<bpm>0</bpm>
<rpm>0.00</rpm>
</extensions>
</trkpt>
<trkpt lat="64.192993164" lon="-21.521268845">
<ele>200.070313</ele>
<time>2012-07-18T15:51:00Z</time>
<speed>0.830000</speed>
<extensions>
<speed>0.8</speed>
<temp>0.00</temp>
<bpm>0</bpm>
<rpm>0.00</rpm>
</extensions>
</trkpt>
<trkpt lat="64.193038940" lon="-21.521163940">
<ele>200.050781</ele>
<time>2012-07-18T15:51:05Z</time>
<speed>1.210000</speed>
<extensions>
<speed>1.2</speed>
<temp>0.00</temp>
<bpm>0</bpm>
<rpm>0.00</rpm>
</extensions>
</trkpt>
<trkpt lat="64.193077087" lon="-21.521045685">
<ele>199.632813</ele>
<time>2012-07-18T15:51:10Z</time>
<speed>1.680000</speed>
<extensions>
<speed>1.7</speed>
<temp>0.00</temp>
<bpm>0</bpm>
<rpm>0.00</rpm>
</extensions>
</trkpt>
<trkpt lat="64.193115234" lon="-21.520900726">
<ele>200.472656</ele>
<time>2012-07-18T15:51:15Z</time>
<speed>1.550000</speed>
<extensions>
<speed>1.5</speed>
<temp>0.00</temp>
<bpm>0</bpm>
<rpm>0.00</rpm>
</extensions>
</trkpt>
<trkpt lat="64.193145752" lon="-21.520732880">
<ele>200.691406</ele>
<time>2012-07-18T15:51:20Z</time>
<speed>1.570000</speed>
<extensions>
<speed>1.6</speed>
<temp>0.00</temp>
<bpm>0</bpm>
<rpm>0.00</rpm>
</extensions>
</trkpt>
<trkpt lat="64.193191528" lon="-21.520534515">
<ele>201.257813</ele>
<time>2012-07-18T15:51:25Z</time>
<speed>2.470000</speed>
<extensions>
<speed>2.5</speed>
<temp>0.00</temp>
<bpm>0</bpm>
<rpm>0.00</rpm>
</extensions>
</trkpt>
<trkpt lat="64.193260193" lon="-21.520324707">
<ele>201.699219</ele>
<time>2012-07-18T15:51:30Z</time>
<speed>2.550000</speed>
<extensions>
<speed>2.6</speed>
<temp>0.00</temp>
<bpm>0</bpm>
<rpm>0.00</rpm>
</extensions>
</trkpt>
<trkpt lat="64.193321228" lon="-21.520090103">
<ele>202.546875</ele>
<time>2012-07-18T15:51:35Z</time>
<speed>2.750000</speed>
<extensions>
<speed>2.7</speed>
<temp>0.00</temp>
<bpm>0</bpm>
<rpm>0.00</rpm>
</extensions>
</trkpt>
<trkpt lat="64.193389893" lon="-21.519847870">
<ele>203.710938</ele>
<time>2012-07-18T15:51:40Z</time>
<speed>3.030000</speed>
<extensions>
<speed>3.0</speed>
<temp>0.00</temp>
<bpm>0</bpm>
<rpm>0.00</rpm>
</extensions>
</trkpt>
<trkpt lat="64.193458557" lon="-21.519578934">
<ele>204.464844</ele>
<time>2012-07-18T15:51:45Z</time>
<speed>3.230000</speed>
<extensions>
<speed>3.2</speed>
<temp>0.00</temp>
<bpm>0</bpm>
<rpm>0.00</rpm>
</extensions>
</trkpt>
<trkpt lat="64.193534851" lon="-21.519298553">
<ele>205.816406</ele>
<time>2012-07-18T15:51:50Z</time>
<speed>3.010000</speed>
<extensions>
<speed>3.0</speed>
<temp>0.00</temp>
<bpm>0</bpm>
<rpm>0.00</rpm>
</extensions>
</trkpt>
<trkpt lat="64.193611145" lon="-21.519048691">
<ele>206.457031</ele>
<time>2012-07-18T15:51:55Z</time>
<speed>3.060000</speed>
<extensions>
<speed>3.1</speed>
<temp>0.00</temp>
<bpm>0</bpm>
<rpm>0.00</rpm>
</extensions>
</trkpt>
<trkpt lat="64.193679810" lon="-21.518787384">
<ele>207.218750</ele>
<time>2012-07-18T15:52:00Z</time>
<speed>2.910000</speed>
<extensions>
<speed>2.9</speed>
<temp>0.00</temp>
<bpm>0</bpm>
<rpm>0.00</rpm>
</extensions>
</trkpt>
<trkpt lat="64.193748474" lon="-21.518539429">
<ele>207.453125</ele>
<time>2012-07-18T15:52:05Z</time>
<speed>2.940000</speed>
<extensions>
<speed>2.9</speed>
<temp>0.00</temp>
<bpm>0</bpm>
<rpm>0.00</rpm>
</extensions>
</trkpt>
<trkpt lat="64.193824768" lon="-21.518259048">
<ele>208.218750</ele>
<time>2012-07-18T15:52:10Z</time>
<speed>3.290000</speed>
<extensions>
<speed>3.3</speed>
<temp>0.00</temp>
<bpm>0</bpm>
<rpm>0.00</rpm>
</extensions>
</trkpt>
<trkpt lat="64.193878174" lon="-21.518035889">
<ele>209.269531</ele>
<time>2012-07-18T15:52:15Z</time>
<speed>2.020000</speed>
<extensions>
<speed>2.0</speed>
<temp>0.00</temp>
<bpm>0</bpm>
<rpm>0.00</rpm>
</extensions>
</trkpt>
<trkpt lat="64.193946838" lon="-21.517799377">
<ele>209.675781</ele>
<time>2012-07-18T15:52:20Z</time>
<speed>3.130000</speed>
<extensions>
<speed>3.1</speed>
<temp>0.00</temp>
<bpm>0</bpm>
<rpm>0.00</rpm>
</extensions>
</trkpt>
<trkpt lat="64.194015503" lon="-21.517511368">
<ele>210.265625</ele>
<time>2012-07-18T15:52:25Z</time>
<speed>2.820000</speed>
<extensions>
<speed>2.8</speed>
<temp>0.00</temp>
<bpm>0</bpm>
<rpm>0.00</rpm>
</extensions>
</trkpt>
<trkpt lat="64.194084167" lon="-21.517288208">
<ele>210.855469</ele>
<time>2012-07-18T15:52:30Z</time>
<speed>3.170000</speed>
<extensions>
<speed>3.2</speed>
<temp>0.00</temp>
<bpm>0</bpm>
<rpm>0.00</rpm>
</extensions>
</trkpt>
<trkpt lat="64.194160461" lon="-21.516983032">
<ele>211.609375</ele>
<time>2012-07-18T15:52:35Z</time>
<speed>3.270000</speed>
<extensions>
<speed>3.3</speed>
<temp>0.00</temp>
<bpm>0</bpm>
<rpm>0.00</rpm>
</extensions>
</trkpt>
<trkpt lat="64.194244385" lon="-21.516689301">
<ele>212.089844</ele>
<time>2012-07-18T15:52:40Z</time>
<speed>3.490000</speed>
<extensions>
<speed>3.5</speed>
<temp>0.00</temp>
<bpm>0</bpm>
<rpm>0.00</rpm>
</extensions>
</trkpt>
<trkpt lat="64.194343567" lon="-21.516355515">
<ele>212.750000</ele>
<time>2012-07-18T15:52:45Z</time>
<speed>4.360000</speed>
<extensions>
<speed>4.4</speed>
<temp>0.00</temp>
<bpm>0</bpm>
<rpm>0.00</rpm>
</extensions>
</trkpt>
<trkpt lat="64.194419861" lon="-21.516048431">
<ele>213.339844</ele>
<time>2012-07-18T15:52:50Z</time>
<speed>2.800000</speed>
<extensions>
<speed>2.8</speed>
<temp>0.00</temp>
<bpm>0</bpm>
<rpm>0.00</rpm>
</extensions>
</trkpt>
<trkpt lat="64.194488525" lon="-21.515821457">
<ele>213.921875</ele>
<time>2012-07-18T15:52:55Z</time>
<speed>3.170000</speed>
<extensions>
<speed>3.2</speed>
<temp>0.00</temp>
<bpm>0</bpm>
<rpm>0.00</rpm>
</extensions>
</trkpt>
<trkpt lat="64.194572449" lon="-21.515510559">
<ele>214.265625</ele>
<time>2012-07-18T15:53:00Z</time>
<speed>3.700000</speed>
<extensions>
<speed>3.7</speed>
<temp>0.00</temp>
<bpm>0</bpm>
<rpm>0.00</rpm>
</extensions>
</trkpt>
<trkpt lat="64.194671631" lon="-21.515142441">
<ele>214.925781</ele>
<time>2012-07-18T15:53:05Z</time>
<speed>4.250000</speed>
<extensions>
<speed>4.3</speed>
<temp>0.00</temp>
<bpm>0</bpm>
<rpm>0.00</rpm>
</extensions>
</trkpt>
<trkpt lat="64.194755554" lon="-21.514835358">
<ele>215.019531</ele>
<time>2012-07-18T15:53:10Z</time>
<speed>3.560000</speed>
<extensions>
<speed>3.6</speed>
<temp>0.00</temp>
<bpm>0</bpm>
<rpm>0.00</rpm>
</extensions>
</trkpt>
<trkpt lat="64.194847107" lon="-21.514478683">
<ele>215.460938</ele>
<time>2012-07-18T15:53:15Z</time>
<speed>4.280000</speed>
<extensions>
<speed>4.3</speed>
<temp>0.00</temp>
<bpm>0</bpm>
<rpm>0.00</rpm>
</extensions>
</trkpt>
<trkpt lat="64.194931030" lon="-21.514205933">
<ele>215.664063</ele>
<time>2012-07-18T15:53:20Z</time>
<speed>2.680000</speed>
<extensions>
<speed>2.7</speed>
<temp>0.00</temp>
<bpm>0</bpm>
<rpm>0.00</rpm>
</extensions>
</trkpt>
<trkpt lat="64.194992065" lon="-21.513929367">
<ele>215.785156</ele>
<time>2012-07-18T15:53:25Z</time>
<speed>3.180000</speed>
<extensions>
<speed>3.2</speed>
<temp>0.00</temp>
<bpm>0</bpm>
<rpm>0.00</rpm>
</extensions>
</trkpt>
<trkpt lat="64.195068359" lon="-21.513618469">
<ele>216.003906</ele>
<time>2012-07-18T15:53:30Z</time>
<speed>3.660000</speed>
<extensions>
<speed>3.7</speed>
<temp>0.00</temp>
<bpm>0</bpm>
<rpm>0.00</rpm>
</extensions>
</trkpt>
<trkpt lat="64.195167542" lon="-21.513290405">
<ele>215.355469</ele>
<time>2012-07-18T15:53:35Z</time>
<speed>3.780000</speed>
<extensions>
<speed>3.8</speed>
<temp>0.00</temp>
<bpm>0</bpm>
<rpm>0.00</rpm>
</extensions>
</trkpt>
<trkpt lat="64.195243835" lon="-21.512945175">
<ele>215.644531</ele>
<time>2012-07-18T15:53:40Z</time>
<speed>3.750000</speed>
<extensions>
<speed>3.8</speed>
<temp>0.00</temp>
<bpm>0</bpm>
<rpm>0.00</rpm>
</extensions>
</trkpt>
<trkpt lat="64.195335388" lon="-21.512584686">
<ele>215.835938</ele>
<time>2012-07-18T15:53:45Z</time>
<speed>3.960000</speed>
<extensions>
<speed>4.0</speed>
<temp>0.00</temp>
<bpm>0</bpm>
<rpm>0.00</rpm>
</extensions>
</trkpt>
<trkpt lat="64.195411682" lon="-21.512222290">
<ele>216.769531</ele>
<time>2012-07-18T15:53:50Z</time>
<speed>4.120000</speed>
<extensions>
<speed>4.1</speed>
<temp>0.00</temp>
<bpm>0</bpm>
<rpm>0.00</rpm>
</extensions>
</trkpt>
<trkpt lat="64.195503235" lon="-21.511844635">
<ele>216.476563</ele>
<time>2012-07-18T15:53:55Z</time>
<speed>4.140000</speed>
<extensions>
<speed>4.1</speed>
<temp>0.00</temp>
<bpm>0</bpm>
<rpm>0.00</rpm>
</extensions>
</trkpt>
<trkpt lat="64.195571899" lon="-21.511449814">
<ele>216.855469</ele>
<time>2012-07-18T15:54:00Z</time>
<speed>4.290000</speed>
<extensions>
<speed>4.3</speed>
<temp>0.00</temp>
<bpm>0</bpm>
<rpm>0.00</rpm>
</extensions>
</trkpt>
<trkpt lat="64.195648193" lon="-21.511051178">
<ele>218.953125</ele>
<time>2012-07-18T15:54:05Z</time>
<speed>4.370000</speed>
<extensions>
<speed>4.4</speed>
<temp>0.00</temp>
<bpm>0</bpm>
<rpm>0.00</rpm>
</extensions>
</trkpt>
<trkpt lat="64.195716858" lon="-21.510622025">
<ele>218.921875</ele>
<time>2012-07-18T15:54:10Z</time>
<speed>4.480000</speed>
<extensions>
<speed>4.5</speed>
<temp>0.00</temp>
<bpm>0</bpm>
<rpm>0.00</rpm>
</extensions>
</trkpt>
<trkpt lat="64.195785522" lon="-21.510183334">
<ele>219.535156</ele>
<time>2012-07-18T15:54:15Z</time>
<speed>4.640000</speed>
<extensions>
<speed>4.6</speed>
<temp>0.00</temp>
<bpm>0</bpm>
<rpm>0.00</rpm>
</extensions>
</trkpt>
<trkpt lat="64.195854187" lon="-21.509717941">
<ele>218.453125</ele>
<time>2012-07-18T15:54:20Z</time>
<speed>4.830000</speed>
<extensions>
<speed>4.8</speed>
<temp>0.00</temp>
<bpm>0</bpm>
<rpm>0.00</rpm>
</extensions>
</trkpt>
<trkpt lat="64.195915222" lon="-21.509244919">
<ele>217.730469</ele>
<time>2012-07-18T15:54:25Z</time>
<speed>4.410000</speed>
<extensions>
<speed>4.4</speed>
<temp>0.00</temp>
<bpm>0</bpm>
<rpm>0.00</rpm>
</extensions>
</trkpt>
<trkpt lat="64.195976257" lon="-21.508840561">
<ele>217.609375</ele>
<time>2012-07-18T15:54:30Z</time>
<speed>3.590000</speed>
<extensions>
<speed>3.6</speed>
<temp>0.00</temp>
<bpm>0</bpm>
<rpm>0.00</rpm>
</extensions>
</trkpt>
<trkpt lat="64.196037292" lon="-21.508476257">
<ele>218.343750</ele>
<time>2012-07-18T15:54:35Z</time>
<speed>3.860000</speed>
<extensions>
<speed>3.9</speed>
<temp>0.00</temp>
<bpm>0</bpm>
<rpm>0.00</rpm>
</extensions>
</trkpt>
<trkpt lat="64.196083069" lon="-21.508140564">
<ele>218.648438</ele>
<time>2012-07-18T15:54:40Z</time>
<speed>3.630000</speed>
<extensions>
<speed>3.6</speed>
<temp>0.00</temp>
<bpm>0</bpm>
<rpm>0.00</rpm>
</extensions>
</trkpt>
<trkpt lat="64.196121216" lon="-21.507747650">
<ele>217.191406</ele>
<time>2012-07-18T15:54:45Z</time>
<speed>4.260000</speed>
<extensions>
<speed>4.3</speed>
<temp>0.00</temp>
<bpm>0</bpm>
<rpm>0.00</rpm>
</extensions>
</trkpt>
<trkpt lat="64.196166992" lon="-21.507287979">
<ele>216.332031</ele>
<time>2012-07-18T15:54:50Z</time>
<speed>4.910000</speed>
<extensions>
<speed>4.9</speed>
<temp>0.00</temp>
<bpm>0</bpm>
<rpm>0.00</rpm>
</extensions>
</trkpt>
<trkpt lat="64.196212769" lon="-21.506782532">
<ele>215.816406</ele>
<time>2012-07-18T15:54:55Z</time>
<speed>4.940000</speed>
<extensions>
<speed>4.9</speed>
<temp>0.00</temp>
<bpm>0</bpm>
<rpm>0.00</rpm>
</extensions>
</trkpt>
<trkpt lat="64.196258545" lon="-21.506240845">
<ele>215.417969</ele>
<time>2012-07-18T15:55:00Z</time>
<speed>5.620000</speed>
<extensions>
<speed>5.6</speed>
<temp>0.00</temp>
<bpm>0</bpm>
<rpm>0.00</rpm>
</extensions>
</trkpt>
<trkpt lat="64.196304321" lon="-21.505640030">
<ele>215.847656</ele>
<time>2012-07-18T15:55:05Z</time>
<speed>5.860000</speed>
<extensions>
<speed>5.9</speed>
<temp>0.00</temp>
<bpm>0</bpm>
<rpm>0.00</rpm>
</extensions>
</trkpt>
<trkpt lat="64.196357727" lon="-21.505067825">
<ele>214.738281</ele>
<time>2012-07-18T15:55:10Z</time>
<speed>5.200000</speed>
<extensions>
<speed>5.2</speed>
<temp>0.00</temp>
<bpm>0</bpm>
<rpm>0.00</rpm>
</extensions>
</trkpt>
<trkpt lat="64.196411133" lon="-21.504528046">
<ele>215.218750</ele>
<time>2012-07-18T15:55:15Z</time>
<speed>5.170000</speed>
<extensions>
<speed>5.2</speed>
<temp>0.00</temp>
<bpm>0</bpm>
<rpm>0.00</rpm>
</extensions>
</trkpt>
<trkpt lat="64.196464539" lon="-21.503948212">
<ele>215.585938</ele>
<time>2012-07-18T15:55:20Z</time>
<speed>5.660000</speed>
<extensions>
<speed>5.7</speed>
<temp>0.00</temp>
<bpm>0</bpm>
<rpm>0.00</rpm>
</extensions>
</trkpt>
<trkpt lat="64.196517944" lon="-21.503404617">
<ele>216.359375</ele>
<time>2012-07-18T15:55:25Z</time>
<speed>5.370000</speed>
<extensions>
<speed>5.4</speed>
<temp>0.00</temp>
<bpm>0</bpm>
<rpm>0.00</rpm>
</extensions>
</trkpt>
<trkpt lat="64.196578979" lon="-21.502830505">
<ele>216.800781</ele>
<time>2012-07-18T15:55:30Z</time>
<speed>5.670000</speed>
<extensions>
<speed>5.7</speed>
<temp>0.00</temp>
<bpm>0</bpm>
<rpm>0.00</rpm>
</extensions>
</trkpt>
<trkpt lat="64.196624756" lon="-21.502244949">
<ele>215.074219</ele>
<time>2012-07-18T15:55:35Z</time>
<speed>6.140000</speed>
<extensions>
<speed>6.1</speed>
<temp>0.00</temp>
<bpm>0</bpm>
<rpm>0.00</rpm>
</extensions>
</trkpt>
<trkpt lat="64.196701050" lon="-21.501630783">
<ele>215.457031</ele>
<time>2012-07-18T15:55:40Z</time>
<speed>6.400000</speed>
<extensions>
<speed>6.4</speed>
<temp>0.00</temp>
<bpm>0</bpm>
<rpm>0.00</rpm>
</extensions>
</trkpt>
<trkpt lat="64.196777344" lon="-21.501005173">
<ele>213.679688</ele>
<time>2012-07-18T15:55:45Z</time>
<speed>6.260000</speed>
<extensions>
<speed>6.3</speed>
<temp>0.00</temp>
<bpm>0</bpm>
<rpm>0.00</rpm>
</extensions>
</trkpt>
<trkpt lat="64.196876526" lon="-21.500387192">
<ele>211.480469</ele>
<time>2012-07-18T15:55:50Z</time>
<speed>6.390000</speed>
<extensions>
<speed>6.4</speed>
<temp>0.00</temp>
<bpm>0</bpm>
<rpm>0.00</rpm>
</extensions>
</trkpt>
<trkpt lat="64.196975708" lon="-21.499752045">
<ele>211.375000</ele>
<time>2012-07-18T15:55:55Z</time>
<speed>6.570000</speed>
<extensions>
<speed>6.6</speed>
<temp>0.00</temp>
<bpm>0</bpm>
<rpm>0.00</rpm>
</extensions>
</trkpt>
<trkpt lat="64.197113037" lon="-21.499069214">
<ele>213.578125</ele>
<time>2012-07-18T15:56:00Z</time>
<speed>6.890000</speed>
<extensions>
<speed>6.9</speed>
<temp>0.00</temp>
<bpm>0</bpm>
<rpm>0.00</rpm>
</extensions>
</trkpt>
<trkpt lat="64.197257996" lon="-21.498416901">
<ele>211.117188</ele>
<time>2012-07-18T15:56:05Z</time>
<speed>7.130000</speed>
<extensions>
<speed>7.1</speed>
<temp>0.00</temp>
<bpm>0</bpm>
<rpm>0.00</rpm>
</extensions>
</trkpt>
<trkpt lat="64.197395325" lon="-21.497758865">
<ele>209.277344</ele>
<time>2012-07-18T15:56:10Z</time>
<speed>7.020000</speed>
<extensions>
<speed>7.0</speed>
<temp>0.00</temp>
<bpm>0</bpm>
<rpm>0.00</rpm>
</extensions>
</trkpt>
<trkpt lat="64.197555542" lon="-21.497135162">
<ele>207.972656</ele>
<time>2012-07-18T15:56:15Z</time>
<speed>7.070000</speed>
<extensions>
<speed>7.1</speed>
<temp>0.00</temp>
<bpm>0</bpm>
<rpm>0.00</rpm>
</extensions>
</trkpt>
<trkpt lat="64.197715759" lon="-21.496496201">
<ele>207.062500</ele>
<time>2012-07-18T15:56:20Z</time>
<speed>7.200000</speed>
<extensions>
<speed>7.2</speed>
<temp>0.00</temp>
<bpm>0</bpm>
<rpm>0.00</rpm>
</extensions>
</trkpt>
<trkpt lat="64.197891235" lon="-21.495861053">
<ele>205.070313</ele>
<time>2012-07-18T15:56:25Z</time>
<speed>7.300000</speed>
<extensions>
<speed>7.3</speed>
<temp>0.00</temp>
<bpm>0</bpm>
<rpm>0.00</rpm>
</extensions>
</trkpt>
<trkpt lat="64.198074341" lon="-21.495223999">
<ele>204.453125</ele>
<time>2012-07-18T15:56:30Z</time>
<speed>7.270000</speed>
<extensions>
<speed>7.3</speed>
<temp>0.00</temp>
<bpm>0</bpm>
<rpm>0.00</rpm>
</extensions>
</trkpt>
<trkpt lat="64.198265076" lon="-21.494588852">
<ele>202.980469</ele>
<time>2012-07-18T15:56:35Z</time>
<speed>7.420000</speed>
<extensions>
<speed>7.4</speed>
<temp>0.00</temp>
<bpm>0</bpm>
<rpm>0.00</rpm>
</extensions>
</trkpt>
<trkpt lat="64.198432922" lon="-21.493976593">
<ele>200.976563</ele>
<time>2012-07-18T15:56:40Z</time>
<speed>7.450000</speed>
<extensions>
<speed>7.4</speed>
<temp>0.00</temp>
<bpm>0</bpm>
<rpm>0.00</rpm>
</extensions>
</trkpt>
<trkpt lat="64.198616028" lon="-21.493330002">
<ele>200.972656</ele>
<time>2012-07-18T15:56:45Z</time>
<speed>7.710000</speed>
<extensions>
<speed>7.7</speed>
<temp>0.00</temp>
<bpm>0</bpm>
<rpm>0.00</rpm>
</extensions>
</trkpt>
<trkpt lat="64.198806763" lon="-21.492649078">
<ele>201.730469</ele>
<time>2012-07-18T15:56:50Z</time>
<speed>7.710000</speed>
<extensions>
<speed>7.7</speed>
<temp>0.00</temp>
<bpm>0</bpm>
<rpm>0.00</rpm>
</extensions>
</trkpt>
<trkpt lat="64.198982239" lon="-21.492025375">
<ele>201.937500</ele>
<time>2012-07-18T15:56:55Z</time>
<speed>7.190000</speed>
<extensions>
<speed>7.2</speed>
<temp>0.00</temp>
<bpm>0</bpm>
<rpm>0.00</rpm>
</extensions>
</trkpt>
<trkpt lat="64.199165344" lon="-21.491422653">
<ele>201.843750</ele>
<time>2012-07-18T15:57:00Z</time>
<speed>6.760000</speed>
<extensions>
<speed>6.8</speed>
<temp>0.00</temp>
<bpm>0</bpm>
<rpm>0.00</rpm>
</extensions>
</trkpt>
<trkpt lat="64.199310303" lon="-21.490850449">
<ele>201.945313</ele>
<time>2012-07-18T15:57:05Z</time>
<speed>6.710000</speed>
<extensions>
<speed>6.7</speed>
<temp>0.00</temp>
<bpm>0</bpm>
<rpm>0.00</rpm>
</extensions>
</trkpt>
<trkpt lat="64.199470520" lon="-21.490243912">
<ele>203.789063</ele>
<time>2012-07-18T15:57:10Z</time>
<speed>6.810000</speed>
<extensions>
<speed>6.8</speed>
<temp>0.00</temp>
<bpm>0</bpm>
<rpm>0.00</rpm>
</extensions>
</trkpt>
<trkpt lat="64.199638367" lon="-21.489654541">
<ele>202.027344</ele>
<time>2012-07-18T15:57:15Z</time>
<speed>6.690000</speed>
<extensions>
<speed>6.7</speed>
<temp>0.00</temp>
<bpm>0</bpm>
<rpm>0.00</rpm>
</extensions>
</trkpt>
<trkpt lat="64.199806213" lon="-21.489080429">
<ele>200.613281</ele>
<time>2012-07-18T15:57:20Z</time>
<speed>6.660000</speed>
<extensions>
<speed>6.7</speed>
<temp>0.00</temp>
<bpm>0</bpm>
<rpm>0.00</rpm>
</extensions>
</trkpt>
<trkpt lat="64.199958801" lon="-21.488510132">
<ele>199.355469</ele>
<time>2012-07-18T15:57:25Z</time>
<speed>6.840000</speed>
<extensions>
<speed>6.8</speed>
<temp>0.00</temp>
<bpm>0</bpm>
<rpm>0.00</rpm>
</extensions>
</trkpt>
<trkpt lat="64.200103760" lon="-21.487909317">
<ele>195.941406</ele>
<time>2012-07-18T15:57:30Z</time>
<speed>6.870000</speed>
<extensions>
<speed>6.9</speed>
<temp>0.00</temp>
<bpm>0</bpm>
<rpm>0.00</rpm>
</extensions>
</trkpt>
<trkpt lat="64.200279236" lon="-21.487344742">
<ele>199.886719</ele>
<time>2012-07-18T15:57:35Z</time>
<speed>6.050000</speed>
<extensions>
<speed>6.1</speed>
<temp>0.00</temp>
<bpm>0</bpm>
<rpm>0.00</rpm>
</extensions>
</trkpt>
<trkpt lat="64.200439453" lon="-21.486825943">
<ele>202.867188</ele>
<time>2012-07-18T15:57:40Z</time>
<speed>5.890000</speed>
<extensions>
<speed>5.9</speed>
<temp>0.00</temp>
<bpm>0</bpm>
<rpm>0.00</rpm>
</extensions>
</trkpt>
<trkpt lat="64.200576782" lon="-21.486244202">
<ele>203.535156</ele>
<time>2012-07-18T15:57:45Z</time>
<speed>6.420000</speed>
<extensions>
<speed>6.4</speed>
<temp>0.00</temp>
<bpm>0</bpm>
<rpm>0.00</rpm>
</extensions>
</trkpt>
<trkpt lat="64.200706482" lon="-21.485658646">
<ele>202.398438</ele>
<time>2012-07-18T15:57:50Z</time>
<speed>6.540000</speed>
<extensions>
<speed>6.5</speed>
<temp>0.00</temp>
<bpm>0</bpm>
<rpm>0.00</rpm>
</extensions>
</trkpt>
<trkpt lat="64.200828552" lon="-21.485063553">
<ele>202.304688</ele>
<time>2012-07-18T15:57:55Z</time>
<speed>6.440000</speed>
<extensions>
<speed>6.4</speed>
<temp>0.00</temp>
<bpm>0</bpm>
<rpm>0.00</rpm>
</extensions>
</trkpt>
<trkpt lat="64.200935364" lon="-21.484449387">
<ele>202.769531</ele>
<time>2012-07-18T15:58:00Z</time>
<speed>6.360000</speed>
<extensions>
<speed>6.4</speed>
<temp>0.00</temp>
<bpm>0</bpm>
<rpm>0.00</rpm>
</extensions>
</trkpt>
<trkpt lat="64.201042175" lon="-21.483837128">
<ele>202.335938</ele>
<time>2012-07-18T15:58:05Z</time>
<speed>6.480000</speed>
<extensions>
<speed>6.5</speed>
<temp>0.00</temp>
<bpm>0</bpm>
<rpm>0.00</rpm>
</extensions>
</trkpt>
<trkpt lat="64.201126099" lon="-21.483205795">
<ele>202.710938</ele>
<time>2012-07-18T15:58:10Z</time>
<speed>6.500000</speed>
<extensions>
<speed>6.5</speed>
<temp>0.00</temp>
<bpm>0</bpm>
<rpm>0.00</rpm>
</extensions>
</trkpt>
<trkpt lat="64.201217651" lon="-21.482566833">
<ele>202.484375</ele>
<time>2012-07-18T15:58:15Z</time>
<speed>6.590000</speed>
<extensions>
<speed>6.6</speed>
<temp>0.00</temp>
<bpm>0</bpm>
<rpm>0.00</rpm>
</extensions>
</trkpt>
<trkpt lat="64.201286316" lon="-21.481912613">
<ele>202.402344</ele>
<time>2012-07-18T15:58:20Z</time>
<speed>6.500000</speed>
<extensions>
<speed>6.5</speed>
<temp>0.00</temp>
<bpm>0</bpm>
<rpm>0.00</rpm>
</extensions>
</trkpt>
<trkpt lat="64.201347351" lon="-21.481260300">
<ele>202.210938</ele>
<time>2012-07-18T15:58:25Z</time>
<speed>6.650000</speed>
<extensions>
<speed>6.7</speed>
<temp>0.00</temp>
<bpm>0</bpm>
<rpm>0.00</rpm>
</extensions>
</trkpt>
<trkpt lat="64.201400757" lon="-21.480600357">
<ele>202.054688</ele>
<time>2012-07-18T15:58:30Z</time>
<speed>6.490000</speed>
<extensions>
<speed>6.5</speed>
<temp>0.00</temp>
<bpm>0</bpm>
<rpm>0.00</rpm>
</extensions>
</trkpt>
<trkpt lat="64.201446533" lon="-21.479934692">
<ele>202.175781</ele>
<time>2012-07-18T15:58:35Z</time>
<speed>6.320000</speed>
<extensions>
<speed>6.3</speed>
<temp>0.00</temp>
<bpm>0</bpm>
<rpm>0.00</rpm>
</extensions>
</trkpt>
<trkpt lat="64.201484680" lon="-21.479330063">
<ele>201.601563</ele>
<time>2012-07-18T15:58:40Z</time>
<speed>5.830000</speed>
<extensions>
<speed>5.8</speed>
<temp>0.00</temp>
<bpm>0</bpm>
<rpm>0.00</rpm>
</extensions>
</trkpt>
<trkpt lat="64.201515198" lon="-21.478725433">
<ele>202.671875</ele>
<time>2012-07-18T15:58:45Z</time>
<speed>5.670000</speed>
<extensions>
<speed>5.7</speed>
<temp>0.00</temp>
<bpm>0</bpm>
<rpm>0.00</rpm>
</extensions>
</trkpt>
<trkpt lat="64.201538086" lon="-21.478160858">
<ele>205.175781</ele>
<time>2012-07-18T15:58:50Z</time>
<speed>5.290000</speed>
<extensions>
<speed>5.3</speed>
<temp>0.00</temp>
<bpm>0</bpm>
<rpm>0.00</rpm>
</extensions>
</trkpt>
<trkpt lat="64.201553345" lon="-21.477628708">
<ele>204.566406</ele>
<time>2012-07-18T15:58:55Z</time>
<speed>5.110000</speed>
<extensions>
<speed>5.1</speed>
<temp>0.00</temp>
<bpm>0</bpm>
<rpm>0.00</rpm>
</extensions>
</trkpt>
<trkpt lat="64.201568604" lon="-21.477090836">
<ele>204.988281</ele>
<time>2012-07-18T15:59:00Z</time>
<speed>5.420000</speed>
<extensions>
<speed>5.4</speed>
<temp>0.00</temp>
<bpm>0</bpm>
<rpm>0.00</rpm>
</extensions>
</trkpt>
<trkpt lat="64.201591492" lon="-21.476526260">
<ele>204.886719</ele>
<time>2012-07-18T15:59:05Z</time>
<speed>5.530000</speed>
<extensions>
<speed>5.5</speed>
<temp>0.00</temp>
<bpm>0</bpm>
<rpm>0.00</rpm>
</extensions>
</trkpt>
<trkpt lat="64.201606750" lon="-21.475976944">
<ele>205.246094</ele>
<time>2012-07-18T15:59:10Z</time>
<speed>5.400000</speed>
<extensions>
<speed>5.4</speed>
<temp>0.00</temp>
<bpm>0</bpm>
<rpm>0.00</rpm>
</extensions>
</trkpt>
<trkpt lat="64.201629639" lon="-21.475431442">
<ele>203.781250</ele>
<time>2012-07-18T15:59:15Z</time>
<speed>5.120000</speed>
<extensions>
<speed>5.1</speed>
<temp>0.00</temp>
<bpm>0</bpm>
<rpm>0.00</rpm>
</extensions>
</trkpt>
<trkpt lat="64.201652527" lon="-21.474925995">
<ele>204.039063</ele>
<time>2012-07-18T15:59:20Z</time>
<speed>4.890000</speed>
<extensions>
<speed>4.9</speed>
<temp>0.00</temp>
<bpm>0</bpm>
<rpm>0.00</rpm>
</extensions>
</trkpt>
<trkpt lat="64.201675415" lon="-21.474443436">
<ele>204.746094</ele>
<time>2012-07-18T15:59:25Z</time>
<speed>4.580000</speed>
<extensions>
<speed>4.6</speed>
<temp>0.00</temp>
<bpm>0</bpm>
<rpm>0.00</rpm>
</extensions>
</trkpt>
<trkpt lat="64.201698303" lon="-21.473983765">
<ele>205.679688</ele>
<time>2012-07-18T15:59:30Z</time>
<speed>4.430000</speed>
<extensions>
<speed>4.4</speed>
<temp>0.00</temp>
<bpm>0</bpm>
<rpm>0.00</rpm>
</extensions>
</trkpt>
<trkpt lat="64.201713562" lon="-21.473550797">
<ele>205.800781</ele>
<time>2012-07-18T15:59:35Z</time>
<speed>4.300000</speed>
<extensions>
<speed>4.3</speed>
<temp>0.00</temp>
<bpm>0</bpm>
<rpm>0.00</rpm>
</extensions>
</trkpt>
<trkpt lat="64.201728821" lon="-21.473100662">
<ele>207.687500</ele>
<time>2012-07-18T15:59:40Z</time>
<speed>4.230000</speed>
<extensions>
<speed>4.2</speed>
<temp>0.00</temp>
<bpm>0</bpm>
<rpm>0.00</rpm>
</extensions>
</trkpt>
<trkpt lat="64.201744080" lon="-21.472703934">
<ele>209.777344</ele>
<time>2012-07-18T15:59:45Z</time>
<speed>3.860000</speed>
<extensions>
<speed>3.9</speed>
<temp>0.00</temp>
<bpm>0</bpm>
<rpm>0.00</rpm>
</extensions>
</trkpt>
<trkpt lat="64.201759338" lon="-21.472291946">
<ele>209.863281</ele>
<time>2012-07-18T15:59:50Z</time>
<speed>4.470000</speed>
<extensions>
<speed>4.5</speed>
<temp>0.00</temp>
<bpm>0</bpm>
<rpm>0.00</rpm>
</extensions>
</trkpt>
<trkpt lat="64.201782227" lon="-21.471847534">
<ele>212.179688</ele>
<time>2012-07-18T15:59:55Z</time>
<speed>4.090000</speed>
<extensions>
<speed>4.1</speed>
<temp>0.00</temp>
<bpm>0</bpm>
<rpm>0.00</rpm>
</extensions>
</trkpt>
<trkpt lat="64.201805115" lon="-21.471460342">
<ele>212.765625</ele>
<time>2012-07-18T16:00:00Z</time>
<speed>3.890000</speed>
<extensions>
<speed>3.9</speed>
<temp>0.00</temp>
<bpm>0</bpm>
<rpm>0.00</rpm>
</extensions>
</trkpt>
<trkpt lat="64.201835632" lon="-21.471107483">
<ele>213.695313</ele>
<time>2012-07-18T16:00:05Z</time>
<speed>3.300000</speed>
<extensions>
<speed>3.3</speed>
<temp>0.00</temp>
<bpm>0</bpm>
<rpm>0.00</rpm>
</extensions>
</trkpt>
<trkpt lat="64.201858521" lon="-21.470821381">
<ele>214.031250</ele>
<time>2012-07-18T16:00:10Z</time>
<speed>2.450000</speed>
<extensions>
<speed>2.4</speed>
<temp>0.00</temp>
<bpm>0</bpm>
<rpm>0.00</rpm>
</extensions>
</trkpt>
<trkpt lat="64.201881409" lon="-21.470605850">
<ele>213.203125</ele>
<time>2012-07-18T16:00:15Z</time>
<speed>2.440000</speed>
<extensions>
<speed>2.4</speed>
<temp>0.00</temp>
<bpm>0</bpm>
<rpm>0.00</rpm>
</extensions>
</trkpt>
<trkpt lat="64.201911926" lon="-21.470323563">
<ele>213.312500</ele>
<time>2012-07-18T16:00:20Z</time>
<speed>1.940000</speed>
<extensions>
<speed>1.9</speed>
<temp>0.00</temp>
<bpm>0</bpm>
<rpm>0.00</rpm>
</extensions>
</trkpt>
<trkpt lat="64.201957703" lon="-21.470056534">
<ele>214.750000</ele>
<time>2012-07-18T16:00:25Z</time>
<speed>2.870000</speed>
<extensions>
<speed>2.9</speed>
<temp>0.00</temp>
<bpm>0</bpm>
<rpm>0.00</rpm>
</extensions>
</trkpt>
<trkpt lat="64.202003479" lon="-21.469726563">
<ele>213.761719</ele>
<time>2012-07-18T16:00:30Z</time>
<speed>3.530000</speed>
<extensions>
<speed>3.5</speed>
<temp>0.00</temp>
<bpm>0</bpm>
<rpm>0.00</rpm>
</extensions>
</trkpt>
<trkpt lat="64.202056885" lon="-21.469356537">
<ele>215.035156</ele>
<time>2012-07-18T16:00:35Z</time>
<speed>3.630000</speed>
<extensions>
<speed>3.6</speed>
<temp>0.00</temp>
<bpm>0</bpm>
<rpm>0.00</rpm>
</extensions>
</trkpt>
<trkpt lat="64.202095032" lon="-21.469045639">
<ele>216.015625</ele>
<time>2012-07-18T16:00:40Z</time>
<speed>2.850000</speed>
<extensions>
<speed>2.9</speed>
<temp>0.00</temp>
<bpm>0</bpm>
<rpm>0.00</rpm>
</extensions>
</trkpt>
<trkpt lat="64.202148438" lon="-21.468748093">
<ele>216.738281</ele>
<time>2012-07-18T16:00:45Z</time>
<speed>3.040000</speed>
<extensions>
<speed>3.0</speed>
<temp>0.00</temp>
<bpm>0</bpm>
<rpm>0.00</rpm>
</extensions>
</trkpt>
<trkpt lat="64.202194214" lon="-21.468500137">
<ele>217.863281</ele>
<time>2012-07-18T16:00:50Z</time>
<speed>2.230000</speed>
<extensions>
<speed>2.2</speed>
<temp>0.00</temp>
<bpm>0</bpm>
<rpm>0.00</rpm>
</extensions>
</trkpt>
<trkpt lat="64.202232361" lon="-21.468326569">
<ele>218.199219</ele>
<time>2012-07-18T16:00:55Z</time>
<speed>1.870000</speed>
<extensions>
<speed>1.9</speed>
<temp>0.00</temp>
<bpm>0</bpm>
<rpm>0.00</rpm>
</extensions>
</trkpt>
<trkpt lat="64.202262878" lon="-21.468143463">
<ele>216.773438</ele>
<time>2012-07-18T16:01:00Z</time>
<speed>2.200000</speed>
<extensions>
<speed>2.2</speed>
<temp>0.00</temp>
<bpm>0</bpm>
<rpm>0.00</rpm>
</extensions>
</trkpt>
<trkpt lat="64.202301025" lon="-21.467889786">
<ele>217.890625</ele>
<time>2012-07-18T16:01:05Z</time>
<speed>2.730000</speed>
<extensions>
<speed>2.7</speed>
<temp>0.00</temp>
<bpm>0</bpm>
<rpm>0.00</rpm>
</extensions>
</trkpt>
<trkpt lat="64.202346802" lon="-21.467676163">
<ele>218.308594</ele>
<time>2012-07-18T16:01:10Z</time>
<speed>2.370000</speed>
<extensions>
<speed>2.4</speed>
<temp>0.00</temp>
<bpm>0</bpm>
<rpm>0.00</rpm>
</extensions>
</trkpt>
<trkpt lat="64.202377319" lon="-21.467464447">
<ele>220.039063</ele>
<time>2012-07-18T16:01:15Z</time>
<speed>2.460000</speed>
<extensions>
<speed>2.5</speed>
<temp>0.00</temp>
<bpm>0</bpm>
<rpm>0.00</rpm>
</extensions>
</trkpt>
<trkpt lat="64.202423096" lon="-21.467208862">
<ele>221.546875</ele>
<time>2012-07-18T16:01:20Z</time>
<speed>2.600000</speed>
<extensions>
<speed>2.6</speed>
<temp>0.00</temp>
<bpm>0</bpm>
<rpm>0.00</rpm>
</extensions>
</trkpt>
<trkpt lat="64.202484131" lon="-21.466957092">
<ele>220.121094</ele>
<time>2012-07-18T16:01:25Z</time>
<speed>2.820000</speed>
<extensions>
<speed>2.8</speed>
<temp>0.00</temp>
<bpm>0</bpm>
<rpm>0.00</rpm>
</extensions>
</trkpt>
<trkpt lat="64.202545166" lon="-21.466707230">
<ele>219.660156</ele>
<time>2012-07-18T16:01:30Z</time>
<speed>2.860000</speed>
<extensions>
<speed>2.9</speed>
<temp>0.00</temp>
<bpm>0</bpm>
<rpm>0.00</rpm>
</extensions>
</trkpt>
<trkpt lat="64.202598572" lon="-21.466438293">
<ele>220.367188</ele>
<time>2012-07-18T16:01:35Z</time>
<speed>2.840000</speed>
<extensions>
<speed>2.8</speed>
<temp>0.00</temp>
<bpm>0</bpm>
<rpm>0.00</rpm>
</extensions>
</trkpt>
<trkpt lat="64.202659607" lon="-21.466190338">
<ele>221.523438</ele>
<time>2012-07-18T16:01:40Z</time>
<speed>2.740000</speed>
<extensions>
<speed>2.7</speed>
<temp>0.00</temp>
<bpm>0</bpm>
<rpm>0.00</rpm>
</extensions>
</trkpt>
<trkpt lat="64.202720642" lon="-21.465921402">
<ele>221.277344</ele>
<time>2012-07-18T16:01:45Z</time>
<speed>2.920000</speed>
<extensions>
<speed>2.9</speed>
<temp>0.00</temp>
<bpm>0</bpm>
<rpm>0.00</rpm>
</extensions>
</trkpt>
<trkpt lat="64.202781677" lon="-21.465696335">
<ele>222.140625</ele>
<time>2012-07-18T16:01:50Z</time>
<speed>1.650000</speed>
<extensions>
<speed>1.7</speed>
<temp>0.00</temp>
<bpm>0</bpm>
<rpm>0.00</rpm>
</extensions>
</trkpt>
<trkpt lat="64.202827454" lon="-21.465532303">
<ele>223.367188</ele>
<time>2012-07-18T16:01:55Z</time>
<speed>2.750000</speed>
<extensions>
<speed>2.7</speed>
<temp>0.00</temp>
<bpm>0</bpm>
<rpm>0.00</rpm>
</extensions>
</trkpt>
<trkpt lat="64.202896118" lon="-21.465253830">
<ele>224.398438</ele>
<time>2012-07-18T16:02:00Z</time>
<speed>3.140000</speed>
<extensions>
<speed>3.1</speed>
<temp>0.00</temp>
<bpm>0</bpm>
<rpm>0.00</rpm>
</extensions>
</trkpt>
<trkpt lat="64.202980042" lon="-21.464996338">
<ele>225.082031</ele>
<time>2012-07-18T16:02:05Z</time>
<speed>3.840000</speed>
<extensions>
<speed>3.8</speed>
<temp>0.00</temp>
<bpm>0</bpm>
<rpm>0.00</rpm>
</extensions>
</trkpt>
<trkpt lat="64.203056335" lon="-21.464748383">
<ele>225.984375</ele>
<time>2012-07-18T16:02:10Z</time>
<speed>1.900000</speed>
<extensions>
<speed>1.9</speed>
<temp>0.00</temp>
<bpm>0</bpm>
<rpm>0.00</rpm>
</extensions>
</trkpt>
<trkpt lat="64.203086853" lon="-21.464668274">
<ele>225.425781</ele>
<time>2012-07-18T16:02:15Z</time>
<speed>0.950000</speed>
<extensions>
<speed>1.0</speed>
<temp>0.00</temp>
<bpm>0</bpm>
<rpm>0.00</rpm>
</extensions>
</trkpt>
<trkpt lat="64.203125000" lon="-21.464551926">
<ele>225.597656</ele>
<time>2012-07-18T16:02:20Z</time>
<speed>1.770000</speed>
<extensions>
<speed>1.8</speed>
<temp>0.00</temp>
<bpm>0</bpm>
<rpm>0.00</rpm>
</extensions>
</trkpt>
<trkpt lat="64.203186035" lon="-21.464368820">
<ele>225.617188</ele>
<time>2012-07-18T16:02:25Z</time>
<speed>2.640000</speed>
<extensions>
<speed>2.6</speed>
<temp>0.00</temp>
<bpm>0</bpm>
<rpm>0.00</rpm>
</extensions>
</trkpt>
<trkpt lat="64.203262329" lon="-21.464139938">
<ele>226.699219</ele>
<time>2012-07-18T16:02:30Z</time>
<speed>2.910000</speed>
<extensions>
<speed>2.9</speed>
<temp>0.00</temp>
<bpm>0</bpm>
<rpm>0.00</rpm>
</extensions>
</trkpt>
<trkpt lat="64.203353882" lon="-21.463912964">
<ele>227.015625</ele>
<time>2012-07-18T16:02:35Z</time>
<speed>3.060000</speed>
<extensions>
<speed>3.1</speed>
<temp>0.00</temp>
<bpm>0</bpm>
<rpm>0.00</rpm>
</extensions>
</trkpt>
<trkpt lat="64.203445435" lon="-21.463676453">
<ele>227.843750</ele>
<time>2012-07-18T16:02:40Z</time>
<speed>3.040000</speed>
<extensions>
<speed>3.0</speed>
<temp>0.00</temp>
<bpm>0</bpm>
<rpm>0.00</rpm>
</extensions>
</trkpt>
<trkpt lat="64.203536987" lon="-21.463434219">
<ele>228.476563</ele>
<time>2012-07-18T16:02:45Z</time>
<speed>3.280000</speed>
<extensions>
<speed>3.3</speed>
<temp>0.00</temp>
<bpm>0</bpm>
<rpm>0.00</rpm>
</extensions>
</trkpt>
<trkpt lat="64.203643799" lon="-21.463193893">
<ele>228.039063</ele>
<time>2012-07-18T16:02:50Z</time>
<speed>3.410000</speed>
<extensions>
<speed>3.4</speed>
<temp>0.00</temp>
<bpm>0</bpm>
<rpm>0.00</rpm>
</extensions>
</trkpt>
<trkpt lat="64.203742981" lon="-21.462938309">
<ele>228.390625</ele>
<time>2012-07-18T16:02:55Z</time>
<speed>2.580000</speed>
<extensions>
<speed>2.6</speed>
<temp>0.00</temp>
<bpm>0</bpm>
<rpm>0.00</rpm>
</extensions>
</trkpt>
<trkpt lat="64.203834534" lon="-21.462736130">
<ele>232.269531</ele>
<time>2012-07-18T16:03:00Z</time>
<speed>3.070000</speed>
<extensions>
<speed>3.1</speed>
<temp>0.00</temp>
<bpm>0</bpm>
<rpm>0.00</rpm>
</extensions>
</trkpt>
<trkpt lat="64.203941345" lon="-21.462490082">
<ele>232.589844</ele>
<time>2012-07-18T16:03:05Z</time>
<speed>3.340000</speed>
<extensions>
<speed>3.3</speed>
<temp>0.00</temp>
<bpm>0</bpm>
<rpm>0.00</rpm>
</extensions>
</trkpt>
<trkpt lat="64.204055786" lon="-21.462228775">
<ele>231.058594</ele>
<time>2012-07-18T16:03:10Z</time>
<speed>3.500000</speed>
<extensions>
<speed>3.5</speed>
<temp>0.00</temp>
<bpm>0</bpm>
<rpm>0.00</rpm>
</extensions>
</trkpt>
<trkpt lat="64.204170227" lon="-21.461963654">
<ele>231.718750</ele>
<time>2012-07-18T16:03:15Z</time>
<speed>3.610000</speed>
<extensions>
<speed>3.6</speed>
<temp>0.00</temp>
<bpm>0</bpm>
<rpm>0.00</rpm>
</extensions>
</trkpt>
<trkpt lat="64.204284668" lon="-21.461715698">
<ele>232.542969</ele>
<time>2012-07-18T16:03:20Z</time>
<speed>3.560000</speed>
<extensions>
<speed>3.6</speed>
<temp>0.00</temp>
<bpm>0</bpm>
<rpm>0.00</rpm>
</extensions>
</trkpt>
<trkpt lat="64.204383850" lon="-21.461450577">
<ele>231.277344</ele>
<time>2012-07-18T16:03:25Z</time>
<speed>2.660000</speed>
<extensions>
<speed>2.7</speed>
<temp>0.00</temp>
<bpm>0</bpm>
<rpm>0.00</rpm>
</extensions>
</trkpt>
<trkpt lat="64.204483032" lon="-21.461242676">
<ele>231.191406</ele>
<time>2012-07-18T16:03:30Z</time>
<speed>3.280000</speed>
<extensions>
<speed>3.3</speed>
<temp>0.00</temp>
<bpm>0</bpm>
<rpm>0.00</rpm>
</extensions>
</trkpt>
<trkpt lat="64.204582214" lon="-21.460990906">
<ele>232.394531</ele>
<time>2012-07-18T16:03:35Z</time>
<speed>3.750000</speed>
<extensions>
<speed>3.8</speed>
<temp>0.00</temp>
<bpm>0</bpm>
<rpm>0.00</rpm>
</extensions>
</trkpt>
<trkpt lat="64.204704285" lon="-21.460676193">
<ele>232.972656</ele>
<time>2012-07-18T16:03:40Z</time>
<speed>4.030000</speed>
<extensions>
<speed>4.0</speed>
<temp>0.00</temp>
<bpm>0</bpm>
<rpm>0.00</rpm>
</extensions>
</trkpt>
<trkpt lat="64.204788208" lon="-21.460435867">
<ele>233.835938</ele>
<time>2012-07-18T16:03:45Z</time>
<speed>2.330000</speed>
<extensions>
<speed>2.3</speed>
<temp>0.00</temp>
<bpm>0</bpm>
<rpm>0.00</rpm>
</extensions>
</trkpt>
<trkpt lat="64.204833984" lon="-21.460289001">
<ele>234.242188</ele>
<time>2012-07-18T16:03:50Z</time>
<speed>1.870000</speed>
<extensions>
<speed>1.9</speed>
<temp>0.00</temp>
<bpm>0</bpm>
<rpm>0.00</rpm>
</extensions>
</trkpt>
<trkpt lat="64.204910278" lon="-21.460102081">
<ele>234.398438</ele>
<time>2012-07-18T16:03:55Z</time>
<speed>2.880000</speed>
<extensions>
<speed>2.9</speed>
<temp>0.00</temp>
<bpm>0</bpm>
<rpm>0.00</rpm>
</extensions>
</trkpt>
<trkpt lat="64.205001831" lon="-21.459812164">
<ele>234.769531</ele>
<time>2012-07-18T16:04:00Z</time>
<speed>3.480000</speed>
<extensions>
<speed>3.5</speed>
<temp>0.00</temp>
<bpm>0</bpm>
<rpm>0.00</rpm>
</extensions>
</trkpt>
<trkpt lat="64.205108643" lon="-21.459526062">
<ele>235.296875</ele>
<time>2012-07-18T16:04:05Z</time>
<speed>3.680000</speed>
<extensions>
<speed>3.7</speed>
<temp>0.00</temp>
<bpm>0</bpm>
<rpm>0.00</rpm>
</extensions>
</trkpt>
<trkpt lat="64.205207825" lon="-21.459220886">
<ele>236.093750</ele>
<time>2012-07-18T16:04:10Z</time>
<speed>3.940000</speed>
<extensions>
<speed>3.9</speed>
<temp>0.00</temp>
<bpm>0</bpm>
<rpm>0.00</rpm>
</extensions>
</trkpt>
<trkpt lat="64.205299377" lon="-21.458898544">
<ele>236.574219</ele>
<time>2012-07-18T16:04:15Z</time>
<speed>3.200000</speed>
<extensions>
<speed>3.2</speed>
<temp>0.00</temp>
<bpm>0</bpm>
<rpm>0.00</rpm>
</extensions>
</trkpt>
<trkpt lat="64.205390930" lon="-21.458621979">
<ele>236.542969</ele>
<time>2012-07-18T16:04:20Z</time>
<speed>3.560000</speed>
<extensions>
<speed>3.6</speed>
<temp>0.00</temp>
<bpm>0</bpm>
<rpm>0.00</rpm>
</extensions>
</trkpt>
<trkpt lat="64.205459595" lon="-21.458368301">
<ele>237.253906</ele>
<time>2012-07-18T16:04:25Z</time>
<speed>2.780000</speed>
<extensions>
<speed>2.8</speed>
<temp>0.00</temp>
<bpm>0</bpm>
<rpm>0.00</rpm>
</extensions>
</trkpt>
<trkpt lat="64.205535889" lon="-21.458112717">
<ele>238.035156</ele>
<time>2012-07-18T16:04:30Z</time>
<speed>3.110000</speed>
<extensions>
<speed>3.1</speed>
<temp>0.00</temp>
<bpm>0</bpm>
<rpm>0.00</rpm>
</extensions>
</trkpt>
<trkpt lat="64.205612183" lon="-21.457836151">
<ele>237.515625</ele>
<time>2012-07-18T16:04:35Z</time>
<speed>3.110000</speed>
<extensions>
<speed>3.1</speed>
<temp>0.00</temp>
<bpm>0</bpm>
<rpm>0.00</rpm>
</extensions>
</trkpt>
<trkpt lat="64.205657959" lon="-21.457628250">
<ele>237.992188</ele>
<time>2012-07-18T16:04:40Z</time>
<speed>2.130000</speed>
<extensions>
<speed>2.1</speed>
<temp>0.00</temp>
<bpm>0</bpm>
<rpm>0.00</rpm>
</extensions>
</trkpt>
<trkpt lat="64.205718994" lon="-21.457397461">
<ele>238.578125</ele>
<time>2012-07-18T16:04:45Z</time>
<speed>3.130000</speed>
<extensions>
<speed>3.1</speed>
<temp>0.00</temp>
<bpm>0</bpm>
<rpm>0.00</rpm>
</extensions>
</trkpt>
<trkpt lat="64.205795288" lon="-21.457107544">
<ele>238.378906</ele>
<time>2012-07-18T16:04:50Z</time>
<speed>3.520000</speed>
<extensions>
<speed>3.5</speed>
<temp>0.00</temp>
<bpm>0</bpm>
<rpm>0.00</rpm>
</extensions>
</trkpt>
<trkpt lat="64.205871582" lon="-21.456773758">
<ele>239.058594</ele>
<time>2012-07-18T16:04:55Z</time>
<speed>3.930000</speed>
<extensions>
<speed>3.9</speed>
<temp>0.00</temp>
<bpm>0</bpm>
<rpm>0.00</rpm>
</extensions>
</trkpt>
<trkpt lat="64.205947876" lon="-21.456422806">
<ele>241.246094</ele>
<time>2012-07-18T16:05:00Z</time>
<speed>3.860000</speed>
<extensions>
<speed>3.9</speed>
<temp>0.00</temp>
<bpm>0</bpm>
<rpm>0.00</rpm>
</extensions>
</trkpt>
<trkpt lat="64.206024170" lon="-21.456050873">
<ele>241.890625</ele>
<time>2012-07-18T16:05:05Z</time>
<speed>3.490000</speed>
<extensions>
<speed>3.5</speed>
<temp>0.00</temp>
<bpm>0</bpm>
<rpm>0.00</rpm>
</extensions>
</trkpt>
<trkpt lat="64.206085205" lon="-21.455776215">
<ele>240.550781</ele>
<time>2012-07-18T16:05:10Z</time>
<speed>2.270000</speed>
<extensions>
<speed>2.3</speed>
<temp>0.00</temp>
<bpm>0</bpm>
<rpm>0.00</rpm>
</extensions>
</trkpt>
<trkpt lat="64.206115723" lon="-21.455598831">
<ele>240.242188</ele>
<time>2012-07-18T16:05:15Z</time>
<speed>1.400000</speed>
<extensions>
<speed>1.4</speed>
<temp>0.00</temp>
<bpm>0</bpm>
<rpm>0.00</rpm>
</extensions>
</trkpt>
<trkpt lat="64.206138611" lon="-21.455507278">
<ele>241.121094</ele>
<time>2012-07-18T16:05:20Z</time>
<speed>1.600000</speed>
<extensions>
<speed>1.6</speed>
<temp>0.00</temp>
<bpm>0</bpm>
<rpm>0.00</rpm>
</extensions>
</trkpt>
<trkpt lat="64.206176758" lon="-21.455272675">
<ele>241.988281</ele>
<time>2012-07-18T16:05:25Z</time>
<speed>3.050000</speed>
<extensions>
<speed>3.0</speed>
<temp>0.00</temp>
<bpm>0</bpm>
<rpm>0.00</rpm>
</extensions>
</trkpt>
<trkpt lat="64.206237793" lon="-21.454916000">
<ele>240.578125</ele>
<time>2012-07-18T16:05:30Z</time>
<speed>3.970000</speed>
<extensions>
<speed>4.0</speed>
<temp>0.00</temp>
<bpm>0</bpm>
<rpm>0.00</rpm>
</extensions>
</trkpt>
<trkpt lat="64.206314087" lon="-21.454511642">
<ele>241.296875</ele>
<time>2012-07-18T16:05:35Z</time>
<speed>4.380000</speed>
<extensions>
<speed>4.4</speed>
<temp>0.00</temp>
<bpm>0</bpm>
<rpm>0.00</rpm>
</extensions>
</trkpt>
<trkpt lat="64.206382751" lon="-21.454124451">
<ele>241.980469</ele>
<time>2012-07-18T16:05:40Z</time>
<speed>3.560000</speed>
<extensions>
<speed>3.6</speed>
<temp>0.00</temp>
<bpm>0</bpm>
<rpm>0.00</rpm>
</extensions>
</trkpt>
<trkpt lat="64.206443787" lon="-21.453735352">
<ele>241.929688</ele>
<time>2012-07-18T16:05:45Z</time>
<speed>4.390000</speed>
<extensions>
<speed>4.4</speed>
<temp>0.00</temp>
<bpm>0</bpm>
<rpm>0.00</rpm>
</extensions>
</trkpt>
<trkpt lat="64.206512451" lon="-21.453315735">
<ele>241.449219</ele>
<time>2012-07-18T16:05:50Z</time>
<speed>4.100000</speed>
<extensions>
<speed>4.1</speed>
<temp>0.00</temp>
<bpm>0</bpm>
<rpm>0.00</rpm>
</extensions>
</trkpt>
<trkpt lat="64.206581116" lon="-21.452875137">
<ele>240.894531</ele>
<time>2012-07-18T16:05:55Z</time>
<speed>4.710000</speed>
<extensions>
<speed>4.7</speed>
<temp>0.00</temp>
<bpm>0</bpm>
<rpm>0.00</rpm>
</extensions>
</trkpt>
<trkpt lat="64.206642151" lon="-21.452445984">
<ele>240.757813</ele>
<time>2012-07-18T16:06:00Z</time>
<speed>4.020000</speed>
<extensions>
<speed>4.0</speed>
<temp>0.00</temp>
<bpm>0</bpm>
<rpm>0.00</rpm>
</extensions>
</trkpt>
<trkpt lat="64.206703186" lon="-21.452054977">
<ele>241.164063</ele>
<time>2012-07-18T16:06:05Z</time>
<speed>4.330000</speed>
<extensions>
<speed>4.3</speed>
<temp>0.00</temp>
<bpm>0</bpm>
<rpm>0.00</rpm>
</extensions>
</trkpt>
<trkpt lat="64.206756592" lon="-21.451633453">
<ele>240.898438</ele>
<time>2012-07-18T16:06:10Z</time>
<speed>4.120000</speed>
<extensions>
<speed>4.1</speed>
<temp>0.00</temp>
<bpm>0</bpm>
<rpm>0.00</rpm>
</extensions>
</trkpt>
<trkpt lat="64.206825256" lon="-21.451219559">
<ele>239.812500</ele>
<time>2012-07-18T16:06:15Z</time>
<speed>4.380000</speed>
<extensions>
<speed>4.4</speed>
<temp>0.00</temp>
<bpm>0</bpm>
<rpm>0.00</rpm>
</extensions>
</trkpt>
<trkpt lat="64.206878662" lon="-21.450771332">
<ele>239.496094</ele>
<time>2012-07-18T16:06:20Z</time>
<speed>4.700000</speed>
<extensions>
<speed>4.7</speed>
<temp>0.00</temp>
<bpm>0</bpm>
<rpm>0.00</rpm>
</extensions>
</trkpt>
<trkpt lat="64.206939697" lon="-21.450351715">
<ele>239.820313</ele>
<time>2012-07-18T16:06:25Z</time>
<speed>3.750000</speed>
<extensions>
<speed>3.8</speed>
<temp>0.00</temp>
<bpm>0</bpm>
<rpm>0.00</rpm>
</extensions>
</trkpt>
<trkpt lat="64.206993103" lon="-21.449951172">
<ele>241.378906</ele>
<time>2012-07-18T16:06:30Z</time>
<speed>4.300000</speed>
<extensions>
<speed>4.3</speed>
<temp>0.00</temp>
<bpm>0</bpm>
<rpm>0.00</rpm>
</extensions>
</trkpt>
<trkpt lat="64.207054138" lon="-21.449525833">
<ele>241.152344</ele>
<time>2012-07-18T16:06:35Z</time>
<speed>3.860000</speed>
<extensions>
<speed>3.9</speed>
<temp>0.00</temp>
<bpm>0</bpm>
<rpm>0.00</rpm>
</extensions>
</trkpt>
<trkpt lat="64.207115173" lon="-21.449115753">
<ele>240.972656</ele>
<time>2012-07-18T16:06:40Z</time>
<speed>4.250000</speed>
<extensions>
<speed>4.3</speed>
<temp>0.00</temp>
<bpm>0</bpm>
<rpm>0.00</rpm>
</extensions>
</trkpt>
<trkpt lat="64.207168579" lon="-21.448747635">
<ele>242.746094</ele>
<time>2012-07-18T16:06:45Z</time>
<speed>3.940000</speed>
<extensions>
<speed>3.9</speed>
<temp>0.00</temp>
<bpm>0</bpm>
<rpm>0.00</rpm>
</extensions>
</trkpt>
<trkpt lat="64.207221985" lon="-21.448366165">
<ele>241.703125</ele>
<time>2012-07-18T16:06:50Z</time>
<speed>3.450000</speed>
<extensions>
<speed>3.5</speed>
<temp>0.00</temp>
<bpm>0</bpm>
<rpm>0.00</rpm>
</extensions>
</trkpt>
<trkpt lat="64.207267761" lon="-21.448049545">
<ele>241.613281</ele>
<time>2012-07-18T16:06:55Z</time>
<speed>3.580000</speed>
<extensions>
<speed>3.6</speed>
<temp>0.00</temp>
<bpm>0</bpm>
<rpm>0.00</rpm>
</extensions>
</trkpt>
<trkpt lat="64.207321167" lon="-21.447685242">
<ele>242.335938</ele>
<time>2012-07-18T16:07:00Z</time>
<speed>3.870000</speed>
<extensions>
<speed>3.9</speed>
<temp>0.00</temp>
<bpm>0</bpm>
<rpm>0.00</rpm>
</extensions>
</trkpt>
<trkpt lat="64.207382202" lon="-21.447296143">
<ele>242.324219</ele>
<time>2012-07-18T16:07:05Z</time>
<speed>4.320000</speed>
<extensions>
<speed>4.3</speed>
<temp>0.00</temp>
<bpm>0</bpm>
<rpm>0.00</rpm>
</extensions>
</trkpt>
<trkpt lat="64.207450867" lon="-21.446847916">
<ele>243.378906</ele>
<time>2012-07-18T16:07:10Z</time>
<speed>4.850000</speed>
<extensions>
<speed>4.8</speed>
<temp>0.00</temp>
<bpm>0</bpm>
<rpm>0.00</rpm>
</extensions>
</trkpt>
<trkpt lat="64.207527161" lon="-21.446331024">
<ele>242.644531</ele>
<time>2012-07-18T16:07:15Z</time>
<speed>5.440000</speed>
<extensions>
<speed>5.4</speed>
<temp>0.00</temp>
<bpm>0</bpm>
<rpm>0.00</rpm>
</extensions>
</trkpt>
<trkpt lat="64.207603455" lon="-21.445793152">
<ele>242.457031</ele>
<time>2012-07-18T16:07:20Z</time>
<speed>4.930000</speed>
<extensions>
<speed>4.9</speed>
<temp>0.00</temp>
<bpm>0</bpm>
<rpm>0.00</rpm>
</extensions>
</trkpt>
<trkpt lat="64.207672119" lon="-21.445306778">
<ele>242.808594</ele>
<time>2012-07-18T16:07:25Z</time>
<speed>5.580000</speed>
<extensions>
<speed>5.6</speed>
<temp>0.00</temp>
<bpm>0</bpm>
<rpm>0.00</rpm>
</extensions>
</trkpt>
<trkpt lat="64.207740784" lon="-21.444786072">
<ele>243.308594</ele>
<time>2012-07-18T16:07:30Z</time>
<speed>4.770000</speed>
<extensions>
<speed>4.8</speed>
<temp>0.00</temp>
<bpm>0</bpm>
<rpm>0.00</rpm>
</extensions>
</trkpt>
<trkpt lat="64.207801819" lon="-21.444307327">
<ele>243.375000</ele>
<time>2012-07-18T16:07:35Z</time>
<speed>5.300000</speed>
<extensions>
<speed>5.3</speed>
<temp>0.00</temp>
<bpm>0</bpm>
<rpm>0.00</rpm>
</extensions>
</trkpt>
<trkpt lat="64.207878113" lon="-21.443830490">
<ele>243.687500</ele>
<time>2012-07-18T16:07:40Z</time>
<speed>4.530000</speed>
<extensions>
<speed>4.5</speed>
<temp>0.00</temp>
<bpm>0</bpm>
<rpm>0.00</rpm>
</extensions>
</trkpt>
<trkpt lat="64.207939148" lon="-21.443386078">
<ele>243.093750</ele>
<time>2012-07-18T16:07:45Z</time>
<speed>4.560000</speed>
<extensions>
<speed>4.6</speed>
<temp>0.00</temp>
<bpm>0</bpm>
<rpm>0.00</rpm>
</extensions>
</trkpt>
<trkpt lat="64.207992554" lon="-21.442937851">
<ele>243.398438</ele>
<time>2012-07-18T16:07:50Z</time>
<speed>4.590000</speed>
<extensions>
<speed>4.6</speed>
<temp>0.00</temp>
<bpm>0</bpm>
<rpm>0.00</rpm>
</extensions>
</trkpt>
<trkpt lat="64.208061218" lon="-21.442504883">
<ele>243.906250</ele>
<time>2012-07-18T16:07:55Z</time>
<speed>4.380000</speed>
<extensions>
<speed>4.4</speed>
<temp>0.00</temp>
<bpm>0</bpm>
<rpm>0.00</rpm>
</extensions>
</trkpt>
<trkpt lat="64.208122253" lon="-21.442060471">
<ele>244.199219</ele>
<time>2012-07-18T16:08:00Z</time>
<speed>4.230000</speed>
<extensions>
<speed>4.2</speed>
<temp>0.00</temp>
<bpm>0</bpm>
<rpm>0.00</rpm>
</extensions>
</trkpt>
<trkpt lat="64.208190918" lon="-21.441644669">
<ele>244.804688</ele>
<time>2012-07-18T16:08:05Z</time>
<speed>4.450000</speed>
<extensions>
<speed>4.5</speed>
<temp>0.00</temp>
<bpm>0</bpm>
<rpm>0.00</rpm>
</extensions>
</trkpt>
<trkpt lat="64.208259583" lon="-21.441204071">
<ele>245.105469</ele>
<time>2012-07-18T16:08:10Z</time>
<speed>4.440000</speed>
<extensions>
<speed>4.4</speed>
<temp>0.00</temp>
<bpm>0</bpm>
<rpm>0.00</rpm>
</extensions>
</trkpt>
<trkpt lat="64.208320618" lon="-21.440771103">
<ele>245.808594</ele>
<time>2012-07-18T16:08:15Z</time>
<speed>4.050000</speed>
<extensions>
<speed>4.0</speed>
<temp>0.00</temp>
<bpm>0</bpm>
<rpm>0.00</rpm>
</extensions>
</trkpt>
<trkpt lat="64.208381653" lon="-21.440355301">
<ele>247.597656</ele>
<time>2012-07-18T16:08:20Z</time>
<speed>4.300000</speed>
<extensions>
<speed>4.3</speed>
<temp>0.00</temp>
<bpm>0</bpm>
<rpm>0.00</rpm>
</extensions>
</trkpt>
<trkpt lat="64.208435059" lon="-21.439983368">
<ele>249.296875</ele>
<time>2012-07-18T16:08:25Z</time>
<speed>3.700000</speed>
<extensions>
<speed>3.7</speed>
<temp>0.00</temp>
<bpm>0</bpm>
<rpm>0.00</rpm>
</extensions>
</trkpt>
<trkpt lat="64.208488464" lon="-21.439558029">
<ele>246.843750</ele>
<time>2012-07-18T16:08:30Z</time>
<speed>4.650000</speed>
<extensions>
<speed>4.6</speed>
<temp>0.00</temp>
<bpm>0</bpm>
<rpm>0.00</rpm>
</extensions>
</trkpt>
<trkpt lat="64.208557129" lon="-21.439123154">
<ele>244.691406</ele>
<time>2012-07-18T16:08:35Z</time>
<speed>4.770000</speed>
<extensions>
<speed>4.8</speed>
<temp>0.00</temp>
<bpm>0</bpm>
<rpm>0.00</rpm>
</extensions>
</trkpt>
<trkpt lat="64.208625793" lon="-21.438623428">
<ele>246.664063</ele>
<time>2012-07-18T16:08:40Z</time>
<speed>5.280000</speed>
<extensions>
<speed>5.3</speed>
<temp>0.00</temp>
<bpm>0</bpm>
<rpm>0.00</rpm>
</extensions>
</trkpt>
<trkpt lat="64.208694458" lon="-21.438112259">
<ele>245.867188</ele>
<time>2012-07-18T16:08:45Z</time>
<speed>5.260000</speed>
<extensions>
<speed>5.3</speed>
<temp>0.00</temp>
<bpm>0</bpm>
<rpm>0.00</rpm>
</extensions>
</trkpt>
<trkpt lat="64.208763123" lon="-21.437612534">
<ele>246.343750</ele>
<time>2012-07-18T16:08:50Z</time>
<speed>4.890000</speed>
<extensions>
<speed>4.9</speed>
<temp>0.00</temp>
<bpm>0</bpm>
<rpm>0.00</rpm>
</extensions>
</trkpt>
<trkpt lat="64.208824158" lon="-21.437068939">
<ele>244.175781</ele>
<time>2012-07-18T16:08:55Z</time>
<speed>5.760000</speed>
<extensions>
<speed>5.8</speed>
<temp>0.00</temp>
<bpm>0</bpm>
<rpm>0.00</rpm>
</extensions>
</trkpt>
<trkpt lat="64.208885193" lon="-21.436529160">
<ele>244.457031</ele>
<time>2012-07-18T16:09:00Z</time>
<speed>4.960000</speed>
<extensions>
<speed>5.0</speed>
<temp>0.00</temp>
<bpm>0</bpm>
<rpm>0.00</rpm>
</extensions>
</trkpt>
<trkpt lat="64.208923340" lon="-21.436061859">
<ele>243.675781</ele>
<time>2012-07-18T16:09:05Z</time>
<speed>4.380000</speed>
<extensions>
<speed>4.4</speed>
<temp>0.00</temp>
<bpm>0</bpm>
<rpm>0.00</rpm>
</extensions>
</trkpt>
<trkpt lat="64.208953857" lon="-21.435636520">
<ele>244.777344</ele>
<time>2012-07-18T16:09:10Z</time>
<speed>4.270000</speed>
<extensions>
<speed>4.3</speed>
<temp>0.00</temp>
<bpm>0</bpm>
<rpm>0.00</rpm>
</extensions>
</trkpt>
<trkpt lat="64.208984375" lon="-21.435237885">
<ele>244.800781</ele>
<time>2012-07-18T16:09:15Z</time>
<speed>3.730000</speed>
<extensions>
<speed>3.7</speed>
<temp>0.00</temp>
<bpm>0</bpm>
<rpm>0.00</rpm>
</extensions>
</trkpt>
<trkpt lat="64.209014893" lon="-21.434856415">
<ele>243.988281</ele>
<time>2012-07-18T16:09:20Z</time>
<speed>3.800000</speed>
<extensions>
<speed>3.8</speed>
<temp>0.00</temp>
<bpm>0</bpm>
<rpm>0.00</rpm>
</extensions>
</trkpt>
<trkpt lat="64.209037781" lon="-21.434446335">
<ele>243.253906</ele>
<time>2012-07-18T16:09:25Z</time>
<speed>4.200000</speed>
<extensions>
<speed>4.2</speed>
<temp>0.00</temp>
<bpm>0</bpm>
<rpm>0.00</rpm>
</extensions>
</trkpt>
<trkpt lat="64.209060669" lon="-21.434034348">
<ele>241.609375</ele>
<time>2012-07-18T16:09:30Z</time>
<speed>4.370000</speed>
<extensions>
<speed>4.4</speed>
<temp>0.00</temp>
<bpm>0</bpm>
<rpm>0.00</rpm>
</extensions>
</trkpt>
<trkpt lat="64.209098816" lon="-21.433547974">
<ele>240.890625</ele>
<time>2012-07-18T16:09:35Z</time>
<speed>5.110000</speed>
<extensions>
<speed>5.1</speed>
<temp>0.00</temp>
<bpm>0</bpm>
<rpm>0.00</rpm>
</extensions>
</trkpt>
<trkpt lat="64.209144592" lon="-21.433034897">
<ele>242.667969</ele>
<time>2012-07-18T16:09:40Z</time>
<speed>4.610000</speed>
<extensions>
<speed>4.6</speed>
<temp>0.00</temp>
<bpm>0</bpm>
<rpm>0.00</rpm>
</extensions>
</trkpt>
<trkpt lat="64.209190369" lon="-21.432573318">
<ele>245.097656</ele>
<time>2012-07-18T16:09:45Z</time>
<speed>4.500000</speed>
<extensions>
<speed>4.5</speed>
<temp>0.00</temp>
<bpm>0</bpm>
<rpm>0.00</rpm>
</extensions>
</trkpt>
<trkpt lat="64.209220886" lon="-21.432121277">
<ele>247.183594</ele>
<time>2012-07-18T16:09:50Z</time>
<speed>4.110000</speed>
<extensions>
<speed>4.1</speed>
<temp>0.00</temp>
<bpm>0</bpm>
<rpm>0.00</rpm>
</extensions>
</trkpt>
<trkpt lat="64.209251404" lon="-21.431716919">
<ele>248.066406</ele>
<time>2012-07-18T16:09:55Z</time>
<speed>3.780000</speed>
<extensions>
<speed>3.8</speed>
<temp>0.00</temp>
<bpm>0</bpm>
<rpm>0.00</rpm>
</extensions>
</trkpt>
<trkpt lat="64.209274292" lon="-21.431310654">
<ele>247.687500</ele>
<time>2012-07-18T16:10:00Z</time>
<speed>3.770000</speed>
<extensions>
<speed>3.8</speed>
<temp>0.00</temp>
<bpm>0</bpm>
<rpm>0.00</rpm>
</extensions>
</trkpt>
<trkpt lat="64.209312439" lon="-21.430919647">
<ele>247.546875</ele>
<time>2012-07-18T16:10:05Z</time>
<speed>4.500000</speed>
<extensions>
<speed>4.5</speed>
<temp>0.00</temp>
<bpm>0</bpm>
<rpm>0.00</rpm>
</extensions>
</trkpt>
<trkpt lat="64.209350586" lon="-21.430425644">
<ele>245.941406</ele>
<time>2012-07-18T16:10:10Z</time>
<speed>5.020000</speed>
<extensions>
<speed>5.0</speed>
<temp>0.00</temp>
<bpm>0</bpm>
<rpm>0.00</rpm>
</extensions>
</trkpt>
<trkpt lat="64.209381104" lon="-21.429922104">
<ele>244.359375</ele>
<time>2012-07-18T16:10:15Z</time>
<speed>4.780000</speed>
<extensions>
<speed>4.8</speed>
<temp>0.00</temp>
<bpm>0</bpm>
<rpm>0.00</rpm>
</extensions>
</trkpt>
<trkpt lat="64.209419250" lon="-21.429420471">
<ele>243.128906</ele>
<time>2012-07-18T16:10:20Z</time>
<speed>4.790000</speed>
<extensions>
<speed>4.8</speed>
<temp>0.00</temp>
<bpm>0</bpm>
<rpm>0.00</rpm>
</extensions>
</trkpt>
<trkpt lat="64.209457397" lon="-21.428930283">
<ele>242.878906</ele>
<time>2012-07-18T16:10:25Z</time>
<speed>5.430000</speed>
<extensions>
<speed>5.4</speed>
<temp>0.00</temp>
<bpm>0</bpm>
<rpm>0.00</rpm>
</extensions>
</trkpt>
<trkpt lat="64.209487915" lon="-21.428350449">
<ele>240.828125</ele>
<time>2012-07-18T16:10:30Z</time>
<speed>5.670000</speed>
<extensions>
<speed>5.7</speed>
<temp>0.00</temp>
<bpm>0</bpm>
<rpm>0.00</rpm>
</extensions>
</trkpt>
<trkpt lat="64.209526062" lon="-21.427774429">
<ele>237.675781</ele>
<time>2012-07-18T16:10:35Z</time>
<speed>5.810000</speed>
<extensions>
<speed>5.8</speed>
<temp>0.00</temp>
<bpm>0</bpm>
<rpm>0.00</rpm>
</extensions>
</trkpt>
<trkpt lat="64.209571838" lon="-21.427164078">
<ele>235.464844</ele>
<time>2012-07-18T16:10:40Z</time>
<speed>6.370000</speed>
<extensions>
<speed>6.4</speed>
<temp>0.00</temp>
<bpm>0</bpm>
<rpm>0.00</rpm>
</extensions>
</trkpt>
<trkpt lat="64.209609985" lon="-21.426486969">
<ele>235.289063</ele>
<time>2012-07-18T16:10:45Z</time>
<speed>6.800000</speed>
<extensions>
<speed>6.8</speed>
<temp>0.00</temp>
<bpm>0</bpm>
<rpm>0.00</rpm>
</extensions>
</trkpt>
<trkpt lat="64.209655762" lon="-21.425767899">
<ele>236.257813</ele>
<time>2012-07-18T16:10:50Z</time>
<speed>7.030000</speed>
<extensions>
<speed>7.0</speed>
<temp>0.00</temp>
<bpm>0</bpm>
<rpm>0.00</rpm>
</extensions>
</trkpt>
<trkpt lat="64.209686279" lon="-21.424997330">
<ele>236.652344</ele>
<time>2012-07-18T16:10:55Z</time>
<speed>7.770000</speed>
<extensions>
<speed>7.8</speed>
<temp>0.00</temp>
<bpm>0</bpm>
<rpm>0.00</rpm>
</extensions>
</trkpt>
<trkpt lat="64.209693909" lon="-21.424160004">
<ele>237.449219</ele>
<time>2012-07-18T16:11:00Z</time>
<speed>8.300000</speed>
<extensions>
<speed>8.3</speed>
<temp>0.00</temp>
<bpm>0</bpm>
<rpm>0.00</rpm>
</extensions>
</trkpt>
<trkpt lat="64.209678650" lon="-21.423282623">
<ele>236.011719</ele>
<time>2012-07-18T16:11:05Z</time>
<speed>8.630000</speed>
<extensions>
<speed>8.6</speed>
<temp>0.00</temp>
<bpm>0</bpm>
<rpm>0.00</rpm>
</extensions>
</trkpt>
<trkpt lat="64.209632874" lon="-21.422431946">
<ele>235.351563</ele>
<time>2012-07-18T16:11:10Z</time>
<speed>8.160000</speed>
<extensions>
<speed>8.2</speed>
<temp>0.00</temp>
<bpm>0</bpm>
<rpm>0.00</rpm>
</extensions>
</trkpt>
<trkpt lat="64.209579468" lon="-21.421672821">
<ele>235.121094</ele>
<time>2012-07-18T16:11:15Z</time>
<speed>6.980000</speed>
<extensions>
<speed>7.0</speed>
<temp>0.00</temp>
<bpm>0</bpm>
<rpm>0.00</rpm>
</extensions>
</trkpt>
<trkpt lat="64.209518433" lon="-21.421020508">
<ele>232.792969</ele>
<time>2012-07-18T16:11:20Z</time>
<speed>5.850000</speed>
<extensions>
<speed>5.8</speed>
<temp>0.00</temp>
<bpm>0</bpm>
<rpm>0.00</rpm>
</extensions>
</trkpt>
<trkpt lat="64.209457397" lon="-21.420454025">
<ele>232.375000</ele>
<time>2012-07-18T16:11:25Z</time>
<speed>5.670000</speed>
<extensions>
<speed>5.7</speed>
<temp>0.00</temp>
<bpm>0</bpm>
<rpm>0.00</rpm>
</extensions>
</trkpt>
<trkpt lat="64.209388733" lon="-21.419906616">
<ele>234.136719</ele>
<time>2012-07-18T16:11:30Z</time>
<speed>5.640000</speed>
<extensions>
<speed>5.6</speed>
<temp>0.00</temp>
<bpm>0</bpm>
<rpm>0.00</rpm>
</extensions>
</trkpt>
<trkpt lat="64.209312439" lon="-21.419372559">
<ele>234.957031</ele>
<time>2012-07-18T16:11:35Z</time>
<speed>5.570000</speed>
<extensions>
<speed>5.6</speed>
<temp>0.00</temp>
<bpm>0</bpm>
<rpm>0.00</rpm>
</extensions>
</trkpt>
<trkpt lat="64.209228516" lon="-21.418855667">
<ele>237.722656</ele>
<time>2012-07-18T16:11:40Z</time>
<speed>5.280000</speed>
<extensions>
<speed>5.3</speed>
<temp>0.00</temp>
<bpm>0</bpm>
<rpm>0.00</rpm>
</extensions>
</trkpt>
<trkpt lat="64.209121704" lon="-21.418323517">
<ele>237.628906</ele>
<time>2012-07-18T16:11:45Z</time>
<speed>5.850000</speed>
<extensions>
<speed>5.8</speed>
<temp>0.00</temp>
<bpm>0</bpm>
<rpm>0.00</rpm>
</extensions>
</trkpt>
<trkpt lat="64.208999634" lon="-21.417798996">
<ele>238.886719</ele>
<time>2012-07-18T16:11:50Z</time>
<speed>5.150000</speed>
<extensions>
<speed>5.2</speed>
<temp>0.00</temp>
<bpm>0</bpm>
<rpm>0.00</rpm>
</extensions>
</trkpt>
<trkpt lat="64.208908081" lon="-21.417402267">
<ele>238.171875</ele>
<time>2012-07-18T16:11:55Z</time>
<speed>3.850000</speed>
<extensions>
<speed>3.8</speed>
<temp>0.00</temp>
<bpm>0</bpm>
<rpm>0.00</rpm>
</extensions>
</trkpt>
<trkpt lat="64.208839417" lon="-21.417095184">
<ele>239.738281</ele>
<time>2012-07-18T16:12:00Z</time>
<speed>2.760000</speed>
<extensions>
<speed>2.8</speed>
<temp>0.00</temp>
<bpm>0</bpm>
<rpm>0.00</rpm>
</extensions>
</trkpt>
<trkpt lat="64.208778381" lon="-21.416809082">
<ele>240.636719</ele>
<time>2012-07-18T16:12:05Z</time>
<speed>3.580000</speed>
<extensions>
<speed>3.6</speed>
<temp>0.00</temp>
<bpm>0</bpm>
<rpm>0.00</rpm>
</extensions>
</trkpt>
<trkpt lat="64.208702087" lon="-21.416517258">
<ele>242.210938</ele>
<time>2012-07-18T16:12:10Z</time>
<speed>2.730000</speed>
<extensions>
<speed>2.7</speed>
<temp>0.00</temp>
<bpm>0</bpm>
<rpm>0.00</rpm>
</extensions>
</trkpt>
<trkpt lat="64.208633423" lon="-21.416305542">
<ele>240.312500</ele>
<time>2012-07-18T16:12:15Z</time>
<speed>2.420000</speed>
<extensions>
<speed>2.4</speed>
<temp>0.00</temp>
<bpm>0</bpm>
<rpm>0.00</rpm>
</extensions>
</trkpt>
<trkpt lat="64.208587646" lon="-21.416133881">
<ele>239.843750</ele>
<time>2012-07-18T16:12:20Z</time>
<speed>1.660000</speed>
<extensions>
<speed>1.7</speed>
<temp>0.00</temp>
<bpm>0</bpm>
<rpm>0.00</rpm>
</extensions>
</trkpt>
<trkpt lat="64.208541870" lon="-21.415960312">
<ele>239.226563</ele>
<time>2012-07-18T16:12:25Z</time>
<speed>1.980000</speed>
<extensions>
<speed>2.0</speed>
<temp>0.00</temp>
<bpm>0</bpm>
<rpm>0.00</rpm>
</extensions>
</trkpt>
<trkpt lat="64.208488464" lon="-21.415807724">
<ele>237.011719</ele>
<time>2012-07-18T16:12:30Z</time>
<speed>1.790000</speed>
<extensions>
<speed>1.8</speed>
<temp>0.00</temp>
<bpm>0</bpm>
<rpm>0.00</rpm>
</extensions>
</trkpt>
<trkpt lat="64.208450317" lon="-21.415649414">
<ele>236.441406</ele>
<time>2012-07-18T16:12:35Z</time>
<speed>1.700000</speed>
<extensions>
<speed>1.7</speed>
<temp>0.00</temp>
<bpm>0</bpm>
<rpm>0.00</rpm>
</extensions>
</trkpt>
<trkpt lat="64.208412170" lon="-21.415506363">
<ele>236.621094</ele>
<time>2012-07-18T16:12:40Z</time>
<speed>1.550000</speed>
<extensions>
<speed>1.5</speed>
<temp>0.00</temp>
<bpm>0</bpm>
<rpm>0.00</rpm>
</extensions>
</trkpt>
<trkpt lat="64.208374023" lon="-21.415363312">
<ele>237.039063</ele>
<time>2012-07-18T16:12:45Z</time>
<speed>1.540000</speed>
<extensions>
<speed>1.5</speed>
<temp>0.00</temp>
<bpm>0</bpm>
<rpm>0.00</rpm>
</extensions>
</trkpt>
<trkpt lat="64.208343506" lon="-21.415241241">
<ele>237.320313</ele>
<time>2012-07-18T16:12:50Z</time>
<speed>1.060000</speed>
<extensions>
<speed>1.1</speed>
<temp>0.00</temp>
<bpm>0</bpm>
<rpm>0.00</rpm>
</extensions>
</trkpt>
<trkpt lat="64.208305359" lon="-21.415122986">
<ele>236.332031</ele>
<time>2012-07-18T16:12:55Z</time>
<speed>1.710000</speed>
<extensions>
<speed>1.7</speed>
<temp>0.00</temp>
<bpm>0</bpm>
<rpm>0.00</rpm>
</extensions>
</trkpt>
<trkpt lat="64.208267212" lon="-21.414989471">
<ele>238.046875</ele>
<time>2012-07-18T16:13:00Z</time>
<speed>1.650000</speed>
<extensions>
<speed>1.7</speed>
<temp>0.00</temp>
<bpm>0</bpm>
<rpm>0.00</rpm>
</extensions>
</trkpt>
<trkpt lat="64.208221436" lon="-21.414854050">
<ele>239.257813</ele>
<time>2012-07-18T16:13:05Z</time>
<speed>1.510000</speed>
<extensions>
<speed>1.5</speed>
<temp>0.00</temp>
<bpm>0</bpm>
<rpm>0.00</rpm>
</extensions>
</trkpt>
<trkpt lat="64.208175659" lon="-21.414699554">
<ele>239.500000</ele>
<time>2012-07-18T16:13:10Z</time>
<speed>1.890000</speed>
<extensions>
<speed>1.9</speed>
<temp>0.00</temp>
<bpm>0</bpm>
<rpm>0.00</rpm>
</extensions>
</trkpt>
<trkpt lat="64.208122253" lon="-21.414529800">
<ele>238.417969</ele>
<time>2012-07-18T16:13:15Z</time>
<speed>1.930000</speed>
<extensions>
<speed>1.9</speed>
<temp>0.00</temp>
<bpm>0</bpm>
<rpm>0.00</rpm>
</extensions>
</trkpt>
<trkpt lat="64.208099365" lon="-21.414464951">
<ele>239.855469</ele>
<time>2012-07-18T16:13:20Z</time>
<speed>0.290000</speed>
<extensions>
<speed>0.3</speed>
<temp>0.00</temp>
<bpm>0</bpm>
<rpm>0.00</rpm>
</extensions>
</trkpt>
<trkpt lat="64.208091736" lon="-21.414379120">
<ele>240.316406</ele>
<time>2012-07-18T16:13:25Z</time>
<speed>1.630000</speed>
<extensions>
<speed>1.6</speed>
<temp>0.00</temp>
<bpm>0</bpm>
<rpm>0.00</rpm>
</extensions>
</trkpt>
<trkpt lat="64.208030701" lon="-21.414142609">
<ele>239.257813</ele>
<time>2012-07-18T16:13:30Z</time>
<speed>2.920000</speed>
<extensions>
<speed>2.9</speed>
<temp>0.00</temp>
<bpm>0</bpm>
<rpm>0.00</rpm>
</extensions>
</trkpt>
<trkpt lat="64.207954407" lon="-21.413909912">
<ele>240.167969</ele>
<time>2012-07-18T16:13:35Z</time>
<speed>2.610000</speed>
<extensions>
<speed>2.6</speed>
<temp>0.00</temp>
<bpm>0</bpm>
<rpm>0.00</rpm>
</extensions>
</trkpt>
<trkpt lat="64.207901001" lon="-21.413749695">
<ele>239.343750</ele>
<time>2012-07-18T16:13:40Z</time>
<speed>1.410000</speed>
<extensions>
<speed>1.4</speed>
<temp>0.00</temp>
<bpm>0</bpm>
<rpm>0.00</rpm>
</extensions>
</trkpt>
<trkpt lat="64.207855225" lon="-21.413600922">
<ele>238.136719</ele>
<time>2012-07-18T16:13:45Z</time>
<speed>1.770000</speed>
<extensions>
<speed>1.8</speed>
<temp>0.00</temp>
<bpm>0</bpm>
<rpm>0.00</rpm>
</extensions>
</trkpt>
<trkpt lat="64.207817078" lon="-21.413448334">
<ele>238.828125</ele>
<time>2012-07-18T16:13:50Z</time>
<speed>1.630000</speed>
<extensions>
<speed>1.6</speed>
<temp>0.00</temp>
<bpm>0</bpm>
<rpm>0.00</rpm>
</extensions>
</trkpt>
<trkpt lat="64.207786560" lon="-21.413341522">
<ele>240.312500</ele>
<time>2012-07-18T16:13:55Z</time>
<speed>1.470000</speed>
<extensions>
<speed>1.5</speed>
<temp>0.00</temp>
<bpm>0</bpm>
<rpm>0.00</rpm>
</extensions>
</trkpt>
<trkpt lat="64.207756042" lon="-21.413209915">
<ele>241.750000</ele>
<time>2012-07-18T16:14:00Z</time>
<speed>1.440000</speed>
<extensions>
<speed>1.4</speed>
<temp>0.00</temp>
<bpm>0</bpm>
<rpm>0.00</rpm>
</extensions>
</trkpt>
<trkpt lat="64.207717896" lon="-21.413049698">
<ele>242.894531</ele>
<time>2012-07-18T16:14:05Z</time>
<speed>1.900000</speed>
<extensions>
<speed>1.9</speed>
<temp>0.00</temp>
<bpm>0</bpm>
<rpm>0.00</rpm>
</extensions>
</trkpt>
<trkpt lat="64.207656860" lon="-21.412897110">
<ele>243.699219</ele>
<time>2012-07-18T16:14:10Z</time>
<speed>2.170000</speed>
<extensions>
<speed>2.2</speed>
<temp>0.00</temp>
<bpm>0</bpm>
<rpm>0.00</rpm>
</extensions>
</trkpt>
<trkpt lat="64.207603455" lon="-21.412656784">
<ele>243.726563</ele>
<time>2012-07-18T16:14:15Z</time>
<speed>2.900000</speed>
<extensions>
<speed>2.9</speed>
<temp>0.00</temp>
<bpm>0</bpm>
<rpm>0.00</rpm>
</extensions>
</trkpt>
<trkpt lat="64.207519531" lon="-21.412403107">
<ele>242.886719</ele>
<time>2012-07-18T16:14:20Z</time>
<speed>2.810000</speed>
<extensions>
<speed>2.8</speed>
<temp>0.00</temp>
<bpm>0</bpm>
<rpm>0.00</rpm>
</extensions>
</trkpt>
<trkpt lat="64.207450867" lon="-21.412193298">
<ele>244.207031</ele>
<time>2012-07-18T16:14:25Z</time>
<speed>2.330000</speed>
<extensions>
<speed>2.3</speed>
<temp>0.00</temp>
<bpm>0</bpm>
<rpm>0.00</rpm>
</extensions>
</trkpt>
<trkpt lat="64.207405090" lon="-21.412042618">
<ele>244.250000</ele>
<time>2012-07-18T16:14:30Z</time>
<speed>1.390000</speed>
<extensions>
<speed>1.4</speed>
<temp>0.00</temp>
<bpm>0</bpm>
<rpm>0.00</rpm>
</extensions>
</trkpt>
<trkpt lat="64.207374573" lon="-21.411899567">
<ele>244.613281</ele>
<time>2012-07-18T16:14:35Z</time>
<speed>1.580000</speed>
<extensions>
<speed>1.6</speed>
<temp>0.00</temp>
<bpm>0</bpm>
<rpm>0.00</rpm>
</extensions>
</trkpt>
<trkpt lat="64.207328796" lon="-21.411722183">
<ele>244.566406</ele>
<time>2012-07-18T16:14:40Z</time>
<speed>1.910000</speed>
<extensions>
<speed>1.9</speed>
<temp>0.00</temp>
<bpm>0</bpm>
<rpm>0.00</rpm>
</extensions>
</trkpt>
<trkpt lat="64.207283020" lon="-21.411560059">
<ele>243.628906</ele>
<time>2012-07-18T16:14:45Z</time>
<speed>1.900000</speed>
<extensions>
<speed>1.9</speed>
<temp>0.00</temp>
<bpm>0</bpm>
<rpm>0.00</rpm>
</extensions>
</trkpt>
<trkpt lat="64.207229614" lon="-21.411388397">
<ele>243.796875</ele>
<time>2012-07-18T16:14:50Z</time>
<speed>1.950000</speed>
<extensions>
<speed>1.9</speed>
<temp>0.00</temp>
<bpm>0</bpm>
<rpm>0.00</rpm>
</extensions>
</trkpt>
<trkpt lat="64.207183838" lon="-21.411220551">
<ele>244.890625</ele>
<time>2012-07-18T16:14:55Z</time>
<speed>2.050000</speed>
<extensions>
<speed>2.1</speed>
<temp>0.00</temp>
<bpm>0</bpm>
<rpm>0.00</rpm>
</extensions>
</trkpt>
<trkpt lat="64.207138062" lon="-21.411062241">
<ele>247.183594</ele>
<time>2012-07-18T16:15:00Z</time>
<speed>1.600000</speed>
<extensions>
<speed>1.6</speed>
<temp>0.00</temp>
<bpm>0</bpm>
<rpm>0.00</rpm>
</extensions>
</trkpt>
<trkpt lat="64.207115173" lon="-21.410984039">
<ele>246.664063</ele>
<time>2012-07-18T16:15:05Z</time>
<speed>0.640000</speed>
<extensions>
<speed>0.6</speed>
<temp>0.00</temp>
<bpm>0</bpm>
<rpm>0.00</rpm>
</extensions>
</trkpt>
<trkpt lat="64.207092285" lon="-21.410881042">
<ele>247.531250</ele>
<time>2012-07-18T16:15:10Z</time>
<speed>1.700000</speed>
<extensions>
<speed>1.7</speed>
<temp>0.00</temp>
<bpm>0</bpm>
<rpm>0.00</rpm>
</extensions>
</trkpt>
<trkpt lat="64.207069397" lon="-21.410747528">
<ele>249.667969</ele>
<time>2012-07-18T16:15:15Z</time>
<speed>1.550000</speed>
<extensions>
<speed>1.5</speed>
<temp>0.00</temp>
<bpm>0</bpm>
<rpm>0.00</rpm>
</extensions>
</trkpt>
<trkpt lat="64.207015991" lon="-21.410594940">
<ele>251.328125</ele>
<time>2012-07-18T16:15:20Z</time>
<speed>2.130000</speed>
<extensions>
<speed>2.1</speed>
<temp>0.00</temp>
<bpm>0</bpm>
<rpm>0.00</rpm>
</extensions>
</trkpt>
<trkpt lat="64.206947327" lon="-21.410388947">
<ele>251.347656</ele>
<time>2012-07-18T16:15:25Z</time>
<speed>2.550000</speed>
<extensions>
<speed>2.6</speed>
<temp>0.00</temp>
<bpm>0</bpm>
<rpm>0.00</rpm>
</extensions>
</trkpt>
<trkpt lat="64.206886292" lon="-21.410179138">
<ele>251.750000</ele>
<time>2012-07-18T16:15:30Z</time>
<speed>1.720000</speed>
<extensions>
<speed>1.7</speed>
<temp>0.00</temp>
<bpm>0</bpm>
<rpm>0.00</rpm>
</extensions>
</trkpt>
<trkpt lat="64.206840515" lon="-21.409975052">
<ele>252.023438</ele>
<time>2012-07-18T16:15:35Z</time>
<speed>2.350000</speed>
<extensions>
<speed>2.4</speed>
<temp>0.00</temp>
<bpm>0</bpm>
<rpm>0.00</rpm>
</extensions>
</trkpt>
<trkpt lat="64.206787109" lon="-21.409757614">
<ele>252.386719</ele>
<time>2012-07-18T16:15:40Z</time>
<speed>2.890000</speed>
<extensions>
<speed>2.9</speed>
<temp>0.00</temp>
<bpm>0</bpm>
<rpm>0.00</rpm>
</extensions>
</trkpt>
<trkpt lat="64.206726074" lon="-21.409534454">
<ele>254.457031</ele>
<time>2012-07-18T16:15:45Z</time>
<speed>2.750000</speed>
<extensions>
<speed>2.7</speed>
<temp>0.00</temp>
<bpm>0</bpm>
<rpm>0.00</rpm>
</extensions>
</trkpt>
<trkpt lat="64.206649780" lon="-21.409225464">
<ele>253.867188</ele>
<time>2012-07-18T16:15:50Z</time>
<speed>3.450000</speed>
<extensions>
<speed>3.5</speed>
<temp>0.00</temp>
<bpm>0</bpm>
<rpm>0.00</rpm>
</extensions>
</trkpt>
<trkpt lat="64.206581116" lon="-21.408926010">
<ele>253.765625</ele>
<time>2012-07-18T16:15:55Z</time>
<speed>2.890000</speed>
<extensions>
<speed>2.9</speed>
<temp>0.00</temp>
<bpm>0</bpm>
<rpm>0.00</rpm>
</extensions>
</trkpt>
<trkpt lat="64.206527710" lon="-21.408679962">
<ele>254.578125</ele>
<time>2012-07-18T16:16:00Z</time>
<speed>2.240000</speed>
<extensions>
<speed>2.2</speed>
<temp>0.00</temp>
<bpm>0</bpm>
<rpm>0.00</rpm>
</extensions>
</trkpt>
<trkpt lat="64.206481934" lon="-21.408420563">
<ele>254.113281</ele>
<time>2012-07-18T16:16:05Z</time>
<speed>3.180000</speed>
<extensions>
<speed>3.2</speed>
<temp>0.00</temp>
<bpm>0</bpm>
<rpm>0.00</rpm>
</extensions>
</trkpt>
<trkpt lat="64.206413269" lon="-21.408073425">
<ele>254.613281</ele>
<time>2012-07-18T16:16:10Z</time>
<speed>3.470000</speed>
<extensions>
<speed>3.5</speed>
<temp>0.00</temp>
<bpm>0</bpm>
<rpm>0.00</rpm>
</extensions>
</trkpt>
<trkpt lat="64.206352234" lon="-21.407720566">
<ele>255.964844</ele>
<time>2012-07-18T16:16:15Z</time>
<speed>3.640000</speed>
<extensions>
<speed>3.6</speed>
<temp>0.00</temp>
<bpm>0</bpm>
<rpm>0.00</rpm>
</extensions>
</trkpt>
<trkpt lat="64.206306458" lon="-21.407352448">
<ele>255.800781</ele>
<time>2012-07-18T16:16:20Z</time>
<speed>4.250000</speed>
<extensions>
<speed>4.3</speed>
<temp>0.00</temp>
<bpm>0</bpm>
<rpm>0.00</rpm>
</extensions>
</trkpt>
<trkpt lat="64.206237793" lon="-21.406881332">
<ele>254.875000</ele>
<time>2012-07-18T16:16:25Z</time>
<speed>5.100000</speed>
<extensions>
<speed>5.1</speed>
<temp>0.00</temp>
<bpm>0</bpm>
<rpm>0.00</rpm>
</extensions>
</trkpt>
<trkpt lat="64.206176758" lon="-21.406393051">
<ele>253.878906</ele>
<time>2012-07-18T16:16:30Z</time>
<speed>5.020000</speed>
<extensions>
<speed>5.0</speed>
<temp>0.00</temp>
<bpm>0</bpm>
<rpm>0.00</rpm>
</extensions>
</trkpt>
<trkpt lat="64.206108093" lon="-21.405881882">
<ele>253.390625</ele>
<time>2012-07-18T16:16:35Z</time>
<speed>5.460000</speed>
<extensions>
<speed>5.5</speed>
<temp>0.00</temp>
<bpm>0</bpm>
<rpm>0.00</rpm>
</extensions>
</trkpt>
<trkpt lat="64.206031799" lon="-21.405323029">
<ele>252.585938</ele>
<time>2012-07-18T16:16:40Z</time>
<speed>5.900000</speed>
<extensions>
<speed>5.9</speed>
<temp>0.00</temp>
<bpm>0</bpm>
<rpm>0.00</rpm>
</extensions>
</trkpt>
<trkpt lat="64.205955505" lon="-21.404708862">
<ele>251.093750</ele>
<time>2012-07-18T16:16:45Z</time>
<speed>5.910000</speed>
<extensions>
<speed>5.9</speed>
<temp>0.00</temp>
<bpm>0</bpm>
<rpm>0.00</rpm>
</extensions>
</trkpt>
<trkpt lat="64.205886841" lon="-21.404159546">
<ele>249.960938</ele>
<time>2012-07-18T16:16:50Z</time>
<speed>5.210000</speed>
<extensions>
<speed>5.2</speed>
<temp>0.00</temp>
<bpm>0</bpm>
<rpm>0.00</rpm>
</extensions>
</trkpt>
<trkpt lat="64.205818176" lon="-21.403686523">
<ele>249.839844</ele>
<time>2012-07-18T16:16:55Z</time>
<speed>5.180000</speed>
<extensions>
<speed>5.2</speed>
<temp>0.00</temp>
<bpm>0</bpm>
<rpm>0.00</rpm>
</extensions>
</trkpt>
<trkpt lat="64.205764771" lon="-21.403179169">
<ele>247.980469</ele>
<time>2012-07-18T16:17:00Z</time>
<speed>4.770000</speed>
<extensions>
<speed>4.8</speed>
<temp>0.00</temp>
<bpm>0</bpm>
<rpm>0.00</rpm>
</extensions>
</trkpt>
<trkpt lat="64.205726624" lon="-21.402725220">
<ele>247.324219</ele>
<time>2012-07-18T16:17:05Z</time>
<speed>4.390000</speed>
<extensions>
<speed>4.4</speed>
<temp>0.00</temp>
<bpm>0</bpm>
<rpm>0.00</rpm>
</extensions>
</trkpt>
<trkpt lat="64.205688477" lon="-21.402284622">
<ele>247.042969</ele>
<time>2012-07-18T16:17:10Z</time>
<speed>4.670000</speed>
<extensions>
<speed>4.7</speed>
<temp>0.00</temp>
<bpm>0</bpm>
<rpm>0.00</rpm>
</extensions>
</trkpt>
<trkpt lat="64.205665588" lon="-21.401773453">
<ele>247.351563</ele>
<time>2012-07-18T16:17:15Z</time>
<speed>5.120000</speed>
<extensions>
<speed>5.1</speed>
<temp>0.00</temp>
<bpm>0</bpm>
<rpm>0.00</rpm>
</extensions>
</trkpt>
<trkpt lat="64.205642700" lon="-21.401243210">
<ele>246.785156</ele>
<time>2012-07-18T16:17:20Z</time>
<speed>5.040000</speed>
<extensions>
<speed>5.0</speed>
<temp>0.00</temp>
<bpm>0</bpm>
<rpm>0.00</rpm>
</extensions>
</trkpt>
<trkpt lat="64.205627441" lon="-21.400714874">
<ele>246.078125</ele>
<time>2012-07-18T16:17:25Z</time>
<speed>5.110000</speed>
<extensions>
<speed>5.1</speed>
<temp>0.00</temp>
<bpm>0</bpm>
<rpm>0.00</rpm>
</extensions>
</trkpt>
<trkpt lat="64.205619812" lon="-21.400194168">
<ele>245.546875</ele>
<time>2012-07-18T16:17:30Z</time>
<speed>4.790000</speed>
<extensions>
<speed>4.8</speed>
<temp>0.00</temp>
<bpm>0</bpm>
<rpm>0.00</rpm>
</extensions>
</trkpt>
<trkpt lat="64.205635071" lon="-21.399703979">
<ele>245.261719</ele>
<time>2012-07-18T16:17:35Z</time>
<speed>4.910000</speed>
<extensions>
<speed>4.9</speed>
<temp>0.00</temp>
<bpm>0</bpm>
<rpm>0.00</rpm>
</extensions>
</trkpt>
<trkpt lat="64.205650330" lon="-21.399217606">
<ele>244.160156</ele>
<time>2012-07-18T16:17:40Z</time>
<speed>4.650000</speed>
<extensions>
<speed>4.6</speed>
<temp>0.00</temp>
<bpm>0</bpm>
<rpm>0.00</rpm>
</extensions>
</trkpt>
<trkpt lat="64.205673218" lon="-21.398771286">
<ele>243.421875</ele>
<time>2012-07-18T16:17:45Z</time>
<speed>4.260000</speed>
<extensions>
<speed>4.3</speed>
<temp>0.00</temp>
<bpm>0</bpm>
<rpm>0.00</rpm>
</extensions>
</trkpt>
<trkpt lat="64.205696106" lon="-21.398338318">
<ele>244.015625</ele>
<time>2012-07-18T16:17:50Z</time>
<speed>4.060000</speed>
<extensions>
<speed>4.1</speed>
<temp>0.00</temp>
<bpm>0</bpm>
<rpm>0.00</rpm>
</extensions>
</trkpt>
<trkpt lat="64.205718994" lon="-21.397920609">
<ele>243.296875</ele>
<time>2012-07-18T16:17:55Z</time>
<speed>4.210000</speed>
<extensions>
<speed>4.2</speed>
<temp>0.00</temp>
<bpm>0</bpm>
<rpm>0.00</rpm>
</extensions>
</trkpt>
<trkpt lat="64.205757141" lon="-21.397491455">
<ele>243.503906</ele>
<time>2012-07-18T16:18:00Z</time>
<speed>4.170000</speed>
<extensions>
<speed>4.2</speed>
<temp>0.00</temp>
<bpm>0</bpm>
<rpm>0.00</rpm>
</extensions>
</trkpt>
<trkpt lat="64.205795288" lon="-21.397087097">
<ele>245.117188</ele>
<time>2012-07-18T16:18:05Z</time>
<speed>3.800000</speed>
<extensions>
<speed>3.8</speed>
<temp>0.00</temp>
<bpm>0</bpm>
<rpm>0.00</rpm>
</extensions>
</trkpt>
<trkpt lat="64.205825806" lon="-21.396711349">
<ele>245.003906</ele>
<time>2012-07-18T16:18:10Z</time>
<speed>3.730000</speed>
<extensions>
<speed>3.7</speed>
<temp>0.00</temp>
<bpm>0</bpm>
<rpm>0.00</rpm>
</extensions>
</trkpt>
<trkpt lat="64.205856323" lon="-21.396356583">
<ele>245.917969</ele>
<time>2012-07-18T16:18:15Z</time>
<speed>3.690000</speed>
<extensions>
<speed>3.7</speed>
<temp>0.00</temp>
<bpm>0</bpm>
<rpm>0.00</rpm>
</extensions>
</trkpt>
<trkpt lat="64.205879211" lon="-21.395946503">
<ele>246.609375</ele>
<time>2012-07-18T16:18:20Z</time>
<speed>4.150000</speed>
<extensions>
<speed>4.1</speed>
<temp>0.00</temp>
<bpm>0</bpm>
<rpm>0.00</rpm>
</extensions>
</trkpt>
<trkpt lat="64.205902100" lon="-21.395481110">
<ele>245.730469</ele>
<time>2012-07-18T16:18:25Z</time>
<speed>4.710000</speed>
<extensions>
<speed>4.7</speed>
<temp>0.00</temp>
<bpm>0</bpm>
<rpm>0.00</rpm>
</extensions>
</trkpt>
<trkpt lat="64.205947876" lon="-21.394969940">
<ele>244.343750</ele>
<time>2012-07-18T16:18:30Z</time>
<speed>4.990000</speed>
<extensions>
<speed>5.0</speed>
<temp>0.00</temp>
<bpm>0</bpm>
<rpm>0.00</rpm>
</extensions>
</trkpt>
<trkpt lat="64.205978394" lon="-21.394439697">
<ele>243.960938</ele>
<time>2012-07-18T16:18:35Z</time>
<speed>5.440000</speed>
<extensions>
<speed>5.4</speed>
<temp>0.00</temp>
<bpm>0</bpm>
<rpm>0.00</rpm>
</extensions>
</trkpt>
<trkpt lat="64.206024170" lon="-21.393863678">
<ele>243.246094</ele>
<time>2012-07-18T16:18:40Z</time>
<speed>5.840000</speed>
<extensions>
<speed>5.8</speed>
<temp>0.00</temp>
<bpm>0</bpm>
<rpm>0.00</rpm>
</extensions>
</trkpt>
<trkpt lat="64.206069946" lon="-21.393266678">
<ele>243.003906</ele>
<time>2012-07-18T16:18:45Z</time>
<speed>6.000000</speed>
<extensions>
<speed>6.0</speed>
<temp>0.00</temp>
<bpm>0</bpm>
<rpm>0.00</rpm>
</extensions>
</trkpt>
<trkpt lat="64.206138611" lon="-21.392660141">
<ele>243.675781</ele>
<time>2012-07-18T16:18:50Z</time>
<speed>6.140000</speed>
<extensions>
<speed>6.1</speed>
<temp>0.00</temp>
<bpm>0</bpm>
<rpm>0.00</rpm>
</extensions>
</trkpt>
<trkpt lat="64.206222534" lon="-21.392074585">
<ele>244.816406</ele>
<time>2012-07-18T16:18:55Z</time>
<speed>6.040000</speed>
<extensions>
<speed>6.0</speed>
<temp>0.00</temp>
<bpm>0</bpm>
<rpm>0.00</rpm>
</extensions>
</trkpt>
<trkpt lat="64.206298828" lon="-21.391473770">
<ele>243.285156</ele>
<time>2012-07-18T16:19:00Z</time>
<speed>5.710000</speed>
<extensions>
<speed>5.7</speed>
<temp>0.00</temp>
<bpm>0</bpm>
<rpm>0.00</rpm>
</extensions>
</trkpt>
<trkpt lat="64.206390381" lon="-21.390960693">
<ele>244.492188</ele>
<time>2012-07-18T16:19:05Z</time>
<speed>5.180000</speed>
<extensions>
<speed>5.2</speed>
<temp>0.00</temp>
<bpm>0</bpm>
<rpm>0.00</rpm>
</extensions>
</trkpt>
<trkpt lat="64.206474304" lon="-21.390537262">
<ele>248.187500</ele>
<time>2012-07-18T16:19:10Z</time>
<speed>3.670000</speed>
<extensions>
<speed>3.7</speed>
<temp>0.00</temp>
<bpm>0</bpm>
<rpm>0.00</rpm>
</extensions>
</trkpt>
<trkpt lat="64.206535339" lon="-21.390172958">
<ele>250.460938</ele>
<time>2012-07-18T16:19:15Z</time>
<speed>4.000000</speed>
<extensions>
<speed>4.0</speed>
<temp>0.00</temp>
<bpm>0</bpm>
<rpm>0.00</rpm>
</extensions>
</trkpt>
<trkpt lat="64.206611633" lon="-21.389822006">
<ele>250.917969</ele>
<time>2012-07-18T16:19:20Z</time>
<speed>3.970000</speed>
<extensions>
<speed>4.0</speed>
<temp>0.00</temp>
<bpm>0</bpm>
<rpm>0.00</rpm>
</extensions>
</trkpt>
<trkpt lat="64.206687927" lon="-21.389408112">
<ele>249.843750</ele>
<time>2012-07-18T16:19:25Z</time>
<speed>4.650000</speed>
<extensions>
<speed>4.6</speed>
<temp>0.00</temp>
<bpm>0</bpm>
<rpm>0.00</rpm>
</extensions>
</trkpt>
<trkpt lat="64.206771851" lon="-21.389028549">
<ele>249.812500</ele>
<time>2012-07-18T16:19:30Z</time>
<speed>3.860000</speed>
<extensions>
<speed>3.9</speed>
<temp>0.00</temp>
<bpm>0</bpm>
<rpm>0.00</rpm>
</extensions>
</trkpt>
<trkpt lat="64.206840515" lon="-21.388664246">
<ele>251.285156</ele>
<time>2012-07-18T16:19:35Z</time>
<speed>3.670000</speed>
<extensions>
<speed>3.7</speed>
<temp>0.00</temp>
<bpm>0</bpm>
<rpm>0.00</rpm>
</extensions>
</trkpt>
<trkpt lat="64.206909180" lon="-21.388322830">
<ele>252.390625</ele>
<time>2012-07-18T16:19:40Z</time>
<speed>3.720000</speed>
<extensions>
<speed>3.7</speed>
<temp>0.00</temp>
<bpm>0</bpm>
<rpm>0.00</rpm>
</extensions>
</trkpt>
<trkpt lat="64.206985474" lon="-21.387945175">
<ele>251.312500</ele>
<time>2012-07-18T16:19:45Z</time>
<speed>3.870000</speed>
<extensions>
<speed>3.9</speed>
<temp>0.00</temp>
<bpm>0</bpm>
<rpm>0.00</rpm>
</extensions>
</trkpt>
<trkpt lat="64.207061768" lon="-21.387577057">
<ele>251.511719</ele>
<time>2012-07-18T16:19:50Z</time>
<speed>4.160000</speed>
<extensions>
<speed>4.2</speed>
<temp>0.00</temp>
<bpm>0</bpm>
<rpm>0.00</rpm>
</extensions>
</trkpt>
<trkpt lat="64.207138062" lon="-21.387197495">
<ele>250.753906</ele>
<time>2012-07-18T16:19:55Z</time>
<speed>3.910000</speed>
<extensions>
<speed>3.9</speed>
<temp>0.00</temp>
<bpm>0</bpm>
<rpm>0.00</rpm>
</extensions>
</trkpt>
<trkpt lat="64.207199097" lon="-21.386877060">
<ele>247.644531</ele>
<time>2012-07-18T16:20:00Z</time>
<speed>3.240000</speed>
<extensions>
<speed>3.2</speed>
<temp>0.00</temp>
<bpm>0</bpm>
<rpm>0.00</rpm>
</extensions>
</trkpt>
<trkpt lat="64.207275391" lon="-21.386522293">
<ele>245.800781</ele>
<time>2012-07-18T16:20:05Z</time>
<speed>4.070000</speed>
<extensions>
<speed>4.1</speed>
<temp>0.00</temp>
<bpm>0</bpm>
<rpm>0.00</rpm>
</extensions>
</trkpt>
<trkpt lat="64.207351685" lon="-21.386192322">
<ele>245.625000</ele>
<time>2012-07-18T16:20:10Z</time>
<speed>2.880000</speed>
<extensions>
<speed>2.9</speed>
<temp>0.00</temp>
<bpm>0</bpm>
<rpm>0.00</rpm>
</extensions>
</trkpt>
<trkpt lat="64.207412720" lon="-21.385887146">
<ele>245.496094</ele>
<time>2012-07-18T16:20:15Z</time>
<speed>3.440000</speed>
<extensions>
<speed>3.4</speed>
<temp>0.00</temp>
<bpm>0</bpm>
<rpm>0.00</rpm>
</extensions>
</trkpt>
<trkpt lat="64.207481384" lon="-21.385559082">
<ele>248.058594</ele>
<time>2012-07-18T16:20:20Z</time>
<speed>3.610000</speed>
<extensions>
<speed>3.6</speed>
<temp>0.00</temp>
<bpm>0</bpm>
<rpm>0.00</rpm>
</extensions>
</trkpt>
<trkpt lat="64.207550049" lon="-21.385198593">
<ele>247.812500</ele>
<time>2012-07-18T16:20:25Z</time>
<speed>3.990000</speed>
<extensions>
<speed>4.0</speed>
<temp>0.00</temp>
<bpm>0</bpm>
<rpm>0.00</rpm>
</extensions>
</trkpt>
<trkpt lat="64.207641602" lon="-21.384813309">
<ele>249.890625</ele>
<time>2012-07-18T16:20:30Z</time>
<speed>4.390000</speed>
<extensions>
<speed>4.4</speed>
<temp>0.00</temp>
<bpm>0</bpm>
<rpm>0.00</rpm>
</extensions>
</trkpt>
<trkpt lat="64.207733154" lon="-21.384368896">
<ele>249.800781</ele>
<time>2012-07-18T16:20:35Z</time>
<speed>4.920000</speed>
<extensions>
<speed>4.9</speed>
<temp>0.00</temp>
<bpm>0</bpm>
<rpm>0.00</rpm>
</extensions>
</trkpt>
<trkpt lat="64.207839966" lon="-21.383901596">
<ele>251.398438</ele>
<time>2012-07-18T16:20:40Z</time>
<speed>5.100000</speed>
<extensions>
<speed>5.1</speed>
<temp>0.00</temp>
<bpm>0</bpm>
<rpm>0.00</rpm>
</extensions>
</trkpt>
<trkpt lat="64.207954407" lon="-21.383474350">
<ele>254.128906</ele>
<time>2012-07-18T16:20:45Z</time>
<speed>4.690000</speed>
<extensions>
<speed>4.7</speed>
<temp>0.00</temp>
<bpm>0</bpm>
<rpm>0.00</rpm>
</extensions>
</trkpt>
<trkpt lat="64.208053589" lon="-21.383073807">
<ele>253.085938</ele>
<time>2012-07-18T16:20:50Z</time>
<speed>4.500000</speed>
<extensions>
<speed>4.5</speed>
<temp>0.00</temp>
<bpm>0</bpm>
<rpm>0.00</rpm>
</extensions>
</trkpt>
<trkpt lat="64.208152771" lon="-21.382703781">
<ele>252.492188</ele>
<time>2012-07-18T16:20:55Z</time>
<speed>4.290000</speed>
<extensions>
<speed>4.3</speed>
<temp>0.00</temp>
<bpm>0</bpm>
<rpm>0.00</rpm>
</extensions>
</trkpt>
<trkpt lat="64.208274841" lon="-21.382335663">
<ele>254.175781</ele>
<time>2012-07-18T16:21:00Z</time>
<speed>4.450000</speed>
<extensions>
<speed>4.5</speed>
<temp>0.00</temp>
<bpm>0</bpm>
<rpm>0.00</rpm>
</extensions>
</trkpt>
<trkpt lat="64.208381653" lon="-21.381980896">
<ele>257.632813</ele>
<time>2012-07-18T16:21:05Z</time>
<speed>4.590000</speed>
<extensions>
<speed>4.6</speed>
<temp>0.00</temp>
<bpm>0</bpm>
<rpm>0.00</rpm>
</extensions>
</trkpt>
<trkpt lat="64.208503723" lon="-21.381599426">
<ele>258.007813</ele>
<time>2012-07-18T16:21:10Z</time>
<speed>4.800000</speed>
<extensions>
<speed>4.8</speed>
<temp>0.00</temp>
<bpm>0</bpm>
<rpm>0.00</rpm>
</extensions>
</trkpt>
<trkpt lat="64.208625793" lon="-21.381208420">
<ele>256.828125</ele>
<time>2012-07-18T16:21:15Z</time>
<speed>4.880000</speed>
<extensions>
<speed>4.9</speed>
<temp>0.00</temp>
<bpm>0</bpm>
<rpm>0.00</rpm>
</extensions>
</trkpt>
<trkpt lat="64.208747864" lon="-21.380830765">
<ele>256.015625</ele>
<time>2012-07-18T16:21:20Z</time>
<speed>4.030000</speed>
<extensions>
<speed>4.0</speed>
<temp>0.00</temp>
<bpm>0</bpm>
<rpm>0.00</rpm>
</extensions>
</trkpt>
<trkpt lat="64.208854675" lon="-21.380510330">
<ele>257.296875</ele>
<time>2012-07-18T16:21:25Z</time>
<speed>4.360000</speed>
<extensions>
<speed>4.4</speed>
<temp>0.00</temp>
<bpm>0</bpm>
<rpm>0.00</rpm>
</extensions>
</trkpt>
<trkpt lat="64.208976746" lon="-21.380113602">
<ele>256.890625</ele>
<time>2012-07-18T16:21:30Z</time>
<speed>4.810000</speed>
<extensions>
<speed>4.8</speed>
<temp>0.00</temp>
<bpm>0</bpm>
<rpm>0.00</rpm>
</extensions>
</trkpt>
<trkpt lat="64.209083557" lon="-21.379779816">
<ele>257.804688</ele>
<time>2012-07-18T16:21:35Z</time>
<speed>3.850000</speed>
<extensions>
<speed>3.8</speed>
<temp>0.00</temp>
<bpm>0</bpm>
<rpm>0.00</rpm>
</extensions>
</trkpt>
<trkpt lat="64.209167480" lon="-21.379487991">
<ele>259.000000</ele>
<time>2012-07-18T16:21:40Z</time>
<speed>3.250000</speed>
<extensions>
<speed>3.2</speed>
<temp>0.00</temp>
<bpm>0</bpm>
<rpm>0.00</rpm>
</extensions>
</trkpt>
<trkpt lat="64.209228516" lon="-21.379224777">
<ele>255.667969</ele>
<time>2012-07-18T16:21:45Z</time>
<speed>3.240000</speed>
<extensions>
<speed>3.2</speed>
<temp>0.00</temp>
<bpm>0</bpm>
<rpm>0.00</rpm>
</extensions>
</trkpt>
<trkpt lat="64.209312439" lon="-21.378885269">
<ele>254.601563</ele>
<time>2012-07-18T16:21:50Z</time>
<speed>4.320000</speed>
<extensions>
<speed>4.3</speed>
<temp>0.00</temp>
<bpm>0</bpm>
<rpm>0.00</rpm>
</extensions>
</trkpt>
<trkpt lat="64.209411621" lon="-21.378498077">
<ele>256.164063</ele>
<time>2012-07-18T16:21:55Z</time>
<speed>4.190000</speed>
<extensions>
<speed>4.2</speed>
<temp>0.00</temp>
<bpm>0</bpm>
<rpm>0.00</rpm>
</extensions>
</trkpt>
<trkpt lat="64.209510803" lon="-21.378110886">
<ele>253.828125</ele>
<time>2012-07-18T16:22:00Z</time>
<speed>4.630000</speed>
<extensions>
<speed>4.6</speed>
<temp>0.00</temp>
<bpm>0</bpm>
<rpm>0.00</rpm>
</extensions>
</trkpt>
<trkpt lat="64.209625244" lon="-21.377630234">
<ele>255.289063</ele>
<time>2012-07-18T16:22:05Z</time>
<speed>5.330000</speed>
<extensions>
<speed>5.3</speed>
<temp>0.00</temp>
<bpm>0</bpm>
<rpm>0.00</rpm>
</extensions>
</trkpt>
<trkpt lat="64.209739685" lon="-21.377136230">
<ele>256.179688</ele>
<time>2012-07-18T16:22:10Z</time>
<speed>5.390000</speed>
<extensions>
<speed>5.4</speed>
<temp>0.00</temp>
<bpm>0</bpm>
<rpm>0.00</rpm>
</extensions>
</trkpt>
<trkpt lat="64.209854126" lon="-21.376596451">
<ele>258.320313</ele>
<time>2012-07-18T16:22:15Z</time>
<speed>5.920000</speed>
<extensions>
<speed>5.9</speed>
<temp>0.00</temp>
<bpm>0</bpm>
<rpm>0.00</rpm>
</extensions>
</trkpt>
<trkpt lat="64.209976196" lon="-21.376031876">
<ele>258.234375</ele>
<time>2012-07-18T16:22:20Z</time>
<speed>6.180000</speed>
<extensions>
<speed>6.2</speed>
<temp>0.00</temp>
<bpm>0</bpm>
<rpm>0.00</rpm>
</extensions>
</trkpt>
<trkpt lat="64.210105896" lon="-21.375457764">
<ele>261.726563</ele>
<time>2012-07-18T16:22:25Z</time>
<speed>6.280000</speed>
<extensions>
<speed>6.3</speed>
<temp>0.00</temp>
<bpm>0</bpm>
<rpm>0.00</rpm>
</extensions>
</trkpt>
<trkpt lat="64.210235596" lon="-21.374906540">
<ele>261.804688</ele>
<time>2012-07-18T16:22:30Z</time>
<speed>5.530000</speed>
<extensions>
<speed>5.5</speed>
<temp>0.00</temp>
<bpm>0</bpm>
<rpm>0.00</rpm>
</extensions>
</trkpt>
<trkpt lat="64.210342407" lon="-21.374397278">
<ele>261.421875</ele>
<time>2012-07-18T16:22:35Z</time>
<speed>5.610000</speed>
<extensions>
<speed>5.6</speed>
<temp>0.00</temp>
<bpm>0</bpm>
<rpm>0.00</rpm>
</extensions>
</trkpt>
<trkpt lat="64.210456848" lon="-21.373903275">
<ele>263.406250</ele>
<time>2012-07-18T16:22:40Z</time>
<speed>5.840000</speed>
<extensions>
<speed>5.8</speed>
<temp>0.00</temp>
<bpm>0</bpm>
<rpm>0.00</rpm>
</extensions>
</trkpt>
<trkpt lat="64.210578918" lon="-21.373361588">
<ele>263.492188</ele>
<time>2012-07-18T16:22:45Z</time>
<speed>6.130000</speed>
<extensions>
<speed>6.1</speed>
<temp>0.00</temp>
<bpm>0</bpm>
<rpm>0.00</rpm>
</extensions>
</trkpt>
<trkpt lat="64.210708618" lon="-21.372789383">
<ele>264.218750</ele>
<time>2012-07-18T16:22:50Z</time>
<speed>6.140000</speed>
<extensions>
<speed>6.1</speed>
<temp>0.00</temp>
<bpm>0</bpm>
<rpm>0.00</rpm>
</extensions>
</trkpt>
<trkpt lat="64.210815430" lon="-21.372268677">
<ele>264.335938</ele>
<time>2012-07-18T16:22:55Z</time>
<speed>5.300000</speed>
<extensions>
<speed>5.3</speed>
<temp>0.00</temp>
<bpm>0</bpm>
<rpm>0.00</rpm>
</extensions>
</trkpt>
<trkpt lat="64.210922241" lon="-21.371759415">
<ele>264.867188</ele>
<time>2012-07-18T16:23:00Z</time>
<speed>5.680000</speed>
<extensions>
<speed>5.7</speed>
<temp>0.00</temp>
<bpm>0</bpm>
<rpm>0.00</rpm>
</extensions>
</trkpt>
<trkpt lat="64.211044312" lon="-21.371227264">
<ele>265.648438</ele>
<time>2012-07-18T16:23:05Z</time>
<speed>5.960000</speed>
<extensions>
<speed>6.0</speed>
<temp>0.00</temp>
<bpm>0</bpm>
<rpm>0.00</rpm>
</extensions>
</trkpt>
<trkpt lat="64.211158752" lon="-21.370691299">
<ele>265.523438</ele>
<time>2012-07-18T16:23:10Z</time>
<speed>5.850000</speed>
<extensions>
<speed>5.8</speed>
<temp>0.00</temp>
<bpm>0</bpm>
<rpm>0.00</rpm>
</extensions>
</trkpt>
<trkpt lat="64.211280823" lon="-21.370161057">
<ele>265.648438</ele>
<time>2012-07-18T16:23:15Z</time>
<speed>5.820000</speed>
<extensions>
<speed>5.8</speed>
<temp>0.00</temp>
<bpm>0</bpm>
<rpm>0.00</rpm>
</extensions>
</trkpt>
<trkpt lat="64.211402893" lon="-21.369606018">
<ele>264.796875</ele>
<time>2012-07-18T16:23:20Z</time>
<speed>6.150000</speed>
<extensions>
<speed>6.1</speed>
<temp>0.00</temp>
<bpm>0</bpm>
<rpm>0.00</rpm>
</extensions>
</trkpt>
<trkpt lat="64.211524963" lon="-21.369018555">
<ele>264.585938</ele>
<time>2012-07-18T16:23:25Z</time>
<speed>6.260000</speed>
<extensions>
<speed>6.3</speed>
<temp>0.00</temp>
<bpm>0</bpm>
<rpm>0.00</rpm>
</extensions>
</trkpt>
<trkpt lat="64.211647034" lon="-21.368463516">
<ele>264.171875</ele>
<time>2012-07-18T16:23:30Z</time>
<speed>5.810000</speed>
<extensions>
<speed>5.8</speed>
<temp>0.00</temp>
<bpm>0</bpm>
<rpm>0.00</rpm>
</extensions>
</trkpt>
<trkpt lat="64.211761475" lon="-21.367921829">
<ele>264.257813</ele>
<time>2012-07-18T16:23:35Z</time>
<speed>6.070000</speed>
<extensions>
<speed>6.1</speed>
<temp>0.00</temp>
<bpm>0</bpm>
<rpm>0.00</rpm>
</extensions>
</trkpt>
<trkpt lat="64.211883545" lon="-21.367368698">
<ele>263.257813</ele>
<time>2012-07-18T16:23:40Z</time>
<speed>5.920000</speed>
<extensions>
<speed>5.9</speed>
<temp>0.00</temp>
<bpm>0</bpm>
<rpm>0.00</rpm>
</extensions>
</trkpt>
<trkpt lat="64.211997986" lon="-21.366828918">
<ele>263.242188</ele>
<time>2012-07-18T16:23:45Z</time>
<speed>5.980000</speed>
<extensions>
<speed>6.0</speed>
<temp>0.00</temp>
<bpm>0</bpm>
<rpm>0.00</rpm>
</extensions>
</trkpt>
<trkpt lat="64.212120056" lon="-21.366252899">
<ele>263.015625</ele>
<time>2012-07-18T16:23:50Z</time>
<speed>6.250000</speed>
<extensions>
<speed>6.3</speed>
<temp>0.00</temp>
<bpm>0</bpm>
<rpm>0.00</rpm>
</extensions>
</trkpt>
<trkpt lat="64.212249756" lon="-21.365690231">
<ele>263.703125</ele>
<time>2012-07-18T16:23:55Z</time>
<speed>6.040000</speed>
<extensions>
<speed>6.0</speed>
<temp>0.00</temp>
<bpm>0</bpm>
<rpm>0.00</rpm>
</extensions>
</trkpt>
<trkpt lat="64.212371826" lon="-21.365144730">
<ele>264.320313</ele>
<time>2012-07-18T16:24:00Z</time>
<speed>6.050000</speed>
<extensions>
<speed>6.1</speed>
<temp>0.00</temp>
<bpm>0</bpm>
<rpm>0.00</rpm>
</extensions>
</trkpt>
<trkpt lat="64.212486267" lon="-21.364582062">
<ele>263.679688</ele>
<time>2012-07-18T16:24:05Z</time>
<speed>6.040000</speed>
<extensions>
<speed>6.0</speed>
<temp>0.00</temp>
<bpm>0</bpm>
<rpm>0.00</rpm>
</extensions>
</trkpt>
<trkpt lat="64.212615967" lon="-21.364044189">
<ele>263.531250</ele>
<time>2012-07-18T16:24:10Z</time>
<speed>5.790000</speed>
<extensions>
<speed>5.8</speed>
<temp>0.00</temp>
<bpm>0</bpm>
<rpm>0.00</rpm>
</extensions>
</trkpt>
<trkpt lat="64.212730408" lon="-21.363517761">
<ele>263.476563</ele>
<time>2012-07-18T16:24:15Z</time>
<speed>5.640000</speed>
<extensions>
<speed>5.6</speed>
<temp>0.00</temp>
<bpm>0</bpm>
<rpm>0.00</rpm>
</extensions>
</trkpt>
<trkpt lat="64.212837219" lon="-21.363000870">
<ele>263.632813</ele>
<time>2012-07-18T16:24:20Z</time>
<speed>5.500000</speed>
<extensions>
<speed>5.5</speed>
<temp>0.00</temp>
<bpm>0</bpm>
<rpm>0.00</rpm>
</extensions>
</trkpt>
<trkpt lat="64.212936401" lon="-21.362506866">
<ele>262.171875</ele>
<time>2012-07-18T16:24:25Z</time>
<speed>5.130000</speed>
<extensions>
<speed>5.1</speed>
<temp>0.00</temp>
<bpm>0</bpm>
<rpm>0.00</rpm>
</extensions>
</trkpt>
<trkpt lat="64.213027954" lon="-21.362041473">
<ele>262.671875</ele>
<time>2012-07-18T16:24:30Z</time>
<speed>4.860000</speed>
<extensions>
<speed>4.9</speed>
<temp>0.00</temp>
<bpm>0</bpm>
<rpm>0.00</rpm>
</extensions>
</trkpt>
<trkpt lat="64.213119507" lon="-21.361612320">
<ele>263.890625</ele>
<time>2012-07-18T16:24:35Z</time>
<speed>4.790000</speed>
<extensions>
<speed>4.8</speed>
<temp>0.00</temp>
<bpm>0</bpm>
<rpm>0.00</rpm>
</extensions>
</trkpt>
<trkpt lat="64.213203430" lon="-21.361162186">
<ele>264.234375</ele>
<time>2012-07-18T16:24:40Z</time>
<speed>4.740000</speed>
<extensions>
<speed>4.7</speed>
<temp>0.00</temp>
<bpm>0</bpm>
<rpm>0.00</rpm>
</extensions>
</trkpt>
<trkpt lat="64.213287354" lon="-21.360702515">
<ele>264.312500</ele>
<time>2012-07-18T16:24:45Z</time>
<speed>4.930000</speed>
<extensions>
<speed>4.9</speed>
<temp>0.00</temp>
<bpm>0</bpm>
<rpm>0.00</rpm>
</extensions>
</trkpt>
<trkpt lat="64.213356018" lon="-21.360198975">
<ele>263.304688</ele>
<time>2012-07-18T16:24:50Z</time>
<speed>5.270000</speed>
<extensions>
<speed>5.3</speed>
<temp>0.00</temp>
<bpm>0</bpm>
<rpm>0.00</rpm>
</extensions>
</trkpt>
<trkpt lat="64.213432312" lon="-21.359670639">
<ele>263.031250</ele>
<time>2012-07-18T16:24:55Z</time>
<speed>5.680000</speed>
<extensions>
<speed>5.7</speed>
<temp>0.00</temp>
<bpm>0</bpm>
<rpm>0.00</rpm>
</extensions>
</trkpt>
<trkpt lat="64.213500977" lon="-21.359086990">
<ele>262.765625</ele>
<time>2012-07-18T16:25:00Z</time>
<speed>5.990000</speed>
<extensions>
<speed>6.0</speed>
<temp>0.00</temp>
<bpm>0</bpm>
<rpm>0.00</rpm>
</extensions>
</trkpt>
<trkpt lat="64.213569641" lon="-21.358472824">
<ele>261.023438</ele>
<time>2012-07-18T16:25:05Z</time>
<speed>6.110000</speed>
<extensions>
<speed>6.1</speed>
<temp>0.00</temp>
<bpm>0</bpm>
<rpm>0.00</rpm>
</extensions>
</trkpt>
<trkpt lat="64.213630676" lon="-21.357843399">
<ele>260.085938</ele>
<time>2012-07-18T16:25:10Z</time>
<speed>6.290000</speed>
<extensions>
<speed>6.3</speed>
<temp>0.00</temp>
<bpm>0</bpm>
<rpm>0.00</rpm>
</extensions>
</trkpt>
<trkpt lat="64.213699341" lon="-21.357206345">
<ele>260.039063</ele>
<time>2012-07-18T16:25:15Z</time>
<speed>6.210000</speed>
<extensions>
<speed>6.2</speed>
<temp>0.00</temp>
<bpm>0</bpm>
<rpm>0.00</rpm>
</extensions>
</trkpt>
<trkpt lat="64.213760376" lon="-21.356580734">
<ele>259.664063</ele>
<time>2012-07-18T16:25:20Z</time>
<speed>6.170000</speed>
<extensions>
<speed>6.2</speed>
<temp>0.00</temp>
<bpm>0</bpm>
<rpm>0.00</rpm>
</extensions>
</trkpt>
<trkpt lat="64.213829041" lon="-21.355976105">
<ele>259.375000</ele>
<time>2012-07-18T16:25:25Z</time>
<speed>6.120000</speed>
<extensions>
<speed>6.1</speed>
<temp>0.00</temp>
<bpm>0</bpm>
<rpm>0.00</rpm>
</extensions>
</trkpt>
<trkpt lat="64.213882446" lon="-21.355361938">
<ele>258.625000</ele>
<time>2012-07-18T16:25:30Z</time>
<speed>6.150000</speed>
<extensions>
<speed>6.1</speed>
<temp>0.00</temp>
<bpm>0</bpm>
<rpm>0.00</rpm>
</extensions>
</trkpt>
<trkpt lat="64.213943481" lon="-21.354749680">
<ele>258.570313</ele>
<time>2012-07-18T16:25:35Z</time>
<speed>5.890000</speed>
<extensions>
<speed>5.9</speed>
<temp>0.00</temp>
<bpm>0</bpm>
<rpm>0.00</rpm>
</extensions>
</trkpt>
<trkpt lat="64.213996887" lon="-21.354173660">
<ele>258.929688</ele>
<time>2012-07-18T16:25:40Z</time>
<speed>5.480000</speed>
<extensions>
<speed>5.5</speed>
<temp>0.00</temp>
<bpm>0</bpm>
<rpm>0.00</rpm>
</extensions>
</trkpt>
<trkpt lat="64.214042664" lon="-21.353635788">
<ele>258.632813</ele>
<time>2012-07-18T16:25:45Z</time>
<speed>4.900000</speed>
<extensions>
<speed>4.9</speed>
<temp>0.00</temp>
<bpm>0</bpm>
<rpm>0.00</rpm>
</extensions>
</trkpt>
<trkpt lat="64.214096069" lon="-21.353105545">
<ele>260.687500</ele>
<time>2012-07-18T16:25:50Z</time>
<speed>5.270000</speed>
<extensions>
<speed>5.3</speed>
<temp>0.00</temp>
<bpm>0</bpm>
<rpm>0.00</rpm>
</extensions>
</trkpt>
<trkpt lat="64.214141846" lon="-21.352588654">
<ele>262.179688</ele>
<time>2012-07-18T16:25:55Z</time>
<speed>5.150000</speed>
<extensions>
<speed>5.2</speed>
<temp>0.00</temp>
<bpm>0</bpm>
<rpm>0.00</rpm>
</extensions>
</trkpt>
<trkpt lat="64.214179993" lon="-21.352079391">
<ele>263.890625</ele>
<time>2012-07-18T16:26:00Z</time>
<speed>4.970000</speed>
<extensions>
<speed>5.0</speed>
<temp>0.00</temp>
<bpm>0</bpm>
<rpm>0.00</rpm>
</extensions>
</trkpt>
<trkpt lat="64.214225769" lon="-21.351572037">
<ele>265.000000</ele>
<time>2012-07-18T16:26:05Z</time>
<speed>4.970000</speed>
<extensions>
<speed>5.0</speed>
<temp>0.00</temp>
<bpm>0</bpm>
<rpm>0.00</rpm>
</extensions>
</trkpt>
<trkpt lat="64.214279175" lon="-21.351055145">
<ele>265.539063</ele>
<time>2012-07-18T16:26:10Z</time>
<speed>5.320000</speed>
<extensions>
<speed>5.3</speed>
<temp>0.00</temp>
<bpm>0</bpm>
<rpm>0.00</rpm>
</extensions>
</trkpt>
<trkpt lat="64.214340210" lon="-21.350521088">
<ele>266.109375</ele>
<time>2012-07-18T16:26:15Z</time>
<speed>4.660000</speed>
<extensions>
<speed>4.7</speed>
<temp>0.00</temp>
<bpm>0</bpm>
<rpm>0.00</rpm>
</extensions>
</trkpt>
<trkpt lat="64.214385986" lon="-21.350109100">
<ele>264.742188</ele>
<time>2012-07-18T16:26:20Z</time>
<speed>4.110000</speed>
<extensions>
<speed>4.1</speed>
<temp>0.00</temp>
<bpm>0</bpm>
<rpm>0.00</rpm>
</extensions>
</trkpt>
<trkpt lat="64.214424133" lon="-21.349670410">
<ele>264.296875</ele>
<time>2012-07-18T16:26:25Z</time>
<speed>4.640000</speed>
<extensions>
<speed>4.6</speed>
<temp>0.00</temp>
<bpm>0</bpm>
<rpm>0.00</rpm>
</extensions>
</trkpt>
<trkpt lat="64.214462280" lon="-21.349163055">
<ele>261.437500</ele>
<time>2012-07-18T16:26:30Z</time>
<speed>4.970000</speed>
<extensions>
<speed>5.0</speed>
<temp>0.00</temp>
<bpm>0</bpm>
<rpm>0.00</rpm>
</extensions>
</trkpt>
<trkpt lat="64.214485168" lon="-21.348724365">
<ele>262.546875</ele>
<time>2012-07-18T16:26:35Z</time>
<speed>4.920000</speed>
<extensions>
<speed>4.9</speed>
<temp>0.00</temp>
<bpm>0</bpm>
<rpm>0.00</rpm>
</extensions>
</trkpt>
<trkpt lat="64.214523315" lon="-21.348278046">
<ele>264.000000</ele>
<time>2012-07-18T16:26:40Z</time>
<speed>4.800000</speed>
<extensions>
<speed>4.8</speed>
<temp>0.00</temp>
<bpm>0</bpm>
<rpm>0.00</rpm>
</extensions>
</trkpt>
<trkpt lat="64.214561462" lon="-21.347797394">
<ele>263.750000</ele>
<time>2012-07-18T16:26:45Z</time>
<speed>3.950000</speed>
<extensions>
<speed>4.0</speed>
<temp>0.00</temp>
<bpm>0</bpm>
<rpm>0.00</rpm>
</extensions>
</trkpt>
<trkpt lat="64.214591980" lon="-21.347400665">
<ele>267.132813</ele>
<time>2012-07-18T16:26:50Z</time>
<speed>4.400000</speed>
<extensions>
<speed>4.4</speed>
<temp>0.00</temp>
<bpm>0</bpm>
<rpm>0.00</rpm>
</extensions>
</trkpt>
<trkpt lat="64.214614868" lon="-21.346902847">
<ele>267.531250</ele>
<time>2012-07-18T16:26:55Z</time>
<speed>5.020000</speed>
<extensions>
<speed>5.0</speed>
<temp>0.00</temp>
<bpm>0</bpm>
<rpm>0.00</rpm>
</extensions>
</trkpt>
<trkpt lat="64.214637756" lon="-21.346395493">
<ele>268.609375</ele>
<time>2012-07-18T16:27:00Z</time>
<speed>5.040000</speed>
<extensions>
<speed>5.0</speed>
<temp>0.00</temp>
<bpm>0</bpm>
<rpm>0.00</rpm>
</extensions>
</trkpt>
<trkpt lat="64.214637756" lon="-21.345872879">
<ele>268.070313</ele>
<time>2012-07-18T16:27:05Z</time>
<speed>4.970000</speed>
<extensions>
<speed>5.0</speed>
<temp>0.00</temp>
<bpm>0</bpm>
<rpm>0.00</rpm>
</extensions>
</trkpt>
<trkpt lat="64.214622498" lon="-21.345361710">
<ele>265.054688</ele>
<time>2012-07-18T16:27:10Z</time>
<speed>4.640000</speed>
<extensions>
<speed>4.6</speed>
<temp>0.00</temp>
<bpm>0</bpm>
<rpm>0.00</rpm>
</extensions>
</trkpt>
<trkpt lat="64.214599609" lon="-21.344900131">
<ele>266.031250</ele>
<time>2012-07-18T16:27:15Z</time>
<speed>4.500000</speed>
<extensions>
<speed>4.5</speed>
<temp>0.00</temp>
<bpm>0</bpm>
<rpm>0.00</rpm>
</extensions>
</trkpt>
<trkpt lat="64.214561462" lon="-21.344432831">
<ele>265.250000</ele>
<time>2012-07-18T16:27:20Z</time>
<speed>4.690000</speed>
<extensions>
<speed>4.7</speed>
<temp>0.00</temp>
<bpm>0</bpm>
<rpm>0.00</rpm>
</extensions>
</trkpt>
<trkpt lat="64.214530945" lon="-21.343929291">
<ele>266.320313</ele>
<time>2012-07-18T16:27:25Z</time>
<speed>5.150000</speed>
<extensions>
<speed>5.2</speed>
<temp>0.00</temp>
<bpm>0</bpm>
<rpm>0.00</rpm>
</extensions>
</trkpt>
<trkpt lat="64.214469910" lon="-21.343372345">
<ele>265.593750</ele>
<time>2012-07-18T16:27:30Z</time>
<speed>5.790000</speed>
<extensions>
<speed>5.8</speed>
<temp>0.00</temp>
<bpm>0</bpm>
<rpm>0.00</rpm>
</extensions>
</trkpt>
<trkpt lat="64.214378357" lon="-21.342758179">
<ele>264.531250</ele>
<time>2012-07-18T16:27:35Z</time>
<speed>6.570000</speed>
<extensions>
<speed>6.6</speed>
<temp>0.00</temp>
<bpm>0</bpm>
<rpm>0.00</rpm>
</extensions>
</trkpt>
<trkpt lat="64.214256287" lon="-21.342073441">
<ele>262.625000</ele>
<time>2012-07-18T16:27:40Z</time>
<speed>7.880000</speed>
<extensions>
<speed>7.9</speed>
<temp>0.00</temp>
<bpm>0</bpm>
<rpm>0.00</rpm>
</extensions>
</trkpt>
<trkpt lat="64.214096069" lon="-21.341285706">
<ele>260.406250</ele>
<time>2012-07-18T16:27:45Z</time>
<speed>8.880000</speed>
<extensions>
<speed>8.9</speed>
<temp>0.00</temp>
<bpm>0</bpm>
<rpm>0.00</rpm>
</extensions>
</trkpt>
<trkpt lat="64.213905334" lon="-21.340415955">
<ele>255.683594</ele>
<time>2012-07-18T16:27:50Z</time>
<speed>9.730000</speed>
<extensions>
<speed>9.7</speed>
<temp>0.00</temp>
<bpm>0</bpm>
<rpm>0.00</rpm>
</extensions>
</trkpt>
<trkpt lat="64.213699341" lon="-21.339519501">
<ele>251.218750</ele>
<time>2012-07-18T16:27:55Z</time>
<speed>9.620000</speed>
<extensions>
<speed>9.6</speed>
<temp>0.00</temp>
<bpm>0</bpm>
<rpm>0.00</rpm>
</extensions>
</trkpt>
<trkpt lat="64.213500977" lon="-21.338657379">
<ele>250.382813</ele>
<time>2012-07-18T16:28:00Z</time>
<speed>9.300000</speed>
<extensions>
<speed>9.3</speed>
<temp>0.00</temp>
<bpm>0</bpm>
<rpm>0.00</rpm>
</extensions>
</trkpt>
<trkpt lat="64.213294983" lon="-21.337818146">
<ele>249.359375</ele>
<time>2012-07-18T16:28:05Z</time>
<speed>9.360000</speed>
<extensions>
<speed>9.4</speed>
<temp>0.00</temp>
<bpm>0</bpm>
<rpm>0.00</rpm>
</extensions>
</trkpt>
<trkpt lat="64.213127136" lon="-21.336938858">
<ele>247.621094</ele>
<time>2012-07-18T16:28:10Z</time>
<speed>9.200000</speed>
<extensions>
<speed>9.2</speed>
<temp>0.00</temp>
<bpm>0</bpm>
<rpm>0.00</rpm>
</extensions>
</trkpt>
<trkpt lat="64.212989807" lon="-21.336055756">
<ele>246.804688</ele>
<time>2012-07-18T16:28:15Z</time>
<speed>9.060000</speed>
<extensions>
<speed>9.1</speed>
<temp>0.00</temp>
<bpm>0</bpm>
<rpm>0.00</rpm>
</extensions>
</trkpt>
<trkpt lat="64.212860107" lon="-21.335205078">
<ele>246.730469</ele>
<time>2012-07-18T16:28:20Z</time>
<speed>8.370000</speed>
<extensions>
<speed>8.4</speed>
<temp>0.00</temp>
<bpm>0</bpm>
<rpm>0.00</rpm>
</extensions>
</trkpt>
<trkpt lat="64.212760925" lon="-21.334444046">
<ele>244.976563</ele>
<time>2012-07-18T16:28:25Z</time>
<speed>7.630000</speed>
<extensions>
<speed>7.6</speed>
<temp>0.00</temp>
<bpm>0</bpm>
<rpm>0.00</rpm>
</extensions>
</trkpt>
<trkpt lat="64.212692261" lon="-21.333721161">
<ele>247.234375</ele>
<time>2012-07-18T16:28:30Z</time>
<speed>7.370000</speed>
<extensions>
<speed>7.4</speed>
<temp>0.00</temp>
<bpm>0</bpm>
<rpm>0.00</rpm>
</extensions>
</trkpt>
<trkpt lat="64.212608337" lon="-21.333000183">
<ele>246.785156</ele>
<time>2012-07-18T16:28:35Z</time>
<speed>7.070000</speed>
<extensions>
<speed>7.1</speed>
<temp>0.00</temp>
<bpm>0</bpm>
<rpm>0.00</rpm>
</extensions>
</trkpt>
<trkpt lat="64.212532043" lon="-21.332328796">
<ele>246.546875</ele>
<time>2012-07-18T16:28:40Z</time>
<speed>6.510000</speed>
<extensions>
<speed>6.5</speed>
<temp>0.00</temp>
<bpm>0</bpm>
<rpm>0.00</rpm>
</extensions>
</trkpt>
<trkpt lat="64.212455750" lon="-21.331653595">
<ele>245.031250</ele>
<time>2012-07-18T16:28:45Z</time>
<speed>6.790000</speed>
<extensions>
<speed>6.8</speed>
<temp>0.00</temp>
<bpm>0</bpm>
<rpm>0.00</rpm>
</extensions>
</trkpt>
<trkpt lat="64.212364197" lon="-21.330944061">
<ele>244.023438</ele>
<time>2012-07-18T16:28:50Z</time>
<speed>7.220000</speed>
<extensions>
<speed>7.2</speed>
<temp>0.00</temp>
<bpm>0</bpm>
<rpm>0.00</rpm>
</extensions>
</trkpt>
<trkpt lat="64.212280273" lon="-21.330204010">
<ele>243.621094</ele>
<time>2012-07-18T16:28:55Z</time>
<speed>7.550000</speed>
<extensions>
<speed>7.6</speed>
<temp>0.00</temp>
<bpm>0</bpm>
<rpm>0.00</rpm>
</extensions>
</trkpt>
<trkpt lat="64.212188721" lon="-21.329429626">
<ele>242.691406</ele>
<time>2012-07-18T16:29:00Z</time>
<speed>7.840000</speed>
<extensions>
<speed>7.8</speed>
<temp>0.00</temp>
<bpm>0</bpm>
<rpm>0.00</rpm>
</extensions>
</trkpt>
<trkpt lat="64.212089539" lon="-21.328636169">
<ele>242.125000</ele>
<time>2012-07-18T16:29:05Z</time>
<speed>8.030000</speed>
<extensions>
<speed>8.0</speed>
<temp>0.00</temp>
<bpm>0</bpm>
<rpm>0.00</rpm>
</extensions>
</trkpt>
<trkpt lat="64.211990356" lon="-21.327819824">
<ele>241.218750</ele>
<time>2012-07-18T16:29:10Z</time>
<speed>8.180000</speed>
<extensions>
<speed>8.2</speed>
<temp>0.00</temp>
<bpm>0</bpm>
<rpm>0.00</rpm>
</extensions>
</trkpt>
<trkpt lat="64.211898804" lon="-21.327032089">
<ele>241.808594</ele>
<time>2012-07-18T16:29:15Z</time>
<speed>7.850000</speed>
<extensions>
<speed>7.9</speed>
<temp>0.00</temp>
<bpm>0</bpm>
<rpm>0.00</rpm>
</extensions>
</trkpt>
<trkpt lat="64.211814880" lon="-21.326217651">
<ele>241.820313</ele>
<time>2012-07-18T16:29:20Z</time>
<speed>8.270000</speed>
<extensions>
<speed>8.3</speed>
<temp>0.00</temp>
<bpm>0</bpm>
<rpm>0.00</rpm>
</extensions>
</trkpt>
<trkpt lat="64.211715698" lon="-21.325386047">
<ele>242.531250</ele>
<time>2012-07-18T16:29:25Z</time>
<speed>8.570000</speed>
<extensions>
<speed>8.6</speed>
<temp>0.00</temp>
<bpm>0</bpm>
<rpm>0.00</rpm>
</extensions>
</trkpt>
<trkpt lat="64.211608887" lon="-21.324560165">
<ele>241.207031</ele>
<time>2012-07-18T16:29:30Z</time>
<speed>8.500000</speed>
<extensions>
<speed>8.5</speed>
<temp>0.00</temp>
<bpm>0</bpm>
<rpm>0.00</rpm>
</extensions>
</trkpt>
<trkpt lat="64.211494446" lon="-21.323743820">
<ele>239.160156</ele>
<time>2012-07-18T16:29:35Z</time>
<speed>8.200000</speed>
<extensions>
<speed>8.2</speed>
<temp>0.00</temp>
<bpm>0</bpm>
<rpm>0.00</rpm>
</extensions>
</trkpt>
<trkpt lat="64.211395264" lon="-21.322946548">
<ele>237.984375</ele>
<time>2012-07-18T16:29:40Z</time>
<speed>8.230000</speed>
<extensions>
<speed>8.2</speed>
<temp>0.00</temp>
<bpm>0</bpm>
<rpm>0.00</rpm>
</extensions>
</trkpt>
<trkpt lat="64.211280823" lon="-21.322137833">
<ele>237.875000</ele>
<time>2012-07-18T16:29:45Z</time>
<speed>8.130000</speed>
<extensions>
<speed>8.1</speed>
<temp>0.00</temp>
<bpm>0</bpm>
<rpm>0.00</rpm>
</extensions>
</trkpt>
<trkpt lat="64.211174011" lon="-21.321357727">
<ele>236.714844</ele>
<time>2012-07-18T16:29:50Z</time>
<speed>7.830000</speed>
<extensions>
<speed>7.8</speed>
<temp>0.00</temp>
<bpm>0</bpm>
<rpm>0.00</rpm>
</extensions>
</trkpt>
<trkpt lat="64.211036682" lon="-21.320577621">
<ele>236.605469</ele>
<time>2012-07-18T16:29:55Z</time>
<speed>8.240000</speed>
<extensions>
<speed>8.2</speed>
<temp>0.00</temp>
<bpm>0</bpm>
<rpm>0.00</rpm>
</extensions>
</trkpt>
<trkpt lat="64.210891724" lon="-21.319797516">
<ele>235.695313</ele>
<time>2012-07-18T16:30:00Z</time>
<speed>8.400000</speed>
<extensions>
<speed>8.4</speed>
<temp>0.00</temp>
<bpm>0</bpm>
<rpm>0.00</rpm>
</extensions>
</trkpt>
<trkpt lat="64.210723877" lon="-21.319013596">
<ele>235.003906</ele>
<time>2012-07-18T16:30:05Z</time>
<speed>8.280000</speed>
<extensions>
<speed>8.3</speed>
<temp>0.00</temp>
<bpm>0</bpm>
<rpm>0.00</rpm>
</extensions>
</trkpt>
<trkpt lat="64.210556030" lon="-21.318244934">
<ele>234.843750</ele>
<time>2012-07-18T16:30:10Z</time>
<speed>8.300000</speed>
<extensions>
<speed>8.3</speed>
<temp>0.00</temp>
<bpm>0</bpm>
<rpm>0.00</rpm>
</extensions>
</trkpt>
<trkpt lat="64.210380554" lon="-21.317495346">
<ele>234.332031</ele>
<time>2012-07-18T16:30:15Z</time>
<speed>8.290000</speed>
<extensions>
<speed>8.3</speed>
<temp>0.00</temp>
<bpm>0</bpm>
<rpm>0.00</rpm>
</extensions>
</trkpt>
<trkpt lat="64.210205078" lon="-21.316743851">
<ele>233.648438</ele>
<time>2012-07-18T16:30:20Z</time>
<speed>8.290000</speed>
<extensions>
<speed>8.3</speed>
<temp>0.00</temp>
<bpm>0</bpm>
<rpm>0.00</rpm>
</extensions>
</trkpt>
<trkpt lat="64.210044861" lon="-21.316024780">
<ele>232.230469</ele>
<time>2012-07-18T16:30:25Z</time>
<speed>7.730000</speed>
<extensions>
<speed>7.7</speed>
<temp>0.00</temp>
<bpm>0</bpm>
<rpm>0.00</rpm>
</extensions>
</trkpt>
<trkpt lat="64.209907532" lon="-21.315288544">
<ele>232.050781</ele>
<time>2012-07-18T16:30:30Z</time>
<speed>7.880000</speed>
<extensions>
<speed>7.9</speed>
<temp>0.00</temp>
<bpm>0</bpm>
<rpm>0.00</rpm>
</extensions>
</trkpt>
<trkpt lat="64.209785461" lon="-21.314527512">
<ele>231.929688</ele>
<time>2012-07-18T16:30:35Z</time>
<speed>7.940000</speed>
<extensions>
<speed>7.9</speed>
<temp>0.00</temp>
<bpm>0</bpm>
<rpm>0.00</rpm>
</extensions>
</trkpt>
<trkpt lat="64.209686279" lon="-21.313743591">
<ele>231.500000</ele>
<time>2012-07-18T16:30:40Z</time>
<speed>8.050000</speed>
<extensions>
<speed>8.0</speed>
<temp>0.00</temp>
<bpm>0</bpm>
<rpm>0.00</rpm>
</extensions>
</trkpt>
<trkpt lat="64.209625244" lon="-21.312902451">
<ele>232.175781</ele>
<time>2012-07-18T16:30:45Z</time>
<speed>8.380000</speed>
<extensions>
<speed>8.4</speed>
<temp>0.00</temp>
<bpm>0</bpm>
<rpm>0.00</rpm>
</extensions>
</trkpt>
<trkpt lat="64.209594727" lon="-21.312036514">
<ele>231.968750</ele>
<time>2012-07-18T16:30:50Z</time>
<speed>8.190000</speed>
<extensions>
<speed>8.2</speed>
<temp>0.00</temp>
<bpm>0</bpm>
<rpm>0.00</rpm>
</extensions>
</trkpt>
<trkpt lat="64.209594727" lon="-21.311197281">
<ele>231.292969</ele>
<time>2012-07-18T16:30:55Z</time>
<speed>7.830000</speed>
<extensions>
<speed>7.8</speed>
<temp>0.00</temp>
<bpm>0</bpm>
<rpm>0.00</rpm>
</extensions>
</trkpt>
<trkpt lat="64.209632874" lon="-21.310398102">
<ele>231.832031</ele>
<time>2012-07-18T16:31:00Z</time>
<speed>8.180000</speed>
<extensions>
<speed>8.2</speed>
<temp>0.00</temp>
<bpm>0</bpm>
<rpm>0.00</rpm>
</extensions>
</trkpt>
<trkpt lat="64.209655762" lon="-21.309530258">
<ele>231.542969</ele>
<time>2012-07-18T16:31:05Z</time>
<speed>8.520000</speed>
<extensions>
<speed>8.5</speed>
<temp>0.00</temp>
<bpm>0</bpm>
<rpm>0.00</rpm>
</extensions>
</trkpt>
<trkpt lat="64.209686279" lon="-21.308668137">
<ele>232.449219</ele>
<time>2012-07-18T16:31:10Z</time>
<speed>8.220000</speed>
<extensions>
<speed>8.2</speed>
<temp>0.00</temp>
<bpm>0</bpm>
<rpm>0.00</rpm>
</extensions>
</trkpt>
<trkpt lat="64.209686279" lon="-21.307842255">
<ele>232.175781</ele>
<time>2012-07-18T16:31:15Z</time>
<speed>7.990000</speed>
<extensions>
<speed>8.0</speed>
<temp>0.00</temp>
<bpm>0</bpm>
<rpm>0.00</rpm>
</extensions>
</trkpt>
<trkpt lat="64.209671021" lon="-21.307018280">
<ele>229.597656</ele>
<time>2012-07-18T16:31:20Z</time>
<speed>7.920000</speed>
<extensions>
<speed>7.9</speed>
<temp>0.00</temp>
<bpm>0</bpm>
<rpm>0.00</rpm>
</extensions>
</trkpt>
<trkpt lat="64.209625244" lon="-21.306236267">
<ele>228.851563</ele>
<time>2012-07-18T16:31:25Z</time>
<speed>7.600000</speed>
<extensions>
<speed>7.6</speed>
<temp>0.00</temp>
<bpm>0</bpm>
<rpm>0.00</rpm>
</extensions>
</trkpt>
<trkpt lat="64.209571838" lon="-21.305494308">
<ele>230.167969</ele>
<time>2012-07-18T16:31:30Z</time>
<speed>7.170000</speed>
<extensions>
<speed>7.2</speed>
<temp>0.00</temp>
<bpm>0</bpm>
<rpm>0.00</rpm>
</extensions>
</trkpt>
<trkpt lat="64.209503174" lon="-21.304759979">
<ele>229.738281</ele>
<time>2012-07-18T16:31:35Z</time>
<speed>7.270000</speed>
<extensions>
<speed>7.3</speed>
<temp>0.00</temp>
<bpm>0</bpm>
<rpm>0.00</rpm>
</extensions>
</trkpt>
<trkpt lat="64.209434509" lon="-21.304037094">
<ele>230.679688</ele>
<time>2012-07-18T16:31:40Z</time>
<speed>7.010000</speed>
<extensions>
<speed>7.0</speed>
<temp>0.00</temp>
<bpm>0</bpm>
<rpm>0.00</rpm>
</extensions>
</trkpt>
<trkpt lat="64.209365845" lon="-21.303319931">
<ele>231.117188</ele>
<time>2012-07-18T16:31:45Z</time>
<speed>7.020000</speed>
<extensions>
<speed>7.0</speed>
<temp>0.00</temp>
<bpm>0</bpm>
<rpm>0.00</rpm>
</extensions>
</trkpt>
<trkpt lat="64.209297180" lon="-21.302591324">
<ele>231.597656</ele>
<time>2012-07-18T16:31:50Z</time>
<speed>7.090000</speed>
<extensions>
<speed>7.1</speed>
<temp>0.00</temp>
<bpm>0</bpm>
<rpm>0.00</rpm>
</extensions>
</trkpt>
<trkpt lat="64.209236145" lon="-21.301948547">
<ele>231.445313</ele>
<time>2012-07-18T16:31:55Z</time>
<speed>6.050000</speed>
<extensions>
<speed>6.1</speed>
<temp>0.00</temp>
<bpm>0</bpm>
<rpm>0.00</rpm>
</extensions>
</trkpt>
<trkpt lat="64.209182739" lon="-21.301294327">
<ele>231.015625</ele>
<time>2012-07-18T16:32:00Z</time>
<speed>6.630000</speed>
<extensions>
<speed>6.6</speed>
<temp>0.00</temp>
<bpm>0</bpm>
<rpm>0.00</rpm>
</extensions>
</trkpt>
<trkpt lat="64.209152222" lon="-21.300615311">
<ele>231.152344</ele>
<time>2012-07-18T16:32:05Z</time>
<speed>6.800000</speed>
<extensions>
<speed>6.8</speed>
<temp>0.00</temp>
<bpm>0</bpm>
<rpm>0.00</rpm>
</extensions>
</trkpt>
<trkpt lat="64.209136963" lon="-21.299922943">
<ele>232.152344</ele>
<time>2012-07-18T16:32:10Z</time>
<speed>7.040000</speed>
<extensions>
<speed>7.0</speed>
<temp>0.00</temp>
<bpm>0</bpm>
<rpm>0.00</rpm>
</extensions>
</trkpt>
<trkpt lat="64.209144592" lon="-21.299186707">
<ele>232.746094</ele>
<time>2012-07-18T16:32:15Z</time>
<speed>7.180000</speed>
<extensions>
<speed>7.2</speed>
<temp>0.00</temp>
<bpm>0</bpm>
<rpm>0.00</rpm>
</extensions>
</trkpt>
<trkpt lat="64.209144592" lon="-21.298416138">
<ele>231.761719</ele>
<time>2012-07-18T16:32:20Z</time>
<speed>7.810000</speed>
<extensions>
<speed>7.8</speed>
<temp>0.00</temp>
<bpm>0</bpm>
<rpm>0.00</rpm>
</extensions>
</trkpt>
<trkpt lat="64.209159851" lon="-21.297586441">
<ele>231.554688</ele>
<time>2012-07-18T16:32:25Z</time>
<speed>7.830000</speed>
<extensions>
<speed>7.8</speed>
<temp>0.00</temp>
<bpm>0</bpm>
<rpm>0.00</rpm>
</extensions>
</trkpt>
<trkpt lat="64.209182739" lon="-21.296802521">
<ele>230.679688</ele>
<time>2012-07-18T16:32:30Z</time>
<speed>7.500000</speed>
<extensions>
<speed>7.5</speed>
<temp>0.00</temp>
<bpm>0</bpm>
<rpm>0.00</rpm>
</extensions>
</trkpt>
<trkpt lat="64.209213257" lon="-21.296033859">
<ele>230.093750</ele>
<time>2012-07-18T16:32:35Z</time>
<speed>7.340000</speed>
<extensions>
<speed>7.3</speed>
<temp>0.00</temp>
<bpm>0</bpm>
<rpm>0.00</rpm>
</extensions>
</trkpt>
<trkpt lat="64.209251404" lon="-21.295272827">
<ele>230.644531</ele>
<time>2012-07-18T16:32:40Z</time>
<speed>7.190000</speed>
<extensions>
<speed>7.2</speed>
<temp>0.00</temp>
<bpm>0</bpm>
<rpm>0.00</rpm>
</extensions>
</trkpt>
<trkpt lat="64.209281921" lon="-21.294544220">
<ele>230.968750</ele>
<time>2012-07-18T16:32:45Z</time>
<speed>7.230000</speed>
<extensions>
<speed>7.2</speed>
<temp>0.00</temp>
<bpm>0</bpm>
<rpm>0.00</rpm>
</extensions>
</trkpt>
<trkpt lat="64.209304810" lon="-21.293821335">
<ele>231.515625</ele>
<time>2012-07-18T16:32:50Z</time>
<speed>7.100000</speed>
<extensions>
<speed>7.1</speed>
<temp>0.00</temp>
<bpm>0</bpm>
<rpm>0.00</rpm>
</extensions>
</trkpt>
<trkpt lat="64.209335327" lon="-21.293098450">
<ele>231.089844</ele>
<time>2012-07-18T16:32:55Z</time>
<speed>6.930000</speed>
<extensions>
<speed>6.9</speed>
<temp>0.00</temp>
<bpm>0</bpm>
<rpm>0.00</rpm>
</extensions>
</trkpt>
<trkpt lat="64.209350586" lon="-21.292373657">
<ele>228.328125</ele>
<time>2012-07-18T16:33:00Z</time>
<speed>7.520000</speed>
<extensions>
<speed>7.5</speed>
<temp>0.00</temp>
<bpm>0</bpm>
<rpm>0.00</rpm>
</extensions>
</trkpt>
<trkpt lat="64.209381104" lon="-21.291576385">
<ele>225.925781</ele>
<time>2012-07-18T16:33:05Z</time>
<speed>8.020000</speed>
<extensions>
<speed>8.0</speed>
<temp>0.00</temp>
<bpm>0</bpm>
<rpm>0.00</rpm>
</extensions>
</trkpt>
<trkpt lat="64.209403992" lon="-21.290748596">
<ele>222.726563</ele>
<time>2012-07-18T16:33:10Z</time>
<speed>8.300000</speed>
<extensions>
<speed>8.3</speed>
<temp>0.00</temp>
<bpm>0</bpm>
<rpm>0.00</rpm>
</extensions>
</trkpt>
<trkpt lat="64.209434509" lon="-21.289901733">
<ele>221.601563</ele>
<time>2012-07-18T16:33:15Z</time>
<speed>8.130000</speed>
<extensions>
<speed>8.1</speed>
<temp>0.00</temp>
<bpm>0</bpm>
<rpm>0.00</rpm>
</extensions>
</trkpt>
<trkpt lat="64.209472656" lon="-21.289133072">
<ele>225.179688</ele>
<time>2012-07-18T16:33:20Z</time>
<speed>7.000000</speed>
<extensions>
<speed>7.0</speed>
<temp>0.00</temp>
<bpm>0</bpm>
<rpm>0.00</rpm>
</extensions>
</trkpt>
<trkpt lat="64.209518433" lon="-21.288454056">
<ele>228.660156</ele>
<time>2012-07-18T16:33:25Z</time>
<speed>6.240000</speed>
<extensions>
<speed>6.2</speed>
<temp>0.00</temp>
<bpm>0</bpm>
<rpm>0.00</rpm>
</extensions>
</trkpt>
<trkpt lat="64.209548950" lon="-21.287900925">
<ele>226.898438</ele>
<time>2012-07-18T16:33:30Z</time>
<speed>5.260000</speed>
<extensions>
<speed>5.3</speed>
<temp>0.00</temp>
<bpm>0</bpm>
<rpm>0.00</rpm>
</extensions>
</trkpt>
<trkpt lat="64.209602356" lon="-21.287364960">
<ele>225.492188</ele>
<time>2012-07-18T16:33:35Z</time>
<speed>5.160000</speed>
<extensions>
<speed>5.2</speed>
<temp>0.00</temp>
<bpm>0</bpm>
<rpm>0.00</rpm>
</extensions>
</trkpt>
<trkpt lat="64.209655762" lon="-21.286861420">
<ele>225.550781</ele>
<time>2012-07-18T16:33:40Z</time>
<speed>4.710000</speed>
<extensions>
<speed>4.7</speed>
<temp>0.00</temp>
<bpm>0</bpm>
<rpm>0.00</rpm>
</extensions>
</trkpt>
<trkpt lat="64.209709167" lon="-21.286420822">
<ele>224.324219</ele>
<time>2012-07-18T16:33:45Z</time>
<speed>4.290000</speed>
<extensions>
<speed>4.3</speed>
<temp>0.00</temp>
<bpm>0</bpm>
<rpm>0.00</rpm>
</extensions>
</trkpt>
<trkpt lat="64.209754944" lon="-21.286014557">
<ele>223.953125</ele>
<time>2012-07-18T16:33:50Z</time>
<speed>4.240000</speed>
<extensions>
<speed>4.2</speed>
<temp>0.00</temp>
<bpm>0</bpm>
<rpm>0.00</rpm>
</extensions>
</trkpt>
<trkpt lat="64.209823608" lon="-21.285583496">
<ele>223.492188</ele>
<time>2012-07-18T16:33:55Z</time>
<speed>4.880000</speed>
<extensions>
<speed>4.9</speed>
<temp>0.00</temp>
<bpm>0</bpm>
<rpm>0.00</rpm>
</extensions>
</trkpt>
<trkpt lat="64.209892273" lon="-21.285087585">
<ele>223.257813</ele>
<time>2012-07-18T16:34:00Z</time>
<speed>5.550000</speed>
<extensions>
<speed>5.5</speed>
<temp>0.00</temp>
<bpm>0</bpm>
<rpm>0.00</rpm>
</extensions>
</trkpt>
<trkpt lat="64.209968567" lon="-21.284507751">
<ele>221.554688</ele>
<time>2012-07-18T16:34:05Z</time>
<speed>6.160000</speed>
<extensions>
<speed>6.2</speed>
<temp>0.00</temp>
<bpm>0</bpm>
<rpm>0.00</rpm>
</extensions>
</trkpt>
<trkpt lat="64.210060120" lon="-21.283868790">
<ele>221.078125</ele>
<time>2012-07-18T16:34:10Z</time>
<speed>6.470000</speed>
<extensions>
<speed>6.5</speed>
<temp>0.00</temp>
<bpm>0</bpm>
<rpm>0.00</rpm>
</extensions>
</trkpt>
<trkpt lat="64.210113525" lon="-21.283273697">
<ele>221.207031</ele>
<time>2012-07-18T16:34:15Z</time>
<speed>5.630000</speed>
<extensions>
<speed>5.6</speed>
<temp>0.00</temp>
<bpm>0</bpm>
<rpm>0.00</rpm>
</extensions>
</trkpt>
<trkpt lat="64.210166931" lon="-21.282749176">
<ele>222.386719</ele>
<time>2012-07-18T16:34:20Z</time>
<speed>5.000000</speed>
<extensions>
<speed>5.0</speed>
<temp>0.00</temp>
<bpm>0</bpm>
<rpm>0.00</rpm>
</extensions>
</trkpt>
<trkpt lat="64.210189819" lon="-21.282161713">
<ele>221.812500</ele>
<time>2012-07-18T16:34:25Z</time>
<speed>5.730000</speed>
<extensions>
<speed>5.7</speed>
<temp>0.00</temp>
<bpm>0</bpm>
<rpm>0.00</rpm>
</extensions>
</trkpt>
<trkpt lat="64.210205078" lon="-21.281610489">
<ele>221.148438</ele>
<time>2012-07-18T16:34:30Z</time>
<speed>5.340000</speed>
<extensions>
<speed>5.3</speed>
<temp>0.00</temp>
<bpm>0</bpm>
<rpm>0.00</rpm>
</extensions>
</trkpt>
<trkpt lat="64.210182190" lon="-21.281028748">
<ele>220.214844</ele>
<time>2012-07-18T16:34:35Z</time>
<speed>5.880000</speed>
<extensions>
<speed>5.9</speed>
<temp>0.00</temp>
<bpm>0</bpm>
<rpm>0.00</rpm>
</extensions>
</trkpt>
<trkpt lat="64.210151672" lon="-21.280408859">
<ele>221.117188</ele>
<time>2012-07-18T16:34:40Z</time>
<speed>6.210000</speed>
<extensions>
<speed>6.2</speed>
<temp>0.00</temp>
<bpm>0</bpm>
<rpm>0.00</rpm>
</extensions>
</trkpt>
<trkpt lat="64.210098267" lon="-21.279775620">
<ele>219.867188</ele>
<time>2012-07-18T16:34:45Z</time>
<speed>6.340000</speed>
<extensions>
<speed>6.3</speed>
<temp>0.00</temp>
<bpm>0</bpm>
<rpm>0.00</rpm>
</extensions>
</trkpt>
<trkpt lat="64.210014343" lon="-21.279142380">
<ele>219.195313</ele>
<time>2012-07-18T16:34:50Z</time>
<speed>6.530000</speed>
<extensions>
<speed>6.5</speed>
<temp>0.00</temp>
<bpm>0</bpm>
<rpm>0.00</rpm>
</extensions>
</trkpt>
<trkpt lat="64.209922791" lon="-21.278493881">
<ele>218.226563</ele>
<time>2012-07-18T16:34:55Z</time>
<speed>6.470000</speed>
<extensions>
<speed>6.5</speed>
<temp>0.00</temp>
<bpm>0</bpm>
<rpm>0.00</rpm>
</extensions>
</trkpt>
<trkpt lat="64.209831238" lon="-21.277851105">
<ele>218.167969</ele>
<time>2012-07-18T16:35:00Z</time>
<speed>6.500000</speed>
<extensions>
<speed>6.5</speed>
<temp>0.00</temp>
<bpm>0</bpm>
<rpm>0.00</rpm>
</extensions>
</trkpt>
<trkpt lat="64.209739685" lon="-21.277200699">
<ele>217.152344</ele>
<time>2012-07-18T16:35:05Z</time>
<speed>6.470000</speed>
<extensions>
<speed>6.5</speed>
<temp>0.00</temp>
<bpm>0</bpm>
<rpm>0.00</rpm>
</extensions>
</trkpt>
<trkpt lat="64.209648132" lon="-21.276559830">
<ele>217.585938</ele>
<time>2012-07-18T16:35:10Z</time>
<speed>6.600000</speed>
<extensions>
<speed>6.6</speed>
<temp>0.00</temp>
<bpm>0</bpm>
<rpm>0.00</rpm>
</extensions>
</trkpt>
<trkpt lat="64.209571838" lon="-21.275917053">
<ele>218.039063</ele>
<time>2012-07-18T16:35:15Z</time>
<speed>6.670000</speed>
<extensions>
<speed>6.7</speed>
<temp>0.00</temp>
<bpm>0</bpm>
<rpm>0.00</rpm>
</extensions>
</trkpt>
<trkpt lat="64.209518433" lon="-21.275259018">
<ele>219.238281</ele>
<time>2012-07-18T16:35:20Z</time>
<speed>6.620000</speed>
<extensions>
<speed>6.6</speed>
<temp>0.00</temp>
<bpm>0</bpm>
<rpm>0.00</rpm>
</extensions>
</trkpt>
<trkpt lat="64.209472656" lon="-21.274564743">
<ele>220.488281</ele>
<time>2012-07-18T16:35:25Z</time>
<speed>6.860000</speed>
<extensions>
<speed>6.9</speed>
<temp>0.00</temp>
<bpm>0</bpm>
<rpm>0.00</rpm>
</extensions>
</trkpt>
<trkpt lat="64.209434509" lon="-21.273849487">
<ele>221.328125</ele>
<time>2012-07-18T16:35:30Z</time>
<speed>7.160000</speed>
<extensions>
<speed>7.2</speed>
<temp>0.00</temp>
<bpm>0</bpm>
<rpm>0.00</rpm>
</extensions>
</trkpt>
<trkpt lat="64.209426880" lon="-21.273103714">
<ele>221.976563</ele>
<time>2012-07-18T16:35:35Z</time>
<speed>7.670000</speed>
<extensions>
<speed>7.7</speed>
<temp>0.00</temp>
<bpm>0</bpm>
<rpm>0.00</rpm>
</extensions>
</trkpt>
<trkpt lat="64.209434509" lon="-21.272296906">
<ele>220.027344</ele>
<time>2012-07-18T16:35:40Z</time>
<speed>7.840000</speed>
<extensions>
<speed>7.8</speed>
<temp>0.00</temp>
<bpm>0</bpm>
<rpm>0.00</rpm>
</extensions>
</trkpt>
<trkpt lat="64.209472656" lon="-21.271471024">
<ele>220.406250</ele>
<time>2012-07-18T16:35:45Z</time>
<speed>8.220000</speed>
<extensions>
<speed>8.2</speed>
<temp>0.00</temp>
<bpm>0</bpm>
<rpm>0.00</rpm>
</extensions>
</trkpt>
<trkpt lat="64.209533691" lon="-21.270603180">
<ele>219.437500</ele>
<time>2012-07-18T16:35:50Z</time>
<speed>8.840000</speed>
<extensions>
<speed>8.8</speed>
<temp>0.00</temp>
<bpm>0</bpm>
<rpm>0.00</rpm>
</extensions>
</trkpt>
<trkpt lat="64.209625244" lon="-21.269676208">
<ele>218.414063</ele>
<time>2012-07-18T16:35:55Z</time>
<speed>9.220000</speed>
<extensions>
<speed>9.2</speed>
<temp>0.00</temp>
<bpm>0</bpm>
<rpm>0.00</rpm>
</extensions>
</trkpt>
<trkpt lat="64.209747314" lon="-21.268754959">
<ele>214.003906</ele>
<time>2012-07-18T16:36:00Z</time>
<speed>9.230000</speed>
<extensions>
<speed>9.2</speed>
<temp>0.00</temp>
<bpm>0</bpm>
<rpm>0.00</rpm>
</extensions>
</trkpt>
<trkpt lat="64.209892273" lon="-21.267877579">
<ele>212.007813</ele>
<time>2012-07-18T16:36:05Z</time>
<speed>8.890000</speed>
<extensions>
<speed>8.9</speed>
<temp>0.00</temp>
<bpm>0</bpm>
<rpm>0.00</rpm>
</extensions>
</trkpt>
<trkpt lat="64.210037231" lon="-21.267049789">
<ele>211.457031</ele>
<time>2012-07-18T16:36:10Z</time>
<speed>8.170000</speed>
<extensions>
<speed>8.2</speed>
<temp>0.00</temp>
<bpm>0</bpm>
<rpm>0.00</rpm>
</extensions>
</trkpt>
<trkpt lat="64.210166931" lon="-21.266294479">
<ele>211.019531</ele>
<time>2012-07-18T16:36:15Z</time>
<speed>7.570000</speed>
<extensions>
<speed>7.6</speed>
<temp>0.00</temp>
<bpm>0</bpm>
<rpm>0.00</rpm>
</extensions>
</trkpt>
<trkpt lat="64.210281372" lon="-21.265581131">
<ele>211.402344</ele>
<time>2012-07-18T16:36:20Z</time>
<speed>7.430000</speed>
<extensions>
<speed>7.4</speed>
<temp>0.00</temp>
<bpm>0</bpm>
<rpm>0.00</rpm>
</extensions>
</trkpt>
<trkpt lat="64.210411072" lon="-21.264888763">
<ele>212.335938</ele>
<time>2012-07-18T16:36:25Z</time>
<speed>7.230000</speed>
<extensions>
<speed>7.2</speed>
<temp>0.00</temp>
<bpm>0</bpm>
<rpm>0.00</rpm>
</extensions>
</trkpt>
<trkpt lat="64.210525513" lon="-21.264213562">
<ele>214.265625</ele>
<time>2012-07-18T16:36:30Z</time>
<speed>7.210000</speed>
<extensions>
<speed>7.2</speed>
<temp>0.00</temp>
<bpm>0</bpm>
<rpm>0.00</rpm>
</extensions>
</trkpt>
<trkpt lat="64.210647583" lon="-21.263534546">
<ele>214.902344</ele>
<time>2012-07-18T16:36:35Z</time>
<speed>7.120000</speed>
<extensions>
<speed>7.1</speed>
<temp>0.00</temp>
<bpm>0</bpm>
<rpm>0.00</rpm>
</extensions>
</trkpt>
<trkpt lat="64.210769653" lon="-21.262844086">
<ele>215.902344</ele>
<time>2012-07-18T16:36:40Z</time>
<speed>7.290000</speed>
<extensions>
<speed>7.3</speed>
<temp>0.00</temp>
<bpm>0</bpm>
<rpm>0.00</rpm>
</extensions>
</trkpt>
<trkpt lat="64.210876465" lon="-21.262207031">
<ele>214.765625</ele>
<time>2012-07-18T16:36:45Z</time>
<speed>6.310000</speed>
<extensions>
<speed>6.3</speed>
<temp>0.00</temp>
<bpm>0</bpm>
<rpm>0.00</rpm>
</extensions>
</trkpt>
<trkpt lat="64.210998535" lon="-21.261625290">
<ele>213.933594</ele>
<time>2012-07-18T16:36:50Z</time>
<speed>6.160000</speed>
<extensions>
<speed>6.2</speed>
<temp>0.00</temp>
<bpm>0</bpm>
<rpm>0.00</rpm>
</extensions>
</trkpt>
<trkpt lat="64.211105347" lon="-21.261047363">
<ele>212.109375</ele>
<time>2012-07-18T16:36:55Z</time>
<speed>6.110000</speed>
<extensions>
<speed>6.1</speed>
<temp>0.00</temp>
<bpm>0</bpm>
<rpm>0.00</rpm>
</extensions>
</trkpt>
<trkpt lat="64.211044312" lon="-21.260475159">
<ele>210.371094</ele>
<time>2012-07-18T16:37:00Z</time>
<speed>4.750000</speed>
<extensions>
<speed>4.8</speed>
<temp>0.00</temp>
<bpm>0</bpm>
<rpm>0.00</rpm>
</extensions>
</trkpt>
<trkpt lat="64.211051941" lon="-21.260263443">
<ele>210.453125</ele>
<time>2012-07-18T16:37:05Z</time>
<speed>0.310000</speed>
<extensions>
<speed>0.3</speed>
<temp>0.00</temp>
<bpm>0</bpm>
<rpm>0.00</rpm>
</extensions>
</trkpt>
<trkpt lat="64.211051941" lon="-21.260276794">
<ele>211.066406</ele>
<time>2012-07-18T16:37:10Z</time>
<speed>0.230000</speed>
<extensions>
<speed>0.2</speed>
<temp>0.00</temp>
<bpm>0</bpm>
<rpm>0.00</rpm>
</extensions>
</trkpt>
<trkpt lat="64.211044312" lon="-21.260284424">
<ele>211.132813</ele>
<time>2012-07-18T16:37:15Z</time>
<speed>0.220000</speed>
<extensions>
<speed>0.2</speed>
<temp>0.00</temp>
<bpm>0</bpm>
<rpm>0.00</rpm>
</extensions>
</trkpt>
<trkpt lat="64.211051941" lon="-21.260263443">
<ele>211.117188</ele>
<time>2012-07-18T16:37:20Z</time>
<speed>0.760000</speed>
<extensions>
<speed>0.8</speed>
<temp>0.00</temp>
<bpm>0</bpm>
<rpm>0.00</rpm>
</extensions>
</trkpt>
<trkpt lat="64.211059570" lon="-21.260194778">
<ele>211.132813</ele>
<time>2012-07-18T16:37:25Z</time>
<speed>0.210000</speed>
<extensions>
<speed>0.2</speed>
<temp>0.00</temp>
<bpm>0</bpm>
<rpm>0.00</rpm>
</extensions>
</trkpt>
<trkpt lat="64.211059570" lon="-21.260190964">
<ele>211.289063</ele>
<time>2012-07-18T16:37:30Z</time>
<speed>0.860000</speed>
<extensions>
<speed>0.9</speed>
<temp>0.00</temp>
<bpm>0</bpm>
<rpm>0.00</rpm>
</extensions>
</trkpt>
<trkpt lat="64.211082458" lon="-21.260118484">
<ele>211.089844</ele>
<time>2012-07-18T16:37:35Z</time>
<speed>0.780000</speed>
<extensions>
<speed>0.8</speed>
<temp>0.00</temp>
<bpm>0</bpm>
<rpm>0.00</rpm>
</extensions>
</trkpt>
<trkpt lat="64.211082458" lon="-21.260065079">
<ele>209.546875</ele>
<time>2012-07-18T16:37:40Z</time>
<speed>0.470000</speed>
<extensions>
<speed>0.5</speed>
<temp>0.00</temp>
<bpm>0</bpm>
<rpm>0.00</rpm>
</extensions>
</trkpt>
<trkpt lat="64.211067200" lon="-21.260122299">
<ele>207.847656</ele>
<time>2012-07-18T16:37:45Z</time>
<speed>0.700000</speed>
<extensions>
<speed>0.7</speed>
<temp>0.00</temp>
<bpm>0</bpm>
<rpm>0.00</rpm>
</extensions>
</trkpt>
<trkpt lat="64.211074829" lon="-21.260204315">
<ele>207.867188</ele>
<time>2012-07-18T16:37:50Z</time>
<speed>0.920000</speed>
<extensions>
<speed>0.9</speed>
<temp>0.00</temp>
<bpm>0</bpm>
<rpm>0.00</rpm>
</extensions>
</trkpt>
<trkpt lat="64.211067200" lon="-21.260290146">
<ele>206.769531</ele>
<time>2012-07-18T16:37:55Z</time>
<speed>0.640000</speed>
<extensions>
<speed>0.6</speed>
<temp>0.00</temp>
<bpm>0</bpm>
<rpm>0.00</rpm>
</extensions>
</trkpt>
<trkpt lat="64.211059570" lon="-21.260282516">
<ele>206.585938</ele>
<time>2012-07-18T16:38:00Z</time>
<speed>0.130000</speed>
<extensions>
<speed>0.1</speed>
<temp>0.00</temp>
<bpm>0</bpm>
<rpm>0.00</rpm>
</extensions>
</trkpt>
<trkpt lat="64.211051941" lon="-21.260261536">
<ele>206.480469</ele>
<time>2012-07-18T16:38:05Z</time>
<speed>0.680000</speed>
<extensions>
<speed>0.7</speed>
<temp>0.00</temp>
<bpm>0</bpm>
<rpm>0.00</rpm>
</extensions>
</trkpt>
<trkpt lat="64.211036682" lon="-21.260208130">
<ele>205.988281</ele>
<time>2012-07-18T16:38:10Z</time>
<speed>1.320000</speed>
<extensions>
<speed>1.3</speed>
<temp>0.00</temp>
<bpm>0</bpm>
<rpm>0.00</rpm>
</extensions>
</trkpt>
<trkpt lat="64.210998535" lon="-21.260118484">
<ele>205.050781</ele>
<time>2012-07-18T16:38:15Z</time>
<speed>0.330000</speed>
<extensions>
<speed>0.3</speed>
<temp>0.00</temp>
<bpm>0</bpm>
<rpm>0.00</rpm>
</extensions>
</trkpt>
<trkpt lat="64.210990906" lon="-21.260110855">
<ele>204.738281</ele>
<time>2012-07-18T16:38:20Z</time>
<speed>0.660000</speed>
<extensions>
<speed>0.7</speed>
<temp>0.00</temp>
<bpm>0</bpm>
<rpm>0.00</rpm>
</extensions>
</trkpt>
<trkpt lat="64.210952759" lon="-21.260059357">
<ele>204.238281</ele>
<time>2012-07-18T16:38:25Z</time>
<speed>0.770000</speed>
<extensions>
<speed>0.8</speed>
<temp>0.00</temp>
<bpm>0</bpm>
<rpm>0.00</rpm>
</extensions>
</trkpt>
<trkpt lat="64.210914612" lon="-21.260025024">
<ele>203.113281</ele>
<time>2012-07-18T16:38:30Z</time>
<speed>0.920000</speed>
<extensions>
<speed>0.9</speed>
<temp>0.00</temp>
<bpm>0</bpm>
<rpm>0.00</rpm>
</extensions>
</trkpt>
<trkpt lat="64.210868835" lon="-21.260036469">
<ele>202.953125</ele>
<time>2012-07-18T16:38:35Z</time>
<speed>0.780000</speed>
<extensions>
<speed>0.8</speed>
<temp>0.00</temp>
<bpm>0</bpm>
<rpm>0.00</rpm>
</extensions>
</trkpt>
<trkpt lat="64.210868835" lon="-21.260021210">
<ele>202.757813</ele>
<time>2012-07-18T16:38:40Z</time>
<speed>0.120000</speed>
<extensions>
<speed>0.1</speed>
<temp>0.00</temp>
<bpm>0</bpm>
<rpm>0.00</rpm>
</extensions>
</trkpt>
<trkpt lat="64.210861206" lon="-21.260019302">
<ele>202.769531</ele>
<time>2012-07-18T16:38:45Z</time>
<speed>0.990000</speed>
<extensions>
<speed>1.0</speed>
<temp>0.00</temp>
<bpm>0</bpm>
<rpm>0.00</rpm>
</extensions>
</trkpt>
<trkpt lat="64.210823059" lon="-21.260032654">
<ele>201.296875</ele>
<time>2012-07-18T16:38:50Z</time>
<speed>1.190000</speed>
<extensions>
<speed>1.2</speed>
<temp>0.00</temp>
<bpm>0</bpm>
<rpm>0.00</rpm>
</extensions>
</trkpt>
<trkpt lat="64.210815430" lon="-21.260061264">
<ele>200.515625</ele>
<time>2012-07-18T16:38:55Z</time>
<speed>0.060000</speed>
<extensions>
<speed>0.1</speed>
<temp>0.00</temp>
<bpm>0</bpm>
<rpm>0.00</rpm>
</extensions>
</trkpt>
<trkpt lat="64.210823059" lon="-21.260051727">
<ele>200.597656</ele>
<time>2012-07-18T16:39:00Z</time>
<speed>0.060000</speed>
<extensions>
<speed>0.1</speed>
<temp>0.00</temp>
<bpm>0</bpm>
<rpm>0.00</rpm>
</extensions>
</trkpt>
<trkpt lat="64.210815430" lon="-21.260059357">
<ele>200.632813</ele>
<time>2012-07-18T16:39:05Z</time>
<speed>0.280000</speed>
<extensions>
<speed>0.3</speed>
<temp>0.00</temp>
<bpm>0</bpm>
<rpm>0.00</rpm>
</extensions>
</trkpt>
<trkpt lat="64.210815430" lon="-21.260047913">
<ele>201.167969</ele>
<time>2012-07-18T16:39:10Z</time>
<speed>0.200000</speed>
<extensions>
<speed>0.2</speed>
<temp>0.00</temp>
<bpm>0</bpm>
<rpm>0.00</rpm>
</extensions>
</trkpt>
<trkpt lat="64.210815430" lon="-21.260046005">
<ele>201.128906</ele>
<time>2012-07-18T16:39:15Z</time>
<speed>0.070000</speed>
<extensions>
<speed>0.1</speed>
<temp>0.00</temp>
<bpm>0</bpm>
<rpm>0.00</rpm>
</extensions>
</trkpt>
<trkpt lat="64.210815430" lon="-21.260044098">
<ele>201.148438</ele>
<time>2012-07-18T16:39:20Z</time>
<extensions>
<speed>0.0</speed>
<temp>0.00</temp>
<bpm>0</bpm>
<rpm>0.00</rpm>
</extensions>
</trkpt>
<trkpt lat="64.210815430" lon="-21.260044098">
<ele>201.144531</ele>
<time>2012-07-18T16:39:25Z</time>
<extensions>
<speed>0.0</speed>
<temp>0.00</temp>
<bpm>0</bpm>
<rpm>0.00</rpm>
</extensions>
</trkpt>
<trkpt lat="64.210815430" lon="-21.260044098">
<ele>201.144531</ele>
<time>2012-07-18T16:39:30Z</time>
<speed>0.010000</speed>
<extensions>
<speed>0.0</speed>
<temp>0.00</temp>
<bpm>0</bpm>
<rpm>0.00</rpm>
</extensions>
</trkpt>
<trkpt lat="64.210815430" lon="-21.260044098">
<ele>201.144531</ele>
<time>2012-07-18T16:39:35Z</time>
<speed>0.010000</speed>
<extensions>
<speed>0.0</speed>
<temp>0.00</temp>
<bpm>0</bpm>
<rpm>0.00</rpm>
</extensions>
</trkpt>
<trkpt lat="64.210815430" lon="-21.260044098">
<ele>201.144531</ele>
<time>2012-07-18T16:39:40Z</time>
<speed>0.050000</speed>
<extensions>
<speed>0.1</speed>
<temp>0.00</temp>
<bpm>0</bpm>
<rpm>0.00</rpm>
</extensions>
</trkpt>
<trkpt lat="64.210823059" lon="-21.260025024">
<ele>200.945313</ele>
<time>2012-07-18T16:39:45Z</time>
<speed>0.370000</speed>
<extensions>
<speed>0.4</speed>
<temp>0.00</temp>
<bpm>0</bpm>
<rpm>0.00</rpm>
</extensions>
</trkpt>
<trkpt lat="64.210853577" lon="-21.259988785">
<ele>200.664063</ele>
<time>2012-07-18T16:39:50Z</time>
<speed>0.730000</speed>
<extensions>
<speed>0.7</speed>
<temp>0.00</temp>
<bpm>0</bpm>
<rpm>0.00</rpm>
</extensions>
</trkpt>
<trkpt lat="64.210876465" lon="-21.259933472">
<ele>200.800781</ele>
<time>2012-07-18T16:39:55Z</time>
<speed>0.370000</speed>
<extensions>
<speed>0.4</speed>
<temp>0.00</temp>
<bpm>0</bpm>
<rpm>0.00</rpm>
</extensions>
</trkpt>
<trkpt lat="64.210884094" lon="-21.259923935">
<ele>200.507813</ele>
<time>2012-07-18T16:40:00Z</time>
<speed>0.880000</speed>
<extensions>
<speed>0.9</speed>
<temp>0.00</temp>
<bpm>0</bpm>
<rpm>0.00</rpm>
</extensions>
</trkpt>
<trkpt lat="64.210922241" lon="-21.260015488">
<ele>201.742188</ele>
<time>2012-07-18T16:40:05Z</time>
<speed>1.030000</speed>
<extensions>
<speed>1.0</speed>
<temp>0.00</temp>
<bpm>0</bpm>
<rpm>0.00</rpm>
</extensions>
</trkpt>
<trkpt lat="64.210975647" lon="-21.260108948">
<ele>203.117188</ele>
<time>2012-07-18T16:40:10Z</time>
<speed>1.190000</speed>
<extensions>
<speed>1.2</speed>
<temp>0.00</temp>
<bpm>0</bpm>
<rpm>0.00</rpm>
</extensions>
</trkpt>
<trkpt lat="64.211021423" lon="-21.260210037">
<ele>204.898438</ele>
<time>2012-07-18T16:40:15Z</time>
<speed>1.070000</speed>
<extensions>
<speed>1.1</speed>
<temp>0.00</temp>
<bpm>0</bpm>
<rpm>0.00</rpm>
</extensions>
</trkpt>
<trkpt lat="64.211029053" lon="-21.260271072">
<ele>204.703125</ele>
<time>2012-07-18T16:40:20Z</time>
<speed>0.040000</speed>
<extensions>
<speed>0.0</speed>
<temp>0.00</temp>
<bpm>0</bpm>
<rpm>0.00</rpm>
</extensions>
</trkpt>
<trkpt lat="64.211036682" lon="-21.260297775">
<ele>204.007813</ele>
<time>2012-07-18T16:40:25Z</time>
<speed>0.310000</speed>
<extensions>
<speed>0.3</speed>
<temp>0.00</temp>
<bpm>0</bpm>
<rpm>0.00</rpm>
</extensions>
</trkpt>
<trkpt lat="64.211029053" lon="-21.260307312">
<ele>203.753906</ele>
<time>2012-07-18T16:40:30Z</time>
<extensions>
<speed>0.0</speed>
<temp>0.00</temp>
<bpm>0</bpm>
<rpm>0.00</rpm>
</extensions>
</trkpt>
<trkpt lat="64.211029053" lon="-21.260309219">
<ele>203.730469</ele>
<time>2012-07-18T16:40:35Z</time>
<speed>0.450000</speed>
<extensions>
<speed>0.5</speed>
<temp>0.00</temp>
<bpm>0</bpm>
<rpm>0.00</rpm>
</extensions>
</trkpt>
<trkpt lat="64.211044312" lon="-21.260307312">
<ele>202.488281</ele>
<time>2012-07-18T16:40:40Z</time>
<speed>0.310000</speed>
<extensions>
<speed>0.3</speed>
<temp>0.00</temp>
<bpm>0</bpm>
<rpm>0.00</rpm>
</extensions>
</trkpt>
<trkpt lat="64.211051941" lon="-21.260278702">
<ele>201.269531</ele>
<time>2012-07-18T16:40:45Z</time>
<speed>0.260000</speed>
<extensions>
<speed>0.3</speed>
<temp>0.00</temp>
<bpm>0</bpm>
<rpm>0.00</rpm>
</extensions>
</trkpt>
<trkpt lat="64.211051941" lon="-21.260305405">
<ele>200.375000</ele>
<time>2012-07-18T16:40:50Z</time>
<speed>0.240000</speed>
<extensions>
<speed>0.2</speed>
<temp>0.00</temp>
<bpm>0</bpm>
<rpm>0.00</rpm>
</extensions>
</trkpt>
<trkpt lat="64.211051941" lon="-21.260330200">
<ele>200.312500</ele>
<time>2012-07-18T16:40:55Z</time>
<speed>0.220000</speed>
<extensions>
<speed>0.2</speed>
<temp>0.00</temp>
<bpm>0</bpm>
<rpm>0.00</rpm>
</extensions>
</trkpt>
<trkpt lat="64.211051941" lon="-21.260322571">
<ele>200.089844</ele>
<time>2012-07-18T16:41:00Z</time>
<speed>0.110000</speed>
<extensions>
<speed>0.1</speed>
<temp>0.00</temp>
<bpm>0</bpm>
<rpm>0.00</rpm>
</extensions>
</trkpt>
<trkpt lat="64.211051941" lon="-21.260322571">
<ele>199.972656</ele>
<time>2012-07-18T16:41:05Z</time>
<speed>0.010000</speed>
<extensions>
<speed>0.0</speed>
<temp>0.00</temp>
<bpm>0</bpm>
<rpm>0.00</rpm>
</extensions>
</trkpt>
<trkpt lat="64.211044312" lon="-21.260320663">
<ele>199.875000</ele>
<time>2012-07-18T16:41:10Z</time>
<speed>0.010000</speed>
<extensions>
<speed>0.0</speed>
<temp>0.00</temp>
<bpm>0</bpm>
<rpm>0.00</rpm>
</extensions>
</trkpt>
<trkpt lat="64.211051941" lon="-21.260320663">
<ele>199.835938</ele>
<time>2012-07-18T16:41:15Z</time>
<extensions>
<speed>0.0</speed>
<temp>0.00</temp>
<bpm>0</bpm>
<rpm>0.00</rpm>
</extensions>
</trkpt>
<trkpt lat="64.211051941" lon="-21.260320663">
<ele>199.847656</ele>
<time>2012-07-18T16:41:20Z</time>
<extensions>
<speed>0.0</speed>
<temp>0.00</temp>
<bpm>0</bpm>
<rpm>0.00</rpm>
</extensions>
</trkpt>
<trkpt lat="64.211051941" lon="-21.260318756">
<ele>199.859375</ele>
<time>2012-07-18T16:41:25Z</time>
<speed>0.010000</speed>
<extensions>
<speed>0.0</speed>
<temp>0.00</temp>
<bpm>0</bpm>
<rpm>0.00</rpm>
</extensions>
</trkpt>
<trkpt lat="64.211051941" lon="-21.260318756">
<ele>199.867188</ele>
<time>2012-07-18T16:41:30Z</time>
<speed>0.020000</speed>
<extensions>
<speed>0.0</speed>
<temp>0.00</temp>
<bpm>0</bpm>
<rpm>0.00</rpm>
</extensions>
</trkpt>
<trkpt lat="64.211051941" lon="-21.260318756">
<ele>199.878906</ele>
<time>2012-07-18T16:41:35Z</time>
<speed>0.020000</speed>
<extensions>
<speed>0.0</speed>
<temp>0.00</temp>
<bpm>0</bpm>
<rpm>0.00</rpm>
</extensions>
</trkpt>
<trkpt lat="64.211044312" lon="-21.260320663">
<ele>199.898438</ele>
<time>2012-07-18T16:41:40Z</time>
<speed>0.040000</speed>
<extensions>
<speed>0.0</speed>
<temp>0.00</temp>
<bpm>0</bpm>
<rpm>0.00</rpm>
</extensions>
</trkpt>
<trkpt lat="64.211044312" lon="-21.260320663">
<ele>199.910156</ele>
<time>2012-07-18T16:41:45Z</time>
<speed>0.030000</speed>
<extensions>
<speed>0.0</speed>
<temp>0.00</temp>
<bpm>0</bpm>
<rpm>0.00</rpm>
</extensions>
</trkpt>
<trkpt lat="64.211044312" lon="-21.260320663">
<ele>199.925781</ele>
<time>2012-07-18T16:41:50Z</time>
<speed>0.070000</speed>
<extensions>
<speed>0.1</speed>
<temp>0.00</temp>
<bpm>0</bpm>
<rpm>0.00</rpm>
</extensions>
</trkpt>
<trkpt lat="64.211044312" lon="-21.260320663">
<ele>199.941406</ele>
<time>2012-07-18T16:41:55Z</time>
<speed>0.010000</speed>
<extensions>
<speed>0.0</speed>
<temp>0.00</temp>
<bpm>0</bpm>
<rpm>0.00</rpm>
</extensions>
</trkpt>
<trkpt lat="64.211044312" lon="-21.260316849">
<ele>199.968750</ele>
<time>2012-07-18T16:42:00Z</time>
<speed>0.310000</speed>
<extensions>
<speed>0.3</speed>
<temp>0.00</temp>
<bpm>0</bpm>
<rpm>0.00</rpm>
</extensions>
</trkpt>
<trkpt lat="64.211051941" lon="-21.260295868">
<ele>201.050781</ele>
<time>2012-07-18T16:42:05Z</time>
<speed>0.500000</speed>
<extensions>
<speed>0.5</speed>
<temp>0.00</temp>
<bpm>0</bpm>
<rpm>0.00</rpm>
</extensions>
</trkpt>
<trkpt lat="64.211036682" lon="-21.260240555">
<ele>201.140625</ele>
<time>2012-07-18T16:42:10Z</time>
<speed>0.450000</speed>
<extensions>
<speed>0.5</speed>
<temp>0.00</temp>
<bpm>0</bpm>
<rpm>0.00</rpm>
</extensions>
</trkpt>
<trkpt lat="64.211013794" lon="-21.260200500">
<ele>201.152344</ele>
<time>2012-07-18T16:42:15Z</time>
<speed>0.680000</speed>
<extensions>
<speed>0.7</speed>
<temp>0.00</temp>
<bpm>0</bpm>
<rpm>0.00</rpm>
</extensions>
</trkpt>
<trkpt lat="64.210975647" lon="-21.260149002">
<ele>201.246094</ele>
<time>2012-07-18T16:42:20Z</time>
<speed>0.820000</speed>
<extensions>
<speed>0.8</speed>
<temp>0.00</temp>
<bpm>0</bpm>
<rpm>0.00</rpm>
</extensions>
</trkpt>
<trkpt lat="64.210929871" lon="-21.260078430">
<ele>201.179688</ele>
<time>2012-07-18T16:42:25Z</time>
<speed>0.910000</speed>
<extensions>
<speed>0.9</speed>
<temp>0.00</temp>
<bpm>0</bpm>
<rpm>0.00</rpm>
</extensions>
</trkpt>
<trkpt lat="64.210884094" lon="-21.260015488">
<ele>200.718750</ele>
<time>2012-07-18T16:42:30Z</time>
<speed>0.890000</speed>
<extensions>
<speed>0.9</speed>
<temp>0.00</temp>
<bpm>0</bpm>
<rpm>0.00</rpm>
</extensions>
</trkpt>
<trkpt lat="64.210868835" lon="-21.259992599">
<ele>200.531250</ele>
<time>2012-07-18T16:42:35Z</time>
<speed>0.030000</speed>
<extensions>
<speed>0.0</speed>
<temp>0.00</temp>
<bpm>0</bpm>
<rpm>0.00</rpm>
</extensions>
</trkpt>
<trkpt lat="64.210868835" lon="-21.260004044">
<ele>200.992188</ele>
<time>2012-07-18T16:42:40Z</time>
<speed>0.050000</speed>
<extensions>
<speed>0.1</speed>
<temp>0.00</temp>
<bpm>0</bpm>
<rpm>0.00</rpm>
</extensions>
</trkpt>
<trkpt lat="64.210868835" lon="-21.260007858">
<ele>201.035156</ele>
<time>2012-07-18T16:42:45Z</time>
<extensions>
<speed>0.0</speed>
<temp>0.00</temp>
<bpm>0</bpm>
<rpm>0.00</rpm>
</extensions>
</trkpt>
<trkpt lat="64.210868835" lon="-21.260007858">
<ele>201.117188</ele>
<time>2012-07-18T16:42:50Z</time>
<speed>0.020000</speed>
<extensions>
<speed>0.0</speed>
<temp>0.00</temp>
<bpm>0</bpm>
<rpm>0.00</rpm>
</extensions>
</trkpt>
<trkpt lat="64.210868835" lon="-21.260007858">
<ele>201.117188</ele>
<time>2012-07-18T16:42:55Z</time>
<extensions>
<speed>0.0</speed>
<temp>0.00</temp>
<bpm>0</bpm>
<rpm>0.00</rpm>
</extensions>
</trkpt>
<trkpt lat="64.210868835" lon="-21.260007858">
<ele>201.113281</ele>
<time>2012-07-18T16:43:00Z</time>
<speed>0.010000</speed>
<extensions>
<speed>0.0</speed>
<temp>0.00</temp>
<bpm>0</bpm>
<rpm>0.00</rpm>
</extensions>
</trkpt>
<trkpt lat="64.210868835" lon="-21.260007858">
<ele>201.109375</ele>
<time>2012-07-18T16:43:05Z</time>
<speed>0.010000</speed>
<extensions>
<speed>0.0</speed>
<temp>0.00</temp>
<bpm>0</bpm>
<rpm>0.00</rpm>
</extensions>
</trkpt>
<trkpt lat="64.210868835" lon="-21.260009766">
<ele>201.089844</ele>
<time>2012-07-18T16:43:10Z</time>
<speed>0.010000</speed>
<extensions>
<speed>0.0</speed>
<temp>0.00</temp>
<bpm>0</bpm>
<rpm>0.00</rpm>
</extensions>
</trkpt>
<trkpt lat="64.210868835" lon="-21.260009766">
<ele>201.089844</ele>
<time>2012-07-18T16:43:15Z</time>
<extensions>
<speed>0.0</speed>
<temp>0.00</temp>
<bpm>0</bpm>
<rpm>0.00</rpm>
</extensions>
</trkpt>
<trkpt lat="64.210868835" lon="-21.260009766">
<ele>201.089844</ele>
<time>2012-07-18T16:43:20Z</time>
<speed>0.010000</speed>
<extensions>
<speed>0.0</speed>
<temp>0.00</temp>
<bpm>0</bpm>
<rpm>0.00</rpm>
</extensions>
</trkpt>
<trkpt lat="64.210868835" lon="-21.260007858">
<ele>201.089844</ele>
<time>2012-07-18T16:43:25Z</time>
<speed>0.010000</speed>
<extensions>
<speed>0.0</speed>
<temp>0.00</temp>
<bpm>0</bpm>
<rpm>0.00</rpm>
</extensions>
</trkpt>
<trkpt lat="64.210868835" lon="-21.260007858">
<ele>201.093750</ele>
<time>2012-07-18T16:43:30Z</time>
<extensions>
<speed>0.0</speed>
<temp>0.00</temp>
<bpm>0</bpm>
<rpm>0.00</rpm>
</extensions>
</trkpt>
<trkpt lat="64.210868835" lon="-21.260005951">
<ele>201.093750</ele>
<time>2012-07-18T16:43:35Z</time>
<speed>0.020000</speed>
<extensions>
<speed>0.0</speed>
<temp>0.00</temp>
<bpm>0</bpm>
<rpm>0.00</rpm>
</extensions>
</trkpt>
<trkpt lat="64.210868835" lon="-21.260005951">
<ele>201.089844</ele>
<time>2012-07-18T16:43:40Z</time>
<speed>0.020000</speed>
<extensions>
<speed>0.0</speed>
<temp>0.00</temp>
<bpm>0</bpm>
<rpm>0.00</rpm>
</extensions>
</trkpt>
<trkpt lat="64.210868835" lon="-21.260005951">
<ele>201.097656</ele>
<time>2012-07-18T16:43:45Z</time>
<speed>0.020000</speed>
<extensions>
<speed>0.0</speed>
<temp>0.00</temp>
<bpm>0</bpm>
<rpm>0.00</rpm>
</extensions>
</trkpt>
<trkpt lat="64.210868835" lon="-21.260005951">
<ele>201.109375</ele>
<time>2012-07-18T16:43:50Z</time>
<speed>0.010000</speed>
<extensions>
<speed>0.0</speed>
<temp>0.00</temp>
<bpm>0</bpm>
<rpm>0.00</rpm>
</extensions>
</trkpt>
<trkpt lat="64.210868835" lon="-21.260005951">
<ele>201.093750</ele>
<time>2012-07-18T16:43:55Z</time>
<speed>0.010000</speed>
<extensions>
<speed>0.0</speed>
<temp>0.00</temp>
<bpm>0</bpm>
<rpm>0.00</rpm>
</extensions>
</trkpt>
<trkpt lat="64.210868835" lon="-21.260005951">
<ele>201.066406</ele>
<time>2012-07-18T16:44:00Z</time>
<speed>0.010000</speed>
<extensions>
<speed>0.0</speed>
<temp>0.00</temp>
<bpm>0</bpm>
<rpm>0.00</rpm>
</extensions>
</trkpt>
<trkpt lat="64.210868835" lon="-21.260005951">
<ele>201.054688</ele>
<time>2012-07-18T16:44:05Z</time>
<speed>0.010000</speed>
<extensions>
<speed>0.0</speed>
<temp>0.00</temp>
<bpm>0</bpm>
<rpm>0.00</rpm>
</extensions>
</trkpt>
<trkpt lat="64.210868835" lon="-21.260005951">
<ele>201.074219</ele>
<time>2012-07-18T16:44:10Z</time>
<extensions>
<speed>0.0</speed>
<temp>0.00</temp>
<bpm>0</bpm>
<rpm>0.00</rpm>
</extensions>
</trkpt>
<trkpt lat="64.210868835" lon="-21.260004044">
<ele>201.089844</ele>
<time>2012-07-18T16:44:15Z</time>
<speed>0.030000</speed>
<extensions>
<speed>0.0</speed>
<temp>0.00</temp>
<bpm>0</bpm>
<rpm>0.00</rpm>
</extensions>
</trkpt>
<trkpt lat="64.210868835" lon="-21.260005951">
<ele>201.140625</ele>
<time>2012-07-18T16:44:20Z</time>
<speed>0.010000</speed>
<extensions>
<speed>0.0</speed>
<temp>0.00</temp>
<bpm>0</bpm>
<rpm>0.00</rpm>
</extensions>
</trkpt>
<trkpt lat="64.210868835" lon="-21.260005951">
<ele>201.195313</ele>
<time>2012-07-18T16:44:25Z</time>
<speed>0.140000</speed>
<extensions>
<speed>0.1</speed>
<temp>0.00</temp>
<bpm>0</bpm>
<rpm>0.00</rpm>
</extensions>
</trkpt>
<trkpt lat="64.210868835" lon="-21.260005951">
<ele>201.199219</ele>
<time>2012-07-18T16:44:30Z</time>
<speed>0.030000</speed>
<extensions>
<speed>0.0</speed>
<temp>0.00</temp>
<bpm>0</bpm>
<rpm>0.00</rpm>
</extensions>
</trkpt>
<trkpt lat="64.210868835" lon="-21.260004044">
<ele>201.210938</ele>
<time>2012-07-18T16:44:35Z</time>
<speed>0.060000</speed>
<extensions>
<speed>0.1</speed>
<temp>0.00</temp>
<bpm>0</bpm>
<rpm>0.00</rpm>
</extensions>
</trkpt>
<trkpt lat="64.210899353" lon="-21.260072708">
<ele>201.304688</ele>
<time>2012-07-18T16:44:40Z</time>
<speed>0.200000</speed>
<extensions>
<speed>0.2</speed>
<temp>0.00</temp>
<bpm>0</bpm>
<rpm>0.00</rpm>
</extensions>
</trkpt>
<trkpt lat="64.210899353" lon="-21.260072708">
<ele>201.296875</ele>
<time>2012-07-18T16:44:45Z</time>
<speed>0.170000</speed>
<extensions>
<speed>0.2</speed>
<temp>0.00</temp>
<bpm>0</bpm>
<rpm>0.00</rpm>
</extensions>
</trkpt>
<trkpt lat="64.210937500" lon="-21.260143280">
<ele>201.234375</ele>
<time>2012-07-18T16:44:50Z</time>
<speed>1.210000</speed>
<extensions>
<speed>1.2</speed>
<temp>0.00</temp>
<bpm>0</bpm>
<rpm>0.00</rpm>
</extensions>
</trkpt>
<trkpt lat="64.210983276" lon="-21.260221481">
<ele>200.484375</ele>
<time>2012-07-18T16:44:55Z</time>
<speed>0.590000</speed>
<extensions>
<speed>0.6</speed>
<temp>0.00</temp>
<bpm>0</bpm>
<rpm>0.00</rpm>
</extensions>
</trkpt>
<trkpt lat="64.211013794" lon="-21.260246277">
<ele>200.527344</ele>
<time>2012-07-18T16:45:00Z</time>
<speed>0.390000</speed>
<extensions>
<speed>0.4</speed>
<temp>0.00</temp>
<bpm>0</bpm>
<rpm>0.00</rpm>
</extensions>
</trkpt>
<trkpt lat="64.211021423" lon="-21.260267258">
<ele>200.613281</ele>
<time>2012-07-18T16:45:05Z</time>
<speed>0.150000</speed>
<extensions>
<speed>0.2</speed>
<temp>0.00</temp>
<bpm>0</bpm>
<rpm>0.00</rpm>
</extensions>
</trkpt>
<trkpt lat="64.211036682" lon="-21.260251999">
<ele>201.453125</ele>
<time>2012-07-18T16:45:10Z</time>
<speed>0.120000</speed>
<extensions>
<speed>0.1</speed>
<temp>0.00</temp>
<bpm>0</bpm>
<rpm>0.00</rpm>
</extensions>
</trkpt>
<trkpt lat="64.211036682" lon="-21.260248184">
<ele>201.371094</ele>
<time>2012-07-18T16:45:15Z</time>
<speed>0.080000</speed>
<extensions>
<speed>0.1</speed>
<temp>0.00</temp>
<bpm>0</bpm>
<rpm>0.00</rpm>
</extensions>
</trkpt>
<trkpt lat="64.211029053" lon="-21.260250092">
<ele>201.339844</ele>
<time>2012-07-18T16:45:20Z</time>
<speed>0.040000</speed>
<extensions>
<speed>0.0</speed>
<temp>0.00</temp>
<bpm>0</bpm>
<rpm>0.00</rpm>
</extensions>
</trkpt>
<trkpt lat="64.211029053" lon="-21.260251999">
<ele>201.343750</ele>
<time>2012-07-18T16:45:25Z</time>
<speed>0.060000</speed>
<extensions>
<speed>0.1</speed>
<temp>0.00</temp>
<bpm>0</bpm>
<rpm>0.00</rpm>
</extensions>
</trkpt>
<trkpt lat="64.211029053" lon="-21.260250092">
<ele>201.351563</ele>
<time>2012-07-18T16:45:30Z</time>
<speed>0.010000</speed>
<extensions>
<speed>0.0</speed>
<temp>0.00</temp>
<bpm>0</bpm>
<rpm>0.00</rpm>
</extensions>
</trkpt>
<trkpt lat="64.211029053" lon="-21.260250092">
<ele>201.359375</ele>
<time>2012-07-18T16:45:35Z</time>
<extensions>
<speed>0.0</speed>
<temp>0.00</temp>
<bpm>0</bpm>
<rpm>0.00</rpm>
</extensions>
</trkpt>
<trkpt lat="64.211029053" lon="-21.260250092">
<ele>201.375000</ele>
<time>2012-07-18T16:45:40Z</time>
<speed>0.010000</speed>
<extensions>
<speed>0.0</speed>
<temp>0.00</temp>
<bpm>0</bpm>
<rpm>0.00</rpm>
</extensions>
</trkpt>
<trkpt lat="64.211029053" lon="-21.260251999">
<ele>201.402344</ele>
<time>2012-07-18T16:45:45Z</time>
<speed>0.010000</speed>
<extensions>
<speed>0.0</speed>
<temp>0.00</temp>
<bpm>0</bpm>
<rpm>0.00</rpm>
</extensions>
</trkpt>
<trkpt lat="64.211029053" lon="-21.260251999">
<ele>201.398438</ele>
<time>2012-07-18T16:45:50Z</time>
<speed>0.020000</speed>
<extensions>
<speed>0.0</speed>
<temp>0.00</temp>
<bpm>0</bpm>
<rpm>0.00</rpm>
</extensions>
</trkpt>
<trkpt lat="64.211044312" lon="-21.260263443">
<ele>201.972656</ele>
<time>2012-07-18T16:45:55Z</time>
<speed>0.590000</speed>
<extensions>
<speed>0.6</speed>
<temp>0.00</temp>
<bpm>0</bpm>
<rpm>0.00</rpm>
</extensions>
</trkpt>
<trkpt lat="64.211051941" lon="-21.260274887">
<ele>202.675781</ele>
<time>2012-07-18T16:46:00Z</time>
<speed>0.340000</speed>
<extensions>
<speed>0.3</speed>
<temp>0.00</temp>
<bpm>0</bpm>
<rpm>0.00</rpm>
</extensions>
</trkpt>
<trkpt lat="64.211067200" lon="-21.260299683">
<ele>203.007813</ele>
<time>2012-07-18T16:46:05Z</time>
<speed>0.100000</speed>
<extensions>
<speed>0.1</speed>
<temp>0.00</temp>
<bpm>0</bpm>
<rpm>0.00</rpm>
</extensions>
</trkpt>
<trkpt lat="64.211090088" lon="-21.260295868">
<ele>202.968750</ele>
<time>2012-07-18T16:46:10Z</time>
<speed>1.060000</speed>
<extensions>
<speed>1.1</speed>
<temp>0.00</temp>
<bpm>0</bpm>
<rpm>0.00</rpm>
</extensions>
</trkpt>
<trkpt lat="64.211120605" lon="-21.260171890">
<ele>202.632813</ele>
<time>2012-07-18T16:46:15Z</time>
<speed>1.750000</speed>
<extensions>
<speed>1.8</speed>
<temp>0.00</temp>
<bpm>0</bpm>
<rpm>0.00</rpm>
</extensions>
</trkpt>
<trkpt lat="64.211189270" lon="-21.260021210">
<ele>203.511719</ele>
<time>2012-07-18T16:46:20Z</time>
<speed>2.240000</speed>
<extensions>
<speed>2.2</speed>
<temp>0.00</temp>
<bpm>0</bpm>
<rpm>0.00</rpm>
</extensions>
</trkpt>
<trkpt lat="64.211280823" lon="-21.259981155">
<ele>203.527344</ele>
<time>2012-07-18T16:46:25Z</time>
<speed>2.320000</speed>
<extensions>
<speed>2.3</speed>
<temp>0.00</temp>
<bpm>0</bpm>
<rpm>0.00</rpm>
</extensions>
</trkpt>
<trkpt lat="64.211395264" lon="-21.259799957">
<ele>206.691406</ele>
<time>2012-07-18T16:46:30Z</time>
<speed>3.580000</speed>
<extensions>
<speed>3.6</speed>
<temp>0.00</temp>
<bpm>0</bpm>
<rpm>0.00</rpm>
</extensions>
</trkpt>
<trkpt lat="64.211486816" lon="-21.259357452">
<ele>205.308594</ele>
<time>2012-07-18T16:46:35Z</time>
<speed>5.780000</speed>
<extensions>
<speed>5.8</speed>
<temp>0.00</temp>
<bpm>0</bpm>
<rpm>0.00</rpm>
</extensions>
</trkpt>
<trkpt lat="64.211624146" lon="-21.258714676">
<ele>203.136719</ele>
<time>2012-07-18T16:46:40Z</time>
<speed>8.010000</speed>
<extensions>
<speed>8.0</speed>
<temp>0.00</temp>
<bpm>0</bpm>
<rpm>0.00</rpm>
</extensions>
</trkpt>
<trkpt lat="64.211822510" lon="-21.257886887">
<ele>200.035156</ele>
<time>2012-07-18T16:46:45Z</time>
<speed>10.560000</speed>
<extensions>
<speed>10.6</speed>
<temp>0.00</temp>
<bpm>0</bpm>
<rpm>0.00</rpm>
</extensions>
</trkpt>
<trkpt lat="64.212059021" lon="-21.256895065">
<ele>196.507813</ele>
<time>2012-07-18T16:46:50Z</time>
<speed>10.760000</speed>
<extensions>
<speed>10.8</speed>
<temp>0.00</temp>
<bpm>0</bpm>
<rpm>0.00</rpm>
</extensions>
</trkpt>
<trkpt lat="64.212303162" lon="-21.255954742">
<ele>194.710938</ele>
<time>2012-07-18T16:46:55Z</time>
<speed>9.900000</speed>
<extensions>
<speed>9.9</speed>
<temp>0.00</temp>
<bpm>0</bpm>
<rpm>0.00</rpm>
</extensions>
</trkpt>
<trkpt lat="64.212524414" lon="-21.255147934">
<ele>193.117188</ele>
<time>2012-07-18T16:47:00Z</time>
<speed>8.860000</speed>
<extensions>
<speed>8.9</speed>
<temp>0.00</temp>
<bpm>0</bpm>
<rpm>0.00</rpm>
</extensions>
</trkpt>
<trkpt lat="64.212738037" lon="-21.254396439">
<ele>191.496094</ele>
<time>2012-07-18T16:47:05Z</time>
<speed>8.540000</speed>
<extensions>
<speed>8.5</speed>
<temp>0.00</temp>
<bpm>0</bpm>
<rpm>0.00</rpm>
</extensions>
</trkpt>
<trkpt lat="64.212951660" lon="-21.253660202">
<ele>193.300781</ele>
<time>2012-07-18T16:47:10Z</time>
<speed>8.460000</speed>
<extensions>
<speed>8.5</speed>
<temp>0.00</temp>
<bpm>0</bpm>
<rpm>0.00</rpm>
</extensions>
</trkpt>
<trkpt lat="64.213180542" lon="-21.252990723">
<ele>194.968750</ele>
<time>2012-07-18T16:47:15Z</time>
<speed>7.960000</speed>
<extensions>
<speed>8.0</speed>
<temp>0.00</temp>
<bpm>0</bpm>
<rpm>0.00</rpm>
</extensions>
</trkpt>
<trkpt lat="64.213394165" lon="-21.252351761">
<ele>197.234375</ele>
<time>2012-07-18T16:47:20Z</time>
<speed>7.690000</speed>
<extensions>
<speed>7.7</speed>
<temp>0.00</temp>
<bpm>0</bpm>
<rpm>0.00</rpm>
</extensions>
</trkpt>
<trkpt lat="64.213592529" lon="-21.251737595">
<ele>196.644531</ele>
<time>2012-07-18T16:47:25Z</time>
<speed>7.340000</speed>
<extensions>
<speed>7.3</speed>
<temp>0.00</temp>
<bpm>0</bpm>
<rpm>0.00</rpm>
</extensions>
</trkpt>
<trkpt lat="64.213821411" lon="-21.251163483">
<ele>197.625000</ele>
<time>2012-07-18T16:47:30Z</time>
<speed>7.280000</speed>
<extensions>
<speed>7.3</speed>
<temp>0.00</temp>
<bpm>0</bpm>
<rpm>0.00</rpm>
</extensions>
</trkpt>
<trkpt lat="64.214027405" lon="-21.250581741">
<ele>196.359375</ele>
<time>2012-07-18T16:47:35Z</time>
<speed>7.750000</speed>
<extensions>
<speed>7.7</speed>
<temp>0.00</temp>
<bpm>0</bpm>
<rpm>0.00</rpm>
</extensions>
</trkpt>
<trkpt lat="64.214256287" lon="-21.249914169">
<ele>194.621094</ele>
<time>2012-07-18T16:47:40Z</time>
<speed>8.630000</speed>
<extensions>
<speed>8.6</speed>
<temp>0.00</temp>
<bpm>0</bpm>
<rpm>0.00</rpm>
</extensions>
</trkpt>
<trkpt lat="64.214508057" lon="-21.249158859">
<ele>192.625000</ele>
<time>2012-07-18T16:47:45Z</time>
<speed>9.740000</speed>
<extensions>
<speed>9.7</speed>
<temp>0.00</temp>
<bpm>0</bpm>
<rpm>0.00</rpm>
</extensions>
</trkpt>
<trkpt lat="64.214790344" lon="-21.248338699">
<ele>189.152344</ele>
<time>2012-07-18T16:47:50Z</time>
<speed>10.610000</speed>
<extensions>
<speed>10.6</speed>
<temp>0.00</temp>
<bpm>0</bpm>
<rpm>0.00</rpm>
</extensions>
</trkpt>
<trkpt lat="64.215110779" lon="-21.247463226">
<ele>186.488281</ele>
<time>2012-07-18T16:47:55Z</time>
<speed>11.060001</speed>
<extensions>
<speed>11.1</speed>
<temp>0.00</temp>
<bpm>0</bpm>
<rpm>0.00</rpm>
</extensions>
</trkpt>
<trkpt lat="64.215408325" lon="-21.246585846">
<ele>185.230469</ele>
<time>2012-07-18T16:48:00Z</time>
<speed>10.120000</speed>
<extensions>
<speed>10.1</speed>
<temp>0.00</temp>
<bpm>0</bpm>
<rpm>0.00</rpm>
</extensions>
</trkpt>
<trkpt lat="64.215675354" lon="-21.245813370">
<ele>182.789063</ele>
<time>2012-07-18T16:48:05Z</time>
<speed>9.380000</speed>
<extensions>
<speed>9.4</speed>
<temp>0.00</temp>
<bpm>0</bpm>
<rpm>0.00</rpm>
</extensions>
</trkpt>
<trkpt lat="64.215934753" lon="-21.245084763">
<ele>182.085938</ele>
<time>2012-07-18T16:48:10Z</time>
<speed>8.640000</speed>
<extensions>
<speed>8.6</speed>
<temp>0.00</temp>
<bpm>0</bpm>
<rpm>0.00</rpm>
</extensions>
</trkpt>
<trkpt lat="64.216171265" lon="-21.244371414">
<ele>179.535156</ele>
<time>2012-07-18T16:48:15Z</time>
<speed>8.590000</speed>
<extensions>
<speed>8.6</speed>
<temp>0.00</temp>
<bpm>0</bpm>
<rpm>0.00</rpm>
</extensions>
</trkpt>
<trkpt lat="64.216415405" lon="-21.243679047">
<ele>178.039063</ele>
<time>2012-07-18T16:48:20Z</time>
<speed>8.790000</speed>
<extensions>
<speed>8.8</speed>
<temp>0.00</temp>
<bpm>0</bpm>
<rpm>0.00</rpm>
</extensions>
</trkpt>
<trkpt lat="64.216674805" lon="-21.242954254">
<ele>176.972656</ele>
<time>2012-07-18T16:48:25Z</time>
<speed>9.290000</speed>
<extensions>
<speed>9.3</speed>
<temp>0.00</temp>
<bpm>0</bpm>
<rpm>0.00</rpm>
</extensions>
</trkpt>
<trkpt lat="64.216934204" lon="-21.242187500">
<ele>173.128906</ele>
<time>2012-07-18T16:48:30Z</time>
<speed>9.690000</speed>
<extensions>
<speed>9.7</speed>
<temp>0.00</temp>
<bpm>0</bpm>
<rpm>0.00</rpm>
</extensions>
</trkpt>
<trkpt lat="64.217193604" lon="-21.241420746">
<ele>168.550781</ele>
<time>2012-07-18T16:48:35Z</time>
<speed>9.380000</speed>
<extensions>
<speed>9.4</speed>
<temp>0.00</temp>
<bpm>0</bpm>
<rpm>0.00</rpm>
</extensions>
</trkpt>
<trkpt lat="64.217475891" lon="-21.240659714">
<ele>169.839844</ele>
<time>2012-07-18T16:48:40Z</time>
<speed>9.699999</speed>
<extensions>
<speed>9.7</speed>
<temp>0.00</temp>
<bpm>0</bpm>
<rpm>0.00</rpm>
</extensions>
</trkpt>
<trkpt lat="64.217742920" lon="-21.239881516">
<ele>169.039063</ele>
<time>2012-07-18T16:48:45Z</time>
<speed>9.390000</speed>
<extensions>
<speed>9.4</speed>
<temp>0.00</temp>
<bpm>0</bpm>
<rpm>0.00</rpm>
</extensions>
</trkpt>
<trkpt lat="64.217994690" lon="-21.239151001">
<ele>170.917969</ele>
<time>2012-07-18T16:48:50Z</time>
<speed>8.640000</speed>
<extensions>
<speed>8.6</speed>
<temp>0.00</temp>
<bpm>0</bpm>
<rpm>0.00</rpm>
</extensions>
</trkpt>
<trkpt lat="64.218238831" lon="-21.238475800">
<ele>170.710938</ele>
<time>2012-07-18T16:48:55Z</time>
<speed>8.330000</speed>
<extensions>
<speed>8.3</speed>
<temp>0.00</temp>
<bpm>0</bpm>
<rpm>0.00</rpm>
</extensions>
</trkpt>
<trkpt lat="64.218460083" lon="-21.237815857">
<ele>170.781250</ele>
<time>2012-07-18T16:49:00Z</time>
<speed>7.720000</speed>
<extensions>
<speed>7.7</speed>
<temp>0.00</temp>
<bpm>0</bpm>
<rpm>0.00</rpm>
</extensions>
</trkpt>
<trkpt lat="64.218666077" lon="-21.237201691">
<ele>169.914063</ele>
<time>2012-07-18T16:49:05Z</time>
<speed>7.140000</speed>
<extensions>
<speed>7.1</speed>
<temp>0.00</temp>
<bpm>0</bpm>
<rpm>0.00</rpm>
</extensions>
</trkpt>
<trkpt lat="64.218849182" lon="-21.236652374">
<ele>169.832031</ele>
<time>2012-07-18T16:49:10Z</time>
<speed>6.350000</speed>
<extensions>
<speed>6.4</speed>
<temp>0.00</temp>
<bpm>0</bpm>
<rpm>0.00</rpm>
</extensions>
</trkpt>
<trkpt lat="64.219017029" lon="-21.236125946">
<ele>169.625000</ele>
<time>2012-07-18T16:49:15Z</time>
<speed>6.400000</speed>
<extensions>
<speed>6.4</speed>
<temp>0.00</temp>
<bpm>0</bpm>
<rpm>0.00</rpm>
</extensions>
</trkpt>
<trkpt lat="64.219192505" lon="-21.235584259">
<ele>171.367188</ele>
<time>2012-07-18T16:49:20Z</time>
<speed>6.420000</speed>
<extensions>
<speed>6.4</speed>
<temp>0.00</temp>
<bpm>0</bpm>
<rpm>0.00</rpm>
</extensions>
</trkpt>
<trkpt lat="64.219367981" lon="-21.235044479">
<ele>171.347656</ele>
<time>2012-07-18T16:49:25Z</time>
<speed>6.470000</speed>
<extensions>
<speed>6.5</speed>
<temp>0.00</temp>
<bpm>0</bpm>
<rpm>0.00</rpm>
</extensions>
</trkpt>
<trkpt lat="64.219520569" lon="-21.234508514">
<ele>168.253906</ele>
<time>2012-07-18T16:49:30Z</time>
<speed>6.200000</speed>
<extensions>
<speed>6.2</speed>
<temp>0.00</temp>
<bpm>0</bpm>
<rpm>0.00</rpm>
</extensions>
</trkpt>
<trkpt lat="64.219680786" lon="-21.233983994">
<ele>165.617188</ele>
<time>2012-07-18T16:49:35Z</time>
<speed>6.310000</speed>
<extensions>
<speed>6.3</speed>
<temp>0.00</temp>
<bpm>0</bpm>
<rpm>0.00</rpm>
</extensions>
</trkpt>
<trkpt lat="64.219841003" lon="-21.233442307">
<ele>161.726563</ele>
<time>2012-07-18T16:49:40Z</time>
<speed>6.870000</speed>
<extensions>
<speed>6.9</speed>
<temp>0.00</temp>
<bpm>0</bpm>
<rpm>0.00</rpm>
</extensions>
</trkpt>
<trkpt lat="64.220016479" lon="-21.232831955">
<ele>163.554688</ele>
<time>2012-07-18T16:49:45Z</time>
<speed>7.190000</speed>
<extensions>
<speed>7.2</speed>
<temp>0.00</temp>
<bpm>0</bpm>
<rpm>0.00</rpm>
</extensions>
</trkpt>
<trkpt lat="64.220191956" lon="-21.232196808">
<ele>162.636719</ele>
<time>2012-07-18T16:49:50Z</time>
<speed>7.360000</speed>
<extensions>
<speed>7.4</speed>
<temp>0.00</temp>
<bpm>0</bpm>
<rpm>0.00</rpm>
</extensions>
</trkpt>
<trkpt lat="64.220375061" lon="-21.231573105">
<ele>161.355469</ele>
<time>2012-07-18T16:49:55Z</time>
<speed>6.750000</speed>
<extensions>
<speed>6.7</speed>
<temp>0.00</temp>
<bpm>0</bpm>
<rpm>0.00</rpm>
</extensions>
</trkpt>
<trkpt lat="64.220527649" lon="-21.231004715">
<ele>160.847656</ele>
<time>2012-07-18T16:50:00Z</time>
<speed>6.800000</speed>
<extensions>
<speed>6.8</speed>
<temp>0.00</temp>
<bpm>0</bpm>
<rpm>0.00</rpm>
</extensions>
</trkpt>
<trkpt lat="64.220710754" lon="-21.230369568">
<ele>161.523438</ele>
<time>2012-07-18T16:50:05Z</time>
<speed>8.030000</speed>
<extensions>
<speed>8.0</speed>
<temp>0.00</temp>
<bpm>0</bpm>
<rpm>0.00</rpm>
</extensions>
</trkpt>
<trkpt lat="64.220916748" lon="-21.229648590">
<ele>160.535156</ele>
<time>2012-07-18T16:50:10Z</time>
<speed>8.550000</speed>
<extensions>
<speed>8.6</speed>
<temp>0.00</temp>
<bpm>0</bpm>
<rpm>0.00</rpm>
</extensions>
</trkpt>
<trkpt lat="64.221138000" lon="-21.228891373">
<ele>161.324219</ele>
<time>2012-07-18T16:50:15Z</time>
<speed>9.000000</speed>
<extensions>
<speed>9.0</speed>
<temp>0.00</temp>
<bpm>0</bpm>
<rpm>0.00</rpm>
</extensions>
</trkpt>
<trkpt lat="64.221351624" lon="-21.228113174">
<ele>160.726563</ele>
<time>2012-07-18T16:50:20Z</time>
<speed>9.160000</speed>
<extensions>
<speed>9.2</speed>
<temp>0.00</temp>
<bpm>0</bpm>
<rpm>0.00</rpm>
</extensions>
</trkpt>
<trkpt lat="64.221572876" lon="-21.227315903">
<ele>159.203125</ele>
<time>2012-07-18T16:50:25Z</time>
<speed>9.230000</speed>
<extensions>
<speed>9.2</speed>
<temp>0.00</temp>
<bpm>0</bpm>
<rpm>0.00</rpm>
</extensions>
</trkpt>
<trkpt lat="64.221801758" lon="-21.226520538">
<ele>158.816406</ele>
<time>2012-07-18T16:50:30Z</time>
<speed>8.980000</speed>
<extensions>
<speed>9.0</speed>
<temp>0.00</temp>
<bpm>0</bpm>
<rpm>0.00</rpm>
</extensions>
</trkpt>
<trkpt lat="64.222015381" lon="-21.225734711">
<ele>155.597656</ele>
<time>2012-07-18T16:50:35Z</time>
<speed>9.080000</speed>
<extensions>
<speed>9.1</speed>
<temp>0.00</temp>
<bpm>0</bpm>
<rpm>0.00</rpm>
</extensions>
</trkpt>
<trkpt lat="64.222244263" lon="-21.224935532">
<ele>154.777344</ele>
<time>2012-07-18T16:50:40Z</time>
<speed>9.260000</speed>
<extensions>
<speed>9.3</speed>
<temp>0.00</temp>
<bpm>0</bpm>
<rpm>0.00</rpm>
</extensions>
</trkpt>
<trkpt lat="64.222465515" lon="-21.224128723">
<ele>154.597656</ele>
<time>2012-07-18T16:50:45Z</time>
<speed>9.220000</speed>
<extensions>
<speed>9.2</speed>
<temp>0.00</temp>
<bpm>0</bpm>
<rpm>0.00</rpm>
</extensions>
</trkpt>
<trkpt lat="64.222686768" lon="-21.223327637">
<ele>153.597656</ele>
<time>2012-07-18T16:50:50Z</time>
<speed>9.260000</speed>
<extensions>
<speed>9.3</speed>
<temp>0.00</temp>
<bpm>0</bpm>
<rpm>0.00</rpm>
</extensions>
</trkpt>
<trkpt lat="64.222892761" lon="-21.222520828">
<ele>152.109375</ele>
<time>2012-07-18T16:50:55Z</time>
<speed>8.840000</speed>
<extensions>
<speed>8.8</speed>
<temp>0.00</temp>
<bpm>0</bpm>
<rpm>0.00</rpm>
</extensions>
</trkpt>
<trkpt lat="64.223060608" lon="-21.221679688">
<ele>150.886719</ele>
<time>2012-07-18T16:51:00Z</time>
<speed>9.220000</speed>
<extensions>
<speed>9.2</speed>
<temp>0.00</temp>
<bpm>0</bpm>
<rpm>0.00</rpm>
</extensions>
</trkpt>
<trkpt lat="64.223197937" lon="-21.220764160">
<ele>149.230469</ele>
<time>2012-07-18T16:51:05Z</time>
<speed>9.240000</speed>
<extensions>
<speed>9.2</speed>
<temp>0.00</temp>
<bpm>0</bpm>
<rpm>0.00</rpm>
</extensions>
</trkpt>
<trkpt lat="64.223304749" lon="-21.219860077">
<ele>148.714844</ele>
<time>2012-07-18T16:51:10Z</time>
<speed>8.860000</speed>
<extensions>
<speed>8.9</speed>
<temp>0.00</temp>
<bpm>0</bpm>
<rpm>0.00</rpm>
</extensions>
</trkpt>
<trkpt lat="64.223403931" lon="-21.218999863">
<ele>148.484375</ele>
<time>2012-07-18T16:51:15Z</time>
<speed>8.460000</speed>
<extensions>
<speed>8.5</speed>
<temp>0.00</temp>
<bpm>0</bpm>
<rpm>0.00</rpm>
</extensions>
</trkpt>
<trkpt lat="64.223495483" lon="-21.218158722">
<ele>147.242188</ele>
<time>2012-07-18T16:51:20Z</time>
<speed>8.650000</speed>
<extensions>
<speed>8.6</speed>
<temp>0.00</temp>
<bpm>0</bpm>
<rpm>0.00</rpm>
</extensions>
</trkpt>
<trkpt lat="64.223609924" lon="-21.217290878">
<ele>146.960938</ele>
<time>2012-07-18T16:51:25Z</time>
<speed>8.970000</speed>
<extensions>
<speed>9.0</speed>
<temp>0.00</temp>
<bpm>0</bpm>
<rpm>0.00</rpm>
</extensions>
</trkpt>
<trkpt lat="64.223762512" lon="-21.216411591">
<ele>149.734375</ele>
<time>2012-07-18T16:51:30Z</time>
<speed>9.540000</speed>
<extensions>
<speed>9.5</speed>
<temp>0.00</temp>
<bpm>0</bpm>
<rpm>0.00</rpm>
</extensions>
</trkpt>
<trkpt lat="64.223968506" lon="-21.215559006">
<ele>150.523438</ele>
<time>2012-07-18T16:51:35Z</time>
<speed>9.760000</speed>
<extensions>
<speed>9.8</speed>
<temp>0.00</temp>
<bpm>0</bpm>
<rpm>0.00</rpm>
</extensions>
</trkpt>
<trkpt lat="64.224227905" lon="-21.214723587">
<ele>147.308594</ele>
<time>2012-07-18T16:51:40Z</time>
<speed>10.260000</speed>
<extensions>
<speed>10.3</speed>
<temp>0.00</temp>
<bpm>0</bpm>
<rpm>0.00</rpm>
</extensions>
</trkpt>
<trkpt lat="64.224540710" lon="-21.213903427">
<ele>144.242188</ele>
<time>2012-07-18T16:51:45Z</time>
<speed>10.600000</speed>
<extensions>
<speed>10.6</speed>
<temp>0.00</temp>
<bpm>0</bpm>
<rpm>0.00</rpm>
</extensions>
</trkpt>
<trkpt lat="64.224868774" lon="-21.213115692">
<ele>141.992188</ele>
<time>2012-07-18T16:51:50Z</time>
<speed>10.569999</speed>
<extensions>
<speed>10.6</speed>
<temp>0.00</temp>
<bpm>0</bpm>
<rpm>0.00</rpm>
</extensions>
</trkpt>
<trkpt lat="64.225204468" lon="-21.212368011">
<ele>137.222656</ele>
<time>2012-07-18T16:51:55Z</time>
<speed>10.060000</speed>
<extensions>
<speed>10.1</speed>
<temp>0.00</temp>
<bpm>0</bpm>
<rpm>0.00</rpm>
</extensions>
</trkpt>
<trkpt lat="64.225509644" lon="-21.211677551">
<ele>135.273438</ele>
<time>2012-07-18T16:52:00Z</time>
<speed>8.950000</speed>
<extensions>
<speed>9.0</speed>
<temp>0.00</temp>
<bpm>0</bpm>
<rpm>0.00</rpm>
</extensions>
</trkpt>
<trkpt lat="64.225784302" lon="-21.211034775">
<ele>135.175781</ele>
<time>2012-07-18T16:52:05Z</time>
<speed>8.400000</speed>
<extensions>
<speed>8.4</speed>
<temp>0.00</temp>
<bpm>0</bpm>
<rpm>0.00</rpm>
</extensions>
</trkpt>
<trkpt lat="64.226036072" lon="-21.210468292">
<ele>136.984375</ele>
<time>2012-07-18T16:52:10Z</time>
<speed>7.600000</speed>
<extensions>
<speed>7.6</speed>
<temp>0.00</temp>
<bpm>0</bpm>
<rpm>0.00</rpm>
</extensions>
</trkpt>
<trkpt lat="64.226272583" lon="-21.209907532">
<ele>137.355469</ele>
<time>2012-07-18T16:52:15Z</time>
<speed>7.510000</speed>
<extensions>
<speed>7.5</speed>
<temp>0.00</temp>
<bpm>0</bpm>
<rpm>0.00</rpm>
</extensions>
</trkpt>
<trkpt lat="64.226509094" lon="-21.209341049">
<ele>137.957031</ele>
<time>2012-07-18T16:52:20Z</time>
<speed>7.550000</speed>
<extensions>
<speed>7.6</speed>
<temp>0.00</temp>
<bpm>0</bpm>
<rpm>0.00</rpm>
</extensions>
</trkpt>
<trkpt lat="64.226737976" lon="-21.208786011">
<ele>137.402344</ele>
<time>2012-07-18T16:52:25Z</time>
<speed>7.190000</speed>
<extensions>
<speed>7.2</speed>
<temp>0.00</temp>
<bpm>0</bpm>
<rpm>0.00</rpm>
</extensions>
</trkpt>
<trkpt lat="64.226951599" lon="-21.208272934">
<ele>136.878906</ele>
<time>2012-07-18T16:52:30Z</time>
<speed>7.320000</speed>
<extensions>
<speed>7.3</speed>
<temp>0.00</temp>
<bpm>0</bpm>
<rpm>0.00</rpm>
</extensions>
</trkpt>
<trkpt lat="64.227157593" lon="-21.207704544">
<ele>135.273438</ele>
<time>2012-07-18T16:52:35Z</time>
<speed>6.930000</speed>
<extensions>
<speed>6.9</speed>
<temp>0.00</temp>
<bpm>0</bpm>
<rpm>0.00</rpm>
</extensions>
</trkpt>
<trkpt lat="64.227348328" lon="-21.207187653">
<ele>135.007813</ele>
<time>2012-07-18T16:52:40Z</time>
<speed>6.390000</speed>
<extensions>
<speed>6.4</speed>
<temp>0.00</temp>
<bpm>0</bpm>
<rpm>0.00</rpm>
</extensions>
</trkpt>
<trkpt lat="64.227516174" lon="-21.206737518">
<ele>134.472656</ele>
<time>2012-07-18T16:52:45Z</time>
<speed>5.390000</speed>
<extensions>
<speed>5.4</speed>
<temp>0.00</temp>
<bpm>0</bpm>
<rpm>0.00</rpm>
</extensions>
</trkpt>
<trkpt lat="64.227684021" lon="-21.206304550">
<ele>134.386719</ele>
<time>2012-07-18T16:52:50Z</time>
<speed>5.950000</speed>
<extensions>
<speed>6.0</speed>
<temp>0.00</temp>
<bpm>0</bpm>
<rpm>0.00</rpm>
</extensions>
</trkpt>
<trkpt lat="64.227851868" lon="-21.205821991">
<ele>133.960938</ele>
<time>2012-07-18T16:52:55Z</time>
<speed>6.060000</speed>
<extensions>
<speed>6.1</speed>
<temp>0.00</temp>
<bpm>0</bpm>
<rpm>0.00</rpm>
</extensions>
</trkpt>
<trkpt lat="64.228019714" lon="-21.205350876">
<ele>135.402344</ele>
<time>2012-07-18T16:53:00Z</time>
<speed>5.550000</speed>
<extensions>
<speed>5.5</speed>
<temp>0.00</temp>
<bpm>0</bpm>
<rpm>0.00</rpm>
</extensions>
</trkpt>
<trkpt lat="64.228179932" lon="-21.204879761">
<ele>133.699219</ele>
<time>2012-07-18T16:53:05Z</time>
<speed>5.720000</speed>
<extensions>
<speed>5.7</speed>
<temp>0.00</temp>
<bpm>0</bpm>
<rpm>0.00</rpm>
</extensions>
</trkpt>
<trkpt lat="64.228332520" lon="-21.204431534">
<ele>134.128906</ele>
<time>2012-07-18T16:53:10Z</time>
<speed>5.150000</speed>
<extensions>
<speed>5.2</speed>
<temp>0.00</temp>
<bpm>0</bpm>
<rpm>0.00</rpm>
</extensions>
</trkpt>
<trkpt lat="64.228462219" lon="-21.204019547">
<ele>132.730469</ele>
<time>2012-07-18T16:53:15Z</time>
<speed>5.080000</speed>
<extensions>
<speed>5.1</speed>
<temp>0.00</temp>
<bpm>0</bpm>
<rpm>0.00</rpm>
</extensions>
</trkpt>
<trkpt lat="64.228599548" lon="-21.203615189">
<ele>136.339844</ele>
<time>2012-07-18T16:53:20Z</time>
<speed>5.160000</speed>
<extensions>
<speed>5.2</speed>
<temp>0.00</temp>
<bpm>0</bpm>
<rpm>0.00</rpm>
</extensions>
</trkpt>
<trkpt lat="64.228736877" lon="-21.203178406">
<ele>137.402344</ele>
<time>2012-07-18T16:53:25Z</time>
<speed>5.330000</speed>
<extensions>
<speed>5.3</speed>
<temp>0.00</temp>
<bpm>0</bpm>
<rpm>0.00</rpm>
</extensions>
</trkpt>
<trkpt lat="64.228866577" lon="-21.202798843">
<ele>139.074219</ele>
<time>2012-07-18T16:53:30Z</time>
<speed>4.360000</speed>
<extensions>
<speed>4.4</speed>
<temp>0.00</temp>
<bpm>0</bpm>
<rpm>0.00</rpm>
</extensions>
</trkpt>
<trkpt lat="64.228973389" lon="-21.202425003">
<ele>139.640625</ele>
<time>2012-07-18T16:53:35Z</time>
<speed>4.800000</speed>
<extensions>
<speed>4.8</speed>
<temp>0.00</temp>
<bpm>0</bpm>
<rpm>0.00</rpm>
</extensions>
</trkpt>
<trkpt lat="64.229110718" lon="-21.201993942">
<ele>141.710938</ele>
<time>2012-07-18T16:53:40Z</time>
<speed>5.540000</speed>
<extensions>
<speed>5.5</speed>
<temp>0.00</temp>
<bpm>0</bpm>
<rpm>0.00</rpm>
</extensions>
</trkpt>
<trkpt lat="64.229270935" lon="-21.201536179">
<ele>140.617188</ele>
<time>2012-07-18T16:53:45Z</time>
<speed>5.820000</speed>
<extensions>
<speed>5.8</speed>
<temp>0.00</temp>
<bpm>0</bpm>
<rpm>0.00</rpm>
</extensions>
</trkpt>
<trkpt lat="64.229423523" lon="-21.201051712">
<ele>140.273438</ele>
<time>2012-07-18T16:53:50Z</time>
<speed>5.400000</speed>
<extensions>
<speed>5.4</speed>
<temp>0.00</temp>
<bpm>0</bpm>
<rpm>0.00</rpm>
</extensions>
</trkpt>
<trkpt lat="64.229560852" lon="-21.200683594">
<ele>140.269531</ele>
<time>2012-07-18T16:53:55Z</time>
<speed>4.340000</speed>
<extensions>
<speed>4.3</speed>
<temp>0.00</temp>
<bpm>0</bpm>
<rpm>0.00</rpm>
</extensions>
</trkpt>
<trkpt lat="64.229690552" lon="-21.200317383">
<ele>141.652344</ele>
<time>2012-07-18T16:54:00Z</time>
<speed>4.740000</speed>
<extensions>
<speed>4.7</speed>
<temp>0.00</temp>
<bpm>0</bpm>
<rpm>0.00</rpm>
</extensions>
</trkpt>
<trkpt lat="64.229843140" lon="-21.199941635">
<ele>142.316406</ele>
<time>2012-07-18T16:54:05Z</time>
<speed>5.130000</speed>
<extensions>
<speed>5.1</speed>
<temp>0.00</temp>
<bpm>0</bpm>
<rpm>0.00</rpm>
</extensions>
</trkpt>
<trkpt lat="64.230010986" lon="-21.199550629">
<ele>142.500000</ele>
<time>2012-07-18T16:54:10Z</time>
<speed>5.410000</speed>
<extensions>
<speed>5.4</speed>
<temp>0.00</temp>
<bpm>0</bpm>
<rpm>0.00</rpm>
</extensions>
</trkpt>
<trkpt lat="64.230194092" lon="-21.199182510">
<ele>144.855469</ele>
<time>2012-07-18T16:54:15Z</time>
<speed>5.580000</speed>
<extensions>
<speed>5.6</speed>
<temp>0.00</temp>
<bpm>0</bpm>
<rpm>0.00</rpm>
</extensions>
</trkpt>
<trkpt lat="64.230407715" lon="-21.198833466">
<ele>145.859375</ele>
<time>2012-07-18T16:54:20Z</time>
<speed>5.790000</speed>
<extensions>
<speed>5.8</speed>
<temp>0.00</temp>
<bpm>0</bpm>
<rpm>0.00</rpm>
</extensions>
</trkpt>
<trkpt lat="64.230628967" lon="-21.198549271">
<ele>145.699219</ele>
<time>2012-07-18T16:54:25Z</time>
<speed>5.280000</speed>
<extensions>
<speed>5.3</speed>
<temp>0.00</temp>
<bpm>0</bpm>
<rpm>0.00</rpm>
</extensions>
</trkpt>
<trkpt lat="64.230819702" lon="-21.198371887">
<ele>144.078125</ele>
<time>2012-07-18T16:54:30Z</time>
<speed>4.790000</speed>
<extensions>
<speed>4.8</speed>
<temp>0.00</temp>
<bpm>0</bpm>
<rpm>0.00</rpm>
</extensions>
</trkpt>
<trkpt lat="64.231033325" lon="-21.198198318">
<ele>144.695313</ele>
<time>2012-07-18T16:54:35Z</time>
<speed>5.250000</speed>
<extensions>
<speed>5.2</speed>
<temp>0.00</temp>
<bpm>0</bpm>
<rpm>0.00</rpm>
</extensions>
</trkpt>
<trkpt lat="64.231262207" lon="-21.198045731">
<ele>145.035156</ele>
<time>2012-07-18T16:54:40Z</time>
<speed>5.280000</speed>
<extensions>
<speed>5.3</speed>
<temp>0.00</temp>
<bpm>0</bpm>
<rpm>0.00</rpm>
</extensions>
</trkpt>
<trkpt lat="64.231506348" lon="-21.197923660">
<ele>145.734375</ele>
<time>2012-07-18T16:54:45Z</time>
<speed>5.720000</speed>
<extensions>
<speed>5.7</speed>
<temp>0.00</temp>
<bpm>0</bpm>
<rpm>0.00</rpm>
</extensions>
</trkpt>
<trkpt lat="64.231758118" lon="-21.197826385">
<ele>141.929688</ele>
<time>2012-07-18T16:54:50Z</time>
<speed>5.790000</speed>
<extensions>
<speed>5.8</speed>
<temp>0.00</temp>
<bpm>0</bpm>
<rpm>0.00</rpm>
</extensions>
</trkpt>
<trkpt lat="64.232002258" lon="-21.197753906">
<ele>139.871094</ele>
<time>2012-07-18T16:54:55Z</time>
<speed>4.910000</speed>
<extensions>
<speed>4.9</speed>
<temp>0.00</temp>
<bpm>0</bpm>
<rpm>0.00</rpm>
</extensions>
</trkpt>
<trkpt lat="64.232223511" lon="-21.197673798">
<ele>137.730469</ele>
<time>2012-07-18T16:55:00Z</time>
<speed>5.320000</speed>
<extensions>
<speed>5.3</speed>
<temp>0.00</temp>
<bpm>0</bpm>
<rpm>0.00</rpm>
</extensions>
</trkpt>
<trkpt lat="64.232467651" lon="-21.197553635">
<ele>137.785156</ele>
<time>2012-07-18T16:55:05Z</time>
<speed>5.590000</speed>
<extensions>
<speed>5.6</speed>
<temp>0.00</temp>
<bpm>0</bpm>
<rpm>0.00</rpm>
</extensions>
</trkpt>
<trkpt lat="64.232719421" lon="-21.197395325">
<ele>138.363281</ele>
<time>2012-07-18T16:55:10Z</time>
<speed>5.630000</speed>
<extensions>
<speed>5.6</speed>
<temp>0.00</temp>
<bpm>0</bpm>
<rpm>0.00</rpm>
</extensions>
</trkpt>
<trkpt lat="64.232948303" lon="-21.197204590">
<ele>138.468750</ele>
<time>2012-07-18T16:55:15Z</time>
<speed>5.240000</speed>
<extensions>
<speed>5.2</speed>
<temp>0.00</temp>
<bpm>0</bpm>
<rpm>0.00</rpm>
</extensions>
</trkpt>
<trkpt lat="64.233169556" lon="-21.196981430">
<ele>137.000000</ele>
<time>2012-07-18T16:55:20Z</time>
<speed>5.330000</speed>
<extensions>
<speed>5.3</speed>
<temp>0.00</temp>
<bpm>0</bpm>
<rpm>0.00</rpm>
</extensions>
</trkpt>
<trkpt lat="64.233367920" lon="-21.196722031">
<ele>137.554688</ele>
<time>2012-07-18T16:55:25Z</time>
<speed>5.250000</speed>
<extensions>
<speed>5.2</speed>
<temp>0.00</temp>
<bpm>0</bpm>
<rpm>0.00</rpm>
</extensions>
</trkpt>
<trkpt lat="64.233566284" lon="-21.196435928">
<ele>133.613281</ele>
<time>2012-07-18T16:55:30Z</time>
<speed>5.060000</speed>
<extensions>
<speed>5.1</speed>
<temp>0.00</temp>
<bpm>0</bpm>
<rpm>0.00</rpm>
</extensions>
</trkpt>
<trkpt lat="64.233749390" lon="-21.196117401">
<ele>134.156250</ele>
<time>2012-07-18T16:55:35Z</time>
<speed>5.490000</speed>
<extensions>
<speed>5.5</speed>
<temp>0.00</temp>
<bpm>0</bpm>
<rpm>0.00</rpm>
</extensions>
</trkpt>
<trkpt lat="64.233955383" lon="-21.195753098">
<ele>134.632813</ele>
<time>2012-07-18T16:55:40Z</time>
<speed>6.020000</speed>
<extensions>
<speed>6.0</speed>
<temp>0.00</temp>
<bpm>0</bpm>
<rpm>0.00</rpm>
</extensions>
</trkpt>
<trkpt lat="64.234161377" lon="-21.195371628">
<ele>134.554688</ele>
<time>2012-07-18T16:55:45Z</time>
<speed>5.750000</speed>
<extensions>
<speed>5.8</speed>
<temp>0.00</temp>
<bpm>0</bpm>
<rpm>0.00</rpm>
</extensions>
</trkpt>
<trkpt lat="64.234375000" lon="-21.194990158">
<ele>135.070313</ele>
<time>2012-07-18T16:55:50Z</time>
<speed>6.210000</speed>
<extensions>
<speed>6.2</speed>
<temp>0.00</temp>
<bpm>0</bpm>
<rpm>0.00</rpm>
</extensions>
</trkpt>
<trkpt lat="64.234596252" lon="-21.194593430">
<ele>134.835938</ele>
<time>2012-07-18T16:55:55Z</time>
<speed>6.180000</speed>
<extensions>
<speed>6.2</speed>
<temp>0.00</temp>
<bpm>0</bpm>
<rpm>0.00</rpm>
</extensions>
</trkpt>
<trkpt lat="64.234809875" lon="-21.194208145">
<ele>134.937500</ele>
<time>2012-07-18T16:56:00Z</time>
<speed>6.030000</speed>
<extensions>
<speed>6.0</speed>
<temp>0.00</temp>
<bpm>0</bpm>
<rpm>0.00</rpm>
</extensions>
</trkpt>
<trkpt lat="64.235023499" lon="-21.193830490">
<ele>133.367188</ele>
<time>2012-07-18T16:56:05Z</time>
<speed>5.640000</speed>
<extensions>
<speed>5.6</speed>
<temp>0.00</temp>
<bpm>0</bpm>
<rpm>0.00</rpm>
</extensions>
</trkpt>
<trkpt lat="64.235206604" lon="-21.193506241">
<ele>133.246094</ele>
<time>2012-07-18T16:56:10Z</time>
<speed>4.760000</speed>
<extensions>
<speed>4.8</speed>
<temp>0.00</temp>
<bpm>0</bpm>
<rpm>0.00</rpm>
</extensions>
</trkpt>
<trkpt lat="64.235359192" lon="-21.193239212">
<ele>134.171875</ele>
<time>2012-07-18T16:56:15Z</time>
<speed>4.930000</speed>
<extensions>
<speed>4.9</speed>
<temp>0.00</temp>
<bpm>0</bpm>
<rpm>0.00</rpm>
</extensions>
</trkpt>
<trkpt lat="64.235542297" lon="-21.192916870">
<ele>131.515625</ele>
<time>2012-07-18T16:56:20Z</time>
<speed>5.450000</speed>
<extensions>
<speed>5.5</speed>
<temp>0.00</temp>
<bpm>0</bpm>
<rpm>0.00</rpm>
</extensions>
</trkpt>
<trkpt lat="64.235755920" lon="-21.192594528">
<ele>133.886719</ele>
<time>2012-07-18T16:56:25Z</time>
<speed>5.750000</speed>
<extensions>
<speed>5.8</speed>
<temp>0.00</temp>
<bpm>0</bpm>
<rpm>0.00</rpm>
</extensions>
</trkpt>
<trkpt lat="64.235992432" lon="-21.192258835">
<ele>134.812500</ele>
<time>2012-07-18T16:56:30Z</time>
<speed>6.150000</speed>
<extensions>
<speed>6.1</speed>
<temp>0.00</temp>
<bpm>0</bpm>
<rpm>0.00</rpm>
</extensions>
</trkpt>
<trkpt lat="64.236236572" lon="-21.191940308">
<ele>135.308594</ele>
<time>2012-07-18T16:56:35Z</time>
<speed>6.350000</speed>
<extensions>
<speed>6.4</speed>
<temp>0.00</temp>
<bpm>0</bpm>
<rpm>0.00</rpm>
</extensions>
</trkpt>
<trkpt lat="64.236473083" lon="-21.191661835">
<ele>138.105469</ele>
<time>2012-07-18T16:56:40Z</time>
<speed>5.770000</speed>
<extensions>
<speed>5.8</speed>
<temp>0.00</temp>
<bpm>0</bpm>
<rpm>0.00</rpm>
</extensions>
</trkpt>
<trkpt lat="64.236717224" lon="-21.191410065">
<ele>137.570313</ele>
<time>2012-07-18T16:56:45Z</time>
<speed>5.920000</speed>
<extensions>
<speed>5.9</speed>
<temp>0.00</temp>
<bpm>0</bpm>
<rpm>0.00</rpm>
</extensions>
</trkpt>
<trkpt lat="64.236961365" lon="-21.191156387">
<ele>136.832031</ele>
<time>2012-07-18T16:56:50Z</time>
<speed>6.120000</speed>
<extensions>
<speed>6.1</speed>
<temp>0.00</temp>
<bpm>0</bpm>
<rpm>0.00</rpm>
</extensions>
</trkpt>
<trkpt lat="64.237213135" lon="-21.190862656">
<ele>146.343750</ele>
<time>2012-07-18T16:56:55Z</time>
<speed>6.360000</speed>
<extensions>
<speed>6.4</speed>
<temp>0.00</temp>
<bpm>0</bpm>
<rpm>0.00</rpm>
</extensions>
</trkpt>
<trkpt lat="64.237457275" lon="-21.190597534">
<ele>138.960938</ele>
<time>2012-07-18T16:57:00Z</time>
<speed>5.750000</speed>
<extensions>
<speed>5.8</speed>
<temp>0.00</temp>
<bpm>0</bpm>
<rpm>0.00</rpm>
</extensions>
</trkpt>
<trkpt lat="64.237686157" lon="-21.190294266">
<ele>138.937500</ele>
<time>2012-07-18T16:57:05Z</time>
<speed>5.660000</speed>
<extensions>
<speed>5.7</speed>
<temp>0.00</temp>
<bpm>0</bpm>
<rpm>0.00</rpm>
</extensions>
</trkpt>
<trkpt lat="64.237892151" lon="-21.189954758">
<ele>138.437500</ele>
<time>2012-07-18T16:57:10Z</time>
<speed>5.850000</speed>
<extensions>
<speed>5.8</speed>
<temp>0.00</temp>
<bpm>0</bpm>
<rpm>0.00</rpm>
</extensions>
</trkpt>
<trkpt lat="64.238098145" lon="-21.189544678">
<ele>137.281250</ele>
<time>2012-07-18T16:57:15Z</time>
<speed>6.370000</speed>
<extensions>
<speed>6.4</speed>
<temp>0.00</temp>
<bpm>0</bpm>
<rpm>0.00</rpm>
</extensions>
</trkpt>
<trkpt lat="64.238311768" lon="-21.189058304">
<ele>135.296875</ele>
<time>2012-07-18T16:57:20Z</time>
<speed>7.070000</speed>
<extensions>
<speed>7.1</speed>
<temp>0.00</temp>
<bpm>0</bpm>
<rpm>0.00</rpm>
</extensions>
</trkpt>
<trkpt lat="64.238548279" lon="-21.188493729">
<ele>132.484375</ele>
<time>2012-07-18T16:57:25Z</time>
<speed>7.860000</speed>
<extensions>
<speed>7.9</speed>
<temp>0.00</temp>
<bpm>0</bpm>
<rpm>0.00</rpm>
</extensions>
</trkpt>
<trkpt lat="64.238830566" lon="-21.187904358">
<ele>129.878906</ele>
<time>2012-07-18T16:57:30Z</time>
<speed>8.870000</speed>
<extensions>
<speed>8.9</speed>
<temp>0.00</temp>
<bpm>0</bpm>
<rpm>0.00</rpm>
</extensions>
</trkpt>
<trkpt lat="64.239173889" lon="-21.187334061">
<ele>126.521484</ele>
<time>2012-07-18T16:57:35Z</time>
<speed>9.730000</speed>
<extensions>
<speed>9.7</speed>
<temp>0.00</temp>
<bpm>0</bpm>
<rpm>0.00</rpm>
</extensions>
</trkpt>
<trkpt lat="64.239585876" lon="-21.186889648">
<ele>119.343750</ele>
<time>2012-07-18T16:57:40Z</time>
<speed>10.090000</speed>
<extensions>
<speed>10.1</speed>
<temp>0.00</temp>
<bpm>0</bpm>
<rpm>0.00</rpm>
</extensions>
</trkpt>
<trkpt lat="64.240020752" lon="-21.186588287">
<ele>117.808594</ele>
<time>2012-07-18T16:57:45Z</time>
<speed>9.800000</speed>
<extensions>
<speed>9.8</speed>
<temp>0.00</temp>
<bpm>0</bpm>
<rpm>0.00</rpm>
</extensions>
</trkpt>
<trkpt lat="64.240432739" lon="-21.186378479">
<ele>116.886719</ele>
<time>2012-07-18T16:57:50Z</time>
<speed>8.920000</speed>
<extensions>
<speed>8.9</speed>
<temp>0.00</temp>
<bpm>0</bpm>
<rpm>0.00</rpm>
</extensions>
</trkpt>
<trkpt lat="64.240806580" lon="-21.186220169">
<ele>115.392578</ele>
<time>2012-07-18T16:57:55Z</time>
<speed>7.980000</speed>
<extensions>
<speed>8.0</speed>
<temp>0.00</temp>
<bpm>0</bpm>
<rpm>0.00</rpm>
</extensions>
</trkpt>
<trkpt lat="64.241119385" lon="-21.186006546">
<ele>116.027344</ele>
<time>2012-07-18T16:58:00Z</time>
<speed>6.830000</speed>
<extensions>
<speed>6.8</speed>
<temp>0.00</temp>
<bpm>0</bpm>
<rpm>0.00</rpm>
</extensions>
</trkpt>
<trkpt lat="64.241386414" lon="-21.185791016">
<ele>116.103516</ele>
<time>2012-07-18T16:58:05Z</time>
<speed>6.360000</speed>
<extensions>
<speed>6.4</speed>
<temp>0.00</temp>
<bpm>0</bpm>
<rpm>0.00</rpm>
</extensions>
</trkpt>
<trkpt lat="64.241661072" lon="-21.185552597">
<ele>113.314453</ele>
<time>2012-07-18T16:58:10Z</time>
<speed>6.450000</speed>
<extensions>
<speed>6.4</speed>
<temp>0.00</temp>
<bpm>0</bpm>
<rpm>0.00</rpm>
</extensions>
</trkpt>
<trkpt lat="64.241905212" lon="-21.185281754">
<ele>109.888672</ele>
<time>2012-07-18T16:58:15Z</time>
<speed>5.810000</speed>
<extensions>
<speed>5.8</speed>
<temp>0.00</temp>
<bpm>0</bpm>
<rpm>0.00</rpm>
</extensions>
</trkpt>
<trkpt lat="64.242095947" lon="-21.185028076">
<ele>113.810547</ele>
<time>2012-07-18T16:58:20Z</time>
<speed>4.560000</speed>
<extensions>
<speed>4.6</speed>
<temp>0.00</temp>
<bpm>0</bpm>
<rpm>0.00</rpm>
</extensions>
</trkpt>
<trkpt lat="64.242248535" lon="-21.184806824">
<ele>114.167969</ele>
<time>2012-07-18T16:58:25Z</time>
<speed>3.700000</speed>
<extensions>
<speed>3.7</speed>
<temp>0.00</temp>
<bpm>0</bpm>
<rpm>0.00</rpm>
</extensions>
</trkpt>
<trkpt lat="64.242378235" lon="-21.184606552">
<ele>114.742188</ele>
<time>2012-07-18T16:58:30Z</time>
<speed>3.650000</speed>
<extensions>
<speed>3.7</speed>
<temp>0.00</temp>
<bpm>0</bpm>
<rpm>0.00</rpm>
</extensions>
</trkpt>
<trkpt lat="64.242515564" lon="-21.184389114">
<ele>116.679688</ele>
<time>2012-07-18T16:58:35Z</time>
<speed>3.900000</speed>
<extensions>
<speed>3.9</speed>
<temp>0.00</temp>
<bpm>0</bpm>
<rpm>0.00</rpm>
</extensions>
</trkpt>
<trkpt lat="64.242652893" lon="-21.184114456">
<ele>116.783203</ele>
<time>2012-07-18T16:58:40Z</time>
<speed>4.240000</speed>
<extensions>
<speed>4.2</speed>
<temp>0.00</temp>
<bpm>0</bpm>
<rpm>0.00</rpm>
</extensions>
</trkpt>
<trkpt lat="64.242805481" lon="-21.183811188">
<ele>118.621094</ele>
<time>2012-07-18T16:58:45Z</time>
<speed>4.610000</speed>
<extensions>
<speed>4.6</speed>
<temp>0.00</temp>
<bpm>0</bpm>
<rpm>0.00</rpm>
</extensions>
</trkpt>
<trkpt lat="64.242958069" lon="-21.183469772">
<ele>117.699219</ele>
<time>2012-07-18T16:58:50Z</time>
<speed>4.900000</speed>
<extensions>
<speed>4.9</speed>
<temp>0.00</temp>
<bpm>0</bpm>
<rpm>0.00</rpm>
</extensions>
</trkpt>
<trkpt lat="64.243095398" lon="-21.183111191">
<ele>118.257813</ele>
<time>2012-07-18T16:58:55Z</time>
<speed>4.470000</speed>
<extensions>
<speed>4.5</speed>
<temp>0.00</temp>
<bpm>0</bpm>
<rpm>0.00</rpm>
</extensions>
</trkpt>
<trkpt lat="64.243225098" lon="-21.182783127">
<ele>118.154297</ele>
<time>2012-07-18T16:59:00Z</time>
<speed>4.610000</speed>
<extensions>
<speed>4.6</speed>
<temp>0.00</temp>
<bpm>0</bpm>
<rpm>0.00</rpm>
</extensions>
</trkpt>
<trkpt lat="64.243354797" lon="-21.182411194">
<ele>117.925781</ele>
<time>2012-07-18T16:59:05Z</time>
<speed>4.810000</speed>
<extensions>
<speed>4.8</speed>
<temp>0.00</temp>
<bpm>0</bpm>
<rpm>0.00</rpm>
</extensions>
</trkpt>
<trkpt lat="64.243484497" lon="-21.181985855">
<ele>117.742188</ele>
<time>2012-07-18T16:59:10Z</time>
<speed>5.210000</speed>
<extensions>
<speed>5.2</speed>
<temp>0.00</temp>
<bpm>0</bpm>
<rpm>0.00</rpm>
</extensions>
</trkpt>
<trkpt lat="64.243606567" lon="-21.181501389">
<ele>117.882813</ele>
<time>2012-07-18T16:59:15Z</time>
<speed>5.540000</speed>
<extensions>
<speed>5.5</speed>
<temp>0.00</temp>
<bpm>0</bpm>
<rpm>0.00</rpm>
</extensions>
</trkpt>
<trkpt lat="64.243743896" lon="-21.181003571">
<ele>118.113281</ele>
<time>2012-07-18T16:59:20Z</time>
<speed>5.680000</speed>
<extensions>
<speed>5.7</speed>
<temp>0.00</temp>
<bpm>0</bpm>
<rpm>0.00</rpm>
</extensions>
</trkpt>
<trkpt lat="64.243850708" lon="-21.180484772">
<ele>115.697266</ele>
<time>2012-07-18T16:59:25Z</time>
<speed>5.490000</speed>
<extensions>
<speed>5.5</speed>
<temp>0.00</temp>
<bpm>0</bpm>
<rpm>0.00</rpm>
</extensions>
</trkpt>
<trkpt lat="64.243980408" lon="-21.179958344">
<ele>116.177734</ele>
<time>2012-07-18T16:59:30Z</time>
<speed>5.940000</speed>
<extensions>
<speed>5.9</speed>
<temp>0.00</temp>
<bpm>0</bpm>
<rpm>0.00</rpm>
</extensions>
</trkpt>
<trkpt lat="64.244110107" lon="-21.179397583">
<ele>116.748047</ele>
<time>2012-07-18T16:59:35Z</time>
<speed>6.090000</speed>
<extensions>
<speed>6.1</speed>
<temp>0.00</temp>
<bpm>0</bpm>
<rpm>0.00</rpm>
</extensions>
</trkpt>
<trkpt lat="64.244239807" lon="-21.178840637">
<ele>116.550781</ele>
<time>2012-07-18T16:59:40Z</time>
<speed>6.110000</speed>
<extensions>
<speed>6.1</speed>
<temp>0.00</temp>
<bpm>0</bpm>
<rpm>0.00</rpm>
</extensions>
</trkpt>
<trkpt lat="64.244369507" lon="-21.178283691">
<ele>116.525391</ele>
<time>2012-07-18T16:59:45Z</time>
<speed>6.130000</speed>
<extensions>
<speed>6.1</speed>
<temp>0.00</temp>
<bpm>0</bpm>
<rpm>0.00</rpm>
</extensions>
</trkpt>
<trkpt lat="64.244499207" lon="-21.177721024">
<ele>116.052734</ele>
<time>2012-07-18T16:59:50Z</time>
<speed>6.130000</speed>
<extensions>
<speed>6.1</speed>
<temp>0.00</temp>
<bpm>0</bpm>
<rpm>0.00</rpm>
</extensions>
</trkpt>
<trkpt lat="64.244628906" lon="-21.177162170">
<ele>116.273438</ele>
<time>2012-07-18T16:59:55Z</time>
<speed>6.170000</speed>
<extensions>
<speed>6.2</speed>
<temp>0.00</temp>
<bpm>0</bpm>
<rpm>0.00</rpm>
</extensions>
</trkpt>
<trkpt lat="64.244758606" lon="-21.176612854">
<ele>116.675781</ele>
<time>2012-07-18T17:00:00Z</time>
<speed>6.160000</speed>
<extensions>
<speed>6.2</speed>
<temp>0.00</temp>
<bpm>0</bpm>
<rpm>0.00</rpm>
</extensions>
</trkpt>
<trkpt lat="64.244895935" lon="-21.176044464">
<ele>116.882813</ele>
<time>2012-07-18T17:00:05Z</time>
<speed>6.320000</speed>
<extensions>
<speed>6.3</speed>
<temp>0.00</temp>
<bpm>0</bpm>
<rpm>0.00</rpm>
</extensions>
</trkpt>
<trkpt lat="64.245025635" lon="-21.175470352">
<ele>116.880859</ele>
<time>2012-07-18T17:00:10Z</time>
<speed>6.290000</speed>
<extensions>
<speed>6.3</speed>
<temp>0.00</temp>
<bpm>0</bpm>
<rpm>0.00</rpm>
</extensions>
</trkpt>
<trkpt lat="64.245162964" lon="-21.174898148">
<ele>116.541016</ele>
<time>2012-07-18T17:00:15Z</time>
<speed>6.180000</speed>
<extensions>
<speed>6.2</speed>
<temp>0.00</temp>
<bpm>0</bpm>
<rpm>0.00</rpm>
</extensions>
</trkpt>
<trkpt lat="64.245285034" lon="-21.174345016">
<ele>114.082031</ele>
<time>2012-07-18T17:00:20Z</time>
<speed>6.070000</speed>
<extensions>
<speed>6.1</speed>
<temp>0.00</temp>
<bpm>0</bpm>
<rpm>0.00</rpm>
</extensions>
</trkpt>
<trkpt lat="64.245422363" lon="-21.173801422">
<ele>113.740234</ele>
<time>2012-07-18T17:00:25Z</time>
<speed>6.110000</speed>
<extensions>
<speed>6.1</speed>
<temp>0.00</temp>
<bpm>0</bpm>
<rpm>0.00</rpm>
</extensions>
</trkpt>
<trkpt lat="64.245559692" lon="-21.173257828">
<ele>114.494141</ele>
<time>2012-07-18T17:00:30Z</time>
<speed>6.010000</speed>
<extensions>
<speed>6.0</speed>
<temp>0.00</temp>
<bpm>0</bpm>
<rpm>0.00</rpm>
</extensions>
</trkpt>
<trkpt lat="64.245666504" lon="-21.172691345">
<ele>116.771484</ele>
<time>2012-07-18T17:00:35Z</time>
<speed>6.130000</speed>
<extensions>
<speed>6.1</speed>
<temp>0.00</temp>
<bpm>0</bpm>
<rpm>0.00</rpm>
</extensions>
</trkpt>
<trkpt lat="64.245796204" lon="-21.172122955">
<ele>116.750000</ele>
<time>2012-07-18T17:00:40Z</time>
<speed>5.970000</speed>
<extensions>
<speed>6.0</speed>
<temp>0.00</temp>
<bpm>0</bpm>
<rpm>0.00</rpm>
</extensions>
</trkpt>
<trkpt lat="64.245910645" lon="-21.171604156">
<ele>117.105469</ele>
<time>2012-07-18T17:00:45Z</time>
<speed>5.610000</speed>
<extensions>
<speed>5.6</speed>
<temp>0.00</temp>
<bpm>0</bpm>
<rpm>0.00</rpm>
</extensions>
</trkpt>
<trkpt lat="64.246025085" lon="-21.171112061">
<ele>118.070313</ele>
<time>2012-07-18T17:00:50Z</time>
<speed>5.360000</speed>
<extensions>
<speed>5.4</speed>
<temp>0.00</temp>
<bpm>0</bpm>
<rpm>0.00</rpm>
</extensions>
</trkpt>
<trkpt lat="64.246139526" lon="-21.170646667">
<ele>119.595703</ele>
<time>2012-07-18T17:00:55Z</time>
<speed>4.840000</speed>
<extensions>
<speed>4.8</speed>
<temp>0.00</temp>
<bpm>0</bpm>
<rpm>0.00</rpm>
</extensions>
</trkpt>
<trkpt lat="64.246231079" lon="-21.170261383">
<ele>121.111328</ele>
<time>2012-07-18T17:01:00Z</time>
<speed>4.280000</speed>
<extensions>
<speed>4.3</speed>
<temp>0.00</temp>
<bpm>0</bpm>
<rpm>0.00</rpm>
</extensions>
</trkpt>
<trkpt lat="64.246322632" lon="-21.169874191">
<ele>122.648438</ele>
<time>2012-07-18T17:01:05Z</time>
<speed>4.500000</speed>
<extensions>
<speed>4.5</speed>
<temp>0.00</temp>
<bpm>0</bpm>
<rpm>0.00</rpm>
</extensions>
</trkpt>
<trkpt lat="64.246421814" lon="-21.169456482">
<ele>122.304688</ele>
<time>2012-07-18T17:01:10Z</time>
<speed>4.750000</speed>
<extensions>
<speed>4.8</speed>
<temp>0.00</temp>
<bpm>0</bpm>
<rpm>0.00</rpm>
</extensions>
</trkpt>
<trkpt lat="64.246528625" lon="-21.169034958">
<ele>121.734375</ele>
<time>2012-07-18T17:01:15Z</time>
<speed>4.850000</speed>
<extensions>
<speed>4.8</speed>
<temp>0.00</temp>
<bpm>0</bpm>
<rpm>0.00</rpm>
</extensions>
</trkpt>
<trkpt lat="64.246643066" lon="-21.168605804">
<ele>120.906250</ele>
<time>2012-07-18T17:01:20Z</time>
<speed>4.900000</speed>
<extensions>
<speed>4.9</speed>
<temp>0.00</temp>
<bpm>0</bpm>
<rpm>0.00</rpm>
</extensions>
</trkpt>
<trkpt lat="64.246749878" lon="-21.168188095">
<ele>121.330078</ele>
<time>2012-07-18T17:01:25Z</time>
<speed>4.850000</speed>
<extensions>
<speed>4.8</speed>
<temp>0.00</temp>
<bpm>0</bpm>
<rpm>0.00</rpm>
</extensions>
</trkpt>
<trkpt lat="64.246856689" lon="-21.167737961">
<ele>120.617188</ele>
<time>2012-07-18T17:01:30Z</time>
<speed>4.820000</speed>
<extensions>
<speed>4.8</speed>
<temp>0.00</temp>
<bpm>0</bpm>
<rpm>0.00</rpm>
</extensions>
</trkpt>
<trkpt lat="64.246971130" lon="-21.167303085">
<ele>127.039063</ele>
<time>2012-07-18T17:01:35Z</time>
<speed>5.130000</speed>
<extensions>
<speed>5.1</speed>
<temp>0.00</temp>
<bpm>0</bpm>
<rpm>0.00</rpm>
</extensions>
</trkpt>
<trkpt lat="64.247093201" lon="-21.166858673">
<ele>128.296875</ele>
<time>2012-07-18T17:01:40Z</time>
<speed>5.180000</speed>
<extensions>
<speed>5.2</speed>
<temp>0.00</temp>
<bpm>0</bpm>
<rpm>0.00</rpm>
</extensions>
</trkpt>
<trkpt lat="64.247207642" lon="-21.166399002">
<ele>127.001953</ele>
<time>2012-07-18T17:01:45Z</time>
<speed>5.240000</speed>
<extensions>
<speed>5.2</speed>
<temp>0.00</temp>
<bpm>0</bpm>
<rpm>0.00</rpm>
</extensions>
</trkpt>
<trkpt lat="64.247337341" lon="-21.165941238">
<ele>126.462891</ele>
<time>2012-07-18T17:01:50Z</time>
<speed>5.160000</speed>
<extensions>
<speed>5.2</speed>
<temp>0.00</temp>
<bpm>0</bpm>
<rpm>0.00</rpm>
</extensions>
</trkpt>
<trkpt lat="64.247467041" lon="-21.165498734">
<ele>126.453125</ele>
<time>2012-07-18T17:01:55Z</time>
<speed>5.210000</speed>
<extensions>
<speed>5.2</speed>
<temp>0.00</temp>
<bpm>0</bpm>
<rpm>0.00</rpm>
</extensions>
</trkpt>
<trkpt lat="64.247596741" lon="-21.165054321">
<ele>127.552734</ele>
<time>2012-07-18T17:02:00Z</time>
<speed>5.290000</speed>
<extensions>
<speed>5.3</speed>
<temp>0.00</temp>
<bpm>0</bpm>
<rpm>0.00</rpm>
</extensions>
</trkpt>
<trkpt lat="64.247734070" lon="-21.164619446">
<ele>128.289063</ele>
<time>2012-07-18T17:02:05Z</time>
<speed>5.000000</speed>
<extensions>
<speed>5.0</speed>
<temp>0.00</temp>
<bpm>0</bpm>
<rpm>0.00</rpm>
</extensions>
</trkpt>
<trkpt lat="64.247871399" lon="-21.164203644">
<ele>127.759766</ele>
<time>2012-07-18T17:02:10Z</time>
<speed>4.970000</speed>
<extensions>
<speed>5.0</speed>
<temp>0.00</temp>
<bpm>0</bpm>
<rpm>0.00</rpm>
</extensions>
</trkpt>
<trkpt lat="64.248008728" lon="-21.163774490">
<ele>126.578125</ele>
<time>2012-07-18T17:02:15Z</time>
<speed>5.330000</speed>
<extensions>
<speed>5.3</speed>
<temp>0.00</temp>
<bpm>0</bpm>
<rpm>0.00</rpm>
</extensions>
</trkpt>
<trkpt lat="64.248153687" lon="-21.163349152">
<ele>128.070313</ele>
<time>2012-07-18T17:02:20Z</time>
<speed>5.350000</speed>
<extensions>
<speed>5.4</speed>
<temp>0.00</temp>
<bpm>0</bpm>
<rpm>0.00</rpm>
</extensions>
</trkpt>
<trkpt lat="64.248306274" lon="-21.162948608">
<ele>128.246094</ele>
<time>2012-07-18T17:02:25Z</time>
<speed>5.170000</speed>
<extensions>
<speed>5.2</speed>
<temp>0.00</temp>
<bpm>0</bpm>
<rpm>0.00</rpm>
</extensions>
</trkpt>
<trkpt lat="64.248466492" lon="-21.162561417">
<ele>129.136719</ele>
<time>2012-07-18T17:02:30Z</time>
<speed>5.060000</speed>
<extensions>
<speed>5.1</speed>
<temp>0.00</temp>
<bpm>0</bpm>
<rpm>0.00</rpm>
</extensions>
</trkpt>
<trkpt lat="64.248619080" lon="-21.162227631">
<ele>123.437500</ele>
<time>2012-07-18T17:02:35Z</time>
<speed>4.320000</speed>
<extensions>
<speed>4.3</speed>
<temp>0.00</temp>
<bpm>0</bpm>
<rpm>0.00</rpm>
</extensions>
</trkpt>
<trkpt lat="64.248733521" lon="-21.161962509">
<ele>124.470703</ele>
<time>2012-07-18T17:02:40Z</time>
<speed>3.040000</speed>
<extensions>
<speed>3.0</speed>
<temp>0.00</temp>
<bpm>0</bpm>
<rpm>0.00</rpm>
</extensions>
</trkpt>
<trkpt lat="64.248840332" lon="-21.161743164">
<ele>126.970703</ele>
<time>2012-07-18T17:02:45Z</time>
<speed>3.440000</speed>
<extensions>
<speed>3.4</speed>
<temp>0.00</temp>
<bpm>0</bpm>
<rpm>0.00</rpm>
</extensions>
</trkpt>
<trkpt lat="64.248970032" lon="-21.161483765">
<ele>129.480469</ele>
<time>2012-07-18T17:02:50Z</time>
<speed>4.080000</speed>
<extensions>
<speed>4.1</speed>
<temp>0.00</temp>
<bpm>0</bpm>
<rpm>0.00</rpm>
</extensions>
</trkpt>
<trkpt lat="64.249122620" lon="-21.161212921">
<ele>129.628906</ele>
<time>2012-07-18T17:02:55Z</time>
<speed>4.360000</speed>
<extensions>
<speed>4.4</speed>
<temp>0.00</temp>
<bpm>0</bpm>
<rpm>0.00</rpm>
</extensions>
</trkpt>
<trkpt lat="64.249275208" lon="-21.160896301">
<ele>129.003906</ele>
<time>2012-07-18T17:03:00Z</time>
<speed>4.780000</speed>
<extensions>
<speed>4.8</speed>
<temp>0.00</temp>
<bpm>0</bpm>
<rpm>0.00</rpm>
</extensions>
</trkpt>
<trkpt lat="64.249435425" lon="-21.160549164">
<ele>128.839844</ele>
<time>2012-07-18T17:03:05Z</time>
<speed>4.940000</speed>
<extensions>
<speed>4.9</speed>
<temp>0.00</temp>
<bpm>0</bpm>
<rpm>0.00</rpm>
</extensions>
</trkpt>
<trkpt lat="64.249603271" lon="-21.160205841">
<ele>128.855469</ele>
<time>2012-07-18T17:03:10Z</time>
<speed>5.070000</speed>
<extensions>
<speed>5.1</speed>
<temp>0.00</temp>
<bpm>0</bpm>
<rpm>0.00</rpm>
</extensions>
</trkpt>
<trkpt lat="64.249755859" lon="-21.159822464">
<ele>128.984375</ele>
<time>2012-07-18T17:03:15Z</time>
<speed>5.010000</speed>
<extensions>
<speed>5.0</speed>
<temp>0.00</temp>
<bpm>0</bpm>
<rpm>0.00</rpm>
</extensions>
</trkpt>
<trkpt lat="64.249916077" lon="-21.159439087">
<ele>128.671875</ele>
<time>2012-07-18T17:03:20Z</time>
<speed>5.010000</speed>
<extensions>
<speed>5.0</speed>
<temp>0.00</temp>
<bpm>0</bpm>
<rpm>0.00</rpm>
</extensions>
</trkpt>
<trkpt lat="64.250068665" lon="-21.159051895">
<ele>129.796875</ele>
<time>2012-07-18T17:03:25Z</time>
<speed>5.030000</speed>
<extensions>
<speed>5.0</speed>
<temp>0.00</temp>
<bpm>0</bpm>
<rpm>0.00</rpm>
</extensions>
</trkpt>
<trkpt lat="64.250205994" lon="-21.158641815">
<ele>129.679688</ele>
<time>2012-07-18T17:03:30Z</time>
<speed>5.080000</speed>
<extensions>
<speed>5.1</speed>
<temp>0.00</temp>
<bpm>0</bpm>
<rpm>0.00</rpm>
</extensions>
</trkpt>
<trkpt lat="64.250343323" lon="-21.158231735">
<ele>129.238281</ele>
<time>2012-07-18T17:03:35Z</time>
<speed>5.080000</speed>
<extensions>
<speed>5.1</speed>
<temp>0.00</temp>
<bpm>0</bpm>
<rpm>0.00</rpm>
</extensions>
</trkpt>
<trkpt lat="64.250488281" lon="-21.157812119">
<ele>129.316406</ele>
<time>2012-07-18T17:03:40Z</time>
<speed>5.130000</speed>
<extensions>
<speed>5.1</speed>
<temp>0.00</temp>
<bpm>0</bpm>
<rpm>0.00</rpm>
</extensions>
</trkpt>
<trkpt lat="64.250625610" lon="-21.157405853">
<ele>129.496094</ele>
<time>2012-07-18T17:03:45Z</time>
<speed>5.140000</speed>
<extensions>
<speed>5.1</speed>
<temp>0.00</temp>
<bpm>0</bpm>
<rpm>0.00</rpm>
</extensions>
</trkpt>
<trkpt lat="64.250770569" lon="-21.156980515">
<ele>129.324219</ele>
<time>2012-07-18T17:03:50Z</time>
<speed>5.200000</speed>
<extensions>
<speed>5.2</speed>
<temp>0.00</temp>
<bpm>0</bpm>
<rpm>0.00</rpm>
</extensions>
</trkpt>
<trkpt lat="64.250915527" lon="-21.156551361">
<ele>129.406250</ele>
<time>2012-07-18T17:03:55Z</time>
<speed>5.320000</speed>
<extensions>
<speed>5.3</speed>
<temp>0.00</temp>
<bpm>0</bpm>
<rpm>0.00</rpm>
</extensions>
</trkpt>
<trkpt lat="64.251068115" lon="-21.156127930">
<ele>129.605469</ele>
<time>2012-07-18T17:04:00Z</time>
<speed>5.320000</speed>
<extensions>
<speed>5.3</speed>
<temp>0.00</temp>
<bpm>0</bpm>
<rpm>0.00</rpm>
</extensions>
</trkpt>
<trkpt lat="64.251220703" lon="-21.155700684">
<ele>129.503906</ele>
<time>2012-07-18T17:04:05Z</time>
<speed>5.280000</speed>
<extensions>
<speed>5.3</speed>
<temp>0.00</temp>
<bpm>0</bpm>
<rpm>0.00</rpm>
</extensions>
</trkpt>
<trkpt lat="64.251373291" lon="-21.155261993">
<ele>129.523438</ele>
<time>2012-07-18T17:04:10Z</time>
<speed>5.380000</speed>
<extensions>
<speed>5.4</speed>
<temp>0.00</temp>
<bpm>0</bpm>
<rpm>0.00</rpm>
</extensions>
</trkpt>
<trkpt lat="64.251518250" lon="-21.154832840">
<ele>129.875000</ele>
<time>2012-07-18T17:04:15Z</time>
<speed>5.290000</speed>
<extensions>
<speed>5.3</speed>
<temp>0.00</temp>
<bpm>0</bpm>
<rpm>0.00</rpm>
</extensions>
</trkpt>
<trkpt lat="64.251670837" lon="-21.154405594">
<ele>130.492188</ele>
<time>2012-07-18T17:04:20Z</time>
<speed>5.380000</speed>
<extensions>
<speed>5.4</speed>
<temp>0.00</temp>
<bpm>0</bpm>
<rpm>0.00</rpm>
</extensions>
</trkpt>
<trkpt lat="64.251823425" lon="-21.153964996">
<ele>130.859375</ele>
<time>2012-07-18T17:04:25Z</time>
<speed>5.360000</speed>
<extensions>
<speed>5.4</speed>
<temp>0.00</temp>
<bpm>0</bpm>
<rpm>0.00</rpm>
</extensions>
</trkpt>
<trkpt lat="64.251983643" lon="-21.153518677">
<ele>133.277344</ele>
<time>2012-07-18T17:04:30Z</time>
<speed>5.470000</speed>
<extensions>
<speed>5.5</speed>
<temp>0.00</temp>
<bpm>0</bpm>
<rpm>0.00</rpm>
</extensions>
</trkpt>
<trkpt lat="64.252128601" lon="-21.153079987">
<ele>133.117188</ele>
<time>2012-07-18T17:04:35Z</time>
<speed>5.480000</speed>
<extensions>
<speed>5.5</speed>
<temp>0.00</temp>
<bpm>0</bpm>
<rpm>0.00</rpm>
</extensions>
</trkpt>
<trkpt lat="64.252258301" lon="-21.152614594">
<ele>132.613281</ele>
<time>2012-07-18T17:04:40Z</time>
<speed>5.340000</speed>
<extensions>
<speed>5.3</speed>
<temp>0.00</temp>
<bpm>0</bpm>
<rpm>0.00</rpm>
</extensions>
</trkpt>
<trkpt lat="64.252372742" lon="-21.152149200">
<ele>132.363281</ele>
<time>2012-07-18T17:04:45Z</time>
<speed>5.360000</speed>
<extensions>
<speed>5.4</speed>
<temp>0.00</temp>
<bpm>0</bpm>
<rpm>0.00</rpm>
</extensions>
</trkpt>
<trkpt lat="64.252487183" lon="-21.151653290">
<ele>132.332031</ele>
<time>2012-07-18T17:04:50Z</time>
<speed>5.440000</speed>
<extensions>
<speed>5.4</speed>
<temp>0.00</temp>
<bpm>0</bpm>
<rpm>0.00</rpm>
</extensions>
</trkpt>
<trkpt lat="64.252601624" lon="-21.151159286">
<ele>132.621094</ele>
<time>2012-07-18T17:04:55Z</time>
<speed>5.220000</speed>
<extensions>
<speed>5.2</speed>
<temp>0.00</temp>
<bpm>0</bpm>
<rpm>0.00</rpm>
</extensions>
</trkpt>
<trkpt lat="64.252700806" lon="-21.150691986">
<ele>132.863281</ele>
<time>2012-07-18T17:05:00Z</time>
<speed>4.820000</speed>
<extensions>
<speed>4.8</speed>
<temp>0.00</temp>
<bpm>0</bpm>
<rpm>0.00</rpm>
</extensions>
</trkpt>
<trkpt lat="64.252784729" lon="-21.150241852">
<ele>133.218750</ele>
<time>2012-07-18T17:05:05Z</time>
<speed>4.730000</speed>
<extensions>
<speed>4.7</speed>
<temp>0.00</temp>
<bpm>0</bpm>
<rpm>0.00</rpm>
</extensions>
</trkpt>
<trkpt lat="64.252876282" lon="-21.149805069">
<ele>133.398438</ele>
<time>2012-07-18T17:05:10Z</time>
<speed>4.620000</speed>
<extensions>
<speed>4.6</speed>
<temp>0.00</temp>
<bpm>0</bpm>
<rpm>0.00</rpm>
</extensions>
</trkpt>
<trkpt lat="64.252967834" lon="-21.149374008">
<ele>133.226563</ele>
<time>2012-07-18T17:05:15Z</time>
<speed>4.720000</speed>
<extensions>
<speed>4.7</speed>
<temp>0.00</temp>
<bpm>0</bpm>
<rpm>0.00</rpm>
</extensions>
</trkpt>
<trkpt lat="64.253067017" lon="-21.148935318">
<ele>133.410156</ele>
<time>2012-07-18T17:05:20Z</time>
<speed>4.810000</speed>
<extensions>
<speed>4.8</speed>
<temp>0.00</temp>
<bpm>0</bpm>
<rpm>0.00</rpm>
</extensions>
</trkpt>
<trkpt lat="64.253166199" lon="-21.148502350">
<ele>133.773438</ele>
<time>2012-07-18T17:05:25Z</time>
<speed>4.850000</speed>
<extensions>
<speed>4.8</speed>
<temp>0.00</temp>
<bpm>0</bpm>
<rpm>0.00</rpm>
</extensions>
</trkpt>
<trkpt lat="64.253280640" lon="-21.148073196">
<ele>133.898438</ele>
<time>2012-07-18T17:05:30Z</time>
<speed>5.000000</speed>
<extensions>
<speed>5.0</speed>
<temp>0.00</temp>
<bpm>0</bpm>
<rpm>0.00</rpm>
</extensions>
</trkpt>
<trkpt lat="64.253395081" lon="-21.147653580">
<ele>133.960938</ele>
<time>2012-07-18T17:05:35Z</time>
<speed>4.420000</speed>
<extensions>
<speed>4.4</speed>
<temp>0.00</temp>
<bpm>0</bpm>
<rpm>0.00</rpm>
</extensions>
</trkpt>
<trkpt lat="64.253494263" lon="-21.147317886">
<ele>134.031250</ele>
<time>2012-07-18T17:05:40Z</time>
<speed>3.380000</speed>
<extensions>
<speed>3.4</speed>
<temp>0.00</temp>
<bpm>0</bpm>
<rpm>0.00</rpm>
</extensions>
</trkpt>
<trkpt lat="64.253547668" lon="-21.147029877">
<ele>133.726563</ele>
<time>2012-07-18T17:05:45Z</time>
<speed>3.120000</speed>
<extensions>
<speed>3.1</speed>
<temp>0.00</temp>
<bpm>0</bpm>
<rpm>0.00</rpm>
</extensions>
</trkpt>
<trkpt lat="64.253623962" lon="-21.146745682">
<ele>133.343750</ele>
<time>2012-07-18T17:05:50Z</time>
<speed>3.240000</speed>
<extensions>
<speed>3.2</speed>
<temp>0.00</temp>
<bpm>0</bpm>
<rpm>0.00</rpm>
</extensions>
</trkpt>
<trkpt lat="64.253684998" lon="-21.146480560">
<ele>133.171875</ele>
<time>2012-07-18T17:05:55Z</time>
<speed>2.470000</speed>
<extensions>
<speed>2.5</speed>
<temp>0.00</temp>
<bpm>0</bpm>
<rpm>0.00</rpm>
</extensions>
</trkpt>
<trkpt lat="64.253692627" lon="-21.146387100">
<ele>130.542969</ele>
<time>2012-07-18T17:06:00Z</time>
<speed>0.200000</speed>
<extensions>
<speed>0.2</speed>
<temp>0.00</temp>
<bpm>0</bpm>
<rpm>0.00</rpm>
</extensions>
</trkpt>
<trkpt lat="64.253692627" lon="-21.146377563">
<ele>130.617188</ele>
<time>2012-07-18T17:06:05Z</time>
<extensions>
<speed>0.0</speed>
<temp>0.00</temp>
<bpm>0</bpm>
<rpm>0.00</rpm>
</extensions>
</trkpt>
<trkpt lat="64.253692627" lon="-21.146379471">
<ele>130.542969</ele>
<time>2012-07-18T17:06:10Z</time>
<extensions>
<speed>0.0</speed>
<temp>0.00</temp>
<bpm>0</bpm>
<rpm>0.00</rpm>
</extensions>
</trkpt>
<trkpt lat="64.253692627" lon="-21.146379471">
<ele>130.527344</ele>
<time>2012-07-18T17:06:15Z</time>
<extensions>
<speed>0.0</speed>
<temp>0.00</temp>
<bpm>0</bpm>
<rpm>0.00</rpm>
</extensions>
</trkpt>
<trkpt lat="64.253692627" lon="-21.146379471">
<ele>130.558594</ele>
<time>2012-07-18T17:06:20Z</time>
<speed>0.010000</speed>
<extensions>
<speed>0.0</speed>
<temp>0.00</temp>
<bpm>0</bpm>
<rpm>0.00</rpm>
</extensions>
</trkpt>
<trkpt lat="64.253692627" lon="-21.146377563">
<ele>130.585938</ele>
<time>2012-07-18T17:06:25Z</time>
<extensions>
<speed>0.0</speed>
<temp>0.00</temp>
<bpm>0</bpm>
<rpm>0.00</rpm>
</extensions>
</trkpt>
<trkpt lat="64.253692627" lon="-21.146377563">
<ele>130.605469</ele>
<time>2012-07-18T17:06:30Z</time>
<extensions>
<speed>0.0</speed>
<temp>0.00</temp>
<bpm>0</bpm>
<rpm>0.00</rpm>
</extensions>
</trkpt>
<trkpt lat="64.253692627" lon="-21.146377563">
<ele>130.601563</ele>
<time>2012-07-18T17:06:35Z</time>
<speed>0.050000</speed>
<extensions>
<speed>0.1</speed>
<temp>0.00</temp>
<bpm>0</bpm>
<rpm>0.00</rpm>
</extensions>
</trkpt>
<trkpt lat="64.253692627" lon="-21.146377563">
<ele>130.605469</ele>
<time>2012-07-18T17:06:40Z</time>
<extensions>
<speed>0.0</speed>
<temp>0.00</temp>
<bpm>0</bpm>
<rpm>0.00</rpm>
</extensions>
</trkpt>
<trkpt lat="64.253692627" lon="-21.146377563">
<ele>130.617188</ele>
<time>2012-07-18T17:06:45Z</time>
<speed>0.010000</speed>
<extensions>
<speed>0.0</speed>
<temp>0.00</temp>
<bpm>0</bpm>
<rpm>0.00</rpm>
</extensions>
</trkpt>
<trkpt lat="64.253692627" lon="-21.146377563">
<ele>130.601563</ele>
<time>2012-07-18T17:06:50Z</time>
<extensions>
<speed>0.0</speed>
<temp>0.00</temp>
<bpm>0</bpm>
<rpm>0.00</rpm>
</extensions>
</trkpt>
<trkpt lat="64.253692627" lon="-21.146375656">
<ele>130.597656</ele>
<time>2012-07-18T17:06:55Z</time>
<extensions>
<speed>0.0</speed>
<temp>0.00</temp>
<bpm>0</bpm>
<rpm>0.00</rpm>
</extensions>
</trkpt>
<trkpt lat="64.253692627" lon="-21.146375656">
<ele>130.625000</ele>
<time>2012-07-18T17:07:00Z</time>
<speed>0.010000</speed>
<extensions>
<speed>0.0</speed>
<temp>0.00</temp>
<bpm>0</bpm>
<rpm>0.00</rpm>
</extensions>
</trkpt>
<trkpt lat="64.253692627" lon="-21.146375656">
<ele>130.617188</ele>
<time>2012-07-18T17:07:05Z</time>
<extensions>
<speed>0.0</speed>
<temp>0.00</temp>
<bpm>0</bpm>
<rpm>0.00</rpm>
</extensions>
</trkpt>
<trkpt lat="64.253692627" lon="-21.146375656">
<ele>130.609375</ele>
<time>2012-07-18T17:07:10Z</time>
<speed>0.040000</speed>
<extensions>
<speed>0.0</speed>
<temp>0.00</temp>
<bpm>0</bpm>
<rpm>0.00</rpm>
</extensions>
</trkpt>
<trkpt lat="64.253692627" lon="-21.146375656">
<ele>130.609375</ele>
<time>2012-07-18T17:07:15Z</time>
<speed>0.160000</speed>
<extensions>
<speed>0.2</speed>
<temp>0.00</temp>
<bpm>0</bpm>
<rpm>0.00</rpm>
</extensions>
</trkpt>
<trkpt lat="64.253715515" lon="-21.146392822">
<ele>130.089844</ele>
<time>2012-07-18T17:07:20Z</time>
<speed>1.180000</speed>
<extensions>
<speed>1.2</speed>
<temp>0.00</temp>
<bpm>0</bpm>
<rpm>0.00</rpm>
</extensions>
</trkpt>
<trkpt lat="64.253791809" lon="-21.146326065">
<ele>130.632813</ele>
<time>2012-07-18T17:07:25Z</time>
<speed>1.530000</speed>
<extensions>
<speed>1.5</speed>
<temp>0.00</temp>
<bpm>0</bpm>
<rpm>0.00</rpm>
</extensions>
</trkpt>
<trkpt lat="64.253868103" lon="-21.146240234">
<ele>129.949219</ele>
<time>2012-07-18T17:07:30Z</time>
<speed>1.610000</speed>
<extensions>
<speed>1.6</speed>
<temp>0.00</temp>
<bpm>0</bpm>
<rpm>0.00</rpm>
</extensions>
</trkpt>
<trkpt lat="64.253929138" lon="-21.146121979">
<ele>129.531250</ele>
<time>2012-07-18T17:07:35Z</time>
<speed>1.100000</speed>
<extensions>
<speed>1.1</speed>
<temp>0.00</temp>
<bpm>0</bpm>
<rpm>0.00</rpm>
</extensions>
</trkpt>
<trkpt lat="64.253974915" lon="-21.145971298">
<ele>130.179688</ele>
<time>2012-07-18T17:07:40Z</time>
<speed>2.240000</speed>
<extensions>
<speed>2.2</speed>
<temp>0.00</temp>
<bpm>0</bpm>
<rpm>0.00</rpm>
</extensions>
</trkpt>
<trkpt lat="64.254043579" lon="-21.145795822">
<ele>130.277344</ele>
<time>2012-07-18T17:07:45Z</time>
<speed>2.590000</speed>
<extensions>
<speed>2.6</speed>
<temp>0.00</temp>
<bpm>0</bpm>
<rpm>0.00</rpm>
</extensions>
</trkpt>
<trkpt lat="64.254127502" lon="-21.145565033">
<ele>130.976563</ele>
<time>2012-07-18T17:07:50Z</time>
<speed>3.060000</speed>
<extensions>
<speed>3.1</speed>
<temp>0.00</temp>
<bpm>0</bpm>
<rpm>0.00</rpm>
</extensions>
</trkpt>
<trkpt lat="64.254203796" lon="-21.145355225">
<ele>131.992188</ele>
<time>2012-07-18T17:07:55Z</time>
<speed>2.010000</speed>
<extensions>
<speed>2.0</speed>
<temp>0.00</temp>
<bpm>0</bpm>
<rpm>0.00</rpm>
</extensions>
</trkpt>
<trkpt lat="64.254287720" lon="-21.145145416">
<ele>132.304688</ele>
<time>2012-07-18T17:08:00Z</time>
<speed>3.350000</speed>
<extensions>
<speed>3.4</speed>
<temp>0.00</temp>
<bpm>0</bpm>
<rpm>0.00</rpm>
</extensions>
</trkpt>
<trkpt lat="64.254379272" lon="-21.144884109">
<ele>131.144531</ele>
<time>2012-07-18T17:08:05Z</time>
<speed>3.180000</speed>
<extensions>
<speed>3.2</speed>
<temp>0.00</temp>
<bpm>0</bpm>
<rpm>0.00</rpm>
</extensions>
</trkpt>
<trkpt lat="64.254493713" lon="-21.144596100">
<ele>133.492188</ele>
<time>2012-07-18T17:08:10Z</time>
<speed>4.080000</speed>
<extensions>
<speed>4.1</speed>
<temp>0.00</temp>
<bpm>0</bpm>
<rpm>0.00</rpm>
</extensions>
</trkpt>
<trkpt lat="64.254608154" lon="-21.144302368">
<ele>135.535156</ele>
<time>2012-07-18T17:08:15Z</time>
<speed>2.880000</speed>
<extensions>
<speed>2.9</speed>
<temp>0.00</temp>
<bpm>0</bpm>
<rpm>0.00</rpm>
</extensions>
</trkpt>
<trkpt lat="64.254692078" lon="-21.144100189">
<ele>135.761719</ele>
<time>2012-07-18T17:08:20Z</time>
<speed>2.970000</speed>
<extensions>
<speed>3.0</speed>
<temp>0.00</temp>
<bpm>0</bpm>
<rpm>0.00</rpm>
</extensions>
</trkpt>
<trkpt lat="64.254776001" lon="-21.143854141">
<ele>136.242188</ele>
<time>2012-07-18T17:08:25Z</time>
<speed>3.270000</speed>
<extensions>
<speed>3.3</speed>
<temp>0.00</temp>
<bpm>0</bpm>
<rpm>0.00</rpm>
</extensions>
</trkpt>
<trkpt lat="64.254867554" lon="-21.143568039">
<ele>135.609375</ele>
<time>2012-07-18T17:08:30Z</time>
<speed>3.740000</speed>
<extensions>
<speed>3.7</speed>
<temp>0.00</temp>
<bpm>0</bpm>
<rpm>0.00</rpm>
</extensions>
</trkpt>
<trkpt lat="64.254989624" lon="-21.143209457">
<ele>138.222656</ele>
<time>2012-07-18T17:08:35Z</time>
<speed>4.380000</speed>
<extensions>
<speed>4.4</speed>
<temp>0.00</temp>
<bpm>0</bpm>
<rpm>0.00</rpm>
</extensions>
</trkpt>
<trkpt lat="64.255134583" lon="-21.142860413">
<ele>137.976563</ele>
<time>2012-07-18T17:08:40Z</time>
<speed>4.230000</speed>
<extensions>
<speed>4.2</speed>
<temp>0.00</temp>
<bpm>0</bpm>
<rpm>0.00</rpm>
</extensions>
</trkpt>
<trkpt lat="64.255279541" lon="-21.142524719">
<ele>138.070313</ele>
<time>2012-07-18T17:08:45Z</time>
<speed>4.570000</speed>
<extensions>
<speed>4.6</speed>
<temp>0.00</temp>
<bpm>0</bpm>
<rpm>0.00</rpm>
</extensions>
</trkpt>
<trkpt lat="64.255416870" lon="-21.142175674">
<ele>138.039063</ele>
<time>2012-07-18T17:08:50Z</time>
<speed>4.860000</speed>
<extensions>
<speed>4.9</speed>
<temp>0.00</temp>
<bpm>0</bpm>
<rpm>0.00</rpm>
</extensions>
</trkpt>
<trkpt lat="64.255577087" lon="-21.141815186">
<ele>136.796875</ele>
<time>2012-07-18T17:08:55Z</time>
<speed>4.670000</speed>
<extensions>
<speed>4.7</speed>
<temp>0.00</temp>
<bpm>0</bpm>
<rpm>0.00</rpm>
</extensions>
</trkpt>
<trkpt lat="64.255729675" lon="-21.141508102">
<ele>135.722656</ele>
<time>2012-07-18T17:09:00Z</time>
<speed>5.070000</speed>
<extensions>
<speed>5.1</speed>
<temp>0.00</temp>
<bpm>0</bpm>
<rpm>0.00</rpm>
</extensions>
</trkpt>
<trkpt lat="64.255912781" lon="-21.141122818">
<ele>135.429688</ele>
<time>2012-07-18T17:09:05Z</time>
<speed>5.940000</speed>
<extensions>
<speed>5.9</speed>
<temp>0.00</temp>
<bpm>0</bpm>
<rpm>0.00</rpm>
</extensions>
</trkpt>
<trkpt lat="64.256118774" lon="-21.140718460">
<ele>135.289063</ele>
<time>2012-07-18T17:09:10Z</time>
<speed>5.830000</speed>
<extensions>
<speed>5.8</speed>
<temp>0.00</temp>
<bpm>0</bpm>
<rpm>0.00</rpm>
</extensions>
</trkpt>
<trkpt lat="64.256340027" lon="-21.140333176">
<ele>136.894531</ele>
<time>2012-07-18T17:09:15Z</time>
<speed>6.430000</speed>
<extensions>
<speed>6.4</speed>
<temp>0.00</temp>
<bpm>0</bpm>
<rpm>0.00</rpm>
</extensions>
</trkpt>
<trkpt lat="64.256561279" lon="-21.139991760">
<ele>137.011719</ele>
<time>2012-07-18T17:09:20Z</time>
<speed>6.020000</speed>
<extensions>
<speed>6.0</speed>
<temp>0.00</temp>
<bpm>0</bpm>
<rpm>0.00</rpm>
</extensions>
</trkpt>
<trkpt lat="64.256774902" lon="-21.139690399">
<ele>137.441406</ele>
<time>2012-07-18T17:09:25Z</time>
<speed>5.800000</speed>
<extensions>
<speed>5.8</speed>
<temp>0.00</temp>
<bpm>0</bpm>
<rpm>0.00</rpm>
</extensions>
</trkpt>
<trkpt lat="64.257011414" lon="-21.139354706">
<ele>138.179688</ele>
<time>2012-07-18T17:09:30Z</time>
<speed>6.220000</speed>
<extensions>
<speed>6.2</speed>
<temp>0.00</temp>
<bpm>0</bpm>
<rpm>0.00</rpm>
</extensions>
</trkpt>
<trkpt lat="64.257225037" lon="-21.139095306">
<ele>139.234375</ele>
<time>2012-07-18T17:09:35Z</time>
<speed>5.030000</speed>
<extensions>
<speed>5.0</speed>
<temp>0.00</temp>
<bpm>0</bpm>
<rpm>0.00</rpm>
</extensions>
</trkpt>
<trkpt lat="64.257438660" lon="-21.138868332">
<ele>137.777344</ele>
<time>2012-07-18T17:09:40Z</time>
<speed>4.860000</speed>
<extensions>
<speed>4.9</speed>
<temp>0.00</temp>
<bpm>0</bpm>
<rpm>0.00</rpm>
</extensions>
</trkpt>
<trkpt lat="64.257637024" lon="-21.138647079">
<ele>134.585938</ele>
<time>2012-07-18T17:09:45Z</time>
<speed>4.780000</speed>
<extensions>
<speed>4.8</speed>
<temp>0.00</temp>
<bpm>0</bpm>
<rpm>0.00</rpm>
</extensions>
</trkpt>
<trkpt lat="64.257827759" lon="-21.138486862">
<ele>134.988281</ele>
<time>2012-07-18T17:09:50Z</time>
<speed>4.880000</speed>
<extensions>
<speed>4.9</speed>
<temp>0.00</temp>
<bpm>0</bpm>
<rpm>0.00</rpm>
</extensions>
</trkpt>
<trkpt lat="64.258018494" lon="-21.138290405">
<ele>134.859375</ele>
<time>2012-07-18T17:09:55Z</time>
<speed>4.960000</speed>
<extensions>
<speed>5.0</speed>
<temp>0.00</temp>
<bpm>0</bpm>
<rpm>0.00</rpm>
</extensions>
</trkpt>
<trkpt lat="64.258224487" lon="-21.138103485">
<ele>134.492188</ele>
<time>2012-07-18T17:10:00Z</time>
<speed>4.900000</speed>
<extensions>
<speed>4.9</speed>
<temp>0.00</temp>
<bpm>0</bpm>
<rpm>0.00</rpm>
</extensions>
</trkpt>
<trkpt lat="64.258422852" lon="-21.137918472">
<ele>133.726563</ele>
<time>2012-07-18T17:10:05Z</time>
<speed>4.720000</speed>
<extensions>
<speed>4.7</speed>
<temp>0.00</temp>
<bpm>0</bpm>
<rpm>0.00</rpm>
</extensions>
</trkpt>
<trkpt lat="64.258575439" lon="-21.137737274">
<ele>132.710938</ele>
<time>2012-07-18T17:10:10Z</time>
<speed>4.600000</speed>
<extensions>
<speed>4.6</speed>
<temp>0.00</temp>
<bpm>0</bpm>
<rpm>0.00</rpm>
</extensions>
</trkpt>
<trkpt lat="64.258766174" lon="-21.137544632">
<ele>133.238281</ele>
<time>2012-07-18T17:10:15Z</time>
<speed>4.890000</speed>
<extensions>
<speed>4.9</speed>
<temp>0.00</temp>
<bpm>0</bpm>
<rpm>0.00</rpm>
</extensions>
</trkpt>
<trkpt lat="64.258956909" lon="-21.137332916">
<ele>132.925781</ele>
<time>2012-07-18T17:10:20Z</time>
<speed>4.890000</speed>
<extensions>
<speed>4.9</speed>
<temp>0.00</temp>
<bpm>0</bpm>
<rpm>0.00</rpm>
</extensions>
</trkpt>
<trkpt lat="64.259147644" lon="-21.137125015">
<ele>130.906250</ele>
<time>2012-07-18T17:10:25Z</time>
<speed>4.660000</speed>
<extensions>
<speed>4.7</speed>
<temp>0.00</temp>
<bpm>0</bpm>
<rpm>0.00</rpm>
</extensions>
</trkpt>
<trkpt lat="64.259338379" lon="-21.136945724">
<ele>132.597656</ele>
<time>2012-07-18T17:10:30Z</time>
<speed>4.260000</speed>
<extensions>
<speed>4.3</speed>
<temp>0.00</temp>
<bpm>0</bpm>
<rpm>0.00</rpm>
</extensions>
</trkpt>
<trkpt lat="64.259506226" lon="-21.136791229">
<ele>133.476563</ele>
<time>2012-07-18T17:10:35Z</time>
<speed>4.360000</speed>
<extensions>
<speed>4.4</speed>
<temp>0.00</temp>
<bpm>0</bpm>
<rpm>0.00</rpm>
</extensions>
</trkpt>
<trkpt lat="64.259681702" lon="-21.136627197">
<ele>133.003906</ele>
<time>2012-07-18T17:10:40Z</time>
<speed>4.940000</speed>
<extensions>
<speed>4.9</speed>
<temp>0.00</temp>
<bpm>0</bpm>
<rpm>0.00</rpm>
</extensions>
</trkpt>
<trkpt lat="64.259895325" lon="-21.136425018">
<ele>132.792969</ele>
<time>2012-07-18T17:10:45Z</time>
<speed>5.080000</speed>
<extensions>
<speed>5.1</speed>
<temp>0.00</temp>
<bpm>0</bpm>
<rpm>0.00</rpm>
</extensions>
</trkpt>
<trkpt lat="64.260086060" lon="-21.136190414">
<ele>131.980469</ele>
<time>2012-07-18T17:10:50Z</time>
<speed>4.920000</speed>
<extensions>
<speed>4.9</speed>
<temp>0.00</temp>
<bpm>0</bpm>
<rpm>0.00</rpm>
</extensions>
</trkpt>
<trkpt lat="64.260299683" lon="-21.135978699">
<ele>132.757813</ele>
<time>2012-07-18T17:10:55Z</time>
<speed>5.460000</speed>
<extensions>
<speed>5.5</speed>
<temp>0.00</temp>
<bpm>0</bpm>
<rpm>0.00</rpm>
</extensions>
</trkpt>
<trkpt lat="64.260513306" lon="-21.135755539">
<ele>132.613281</ele>
<time>2012-07-18T17:11:00Z</time>
<speed>5.410000</speed>
<extensions>
<speed>5.4</speed>
<temp>0.00</temp>
<bpm>0</bpm>
<rpm>0.00</rpm>
</extensions>
</trkpt>
<trkpt lat="64.260726929" lon="-21.135513306">
<ele>132.082031</ele>
<time>2012-07-18T17:11:05Z</time>
<speed>5.630000</speed>
<extensions>
<speed>5.6</speed>
<temp>0.00</temp>
<bpm>0</bpm>
<rpm>0.00</rpm>
</extensions>
</trkpt>
<trkpt lat="64.260955811" lon="-21.135238647">
<ele>133.285156</ele>
<time>2012-07-18T17:11:10Z</time>
<speed>5.740000</speed>
<extensions>
<speed>5.7</speed>
<temp>0.00</temp>
<bpm>0</bpm>
<rpm>0.00</rpm>
</extensions>
</trkpt>
<trkpt lat="64.261177063" lon="-21.135002136">
<ele>134.484375</ele>
<time>2012-07-18T17:11:15Z</time>
<speed>5.380000</speed>
<extensions>
<speed>5.4</speed>
<temp>0.00</temp>
<bpm>0</bpm>
<rpm>0.00</rpm>
</extensions>
</trkpt>
<trkpt lat="64.261398315" lon="-21.134723663">
<ele>137.394531</ele>
<time>2012-07-18T17:11:20Z</time>
<speed>5.830000</speed>
<extensions>
<speed>5.8</speed>
<temp>0.00</temp>
<bpm>0</bpm>
<rpm>0.00</rpm>
</extensions>
</trkpt>
<trkpt lat="64.261596680" lon="-21.134416580">
<ele>137.710938</ele>
<time>2012-07-18T17:11:25Z</time>
<speed>5.770000</speed>
<extensions>
<speed>5.8</speed>
<temp>0.00</temp>
<bpm>0</bpm>
<rpm>0.00</rpm>
</extensions>
</trkpt>
<trkpt lat="64.261795044" lon="-21.134096146">
<ele>135.507813</ele>
<time>2012-07-18T17:11:30Z</time>
<speed>5.660000</speed>
<extensions>
<speed>5.7</speed>
<temp>0.00</temp>
<bpm>0</bpm>
<rpm>0.00</rpm>
</extensions>
</trkpt>
<trkpt lat="64.261993408" lon="-21.133783340">
<ele>134.722656</ele>
<time>2012-07-18T17:11:35Z</time>
<speed>4.960000</speed>
<extensions>
<speed>5.0</speed>
<temp>0.00</temp>
<bpm>0</bpm>
<rpm>0.00</rpm>
</extensions>
</trkpt>
<trkpt lat="64.262161255" lon="-21.133478165">
<ele>136.539063</ele>
<time>2012-07-18T17:11:40Z</time>
<speed>5.180000</speed>
<extensions>
<speed>5.2</speed>
<temp>0.00</temp>
<bpm>0</bpm>
<rpm>0.00</rpm>
</extensions>
</trkpt>
<trkpt lat="64.262344360" lon="-21.133119583">
<ele>137.089844</ele>
<time>2012-07-18T17:11:45Z</time>
<speed>5.750000</speed>
<extensions>
<speed>5.8</speed>
<temp>0.00</temp>
<bpm>0</bpm>
<rpm>0.00</rpm>
</extensions>
</trkpt>
<trkpt lat="64.262519836" lon="-21.132728577">
<ele>137.710938</ele>
<time>2012-07-18T17:11:50Z</time>
<speed>5.520000</speed>
<extensions>
<speed>5.5</speed>
<temp>0.00</temp>
<bpm>0</bpm>
<rpm>0.00</rpm>
</extensions>
</trkpt>
<trkpt lat="64.262695313" lon="-21.132316589">
<ele>137.398438</ele>
<time>2012-07-18T17:11:55Z</time>
<speed>5.840000</speed>
<extensions>
<speed>5.8</speed>
<temp>0.00</temp>
<bpm>0</bpm>
<rpm>0.00</rpm>
</extensions>
</trkpt>
<trkpt lat="64.262886047" lon="-21.131910324">
<ele>137.777344</ele>
<time>2012-07-18T17:12:00Z</time>
<speed>5.950000</speed>
<extensions>
<speed>6.0</speed>
<temp>0.00</temp>
<bpm>0</bpm>
<rpm>0.00</rpm>
</extensions>
</trkpt>
<trkpt lat="64.263076782" lon="-21.131505966">
<ele>139.121094</ele>
<time>2012-07-18T17:12:05Z</time>
<speed>5.470000</speed>
<extensions>
<speed>5.5</speed>
<temp>0.00</temp>
<bpm>0</bpm>
<rpm>0.00</rpm>
</extensions>
</trkpt>
<trkpt lat="64.263244629" lon="-21.131155014">
<ele>138.738281</ele>
<time>2012-07-18T17:12:10Z</time>
<speed>5.540000</speed>
<extensions>
<speed>5.5</speed>
<temp>0.00</temp>
<bpm>0</bpm>
<rpm>0.00</rpm>
</extensions>
</trkpt>
<trkpt lat="64.263427734" lon="-21.130731583">
<ele>138.925781</ele>
<time>2012-07-18T17:12:15Z</time>
<speed>5.850000</speed>
<extensions>
<speed>5.8</speed>
<temp>0.00</temp>
<bpm>0</bpm>
<rpm>0.00</rpm>
</extensions>
</trkpt>
<trkpt lat="64.263610840" lon="-21.130338669">
<ele>140.406250</ele>
<time>2012-07-18T17:12:20Z</time>
<speed>5.730000</speed>
<extensions>
<speed>5.7</speed>
<temp>0.00</temp>
<bpm>0</bpm>
<rpm>0.00</rpm>
</extensions>
</trkpt>
<trkpt lat="64.263801575" lon="-21.129974365">
<ele>141.597656</ele>
<time>2012-07-18T17:12:25Z</time>
<speed>5.110000</speed>
<extensions>
<speed>5.1</speed>
<temp>0.00</temp>
<bpm>0</bpm>
<rpm>0.00</rpm>
</extensions>
</trkpt>
<trkpt lat="64.263969421" lon="-21.129646301">
<ele>141.585938</ele>
<time>2012-07-18T17:12:30Z</time>
<speed>5.310000</speed>
<extensions>
<speed>5.3</speed>
<temp>0.00</temp>
<bpm>0</bpm>
<rpm>0.00</rpm>
</extensions>
</trkpt>
<trkpt lat="64.264122009" lon="-21.129327774">
<ele>140.261719</ele>
<time>2012-07-18T17:12:35Z</time>
<speed>5.260000</speed>
<extensions>
<speed>5.3</speed>
<temp>0.00</temp>
<bpm>0</bpm>
<rpm>0.00</rpm>
</extensions>
</trkpt>
<trkpt lat="64.264282227" lon="-21.129001617">
<ele>137.355469</ele>
<time>2012-07-18T17:12:40Z</time>
<speed>4.820000</speed>
<extensions>
<speed>4.8</speed>
<temp>0.00</temp>
<bpm>0</bpm>
<rpm>0.00</rpm>
</extensions>
</trkpt>
<trkpt lat="64.264465332" lon="-21.128713608">
<ele>136.285156</ele>
<time>2012-07-18T17:12:45Z</time>
<speed>4.970000</speed>
<extensions>
<speed>5.0</speed>
<temp>0.00</temp>
<bpm>0</bpm>
<rpm>0.00</rpm>
</extensions>
</trkpt>
<trkpt lat="64.264671326" lon="-21.128482819">
<ele>135.957031</ele>
<time>2012-07-18T17:12:50Z</time>
<speed>5.110000</speed>
<extensions>
<speed>5.1</speed>
<temp>0.00</temp>
<bpm>0</bpm>
<rpm>0.00</rpm>
</extensions>
</trkpt>
<trkpt lat="64.264854431" lon="-21.128253937">
<ele>138.382813</ele>
<time>2012-07-18T17:12:55Z</time>
<speed>4.730000</speed>
<extensions>
<speed>4.7</speed>
<temp>0.00</temp>
<bpm>0</bpm>
<rpm>0.00</rpm>
</extensions>
</trkpt>
<trkpt lat="64.265045166" lon="-21.128046036">
<ele>135.718750</ele>
<time>2012-07-18T17:13:00Z</time>
<speed>5.000000</speed>
<extensions>
<speed>5.0</speed>
<temp>0.00</temp>
<bpm>0</bpm>
<rpm>0.00</rpm>
</extensions>
</trkpt>
<trkpt lat="64.265274048" lon="-21.127845764">
<ele>137.148438</ele>
<time>2012-07-18T17:13:05Z</time>
<speed>5.150000</speed>
<extensions>
<speed>5.2</speed>
<temp>0.00</temp>
<bpm>0</bpm>
<rpm>0.00</rpm>
</extensions>
</trkpt>
<trkpt lat="64.265480042" lon="-21.127632141">
<ele>137.070313</ele>
<time>2012-07-18T17:13:10Z</time>
<speed>5.470000</speed>
<extensions>
<speed>5.5</speed>
<temp>0.00</temp>
<bpm>0</bpm>
<rpm>0.00</rpm>
</extensions>
</trkpt>
<trkpt lat="64.265716553" lon="-21.127399445">
<ele>136.531250</ele>
<time>2012-07-18T17:13:15Z</time>
<speed>5.830000</speed>
<extensions>
<speed>5.8</speed>
<temp>0.00</temp>
<bpm>0</bpm>
<rpm>0.00</rpm>
</extensions>
</trkpt>
<trkpt lat="64.265953064" lon="-21.127182007">
<ele>137.464844</ele>
<time>2012-07-18T17:13:20Z</time>
<speed>5.360000</speed>
<extensions>
<speed>5.4</speed>
<temp>0.00</temp>
<bpm>0</bpm>
<rpm>0.00</rpm>
</extensions>
</trkpt>
<trkpt lat="64.266136169" lon="-21.126955032">
<ele>137.871094</ele>
<time>2012-07-18T17:13:25Z</time>
<speed>4.810000</speed>
<extensions>
<speed>4.8</speed>
<temp>0.00</temp>
<bpm>0</bpm>
<rpm>0.00</rpm>
</extensions>
</trkpt>
<trkpt lat="64.266319275" lon="-21.126710892">
<ele>137.945313</ele>
<time>2012-07-18T17:13:30Z</time>
<speed>4.490000</speed>
<extensions>
<speed>4.5</speed>
<temp>0.00</temp>
<bpm>0</bpm>
<rpm>0.00</rpm>
</extensions>
</trkpt>
<trkpt lat="64.266510010" lon="-21.126432419">
<ele>136.593750</ele>
<time>2012-07-18T17:13:35Z</time>
<speed>5.420000</speed>
<extensions>
<speed>5.4</speed>
<temp>0.00</temp>
<bpm>0</bpm>
<rpm>0.00</rpm>
</extensions>
</trkpt>
<trkpt lat="64.266723633" lon="-21.126121521">
<ele>137.210938</ele>
<time>2012-07-18T17:13:40Z</time>
<speed>5.580000</speed>
<extensions>
<speed>5.6</speed>
<temp>0.00</temp>
<bpm>0</bpm>
<rpm>0.00</rpm>
</extensions>
</trkpt>
<trkpt lat="64.266906738" lon="-21.125818253">
<ele>138.726563</ele>
<time>2012-07-18T17:13:45Z</time>
<speed>5.170000</speed>
<extensions>
<speed>5.2</speed>
<temp>0.00</temp>
<bpm>0</bpm>
<rpm>0.00</rpm>
</extensions>
</trkpt>
<trkpt lat="64.267105103" lon="-21.125495911">
<ele>138.792969</ele>
<time>2012-07-18T17:13:50Z</time>
<speed>5.710000</speed>
<extensions>
<speed>5.7</speed>
<temp>0.00</temp>
<bpm>0</bpm>
<rpm>0.00</rpm>
</extensions>
</trkpt>
<trkpt lat="64.267280579" lon="-21.125186920">
<ele>139.980469</ele>
<time>2012-07-18T17:13:55Z</time>
<speed>4.770000</speed>
<extensions>
<speed>4.8</speed>
<temp>0.00</temp>
<bpm>0</bpm>
<rpm>0.00</rpm>
</extensions>
</trkpt>
<trkpt lat="64.267425537" lon="-21.124855042">
<ele>140.742188</ele>
<time>2012-07-18T17:14:00Z</time>
<speed>4.130000</speed>
<extensions>
<speed>4.1</speed>
<temp>0.00</temp>
<bpm>0</bpm>
<rpm>0.00</rpm>
</extensions>
</trkpt>
<trkpt lat="64.267570496" lon="-21.124528885">
<ele>140.691406</ele>
<time>2012-07-18T17:14:05Z</time>
<speed>5.360000</speed>
<extensions>
<speed>5.4</speed>
<temp>0.00</temp>
<bpm>0</bpm>
<rpm>0.00</rpm>
</extensions>
</trkpt>
<trkpt lat="64.267730713" lon="-21.124149323">
<ele>140.656250</ele>
<time>2012-07-18T17:14:10Z</time>
<speed>5.250000</speed>
<extensions>
<speed>5.2</speed>
<temp>0.00</temp>
<bpm>0</bpm>
<rpm>0.00</rpm>
</extensions>
</trkpt>
<trkpt lat="64.267875671" lon="-21.123790741">
<ele>140.789063</ele>
<time>2012-07-18T17:14:15Z</time>
<speed>5.120000</speed>
<extensions>
<speed>5.1</speed>
<temp>0.00</temp>
<bpm>0</bpm>
<rpm>0.00</rpm>
</extensions>
</trkpt>
<trkpt lat="64.268020630" lon="-21.123392105">
<ele>141.265625</ele>
<time>2012-07-18T17:14:20Z</time>
<speed>4.580000</speed>
<extensions>
<speed>4.6</speed>
<temp>0.00</temp>
<bpm>0</bpm>
<rpm>0.00</rpm>
</extensions>
</trkpt>
<trkpt lat="64.268165588" lon="-21.123058319">
<ele>140.742188</ele>
<time>2012-07-18T17:14:25Z</time>
<speed>4.640000</speed>
<extensions>
<speed>4.6</speed>
<temp>0.00</temp>
<bpm>0</bpm>
<rpm>0.00</rpm>
</extensions>
</trkpt>
<trkpt lat="64.268302917" lon="-21.122699738">
<ele>140.539063</ele>
<time>2012-07-18T17:14:30Z</time>
<speed>4.660000</speed>
<extensions>
<speed>4.7</speed>
<temp>0.00</temp>
<bpm>0</bpm>
<rpm>0.00</rpm>
</extensions>
</trkpt>
<trkpt lat="64.268447876" lon="-21.122320175">
<ele>142.316406</ele>
<time>2012-07-18T17:14:35Z</time>
<speed>5.060000</speed>
<extensions>
<speed>5.1</speed>
<temp>0.00</temp>
<bpm>0</bpm>
<rpm>0.00</rpm>
</extensions>
</trkpt>
<trkpt lat="64.268577576" lon="-21.121974945">
<ele>140.367188</ele>
<time>2012-07-18T17:14:40Z</time>
<speed>4.460000</speed>
<extensions>
<speed>4.5</speed>
<temp>0.00</temp>
<bpm>0</bpm>
<rpm>0.00</rpm>
</extensions>
</trkpt>
<trkpt lat="64.268722534" lon="-21.121656418">
<ele>142.640625</ele>
<time>2012-07-18T17:14:45Z</time>
<speed>4.550000</speed>
<extensions>
<speed>4.5</speed>
<temp>0.00</temp>
<bpm>0</bpm>
<rpm>0.00</rpm>
</extensions>
</trkpt>
<trkpt lat="64.268852234" lon="-21.121343613">
<ele>144.183594</ele>
<time>2012-07-18T17:14:50Z</time>
<speed>3.890000</speed>
<extensions>
<speed>3.9</speed>
<temp>0.00</temp>
<bpm>0</bpm>
<rpm>0.00</rpm>
</extensions>
</trkpt>
<trkpt lat="64.268959045" lon="-21.121055603">
<ele>144.261719</ele>
<time>2012-07-18T17:14:55Z</time>
<speed>3.770000</speed>
<extensions>
<speed>3.8</speed>
<temp>0.00</temp>
<bpm>0</bpm>
<rpm>0.00</rpm>
</extensions>
</trkpt>
<trkpt lat="64.269058228" lon="-21.120744705">
<ele>142.132813</ele>
<time>2012-07-18T17:15:00Z</time>
<speed>3.860000</speed>
<extensions>
<speed>3.9</speed>
<temp>0.00</temp>
<bpm>0</bpm>
<rpm>0.00</rpm>
</extensions>
</trkpt>
<trkpt lat="64.269180298" lon="-21.120437622">
<ele>142.433594</ele>
<time>2012-07-18T17:15:05Z</time>
<speed>4.030000</speed>
<extensions>
<speed>4.0</speed>
<temp>0.00</temp>
<bpm>0</bpm>
<rpm>0.00</rpm>
</extensions>
</trkpt>
<trkpt lat="64.269309998" lon="-21.120151520">
<ele>143.351563</ele>
<time>2012-07-18T17:15:10Z</time>
<speed>3.340000</speed>
<extensions>
<speed>3.3</speed>
<temp>0.00</temp>
<bpm>0</bpm>
<rpm>0.00</rpm>
</extensions>
</trkpt>
<trkpt lat="64.269401550" lon="-21.119899750">
<ele>139.113281</ele>
<time>2012-07-18T17:15:15Z</time>
<speed>3.230000</speed>
<extensions>
<speed>3.2</speed>
<temp>0.00</temp>
<bpm>0</bpm>
<rpm>0.00</rpm>
</extensions>
</trkpt>
<trkpt lat="64.269515991" lon="-21.119577408">
<ele>135.644531</ele>
<time>2012-07-18T17:15:20Z</time>
<speed>4.790000</speed>
<extensions>
<speed>4.8</speed>
<temp>0.00</temp>
<bpm>0</bpm>
<rpm>0.00</rpm>
</extensions>
</trkpt>
<trkpt lat="64.269630432" lon="-21.119241714">
<ele>136.375000</ele>
<time>2012-07-18T17:15:25Z</time>
<speed>3.970000</speed>
<extensions>
<speed>4.0</speed>
<temp>0.00</temp>
<bpm>0</bpm>
<rpm>0.00</rpm>
</extensions>
</trkpt>
<trkpt lat="64.269744873" lon="-21.118942261">
<ele>137.316406</ele>
<time>2012-07-18T17:15:30Z</time>
<speed>4.330000</speed>
<extensions>
<speed>4.3</speed>
<temp>0.00</temp>
<bpm>0</bpm>
<rpm>0.00</rpm>
</extensions>
</trkpt>
<trkpt lat="64.269882202" lon="-21.118637085">
<ele>139.171875</ele>
<time>2012-07-18T17:15:35Z</time>
<speed>3.750000</speed>
<extensions>
<speed>3.8</speed>
<temp>0.00</temp>
<bpm>0</bpm>
<rpm>0.00</rpm>
</extensions>
</trkpt>
<trkpt lat="64.269981384" lon="-21.118377686">
<ele>138.183594</ele>
<time>2012-07-18T17:15:40Z</time>
<speed>3.210000</speed>
<extensions>
<speed>3.2</speed>
<temp>0.00</temp>
<bpm>0</bpm>
<rpm>0.00</rpm>
</extensions>
</trkpt>
<trkpt lat="64.270088196" lon="-21.118103027">
<ele>138.738281</ele>
<time>2012-07-18T17:15:45Z</time>
<speed>4.010000</speed>
<extensions>
<speed>4.0</speed>
<temp>0.00</temp>
<bpm>0</bpm>
<rpm>0.00</rpm>
</extensions>
</trkpt>
<trkpt lat="64.270225525" lon="-21.117794037">
<ele>139.921875</ele>
<time>2012-07-18T17:15:50Z</time>
<speed>4.810000</speed>
<extensions>
<speed>4.8</speed>
<temp>0.00</temp>
<bpm>0</bpm>
<rpm>0.00</rpm>
</extensions>
</trkpt>
<trkpt lat="64.270355225" lon="-21.117465973">
<ele>139.062500</ele>
<time>2012-07-18T17:15:55Z</time>
<speed>4.200000</speed>
<extensions>
<speed>4.2</speed>
<temp>0.00</temp>
<bpm>0</bpm>
<rpm>0.00</rpm>
</extensions>
</trkpt>
<trkpt lat="64.270484924" lon="-21.117141724">
<ele>138.750000</ele>
<time>2012-07-18T17:16:00Z</time>
<speed>4.960000</speed>
<extensions>
<speed>5.0</speed>
<temp>0.00</temp>
<bpm>0</bpm>
<rpm>0.00</rpm>
</extensions>
</trkpt>
<trkpt lat="64.270652771" lon="-21.116754532">
<ele>139.503906</ele>
<time>2012-07-18T17:16:05Z</time>
<speed>4.950000</speed>
<extensions>
<speed>4.9</speed>
<temp>0.00</temp>
<bpm>0</bpm>
<rpm>0.00</rpm>
</extensions>
</trkpt>
<trkpt lat="64.270805359" lon="-21.116436005">
<ele>138.105469</ele>
<time>2012-07-18T17:16:10Z</time>
<speed>4.630000</speed>
<extensions>
<speed>4.6</speed>
<temp>0.00</temp>
<bpm>0</bpm>
<rpm>0.00</rpm>
</extensions>
</trkpt>
<trkpt lat="64.270950317" lon="-21.116132736">
<ele>138.109375</ele>
<time>2012-07-18T17:16:15Z</time>
<speed>4.570000</speed>
<extensions>
<speed>4.6</speed>
<temp>0.00</temp>
<bpm>0</bpm>
<rpm>0.00</rpm>
</extensions>
</trkpt>
<trkpt lat="64.271095276" lon="-21.115816116">
<ele>137.289063</ele>
<time>2012-07-18T17:16:20Z</time>
<speed>4.170000</speed>
<extensions>
<speed>4.2</speed>
<temp>0.00</temp>
<bpm>0</bpm>
<rpm>0.00</rpm>
</extensions>
</trkpt>
<trkpt lat="64.271240234" lon="-21.115505219">
<ele>136.023438</ele>
<time>2012-07-18T17:16:25Z</time>
<speed>4.840000</speed>
<extensions>
<speed>4.8</speed>
<temp>0.00</temp>
<bpm>0</bpm>
<rpm>0.00</rpm>
</extensions>
</trkpt>
<trkpt lat="64.271423340" lon="-21.115156174">
<ele>135.367188</ele>
<time>2012-07-18T17:16:30Z</time>
<speed>5.650000</speed>
<extensions>
<speed>5.7</speed>
<temp>0.00</temp>
<bpm>0</bpm>
<rpm>0.00</rpm>
</extensions>
</trkpt>
<trkpt lat="64.271629333" lon="-21.114742279">
<ele>134.347656</ele>
<time>2012-07-18T17:16:35Z</time>
<speed>6.550000</speed>
<extensions>
<speed>6.5</speed>
<temp>0.00</temp>
<bpm>0</bpm>
<rpm>0.00</rpm>
</extensions>
</trkpt>
<trkpt lat="64.271827698" lon="-21.114330292">
<ele>133.757813</ele>
<time>2012-07-18T17:16:40Z</time>
<speed>5.600000</speed>
<extensions>
<speed>5.6</speed>
<temp>0.00</temp>
<bpm>0</bpm>
<rpm>0.00</rpm>
</extensions>
</trkpt>
<trkpt lat="64.272018433" lon="-21.113945007">
<ele>133.550781</ele>
<time>2012-07-18T17:16:45Z</time>
<speed>6.110000</speed>
<extensions>
<speed>6.1</speed>
<temp>0.00</temp>
<bpm>0</bpm>
<rpm>0.00</rpm>
</extensions>
</trkpt>
<trkpt lat="64.272209167" lon="-21.113554001">
<ele>133.292969</ele>
<time>2012-07-18T17:16:50Z</time>
<speed>5.380000</speed>
<extensions>
<speed>5.4</speed>
<temp>0.00</temp>
<bpm>0</bpm>
<rpm>0.00</rpm>
</extensions>
</trkpt>
<trkpt lat="64.272399902" lon="-21.113170624">
<ele>134.488281</ele>
<time>2012-07-18T17:16:55Z</time>
<speed>5.810000</speed>
<extensions>
<speed>5.8</speed>
<temp>0.00</temp>
<bpm>0</bpm>
<rpm>0.00</rpm>
</extensions>
</trkpt>
<trkpt lat="64.272598267" lon="-21.112770081">
<ele>136.683594</ele>
<time>2012-07-18T17:17:00Z</time>
<speed>5.930000</speed>
<extensions>
<speed>5.9</speed>
<temp>0.00</temp>
<bpm>0</bpm>
<rpm>0.00</rpm>
</extensions>
</trkpt>
<trkpt lat="64.272781372" lon="-21.112373352">
<ele>136.308594</ele>
<time>2012-07-18T17:17:05Z</time>
<speed>5.440000</speed>
<extensions>
<speed>5.4</speed>
<temp>0.00</temp>
<bpm>0</bpm>
<rpm>0.00</rpm>
</extensions>
</trkpt>
<trkpt lat="64.272979736" lon="-21.111999512">
<ele>137.636719</ele>
<time>2012-07-18T17:17:10Z</time>
<speed>5.630000</speed>
<extensions>
<speed>5.6</speed>
<temp>0.00</temp>
<bpm>0</bpm>
<rpm>0.00</rpm>
</extensions>
</trkpt>
<trkpt lat="64.273162842" lon="-21.111595154">
<ele>138.261719</ele>
<time>2012-07-18T17:17:15Z</time>
<speed>5.770000</speed>
<extensions>
<speed>5.8</speed>
<temp>0.00</temp>
<bpm>0</bpm>
<rpm>0.00</rpm>
</extensions>
</trkpt>
<trkpt lat="64.273353577" lon="-21.111217499">
<ele>138.281250</ele>
<time>2012-07-18T17:17:20Z</time>
<speed>6.000000</speed>
<extensions>
<speed>6.0</speed>
<temp>0.00</temp>
<bpm>0</bpm>
<rpm>0.00</rpm>
</extensions>
</trkpt>
<trkpt lat="64.273536682" lon="-21.110788345">
<ele>138.152344</ele>
<time>2012-07-18T17:17:25Z</time>
<speed>5.830000</speed>
<extensions>
<speed>5.8</speed>
<temp>0.00</temp>
<bpm>0</bpm>
<rpm>0.00</rpm>
</extensions>
</trkpt>
<trkpt lat="64.273735046" lon="-21.110370636">
<ele>138.683594</ele>
<time>2012-07-18T17:17:30Z</time>
<speed>6.030000</speed>
<extensions>
<speed>6.0</speed>
<temp>0.00</temp>
<bpm>0</bpm>
<rpm>0.00</rpm>
</extensions>
</trkpt>
<trkpt lat="64.273941040" lon="-21.109972000">
<ele>136.984375</ele>
<time>2012-07-18T17:17:35Z</time>
<speed>5.630000</speed>
<extensions>
<speed>5.6</speed>
<temp>0.00</temp>
<bpm>0</bpm>
<rpm>0.00</rpm>
</extensions>
</trkpt>
<trkpt lat="64.274124146" lon="-21.109582901">
<ele>137.066406</ele>
<time>2012-07-18T17:17:40Z</time>
<speed>5.470000</speed>
<extensions>
<speed>5.5</speed>
<temp>0.00</temp>
<bpm>0</bpm>
<rpm>0.00</rpm>
</extensions>
</trkpt>
<trkpt lat="64.274299622" lon="-21.109220505">
<ele>136.578125</ele>
<time>2012-07-18T17:17:45Z</time>
<speed>5.280000</speed>
<extensions>
<speed>5.3</speed>
<temp>0.00</temp>
<bpm>0</bpm>
<rpm>0.00</rpm>
</extensions>
</trkpt>
<trkpt lat="64.274482727" lon="-21.108854294">
<ele>137.523438</ele>
<time>2012-07-18T17:17:50Z</time>
<speed>5.150000</speed>
<extensions>
<speed>5.2</speed>
<temp>0.00</temp>
<bpm>0</bpm>
<rpm>0.00</rpm>
</extensions>
</trkpt>
<trkpt lat="64.274658203" lon="-21.108493805">
<ele>138.300781</ele>
<time>2012-07-18T17:17:55Z</time>
<speed>5.330000</speed>
<extensions>
<speed>5.3</speed>
<temp>0.00</temp>
<bpm>0</bpm>
<rpm>0.00</rpm>
</extensions>
</trkpt>
<trkpt lat="64.274818420" lon="-21.108116150">
<ele>140.121094</ele>
<time>2012-07-18T17:18:00Z</time>
<speed>5.080000</speed>
<extensions>
<speed>5.1</speed>
<temp>0.00</temp>
<bpm>0</bpm>
<rpm>0.00</rpm>
</extensions>
</trkpt>
<trkpt lat="64.274978638" lon="-21.107774734">
<ele>141.074219</ele>
<time>2012-07-18T17:18:05Z</time>
<speed>4.980000</speed>
<extensions>
<speed>5.0</speed>
<temp>0.00</temp>
<bpm>0</bpm>
<rpm>0.00</rpm>
</extensions>
</trkpt>
<trkpt lat="64.275146484" lon="-21.107450485">
<ele>141.546875</ele>
<time>2012-07-18T17:18:10Z</time>
<speed>5.040000</speed>
<extensions>
<speed>5.0</speed>
<temp>0.00</temp>
<bpm>0</bpm>
<rpm>0.00</rpm>
</extensions>
</trkpt>
<trkpt lat="64.275299072" lon="-21.107103348">
<ele>140.316406</ele>
<time>2012-07-18T17:18:15Z</time>
<speed>5.100000</speed>
<extensions>
<speed>5.1</speed>
<temp>0.00</temp>
<bpm>0</bpm>
<rpm>0.00</rpm>
</extensions>
</trkpt>
<trkpt lat="64.275466919" lon="-21.106752396">
<ele>139.761719</ele>
<time>2012-07-18T17:18:20Z</time>
<speed>4.830000</speed>
<extensions>
<speed>4.8</speed>
<temp>0.00</temp>
<bpm>0</bpm>
<rpm>0.00</rpm>
</extensions>
</trkpt>
<trkpt lat="64.275627136" lon="-21.106437683">
<ele>140.730469</ele>
<time>2012-07-18T17:18:25Z</time>
<speed>4.710000</speed>
<extensions>
<speed>4.7</speed>
<temp>0.00</temp>
<bpm>0</bpm>
<rpm>0.00</rpm>
</extensions>
</trkpt>
<trkpt lat="64.275779724" lon="-21.106084824">
<ele>143.164063</ele>
<time>2012-07-18T17:18:30Z</time>
<speed>4.670000</speed>
<extensions>
<speed>4.7</speed>
<temp>0.00</temp>
<bpm>0</bpm>
<rpm>0.00</rpm>
</extensions>
</trkpt>
<trkpt lat="64.275939941" lon="-21.105760574">
<ele>140.984375</ele>
<time>2012-07-18T17:18:35Z</time>
<speed>4.810000</speed>
<extensions>
<speed>4.8</speed>
<temp>0.00</temp>
<bpm>0</bpm>
<rpm>0.00</rpm>
</extensions>
</trkpt>
<trkpt lat="64.276107788" lon="-21.105411530">
<ele>141.093750</ele>
<time>2012-07-18T17:18:40Z</time>
<speed>5.280000</speed>
<extensions>
<speed>5.3</speed>
<temp>0.00</temp>
<bpm>0</bpm>
<rpm>0.00</rpm>
</extensions>
</trkpt>
<trkpt lat="64.276275635" lon="-21.104995728">
<ele>138.550781</ele>
<time>2012-07-18T17:18:45Z</time>
<speed>5.550000</speed>
<extensions>
<speed>5.5</speed>
<temp>0.00</temp>
<bpm>0</bpm>
<rpm>0.00</rpm>
</extensions>
</trkpt>
<trkpt lat="64.276443481" lon="-21.104593277">
<ele>138.687500</ele>
<time>2012-07-18T17:18:50Z</time>
<speed>5.640000</speed>
<extensions>
<speed>5.6</speed>
<temp>0.00</temp>
<bpm>0</bpm>
<rpm>0.00</rpm>
</extensions>
</trkpt>
<trkpt lat="64.276611328" lon="-21.104217529">
<ele>137.679688</ele>
<time>2012-07-18T17:18:55Z</time>
<speed>5.640000</speed>
<extensions>
<speed>5.6</speed>
<temp>0.00</temp>
<bpm>0</bpm>
<rpm>0.00</rpm>
</extensions>
</trkpt>
<trkpt lat="64.276794434" lon="-21.103776932">
<ele>136.273438</ele>
<time>2012-07-18T17:19:00Z</time>
<speed>5.880000</speed>
<extensions>
<speed>5.9</speed>
<temp>0.00</temp>
<bpm>0</bpm>
<rpm>0.00</rpm>
</extensions>
</trkpt>
<trkpt lat="64.276977539" lon="-21.103317261">
<ele>137.402344</ele>
<time>2012-07-18T17:19:05Z</time>
<speed>5.980000</speed>
<extensions>
<speed>6.0</speed>
<temp>0.00</temp>
<bpm>0</bpm>
<rpm>0.00</rpm>
</extensions>
</trkpt>
<trkpt lat="64.277160645" lon="-21.102827072">
<ele>139.203125</ele>
<time>2012-07-18T17:19:10Z</time>
<speed>5.960000</speed>
<extensions>
<speed>6.0</speed>
<temp>0.00</temp>
<bpm>0</bpm>
<rpm>0.00</rpm>
</extensions>
</trkpt>
<trkpt lat="64.277313232" lon="-21.102342606">
<ele>139.535156</ele>
<time>2012-07-18T17:19:15Z</time>
<speed>5.510000</speed>
<extensions>
<speed>5.5</speed>
<temp>0.00</temp>
<bpm>0</bpm>
<rpm>0.00</rpm>
</extensions>
</trkpt>
<trkpt lat="64.277435303" lon="-21.101898193">
<ele>137.183594</ele>
<time>2012-07-18T17:19:20Z</time>
<speed>4.990000</speed>
<extensions>
<speed>5.0</speed>
<temp>0.00</temp>
<bpm>0</bpm>
<rpm>0.00</rpm>
</extensions>
</trkpt>
<trkpt lat="64.277549744" lon="-21.101472855">
<ele>134.812500</ele>
<time>2012-07-18T17:19:25Z</time>
<speed>5.070000</speed>
<extensions>
<speed>5.1</speed>
<temp>0.00</temp>
<bpm>0</bpm>
<rpm>0.00</rpm>
</extensions>
</trkpt>
<trkpt lat="64.277671814" lon="-21.101026535">
<ele>134.203125</ele>
<time>2012-07-18T17:19:30Z</time>
<speed>4.760000</speed>
<extensions>
<speed>4.8</speed>
<temp>0.00</temp>
<bpm>0</bpm>
<rpm>0.00</rpm>
</extensions>
</trkpt>
<trkpt lat="64.277770996" lon="-21.100637436">
<ele>132.515625</ele>
<time>2012-07-18T17:19:35Z</time>
<speed>3.890000</speed>
<extensions>
<speed>3.9</speed>
<temp>0.00</temp>
<bpm>0</bpm>
<rpm>0.00</rpm>
</extensions>
</trkpt>
<trkpt lat="64.277877808" lon="-21.100347519">
<ele>134.273438</ele>
<time>2012-07-18T17:19:40Z</time>
<speed>3.030000</speed>
<extensions>
<speed>3.0</speed>
<temp>0.00</temp>
<bpm>0</bpm>
<rpm>0.00</rpm>
</extensions>
</trkpt>
<trkpt lat="64.277847290" lon="-21.100599289">
<ele>133.429688</ele>
<time>2012-07-18T17:19:45Z</time>
<speed>3.660000</speed>
<extensions>
<speed>3.7</speed>
<temp>0.00</temp>
<bpm>0</bpm>
<rpm>0.00</rpm>
</extensions>
</trkpt>
<trkpt lat="64.277786255" lon="-21.100912094">
<ele>132.296875</ele>
<time>2012-07-18T17:19:50Z</time>
<speed>2.640000</speed>
<extensions>
<speed>2.6</speed>
<temp>0.00</temp>
<bpm>0</bpm>
<rpm>0.00</rpm>
</extensions>
</trkpt>
<trkpt lat="64.277725220" lon="-21.101095200">
<ele>132.671875</ele>
<time>2012-07-18T17:19:55Z</time>
<speed>2.120000</speed>
<extensions>
<speed>2.1</speed>
<temp>0.00</temp>
<bpm>0</bpm>
<rpm>0.00</rpm>
</extensions>
</trkpt>
<trkpt lat="64.277702332" lon="-21.100942612">
<ele>132.410156</ele>
<time>2012-07-18T17:20:00Z</time>
<speed>1.750000</speed>
<extensions>
<speed>1.8</speed>
<temp>0.00</temp>
<bpm>0</bpm>
<rpm>0.00</rpm>
</extensions>
</trkpt>
<trkpt lat="64.277702332" lon="-21.100782394">
<ele>132.128906</ele>
<time>2012-07-18T17:20:05Z</time>
<speed>0.170000</speed>
<extensions>
<speed>0.2</speed>
<temp>0.00</temp>
<bpm>0</bpm>
<rpm>0.00</rpm>
</extensions>
</trkpt>
<trkpt lat="64.277702332" lon="-21.100793839">
<ele>132.027344</ele>
<time>2012-07-18T17:20:10Z</time>
<speed>0.150000</speed>
<extensions>
<speed>0.2</speed>
<temp>0.00</temp>
<bpm>0</bpm>
<rpm>0.00</rpm>
</extensions>
</trkpt>
<trkpt lat="64.277694702" lon="-21.100799561">
<ele>131.964844</ele>
<time>2012-07-18T17:20:15Z</time>
<speed>0.180000</speed>
<extensions>
<speed>0.2</speed>
<temp>0.00</temp>
<bpm>0</bpm>
<rpm>0.00</rpm>
</extensions>
</trkpt>
<trkpt lat="64.277694702" lon="-21.100805283">
<ele>131.925781</ele>
<time>2012-07-18T17:20:20Z</time>
<speed>0.050000</speed>
<extensions>
<speed>0.1</speed>
<temp>0.00</temp>
<bpm>0</bpm>
<rpm>0.00</rpm>
</extensions>
</trkpt>
<trkpt lat="64.277694702" lon="-21.100805283">
<ele>131.828125</ele>
<time>2012-07-18T17:20:25Z</time>
<speed>0.010000</speed>
<extensions>
<speed>0.0</speed>
<temp>0.00</temp>
<bpm>0</bpm>
<rpm>0.00</rpm>
</extensions>
</trkpt>
<trkpt lat="64.277694702" lon="-21.100805283">
<ele>131.882813</ele>
<time>2012-07-18T17:20:30Z</time>
<speed>0.170000</speed>
<extensions>
<speed>0.2</speed>
<temp>0.00</temp>
<bpm>0</bpm>
<rpm>0.00</rpm>
</extensions>
</trkpt>
<trkpt lat="64.277694702" lon="-21.100811005">
<ele>132.015625</ele>
<time>2012-07-18T17:20:35Z</time>
<extensions>
<speed>0.0</speed>
<temp>0.00</temp>
<bpm>0</bpm>
<rpm>0.00</rpm>
</extensions>
</trkpt>
<trkpt lat="64.277694702" lon="-21.100809097">
<ele>132.003906</ele>
<time>2012-07-18T17:20:40Z</time>
<speed>0.060000</speed>
<extensions>
<speed>0.1</speed>
<temp>0.00</temp>
<bpm>0</bpm>
<rpm>0.00</rpm>
</extensions>
</trkpt>
<trkpt lat="64.277694702" lon="-21.100811005">
<ele>132.000000</ele>
<time>2012-07-18T17:20:45Z</time>
<speed>0.020000</speed>
<extensions>
<speed>0.0</speed>
<temp>0.00</temp>
<bpm>0</bpm>
<rpm>0.00</rpm>
</extensions>
</trkpt>
<trkpt lat="64.277694702" lon="-21.100811005">
<ele>132.007813</ele>
<time>2012-07-18T17:20:50Z</time>
<extensions>
<speed>0.0</speed>
<temp>0.00</temp>
<bpm>0</bpm>
<rpm>0.00</rpm>
</extensions>
</trkpt>
<trkpt lat="64.277694702" lon="-21.100820541">
<ele>131.941406</ele>
<time>2012-07-18T17:20:55Z</time>
<speed>0.830000</speed>
<extensions>
<speed>0.8</speed>
<temp>0.00</temp>
<bpm>0</bpm>
<rpm>0.00</rpm>
</extensions>
</trkpt>
<trkpt lat="64.277687073" lon="-21.100858688">
<ele>131.191406</ele>
<time>2012-07-18T17:21:00Z</time>
<speed>0.070000</speed>
<extensions>
<speed>0.1</speed>
<temp>0.00</temp>
<bpm>0</bpm>
<rpm>0.00</rpm>
</extensions>
</trkpt>
<trkpt lat="64.277687073" lon="-21.100860596">
<ele>130.781250</ele>
<time>2012-07-18T17:21:05Z</time>
<speed>0.010000</speed>
<extensions>
<speed>0.0</speed>
<temp>0.00</temp>
<bpm>0</bpm>
<rpm>0.00</rpm>
</extensions>
</trkpt>
<trkpt lat="64.277687073" lon="-21.100856781">
<ele>130.625000</ele>
<time>2012-07-18T17:21:10Z</time>
<speed>0.040000</speed>
<extensions>
<speed>0.0</speed>
<temp>0.00</temp>
<bpm>0</bpm>
<rpm>0.00</rpm>
</extensions>
</trkpt>
<trkpt lat="64.277687073" lon="-21.100858688">
<ele>130.605469</ele>
<time>2012-07-18T17:21:15Z</time>
<speed>0.050000</speed>
<extensions>
<speed>0.1</speed>
<temp>0.00</temp>
<bpm>0</bpm>
<rpm>0.00</rpm>
</extensions>
</trkpt>
<trkpt lat="64.277687073" lon="-21.100860596">
<ele>130.675781</ele>
<time>2012-07-18T17:21:20Z</time>
<speed>0.010000</speed>
<extensions>
<speed>0.0</speed>
<temp>0.00</temp>
<bpm>0</bpm>
<rpm>0.00</rpm>
</extensions>
</trkpt>
<trkpt lat="64.277687073" lon="-21.100860596">
<ele>130.710938</ele>
<time>2012-07-18T17:21:25Z</time>
<speed>0.500000</speed>
<extensions>
<speed>0.5</speed>
<temp>0.00</temp>
<bpm>0</bpm>
<rpm>0.00</rpm>
</extensions>
</trkpt>
<trkpt lat="64.277687073" lon="-21.100860596">
<ele>130.441406</ele>
<time>2012-07-18T17:21:30Z</time>
<speed>0.060000</speed>
<extensions>
<speed>0.1</speed>
<temp>0.00</temp>
<bpm>0</bpm>
<rpm>0.00</rpm>
</extensions>
</trkpt>
<trkpt lat="64.277687073" lon="-21.100864410">
<ele>130.335938</ele>
<time>2012-07-18T17:21:35Z</time>
<speed>0.060000</speed>
<extensions>
<speed>0.1</speed>
<temp>0.00</temp>
<bpm>0</bpm>
<rpm>0.00</rpm>
</extensions>
</trkpt>
<trkpt lat="64.277687073" lon="-21.100868225">
<ele>130.308594</ele>
<time>2012-07-18T17:21:40Z</time>
<speed>0.140000</speed>
<extensions>
<speed>0.1</speed>
<temp>0.00</temp>
<bpm>0</bpm>
<rpm>0.00</rpm>
</extensions>
</trkpt>
<trkpt lat="64.277694702" lon="-21.100904465">
<ele>130.406250</ele>
<time>2012-07-18T17:21:45Z</time>
<speed>0.800000</speed>
<extensions>
<speed>0.8</speed>
<temp>0.00</temp>
<bpm>0</bpm>
<rpm>0.00</rpm>
</extensions>
</trkpt>
<trkpt lat="64.277717590" lon="-21.100847244">
<ele>130.871094</ele>
<time>2012-07-18T17:21:50Z</time>
<speed>0.480000</speed>
<extensions>
<speed>0.5</speed>
<temp>0.00</temp>
<bpm>0</bpm>
<rpm>0.00</rpm>
</extensions>
</trkpt>
<trkpt lat="64.277717590" lon="-21.100831985">
<ele>131.402344</ele>
<time>2012-07-18T17:21:55Z</time>
<speed>0.120000</speed>
<extensions>
<speed>0.1</speed>
<temp>0.00</temp>
<bpm>0</bpm>
<rpm>0.00</rpm>
</extensions>
</trkpt>
<trkpt lat="64.277717590" lon="-21.100826263">
<ele>131.546875</ele>
<time>2012-07-18T17:22:00Z</time>
<speed>0.080000</speed>
<extensions>
<speed>0.1</speed>
<temp>0.00</temp>
<bpm>0</bpm>
<rpm>0.00</rpm>
</extensions>
</trkpt>
<trkpt lat="64.277732849" lon="-21.100772858">
<ele>132.011719</ele>
<time>2012-07-18T17:22:05Z</time>
<speed>0.960000</speed>
<extensions>
<speed>1.0</speed>
<temp>0.00</temp>
<bpm>0</bpm>
<rpm>0.00</rpm>
</extensions>
</trkpt>
<trkpt lat="64.277755737" lon="-21.100627899">
<ele>132.246094</ele>
<time>2012-07-18T17:22:10Z</time>
<speed>1.690000</speed>
<extensions>
<speed>1.7</speed>
<temp>0.00</temp>
<bpm>0</bpm>
<rpm>0.00</rpm>
</extensions>
</trkpt>
<trkpt lat="64.277786255" lon="-21.100437164">
<ele>132.007813</ele>
<time>2012-07-18T17:22:15Z</time>
<speed>2.510000</speed>
<extensions>
<speed>2.5</speed>
<temp>0.00</temp>
<bpm>0</bpm>
<rpm>0.00</rpm>
</extensions>
</trkpt>
<trkpt lat="64.277862549" lon="-21.100175858">
<ele>132.597656</ele>
<time>2012-07-18T17:22:20Z</time>
<speed>2.840000</speed>
<extensions>
<speed>2.8</speed>
<temp>0.00</temp>
<bpm>0</bpm>
<rpm>0.00</rpm>
</extensions>
</trkpt>
<trkpt lat="64.277908325" lon="-21.099895477">
<ele>132.218750</ele>
<time>2012-07-18T17:22:25Z</time>
<speed>3.190000</speed>
<extensions>
<speed>3.2</speed>
<temp>0.00</temp>
<bpm>0</bpm>
<rpm>0.00</rpm>
</extensions>
</trkpt>
<trkpt lat="64.277969360" lon="-21.099666595">
<ele>133.039063</ele>
<time>2012-07-18T17:22:30Z</time>
<speed>1.330000</speed>
<extensions>
<speed>1.3</speed>
<temp>0.00</temp>
<bpm>0</bpm>
<rpm>0.00</rpm>
</extensions>
</trkpt>
<trkpt lat="64.278015137" lon="-21.099533081">
<ele>134.207031</ele>
<time>2012-07-18T17:22:35Z</time>
<speed>1.920000</speed>
<extensions>
<speed>1.9</speed>
<temp>0.00</temp>
<bpm>0</bpm>
<rpm>0.00</rpm>
</extensions>
</trkpt>
<trkpt lat="64.278076172" lon="-21.099304199">
<ele>133.828125</ele>
<time>2012-07-18T17:22:40Z</time>
<speed>3.170000</speed>
<extensions>
<speed>3.2</speed>
<temp>0.00</temp>
<bpm>0</bpm>
<rpm>0.00</rpm>
</extensions>
</trkpt>
<trkpt lat="64.278160095" lon="-21.098949432">
<ele>133.449219</ele>
<time>2012-07-18T17:22:45Z</time>
<speed>4.700000</speed>
<extensions>
<speed>4.7</speed>
<temp>0.00</temp>
<bpm>0</bpm>
<rpm>0.00</rpm>
</extensions>
</trkpt>
<trkpt lat="64.278297424" lon="-21.098434448">
<ele>131.710938</ele>
<time>2012-07-18T17:22:50Z</time>
<speed>6.530000</speed>
<extensions>
<speed>6.5</speed>
<temp>0.00</temp>
<bpm>0</bpm>
<rpm>0.00</rpm>
</extensions>
</trkpt>
<trkpt lat="64.278411865" lon="-21.097946167">
<ele>129.660156</ele>
<time>2012-07-18T17:22:55Z</time>
<speed>4.990000</speed>
<extensions>
<speed>5.0</speed>
<temp>0.00</temp>
<bpm>0</bpm>
<rpm>0.00</rpm>
</extensions>
</trkpt>
<trkpt lat="64.278526306" lon="-21.097484589">
<ele>127.507813</ele>
<time>2012-07-18T17:23:00Z</time>
<speed>5.420000</speed>
<extensions>
<speed>5.4</speed>
<temp>0.00</temp>
<bpm>0</bpm>
<rpm>0.00</rpm>
</extensions>
</trkpt>
<trkpt lat="64.278640747" lon="-21.096952438">
<ele>125.085938</ele>
<time>2012-07-18T17:23:05Z</time>
<speed>5.670000</speed>
<extensions>
<speed>5.7</speed>
<temp>0.00</temp>
<bpm>0</bpm>
<rpm>0.00</rpm>
</extensions>
</trkpt>
<trkpt lat="64.278778076" lon="-21.096418381">
<ele>124.349609</ele>
<time>2012-07-18T17:23:10Z</time>
<speed>6.390000</speed>
<extensions>
<speed>6.4</speed>
<temp>0.00</temp>
<bpm>0</bpm>
<rpm>0.00</rpm>
</extensions>
</trkpt>
<trkpt lat="64.278900146" lon="-21.095806122">
<ele>122.884766</ele>
<time>2012-07-18T17:23:15Z</time>
<speed>6.960000</speed>
<extensions>
<speed>7.0</speed>
<temp>0.00</temp>
<bpm>0</bpm>
<rpm>0.00</rpm>
</extensions>
</trkpt>
<trkpt lat="64.279037476" lon="-21.095094681">
<ele>120.816406</ele>
<time>2012-07-18T17:23:20Z</time>
<speed>7.950000</speed>
<extensions>
<speed>8.0</speed>
<temp>0.00</temp>
<bpm>0</bpm>
<rpm>0.00</rpm>
</extensions>
</trkpt>
<trkpt lat="64.279159546" lon="-21.094263077">
<ele>118.345703</ele>
<time>2012-07-18T17:23:25Z</time>
<speed>9.100000</speed>
<extensions>
<speed>9.1</speed>
<temp>0.00</temp>
<bpm>0</bpm>
<rpm>0.00</rpm>
</extensions>
</trkpt>
<trkpt lat="64.279273987" lon="-21.093303680">
<ele>116.605469</ele>
<time>2012-07-18T17:23:30Z</time>
<speed>9.880000</speed>
<extensions>
<speed>9.9</speed>
<temp>0.00</temp>
<bpm>0</bpm>
<rpm>0.00</rpm>
</extensions>
</trkpt>
<trkpt lat="64.279304504" lon="-21.092304230">
<ele>114.742188</ele>
<time>2012-07-18T17:23:35Z</time>
<speed>9.230000</speed>
<extensions>
<speed>9.2</speed>
<temp>0.00</temp>
<bpm>0</bpm>
<rpm>0.00</rpm>
</extensions>
</trkpt>
<trkpt lat="64.279296875" lon="-21.091394424">
<ele>112.119141</ele>
<time>2012-07-18T17:23:40Z</time>
<speed>8.180000</speed>
<extensions>
<speed>8.2</speed>
<temp>0.00</temp>
<bpm>0</bpm>
<rpm>0.00</rpm>
</extensions>
</trkpt>
<trkpt lat="64.279273987" lon="-21.090578079">
<ele>111.390625</ele>
<time>2012-07-18T17:23:45Z</time>
<speed>7.430000</speed>
<extensions>
<speed>7.4</speed>
<temp>0.00</temp>
<bpm>0</bpm>
<rpm>0.00</rpm>
</extensions>
</trkpt>
<trkpt lat="64.279281616" lon="-21.089849472">
<ele>112.685547</ele>
<time>2012-07-18T17:23:50Z</time>
<speed>5.460000</speed>
<extensions>
<speed>5.5</speed>
<temp>0.00</temp>
<bpm>0</bpm>
<rpm>0.00</rpm>
</extensions>
</trkpt>
<trkpt lat="64.279289246" lon="-21.089570999">
<ele>111.712891</ele>
<time>2012-07-18T17:23:55Z</time>
<speed>1.760000</speed>
<extensions>
<speed>1.8</speed>
<temp>0.00</temp>
<bpm>0</bpm>
<rpm>0.00</rpm>
</extensions>
</trkpt>
<trkpt lat="64.279296875" lon="-21.089399338">
<ele>113.845703</ele>
<time>2012-07-18T17:24:00Z</time>
<speed>1.760000</speed>
<extensions>
<speed>1.8</speed>
<temp>0.00</temp>
<bpm>0</bpm>
<rpm>0.00</rpm>
</extensions>
</trkpt>
<trkpt lat="64.279418945" lon="-21.089220047">
<ele>114.869141</ele>
<time>2012-07-18T17:24:05Z</time>
<speed>3.490000</speed>
<extensions>
<speed>3.5</speed>
<temp>0.00</temp>
<bpm>0</bpm>
<rpm>0.00</rpm>
</extensions>
</trkpt>
<trkpt lat="64.279548645" lon="-21.088987350">
<ele>115.464844</ele>
<time>2012-07-18T17:24:10Z</time>
<speed>4.040000</speed>
<extensions>
<speed>4.0</speed>
<temp>0.00</temp>
<bpm>0</bpm>
<rpm>0.00</rpm>
</extensions>
</trkpt>
<trkpt lat="64.279624939" lon="-21.088623047">
<ele>113.757813</ele>
<time>2012-07-18T17:24:15Z</time>
<speed>3.900000</speed>
<extensions>
<speed>3.9</speed>
<temp>0.00</temp>
<bpm>0</bpm>
<rpm>0.00</rpm>
</extensions>
</trkpt>
<trkpt lat="64.279632568" lon="-21.088224411">
<ele>112.593750</ele>
<time>2012-07-18T17:24:20Z</time>
<speed>3.040000</speed>
<extensions>
<speed>3.0</speed>
<temp>0.00</temp>
<bpm>0</bpm>
<rpm>0.00</rpm>
</extensions>
</trkpt>
<trkpt lat="64.279724121" lon="-21.088039398">
<ele>112.861328</ele>
<time>2012-07-18T17:24:25Z</time>
<speed>2.040000</speed>
<extensions>
<speed>2.0</speed>
<temp>0.00</temp>
<bpm>0</bpm>
<rpm>0.00</rpm>
</extensions>
</trkpt>
<trkpt lat="64.279769897" lon="-21.087974548">
<ele>112.556641</ele>
<time>2012-07-18T17:24:30Z</time>
<speed>0.350000</speed>
<extensions>
<speed>0.3</speed>
<temp>0.00</temp>
<bpm>0</bpm>
<rpm>0.00</rpm>
</extensions>
</trkpt>
<trkpt lat="64.279762268" lon="-21.087957382">
<ele>111.957031</ele>
<time>2012-07-18T17:24:35Z</time>
<speed>0.470000</speed>
<extensions>
<speed>0.5</speed>
<temp>0.00</temp>
<bpm>0</bpm>
<rpm>0.00</rpm>
</extensions>
</trkpt>
<trkpt lat="64.279792786" lon="-21.087862015">
<ele>112.048828</ele>
<time>2012-07-18T17:24:40Z</time>
<speed>1.990000</speed>
<extensions>
<speed>2.0</speed>
<temp>0.00</temp>
<bpm>0</bpm>
<rpm>0.00</rpm>
</extensions>
</trkpt>
<trkpt lat="64.279823303" lon="-21.087833405">
<ele>114.529297</ele>
<time>2012-07-18T17:24:45Z</time>
<speed>0.650000</speed>
<extensions>
<speed>0.6</speed>
<temp>0.00</temp>
<bpm>0</bpm>
<rpm>0.00</rpm>
</extensions>
</trkpt>
<trkpt lat="64.279830933" lon="-21.087842941">
<ele>116.414063</ele>
<time>2012-07-18T17:24:50Z</time>
<speed>0.110000</speed>
<extensions>
<speed>0.1</speed>
<temp>0.00</temp>
<bpm>0</bpm>
<rpm>0.00</rpm>
</extensions>
</trkpt>
<trkpt lat="64.279846191" lon="-21.087829590">
<ele>117.273438</ele>
<time>2012-07-18T17:24:55Z</time>
<speed>0.350000</speed>
<extensions>
<speed>0.3</speed>
<temp>0.00</temp>
<bpm>0</bpm>
<rpm>0.00</rpm>
</extensions>
</trkpt>
<trkpt lat="64.279846191" lon="-21.087821960">
<ele>117.457031</ele>
<time>2012-07-18T17:25:00Z</time>
<speed>0.170000</speed>
<extensions>
<speed>0.2</speed>
<temp>0.00</temp>
<bpm>0</bpm>
<rpm>0.00</rpm>
</extensions>
</trkpt>
<trkpt lat="64.279853821" lon="-21.087814331">
<ele>117.595703</ele>
<time>2012-07-18T17:25:05Z</time>
<speed>0.390000</speed>
<extensions>
<speed>0.4</speed>
<temp>0.00</temp>
<bpm>0</bpm>
<rpm>0.00</rpm>
</extensions>
</trkpt>
<trkpt lat="64.279853821" lon="-21.087800980">
<ele>118.082031</ele>
<time>2012-07-18T17:25:10Z</time>
<speed>0.040000</speed>
<extensions>
<speed>0.0</speed>
<temp>0.00</temp>
<bpm>0</bpm>
<rpm>0.00</rpm>
</extensions>
</trkpt>
<trkpt lat="64.279853821" lon="-21.087800980">
<ele>118.054688</ele>
<time>2012-07-18T17:25:15Z</time>
<speed>0.030000</speed>
<extensions>
<speed>0.0</speed>
<temp>0.00</temp>
<bpm>0</bpm>
<rpm>0.00</rpm>
</extensions>
</trkpt>
<trkpt lat="64.279853821" lon="-21.087757111">
<ele>118.087891</ele>
<time>2012-07-18T17:25:20Z</time>
<speed>0.110000</speed>
<extensions>
<speed>0.1</speed>
<temp>0.00</temp>
<bpm>0</bpm>
<rpm>0.00</rpm>
</extensions>
</trkpt>
<trkpt lat="64.279861450" lon="-21.087757111">
<ele>117.835938</ele>
<time>2012-07-18T17:25:25Z</time>
<speed>0.230000</speed>
<extensions>
<speed>0.2</speed>
<temp>0.00</temp>
<bpm>0</bpm>
<rpm>0.00</rpm>
</extensions>
</trkpt>
<trkpt lat="64.279861450" lon="-21.087753296">
<ele>117.761719</ele>
<time>2012-07-18T17:25:30Z</time>
<speed>0.370000</speed>
<extensions>
<speed>0.4</speed>
<temp>0.00</temp>
<bpm>0</bpm>
<rpm>0.00</rpm>
</extensions>
</trkpt>
<trkpt lat="64.279830933" lon="-21.087875366">
<ele>116.505859</ele>
<time>2012-07-18T17:25:35Z</time>
<speed>0.400000</speed>
<extensions>
<speed>0.4</speed>
<temp>0.00</temp>
<bpm>0</bpm>
<rpm>0.00</rpm>
</extensions>
</trkpt>
<trkpt lat="64.279823303" lon="-21.087959290">
<ele>116.132813</ele>
<time>2012-07-18T17:25:40Z</time>
<speed>0.140000</speed>
<extensions>
<speed>0.1</speed>
<temp>0.00</temp>
<bpm>0</bpm>
<rpm>0.00</rpm>
</extensions>
</trkpt>
<trkpt lat="64.279823303" lon="-21.087976456">
<ele>116.089844</ele>
<time>2012-07-18T17:25:45Z</time>
<speed>0.120000</speed>
<extensions>
<speed>0.1</speed>
<temp>0.00</temp>
<bpm>0</bpm>
<rpm>0.00</rpm>
</extensions>
</trkpt>
<trkpt lat="64.279823303" lon="-21.087991714">
<ele>116.003906</ele>
<time>2012-07-18T17:25:50Z</time>
<speed>0.130000</speed>
<extensions>
<speed>0.1</speed>
<temp>0.00</temp>
<bpm>0</bpm>
<rpm>0.00</rpm>
</extensions>
</trkpt>
<trkpt lat="64.279823303" lon="-21.088006973">
<ele>115.919922</ele>
<time>2012-07-18T17:25:55Z</time>
<speed>0.180000</speed>
<extensions>
<speed>0.2</speed>
<temp>0.00</temp>
<bpm>0</bpm>
<rpm>0.00</rpm>
</extensions>
</trkpt>
<trkpt lat="64.279830933" lon="-21.088022232">
<ele>115.835938</ele>
<time>2012-07-18T17:26:00Z</time>
<speed>0.080000</speed>
<extensions>
<speed>0.1</speed>
<temp>0.00</temp>
<bpm>0</bpm>
<rpm>0.00</rpm>
</extensions>
</trkpt>
<trkpt lat="64.279830933" lon="-21.088029861">
<ele>115.751953</ele>
<time>2012-07-18T17:26:05Z</time>
<speed>0.110000</speed>
<extensions>
<speed>0.1</speed>
<temp>0.00</temp>
<bpm>0</bpm>
<rpm>0.00</rpm>
</extensions>
</trkpt>
<trkpt lat="64.279785156" lon="-21.088132858">
<ele>104.769531</ele>
<time>2012-07-18T17:27:04Z</time>
<speed>0.200000</speed>
<extensions>
<speed>0.2</speed>
<temp>0.00</temp>
<bpm>0</bpm>
<rpm>0.00</rpm>
</extensions>
</trkpt>
<trkpt lat="64.279762268" lon="-21.088169098">
<ele>105.816406</ele>
<time>2012-07-18T17:27:09Z</time>
<speed>0.120000</speed>
<extensions>
<speed>0.1</speed>
<temp>0.00</temp>
<bpm>0</bpm>
<rpm>0.00</rpm>
</extensions>
</trkpt>
<trkpt lat="64.279762268" lon="-21.088176727">
<ele>105.804688</ele>
<time>2012-07-18T17:27:14Z</time>
<speed>0.060000</speed>
<extensions>
<speed>0.1</speed>
<temp>0.00</temp>
<bpm>0</bpm>
<rpm>0.00</rpm>
</extensions>
</trkpt>
<trkpt lat="64.279762268" lon="-21.088188171">
<ele>105.804688</ele>
<time>2012-07-18T17:27:19Z</time>
<speed>0.090000</speed>
<extensions>
<speed>0.1</speed>
<temp>0.00</temp>
<bpm>0</bpm>
<rpm>0.00</rpm>
</extensions>
</trkpt>
<trkpt lat="64.279762268" lon="-21.088193893">
<ele>105.796875</ele>
<time>2012-07-18T17:27:24Z</time>
<speed>0.040000</speed>
<extensions>
<speed>0.0</speed>
<temp>0.00</temp>
<bpm>0</bpm>
<rpm>0.00</rpm>
</extensions>
</trkpt>
<trkpt lat="64.279785156" lon="-21.088150024">
<ele>105.644531</ele>
<time>2012-07-18T17:27:29Z</time>
<speed>0.400000</speed>
<extensions>
<speed>0.4</speed>
<temp>0.00</temp>
<bpm>0</bpm>
<rpm>0.00</rpm>
</extensions>
</trkpt>
<trkpt lat="64.279792786" lon="-21.088117599">
<ele>105.570313</ele>
<time>2012-07-18T17:27:34Z</time>
<speed>0.140000</speed>
<extensions>
<speed>0.1</speed>
<temp>0.00</temp>
<bpm>0</bpm>
<rpm>0.00</rpm>
</extensions>
</trkpt>
<trkpt lat="64.279853821" lon="-21.088043213">
<ele>107.843750</ele>
<time>2012-07-18T17:27:39Z</time>
<speed>0.370000</speed>
<extensions>
<speed>0.4</speed>
<temp>0.00</temp>
<bpm>0</bpm>
<rpm>0.00</rpm>
</extensions>
</trkpt>
<trkpt lat="64.279830933" lon="-21.087976456">
<ele>109.494141</ele>
<time>2012-07-18T17:27:44Z</time>
<speed>0.140000</speed>
<extensions>
<speed>0.1</speed>
<temp>0.00</temp>
<bpm>0</bpm>
<rpm>0.00</rpm>
</extensions>
</trkpt>
<trkpt lat="64.279838562" lon="-21.087879181">
<ele>109.062500</ele>
<time>2012-07-18T17:27:49Z</time>
<speed>0.960000</speed>
<extensions>
<speed>1.0</speed>
<temp>0.00</temp>
<bpm>0</bpm>
<rpm>0.00</rpm>
</extensions>
</trkpt>
<trkpt lat="64.279861450" lon="-21.087686539">
<ele>108.867188</ele>
<time>2012-07-18T17:27:54Z</time>
<speed>0.950000</speed>
<extensions>
<speed>1.0</speed>
<temp>0.00</temp>
<bpm>0</bpm>
<rpm>0.00</rpm>
</extensions>
</trkpt>
<trkpt lat="64.279876709" lon="-21.087511063">
<ele>110.166016</ele>
<time>2012-07-18T17:27:59Z</time>
<speed>0.980000</speed>
<extensions>
<speed>1.0</speed>
<temp>0.00</temp>
<bpm>0</bpm>
<rpm>0.00</rpm>
</extensions>
</trkpt>
<trkpt lat="64.279907227" lon="-21.087352753">
<ele>112.847656</ele>
<time>2012-07-18T17:28:04Z</time>
<speed>1.070000</speed>
<extensions>
<speed>1.1</speed>
<temp>0.00</temp>
<bpm>0</bpm>
<rpm>0.00</rpm>
</extensions>
</trkpt>
<trkpt lat="64.279907227" lon="-21.087259293">
<ele>113.611328</ele>
<time>2012-07-18T17:28:09Z</time>
<speed>0.360000</speed>
<extensions>
<speed>0.4</speed>
<temp>0.00</temp>
<bpm>0</bpm>
<rpm>0.00</rpm>
</extensions>
</trkpt>
<trkpt lat="64.279914856" lon="-21.087215424">
<ele>114.613281</ele>
<time>2012-07-18T17:28:14Z</time>
<speed>0.480000</speed>
<extensions>
<speed>0.5</speed>
<temp>0.00</temp>
<bpm>0</bpm>
<rpm>0.00</rpm>
</extensions>
</trkpt>
<trkpt lat="64.279930115" lon="-21.087152481">
<ele>115.304688</ele>
<time>2012-07-18T17:28:19Z</time>
<speed>0.640000</speed>
<extensions>
<speed>0.6</speed>
<temp>0.00</temp>
<bpm>0</bpm>
<rpm>0.00</rpm>
</extensions>
</trkpt>
<trkpt lat="64.279930115" lon="-21.087133408">
<ele>116.939453</ele>
<time>2012-07-18T17:28:24Z</time>
<speed>0.050000</speed>
<extensions>
<speed>0.1</speed>
<temp>0.00</temp>
<bpm>0</bpm>
<rpm>0.00</rpm>
</extensions>
</trkpt>
<trkpt lat="64.279930115" lon="-21.087135315">
<ele>117.373047</ele>
<time>2012-07-18T17:28:29Z</time>
<speed>0.080000</speed>
<extensions>
<speed>0.1</speed>
<temp>0.00</temp>
<bpm>0</bpm>
<rpm>0.00</rpm>
</extensions>
</trkpt>
<trkpt lat="64.279922485" lon="-21.087133408">
<ele>117.802734</ele>
<time>2012-07-18T17:28:34Z</time>
<speed>0.040000</speed>
<extensions>
<speed>0.0</speed>
<temp>0.00</temp>
<bpm>0</bpm>
<rpm>0.00</rpm>
</extensions>
</trkpt>
<trkpt lat="64.279930115" lon="-21.087135315">
<ele>118.064453</ele>
<time>2012-07-18T17:28:39Z</time>
<speed>0.030000</speed>
<extensions>
<speed>0.0</speed>
<temp>0.00</temp>
<bpm>0</bpm>
<rpm>0.00</rpm>
</extensions>
</trkpt>
<trkpt lat="64.279930115" lon="-21.087137222">
<ele>118.062500</ele>
<time>2012-07-18T17:28:44Z</time>
<speed>0.030000</speed>
<extensions>
<speed>0.0</speed>
<temp>0.00</temp>
<bpm>0</bpm>
<rpm>0.00</rpm>
</extensions>
</trkpt>
<trkpt lat="64.279930115" lon="-21.087137222">
<ele>118.060547</ele>
<time>2012-07-18T17:28:49Z</time>
<speed>0.130000</speed>
<extensions>
<speed>0.1</speed>
<temp>0.00</temp>
<bpm>0</bpm>
<rpm>0.00</rpm>
</extensions>
</trkpt>
<trkpt lat="64.279930115" lon="-21.087139130">
<ele>118.060547</ele>
<time>2012-07-18T17:28:54Z</time>
<speed>0.020000</speed>
<extensions>
<speed>0.0</speed>
<temp>0.00</temp>
<bpm>0</bpm>
<rpm>0.00</rpm>
</extensions>
</trkpt>
<trkpt lat="64.279930115" lon="-21.087139130">
<ele>118.060547</ele>
<time>2012-07-18T17:28:59Z</time>
<speed>0.010000</speed>
<extensions>
<speed>0.0</speed>
<temp>0.00</temp>
<bpm>0</bpm>
<rpm>0.00</rpm>
</extensions>
</trkpt>
<trkpt lat="64.279930115" lon="-21.087141037">
<ele>118.060547</ele>
<time>2012-07-18T17:29:04Z</time>
<speed>0.050000</speed>
<extensions>
<speed>0.1</speed>
<temp>0.00</temp>
<bpm>0</bpm>
<rpm>0.00</rpm>
</extensions>
</trkpt>
<trkpt lat="64.279930115" lon="-21.087141037">
<ele>118.066406</ele>
<time>2012-07-18T17:29:09Z</time>
<speed>0.010000</speed>
<extensions>
<speed>0.0</speed>
<temp>0.00</temp>
<bpm>0</bpm>
<rpm>0.00</rpm>
</extensions>
</trkpt>
<trkpt lat="64.279930115" lon="-21.087144852">
<ele>118.066406</ele>
<time>2012-07-18T17:29:14Z</time>
<speed>0.050000</speed>
<extensions>
<speed>0.1</speed>
<temp>0.00</temp>
<bpm>0</bpm>
<rpm>0.00</rpm>
</extensions>
</trkpt>
<trkpt lat="64.279930115" lon="-21.087150574">
<ele>118.033203</ele>
<time>2012-07-18T17:29:19Z</time>
<speed>0.030000</speed>
<extensions>
<speed>0.0</speed>
<temp>0.00</temp>
<bpm>0</bpm>
<rpm>0.00</rpm>
</extensions>
</trkpt>
<trkpt lat="64.279930115" lon="-21.087150574">
<ele>117.982422</ele>
<time>2012-07-18T17:29:24Z</time>
<speed>0.020000</speed>
<extensions>
<speed>0.0</speed>
<temp>0.00</temp>
<bpm>0</bpm>
<rpm>0.00</rpm>
</extensions>
</trkpt>
<trkpt lat="64.279930115" lon="-21.087150574">
<ele>118.007813</ele>
<time>2012-07-18T17:29:29Z</time>
<speed>0.040000</speed>
<extensions>
<speed>0.0</speed>
<temp>0.00</temp>
<bpm>0</bpm>
<rpm>0.00</rpm>
</extensions>
</trkpt>
<trkpt lat="64.279930115" lon="-21.087150574">
<ele>118.021484</ele>
<time>2012-07-18T17:29:34Z</time>
<speed>0.010000</speed>
<extensions>
<speed>0.0</speed>
<temp>0.00</temp>
<bpm>0</bpm>
<rpm>0.00</rpm>
</extensions>
</trkpt>
<trkpt lat="64.279930115" lon="-21.087150574">
<ele>118.033203</ele>
<time>2012-07-18T17:29:39Z</time>
<speed>0.030000</speed>
<extensions>
<speed>0.0</speed>
<temp>0.00</temp>
<bpm>0</bpm>
<rpm>0.00</rpm>
</extensions>
</trkpt>
<trkpt lat="64.279930115" lon="-21.087148666">
<ele>118.039063</ele>
<time>2012-07-18T17:29:44Z</time>
<speed>0.010000</speed>
<extensions>
<speed>0.0</speed>
<temp>0.00</temp>
<bpm>0</bpm>
<rpm>0.00</rpm>
</extensions>
</trkpt>
<trkpt lat="64.279930115" lon="-21.087148666">
<ele>118.015625</ele>
<time>2012-07-18T17:29:49Z</time>
<speed>0.030000</speed>
<extensions>
<speed>0.0</speed>
<temp>0.00</temp>
<bpm>0</bpm>
<rpm>0.00</rpm>
</extensions>
</trkpt>
<trkpt lat="64.279930115" lon="-21.087146759">
<ele>118.015625</ele>
<time>2012-07-18T17:29:54Z</time>
<speed>0.010000</speed>
<extensions>
<speed>0.0</speed>
<temp>0.00</temp>
<bpm>0</bpm>
<rpm>0.00</rpm>
</extensions>
</trkpt>
<trkpt lat="64.279930115" lon="-21.087146759">
<ele>118.015625</ele>
<time>2012-07-18T17:29:59Z</time>
<speed>0.020000</speed>
<extensions>
<speed>0.0</speed>
<temp>0.00</temp>
<bpm>0</bpm>
<rpm>0.00</rpm>
</extensions>
</trkpt>
<trkpt lat="64.279930115" lon="-21.087146759">
<ele>118.009766</ele>
<time>2012-07-18T17:30:04Z</time>
<speed>0.010000</speed>
<extensions>
<speed>0.0</speed>
<temp>0.00</temp>
<bpm>0</bpm>
<rpm>0.00</rpm>
</extensions>
</trkpt>
<trkpt lat="64.279930115" lon="-21.087144852">
<ele>117.984375</ele>
<time>2012-07-18T17:30:09Z</time>
<speed>0.030000</speed>
<extensions>
<speed>0.0</speed>
<temp>0.00</temp>
<bpm>0</bpm>
<rpm>0.00</rpm>
</extensions>
</trkpt>
<trkpt lat="64.279930115" lon="-21.087144852">
<ele>117.994141</ele>
<time>2012-07-18T17:30:14Z</time>
<speed>0.010000</speed>
<extensions>
<speed>0.0</speed>
<temp>0.00</temp>
<bpm>0</bpm>
<rpm>0.00</rpm>
</extensions>
</trkpt>
<trkpt lat="64.279930115" lon="-21.087144852">
<ele>118.005859</ele>
<time>2012-07-18T17:30:19Z</time>
<speed>0.020000</speed>
<extensions>
<speed>0.0</speed>
<temp>0.00</temp>
<bpm>0</bpm>
<rpm>0.00</rpm>
</extensions>
</trkpt>
<trkpt lat="64.279930115" lon="-21.087144852">
<ele>118.037109</ele>
<time>2012-07-18T17:30:24Z</time>
<speed>0.010000</speed>
<extensions>
<speed>0.0</speed>
<temp>0.00</temp>
<bpm>0</bpm>
<rpm>0.00</rpm>
</extensions>
</trkpt>
<trkpt lat="64.279930115" lon="-21.087144852">
<ele>118.066406</ele>
<time>2012-07-18T17:30:29Z</time>
<extensions>
<speed>0.0</speed>
<temp>0.00</temp>
<bpm>0</bpm>
<rpm>0.00</rpm>
</extensions>
</trkpt>
<trkpt lat="64.279930115" lon="-21.087142944">
<ele>118.066406</ele>
<time>2012-07-18T17:30:34Z</time>
<speed>0.020000</speed>
<extensions>
<speed>0.0</speed>
<temp>0.00</temp>
<bpm>0</bpm>
<rpm>0.00</rpm>
</extensions>
</trkpt>
<trkpt lat="64.279930115" lon="-21.087142944">
<ele>118.072266</ele>
<time>2012-07-18T17:30:39Z</time>
<speed>0.010000</speed>
<extensions>
<speed>0.0</speed>
<temp>0.00</temp>
<bpm>0</bpm>
<rpm>0.00</rpm>
</extensions>
</trkpt>
<trkpt lat="64.279937744" lon="-21.087142944">
<ele>118.083984</ele>
<time>2012-07-18T17:30:44Z</time>
<speed>0.010000</speed>
<extensions>
<speed>0.0</speed>
<temp>0.00</temp>
<bpm>0</bpm>
<rpm>0.00</rpm>
</extensions>
</trkpt>
<trkpt lat="64.279930115" lon="-21.087142944">
<ele>118.087891</ele>
<time>2012-07-18T17:30:49Z</time>
<speed>0.120000</speed>
<extensions>
<speed>0.1</speed>
<temp>0.00</temp>
<bpm>0</bpm>
<rpm>0.00</rpm>
</extensions>
</trkpt>
<trkpt lat="64.279937744" lon="-21.087141037">
<ele>118.072266</ele>
<time>2012-07-18T17:30:54Z</time>
<speed>0.900000</speed>
<extensions>
<speed>0.9</speed>
<temp>0.00</temp>
<bpm>0</bpm>
<rpm>0.00</rpm>
</extensions>
</trkpt>
<trkpt lat="64.279922485" lon="-21.087339401">
<ele>116.955078</ele>
<time>2012-07-18T17:30:59Z</time>
<speed>1.750000</speed>
<extensions>
<speed>1.8</speed>
<temp>0.00</temp>
<bpm>0</bpm>
<rpm>0.00</rpm>
</extensions>
</trkpt>
<trkpt lat="64.279914856" lon="-21.087623596">
<ele>113.894531</ele>
<time>2012-07-18T17:31:04Z</time>
<speed>2.700000</speed>
<extensions>
<speed>2.7</speed>
<temp>0.00</temp>
<bpm>0</bpm>
<rpm>0.00</rpm>
</extensions>
</trkpt>
<trkpt lat="64.279891968" lon="-21.087776184">
<ele>112.814453</ele>
<time>2012-07-18T17:31:09Z</time>
<speed>0.250000</speed>
<extensions>
<speed>0.2</speed>
<temp>0.00</temp>
<bpm>0</bpm>
<rpm>0.00</rpm>
</extensions>
</trkpt>
<trkpt lat="64.279907227" lon="-21.087865829">
<ele>113.990234</ele>
<time>2012-07-18T17:31:14Z</time>
<speed>0.220000</speed>
<extensions>
<speed>0.2</speed>
<temp>0.00</temp>
<bpm>0</bpm>
<rpm>0.00</rpm>
</extensions>
</trkpt>
<trkpt lat="64.279891968" lon="-21.087875366">
<ele>113.925781</ele>
<time>2012-07-18T17:31:19Z</time>
<speed>0.800000</speed>
<extensions>
<speed>0.8</speed>
<temp>0.00</temp>
<bpm>0</bpm>
<rpm>0.00</rpm>
</extensions>
</trkpt>
<trkpt lat="64.279884338" lon="-21.087724686">
<ele>114.554688</ele>
<time>2012-07-18T17:31:24Z</time>
<speed>1.810000</speed>
<extensions>
<speed>1.8</speed>
<temp>0.00</temp>
<bpm>0</bpm>
<rpm>0.00</rpm>
</extensions>
</trkpt>
<trkpt lat="64.279907227" lon="-21.087480545">
<ele>115.375000</ele>
<time>2012-07-18T17:31:29Z</time>
<speed>1.940000</speed>
<extensions>
<speed>1.9</speed>
<temp>0.00</temp>
<bpm>0</bpm>
<rpm>0.00</rpm>
</extensions>
</trkpt>
<trkpt lat="64.279914856" lon="-21.087320328">
<ele>116.255859</ele>
<time>2012-07-18T17:31:34Z</time>
<speed>1.440000</speed>
<extensions>
<speed>1.4</speed>
<temp>0.00</temp>
<bpm>0</bpm>
<rpm>0.00</rpm>
</extensions>
</trkpt>
<trkpt lat="64.279922485" lon="-21.087165833">
<ele>115.556641</ele>
<time>2012-07-18T17:31:39Z</time>
<speed>1.590000</speed>
<extensions>
<speed>1.6</speed>
<temp>0.00</temp>
<bpm>0</bpm>
<rpm>0.00</rpm>
</extensions>
</trkpt>
<trkpt lat="64.279937744" lon="-21.087112427">
<ele>115.628906</ele>
<time>2012-07-18T17:31:44Z</time>
<speed>0.130000</speed>
<extensions>
<speed>0.1</speed>
<temp>0.00</temp>
<bpm>0</bpm>
<rpm>0.00</rpm>
</extensions>
</trkpt>
<trkpt lat="64.279930115" lon="-21.087104797">
<ele>116.109375</ele>
<time>2012-07-18T17:31:49Z</time>
<speed>0.050000</speed>
<extensions>
<speed>0.1</speed>
<temp>0.00</temp>
<bpm>0</bpm>
<rpm>0.00</rpm>
</extensions>
</trkpt>
<trkpt lat="64.279937744" lon="-21.087102890">
<ele>116.058594</ele>
<time>2012-07-18T17:31:54Z</time>
<speed>0.180000</speed>
<extensions>
<speed>0.2</speed>
<temp>0.00</temp>
<bpm>0</bpm>
<rpm>0.00</rpm>
</extensions>
</trkpt>
<trkpt lat="64.279930115" lon="-21.087135315">
<ele>116.070313</ele>
<time>2012-07-18T17:31:59Z</time>
<speed>0.070000</speed>
<extensions>
<speed>0.1</speed>
<temp>0.00</temp>
<bpm>0</bpm>
<rpm>0.00</rpm>
</extensions>
</trkpt>
<trkpt lat="64.279930115" lon="-21.087144852">
<ele>115.986328</ele>
<time>2012-07-18T17:32:04Z</time>
<speed>0.110000</speed>
<extensions>
<speed>0.1</speed>
<temp>0.00</temp>
<bpm>0</bpm>
<rpm>0.00</rpm>
</extensions>
</trkpt>
<trkpt lat="64.279937744" lon="-21.087150574">
<ele>115.910156</ele>
<time>2012-07-18T17:32:09Z</time>
<speed>0.060000</speed>
<extensions>
<speed>0.1</speed>
<temp>0.00</temp>
<bpm>0</bpm>
<rpm>0.00</rpm>
</extensions>
</trkpt>
<trkpt lat="64.279937744" lon="-21.087154388">
<ele>115.833984</ele>
<time>2012-07-18T17:32:14Z</time>
<speed>0.110000</speed>
<extensions>
<speed>0.1</speed>
<temp>0.00</temp>
<bpm>0</bpm>
<rpm>0.00</rpm>
</extensions>
</trkpt>
<trkpt lat="64.279937744" lon="-21.087142944">
<ele>115.753906</ele>
<time>2012-07-18T17:32:19Z</time>
<speed>0.100000</speed>
<extensions>
<speed>0.1</speed>
<temp>0.00</temp>
<bpm>0</bpm>
<rpm>0.00</rpm>
</extensions>
</trkpt>
<trkpt lat="64.279937744" lon="-21.087139130">
<ele>115.675781</ele>
<time>2012-07-18T17:32:24Z</time>
<speed>0.020000</speed>
<extensions>
<speed>0.0</speed>
<temp>0.00</temp>
<bpm>0</bpm>
<rpm>0.00</rpm>
</extensions>
</trkpt>
<trkpt lat="64.279937744" lon="-21.087139130">
<ele>115.626953</ele>
<time>2012-07-18T17:32:29Z</time>
<extensions>
<speed>0.0</speed>
<temp>0.00</temp>
<bpm>0</bpm>
<rpm>0.00</rpm>
</extensions>
</trkpt>
<trkpt lat="64.279937744" lon="-21.087139130">
<ele>115.626953</ele>
<time>2012-07-18T17:32:34Z</time>
<speed>0.020000</speed>
<extensions>
<speed>0.0</speed>
<temp>0.00</temp>
<bpm>0</bpm>
<rpm>0.00</rpm>
</extensions>
</trkpt>
<trkpt lat="64.279937744" lon="-21.087139130">
<ele>115.626953</ele>
<time>2012-07-18T17:32:39Z</time>
<extensions>
<speed>0.0</speed>
<temp>0.00</temp>
<bpm>0</bpm>
<rpm>0.00</rpm>
</extensions>
</trkpt>
<trkpt lat="64.279937744" lon="-21.087139130">
<ele>115.626953</ele>
<time>2012-07-18T17:32:44Z</time>
<speed>0.040000</speed>
<extensions>
<speed>0.0</speed>
<temp>0.00</temp>
<bpm>0</bpm>
<rpm>0.00</rpm>
</extensions>
</trkpt>
<trkpt lat="64.279937744" lon="-21.087139130">
<ele>115.626953</ele>
<time>2012-07-18T17:32:49Z</time>
<extensions>
<speed>0.0</speed>
<temp>0.00</temp>
<bpm>0</bpm>
<rpm>0.00</rpm>
</extensions>
</trkpt>
<trkpt lat="64.279937744" lon="-21.087139130">
<ele>115.625000</ele>
<time>2012-07-18T17:32:54Z</time>
<speed>0.020000</speed>
<extensions>
<speed>0.0</speed>
<temp>0.00</temp>
<bpm>0</bpm>
<rpm>0.00</rpm>
</extensions>
</trkpt>
<trkpt lat="64.279937744" lon="-21.087139130">
<ele>115.625000</ele>
<time>2012-07-18T17:32:59Z</time>
<speed>0.020000</speed>
<extensions>
<speed>0.0</speed>
<temp>0.00</temp>
<bpm>0</bpm>
<rpm>0.00</rpm>
</extensions>
</trkpt>
<trkpt lat="64.279937744" lon="-21.087139130">
<ele>115.623047</ele>
<time>2012-07-18T17:33:04Z</time>
<extensions>
<speed>0.0</speed>
<temp>0.00</temp>
<bpm>0</bpm>
<rpm>0.00</rpm>
</extensions>
</trkpt>
<trkpt lat="64.279937744" lon="-21.087139130">
<ele>115.621094</ele>
<time>2012-07-18T17:33:09Z</time>
<speed>0.040000</speed>
<extensions>
<speed>0.0</speed>
<temp>0.00</temp>
<bpm>0</bpm>
<rpm>0.00</rpm>
</extensions>
</trkpt>
<trkpt lat="64.279937744" lon="-21.087139130">
<ele>115.615234</ele>
<time>2012-07-18T17:33:14Z</time>
<speed>0.060000</speed>
<extensions>
<speed>0.1</speed>
<temp>0.00</temp>
<bpm>0</bpm>
<rpm>0.00</rpm>
</extensions>
</trkpt>
<trkpt lat="64.279937744" lon="-21.087139130">
<ele>115.611328</ele>
<time>2012-07-18T17:33:19Z</time>
<speed>0.010000</speed>
<extensions>
<speed>0.0</speed>
<temp>0.00</temp>
<bpm>0</bpm>
<rpm>0.00</rpm>
</extensions>
</trkpt>
<trkpt lat="64.279937744" lon="-21.087137222">
<ele>115.607422</ele>
<time>2012-07-18T17:33:24Z</time>
<speed>0.010000</speed>
<extensions>
<speed>0.0</speed>
<temp>0.00</temp>
<bpm>0</bpm>
<rpm>0.00</rpm>
</extensions>
</trkpt>
<trkpt lat="64.279937744" lon="-21.087137222">
<ele>115.607422</ele>
<time>2012-07-18T17:33:29Z</time>
<speed>0.010000</speed>
<extensions>
<speed>0.0</speed>
<temp>0.00</temp>
<bpm>0</bpm>
<rpm>0.00</rpm>
</extensions>
</trkpt>
<trkpt lat="64.279937744" lon="-21.087137222">
<ele>115.603516</ele>
<time>2012-07-18T17:33:34Z</time>
<speed>0.020000</speed>
<extensions>
<speed>0.0</speed>
<temp>0.00</temp>
<bpm>0</bpm>
<rpm>0.00</rpm>
</extensions>
</trkpt>
<trkpt lat="64.279937744" lon="-21.087137222">
<ele>115.599609</ele>
<time>2012-07-18T17:33:39Z</time>
<extensions>
<speed>0.0</speed>
<temp>0.00</temp>
<bpm>0</bpm>
<rpm>0.00</rpm>
</extensions>
</trkpt>
<trkpt lat="64.279937744" lon="-21.087137222">
<ele>115.595703</ele>
<time>2012-07-18T17:33:44Z</time>
<extensions>
<speed>0.0</speed>
<temp>0.00</temp>
<bpm>0</bpm>
<rpm>0.00</rpm>
</extensions>
</trkpt>
<trkpt lat="64.279937744" lon="-21.087137222">
<ele>115.591797</ele>
<time>2012-07-18T17:33:49Z</time>
<speed>0.050000</speed>
<extensions>
<speed>0.1</speed>
<temp>0.00</temp>
<bpm>0</bpm>
<rpm>0.00</rpm>
</extensions>
</trkpt>
<trkpt lat="64.279937744" lon="-21.087137222">
<ele>115.589844</ele>
<time>2012-07-18T17:33:54Z</time>
<speed>0.020000</speed>
<extensions>
<speed>0.0</speed>
<temp>0.00</temp>
<bpm>0</bpm>
<rpm>0.00</rpm>
</extensions>
</trkpt>
<trkpt lat="64.279937744" lon="-21.087137222">
<ele>115.585938</ele>
<time>2012-07-18T17:33:59Z</time>
<extensions>
<speed>0.0</speed>
<temp>0.00</temp>
<bpm>0</bpm>
<rpm>0.00</rpm>
</extensions>
</trkpt>
<trkpt lat="64.279937744" lon="-21.087137222">
<ele>115.582031</ele>
<time>2012-07-18T17:34:04Z</time>
<speed>0.010000</speed>
<extensions>
<speed>0.0</speed>
<temp>0.00</temp>
<bpm>0</bpm>
<rpm>0.00</rpm>
</extensions>
</trkpt>
<trkpt lat="64.279937744" lon="-21.087137222">
<ele>115.570313</ele>
<time>2012-07-18T17:34:09Z</time>
<extensions>
<speed>0.0</speed>
<temp>0.00</temp>
<bpm>0</bpm>
<rpm>0.00</rpm>
</extensions>
</trkpt>
<trkpt lat="64.279937744" lon="-21.087137222">
<ele>115.566406</ele>
<time>2012-07-18T17:34:14Z</time>
<extensions>
<speed>0.0</speed>
<temp>0.00</temp>
<bpm>0</bpm>
<rpm>0.00</rpm>
</extensions>
</trkpt>
<trkpt lat="64.279937744" lon="-21.087137222">
<ele>115.564453</ele>
<time>2012-07-18T17:34:19Z</time>
<speed>0.010000</speed>
<extensions>
<speed>0.0</speed>
<temp>0.00</temp>
<bpm>0</bpm>
<rpm>0.00</rpm>
</extensions>
</trkpt>
<trkpt lat="64.279937744" lon="-21.087137222">
<ele>115.558594</ele>
<time>2012-07-18T17:34:24Z</time>
<extensions>
<speed>0.0</speed>
<temp>0.00</temp>
<bpm>0</bpm>
<rpm>0.00</rpm>
</extensions>
</trkpt>
<trkpt lat="64.279937744" lon="-21.087137222">
<ele>115.562500</ele>
<time>2012-07-18T17:34:29Z</time>
<speed>0.050000</speed>
<extensions>
<speed>0.1</speed>
<temp>0.00</temp>
<bpm>0</bpm>
<rpm>0.00</rpm>
</extensions>
</trkpt>
<trkpt lat="64.279937744" lon="-21.087139130">
<ele>115.560547</ele>
<time>2012-07-18T17:34:34Z</time>
<extensions>
<speed>0.0</speed>
<temp>0.00</temp>
<bpm>0</bpm>
<rpm>0.00</rpm>
</extensions>
</trkpt>
<trkpt lat="64.279937744" lon="-21.087139130">
<ele>115.554688</ele>
<time>2012-07-18T17:34:39Z</time>
<speed>0.030000</speed>
<extensions>
<speed>0.0</speed>
<temp>0.00</temp>
<bpm>0</bpm>
<rpm>0.00</rpm>
</extensions>
</trkpt>
<trkpt lat="64.279937744" lon="-21.087139130">
<ele>115.556641</ele>
<time>2012-07-18T17:34:44Z</time>
<speed>0.040000</speed>
<extensions>
<speed>0.0</speed>
<temp>0.00</temp>
<bpm>0</bpm>
<rpm>0.00</rpm>
</extensions>
</trkpt>
<trkpt lat="64.279937744" lon="-21.087139130">
<ele>115.587891</ele>
<time>2012-07-18T17:34:49Z</time>
<speed>0.040000</speed>
<extensions>
<speed>0.0</speed>
<temp>0.00</temp>
<bpm>0</bpm>
<rpm>0.00</rpm>
</extensions>
</trkpt>
<trkpt lat="64.279930115" lon="-21.087116241">
<ele>115.269531</ele>
<time>2012-07-18T17:34:54Z</time>
<speed>0.190000</speed>
<extensions>
<speed>0.2</speed>
<temp>0.00</temp>
<bpm>0</bpm>
<rpm>0.00</rpm>
</extensions>
</trkpt>
<trkpt lat="64.279922485" lon="-21.087125778">
<ele>115.060547</ele>
<time>2012-07-18T17:34:59Z</time>
<speed>0.200000</speed>
<extensions>
<speed>0.2</speed>
<temp>0.00</temp>
<bpm>0</bpm>
<rpm>0.00</rpm>
</extensions>
</trkpt>
<trkpt lat="64.279914856" lon="-21.087127686">
<ele>115.054688</ele>
<time>2012-07-18T17:35:04Z</time>
<speed>0.090000</speed>
<extensions>
<speed>0.1</speed>
<temp>0.00</temp>
<bpm>0</bpm>
<rpm>0.00</rpm>
</extensions>
</trkpt>
<trkpt lat="64.279907227" lon="-21.087123871">
<ele>115.097656</ele>
<time>2012-07-18T17:35:09Z</time>
<speed>0.090000</speed>
<extensions>
<speed>0.1</speed>
<temp>0.00</temp>
<bpm>0</bpm>
<rpm>0.00</rpm>
</extensions>
</trkpt>
<trkpt lat="64.279914856" lon="-21.087112427">
<ele>115.076172</ele>
<time>2012-07-18T17:35:14Z</time>
<speed>0.210000</speed>
<extensions>
<speed>0.2</speed>
<temp>0.00</temp>
<bpm>0</bpm>
<rpm>0.00</rpm>
</extensions>
</trkpt>
<trkpt lat="64.279914856" lon="-21.087106705">
<ele>115.048828</ele>
<time>2012-07-18T17:35:19Z</time>
<speed>0.400000</speed>
<extensions>
<speed>0.4</speed>
<temp>0.00</temp>
<bpm>0</bpm>
<rpm>0.00</rpm>
</extensions>
</trkpt>
<trkpt lat="64.279937744" lon="-21.087127686">
<ele>114.867188</ele>
<time>2012-07-18T17:35:24Z</time>
<speed>0.400000</speed>
<extensions>
<speed>0.4</speed>
<temp>0.00</temp>
<bpm>0</bpm>
<rpm>0.00</rpm>
</extensions>
</trkpt>
<trkpt lat="64.279930115" lon="-21.087139130">
<ele>114.484375</ele>
<time>2012-07-18T17:35:29Z</time>
<speed>0.090000</speed>
<extensions>
<speed>0.1</speed>
<temp>0.00</temp>
<bpm>0</bpm>
<rpm>0.00</rpm>
</extensions>
</trkpt>
<trkpt lat="64.279907227" lon="-21.087184906">
<ele>113.267578</ele>
<time>2012-07-18T17:35:34Z</time>
<speed>0.990000</speed>
<extensions>
<speed>1.0</speed>
<temp>0.00</temp>
<bpm>0</bpm>
<rpm>0.00</rpm>
</extensions>
</trkpt>
<trkpt lat="64.279914856" lon="-21.087255478">
<ele>113.005859</ele>
<time>2012-07-18T17:35:39Z</time>
<speed>0.090000</speed>
<extensions>
<speed>0.1</speed>
<temp>0.00</temp>
<bpm>0</bpm>
<rpm>0.00</rpm>
</extensions>
</trkpt>
<trkpt lat="64.279914856" lon="-21.087266922">
<ele>113.638672</ele>
<time>2012-07-18T17:35:44Z</time>
<speed>0.120000</speed>
<extensions>
<speed>0.1</speed>
<temp>0.00</temp>
<bpm>0</bpm>
<rpm>0.00</rpm>
</extensions>
</trkpt>
<trkpt lat="64.279922485" lon="-21.087285995">
<ele>114.427734</ele>
<time>2012-07-18T17:35:49Z</time>
<speed>0.330000</speed>
<extensions>
<speed>0.3</speed>
<temp>0.00</temp>
<bpm>0</bpm>
<rpm>0.00</rpm>
</extensions>
</trkpt>
<trkpt lat="64.279907227" lon="-21.087352753">
<ele>114.693359</ele>
<time>2012-07-18T17:35:54Z</time>
<speed>0.920000</speed>
<extensions>
<speed>0.9</speed>
<temp>0.00</temp>
<bpm>0</bpm>
<rpm>0.00</rpm>
</extensions>
</trkpt>
<trkpt lat="64.279899597" lon="-21.087484360">
<ele>114.308594</ele>
<time>2012-07-18T17:35:59Z</time>
<speed>1.270000</speed>
<extensions>
<speed>1.3</speed>
<temp>0.00</temp>
<bpm>0</bpm>
<rpm>0.00</rpm>
</extensions>
</trkpt>
<trkpt lat="64.279914856" lon="-21.087537766">
<ele>111.001953</ele>
<time>2012-07-18T17:36:04Z</time>
<speed>0.580000</speed>
<extensions>
<speed>0.6</speed>
<temp>0.00</temp>
<bpm>0</bpm>
<rpm>0.00</rpm>
</extensions>
</trkpt>
<trkpt lat="64.279899597" lon="-21.087682724">
<ele>111.003906</ele>
<time>2012-07-18T17:36:09Z</time>
<speed>1.200000</speed>
<extensions>
<speed>1.2</speed>
<temp>0.00</temp>
<bpm>0</bpm>
<rpm>0.00</rpm>
</extensions>
</trkpt>
<trkpt lat="64.279861450" lon="-21.087846756">
<ele>110.916016</ele>
<time>2012-07-18T17:36:14Z</time>
<speed>1.840000</speed>
<extensions>
<speed>1.8</speed>
<temp>0.00</temp>
<bpm>0</bpm>
<rpm>0.00</rpm>
</extensions>
</trkpt>
<trkpt lat="64.279800415" lon="-21.087862015">
<ele>110.675781</ele>
<time>2012-07-18T17:36:19Z</time>
<speed>1.270000</speed>
<extensions>
<speed>1.3</speed>
<temp>0.00</temp>
<bpm>0</bpm>
<rpm>0.00</rpm>
</extensions>
</trkpt>
<trkpt lat="64.279777527" lon="-21.087970734">
<ele>110.248047</ele>
<time>2012-07-18T17:36:24Z</time>
<speed>1.050000</speed>
<extensions>
<speed>1.0</speed>
<temp>0.00</temp>
<bpm>0</bpm>
<rpm>0.00</rpm>
</extensions>
</trkpt>
<trkpt lat="64.279785156" lon="-21.088066101">
<ele>110.816406</ele>
<time>2012-07-18T17:36:29Z</time>
<speed>0.790000</speed>
<extensions>
<speed>0.8</speed>
<temp>0.00</temp>
<bpm>0</bpm>
<rpm>0.00</rpm>
</extensions>
</trkpt>
<trkpt lat="64.279785156" lon="-21.088083267">
<ele>112.666016</ele>
<time>2012-07-18T17:36:34Z</time>
<speed>0.020000</speed>
<extensions>
<speed>0.0</speed>
<temp>0.00</temp>
<bpm>0</bpm>
<rpm>0.00</rpm>
</extensions>
</trkpt>
<trkpt lat="64.279785156" lon="-21.088087082">
<ele>113.623047</ele>
<time>2012-07-18T17:36:39Z</time>
<speed>0.050000</speed>
<extensions>
<speed>0.1</speed>
<temp>0.00</temp>
<bpm>0</bpm>
<rpm>0.00</rpm>
</extensions>
</trkpt>
<trkpt lat="64.279777527" lon="-21.088092804">
<ele>114.308594</ele>
<time>2012-07-18T17:36:44Z</time>
<speed>0.050000</speed>
<extensions>
<speed>0.1</speed>
<temp>0.00</temp>
<bpm>0</bpm>
<rpm>0.00</rpm>
</extensions>
</trkpt>
<trkpt lat="64.279785156" lon="-21.088102341">
<ele>114.929688</ele>
<time>2012-07-18T17:36:49Z</time>
<speed>0.200000</speed>
<extensions>
<speed>0.2</speed>
<temp>0.00</temp>
<bpm>0</bpm>
<rpm>0.00</rpm>
</extensions>
</trkpt>
<trkpt lat="64.279792786" lon="-21.088123322">
<ele>115.546875</ele>
<time>2012-07-18T17:36:54Z</time>
<speed>0.260000</speed>
<extensions>
<speed>0.3</speed>
<temp>0.00</temp>
<bpm>0</bpm>
<rpm>0.00</rpm>
</extensions>
</trkpt>
<trkpt lat="64.279800415" lon="-21.088136673">
<ele>116.162109</ele>
<time>2012-07-18T17:36:59Z</time>
<speed>0.130000</speed>
<extensions>
<speed>0.1</speed>
<temp>0.00</temp>
<bpm>0</bpm>
<rpm>0.00</rpm>
</extensions>
</trkpt>
<trkpt lat="64.279800415" lon="-21.088142395">
<ele>116.775391</ele>
<time>2012-07-18T17:37:04Z</time>
<speed>0.160000</speed>
<extensions>
<speed>0.2</speed>
<temp>0.00</temp>
<bpm>0</bpm>
<rpm>0.00</rpm>
</extensions>
</trkpt>
<trkpt lat="64.279808044" lon="-21.088153839">
<ele>117.388672</ele>
<time>2012-07-18T17:37:09Z</time>
<speed>0.150000</speed>
<extensions>
<speed>0.2</speed>
<temp>0.00</temp>
<bpm>0</bpm>
<rpm>0.00</rpm>
</extensions>
</trkpt>
<trkpt lat="64.279808044" lon="-21.088169098">
<ele>118.003906</ele>
<time>2012-07-18T17:37:14Z</time>
<speed>0.150000</speed>
<extensions>
<speed>0.2</speed>
<temp>0.00</temp>
<bpm>0</bpm>
<rpm>0.00</rpm>
</extensions>
</trkpt>
<trkpt lat="64.279808044" lon="-21.088184357">
<ele>118.619141</ele>
<time>2012-07-18T17:37:19Z</time>
<speed>0.190000</speed>
<extensions>
<speed>0.2</speed>
<temp>0.00</temp>
<bpm>0</bpm>
<rpm>0.00</rpm>
</extensions>
</trkpt>
<trkpt lat="64.279800415" lon="-21.088197708">
<ele>119.234375</ele>
<time>2012-07-18T17:37:24Z</time>
<speed>0.290000</speed>
<extensions>
<speed>0.3</speed>
<temp>0.00</temp>
<bpm>0</bpm>
<rpm>0.00</rpm>
</extensions>
</trkpt>
<trkpt lat="64.279777527" lon="-21.088188171">
<ele>119.783203</ele>
<time>2012-07-18T17:37:29Z</time>
<speed>0.330000</speed>
<extensions>
<speed>0.3</speed>
<temp>0.00</temp>
<bpm>0</bpm>
<rpm>0.00</rpm>
</extensions>
</trkpt>
<trkpt lat="64.279747009" lon="-21.088178635">
<ele>120.371094</ele>
<time>2012-07-18T17:37:34Z</time>
<speed>0.390000</speed>
<extensions>
<speed>0.4</speed>
<temp>0.00</temp>
<bpm>0</bpm>
<rpm>0.00</rpm>
</extensions>
</trkpt>
<trkpt lat="64.279777527" lon="-21.088172913">
<ele>120.986328</ele>
<time>2012-07-18T17:37:39Z</time>
<speed>0.300000</speed>
<extensions>
<speed>0.3</speed>
<temp>0.00</temp>
<bpm>0</bpm>
<rpm>0.00</rpm>
</extensions>
</trkpt>
<trkpt lat="64.279792786" lon="-21.088178635">
<ele>121.589844</ele>
<time>2012-07-18T17:37:44Z</time>
<speed>0.200000</speed>
<extensions>
<speed>0.2</speed>
<temp>0.00</temp>
<bpm>0</bpm>
<rpm>0.00</rpm>
</extensions>
</trkpt>
<trkpt lat="64.279785156" lon="-21.088180542">
<ele>122.210938</ele>
<time>2012-07-18T17:37:49Z</time>
<speed>0.130000</speed>
<extensions>
<speed>0.1</speed>
<temp>0.00</temp>
<bpm>0</bpm>
<rpm>0.00</rpm>
</extensions>
</trkpt>
<trkpt lat="64.279785156" lon="-21.088188171">
<ele>122.832031</ele>
<time>2012-07-18T17:37:54Z</time>
<speed>0.160000</speed>
<extensions>
<speed>0.2</speed>
<temp>0.00</temp>
<bpm>0</bpm>
<rpm>0.00</rpm>
</extensions>
</trkpt>
<trkpt lat="64.279792786" lon="-21.088203430">
<ele>123.449219</ele>
<time>2012-07-18T17:37:59Z</time>
<speed>0.260000</speed>
<extensions>
<speed>0.3</speed>
<temp>0.00</temp>
<bpm>0</bpm>
<rpm>0.00</rpm>
</extensions>
</trkpt>
<trkpt lat="64.279815674" lon="-21.088230133">
<ele>124.027344</ele>
<time>2012-07-18T17:38:04Z</time>
<speed>0.350000</speed>
<extensions>
<speed>0.3</speed>
<temp>0.00</temp>
<bpm>0</bpm>
<rpm>0.00</rpm>
</extensions>
</trkpt>
<trkpt lat="64.279853821" lon="-21.088262558">
<ele>124.515625</ele>
<time>2012-07-18T17:38:09Z</time>
<speed>0.360000</speed>
<extensions>
<speed>0.4</speed>
<temp>0.00</temp>
<bpm>0</bpm>
<rpm>0.00</rpm>
</extensions>
</trkpt>
<trkpt lat="64.279876709" lon="-21.088279724">
<ele>125.031250</ele>
<time>2012-07-18T17:38:14Z</time>
<speed>0.350000</speed>
<extensions>
<speed>0.3</speed>
<temp>0.00</temp>
<bpm>0</bpm>
<rpm>0.00</rpm>
</extensions>
</trkpt>
<trkpt lat="64.279884338" lon="-21.088277817">
<ele>125.572266</ele>
<time>2012-07-18T17:38:19Z</time>
<speed>0.330000</speed>
<extensions>
<speed>0.3</speed>
<temp>0.00</temp>
<bpm>0</bpm>
<rpm>0.00</rpm>
</extensions>
</trkpt>
<trkpt lat="64.279891968" lon="-21.088321686">
<ele>126.089844</ele>
<time>2012-07-18T17:38:24Z</time>
<speed>0.350000</speed>
<extensions>
<speed>0.3</speed>
<temp>0.00</temp>
<bpm>0</bpm>
<rpm>0.00</rpm>
</extensions>
</trkpt>
<trkpt lat="64.279891968" lon="-21.088352203">
<ele>126.613281</ele>
<time>2012-07-18T17:38:29Z</time>
<speed>0.310000</speed>
<extensions>
<speed>0.3</speed>
<temp>0.00</temp>
<bpm>0</bpm>
<rpm>0.00</rpm>
</extensions>
</trkpt>
<trkpt lat="64.279922485" lon="-21.088344574">
<ele>127.175781</ele>
<time>2012-07-18T17:38:34Z</time>
<speed>0.360000</speed>
<extensions>
<speed>0.4</speed>
<temp>0.00</temp>
<bpm>0</bpm>
<rpm>0.00</rpm>
</extensions>
</trkpt>
<trkpt lat="64.279968262" lon="-21.088356018">
<ele>124.890625</ele>
<time>2012-07-18T17:38:39Z</time>
<speed>0.780000</speed>
<extensions>
<speed>0.8</speed>
<temp>0.00</temp>
<bpm>0</bpm>
<rpm>0.00</rpm>
</extensions>
</trkpt>
<trkpt lat="64.280006409" lon="-21.088403702">
<ele>122.595703</ele>
<time>2012-07-18T17:38:44Z</time>
<speed>0.900000</speed>
<extensions>
<speed>0.9</speed>
<temp>0.00</temp>
<bpm>0</bpm>
<rpm>0.00</rpm>
</extensions>
</trkpt>
<trkpt lat="64.279861450" lon="-21.088560104">
<ele>118.265625</ele>
<time>2012-07-18T17:40:03Z</time>
<speed>0.240000</speed>
<extensions>
<speed>0.2</speed>
<temp>0.00</temp>
<bpm>0</bpm>
<rpm>0.00</rpm>
</extensions>
</trkpt>
<trkpt lat="64.279861450" lon="-21.088577271">
<ele>117.923828</ele>
<time>2012-07-18T17:40:08Z</time>
<speed>0.210000</speed>
<extensions>
<speed>0.2</speed>
<temp>0.00</temp>
<bpm>0</bpm>
<rpm>0.00</rpm>
</extensions>
</trkpt>
<trkpt lat="64.279869080" lon="-21.088590622">
<ele>117.886719</ele>
<time>2012-07-18T17:40:13Z</time>
<speed>0.200000</speed>
<extensions>
<speed>0.2</speed>
<temp>0.00</temp>
<bpm>0</bpm>
<rpm>0.00</rpm>
</extensions>
</trkpt>
<trkpt lat="64.279876709" lon="-21.088598251">
<ele>117.861328</ele>
<time>2012-07-18T17:40:18Z</time>
<speed>0.300000</speed>
<extensions>
<speed>0.3</speed>
<temp>0.00</temp>
<bpm>0</bpm>
<rpm>0.00</rpm>
</extensions>
</trkpt>
<trkpt lat="64.279983521" lon="-21.088451385">
<ele>117.535156</ele>
<time>2012-07-18T17:40:23Z</time>
<speed>0.420000</speed>
<extensions>
<speed>0.4</speed>
<temp>0.00</temp>
<bpm>0</bpm>
<rpm>0.00</rpm>
</extensions>
</trkpt>
<trkpt lat="64.279998779" lon="-21.088363647">
<ele>117.005859</ele>
<time>2012-07-18T17:40:28Z</time>
<speed>0.330000</speed>
<extensions>
<speed>0.3</speed>
<temp>0.00</temp>
<bpm>0</bpm>
<rpm>0.00</rpm>
</extensions>
</trkpt>
<trkpt lat="64.279998779" lon="-21.088230133">
<ele>117.074219</ele>
<time>2012-07-18T17:40:33Z</time>
<speed>0.340000</speed>
<extensions>
<speed>0.3</speed>
<temp>0.00</temp>
<bpm>0</bpm>
<rpm>0.00</rpm>
</extensions>
</trkpt>
<trkpt lat="64.280014038" lon="-21.088220596">
<ele>117.271484</ele>
<time>2012-07-18T17:40:38Z</time>
<speed>0.170000</speed>
<extensions>
<speed>0.2</speed>
<temp>0.00</temp>
<bpm>0</bpm>
<rpm>0.00</rpm>
</extensions>
</trkpt>
<trkpt lat="64.280014038" lon="-21.088224411">
<ele>117.257813</ele>
<time>2012-07-18T17:40:43Z</time>
<speed>0.140000</speed>
<extensions>
<speed>0.1</speed>
<temp>0.00</temp>
<bpm>0</bpm>
<rpm>0.00</rpm>
</extensions>
</trkpt>
<trkpt lat="64.280006409" lon="-21.088232040">
<ele>117.238281</ele>
<time>2012-07-18T17:40:48Z</time>
<speed>0.180000</speed>
<extensions>
<speed>0.2</speed>
<temp>0.00</temp>
<bpm>0</bpm>
<rpm>0.00</rpm>
</extensions>
</trkpt>
<trkpt lat="64.279998779" lon="-21.088247299">
<ele>117.218750</ele>
<time>2012-07-18T17:40:53Z</time>
<speed>0.210000</speed>
<extensions>
<speed>0.2</speed>
<temp>0.00</temp>
<bpm>0</bpm>
<rpm>0.00</rpm>
</extensions>
</trkpt>
<trkpt lat="64.279991150" lon="-21.088262558">
<ele>117.199219</ele>
<time>2012-07-18T17:40:58Z</time>
<speed>0.130000</speed>
<extensions>
<speed>0.1</speed>
<temp>0.00</temp>
<bpm>0</bpm>
<rpm>0.00</rpm>
</extensions>
</trkpt>
<trkpt lat="64.279983521" lon="-21.088279724">
<ele>117.181641</ele>
<time>2012-07-18T17:41:03Z</time>
<speed>0.260000</speed>
<extensions>
<speed>0.3</speed>
<temp>0.00</temp>
<bpm>0</bpm>
<rpm>0.00</rpm>
</extensions>
</trkpt>
<trkpt lat="64.279953003" lon="-21.088310242">
<ele>117.443359</ele>
<time>2012-07-18T17:41:08Z</time>
<speed>0.450000</speed>
<extensions>
<speed>0.5</speed>
<temp>0.00</temp>
<bpm>0</bpm>
<rpm>0.00</rpm>
</extensions>
</trkpt>
<trkpt lat="64.279899597" lon="-21.088279724">
<ele>117.164063</ele>
<time>2012-07-18T17:41:13Z</time>
<speed>0.520000</speed>
<extensions>
<speed>0.5</speed>
<temp>0.00</temp>
<bpm>0</bpm>
<rpm>0.00</rpm>
</extensions>
</trkpt>
<trkpt lat="64.279869080" lon="-21.088293076">
<ele>117.240234</ele>
<time>2012-07-18T17:41:18Z</time>
<speed>0.450000</speed>
<extensions>
<speed>0.5</speed>
<temp>0.00</temp>
<bpm>0</bpm>
<rpm>0.00</rpm>
</extensions>
</trkpt>
<trkpt lat="64.279838562" lon="-21.088300705">
<ele>116.861328</ele>
<time>2012-07-18T17:41:23Z</time>
<speed>0.450000</speed>
<extensions>
<speed>0.5</speed>
<temp>0.00</temp>
<bpm>0</bpm>
<rpm>0.00</rpm>
</extensions>
</trkpt>
<trkpt lat="64.279823303" lon="-21.088264465">
<ele>116.181641</ele>
<time>2012-07-18T17:41:28Z</time>
<speed>0.480000</speed>
<extensions>
<speed>0.5</speed>
<temp>0.00</temp>
<bpm>0</bpm>
<rpm>0.00</rpm>
</extensions>
</trkpt>
<trkpt lat="64.279808044" lon="-21.088237762">
<ele>115.507813</ele>
<time>2012-07-18T17:41:33Z</time>
<speed>0.490000</speed>
<extensions>
<speed>0.5</speed>
<temp>0.00</temp>
<bpm>0</bpm>
<rpm>0.00</rpm>
</extensions>
</trkpt>
<trkpt lat="64.279808044" lon="-21.088254929">
<ele>114.935547</ele>
<time>2012-07-18T17:41:38Z</time>
<speed>0.350000</speed>
<extensions>
<speed>0.3</speed>
<temp>0.00</temp>
<bpm>0</bpm>
<rpm>0.00</rpm>
</extensions>
</trkpt>
<trkpt lat="64.279808044" lon="-21.088310242">
<ele>114.306641</ele>
<time>2012-07-18T17:41:43Z</time>
<speed>0.320000</speed>
<extensions>
<speed>0.3</speed>
<temp>0.00</temp>
<bpm>0</bpm>
<rpm>0.00</rpm>
</extensions>
</trkpt>
<trkpt lat="64.279792786" lon="-21.088335037">
<ele>113.978516</ele>
<time>2012-07-18T17:41:48Z</time>
<speed>0.300000</speed>
<extensions>
<speed>0.3</speed>
<temp>0.00</temp>
<bpm>0</bpm>
<rpm>0.00</rpm>
</extensions>
</trkpt>
<trkpt lat="64.279808044" lon="-21.088308334">
<ele>114.048828</ele>
<time>2012-07-18T17:41:53Z</time>
<speed>0.170000</speed>
<extensions>
<speed>0.2</speed>
<temp>0.00</temp>
<bpm>0</bpm>
<rpm>0.00</rpm>
</extensions>
</trkpt>
<trkpt lat="64.279800415" lon="-21.088314056">
<ele>114.025391</ele>
<time>2012-07-18T17:41:58Z</time>
<speed>0.190000</speed>
<extensions>
<speed>0.2</speed>
<temp>0.00</temp>
<bpm>0</bpm>
<rpm>0.00</rpm>
</extensions>
</trkpt>
<trkpt lat="64.279800415" lon="-21.088319778">
<ele>113.994141</ele>
<time>2012-07-18T17:42:03Z</time>
<speed>0.030000</speed>
<extensions>
<speed>0.0</speed>
<temp>0.00</temp>
<bpm>0</bpm>
<rpm>0.00</rpm>
</extensions>
</trkpt>
<trkpt lat="64.279800415" lon="-21.088315964">
<ele>113.972656</ele>
<time>2012-07-18T17:42:08Z</time>
<speed>0.100000</speed>
<extensions>
<speed>0.1</speed>
<temp>0.00</temp>
<bpm>0</bpm>
<rpm>0.00</rpm>
</extensions>
</trkpt>
<trkpt lat="64.279800415" lon="-21.088304520">
<ele>113.945313</ele>
<time>2012-07-18T17:42:13Z</time>
<speed>0.140000</speed>
<extensions>
<speed>0.1</speed>
<temp>0.00</temp>
<bpm>0</bpm>
<rpm>0.00</rpm>
</extensions>
</trkpt>
<trkpt lat="64.279846191" lon="-21.088258743">
<ele>113.931641</ele>
<time>2012-07-18T17:42:18Z</time>
<speed>0.470000</speed>
<extensions>
<speed>0.5</speed>
<temp>0.00</temp>
<bpm>0</bpm>
<rpm>0.00</rpm>
</extensions>
</trkpt>
<trkpt lat="64.279930115" lon="-21.088190079">
<ele>114.025391</ele>
<time>2012-07-18T17:42:23Z</time>
<speed>0.830000</speed>
<extensions>
<speed>0.8</speed>
<temp>0.00</temp>
<bpm>0</bpm>
<rpm>0.00</rpm>
</extensions>
</trkpt>
<trkpt lat="64.279991150" lon="-21.088138580">
<ele>114.007813</ele>
<time>2012-07-18T17:42:28Z</time>
<speed>0.990000</speed>
<extensions>
<speed>1.0</speed>
<temp>0.00</temp>
<bpm>0</bpm>
<rpm>0.00</rpm>
</extensions>
</trkpt>
<trkpt lat="64.280006409" lon="-21.088150024">
<ele>114.726563</ele>
<time>2012-07-18T17:42:33Z</time>
<speed>0.470000</speed>
<extensions>
<speed>0.5</speed>
<temp>0.00</temp>
<bpm>0</bpm>
<rpm>0.00</rpm>
</extensions>
</trkpt>
<trkpt lat="64.280036926" lon="-21.088081360">
<ele>114.925781</ele>
<time>2012-07-18T17:42:38Z</time>
<speed>0.440000</speed>
<extensions>
<speed>0.4</speed>
<temp>0.00</temp>
<bpm>0</bpm>
<rpm>0.00</rpm>
</extensions>
</trkpt>
<trkpt lat="64.280021667" lon="-21.088066101">
<ele>115.203125</ele>
<time>2012-07-18T17:42:43Z</time>
<speed>0.250000</speed>
<extensions>
<speed>0.2</speed>
<temp>0.00</temp>
<bpm>0</bpm>
<rpm>0.00</rpm>
</extensions>
</trkpt>
<trkpt lat="64.280021667" lon="-21.088056564">
<ele>115.251953</ele>
<time>2012-07-18T17:42:48Z</time>
<speed>0.270000</speed>
<extensions>
<speed>0.3</speed>
<temp>0.00</temp>
<bpm>0</bpm>
<rpm>0.00</rpm>
</extensions>
</trkpt>
<trkpt lat="64.280006409" lon="-21.088050842">
<ele>115.302734</ele>
<time>2012-07-18T17:42:53Z</time>
<speed>0.250000</speed>
<extensions>
<speed>0.2</speed>
<temp>0.00</temp>
<bpm>0</bpm>
<rpm>0.00</rpm>
</extensions>
</trkpt>
<trkpt lat="64.279640198" lon="-21.087350845">
<ele>144.828125</ele>
<time>2012-07-18T17:43:55Z</time>
<speed>0.100000</speed>
<extensions>
<speed>0.1</speed>
<temp>0.00</temp>
<bpm>0</bpm>
<rpm>0.00</rpm>
</extensions>
</trkpt>
<trkpt lat="64.279670715" lon="-21.087507248">
<ele>140.421875</ele>
<time>2012-07-18T17:44:00Z</time>
<speed>0.100000</speed>
<extensions>
<speed>0.1</speed>
<temp>0.00</temp>
<bpm>0</bpm>
<rpm>0.00</rpm>
</extensions>
</trkpt>
<trkpt lat="64.279800415" lon="-21.087808609">
<ele>137.804688</ele>
<time>2012-07-18T17:44:05Z</time>
<speed>1.460000</speed>
<extensions>
<speed>1.5</speed>
<temp>0.00</temp>
<bpm>0</bpm>
<rpm>0.00</rpm>
</extensions>
</trkpt>
<trkpt lat="64.279846191" lon="-21.087839127">
<ele>136.226563</ele>
<time>2012-07-18T17:44:10Z</time>
<speed>1.310000</speed>
<extensions>
<speed>1.3</speed>
<temp>0.00</temp>
<bpm>0</bpm>
<rpm>0.00</rpm>
</extensions>
</trkpt>
<trkpt lat="64.279899597" lon="-21.087821960">
<ele>135.281250</ele>
<time>2012-07-18T17:44:15Z</time>
<speed>1.180000</speed>
<extensions>
<speed>1.2</speed>
<temp>0.00</temp>
<bpm>0</bpm>
<rpm>0.00</rpm>
</extensions>
</trkpt>
<trkpt lat="64.279884338" lon="-21.087949753">
<ele>134.277344</ele>
<time>2012-07-18T17:44:20Z</time>
<speed>0.660000</speed>
<extensions>
<speed>0.7</speed>
<temp>0.00</temp>
<bpm>0</bpm>
<rpm>0.00</rpm>
</extensions>
</trkpt>
<trkpt lat="64.279884338" lon="-21.088092804">
<ele>133.632813</ele>
<time>2012-07-18T17:44:25Z</time>
<speed>0.520000</speed>
<extensions>
<speed>0.5</speed>
<temp>0.00</temp>
<bpm>0</bpm>
<rpm>0.00</rpm>
</extensions>
</trkpt>
<trkpt lat="64.279945374" lon="-21.088150024">
<ele>133.222656</ele>
<time>2012-07-18T17:44:30Z</time>
<speed>0.830000</speed>
<extensions>
<speed>0.8</speed>
<temp>0.00</temp>
<bpm>0</bpm>
<rpm>0.00</rpm>
</extensions>
</trkpt>
<trkpt lat="64.279960632" lon="-21.088247299">
<ele>132.867188</ele>
<time>2012-07-18T17:44:35Z</time>
<speed>0.510000</speed>
<extensions>
<speed>0.5</speed>
<temp>0.00</temp>
<bpm>0</bpm>
<rpm>0.00</rpm>
</extensions>
</trkpt>
<trkpt lat="64.279960632" lon="-21.088159561">
<ele>132.328125</ele>
<time>2012-07-18T17:44:40Z</time>
<speed>0.460000</speed>
<extensions>
<speed>0.5</speed>
<temp>0.00</temp>
<bpm>0</bpm>
<rpm>0.00</rpm>
</extensions>
</trkpt>
<trkpt lat="64.280006409" lon="-21.088016510">
<ele>131.863281</ele>
<time>2012-07-18T17:44:45Z</time>
<speed>0.720000</speed>
<extensions>
<speed>0.7</speed>
<temp>0.00</temp>
<bpm>0</bpm>
<rpm>0.00</rpm>
</extensions>
</trkpt>
<trkpt lat="64.279998779" lon="-21.087938309">
<ele>130.156250</ele>
<time>2012-07-18T17:44:50Z</time>
<speed>0.470000</speed>
<extensions>
<speed>0.5</speed>
<temp>0.00</temp>
<bpm>0</bpm>
<rpm>0.00</rpm>
</extensions>
</trkpt>
<trkpt lat="64.279983521" lon="-21.087936401">
<ele>118.925781</ele>
<time>2012-07-18T17:44:55Z</time>
<speed>0.280000</speed>
<extensions>
<speed>0.3</speed>
<temp>0.00</temp>
<bpm>0</bpm>
<rpm>0.00</rpm>
</extensions>
</trkpt>
<trkpt lat="64.279975891" lon="-21.087955475">
<ele>117.818359</ele>
<time>2012-07-18T17:45:00Z</time>
<speed>0.150000</speed>
<extensions>
<speed>0.2</speed>
<temp>0.00</temp>
<bpm>0</bpm>
<rpm>0.00</rpm>
</extensions>
</trkpt>
<trkpt lat="64.279975891" lon="-21.087974548">
<ele>117.736328</ele>
<time>2012-07-18T17:45:05Z</time>
<speed>0.270000</speed>
<extensions>
<speed>0.3</speed>
<temp>0.00</temp>
<bpm>0</bpm>
<rpm>0.00</rpm>
</extensions>
</trkpt>
<trkpt lat="64.279914856" lon="-21.088041306">
<ele>119.068359</ele>
<time>2012-07-18T17:45:10Z</time>
<speed>0.450000</speed>
<extensions>
<speed>0.5</speed>
<temp>0.00</temp>
<bpm>0</bpm>
<rpm>0.00</rpm>
</extensions>
</trkpt>
<trkpt lat="64.279846191" lon="-21.088134766">
<ele>120.318359</ele>
<time>2012-07-18T17:45:15Z</time>
<speed>0.500000</speed>
<extensions>
<speed>0.5</speed>
<temp>0.00</temp>
<bpm>0</bpm>
<rpm>0.00</rpm>
</extensions>
</trkpt>
<trkpt lat="64.279800415" lon="-21.088207245">
<ele>122.691406</ele>
<time>2012-07-18T17:45:20Z</time>
<speed>0.450000</speed>
<extensions>
<speed>0.5</speed>
<temp>0.00</temp>
<bpm>0</bpm>
<rpm>0.00</rpm>
</extensions>
</trkpt>
<trkpt lat="64.279785156" lon="-21.088212967">
<ele>119.609375</ele>
<time>2012-07-18T17:45:25Z</time>
<speed>0.050000</speed>
<extensions>
<speed>0.1</speed>
<temp>0.00</temp>
<bpm>0</bpm>
<rpm>0.00</rpm>
</extensions>
</trkpt>
<trkpt lat="64.279785156" lon="-21.088207245">
<ele>120.236328</ele>
<time>2012-07-18T17:45:30Z</time>
<extensions>
<speed>0.0</speed>
<temp>0.00</temp>
<bpm>0</bpm>
<rpm>0.00</rpm>
</extensions>
</trkpt>
<trkpt lat="64.279785156" lon="-21.088205338">
<ele>120.154297</ele>
<time>2012-07-18T17:45:35Z</time>
<speed>0.060000</speed>
<extensions>
<speed>0.1</speed>
<temp>0.00</temp>
<bpm>0</bpm>
<rpm>0.00</rpm>
</extensions>
</trkpt>
<trkpt lat="64.279785156" lon="-21.088203430">
<ele>120.082031</ele>
<time>2012-07-18T17:45:40Z</time>
<speed>0.010000</speed>
<extensions>
<speed>0.0</speed>
<temp>0.00</temp>
<bpm>0</bpm>
<rpm>0.00</rpm>
</extensions>
</trkpt>
<trkpt lat="64.279785156" lon="-21.088203430">
<ele>120.082031</ele>
<time>2012-07-18T17:45:45Z</time>
<speed>0.010000</speed>
<extensions>
<speed>0.0</speed>
<temp>0.00</temp>
<bpm>0</bpm>
<rpm>0.00</rpm>
</extensions>
</trkpt>
<trkpt lat="64.279785156" lon="-21.088203430">
<ele>120.085938</ele>
<time>2012-07-18T17:45:50Z</time>
<extensions>
<speed>0.0</speed>
<temp>0.00</temp>
<bpm>0</bpm>
<rpm>0.00</rpm>
</extensions>
</trkpt>
<trkpt lat="64.279785156" lon="-21.088203430">
<ele>120.082031</ele>
<time>2012-07-18T17:45:55Z</time>
<extensions>
<speed>0.0</speed>
<temp>0.00</temp>
<bpm>0</bpm>
<rpm>0.00</rpm>
</extensions>
</trkpt>
<trkpt lat="64.279785156" lon="-21.088203430">
<ele>120.082031</ele>
<time>2012-07-18T17:46:00Z</time>
<extensions>
<speed>0.0</speed>
<temp>0.00</temp>
<bpm>0</bpm>
<rpm>0.00</rpm>
</extensions>
</trkpt>
<trkpt lat="64.279785156" lon="-21.088199615">
<ele>120.066406</ele>
<time>2012-07-18T17:46:05Z</time>
<speed>0.140000</speed>
<extensions>
<speed>0.1</speed>
<temp>0.00</temp>
<bpm>0</bpm>
<rpm>0.00</rpm>
</extensions>
</trkpt>
<trkpt lat="64.279830933" lon="-21.088125229">
<ele>119.414063</ele>
<time>2012-07-18T17:46:10Z</time>
<speed>0.740000</speed>
<extensions>
<speed>0.7</speed>
<temp>0.00</temp>
<bpm>0</bpm>
<rpm>0.00</rpm>
</extensions>
</trkpt>
<trkpt lat="64.279830933" lon="-21.087987900">
<ele>118.455078</ele>
<time>2012-07-18T17:46:15Z</time>
<speed>0.950000</speed>
<extensions>
<speed>1.0</speed>
<temp>0.00</temp>
<bpm>0</bpm>
<rpm>0.00</rpm>
</extensions>
</trkpt>
<trkpt lat="64.279838562" lon="-21.087829590">
<ele>118.263672</ele>
<time>2012-07-18T17:46:20Z</time>
<speed>1.670000</speed>
<extensions>
<speed>1.7</speed>
<temp>0.00</temp>
<bpm>0</bpm>
<rpm>0.00</rpm>
</extensions>
</trkpt>
<trkpt lat="64.279838562" lon="-21.087705612">
<ele>117.671875</ele>
<time>2012-07-18T17:46:25Z</time>
<speed>1.140000</speed>
<extensions>
<speed>1.1</speed>
<temp>0.00</temp>
<bpm>0</bpm>
<rpm>0.00</rpm>
</extensions>
</trkpt>
<trkpt lat="64.279823303" lon="-21.087562561">
<ele>118.207031</ele>
<time>2012-07-18T17:46:30Z</time>
<speed>0.810000</speed>
<extensions>
<speed>0.8</speed>
<temp>0.00</temp>
<bpm>0</bpm>
<rpm>0.00</rpm>
</extensions>
</trkpt>
<trkpt lat="64.279830933" lon="-21.087432861">
<ele>118.181641</ele>
<time>2012-07-18T17:46:35Z</time>
<speed>0.780000</speed>
<extensions>
<speed>0.8</speed>
<temp>0.00</temp>
<bpm>0</bpm>
<rpm>0.00</rpm>
</extensions>
</trkpt>
<trkpt lat="64.279876709" lon="-21.087192535">
<ele>116.953125</ele>
<time>2012-07-18T17:46:40Z</time>
<speed>0.830000</speed>
<extensions>
<speed>0.8</speed>
<temp>0.00</temp>
<bpm>0</bpm>
<rpm>0.00</rpm>
</extensions>
</trkpt>
<trkpt lat="64.279907227" lon="-21.087121964">
<ele>116.783203</ele>
<time>2012-07-18T17:46:45Z</time>
<speed>0.700000</speed>
<extensions>
<speed>0.7</speed>
<temp>0.00</temp>
<bpm>0</bpm>
<rpm>0.00</rpm>
</extensions>
</trkpt>
<trkpt lat="64.279930115" lon="-21.087102890">
<ele>116.576172</ele>
<time>2012-07-18T17:46:50Z</time>
<speed>0.440000</speed>
<extensions>
<speed>0.4</speed>
<temp>0.00</temp>
<bpm>0</bpm>
<rpm>0.00</rpm>
</extensions>
</trkpt>
<trkpt lat="64.279960632" lon="-21.087146759">
<ele>116.447266</ele>
<time>2012-07-18T17:46:55Z</time>
<speed>0.320000</speed>
<extensions>
<speed>0.3</speed>
<temp>0.00</temp>
<bpm>0</bpm>
<rpm>0.00</rpm>
</extensions>
</trkpt>
<trkpt lat="64.279968262" lon="-21.087150574">
<ele>116.263672</ele>
<time>2012-07-18T17:47:00Z</time>
<speed>0.090000</speed>
<extensions>
<speed>0.1</speed>
<temp>0.00</temp>
<bpm>0</bpm>
<rpm>0.00</rpm>
</extensions>
</trkpt>
<trkpt lat="64.279960632" lon="-21.087144852">
<ele>116.134766</ele>
<time>2012-07-18T17:47:05Z</time>
<speed>0.150000</speed>
<extensions>
<speed>0.2</speed>
<temp>0.00</temp>
<bpm>0</bpm>
<rpm>0.00</rpm>
</extensions>
</trkpt>
<trkpt lat="64.279968262" lon="-21.087121964">
<ele>116.148438</ele>
<time>2012-07-18T17:47:10Z</time>
<speed>0.270000</speed>
<extensions>
<speed>0.3</speed>
<temp>0.00</temp>
<bpm>0</bpm>
<rpm>0.00</rpm>
</extensions>
</trkpt>
<trkpt lat="64.279945374" lon="-21.087062836">
<ele>116.105469</ele>
<time>2012-07-18T17:47:15Z</time>
<speed>0.380000</speed>
<extensions>
<speed>0.4</speed>
<temp>0.00</temp>
<bpm>0</bpm>
<rpm>0.00</rpm>
</extensions>
</trkpt>
<trkpt lat="64.279930115" lon="-21.087013245">
<ele>116.187500</ele>
<time>2012-07-18T17:47:20Z</time>
<speed>0.180000</speed>
<extensions>
<speed>0.2</speed>
<temp>0.00</temp>
<bpm>0</bpm>
<rpm>0.00</rpm>
</extensions>
</trkpt>
<trkpt lat="64.279922485" lon="-21.086980820">
<ele>116.269531</ele>
<time>2012-07-18T17:47:25Z</time>
<speed>0.200000</speed>
<extensions>
<speed>0.2</speed>
<temp>0.00</temp>
<bpm>0</bpm>
<rpm>0.00</rpm>
</extensions>
</trkpt>
<trkpt lat="64.279922485" lon="-21.086978912">
<ele>116.330078</ele>
<time>2012-07-18T17:47:30Z</time>
<speed>0.040000</speed>
<extensions>
<speed>0.0</speed>
<temp>0.00</temp>
<bpm>0</bpm>
<rpm>0.00</rpm>
</extensions>
</trkpt>
<trkpt lat="64.279922485" lon="-21.086967468">
<ele>116.343750</ele>
<time>2012-07-18T17:47:35Z</time>
<speed>0.230000</speed>
<extensions>
<speed>0.2</speed>
<temp>0.00</temp>
<bpm>0</bpm>
<rpm>0.00</rpm>
</extensions>
</trkpt>
<trkpt lat="64.279930115" lon="-21.086952209">
<ele>116.353516</ele>
<time>2012-07-18T17:47:40Z</time>
<speed>0.320000</speed>
<extensions>
<speed>0.3</speed>
<temp>0.00</temp>
<bpm>0</bpm>
<rpm>0.00</rpm>
</extensions>
</trkpt>
<trkpt lat="64.279945374" lon="-21.086849213">
<ele>116.527344</ele>
<time>2012-07-18T17:47:45Z</time>
<speed>0.600000</speed>
<extensions>
<speed>0.6</speed>
<temp>0.00</temp>
<bpm>0</bpm>
<rpm>0.00</rpm>
</extensions>
</trkpt>
<trkpt lat="64.279968262" lon="-21.086841583">
<ele>116.589844</ele>
<time>2012-07-18T17:47:50Z</time>
<speed>0.390000</speed>
<extensions>
<speed>0.4</speed>
<temp>0.00</temp>
<bpm>0</bpm>
<rpm>0.00</rpm>
</extensions>
</trkpt>
<trkpt lat="64.279983521" lon="-21.086875916">
<ele>116.500000</ele>
<time>2012-07-18T17:47:55Z</time>
<speed>0.120000</speed>
<extensions>
<speed>0.1</speed>
<temp>0.00</temp>
<bpm>0</bpm>
<rpm>0.00</rpm>
</extensions>
</trkpt>
<trkpt lat="64.279975891" lon="-21.086919785">
<ele>116.427734</ele>
<time>2012-07-18T17:48:00Z</time>
<speed>0.120000</speed>
<extensions>
<speed>0.1</speed>
<temp>0.00</temp>
<bpm>0</bpm>
<rpm>0.00</rpm>
</extensions>
</trkpt>
<trkpt lat="64.279975891" lon="-21.086931229">
<ele>116.425781</ele>
<time>2012-07-18T17:48:05Z</time>
<speed>0.230000</speed>
<extensions>
<speed>0.2</speed>
<temp>0.00</temp>
<bpm>0</bpm>
<rpm>0.00</rpm>
</extensions>
</trkpt>
<trkpt lat="64.279975891" lon="-21.086946487">
<ele>116.427734</ele>
<time>2012-07-18T17:48:10Z</time>
<speed>0.210000</speed>
<extensions>
<speed>0.2</speed>
<temp>0.00</temp>
<bpm>0</bpm>
<rpm>0.00</rpm>
</extensions>
</trkpt>
<trkpt lat="64.279991150" lon="-21.086950302">
<ele>116.394531</ele>
<time>2012-07-18T17:48:15Z</time>
<speed>0.290000</speed>
<extensions>
<speed>0.3</speed>
<temp>0.00</temp>
<bpm>0</bpm>
<rpm>0.00</rpm>
</extensions>
</trkpt>
<trkpt lat="64.280014038" lon="-21.086956024">
<ele>116.462891</ele>
<time>2012-07-18T17:48:20Z</time>
<speed>0.320000</speed>
<extensions>
<speed>0.3</speed>
<temp>0.00</temp>
<bpm>0</bpm>
<rpm>0.00</rpm>
</extensions>
</trkpt>
<trkpt lat="64.279998779" lon="-21.086942673">
<ele>116.453125</ele>
<time>2012-07-18T17:48:25Z</time>
<speed>0.140000</speed>
<extensions>
<speed>0.1</speed>
<temp>0.00</temp>
<bpm>0</bpm>
<rpm>0.00</rpm>
</extensions>
</trkpt>
<trkpt lat="64.279975891" lon="-21.086956024">
<ele>116.591797</ele>
<time>2012-07-18T17:48:30Z</time>
<speed>0.140000</speed>
<extensions>
<speed>0.1</speed>
<temp>0.00</temp>
<bpm>0</bpm>
<rpm>0.00</rpm>
</extensions>
</trkpt>
<trkpt lat="64.279968262" lon="-21.086978912">
<ele>116.814453</ele>
<time>2012-07-18T17:48:35Z</time>
<speed>0.010000</speed>
<extensions>
<speed>0.0</speed>
<temp>0.00</temp>
<bpm>0</bpm>
<rpm>0.00</rpm>
</extensions>
</trkpt>
<trkpt lat="64.279960632" lon="-21.086999893">
<ele>116.978516</ele>
<time>2012-07-18T17:48:40Z</time>
<speed>0.080000</speed>
<extensions>
<speed>0.1</speed>
<temp>0.00</temp>
<bpm>0</bpm>
<rpm>0.00</rpm>
</extensions>
</trkpt>
<trkpt lat="64.279968262" lon="-21.086980820">
<ele>117.113281</ele>
<time>2012-07-18T17:48:45Z</time>
<speed>0.050000</speed>
<extensions>
<speed>0.1</speed>
<temp>0.00</temp>
<bpm>0</bpm>
<rpm>0.00</rpm>
</extensions>
</trkpt>
<trkpt lat="64.279968262" lon="-21.086988449">
<ele>117.330078</ele>
<time>2012-07-18T17:48:50Z</time>
<speed>0.010000</speed>
<extensions>
<speed>0.0</speed>
<temp>0.00</temp>
<bpm>0</bpm>
<rpm>0.00</rpm>
</extensions>
</trkpt>
<trkpt lat="64.279968262" lon="-21.087003708">
<ele>117.398438</ele>
<time>2012-07-18T17:48:55Z</time>
<speed>0.010000</speed>
<extensions>
<speed>0.0</speed>
<temp>0.00</temp>
<bpm>0</bpm>
<rpm>0.00</rpm>
</extensions>
</trkpt>
<trkpt lat="64.279968262" lon="-21.087018967">
<ele>117.443359</ele>
<time>2012-07-18T17:49:00Z</time>
<extensions>
<speed>0.0</speed>
<temp>0.00</temp>
<bpm>0</bpm>
<rpm>0.00</rpm>
</extensions>
</trkpt>
<trkpt lat="64.279968262" lon="-21.087005615">
<ele>117.455078</ele>
<time>2012-07-18T17:49:05Z</time>
<speed>0.010000</speed>
<extensions>
<speed>0.0</speed>
<temp>0.00</temp>
<bpm>0</bpm>
<rpm>0.00</rpm>
</extensions>
</trkpt>
<trkpt lat="64.279968262" lon="-21.087005615">
<ele>117.458984</ele>
<time>2012-07-18T17:49:10Z</time>
<extensions>
<speed>0.0</speed>
<temp>0.00</temp>
<bpm>0</bpm>
<rpm>0.00</rpm>
</extensions>
</trkpt>
<trkpt lat="64.279968262" lon="-21.087007523">
<ele>117.460938</ele>
<time>2012-07-18T17:49:15Z</time>
<speed>0.010000</speed>
<extensions>
<speed>0.0</speed>
<temp>0.00</temp>
<bpm>0</bpm>
<rpm>0.00</rpm>
</extensions>
</trkpt>
<trkpt lat="64.279968262" lon="-21.087007523">
<ele>117.464844</ele>
<time>2012-07-18T17:49:20Z</time>
<extensions>
<speed>0.0</speed>
<temp>0.00</temp>
<bpm>0</bpm>
<rpm>0.00</rpm>
</extensions>
</trkpt>
<trkpt lat="64.279968262" lon="-21.087005615">
<ele>117.464844</ele>
<time>2012-07-18T17:49:25Z</time>
<extensions>
<speed>0.0</speed>
<temp>0.00</temp>
<bpm>0</bpm>
<rpm>0.00</rpm>
</extensions>
</trkpt>
<trkpt lat="64.279968262" lon="-21.087007523">
<ele>117.470703</ele>
<time>2012-07-18T17:49:30Z</time>
<extensions>
<speed>0.0</speed>
<temp>0.00</temp>
<bpm>0</bpm>
<rpm>0.00</rpm>
</extensions>
</trkpt>
<trkpt lat="64.279968262" lon="-21.087007523">
<ele>117.470703</ele>
<time>2012-07-18T17:49:35Z</time>
<speed>0.040000</speed>
<extensions>
<speed>0.0</speed>
<temp>0.00</temp>
<bpm>0</bpm>
<rpm>0.00</rpm>
</extensions>
</trkpt>
<trkpt lat="64.279968262" lon="-21.087007523">
<ele>117.468750</ele>
<time>2012-07-18T17:49:40Z</time>
<extensions>
<speed>0.0</speed>
<temp>0.00</temp>
<bpm>0</bpm>
<rpm>0.00</rpm>
</extensions>
</trkpt>
<trkpt lat="64.279968262" lon="-21.087007523">
<ele>117.466797</ele>
<time>2012-07-18T17:49:45Z</time>
<speed>0.030000</speed>
<extensions>
<speed>0.0</speed>
<temp>0.00</temp>
<bpm>0</bpm>
<rpm>0.00</rpm>
</extensions>
</trkpt>
<trkpt lat="64.279968262" lon="-21.087007523">
<ele>117.464844</ele>
<time>2012-07-18T17:49:50Z</time>
<extensions>
<speed>0.0</speed>
<temp>0.00</temp>
<bpm>0</bpm>
<rpm>0.00</rpm>
</extensions>
</trkpt>
<trkpt lat="64.279968262" lon="-21.087007523">
<ele>117.460938</ele>
<time>2012-07-18T17:49:55Z</time>
<extensions>
<speed>0.0</speed>
<temp>0.00</temp>
<bpm>0</bpm>
<rpm>0.00</rpm>
</extensions>
</trkpt>
<trkpt lat="64.279968262" lon="-21.087007523">
<ele>117.460938</ele>
<time>2012-07-18T17:50:00Z</time>
<speed>0.010000</speed>
<extensions>
<speed>0.0</speed>
<temp>0.00</temp>
<bpm>0</bpm>
<rpm>0.00</rpm>
</extensions>
</trkpt>
<trkpt lat="64.279968262" lon="-21.087007523">
<ele>117.466797</ele>
<time>2012-07-18T17:50:05Z</time>
<speed>0.010000</speed>
<extensions>
<speed>0.0</speed>
<temp>0.00</temp>
<bpm>0</bpm>
<rpm>0.00</rpm>
</extensions>
</trkpt>
<trkpt lat="64.279968262" lon="-21.087007523">
<ele>117.474609</ele>
<time>2012-07-18T17:50:10Z</time>
<extensions>
<speed>0.0</speed>
<temp>0.00</temp>
<bpm>0</bpm>
<rpm>0.00</rpm>
</extensions>
</trkpt>
<trkpt lat="64.279968262" lon="-21.087007523">
<ele>117.480469</ele>
<time>2012-07-18T17:50:15Z</time>
<speed>0.020000</speed>
<extensions>
<speed>0.0</speed>
<temp>0.00</temp>
<bpm>0</bpm>
<rpm>0.00</rpm>
</extensions>
</trkpt>
<trkpt lat="64.279968262" lon="-21.087007523">
<ele>117.482422</ele>
<time>2012-07-18T17:50:20Z</time>
<speed>0.010000</speed>
<extensions>
<speed>0.0</speed>
<temp>0.00</temp>
<bpm>0</bpm>
<rpm>0.00</rpm>
</extensions>
</trkpt>
<trkpt lat="64.279968262" lon="-21.087007523">
<ele>117.458984</ele>
<time>2012-07-18T17:50:25Z</time>
<extensions>
<speed>0.0</speed>
<temp>0.00</temp>
<bpm>0</bpm>
<rpm>0.00</rpm>
</extensions>
</trkpt>
<trkpt lat="64.279968262" lon="-21.087009430">
<ele>117.433594</ele>
<time>2012-07-18T17:50:30Z</time>
<speed>0.020000</speed>
<extensions>
<speed>0.0</speed>
<temp>0.00</temp>
<bpm>0</bpm>
<rpm>0.00</rpm>
</extensions>
</trkpt>
<trkpt lat="64.279968262" lon="-21.087009430">
<ele>117.410156</ele>
<time>2012-07-18T17:50:35Z</time>
<speed>0.020000</speed>
<extensions>
<speed>0.0</speed>
<temp>0.00</temp>
<bpm>0</bpm>
<rpm>0.00</rpm>
</extensions>
</trkpt>
<trkpt lat="64.279968262" lon="-21.087011337">
<ele>117.398438</ele>
<time>2012-07-18T17:50:40Z</time>
<speed>0.020000</speed>
<extensions>
<speed>0.0</speed>
<temp>0.00</temp>
<bpm>0</bpm>
<rpm>0.00</rpm>
</extensions>
</trkpt>
<trkpt lat="64.279968262" lon="-21.087011337">
<ele>117.312500</ele>
<time>2012-07-18T17:50:45Z</time>
<speed>0.010000</speed>
<extensions>
<speed>0.0</speed>
<temp>0.00</temp>
<bpm>0</bpm>
<rpm>0.00</rpm>
</extensions>
</trkpt>
<trkpt lat="64.279968262" lon="-21.087011337">
<ele>117.322266</ele>
<time>2012-07-18T17:50:50Z</time>
<speed>0.010000</speed>
<extensions>
<speed>0.0</speed>
<temp>0.00</temp>
<bpm>0</bpm>
<rpm>0.00</rpm>
</extensions>
</trkpt>
<trkpt lat="64.279968262" lon="-21.087013245">
<ele>117.326172</ele>
<time>2012-07-18T17:50:55Z</time>
<extensions>
<speed>0.0</speed>
<temp>0.00</temp>
<bpm>0</bpm>
<rpm>0.00</rpm>
</extensions>
</trkpt>
<trkpt lat="64.279968262" lon="-21.087013245">
<ele>117.328125</ele>
<time>2012-07-18T17:51:00Z</time>
<extensions>
<speed>0.0</speed>
<temp>0.00</temp>
<bpm>0</bpm>
<rpm>0.00</rpm>
</extensions>
</trkpt>
<trkpt lat="64.279968262" lon="-21.087013245">
<ele>117.332031</ele>
<time>2012-07-18T17:51:05Z</time>
<speed>0.010000</speed>
<extensions>
<speed>0.0</speed>
<temp>0.00</temp>
<bpm>0</bpm>
<rpm>0.00</rpm>
</extensions>
</trkpt>
<trkpt lat="64.279968262" lon="-21.087013245">
<ele>117.337891</ele>
<time>2012-07-18T17:51:10Z</time>
<extensions>
<speed>0.0</speed>
<temp>0.00</temp>
<bpm>0</bpm>
<rpm>0.00</rpm>
</extensions>
</trkpt>
<trkpt lat="64.279968262" lon="-21.087013245">
<ele>117.339844</ele>
<time>2012-07-18T17:51:15Z</time>
<extensions>
<speed>0.0</speed>
<temp>0.00</temp>
<bpm>0</bpm>
<rpm>0.00</rpm>
</extensions>
</trkpt>
<trkpt lat="64.279968262" lon="-21.087013245">
<ele>117.345703</ele>
<time>2012-07-18T17:51:20Z</time>
<extensions>
<speed>0.0</speed>
<temp>0.00</temp>
<bpm>0</bpm>
<rpm>0.00</rpm>
</extensions>
</trkpt>
<trkpt lat="64.279968262" lon="-21.087015152">
<ele>117.345703</ele>
<time>2012-07-18T17:51:25Z</time>
<extensions>
<speed>0.0</speed>
<temp>0.00</temp>
<bpm>0</bpm>
<rpm>0.00</rpm>
</extensions>
</trkpt>
<trkpt lat="64.279968262" lon="-21.087015152">
<ele>117.353516</ele>
<time>2012-07-18T17:51:30Z</time>
<speed>0.010000</speed>
<extensions>
<speed>0.0</speed>
<temp>0.00</temp>
<bpm>0</bpm>
<rpm>0.00</rpm>
</extensions>
</trkpt>
<trkpt lat="64.279968262" lon="-21.087013245">
<ele>117.363281</ele>
<time>2012-07-18T17:51:35Z</time>
<speed>0.010000</speed>
<extensions>
<speed>0.0</speed>
<temp>0.00</temp>
<bpm>0</bpm>
<rpm>0.00</rpm>
</extensions>
</trkpt>
<trkpt lat="64.279968262" lon="-21.087013245">
<ele>117.369141</ele>
<time>2012-07-18T17:51:40Z</time>
<speed>0.010000</speed>
<extensions>
<speed>0.0</speed>
<temp>0.00</temp>
<bpm>0</bpm>
<rpm>0.00</rpm>
</extensions>
</trkpt>
<trkpt lat="64.279968262" lon="-21.087013245">
<ele>117.367188</ele>
<time>2012-07-18T17:51:45Z</time>
<extensions>
<speed>0.0</speed>
<temp>0.00</temp>
<bpm>0</bpm>
<rpm>0.00</rpm>
</extensions>
</trkpt>
<trkpt lat="64.279968262" lon="-21.087013245">
<ele>117.367188</ele>
<time>2012-07-18T17:51:50Z</time>
<speed>0.010000</speed>
<extensions>
<speed>0.0</speed>
<temp>0.00</temp>
<bpm>0</bpm>
<rpm>0.00</rpm>
</extensions>
</trkpt>
<trkpt lat="64.279968262" lon="-21.087013245">
<ele>117.359375</ele>
<time>2012-07-18T17:51:55Z</time>
<speed>0.010000</speed>
<extensions>
<speed>0.0</speed>
<temp>0.00</temp>
<bpm>0</bpm>
<rpm>0.00</rpm>
</extensions>
</trkpt>
<trkpt lat="64.279968262" lon="-21.087013245">
<ele>117.365234</ele>
<time>2012-07-18T17:52:00Z</time>
<speed>0.010000</speed>
<extensions>
<speed>0.0</speed>
<temp>0.00</temp>
<bpm>0</bpm>
<rpm>0.00</rpm>
</extensions>
</trkpt>
<trkpt lat="64.279968262" lon="-21.087015152">
<ele>117.369141</ele>
<time>2012-07-18T17:52:05Z</time>
<extensions>
<speed>0.0</speed>
<temp>0.00</temp>
<bpm>0</bpm>
<rpm>0.00</rpm>
</extensions>
</trkpt>
<trkpt lat="64.279968262" lon="-21.087015152">
<ele>117.384766</ele>
<time>2012-07-18T17:52:10Z</time>
<speed>0.020000</speed>
<extensions>
<speed>0.0</speed>
<temp>0.00</temp>
<bpm>0</bpm>
<rpm>0.00</rpm>
</extensions>
</trkpt>
<trkpt lat="64.279968262" lon="-21.087015152">
<ele>117.392578</ele>
<time>2012-07-18T17:52:15Z</time>
<speed>0.020000</speed>
<extensions>
<speed>0.0</speed>
<temp>0.00</temp>
<bpm>0</bpm>
<rpm>0.00</rpm>
</extensions>
</trkpt>
<trkpt lat="64.279968262" lon="-21.087015152">
<ele>117.390625</ele>
<time>2012-07-18T17:52:20Z</time>
<extensions>
<speed>0.0</speed>
<temp>0.00</temp>
<bpm>0</bpm>
<rpm>0.00</rpm>
</extensions>
</trkpt>
<trkpt lat="64.279968262" lon="-21.087015152">
<ele>117.414063</ele>
<time>2012-07-18T17:52:25Z</time>
<extensions>
<speed>0.0</speed>
<temp>0.00</temp>
<bpm>0</bpm>
<rpm>0.00</rpm>
</extensions>
</trkpt>
<trkpt lat="64.279968262" lon="-21.087015152">
<ele>117.419922</ele>
<time>2012-07-18T17:52:30Z</time>
<speed>0.030000</speed>
<extensions>
<speed>0.0</speed>
<temp>0.00</temp>
<bpm>0</bpm>
<rpm>0.00</rpm>
</extensions>
</trkpt>
<trkpt lat="64.279968262" lon="-21.087013245">
<ele>117.433594</ele>
<time>2012-07-18T17:52:35Z</time>
<speed>0.030000</speed>
<extensions>
<speed>0.0</speed>
<temp>0.00</temp>
<bpm>0</bpm>
<rpm>0.00</rpm>
</extensions>
</trkpt>
<trkpt lat="64.279968262" lon="-21.087013245">
<ele>117.441406</ele>
<time>2012-07-18T17:52:40Z</time>
<speed>0.010000</speed>
<extensions>
<speed>0.0</speed>
<temp>0.00</temp>
<bpm>0</bpm>
<rpm>0.00</rpm>
</extensions>
</trkpt>
<trkpt lat="64.279968262" lon="-21.087013245">
<ele>117.449219</ele>
<time>2012-07-18T17:52:45Z</time>
<extensions>
<speed>0.0</speed>
<temp>0.00</temp>
<bpm>0</bpm>
<rpm>0.00</rpm>
</extensions>
</trkpt>
<trkpt lat="64.279968262" lon="-21.087013245">
<ele>117.457031</ele>
<time>2012-07-18T17:52:50Z</time>
<speed>0.010000</speed>
<extensions>
<speed>0.0</speed>
<temp>0.00</temp>
<bpm>0</bpm>
<rpm>0.00</rpm>
</extensions>
</trkpt>
<trkpt lat="64.279968262" lon="-21.087013245">
<ele>117.455078</ele>
<time>2012-07-18T17:52:55Z</time>
<speed>0.010000</speed>
<extensions>
<speed>0.0</speed>
<temp>0.00</temp>
<bpm>0</bpm>
<rpm>0.00</rpm>
</extensions>
</trkpt>
<trkpt lat="64.279968262" lon="-21.087013245">
<ele>117.445313</ele>
<time>2012-07-18T17:53:00Z</time>
<speed>0.030000</speed>
<extensions>
<speed>0.0</speed>
<temp>0.00</temp>
<bpm>0</bpm>
<rpm>0.00</rpm>
</extensions>
</trkpt>
<trkpt lat="64.279968262" lon="-21.087013245">
<ele>117.447266</ele>
<time>2012-07-18T17:53:05Z</time>
<extensions>
<speed>0.0</speed>
<temp>0.00</temp>
<bpm>0</bpm>
<rpm>0.00</rpm>
</extensions>
</trkpt>
<trkpt lat="64.279968262" lon="-21.087013245">
<ele>117.453125</ele>
<time>2012-07-18T17:53:10Z</time>
<speed>0.010000</speed>
<extensions>
<speed>0.0</speed>
<temp>0.00</temp>
<bpm>0</bpm>
<rpm>0.00</rpm>
</extensions>
</trkpt>
<trkpt lat="64.279968262" lon="-21.087013245">
<ele>117.445313</ele>
<time>2012-07-18T17:53:15Z</time>
<speed>0.020000</speed>
<extensions>
<speed>0.0</speed>
<temp>0.00</temp>
<bpm>0</bpm>
<rpm>0.00</rpm>
</extensions>
</trkpt>
<trkpt lat="64.279968262" lon="-21.087013245">
<ele>117.445313</ele>
<time>2012-07-18T17:53:20Z</time>
<speed>0.010000</speed>
<extensions>
<speed>0.0</speed>
<temp>0.00</temp>
<bpm>0</bpm>
<rpm>0.00</rpm>
</extensions>
</trkpt>
<trkpt lat="64.279968262" lon="-21.087013245">
<ele>117.445313</ele>
<time>2012-07-18T17:53:25Z</time>
<speed>0.020000</speed>
<extensions>
<speed>0.0</speed>
<temp>0.00</temp>
<bpm>0</bpm>
<rpm>0.00</rpm>
</extensions>
</trkpt>
<trkpt lat="64.279968262" lon="-21.087011337">
<ele>117.447266</ele>
<time>2012-07-18T17:53:30Z</time>
<speed>0.020000</speed>
<extensions>
<speed>0.0</speed>
<temp>0.00</temp>
<bpm>0</bpm>
<rpm>0.00</rpm>
</extensions>
</trkpt>
<trkpt lat="64.279968262" lon="-21.087011337">
<ele>117.449219</ele>
<time>2012-07-18T17:53:35Z</time>
<speed>0.030000</speed>
<extensions>
<speed>0.0</speed>
<temp>0.00</temp>
<bpm>0</bpm>
<rpm>0.00</rpm>
</extensions>
</trkpt>
<trkpt lat="64.279960632" lon="-21.087011337">
<ele>117.449219</ele>
<time>2012-07-18T17:53:40Z</time>
<speed>0.020000</speed>
<extensions>
<speed>0.0</speed>
<temp>0.00</temp>
<bpm>0</bpm>
<rpm>0.00</rpm>
</extensions>
</trkpt>
<trkpt lat="64.279960632" lon="-21.087009430">
<ele>117.451172</ele>
<time>2012-07-18T17:53:45Z</time>
<speed>0.020000</speed>
<extensions>
<speed>0.0</speed>
<temp>0.00</temp>
<bpm>0</bpm>
<rpm>0.00</rpm>
</extensions>
</trkpt>
<trkpt lat="64.279960632" lon="-21.087009430">
<ele>117.453125</ele>
<time>2012-07-18T17:53:50Z</time>
<speed>0.010000</speed>
<extensions>
<speed>0.0</speed>
<temp>0.00</temp>
<bpm>0</bpm>
<rpm>0.00</rpm>
</extensions>
</trkpt>
<trkpt lat="64.279960632" lon="-21.087011337">
<ele>117.455078</ele>
<time>2012-07-18T17:53:55Z</time>
<speed>0.010000</speed>
<extensions>
<speed>0.0</speed>
<temp>0.00</temp>
<bpm>0</bpm>
<rpm>0.00</rpm>
</extensions>
</trkpt>
<trkpt lat="64.279960632" lon="-21.087011337">
<ele>117.455078</ele>
<time>2012-07-18T17:54:00Z</time>
<extensions>
<speed>0.0</speed>
<temp>0.00</temp>
<bpm>0</bpm>
<rpm>0.00</rpm>
</extensions>
</trkpt>
<trkpt lat="64.279960632" lon="-21.087011337">
<ele>117.457031</ele>
<time>2012-07-18T17:54:05Z</time>
<speed>0.020000</speed>
<extensions>
<speed>0.0</speed>
<temp>0.00</temp>
<bpm>0</bpm>
<rpm>0.00</rpm>
</extensions>
</trkpt>
<trkpt lat="64.279960632" lon="-21.087009430">
<ele>117.466797</ele>
<time>2012-07-18T17:54:10Z</time>
<speed>0.540000</speed>
<extensions>
<speed>0.5</speed>
<temp>0.00</temp>
<bpm>0</bpm>
<rpm>0.00</rpm>
</extensions>
</trkpt>
<trkpt lat="64.279953003" lon="-21.087059021">
<ele>117.373047</ele>
<time>2012-07-18T17:54:15Z</time>
<speed>0.470000</speed>
<extensions>
<speed>0.5</speed>
<temp>0.00</temp>
<bpm>0</bpm>
<rpm>0.00</rpm>
</extensions>
</trkpt>
<trkpt lat="64.279960632" lon="-21.087120056">
<ele>116.615234</ele>
<time>2012-07-18T17:54:20Z</time>
<speed>0.360000</speed>
<extensions>
<speed>0.4</speed>
<temp>0.00</temp>
<bpm>0</bpm>
<rpm>0.00</rpm>
</extensions>
</trkpt>
<trkpt lat="64.279953003" lon="-21.087114334">
<ele>116.853516</ele>
<time>2012-07-18T17:54:25Z</time>
<speed>0.200000</speed>
<extensions>
<speed>0.2</speed>
<temp>0.00</temp>
<bpm>0</bpm>
<rpm>0.00</rpm>
</extensions>
</trkpt>
<trkpt lat="64.279945374" lon="-21.087125778">
<ele>116.937500</ele>
<time>2012-07-18T17:54:30Z</time>
<speed>0.170000</speed>
<extensions>
<speed>0.2</speed>
<temp>0.00</temp>
<bpm>0</bpm>
<rpm>0.00</rpm>
</extensions>
</trkpt>
<trkpt lat="64.279945374" lon="-21.087131500">
<ele>116.982422</ele>
<time>2012-07-18T17:54:35Z</time>
<speed>0.050000</speed>
<extensions>
<speed>0.1</speed>
<temp>0.00</temp>
<bpm>0</bpm>
<rpm>0.00</rpm>
</extensions>
</trkpt>
<trkpt lat="64.279945374" lon="-21.087125778">
<ele>117.021484</ele>
<time>2012-07-18T17:54:40Z</time>
<speed>0.220000</speed>
<extensions>
<speed>0.2</speed>
<temp>0.00</temp>
<bpm>0</bpm>
<rpm>0.00</rpm>
</extensions>
</trkpt>
<trkpt lat="64.279960632" lon="-21.087106705">
<ele>117.101563</ele>
<time>2012-07-18T17:54:45Z</time>
<speed>0.320000</speed>
<extensions>
<speed>0.3</speed>
<temp>0.00</temp>
<bpm>0</bpm>
<rpm>0.00</rpm>
</extensions>
</trkpt>
<trkpt lat="64.279975891" lon="-21.087043762">
<ele>117.353516</ele>
<time>2012-07-18T17:54:50Z</time>
<speed>0.360000</speed>
<extensions>
<speed>0.4</speed>
<temp>0.00</temp>
<bpm>0</bpm>
<rpm>0.00</rpm>
</extensions>
</trkpt>
<trkpt lat="64.279975891" lon="-21.087024689">
<ele>117.035156</ele>
<time>2012-07-18T17:54:55Z</time>
<speed>0.170000</speed>
<extensions>
<speed>0.2</speed>
<temp>0.00</temp>
<bpm>0</bpm>
<rpm>0.00</rpm>
</extensions>
</trkpt>
<trkpt lat="64.279983521" lon="-21.087011337">
<ele>117.017578</ele>
<time>2012-07-18T17:55:00Z</time>
<speed>0.180000</speed>
<extensions>
<speed>0.2</speed>
<temp>0.00</temp>
<bpm>0</bpm>
<rpm>0.00</rpm>
</extensions>
</trkpt>
<trkpt lat="64.279983521" lon="-21.086997986">
<ele>117.042969</ele>
<time>2012-07-18T17:55:05Z</time>
<speed>0.110000</speed>
<extensions>
<speed>0.1</speed>
<temp>0.00</temp>
<bpm>0</bpm>
<rpm>0.00</rpm>
</extensions>
</trkpt>
<trkpt lat="64.279991150" lon="-21.086992264">
<ele>117.054688</ele>
<time>2012-07-18T17:55:10Z</time>
<speed>0.100000</speed>
<extensions>
<speed>0.1</speed>
<temp>0.00</temp>
<bpm>0</bpm>
<rpm>0.00</rpm>
</extensions>
</trkpt>
<trkpt lat="64.279991150" lon="-21.086980820">
<ele>117.068359</ele>
<time>2012-07-18T17:55:15Z</time>
<speed>0.140000</speed>
<extensions>
<speed>0.1</speed>
<temp>0.00</temp>
<bpm>0</bpm>
<rpm>0.00</rpm>
</extensions>
</trkpt>
<trkpt lat="64.279998779" lon="-21.086971283">
<ele>117.083984</ele>
<time>2012-07-18T17:55:20Z</time>
<speed>0.080000</speed>
<extensions>
<speed>0.1</speed>
<temp>0.00</temp>
<bpm>0</bpm>
<rpm>0.00</rpm>
</extensions>
</trkpt>
<trkpt lat="64.279998779" lon="-21.086965561">
<ele>117.095703</ele>
<time>2012-07-18T17:55:25Z</time>
<speed>0.060000</speed>
<extensions>
<speed>0.1</speed>
<temp>0.00</temp>
<bpm>0</bpm>
<rpm>0.00</rpm>
</extensions>
</trkpt>
<trkpt lat="64.279991150" lon="-21.086956024">
<ele>117.068359</ele>
<time>2012-07-18T17:55:30Z</time>
<speed>0.450000</speed>
<extensions>
<speed>0.5</speed>
<temp>0.00</temp>
<bpm>0</bpm>
<rpm>0.00</rpm>
</extensions>
</trkpt>
<trkpt lat="64.279960632" lon="-21.086988449">
<ele>117.134766</ele>
<time>2012-07-18T17:55:35Z</time>
<speed>0.340000</speed>
<extensions>
<speed>0.3</speed>
<temp>0.00</temp>
<bpm>0</bpm>
<rpm>0.00</rpm>
</extensions>
</trkpt>
<trkpt lat="64.279953003" lon="-21.086988449">
<ele>117.154297</ele>
<time>2012-07-18T17:55:40Z</time>
<speed>0.240000</speed>
<extensions>
<speed>0.2</speed>
<temp>0.00</temp>
<bpm>0</bpm>
<rpm>0.00</rpm>
</extensions>
</trkpt>
<trkpt lat="64.279937744" lon="-21.086971283">
<ele>117.103516</ele>
<time>2012-07-18T17:55:45Z</time>
<speed>0.250000</speed>
<extensions>
<speed>0.2</speed>
<temp>0.00</temp>
<bpm>0</bpm>
<rpm>0.00</rpm>
</extensions>
</trkpt>
<trkpt lat="64.279930115" lon="-21.086963654">
<ele>117.037109</ele>
<time>2012-07-18T17:55:50Z</time>
<speed>0.080000</speed>
<extensions>
<speed>0.1</speed>
<temp>0.00</temp>
<bpm>0</bpm>
<rpm>0.00</rpm>
</extensions>
</trkpt>
<trkpt lat="64.279930115" lon="-21.086967468">
<ele>116.968750</ele>
<time>2012-07-18T17:55:55Z</time>
<speed>0.100000</speed>
<extensions>
<speed>0.1</speed>
<temp>0.00</temp>
<bpm>0</bpm>
<rpm>0.00</rpm>
</extensions>
</trkpt>
<trkpt lat="64.279922485" lon="-21.086973190">
<ele>116.908203</ele>
<time>2012-07-18T17:56:00Z</time>
<speed>0.090000</speed>
<extensions>
<speed>0.1</speed>
<temp>0.00</temp>
<bpm>0</bpm>
<rpm>0.00</rpm>
</extensions>
</trkpt>
<trkpt lat="64.279922485" lon="-21.086975098">
<ele>116.849609</ele>
<time>2012-07-18T17:56:05Z</time>
<speed>0.020000</speed>
<extensions>
<speed>0.0</speed>
<temp>0.00</temp>
<bpm>0</bpm>
<rpm>0.00</rpm>
</extensions>
</trkpt>
<trkpt lat="64.279922485" lon="-21.086977005">
<ele>116.791016</ele>
<time>2012-07-18T17:56:10Z</time>
<speed>0.010000</speed>
<extensions>
<speed>0.0</speed>
<temp>0.00</temp>
<bpm>0</bpm>
<rpm>0.00</rpm>
</extensions>
</trkpt>
<trkpt lat="64.279922485" lon="-21.086978912">
<ele>116.759766</ele>
<time>2012-07-18T17:56:15Z</time>
<speed>0.030000</speed>
<extensions>
<speed>0.0</speed>
<temp>0.00</temp>
<bpm>0</bpm>
<rpm>0.00</rpm>
</extensions>
</trkpt>
<trkpt lat="64.279922485" lon="-21.086980820">
<ele>116.763672</ele>
<time>2012-07-18T17:56:20Z</time>
<speed>0.060000</speed>
<extensions>
<speed>0.1</speed>
<temp>0.00</temp>
<bpm>0</bpm>
<rpm>0.00</rpm>
</extensions>
</trkpt>
<trkpt lat="64.279922485" lon="-21.086980820">
<ele>116.765625</ele>
<time>2012-07-18T17:56:25Z</time>
<speed>0.010000</speed>
<extensions>
<speed>0.0</speed>
<temp>0.00</temp>
<bpm>0</bpm>
<rpm>0.00</rpm>
</extensions>
</trkpt>
<trkpt lat="64.279922485" lon="-21.086980820">
<ele>116.765625</ele>
<time>2012-07-18T17:56:30Z</time>
<speed>0.020000</speed>
<extensions>
<speed>0.0</speed>
<temp>0.00</temp>
<bpm>0</bpm>
<rpm>0.00</rpm>
</extensions>
</trkpt>
<trkpt lat="64.279922485" lon="-21.086980820">
<ele>116.767578</ele>
<time>2012-07-18T17:56:35Z</time>
<extensions>
<speed>0.0</speed>
<temp>0.00</temp>
<bpm>0</bpm>
<rpm>0.00</rpm>
</extensions>
</trkpt>
<trkpt lat="64.279922485" lon="-21.086980820">
<ele>116.769531</ele>
<time>2012-07-18T17:56:40Z</time>
<speed>0.020000</speed>
<extensions>
<speed>0.0</speed>
<temp>0.00</temp>
<bpm>0</bpm>
<rpm>0.00</rpm>
</extensions>
</trkpt>
<trkpt lat="64.279922485" lon="-21.086980820">
<ele>116.771484</ele>
<time>2012-07-18T17:56:45Z</time>
<speed>0.010000</speed>
<extensions>
<speed>0.0</speed>
<temp>0.00</temp>
<bpm>0</bpm>
<rpm>0.00</rpm>
</extensions>
</trkpt>
<trkpt lat="64.279922485" lon="-21.086980820">
<ele>116.773438</ele>
<time>2012-07-18T17:56:50Z</time>
<speed>0.010000</speed>
<extensions>
<speed>0.0</speed>
<temp>0.00</temp>
<bpm>0</bpm>
<rpm>0.00</rpm>
</extensions>
</trkpt>
<trkpt lat="64.279922485" lon="-21.086980820">
<ele>116.773438</ele>
<time>2012-07-18T17:56:55Z</time>
<speed>0.010000</speed>
<extensions>
<speed>0.0</speed>
<temp>0.00</temp>
<bpm>0</bpm>
<rpm>0.00</rpm>
</extensions>
</trkpt>
<trkpt lat="64.279922485" lon="-21.086980820">
<ele>116.775391</ele>
<time>2012-07-18T17:57:00Z</time>
<speed>0.040000</speed>
<extensions>
<speed>0.0</speed>
<temp>0.00</temp>
<bpm>0</bpm>
<rpm>0.00</rpm>
</extensions>
</trkpt>
<trkpt lat="64.279922485" lon="-21.086978912">
<ele>116.779297</ele>
<time>2012-07-18T17:57:05Z</time>
<speed>0.020000</speed>
<extensions>
<speed>0.0</speed>
<temp>0.00</temp>
<bpm>0</bpm>
<rpm>0.00</rpm>
</extensions>
</trkpt>
<trkpt lat="64.279922485" lon="-21.086977005">
<ele>116.781250</ele>
<time>2012-07-18T17:57:10Z</time>
<speed>0.010000</speed>
<extensions>
<speed>0.0</speed>
<temp>0.00</temp>
<bpm>0</bpm>
<rpm>0.00</rpm>
</extensions>
</trkpt>
<trkpt lat="64.279914856" lon="-21.086977005">
<ele>116.785156</ele>
<time>2012-07-18T17:57:15Z</time>
<speed>0.010000</speed>
<extensions>
<speed>0.0</speed>
<temp>0.00</temp>
<bpm>0</bpm>
<rpm>0.00</rpm>
</extensions>
</trkpt>
<trkpt lat="64.279914856" lon="-21.086975098">
<ele>116.787109</ele>
<time>2012-07-18T17:57:20Z</time>
<extensions>
<speed>0.0</speed>
<temp>0.00</temp>
<bpm>0</bpm>
<rpm>0.00</rpm>
</extensions>
</trkpt>
<trkpt lat="64.279914856" lon="-21.086975098">
<ele>116.791016</ele>
<time>2012-07-18T17:57:25Z</time>
<extensions>
<speed>0.0</speed>
<temp>0.00</temp>
<bpm>0</bpm>
<rpm>0.00</rpm>
</extensions>
</trkpt>
<trkpt lat="64.279914856" lon="-21.086975098">
<ele>116.792969</ele>
<time>2012-07-18T17:57:30Z</time>
<speed>0.010000</speed>
<extensions>
<speed>0.0</speed>
<temp>0.00</temp>
<bpm>0</bpm>
<rpm>0.00</rpm>
</extensions>
</trkpt>
<trkpt lat="64.279914856" lon="-21.086975098">
<ele>116.794922</ele>
<time>2012-07-18T17:57:35Z</time>
<extensions>
<speed>0.0</speed>
<temp>0.00</temp>
<bpm>0</bpm>
<rpm>0.00</rpm>
</extensions>
</trkpt>
<trkpt lat="64.279914856" lon="-21.086975098">
<ele>116.798828</ele>
<time>2012-07-18T17:57:40Z</time>
<speed>0.060000</speed>
<extensions>
<speed>0.1</speed>
<temp>0.00</temp>
<bpm>0</bpm>
<rpm>0.00</rpm>
</extensions>
</trkpt>
<trkpt lat="64.279899597" lon="-21.087051392">
<ele>116.820313</ele>
<time>2012-07-18T17:57:45Z</time>
<speed>0.260000</speed>
<extensions>
<speed>0.3</speed>
<temp>0.00</temp>
<bpm>0</bpm>
<rpm>0.00</rpm>
</extensions>
</trkpt>
<trkpt lat="64.279891968" lon="-21.087078094">
<ele>116.578125</ele>
<time>2012-07-18T17:57:50Z</time>
<speed>0.110000</speed>
<extensions>
<speed>0.1</speed>
<temp>0.00</temp>
<bpm>0</bpm>
<rpm>0.00</rpm>
</extensions>
</trkpt>
<trkpt lat="64.279891968" lon="-21.087083817">
<ele>116.556641</ele>
<time>2012-07-18T17:57:55Z</time>
<speed>0.070000</speed>
<extensions>
<speed>0.1</speed>
<temp>0.00</temp>
<bpm>0</bpm>
<rpm>0.00</rpm>
</extensions>
</trkpt>
<trkpt lat="64.279899597" lon="-21.087083817">
<ele>116.537109</ele>
<time>2012-07-18T17:58:00Z</time>
<speed>0.010000</speed>
<extensions>
<speed>0.0</speed>
<temp>0.00</temp>
<bpm>0</bpm>
<rpm>0.00</rpm>
</extensions>
</trkpt>
<trkpt lat="64.279899597" lon="-21.087087631">
<ele>116.511719</ele>
<time>2012-07-18T17:58:05Z</time>
<speed>0.120000</speed>
<extensions>
<speed>0.1</speed>
<temp>0.00</temp>
<bpm>0</bpm>
<rpm>0.00</rpm>
</extensions>
</trkpt>
<trkpt lat="64.279899597" lon="-21.087081909">
<ele>116.498047</ele>
<time>2012-07-18T17:58:10Z</time>
<speed>0.130000</speed>
<extensions>
<speed>0.1</speed>
<temp>0.00</temp>
<bpm>0</bpm>
<rpm>0.00</rpm>
</extensions>
</trkpt>
<trkpt lat="64.279891968" lon="-21.087087631">
<ele>116.425781</ele>
<time>2012-07-18T17:58:15Z</time>
<speed>0.210000</speed>
<extensions>
<speed>0.2</speed>
<temp>0.00</temp>
<bpm>0</bpm>
<rpm>0.00</rpm>
</extensions>
</trkpt>
<trkpt lat="64.279884338" lon="-21.087118149">
<ele>116.361328</ele>
<time>2012-07-18T17:58:20Z</time>
<speed>0.060000</speed>
<extensions>
<speed>0.1</speed>
<temp>0.00</temp>
<bpm>0</bpm>
<rpm>0.00</rpm>
</extensions>
</trkpt>
<trkpt lat="64.279884338" lon="-21.087118149">
<ele>116.359375</ele>
<time>2012-07-18T17:58:25Z</time>
<speed>0.260000</speed>
<extensions>
<speed>0.3</speed>
<temp>0.00</temp>
<bpm>0</bpm>
<rpm>0.00</rpm>
</extensions>
</trkpt>
<trkpt lat="64.279876709" lon="-21.087123871">
<ele>116.353516</ele>
<time>2012-07-18T17:58:30Z</time>
<speed>0.070000</speed>
<extensions>
<speed>0.1</speed>
<temp>0.00</temp>
<bpm>0</bpm>
<rpm>0.00</rpm>
</extensions>
</trkpt>
<trkpt lat="64.279869080" lon="-21.087116241">
<ele>116.353516</ele>
<time>2012-07-18T17:58:35Z</time>
<speed>0.100000</speed>
<extensions>
<speed>0.1</speed>
<temp>0.00</temp>
<bpm>0</bpm>
<rpm>0.00</rpm>
</extensions>
</trkpt>
<trkpt lat="64.279869080" lon="-21.087125778">
<ele>116.357422</ele>
<time>2012-07-18T17:58:40Z</time>
<speed>0.030000</speed>
<extensions>
<speed>0.0</speed>
<temp>0.00</temp>
<bpm>0</bpm>
<rpm>0.00</rpm>
</extensions>
</trkpt>
<trkpt lat="64.279876709" lon="-21.087114334">
<ele>116.359375</ele>
<time>2012-07-18T17:58:45Z</time>
<speed>0.190000</speed>
<extensions>
<speed>0.2</speed>
<temp>0.00</temp>
<bpm>0</bpm>
<rpm>0.00</rpm>
</extensions>
</trkpt>
<trkpt lat="64.279884338" lon="-21.087099075">
<ele>116.333984</ele>
<time>2012-07-18T17:58:50Z</time>
<speed>0.150000</speed>
<extensions>
<speed>0.2</speed>
<temp>0.00</temp>
<bpm>0</bpm>
<rpm>0.00</rpm>
</extensions>
</trkpt>
<trkpt lat="64.279891968" lon="-21.087118149">
<ele>116.408203</ele>
<time>2012-07-18T17:58:55Z</time>
<speed>0.010000</speed>
<extensions>
<speed>0.0</speed>
<temp>0.00</temp>
<bpm>0</bpm>
<rpm>0.00</rpm>
</extensions>
</trkpt>
<trkpt lat="64.279891968" lon="-21.087131500">
<ele>116.240234</ele>
<time>2012-07-18T17:59:00Z</time>
<speed>0.050000</speed>
<extensions>
<speed>0.1</speed>
<temp>0.00</temp>
<bpm>0</bpm>
<rpm>0.00</rpm>
</extensions>
</trkpt>
<trkpt lat="64.279891968" lon="-21.087142944">
<ele>116.101563</ele>
<time>2012-07-18T17:59:05Z</time>
<speed>0.050000</speed>
<extensions>
<speed>0.1</speed>
<temp>0.00</temp>
<bpm>0</bpm>
<rpm>0.00</rpm>
</extensions>
</trkpt>
<trkpt lat="64.279907227" lon="-21.087135315">
<ele>116.000000</ele>
<time>2012-07-18T17:59:10Z</time>
<speed>0.020000</speed>
<extensions>
<speed>0.0</speed>
<temp>0.00</temp>
<bpm>0</bpm>
<rpm>0.00</rpm>
</extensions>
</trkpt>
<trkpt lat="64.279922485" lon="-21.087131500">
<ele>116.312500</ele>
<time>2012-07-18T17:59:15Z</time>
<speed>0.050000</speed>
<extensions>
<speed>0.1</speed>
<temp>0.00</temp>
<bpm>0</bpm>
<rpm>0.00</rpm>
</extensions>
</trkpt>
<trkpt lat="64.279930115" lon="-21.087106705">
<ele>116.058594</ele>
<time>2012-07-18T17:59:20Z</time>
<speed>0.080000</speed>
<extensions>
<speed>0.1</speed>
<temp>0.00</temp>
<bpm>0</bpm>
<rpm>0.00</rpm>
</extensions>
</trkpt>
<trkpt lat="64.279937744" lon="-21.087139130">
<ele>115.857422</ele>
<time>2012-07-18T17:59:25Z</time>
<speed>0.050000</speed>
<extensions>
<speed>0.1</speed>
<temp>0.00</temp>
<bpm>0</bpm>
<rpm>0.00</rpm>
</extensions>
</trkpt>
<trkpt lat="64.279937744" lon="-21.087139130">
<ele>115.919922</ele>
<time>2012-07-18T17:59:30Z</time>
<speed>0.100000</speed>
<extensions>
<speed>0.1</speed>
<temp>0.00</temp>
<bpm>0</bpm>
<rpm>0.00</rpm>
</extensions>
</trkpt>
<trkpt lat="64.279937744" lon="-21.087137222">
<ele>116.015625</ele>
<time>2012-07-18T17:59:35Z</time>
<speed>0.130000</speed>
<extensions>
<speed>0.1</speed>
<temp>0.00</temp>
<bpm>0</bpm>
<rpm>0.00</rpm>
</extensions>
</trkpt>
<trkpt lat="64.279937744" lon="-21.087139130">
<ele>116.025391</ele>
<time>2012-07-18T17:59:40Z</time>
<speed>0.030000</speed>
<extensions>
<speed>0.0</speed>
<temp>0.00</temp>
<bpm>0</bpm>
<rpm>0.00</rpm>
</extensions>
</trkpt>
<trkpt lat="64.279937744" lon="-21.087137222">
<ele>116.052734</ele>
<time>2012-07-18T17:59:45Z</time>
<speed>0.050000</speed>
<extensions>
<speed>0.1</speed>
<temp>0.00</temp>
<bpm>0</bpm>
<rpm>0.00</rpm>
</extensions>
</trkpt>
<trkpt lat="64.279937744" lon="-21.087131500">
<ele>116.677734</ele>
<time>2012-07-18T17:59:50Z</time>
<speed>0.160000</speed>
<extensions>
<speed>0.2</speed>
<temp>0.00</temp>
<bpm>0</bpm>
<rpm>0.00</rpm>
</extensions>
</trkpt>
<trkpt lat="64.279937744" lon="-21.087118149">
<ele>116.328125</ele>
<time>2012-07-18T17:59:55Z</time>
<speed>0.330000</speed>
<extensions>
<speed>0.3</speed>
<temp>0.00</temp>
<bpm>0</bpm>
<rpm>0.00</rpm>
</extensions>
</trkpt>
<trkpt lat="64.279930115" lon="-21.087110519">
<ele>116.435547</ele>
<time>2012-07-18T18:00:00Z</time>
<speed>0.030000</speed>
<extensions>
<speed>0.0</speed>
<temp>0.00</temp>
<bpm>0</bpm>
<rpm>0.00</rpm>
</extensions>
</trkpt>
<trkpt lat="64.279937744" lon="-21.087110519">
<ele>116.445313</ele>
<time>2012-07-18T18:00:05Z</time>
<speed>0.060000</speed>
<extensions>
<speed>0.1</speed>
<temp>0.00</temp>
<bpm>0</bpm>
<rpm>0.00</rpm>
</extensions>
</trkpt>
<trkpt lat="64.279937744" lon="-21.087102890">
<ele>116.455078</ele>
<time>2012-07-18T18:00:10Z</time>
<speed>0.150000</speed>
<extensions>
<speed>0.2</speed>
<temp>0.00</temp>
<bpm>0</bpm>
<rpm>0.00</rpm>
</extensions>
</trkpt>
<trkpt lat="64.279945374" lon="-21.087100983">
<ele>116.462891</ele>
<time>2012-07-18T18:00:15Z</time>
<speed>0.080000</speed>
<extensions>
<speed>0.1</speed>
<temp>0.00</temp>
<bpm>0</bpm>
<rpm>0.00</rpm>
</extensions>
</trkpt>
<trkpt lat="64.279945374" lon="-21.087083817">
<ele>116.238281</ele>
<time>2012-07-18T18:00:20Z</time>
<speed>0.360000</speed>
<extensions>
<speed>0.4</speed>
<temp>0.00</temp>
<bpm>0</bpm>
<rpm>0.00</rpm>
</extensions>
</trkpt>
<trkpt lat="64.279922485" lon="-21.087089539">
<ele>117.318359</ele>
<time>2012-07-18T18:00:25Z</time>
<speed>0.070000</speed>
<extensions>
<speed>0.1</speed>
<temp>0.00</temp>
<bpm>0</bpm>
<rpm>0.00</rpm>
</extensions>
</trkpt>
<trkpt lat="64.279930115" lon="-21.087099075">
<ele>117.085938</ele>
<time>2012-07-18T18:00:30Z</time>
<speed>0.120000</speed>
<extensions>
<speed>0.1</speed>
<temp>0.00</temp>
<bpm>0</bpm>
<rpm>0.00</rpm>
</extensions>
</trkpt>
<trkpt lat="64.279930115" lon="-21.087078094">
<ele>117.093750</ele>
<time>2012-07-18T18:00:35Z</time>
<speed>0.200000</speed>
<extensions>
<speed>0.2</speed>
<temp>0.00</temp>
<bpm>0</bpm>
<rpm>0.00</rpm>
</extensions>
</trkpt>
<trkpt lat="64.279930115" lon="-21.087059021">
<ele>117.097656</ele>
<time>2012-07-18T18:00:40Z</time>
<speed>0.130000</speed>
<extensions>
<speed>0.1</speed>
<temp>0.00</temp>
<bpm>0</bpm>
<rpm>0.00</rpm>
</extensions>
</trkpt>
<trkpt lat="64.279930115" lon="-21.087102890">
<ele>117.128906</ele>
<time>2012-07-18T18:00:45Z</time>
<speed>0.340000</speed>
<extensions>
<speed>0.3</speed>
<temp>0.00</temp>
<bpm>0</bpm>
<rpm>0.00</rpm>
</extensions>
</trkpt>
<trkpt lat="64.279930115" lon="-21.087121964">
<ele>117.062500</ele>
<time>2012-07-18T18:00:50Z</time>
<speed>0.070000</speed>
<extensions>
<speed>0.1</speed>
<temp>0.00</temp>
<bpm>0</bpm>
<rpm>0.00</rpm>
</extensions>
</trkpt>
<trkpt lat="64.279937744" lon="-21.087135315">
<ele>117.058594</ele>
<time>2012-07-18T18:00:55Z</time>
<speed>0.090000</speed>
<extensions>
<speed>0.1</speed>
<temp>0.00</temp>
<bpm>0</bpm>
<rpm>0.00</rpm>
</extensions>
</trkpt>
<trkpt lat="64.279930115" lon="-21.087146759">
<ele>117.052734</ele>
<time>2012-07-18T18:01:00Z</time>
<speed>0.100000</speed>
<extensions>
<speed>0.1</speed>
<temp>0.00</temp>
<bpm>0</bpm>
<rpm>0.00</rpm>
</extensions>
</trkpt>
<trkpt lat="64.279930115" lon="-21.087156296">
<ele>117.158203</ele>
<time>2012-07-18T18:01:05Z</time>
<speed>0.250000</speed>
<extensions>
<speed>0.2</speed>
<temp>0.00</temp>
<bpm>0</bpm>
<rpm>0.00</rpm>
</extensions>
</trkpt>
<trkpt lat="64.279930115" lon="-21.087112427">
<ele>117.693359</ele>
<time>2012-07-18T18:01:10Z</time>
<speed>0.010000</speed>
<extensions>
<speed>0.0</speed>
<temp>0.00</temp>
<bpm>0</bpm>
<rpm>0.00</rpm>
</extensions>
</trkpt>
<trkpt lat="64.279930115" lon="-21.087116241">
<ele>117.730469</ele>
<time>2012-07-18T18:01:15Z</time>
<speed>0.070000</speed>
<extensions>
<speed>0.1</speed>
<temp>0.00</temp>
<bpm>0</bpm>
<rpm>0.00</rpm>
</extensions>
</trkpt>
<trkpt lat="64.279922485" lon="-21.087121964">
<ele>117.714844</ele>
<time>2012-07-18T18:01:20Z</time>
<speed>0.100000</speed>
<extensions>
<speed>0.1</speed>
<temp>0.00</temp>
<bpm>0</bpm>
<rpm>0.00</rpm>
</extensions>
</trkpt>
<trkpt lat="64.279930115" lon="-21.087123871">
<ele>117.722656</ele>
<time>2012-07-18T18:01:25Z</time>
<speed>0.020000</speed>
<extensions>
<speed>0.0</speed>
<temp>0.00</temp>
<bpm>0</bpm>
<rpm>0.00</rpm>
</extensions>
</trkpt>
<trkpt lat="64.279930115" lon="-21.087123871">
<ele>117.699219</ele>
<time>2012-07-18T18:01:30Z</time>
<speed>0.070000</speed>
<extensions>
<speed>0.1</speed>
<temp>0.00</temp>
<bpm>0</bpm>
<rpm>0.00</rpm>
</extensions>
</trkpt>
<trkpt lat="64.279937744" lon="-21.087131500">
<ele>117.589844</ele>
<time>2012-07-18T18:01:35Z</time>
<speed>0.270000</speed>
<extensions>
<speed>0.3</speed>
<temp>0.00</temp>
<bpm>0</bpm>
<rpm>0.00</rpm>
</extensions>
</trkpt>
<trkpt lat="64.279930115" lon="-21.087158203">
<ele>117.638672</ele>
<time>2012-07-18T18:01:40Z</time>
<speed>0.210000</speed>
<extensions>
<speed>0.2</speed>
<temp>0.00</temp>
<bpm>0</bpm>
<rpm>0.00</rpm>
</extensions>
</trkpt>
<trkpt lat="64.279953003" lon="-21.087110519">
<ele>117.433594</ele>
<time>2012-07-18T18:01:45Z</time>
<speed>0.470000</speed>
<extensions>
<speed>0.5</speed>
<temp>0.00</temp>
<bpm>0</bpm>
<rpm>0.00</rpm>
</extensions>
</trkpt>
<trkpt lat="64.279937744" lon="-21.087112427">
<ele>117.164063</ele>
<time>2012-07-18T18:01:50Z</time>
<extensions>
<speed>0.0</speed>
<temp>0.00</temp>
<bpm>0</bpm>
<rpm>0.00</rpm>
</extensions>
</trkpt>
<trkpt lat="64.279937744" lon="-21.087106705">
<ele>117.140625</ele>
<time>2012-07-18T18:01:55Z</time>
<speed>0.110000</speed>
<extensions>
<speed>0.1</speed>
<temp>0.00</temp>
<bpm>0</bpm>
<rpm>0.00</rpm>
</extensions>
</trkpt>
<trkpt lat="64.279937744" lon="-21.087102890">
<ele>117.115234</ele>
<time>2012-07-18T18:02:00Z</time>
<speed>0.010000</speed>
<extensions>
<speed>0.0</speed>
<temp>0.00</temp>
<bpm>0</bpm>
<rpm>0.00</rpm>
</extensions>
</trkpt>
<trkpt lat="64.279945374" lon="-21.087106705">
<ele>117.095703</ele>
<time>2012-07-18T18:02:05Z</time>
<speed>0.170000</speed>
<extensions>
<speed>0.2</speed>
<temp>0.00</temp>
<bpm>0</bpm>
<rpm>0.00</rpm>
</extensions>
</trkpt>
<trkpt lat="64.279937744" lon="-21.087099075">
<ele>117.095703</ele>
<time>2012-07-18T18:02:10Z</time>
<speed>0.130000</speed>
<extensions>
<speed>0.1</speed>
<temp>0.00</temp>
<bpm>0</bpm>
<rpm>0.00</rpm>
</extensions>
</trkpt>
<trkpt lat="64.279937744" lon="-21.087102890">
<ele>117.146484</ele>
<time>2012-07-18T18:02:15Z</time>
<speed>0.120000</speed>
<extensions>
<speed>0.1</speed>
<temp>0.00</temp>
<bpm>0</bpm>
<rpm>0.00</rpm>
</extensions>
</trkpt>
<trkpt lat="64.279937744" lon="-21.087106705">
<ele>117.160156</ele>
<time>2012-07-18T18:02:20Z</time>
<speed>0.130000</speed>
<extensions>
<speed>0.1</speed>
<temp>0.00</temp>
<bpm>0</bpm>
<rpm>0.00</rpm>
</extensions>
</trkpt>
<trkpt lat="64.279937744" lon="-21.087114334">
<ele>116.982422</ele>
<time>2012-07-18T18:02:25Z</time>
<speed>0.290000</speed>
<extensions>
<speed>0.3</speed>
<temp>0.00</temp>
<bpm>0</bpm>
<rpm>0.00</rpm>
</extensions>
</trkpt>
<trkpt lat="64.279922485" lon="-21.087114334">
<ele>116.917969</ele>
<time>2012-07-18T18:02:30Z</time>
<speed>0.080000</speed>
<extensions>
<speed>0.1</speed>
<temp>0.00</temp>
<bpm>0</bpm>
<rpm>0.00</rpm>
</extensions>
</trkpt>
<trkpt lat="64.279922485" lon="-21.087114334">
<ele>116.619141</ele>
<time>2012-07-18T18:02:35Z</time>
<speed>0.080000</speed>
<extensions>
<speed>0.1</speed>
<temp>0.00</temp>
<bpm>0</bpm>
<rpm>0.00</rpm>
</extensions>
</trkpt>
<trkpt lat="64.279930115" lon="-21.087118149">
<ele>116.361328</ele>
<time>2012-07-18T18:02:40Z</time>
<speed>0.160000</speed>
<extensions>
<speed>0.2</speed>
<temp>0.00</temp>
<bpm>0</bpm>
<rpm>0.00</rpm>
</extensions>
</trkpt>
<trkpt lat="64.279937744" lon="-21.087125778">
<ele>116.101563</ele>
<time>2012-07-18T18:02:45Z</time>
<speed>0.220000</speed>
<extensions>
<speed>0.2</speed>
<temp>0.00</temp>
<bpm>0</bpm>
<rpm>0.00</rpm>
</extensions>
</trkpt>
<trkpt lat="64.279953003" lon="-21.087125778">
<ele>115.843750</ele>
<time>2012-07-18T18:02:50Z</time>
<speed>0.160000</speed>
<extensions>
<speed>0.2</speed>
<temp>0.00</temp>
<bpm>0</bpm>
<rpm>0.00</rpm>
</extensions>
</trkpt>
<trkpt lat="64.279960632" lon="-21.087125778">
<ele>115.585938</ele>
<time>2012-07-18T18:02:55Z</time>
<speed>0.160000</speed>
<extensions>
<speed>0.2</speed>
<temp>0.00</temp>
<bpm>0</bpm>
<rpm>0.00</rpm>
</extensions>
</trkpt>
<trkpt lat="64.279960632" lon="-21.087125778">
<ele>115.328125</ele>
<time>2012-07-18T18:03:00Z</time>
<speed>0.080000</speed>
<extensions>
<speed>0.1</speed>
<temp>0.00</temp>
<bpm>0</bpm>
<rpm>0.00</rpm>
</extensions>
</trkpt>
<trkpt lat="64.279968262" lon="-21.087125778">
<ele>115.070313</ele>
<time>2012-07-18T18:03:05Z</time>
<extensions>
<speed>0.0</speed>
<temp>0.00</temp>
<bpm>0</bpm>
<rpm>0.00</rpm>
</extensions>
</trkpt>
<trkpt lat="64.279960632" lon="-21.087123871">
<ele>114.816406</ele>
<time>2012-07-18T18:03:10Z</time>
<speed>0.090000</speed>
<extensions>
<speed>0.1</speed>
<temp>0.00</temp>
<bpm>0</bpm>
<rpm>0.00</rpm>
</extensions>
</trkpt>
<trkpt lat="64.279960632" lon="-21.087121964">
<ele>114.562500</ele>
<time>2012-07-18T18:03:15Z</time>
<speed>0.110000</speed>
<extensions>
<speed>0.1</speed>
<temp>0.00</temp>
<bpm>0</bpm>
<rpm>0.00</rpm>
</extensions>
</trkpt>
<trkpt lat="64.279960632" lon="-21.087121964">
<ele>114.314453</ele>
<time>2012-07-18T18:03:20Z</time>
<speed>0.030000</speed>
<extensions>
<speed>0.0</speed>
<temp>0.00</temp>
<bpm>0</bpm>
<rpm>0.00</rpm>
</extensions>
</trkpt>
<trkpt lat="64.279960632" lon="-21.087123871">
<ele>114.068359</ele>
<time>2012-07-18T18:03:25Z</time>
<speed>0.060000</speed>
<extensions>
<speed>0.1</speed>
<temp>0.00</temp>
<bpm>0</bpm>
<rpm>0.00</rpm>
</extensions>
</trkpt>
<trkpt lat="64.279960632" lon="-21.087123871">
<ele>114.015625</ele>
<time>2012-07-18T18:03:30Z</time>
<extensions>
<speed>0.0</speed>
<temp>0.00</temp>
<bpm>0</bpm>
<rpm>0.00</rpm>
</extensions>
</trkpt>
<trkpt lat="64.279960632" lon="-21.087123871">
<ele>114.017578</ele>
<time>2012-07-18T18:03:35Z</time>
<extensions>
<speed>0.0</speed>
<temp>0.00</temp>
<bpm>0</bpm>
<rpm>0.00</rpm>
</extensions>
</trkpt>
<trkpt lat="64.279960632" lon="-21.087125778">
<ele>114.015625</ele>
<time>2012-07-18T18:03:40Z</time>
<speed>0.010000</speed>
<extensions>
<speed>0.0</speed>
<temp>0.00</temp>
<bpm>0</bpm>
<rpm>0.00</rpm>
</extensions>
</trkpt>
<trkpt lat="64.279960632" lon="-21.087125778">
<ele>114.011719</ele>
<time>2012-07-18T18:03:45Z</time>
<extensions>
<speed>0.0</speed>
<temp>0.00</temp>
<bpm>0</bpm>
<rpm>0.00</rpm>
</extensions>
</trkpt>
<trkpt lat="64.279960632" lon="-21.087123871">
<ele>114.017578</ele>
<time>2012-07-18T18:03:50Z</time>
<extensions>
<speed>0.0</speed>
<temp>0.00</temp>
<bpm>0</bpm>
<rpm>0.00</rpm>
</extensions>
</trkpt>
<trkpt lat="64.279960632" lon="-21.087123871">
<ele>114.021484</ele>
<time>2012-07-18T18:03:55Z</time>
<extensions>
<speed>0.0</speed>
<temp>0.00</temp>
<bpm>0</bpm>
<rpm>0.00</rpm>
</extensions>
</trkpt>
<trkpt lat="64.279960632" lon="-21.087123871">
<ele>114.029297</ele>
<time>2012-07-18T18:04:00Z</time>
<extensions>
<speed>0.0</speed>
<temp>0.00</temp>
<bpm>0</bpm>
<rpm>0.00</rpm>
</extensions>
</trkpt>
<trkpt lat="64.279960632" lon="-21.087121964">
<ele>114.029297</ele>
<time>2012-07-18T18:04:05Z</time>
<speed>0.010000</speed>
<extensions>
<speed>0.0</speed>
<temp>0.00</temp>
<bpm>0</bpm>
<rpm>0.00</rpm>
</extensions>
</trkpt>
<trkpt lat="64.279960632" lon="-21.087121964">
<ele>114.035156</ele>
<time>2012-07-18T18:04:10Z</time>
<speed>0.010000</speed>
<extensions>
<speed>0.0</speed>
<temp>0.00</temp>
<bpm>0</bpm>
<rpm>0.00</rpm>
</extensions>
</trkpt>
<trkpt lat="64.279960632" lon="-21.087121964">
<ele>114.035156</ele>
<time>2012-07-18T18:04:15Z</time>
<speed>0.010000</speed>
<extensions>
<speed>0.0</speed>
<temp>0.00</temp>
<bpm>0</bpm>
<rpm>0.00</rpm>
</extensions>
</trkpt>
<trkpt lat="64.279960632" lon="-21.087121964">
<ele>114.037109</ele>
<time>2012-07-18T18:04:20Z</time>
<speed>0.030000</speed>
<extensions>
<speed>0.0</speed>
<temp>0.00</temp>
<bpm>0</bpm>
<rpm>0.00</rpm>
</extensions>
</trkpt>
<trkpt lat="64.279960632" lon="-21.087120056">
<ele>114.037109</ele>
<time>2012-07-18T18:04:25Z</time>
<speed>0.010000</speed>
<extensions>
<speed>0.0</speed>
<temp>0.00</temp>
<bpm>0</bpm>
<rpm>0.00</rpm>
</extensions>
</trkpt>
<trkpt lat="64.279960632" lon="-21.087118149">
<ele>114.039063</ele>
<time>2012-07-18T18:04:30Z</time>
<extensions>
<speed>0.0</speed>
<temp>0.00</temp>
<bpm>0</bpm>
<rpm>0.00</rpm>
</extensions>
</trkpt>
<trkpt lat="64.279960632" lon="-21.087118149">
<ele>114.039063</ele>
<time>2012-07-18T18:04:35Z</time>
<extensions>
<speed>0.0</speed>
<temp>0.00</temp>
<bpm>0</bpm>
<rpm>0.00</rpm>
</extensions>
</trkpt>
<trkpt lat="64.279960632" lon="-21.087118149">
<ele>114.039063</ele>
<time>2012-07-18T18:04:40Z</time>
<extensions>
<speed>0.0</speed>
<temp>0.00</temp>
<bpm>0</bpm>
<rpm>0.00</rpm>
</extensions>
</trkpt>
<trkpt lat="64.279960632" lon="-21.087118149">
<ele>114.039063</ele>
<time>2012-07-18T18:04:45Z</time>
<speed>0.010000</speed>
<extensions>
<speed>0.0</speed>
<temp>0.00</temp>
<bpm>0</bpm>
<rpm>0.00</rpm>
</extensions>
</trkpt>
<trkpt lat="64.279960632" lon="-21.087114334">
<ele>114.037109</ele>
<time>2012-07-18T18:04:50Z</time>
<speed>0.060000</speed>
<extensions>
<speed>0.1</speed>
<temp>0.00</temp>
<bpm>0</bpm>
<rpm>0.00</rpm>
</extensions>
</trkpt>
<trkpt lat="64.279960632" lon="-21.087112427">
<ele>114.037109</ele>
<time>2012-07-18T18:04:55Z</time>
<speed>0.020000</speed>
<extensions>
<speed>0.0</speed>
<temp>0.00</temp>
<bpm>0</bpm>
<rpm>0.00</rpm>
</extensions>
</trkpt>
<trkpt lat="64.279960632" lon="-21.087112427">
<ele>114.041016</ele>
<time>2012-07-18T18:05:00Z</time>
<extensions>
<speed>0.0</speed>
<temp>0.00</temp>
<bpm>0</bpm>
<rpm>0.00</rpm>
</extensions>
</trkpt>
<trkpt lat="64.279960632" lon="-21.087110519">
<ele>114.041016</ele>
<time>2012-07-18T18:05:05Z</time>
<speed>0.040000</speed>
<extensions>
<speed>0.0</speed>
<temp>0.00</temp>
<bpm>0</bpm>
<rpm>0.00</rpm>
</extensions>
</trkpt>
<trkpt lat="64.279960632" lon="-21.087110519">
<ele>114.048828</ele>
<time>2012-07-18T18:05:10Z</time>
<speed>0.010000</speed>
<extensions>
<speed>0.0</speed>
<temp>0.00</temp>
<bpm>0</bpm>
<rpm>0.00</rpm>
</extensions>
</trkpt>
<trkpt lat="64.279960632" lon="-21.087110519">
<ele>114.052734</ele>
<time>2012-07-18T18:05:15Z</time>
<extensions>
<speed>0.0</speed>
<temp>0.00</temp>
<bpm>0</bpm>
<rpm>0.00</rpm>
</extensions>
</trkpt>
<trkpt lat="64.279960632" lon="-21.087110519">
<ele>114.054688</ele>
<time>2012-07-18T18:05:20Z</time>
<extensions>
<speed>0.0</speed>
<temp>0.00</temp>
<bpm>0</bpm>
<rpm>0.00</rpm>
</extensions>
</trkpt>
<trkpt lat="64.279960632" lon="-21.087110519">
<ele>114.054688</ele>
<time>2012-07-18T18:05:25Z</time>
<speed>0.020000</speed>
<extensions>
<speed>0.0</speed>
<temp>0.00</temp>
<bpm>0</bpm>
<rpm>0.00</rpm>
</extensions>
</trkpt>
<trkpt lat="64.279960632" lon="-21.087110519">
<ele>114.050781</ele>
<time>2012-07-18T18:05:30Z</time>
<speed>0.010000</speed>
<extensions>
<speed>0.0</speed>
<temp>0.00</temp>
<bpm>0</bpm>
<rpm>0.00</rpm>
</extensions>
</trkpt>
<trkpt lat="64.279960632" lon="-21.087108612">
<ele>114.050781</ele>
<time>2012-07-18T18:05:35Z</time>
<speed>0.020000</speed>
<extensions>
<speed>0.0</speed>
<temp>0.00</temp>
<bpm>0</bpm>
<rpm>0.00</rpm>
</extensions>
</trkpt>
<trkpt lat="64.279960632" lon="-21.087106705">
<ele>114.048828</ele>
<time>2012-07-18T18:05:40Z</time>
<speed>0.030000</speed>
<extensions>
<speed>0.0</speed>
<temp>0.00</temp>
<bpm>0</bpm>
<rpm>0.00</rpm>
</extensions>
</trkpt>
<trkpt lat="64.279960632" lon="-21.087108612">
<ele>114.050781</ele>
<time>2012-07-18T18:05:45Z</time>
<speed>0.040000</speed>
<extensions>
<speed>0.0</speed>
<temp>0.00</temp>
<bpm>0</bpm>
<rpm>0.00</rpm>
</extensions>
</trkpt>
<trkpt lat="64.279960632" lon="-21.087163925">
<ele>114.089844</ele>
<time>2012-07-18T18:05:50Z</time>
<speed>0.440000</speed>
<extensions>
<speed>0.4</speed>
<temp>0.00</temp>
<bpm>0</bpm>
<rpm>0.00</rpm>
</extensions>
</trkpt>
<trkpt lat="64.279968262" lon="-21.087198257">
<ele>114.207031</ele>
<time>2012-07-18T18:05:55Z</time>
<speed>0.120000</speed>
<extensions>
<speed>0.1</speed>
<temp>0.00</temp>
<bpm>0</bpm>
<rpm>0.00</rpm>
</extensions>
</trkpt>
<trkpt lat="64.279968262" lon="-21.087200165">
<ele>114.179688</ele>
<time>2012-07-18T18:06:00Z</time>
<speed>0.050000</speed>
<extensions>
<speed>0.1</speed>
<temp>0.00</temp>
<bpm>0</bpm>
<rpm>0.00</rpm>
</extensions>
</trkpt>
<trkpt lat="64.279975891" lon="-21.087196350">
<ele>114.169922</ele>
<time>2012-07-18T18:06:05Z</time>
<speed>0.180000</speed>
<extensions>
<speed>0.2</speed>
<temp>0.00</temp>
<bpm>0</bpm>
<rpm>0.00</rpm>
</extensions>
</trkpt>
<trkpt lat="64.279975891" lon="-21.087177277">
<ele>114.167969</ele>
<time>2012-07-18T18:06:10Z</time>
<speed>0.230000</speed>
<extensions>
<speed>0.2</speed>
<temp>0.00</temp>
<bpm>0</bpm>
<rpm>0.00</rpm>
</extensions>
</trkpt>
<trkpt lat="64.279983521" lon="-21.087165833">
<ele>114.169922</ele>
<time>2012-07-18T18:06:15Z</time>
<speed>0.220000</speed>
<extensions>
<speed>0.2</speed>
<temp>0.00</temp>
<bpm>0</bpm>
<rpm>0.00</rpm>
</extensions>
</trkpt>
<trkpt lat="64.279983521" lon="-21.087177277">
<ele>114.167969</ele>
<time>2012-07-18T18:06:20Z</time>
<speed>0.080000</speed>
<extensions>
<speed>0.1</speed>
<temp>0.00</temp>
<bpm>0</bpm>
<rpm>0.00</rpm>
</extensions>
</trkpt>
<trkpt lat="64.279983521" lon="-21.087175369">
<ele>114.167969</ele>
<time>2012-07-18T18:06:25Z</time>
<speed>0.060000</speed>
<extensions>
<speed>0.1</speed>
<temp>0.00</temp>
<bpm>0</bpm>
<rpm>0.00</rpm>
</extensions>
</trkpt>
<trkpt lat="64.279975891" lon="-21.087171555">
<ele>114.167969</ele>
<time>2012-07-18T18:06:30Z</time>
<speed>0.090000</speed>
<extensions>
<speed>0.1</speed>
<temp>0.00</temp>
<bpm>0</bpm>
<rpm>0.00</rpm>
</extensions>
</trkpt>
<trkpt lat="64.279975891" lon="-21.087160110">
<ele>114.167969</ele>
<time>2012-07-18T18:06:35Z</time>
<speed>0.220000</speed>
<extensions>
<speed>0.2</speed>
<temp>0.00</temp>
<bpm>0</bpm>
<rpm>0.00</rpm>
</extensions>
</trkpt>
<trkpt lat="64.279983521" lon="-21.087146759">
<ele>114.166016</ele>
<time>2012-07-18T18:06:40Z</time>
<speed>0.080000</speed>
<extensions>
<speed>0.1</speed>
<temp>0.00</temp>
<bpm>0</bpm>
<rpm>0.00</rpm>
</extensions>
</trkpt>
<trkpt lat="64.279983521" lon="-21.087139130">
<ele>114.158203</ele>
<time>2012-07-18T18:06:45Z</time>
<speed>0.070000</speed>
<extensions>
<speed>0.1</speed>
<temp>0.00</temp>
<bpm>0</bpm>
<rpm>0.00</rpm>
</extensions>
</trkpt>
<trkpt lat="64.279975891" lon="-21.087144852">
<ele>114.123047</ele>
<time>2012-07-18T18:06:50Z</time>
<speed>0.230000</speed>
<extensions>
<speed>0.2</speed>
<temp>0.00</temp>
<bpm>0</bpm>
<rpm>0.00</rpm>
</extensions>
</trkpt>
<trkpt lat="64.279968262" lon="-21.087160110">
<ele>114.089844</ele>
<time>2012-07-18T18:06:55Z</time>
<speed>0.140000</speed>
<extensions>
<speed>0.1</speed>
<temp>0.00</temp>
<bpm>0</bpm>
<rpm>0.00</rpm>
</extensions>
</trkpt>
<trkpt lat="64.279975891" lon="-21.087142944">
<ele>114.089844</ele>
<time>2012-07-18T18:07:00Z</time>
<speed>0.380000</speed>
<extensions>
<speed>0.4</speed>
<temp>0.00</temp>
<bpm>0</bpm>
<rpm>0.00</rpm>
</extensions>
</trkpt>
<trkpt lat="64.279968262" lon="-21.087110519">
<ele>114.195313</ele>
<time>2012-07-18T18:07:05Z</time>
<speed>0.180000</speed>
<extensions>
<speed>0.2</speed>
<temp>0.00</temp>
<bpm>0</bpm>
<rpm>0.00</rpm>
</extensions>
</trkpt>
<trkpt lat="64.279968262" lon="-21.087118149">
<ele>114.244141</ele>
<time>2012-07-18T18:07:10Z</time>
<speed>0.170000</speed>
<extensions>
<speed>0.2</speed>
<temp>0.00</temp>
<bpm>0</bpm>
<rpm>0.00</rpm>
</extensions>
</trkpt>
<trkpt lat="64.279968262" lon="-21.087112427">
<ele>114.240234</ele>
<time>2012-07-18T18:07:15Z</time>
<speed>0.020000</speed>
<extensions>
<speed>0.0</speed>
<temp>0.00</temp>
<bpm>0</bpm>
<rpm>0.00</rpm>
</extensions>
</trkpt>
<trkpt lat="64.279968262" lon="-21.087118149">
<ele>114.222656</ele>
<time>2012-07-18T18:07:20Z</time>
<speed>0.250000</speed>
<extensions>
<speed>0.2</speed>
<temp>0.00</temp>
<bpm>0</bpm>
<rpm>0.00</rpm>
</extensions>
</trkpt>
<trkpt lat="64.279975891" lon="-21.087127686">
<ele>114.201172</ele>
<time>2012-07-18T18:07:25Z</time>
<speed>0.220000</speed>
<extensions>
<speed>0.2</speed>
<temp>0.00</temp>
<bpm>0</bpm>
<rpm>0.00</rpm>
</extensions>
</trkpt>
<trkpt lat="64.279983521" lon="-21.087116241">
<ele>114.195313</ele>
<time>2012-07-18T18:07:30Z</time>
<speed>0.170000</speed>
<extensions>
<speed>0.2</speed>
<temp>0.00</temp>
<bpm>0</bpm>
<rpm>0.00</rpm>
</extensions>
</trkpt>
<trkpt lat="64.279983521" lon="-21.087118149">
<ele>114.197266</ele>
<time>2012-07-18T18:07:35Z</time>
<speed>0.090000</speed>
<extensions>
<speed>0.1</speed>
<temp>0.00</temp>
<bpm>0</bpm>
<rpm>0.00</rpm>
</extensions>
</trkpt>
<trkpt lat="64.279983521" lon="-21.087137222">
<ele>114.187500</ele>
<time>2012-07-18T18:07:40Z</time>
<speed>0.220000</speed>
<extensions>
<speed>0.2</speed>
<temp>0.00</temp>
<bpm>0</bpm>
<rpm>0.00</rpm>
</extensions>
</trkpt>
<trkpt lat="64.279983521" lon="-21.087146759">
<ele>114.179688</ele>
<time>2012-07-18T18:07:45Z</time>
<speed>0.150000</speed>
<extensions>
<speed>0.2</speed>
<temp>0.00</temp>
<bpm>0</bpm>
<rpm>0.00</rpm>
</extensions>
</trkpt>
<trkpt lat="64.279975891" lon="-21.087131500">
<ele>114.183594</ele>
<time>2012-07-18T18:07:50Z</time>
<speed>0.280000</speed>
<extensions>
<speed>0.3</speed>
<temp>0.00</temp>
<bpm>0</bpm>
<rpm>0.00</rpm>
</extensions>
</trkpt>
<trkpt lat="64.279968262" lon="-21.087108612">
<ele>114.181641</ele>
<time>2012-07-18T18:07:55Z</time>
<speed>0.190000</speed>
<extensions>
<speed>0.2</speed>
<temp>0.00</temp>
<bpm>0</bpm>
<rpm>0.00</rpm>
</extensions>
</trkpt>
<trkpt lat="64.279975891" lon="-21.087087631">
<ele>114.177734</ele>
<time>2012-07-18T18:08:00Z</time>
<speed>0.160000</speed>
<extensions>
<speed>0.2</speed>
<temp>0.00</temp>
<bpm>0</bpm>
<rpm>0.00</rpm>
</extensions>
</trkpt>
<trkpt lat="64.279991150" lon="-21.087102890">
<ele>114.191406</ele>
<time>2012-07-18T18:08:05Z</time>
<speed>0.480000</speed>
<extensions>
<speed>0.5</speed>
<temp>0.00</temp>
<bpm>0</bpm>
<rpm>0.00</rpm>
</extensions>
</trkpt>
<trkpt lat="64.280044556" lon="-21.087081909">
<ele>114.167969</ele>
<time>2012-07-18T18:08:10Z</time>
<speed>0.790000</speed>
<extensions>
<speed>0.8</speed>
<temp>0.00</temp>
<bpm>0</bpm>
<rpm>0.00</rpm>
</extensions>
</trkpt>
<trkpt lat="64.280059814" lon="-21.087108612">
<ele>114.072266</ele>
<time>2012-07-18T18:08:15Z</time>
<speed>0.590000</speed>
<extensions>
<speed>0.6</speed>
<temp>0.00</temp>
<bpm>0</bpm>
<rpm>0.00</rpm>
</extensions>
</trkpt>
<trkpt lat="64.280059814" lon="-21.087093353">
<ele>114.066406</ele>
<time>2012-07-18T18:08:20Z</time>
<speed>0.340000</speed>
<extensions>
<speed>0.3</speed>
<temp>0.00</temp>
<bpm>0</bpm>
<rpm>0.00</rpm>
</extensions>
</trkpt>
<trkpt lat="64.280075073" lon="-21.087064743">
<ele>114.173828</ele>
<time>2012-07-18T18:08:25Z</time>
<speed>0.340000</speed>
<extensions>
<speed>0.3</speed>
<temp>0.00</temp>
<bpm>0</bpm>
<rpm>0.00</rpm>
</extensions>
</trkpt>
<trkpt lat="64.280067444" lon="-21.087087631">
<ele>113.833984</ele>
<time>2012-07-18T18:08:30Z</time>
<speed>0.110000</speed>
<extensions>
<speed>0.1</speed>
<temp>0.00</temp>
<bpm>0</bpm>
<rpm>0.00</rpm>
</extensions>
</trkpt>
<trkpt lat="64.280067444" lon="-21.087083817">
<ele>113.839844</ele>
<time>2012-07-18T18:08:35Z</time>
<speed>0.100000</speed>
<extensions>
<speed>0.1</speed>
<temp>0.00</temp>
<bpm>0</bpm>
<rpm>0.00</rpm>
</extensions>
</trkpt>
<trkpt lat="64.280075073" lon="-21.087087631">
<ele>113.830078</ele>
<time>2012-07-18T18:08:40Z</time>
<speed>0.110000</speed>
<extensions>
<speed>0.1</speed>
<temp>0.00</temp>
<bpm>0</bpm>
<rpm>0.00</rpm>
</extensions>
</trkpt>
<trkpt lat="64.280075073" lon="-21.087093353">
<ele>113.826172</ele>
<time>2012-07-18T18:08:45Z</time>
<speed>0.090000</speed>
<extensions>
<speed>0.1</speed>
<temp>0.00</temp>
<bpm>0</bpm>
<rpm>0.00</rpm>
</extensions>
</trkpt>
<trkpt lat="64.280075073" lon="-21.087104797">
<ele>113.822266</ele>
<time>2012-07-18T18:08:50Z</time>
<speed>0.140000</speed>
<extensions>
<speed>0.1</speed>
<temp>0.00</temp>
<bpm>0</bpm>
<rpm>0.00</rpm>
</extensions>
</trkpt>
<trkpt lat="64.280059814" lon="-21.087146759">
<ele>113.818359</ele>
<time>2012-07-18T18:08:55Z</time>
<speed>0.390000</speed>
<extensions>
<speed>0.4</speed>
<temp>0.00</temp>
<bpm>0</bpm>
<rpm>0.00</rpm>
</extensions>
</trkpt>
<trkpt lat="64.280044556" lon="-21.087171555">
<ele>113.814453</ele>
<time>2012-07-18T18:09:00Z</time>
<speed>0.330000</speed>
<extensions>
<speed>0.3</speed>
<temp>0.00</temp>
<bpm>0</bpm>
<rpm>0.00</rpm>
</extensions>
</trkpt>
<trkpt lat="64.280006409" lon="-21.087238312">
<ele>113.830078</ele>
<time>2012-07-18T18:09:05Z</time>
<speed>0.400000</speed>
<extensions>
<speed>0.4</speed>
<temp>0.00</temp>
<bpm>0</bpm>
<rpm>0.00</rpm>
</extensions>
</trkpt>
<trkpt lat="64.279953003" lon="-21.087299347">
<ele>113.837891</ele>
<time>2012-07-18T18:09:10Z</time>
<speed>0.510000</speed>
<extensions>
<speed>0.5</speed>
<temp>0.00</temp>
<bpm>0</bpm>
<rpm>0.00</rpm>
</extensions>
</trkpt>
<trkpt lat="64.279907227" lon="-21.087358475">
<ele>113.875000</ele>
<time>2012-07-18T18:09:15Z</time>
<speed>0.480000</speed>
<extensions>
<speed>0.5</speed>
<temp>0.00</temp>
<bpm>0</bpm>
<rpm>0.00</rpm>
</extensions>
</trkpt>
<trkpt lat="64.279907227" lon="-21.087364197">
<ele>113.882813</ele>
<time>2012-07-18T18:09:20Z</time>
<speed>0.340000</speed>
<extensions>
<speed>0.3</speed>
<temp>0.00</temp>
<bpm>0</bpm>
<rpm>0.00</rpm>
</extensions>
</trkpt>
<trkpt lat="64.279899597" lon="-21.087341309">
<ele>113.896484</ele>
<time>2012-07-18T18:09:25Z</time>
<speed>0.340000</speed>
<extensions>
<speed>0.3</speed>
<temp>0.00</temp>
<bpm>0</bpm>
<rpm>0.00</rpm>
</extensions>
</trkpt>
<trkpt lat="64.279907227" lon="-21.087312698">
<ele>114.031250</ele>
<time>2012-07-18T18:09:30Z</time>
<speed>0.100000</speed>
<extensions>
<speed>0.1</speed>
<temp>0.00</temp>
<bpm>0</bpm>
<rpm>0.00</rpm>
</extensions>
</trkpt>
<trkpt lat="64.279907227" lon="-21.087305069">
<ele>114.031250</ele>
<time>2012-07-18T18:09:35Z</time>
<speed>0.040000</speed>
<extensions>
<speed>0.0</speed>
<temp>0.00</temp>
<bpm>0</bpm>
<rpm>0.00</rpm>
</extensions>
</trkpt>
<trkpt lat="64.279907227" lon="-21.087297440">
<ele>114.033203</ele>
<time>2012-07-18T18:09:40Z</time>
<speed>0.220000</speed>
<extensions>
<speed>0.2</speed>
<temp>0.00</temp>
<bpm>0</bpm>
<rpm>0.00</rpm>
</extensions>
</trkpt>
<trkpt lat="64.279907227" lon="-21.087280273">
<ele>114.035156</ele>
<time>2012-07-18T18:09:45Z</time>
<speed>0.230000</speed>
<extensions>
<speed>0.2</speed>
<temp>0.00</temp>
<bpm>0</bpm>
<rpm>0.00</rpm>
</extensions>
</trkpt>
<trkpt lat="64.279937744" lon="-21.087278366">
<ele>114.037109</ele>
<time>2012-07-18T18:09:50Z</time>
<speed>0.120000</speed>
<extensions>
<speed>0.1</speed>
<temp>0.00</temp>
<bpm>0</bpm>
<rpm>0.00</rpm>
</extensions>
</trkpt>
<trkpt lat="64.279937744" lon="-21.087266922">
<ele>114.076172</ele>
<time>2012-07-18T18:09:55Z</time>
<speed>0.050000</speed>
<extensions>
<speed>0.1</speed>
<temp>0.00</temp>
<bpm>0</bpm>
<rpm>0.00</rpm>
</extensions>
</trkpt>
<trkpt lat="64.279922485" lon="-21.087270737">
<ele>114.068359</ele>
<time>2012-07-18T18:10:00Z</time>
<speed>0.470000</speed>
<extensions>
<speed>0.5</speed>
<temp>0.00</temp>
<bpm>0</bpm>
<rpm>0.00</rpm>
</extensions>
</trkpt>
<trkpt lat="64.279914856" lon="-21.087217331">
<ele>114.232422</ele>
<time>2012-07-18T18:10:05Z</time>
<speed>0.350000</speed>
<extensions>
<speed>0.3</speed>
<temp>0.00</temp>
<bpm>0</bpm>
<rpm>0.00</rpm>
</extensions>
</trkpt>
<trkpt lat="64.279907227" lon="-21.087150574">
<ele>114.251953</ele>
<time>2012-07-18T18:10:10Z</time>
<speed>0.460000</speed>
<extensions>
<speed>0.5</speed>
<temp>0.00</temp>
<bpm>0</bpm>
<rpm>0.00</rpm>
</extensions>
</trkpt>
<trkpt lat="64.279907227" lon="-21.087112427">
<ele>114.224609</ele>
<time>2012-07-18T18:10:15Z</time>
<speed>0.200000</speed>
<extensions>
<speed>0.2</speed>
<temp>0.00</temp>
<bpm>0</bpm>
<rpm>0.00</rpm>
</extensions>
</trkpt>
<trkpt lat="64.279907227" lon="-21.087095261">
<ele>114.222656</ele>
<time>2012-07-18T18:10:20Z</time>
<speed>0.100000</speed>
<extensions>
<speed>0.1</speed>
<temp>0.00</temp>
<bpm>0</bpm>
<rpm>0.00</rpm>
</extensions>
</trkpt>
<trkpt lat="64.279907227" lon="-21.087078094">
<ele>114.226563</ele>
<time>2012-07-18T18:10:25Z</time>
<speed>0.050000</speed>
<extensions>
<speed>0.1</speed>
<temp>0.00</temp>
<bpm>0</bpm>
<rpm>0.00</rpm>
</extensions>
</trkpt>
<trkpt lat="64.279914856" lon="-21.087129593">
<ele>114.212891</ele>
<time>2012-07-18T18:10:30Z</time>
<speed>0.590000</speed>
<extensions>
<speed>0.6</speed>
<temp>0.00</temp>
<bpm>0</bpm>
<rpm>0.00</rpm>
</extensions>
</trkpt>
<trkpt lat="64.279907227" lon="-21.087085724">
<ele>114.261719</ele>
<time>2012-07-18T18:10:35Z</time>
<speed>0.030000</speed>
<extensions>
<speed>0.0</speed>
<temp>0.00</temp>
<bpm>0</bpm>
<rpm>0.00</rpm>
</extensions>
</trkpt>
<trkpt lat="64.279930115" lon="-21.086914063">
<ele>114.597656</ele>
<time>2012-07-18T18:10:40Z</time>
<speed>0.800000</speed>
<extensions>
<speed>0.8</speed>
<temp>0.00</temp>
<bpm>0</bpm>
<rpm>0.00</rpm>
</extensions>
</trkpt>
<trkpt lat="64.279937744" lon="-21.086818695">
<ele>114.677734</ele>
<time>2012-07-18T18:10:45Z</time>
<speed>0.520000</speed>
<extensions>
<speed>0.5</speed>
<temp>0.00</temp>
<bpm>0</bpm>
<rpm>0.00</rpm>
</extensions>
</trkpt>
<trkpt lat="64.279953003" lon="-21.086858749">
<ele>114.769531</ele>
<time>2012-07-18T18:10:50Z</time>
<speed>0.380000</speed>
<extensions>
<speed>0.4</speed>
<temp>0.00</temp>
<bpm>0</bpm>
<rpm>0.00</rpm>
</extensions>
</trkpt>
<trkpt lat="64.279937744" lon="-21.086912155">
<ele>114.597656</ele>
<time>2012-07-18T18:10:55Z</time>
<speed>0.080000</speed>
<extensions>
<speed>0.1</speed>
<temp>0.00</temp>
<bpm>0</bpm>
<rpm>0.00</rpm>
</extensions>
</trkpt>
<trkpt lat="64.279937744" lon="-21.086978912">
<ele>114.550781</ele>
<time>2012-07-18T18:11:00Z</time>
<speed>0.340000</speed>
<extensions>
<speed>0.3</speed>
<temp>0.00</temp>
<bpm>0</bpm>
<rpm>0.00</rpm>
</extensions>
</trkpt>
<trkpt lat="64.279930115" lon="-21.087102890">
<ele>114.414063</ele>
<time>2012-07-18T18:11:05Z</time>
<speed>0.250000</speed>
<extensions>
<speed>0.2</speed>
<temp>0.00</temp>
<bpm>0</bpm>
<rpm>0.00</rpm>
</extensions>
</trkpt>
<trkpt lat="64.279891968" lon="-21.087177277">
<ele>114.361328</ele>
<time>2012-07-18T18:11:10Z</time>
<speed>0.540000</speed>
<extensions>
<speed>0.5</speed>
<temp>0.00</temp>
<bpm>0</bpm>
<rpm>0.00</rpm>
</extensions>
</trkpt>
<trkpt lat="64.279876709" lon="-21.087190628">
<ele>114.345703</ele>
<time>2012-07-18T18:11:15Z</time>
<speed>0.210000</speed>
<extensions>
<speed>0.2</speed>
<temp>0.00</temp>
<bpm>0</bpm>
<rpm>0.00</rpm>
</extensions>
</trkpt>
<trkpt lat="64.279869080" lon="-21.087200165">
<ele>114.347656</ele>
<time>2012-07-18T18:11:20Z</time>
<speed>0.110000</speed>
<extensions>
<speed>0.1</speed>
<temp>0.00</temp>
<bpm>0</bpm>
<rpm>0.00</rpm>
</extensions>
</trkpt>
<trkpt lat="64.279869080" lon="-21.087205887">
<ele>114.335938</ele>
<time>2012-07-18T18:11:25Z</time>
<speed>0.100000</speed>
<extensions>
<speed>0.1</speed>
<temp>0.00</temp>
<bpm>0</bpm>
<rpm>0.00</rpm>
</extensions>
</trkpt>
<trkpt lat="64.279869080" lon="-21.087190628">
<ele>114.328125</ele>
<time>2012-07-18T18:11:30Z</time>
<speed>0.150000</speed>
<extensions>
<speed>0.2</speed>
<temp>0.00</temp>
<bpm>0</bpm>
<rpm>0.00</rpm>
</extensions>
</trkpt>
<trkpt lat="64.279869080" lon="-21.087173462">
<ele>114.300781</ele>
<time>2012-07-18T18:11:35Z</time>
<speed>0.270000</speed>
<extensions>
<speed>0.3</speed>
<temp>0.00</temp>
<bpm>0</bpm>
<rpm>0.00</rpm>
</extensions>
</trkpt>
<trkpt lat="64.279876709" lon="-21.087171555">
<ele>114.033203</ele>
<time>2012-07-18T18:11:40Z</time>
<speed>0.550000</speed>
<extensions>
<speed>0.6</speed>
<temp>0.00</temp>
<bpm>0</bpm>
<rpm>0.00</rpm>
</extensions>
</trkpt>
<trkpt lat="64.279891968" lon="-21.087127686">
<ele>113.908203</ele>
<time>2012-07-18T18:11:45Z</time>
<speed>0.600000</speed>
<extensions>
<speed>0.6</speed>
<temp>0.00</temp>
<bpm>0</bpm>
<rpm>0.00</rpm>
</extensions>
</trkpt>
<trkpt lat="64.279899597" lon="-21.087135315">
<ele>114.111328</ele>
<time>2012-07-18T18:11:50Z</time>
<speed>0.230000</speed>
<extensions>
<speed>0.2</speed>
<temp>0.00</temp>
<bpm>0</bpm>
<rpm>0.00</rpm>
</extensions>
</trkpt>
<trkpt lat="64.279914856" lon="-21.087142944">
<ele>114.240234</ele>
<time>2012-07-18T18:11:55Z</time>
<speed>0.150000</speed>
<extensions>
<speed>0.2</speed>
<temp>0.00</temp>
<bpm>0</bpm>
<rpm>0.00</rpm>
</extensions>
</trkpt>
<trkpt lat="64.279922485" lon="-21.087137222">
<ele>114.234375</ele>
<time>2012-07-18T18:12:00Z</time>
<speed>0.210000</speed>
<extensions>
<speed>0.2</speed>
<temp>0.00</temp>
<bpm>0</bpm>
<rpm>0.00</rpm>
</extensions>
</trkpt>
<trkpt lat="64.279937744" lon="-21.087144852">
<ele>114.263672</ele>
<time>2012-07-18T18:12:05Z</time>
<speed>0.280000</speed>
<extensions>
<speed>0.3</speed>
<temp>0.00</temp>
<bpm>0</bpm>
<rpm>0.00</rpm>
</extensions>
</trkpt>
<trkpt lat="64.279945374" lon="-21.087131500">
<ele>114.283203</ele>
<time>2012-07-18T18:12:10Z</time>
<speed>0.100000</speed>
<extensions>
<speed>0.1</speed>
<temp>0.00</temp>
<bpm>0</bpm>
<rpm>0.00</rpm>
</extensions>
</trkpt>
<trkpt lat="64.279937744" lon="-21.087123871">
<ele>114.285156</ele>
<time>2012-07-18T18:12:15Z</time>
<speed>0.120000</speed>
<extensions>
<speed>0.1</speed>
<temp>0.00</temp>
<bpm>0</bpm>
<rpm>0.00</rpm>
</extensions>
</trkpt>
<trkpt lat="64.279937744" lon="-21.087112427">
<ele>114.285156</ele>
<time>2012-07-18T18:12:20Z</time>
<speed>0.120000</speed>
<extensions>
<speed>0.1</speed>
<temp>0.00</temp>
<bpm>0</bpm>
<rpm>0.00</rpm>
</extensions>
</trkpt>
<trkpt lat="64.279945374" lon="-21.087112427">
<ele>114.287109</ele>
<time>2012-07-18T18:12:25Z</time>
<speed>0.090000</speed>
<extensions>
<speed>0.1</speed>
<temp>0.00</temp>
<bpm>0</bpm>
<rpm>0.00</rpm>
</extensions>
</trkpt>
<trkpt lat="64.279945374" lon="-21.087121964">
<ele>114.294922</ele>
<time>2012-07-18T18:12:30Z</time>
<speed>0.090000</speed>
<extensions>
<speed>0.1</speed>
<temp>0.00</temp>
<bpm>0</bpm>
<rpm>0.00</rpm>
</extensions>
</trkpt>
<trkpt lat="64.279937744" lon="-21.087137222">
<ele>114.062500</ele>
<time>2012-07-18T18:12:35Z</time>
<speed>0.130000</speed>
<extensions>
<speed>0.1</speed>
<temp>0.00</temp>
<bpm>0</bpm>
<rpm>0.00</rpm>
</extensions>
</trkpt>
</trkseg>
</trk>
</gpx>